<?xml version='1.0' encoding='UTF-8'?><gpx version="1.1" creator="JPX - https://github.com/jenetics/jpx" xmlns="http://www.topografix.com/GPX/1/1"><trk><trkseg><trkpt lat="42.543803469771554" lon="12.038467910806045"><ele>529.0</ele><time>2026-04-12T12:34:58.749Z</time></trkpt><trkpt lat="42.54381360515944" lon="12.038345072528648"><ele>529.0</ele><time>2026-04-12T12:35:00.749Z</time></trkpt><trkpt lat="42.543670139791985" lon="12.038274813788046"><ele>529.0</ele><time>2026-04-12T12:35:04.742Z</time></trkpt><trkpt lat="42.54360748415388" lon="12.038241952369354"><ele>529.0</ele><time>2026-04-12T12:35:05.692Z</time></trkpt><trkpt lat="42.54353896587805" lon="12.038205393514573"><ele>529.0</ele><time>2026-04-12T12:35:06.642Z</time></trkpt><trkpt lat="42.543477263771415" lon="12.038157936736352"><ele>529.8333333333334</ele><time>2026-04-12T12:35:07.592Z</time></trkpt><trkpt lat="42.543412117100075" lon="12.038129105574672"><ele>530.6666666666667</ele><time>2026-04-12T12:35:08.542Z</time></trkpt><trkpt lat="42.54335672559185" lon="12.038075226009143"><ele>531.5</ele><time>2026-04-12T12:35:09.493Z</time></trkpt><trkpt lat="42.54329131323481" lon="12.03797829226511"><ele>532.3333333333334</ele><time>2026-04-12T12:35:11.393Z</time></trkpt><trkpt lat="42.543265513115706" lon="12.037891270398362"><ele>533.1666666666666</ele><time>2026-04-12T12:35:13.293Z</time></trkpt><trkpt lat="42.54332212838845" lon="12.037930099649174"><ele>534.0</ele><time>2026-04-12T12:35:15.193Z</time></trkpt><trkpt lat="42.54342040187433" lon="12.037981097800081"><ele>534.0</ele><time>2026-04-12T12:35:17.093Z</time></trkpt><trkpt lat="42.54350766725569" lon="12.038013392735284"><ele>534.0</ele><time>2026-04-12T12:35:18.043Z</time></trkpt><trkpt lat="42.54359263696328" lon="12.03802921144752"><ele>534.0</ele><time>2026-04-12T12:35:18.999Z</time></trkpt><trkpt lat="42.54370804995016" lon="12.03807816768986"><ele>534.0</ele><time>2026-04-12T12:35:19.999Z</time></trkpt><trkpt lat="42.543845791749185" lon="12.038109445041833"><ele>534.0</ele><time>2026-04-12T12:35:20.999Z</time></trkpt><trkpt lat="42.54401556735239" lon="12.038166709380512"><ele>533.75</ele><time>2026-04-12T12:35:21.999Z</time></trkpt><trkpt lat="42.54414922268453" lon="12.0382337658085"><ele>533.5</ele><time>2026-04-12T12:35:22.999Z</time></trkpt><trkpt lat="42.54427000834288" lon="12.03831285955098"><ele>533.25</ele><time>2026-04-12T12:35:24Z</time></trkpt><trkpt lat="42.54437925716533" lon="12.038416378899358"><ele>533.0</ele><time>2026-04-12T12:35:25Z</time></trkpt><trkpt lat="42.5444887278277" lon="12.038550949059761"><ele>533.1999999999999</ele><time>2026-04-12T12:35:26Z</time></trkpt><trkpt lat="42.544589138886835" lon="12.038684253325362"><ele>533.4</ele><time>2026-04-12T12:35:27Z</time></trkpt><trkpt lat="42.544670129511005" lon="12.038789519650503"><ele>533.5999999999999</ele><time>2026-04-12T12:35:28Z</time></trkpt><trkpt lat="42.54473512165403" lon="12.038844005699243"><ele>533.8</ele><time>2026-04-12T12:35:29Z</time></trkpt><trkpt lat="42.54481816177668" lon="12.038955779446663"><ele>534.0</ele><time>2026-04-12T12:35:30Z</time></trkpt><trkpt lat="42.544908012258794" lon="12.039056213706923"><ele>532.5</ele><time>2026-04-12T12:35:31Z</time></trkpt><trkpt lat="42.545004220136306" lon="12.0391700538145"><ele>531.0</ele><time>2026-04-12T12:35:32Z</time></trkpt><trkpt lat="42.54511666020048" lon="12.039244466409325"><ele>529.5</ele><time>2026-04-12T12:35:33Z</time></trkpt><trkpt lat="42.54523037654991" lon="12.039342593260434"><ele>528.0</ele><time>2026-04-12T12:35:34Z</time></trkpt><trkpt lat="42.54535022469575" lon="12.039429942032394"><ele>530.25</ele><time>2026-04-12T12:35:35Z</time></trkpt><trkpt lat="42.54547014168773" lon="12.039523332049448"><ele>532.5</ele><time>2026-04-12T12:35:36Z</time></trkpt><trkpt lat="42.5455825046338" lon="12.039603338734985"><ele>534.75</ele><time>2026-04-12T12:35:37Z</time></trkpt><trkpt lat="42.54569314650964" lon="12.039676612278658"><ele>537.0</ele><time>2026-04-12T12:35:38Z</time></trkpt><trkpt lat="42.54579920966818" lon="12.039762861308716"><ele>537.0</ele><time>2026-04-12T12:35:39Z</time></trkpt><trkpt lat="42.54592032607741" lon="12.039793834959386"><ele>537.0</ele><time>2026-04-12T12:35:40Z</time></trkpt><trkpt lat="42.54607210396906" lon="12.039790496954545"><ele>537.0</ele><time>2026-04-12T12:35:41Z</time></trkpt><trkpt lat="42.54621539717132" lon="12.039809367212387"><ele>537.0</ele><time>2026-04-12T12:35:42Z</time></trkpt><trkpt lat="42.54635616045842" lon="12.039822155507657"><ele>537.3333333333334</ele><time>2026-04-12T12:35:43Z</time></trkpt><trkpt lat="42.546495506824115" lon="12.039881221260314"><ele>537.6666666666667</ele><time>2026-04-12T12:35:44Z</time></trkpt><trkpt lat="42.54665508669846" lon="12.039918605949653"><ele>538.0</ele><time>2026-04-12T12:35:45Z</time></trkpt><trkpt lat="42.54680235425737" lon="12.039954342015788"><ele>536.0</ele><time>2026-04-12T12:35:46Z</time></trkpt><trkpt lat="42.546947176636685" lon="12.03999212525965"><ele>534.0</ele><time>2026-04-12T12:35:47Z</time></trkpt><trkpt lat="42.54709758737369" lon="12.040027281351987"><ele>532.0</ele><time>2026-04-12T12:35:48Z</time></trkpt><trkpt lat="42.5472445902646" lon="12.040068808068192"><ele>530.0</ele><time>2026-04-12T12:35:49Z</time></trkpt><trkpt lat="42.54740560858947" lon="12.040100600460399"><ele>528.0</ele><time>2026-04-12T12:35:50Z</time></trkpt><trkpt lat="42.5475730134339" lon="12.040130318819173"><ele>526.0</ele><time>2026-04-12T12:35:51Z</time></trkpt><trkpt lat="42.54773676218959" lon="12.040157864228462"><ele>524.6666666666667</ele><time>2026-04-12T12:35:52Z</time></trkpt><trkpt lat="42.54789785602993" lon="12.040184818653973"><ele>523.3333333333334</ele><time>2026-04-12T12:35:53Z</time></trkpt><trkpt lat="42.548052253883895" lon="12.040228772456482"><ele>522.0</ele><time>2026-04-12T12:35:54Z</time></trkpt><trkpt lat="42.548213298920714" lon="12.040284417238487"><ele>522.0</ele><time>2026-04-12T12:35:55Z</time></trkpt><trkpt lat="42.548366531199356" lon="12.040350788009066"><ele>522.0</ele><time>2026-04-12T12:35:56Z</time></trkpt><trkpt lat="42.54851203244513" lon="12.040433873947912"><ele>522.0</ele><time>2026-04-12T12:35:57Z</time></trkpt><trkpt lat="42.54865135545996" lon="12.040510069846057"><ele>520.3333333333334</ele><time>2026-04-12T12:35:58Z</time></trkpt><trkpt lat="42.54879005899405" lon="12.040589255451605"><ele>518.6666666666667</ele><time>2026-04-12T12:35:59Z</time></trkpt><trkpt lat="42.54892553990069" lon="12.04068164214831"><ele>517.0</ele><time>2026-04-12T12:36:00Z</time></trkpt><trkpt lat="42.54905963626506" lon="12.040789829967482"><ele>517.6666666666667</ele><time>2026-04-12T12:36:01Z</time></trkpt><trkpt lat="42.5491979063029" lon="12.0409033968847"><ele>518.3333333333334</ele><time>2026-04-12T12:36:02Z</time></trkpt><trkpt lat="42.54933360343321" lon="12.041025208840002"><ele>519.0</ele><time>2026-04-12T12:36:03Z</time></trkpt><trkpt lat="42.54946812441486" lon="12.041147222294233"><ele>518.0</ele><time>2026-04-12T12:36:04Z</time></trkpt><trkpt lat="42.549596302017555" lon="12.041261270992006"><ele>517.0</ele><time>2026-04-12T12:36:05Z</time></trkpt><trkpt lat="42.54972499504113" lon="12.041368483247544"><ele>516.0</ele><time>2026-04-12T12:36:06Z</time></trkpt><trkpt lat="42.54985728612652" lon="12.041477246022863"><ele>516.0</ele><time>2026-04-12T12:36:07Z</time></trkpt><trkpt lat="42.54998831173254" lon="12.04156796750707"><ele>516.0</ele><time>2026-04-12T12:36:08Z</time></trkpt><trkpt lat="42.55011793347031" lon="12.041642223825384"><ele>516.0</ele><time>2026-04-12T12:36:09Z</time></trkpt><trkpt lat="42.55024549867943" lon="12.041707959321366"><ele>516.0</ele><time>2026-04-12T12:36:10Z</time></trkpt><trkpt lat="42.55037164573846" lon="12.041761532769593"><ele>516.0</ele><time>2026-04-12T12:36:11Z</time></trkpt><trkpt lat="42.55049992205414" lon="12.041812659745903"><ele>516.0</ele><time>2026-04-12T12:36:12Z</time></trkpt><trkpt lat="42.55063804958242" lon="12.04184692331339"><ele>516.0</ele><time>2026-04-12T12:36:13Z</time></trkpt><trkpt lat="42.550777628801846" lon="12.041889788992322"><ele>516.0</ele><time>2026-04-12T12:36:14Z</time></trkpt><trkpt lat="42.550922367206745" lon="12.041939570168292"><ele>516.0</ele><time>2026-04-12T12:36:15Z</time></trkpt><trkpt lat="42.55106545168896" lon="12.041979775051978"><ele>516.0</ele><time>2026-04-12T12:36:16Z</time></trkpt><trkpt lat="42.55121788603548" lon="12.042007486093445"><ele>516.0</ele><time>2026-04-12T12:36:17Z</time></trkpt><trkpt lat="42.55136793448546" lon="12.042010484380057"><ele>515.3333333333334</ele><time>2026-04-12T12:36:18Z</time></trkpt><trkpt lat="42.5515190282957" lon="12.042029101682884"><ele>514.6666666666667</ele><time>2026-04-12T12:36:19Z</time></trkpt><trkpt lat="42.55166926260885" lon="12.042046329419431"><ele>514.0</ele><time>2026-04-12T12:36:20Z</time></trkpt><trkpt lat="42.55182128015238" lon="12.042064612346476"><ele>514.0</ele><time>2026-04-12T12:36:21Z</time></trkpt><trkpt lat="42.55196744290056" lon="12.042103449273164"><ele>514.0</ele><time>2026-04-12T12:36:22Z</time></trkpt><trkpt lat="42.55211499497603" lon="12.042158116890688"><ele>514.0</ele><time>2026-04-12T12:36:23Z</time></trkpt><trkpt lat="42.552259287566976" lon="12.042216035221866"><ele>513.5</ele><time>2026-04-12T12:36:24Z</time></trkpt><trkpt lat="42.552399325217614" lon="12.042274229365166"><ele>513.0</ele><time>2026-04-12T12:36:25Z</time></trkpt><trkpt lat="42.55253714577266" lon="12.042327702624513"><ele>512.5</ele><time>2026-04-12T12:36:26Z</time></trkpt><trkpt lat="42.55267060760946" lon="12.04239692909043"><ele>512.0</ele><time>2026-04-12T12:36:27Z</time></trkpt><trkpt lat="42.55280282481035" lon="12.042470788632334"><ele>513.25</ele><time>2026-04-12T12:36:28Z</time></trkpt><trkpt lat="42.55293468262152" lon="12.042540778654844"><ele>514.5</ele><time>2026-04-12T12:36:29Z</time></trkpt><trkpt lat="42.55307825279668" lon="12.042615008505246"><ele>515.75</ele><time>2026-04-12T12:36:30Z</time></trkpt><trkpt lat="42.55321666527428" lon="12.042693404530588"><ele>517.0</ele><time>2026-04-12T12:36:31Z</time></trkpt><trkpt lat="42.553353766358285" lon="12.042761376201259"><ele>517.0</ele><time>2026-04-12T12:36:32Z</time></trkpt><trkpt lat="42.55349028118692" lon="12.04281195363186"><ele>517.0</ele><time>2026-04-12T12:36:33Z</time></trkpt><trkpt lat="42.55363290086838" lon="12.042838027495733"><ele>517.0</ele><time>2026-04-12T12:36:34Z</time></trkpt><trkpt lat="42.553773546840965" lon="12.042844147734304"><ele>517.0</ele><time>2026-04-12T12:36:35Z</time></trkpt><trkpt lat="42.553906750091556" lon="12.042831346817321"><ele>516.75</ele><time>2026-04-12T12:36:36Z</time></trkpt><trkpt lat="42.554053581208976" lon="12.04280416311346"><ele>516.5</ele><time>2026-04-12T12:36:37Z</time></trkpt><trkpt lat="42.55420136319653" lon="12.042785927517144"><ele>516.25</ele><time>2026-04-12T12:36:38Z</time></trkpt><trkpt lat="42.55434839512176" lon="12.042778253495403"><ele>516.0</ele><time>2026-04-12T12:36:39Z</time></trkpt><trkpt lat="42.55448752134627" lon="12.042809004713902"><ele>517.0</ele><time>2026-04-12T12:36:40Z</time></trkpt><trkpt lat="42.554616861218726" lon="12.042870404399924"><ele>518.0</ele><time>2026-04-12T12:36:41Z</time></trkpt><trkpt lat="42.55473145963519" lon="12.042972778753855"><ele>519.0</ele><time>2026-04-12T12:36:42Z</time></trkpt><trkpt lat="42.55486258885288" lon="12.043067920755048"><ele>520.0</ele><time>2026-04-12T12:36:43Z</time></trkpt><trkpt lat="42.55498560281938" lon="12.04318578879002"><ele>518.6666666666667</ele><time>2026-04-12T12:36:44Z</time></trkpt><trkpt lat="42.555115758748435" lon="12.043297869985729"><ele>517.3333333333334</ele><time>2026-04-12T12:36:45Z</time></trkpt><trkpt lat="42.55525093444558" lon="12.043404104040171"><ele>516.0</ele><time>2026-04-12T12:36:46Z</time></trkpt><trkpt lat="42.55540100300858" lon="12.043493913986563"><ele>518.6666666666666</ele><time>2026-04-12T12:36:47Z</time></trkpt><trkpt lat="42.5555626145236" lon="12.04354861687718"><ele>521.3333333333333</ele><time>2026-04-12T12:36:48Z</time></trkpt><trkpt lat="42.55572002320096" lon="12.043589455288924"><ele>524.0</ele><time>2026-04-12T12:36:49Z</time></trkpt><trkpt lat="42.55587738985404" lon="12.04361232967925"><ele>524.0</ele><time>2026-04-12T12:36:50Z</time></trkpt><trkpt lat="42.55603114132582" lon="12.043627275424983"><ele>524.0</ele><time>2026-04-12T12:36:51Z</time></trkpt><trkpt lat="42.556193729556234" lon="12.04363698323516"><ele>524.0</ele><time>2026-04-12T12:36:52Z</time></trkpt><trkpt lat="42.55634980461286" lon="12.043646380993005"><ele>522.6666666666666</ele><time>2026-04-12T12:36:53Z</time></trkpt><trkpt lat="42.55651340849922" lon="12.043627975282542"><ele>521.3333333333334</ele><time>2026-04-12T12:36:54Z</time></trkpt><trkpt lat="42.55668521154661" lon="12.043606033067718"><ele>520.0</ele><time>2026-04-12T12:36:55Z</time></trkpt><trkpt lat="42.55685962031525" lon="12.04358588670469"><ele>516.6666666666667</ele><time>2026-04-12T12:36:56Z</time></trkpt><trkpt lat="42.557040767180105" lon="12.043569343735593"><ele>513.3333333333334</ele><time>2026-04-12T12:36:57Z</time></trkpt><trkpt lat="42.55722652866369" lon="12.04359507525397"><ele>510.0</ele><time>2026-04-12T12:36:58Z</time></trkpt><trkpt lat="42.55741081354952" lon="12.043625755472197"><ele>510.0</ele><time>2026-04-12T12:36:59Z</time></trkpt><trkpt lat="42.55760270382185" lon="12.043656770928227"><ele>510.0</ele><time>2026-04-12T12:37:00Z</time></trkpt><trkpt lat="42.557787620427824" lon="12.04371424096098"><ele>510.0</ele><time>2026-04-12T12:37:01Z</time></trkpt><trkpt lat="42.55797424050725" lon="12.043768757542374"><ele>512.0</ele><time>2026-04-12T12:37:02Z</time></trkpt><trkpt lat="42.55814981256161" lon="12.043831545789866"><ele>514.0</ele><time>2026-04-12T12:37:03Z</time></trkpt><trkpt lat="42.55831496476859" lon="12.043891610158825"><ele>516.0</ele><time>2026-04-12T12:37:04Z</time></trkpt><trkpt lat="42.55848420028581" lon="12.043938390885263"><ele>516.0</ele><time>2026-04-12T12:37:05Z</time></trkpt><trkpt lat="42.558658939293025" lon="12.043961852805067"><ele>516.0</ele><time>2026-04-12T12:37:06Z</time></trkpt><trkpt lat="42.55883570680901" lon="12.043965846528113"><ele>516.0</ele><time>2026-04-12T12:37:07Z</time></trkpt><trkpt lat="42.55901743385105" lon="12.043948951205936"><ele>516.0</ele><time>2026-04-12T12:37:08Z</time></trkpt><trkpt lat="42.55920506300344" lon="12.04393688728335"><ele>516.0</ele><time>2026-04-12T12:37:09Z</time></trkpt><trkpt lat="42.559391022313974" lon="12.043934301480611"><ele>516.0</ele><time>2026-04-12T12:37:10Z</time></trkpt><trkpt lat="42.55958946832055" lon="12.043942666811937"><ele>515.6666666666666</ele><time>2026-04-12T12:37:11Z</time></trkpt><trkpt lat="42.559780688396934" lon="12.043968937873094"><ele>515.3333333333333</ele><time>2026-04-12T12:37:12Z</time></trkpt><trkpt lat="42.55997012369892" lon="12.044011036254537"><ele>515.0</ele><time>2026-04-12T12:37:13Z</time></trkpt><trkpt lat="42.56015595420818" lon="12.04407855393777"><ele>514.3333333333333</ele><time>2026-04-12T12:37:14Z</time></trkpt><trkpt lat="42.56034205743526" lon="12.044157639577785"><ele>513.6666666666666</ele><time>2026-04-12T12:37:15Z</time></trkpt><trkpt lat="42.56051754177716" lon="12.044256636640517"><ele>513.0</ele><time>2026-04-12T12:37:16Z</time></trkpt><trkpt lat="42.560688971458646" lon="12.044361730307212"><ele>513.0</ele><time>2026-04-12T12:37:17Z</time></trkpt><trkpt lat="42.56085705868033" lon="12.044474099034154"><ele>513.0</ele><time>2026-04-12T12:37:18Z</time></trkpt><trkpt lat="42.56102684199013" lon="12.044590000572503"><ele>513.0</ele><time>2026-04-12T12:37:19Z</time></trkpt><trkpt lat="42.5611958791938" lon="12.044693375298538"><ele>512.0</ele><time>2026-04-12T12:37:20Z</time></trkpt><trkpt lat="42.561361612813485" lon="12.044791873001397"><ele>511.0</ele><time>2026-04-12T12:37:21Z</time></trkpt><trkpt lat="42.561521427218096" lon="12.044885734168453"><ele>510.0</ele><time>2026-04-12T12:37:22Z</time></trkpt><trkpt lat="42.56168239907823" lon="12.044983015213253"><ele>510.0</ele><time>2026-04-12T12:37:23Z</time></trkpt><trkpt lat="42.56184210075049" lon="12.045090986668976"><ele>510.0</ele><time>2026-04-12T12:37:24Z</time></trkpt><trkpt lat="42.5620001050917" lon="12.045192581448644"><ele>510.0</ele><time>2026-04-12T12:37:25Z</time></trkpt><trkpt lat="42.562161289686394" lon="12.045291135121113"><ele>507.0</ele><time>2026-04-12T12:37:26Z</time></trkpt><trkpt lat="42.56231986672616" lon="12.045390148366332"><ele>504.0</ele><time>2026-04-12T12:37:27Z</time></trkpt><trkpt lat="42.562481693196865" lon="12.04549167807082"><ele>501.0</ele><time>2026-04-12T12:37:28Z</time></trkpt><trkpt lat="42.56264004127283" lon="12.045595828152978"><ele>501.0</ele><time>2026-04-12T12:37:29Z</time></trkpt><trkpt lat="42.56279979283202" lon="12.045710241230891"><ele>501.0</ele><time>2026-04-12T12:37:30Z</time></trkpt><trkpt lat="42.56295298931774" lon="12.045848135136335"><ele>501.0</ele><time>2026-04-12T12:37:31Z</time></trkpt><trkpt lat="42.56310042574883" lon="12.04599004122688"><ele>501.33333333333337</ele><time>2026-04-12T12:37:32Z</time></trkpt><trkpt lat="42.56325174253811" lon="12.046133167409737"><ele>501.6666666666667</ele><time>2026-04-12T12:37:33Z</time></trkpt><trkpt lat="42.56339943106347" lon="12.046281373781785"><ele>502.0</ele><time>2026-04-12T12:37:34Z</time></trkpt><trkpt lat="42.563544762333315" lon="12.046430560920895"><ele>502.0</ele><time>2026-04-12T12:37:35Z</time></trkpt><trkpt lat="42.563680049445274" lon="12.0465927138699"><ele>502.0</ele><time>2026-04-12T12:37:36Z</time></trkpt><trkpt lat="42.56382384995643" lon="12.046748756694555"><ele>502.0</ele><time>2026-04-12T12:37:37Z</time></trkpt><trkpt lat="42.563971294922354" lon="12.046894620950148"><ele>502.33333333333337</ele><time>2026-04-12T12:37:38Z</time></trkpt><trkpt lat="42.56411713279128" lon="12.047047478086428"><ele>502.66666666666663</ele><time>2026-04-12T12:37:39Z</time></trkpt><trkpt lat="42.56426006824271" lon="12.047198523570925"><ele>503.0</ele><time>2026-04-12T12:37:40Z</time></trkpt><trkpt lat="42.56441199392251" lon="12.047348460404399"><ele>504.3333333333333</ele><time>2026-04-12T12:37:41Z</time></trkpt><trkpt lat="42.56455617916157" lon="12.047494309816718"><ele>505.66666666666663</ele><time>2026-04-12T12:37:42Z</time></trkpt><trkpt lat="42.5647049233109" lon="12.047624344007264"><ele>507.0</ele><time>2026-04-12T12:37:43Z</time></trkpt><trkpt lat="42.56485938116287" lon="12.047744624351209"><ele>507.0</ele><time>2026-04-12T12:37:44Z</time></trkpt><trkpt lat="42.56501453800964" lon="12.047851734168784"><ele>507.0</ele><time>2026-04-12T12:37:45Z</time></trkpt><trkpt lat="42.56518452094046" lon="12.047947912514484"><ele>507.0</ele><time>2026-04-12T12:37:46Z</time></trkpt><trkpt lat="42.56536347864914" lon="12.048030272036957"><ele>507.66666666666663</ele><time>2026-04-12T12:37:47Z</time></trkpt><trkpt lat="42.56554290398349" lon="12.048119026827187"><ele>508.3333333333333</ele><time>2026-04-12T12:37:48Z</time></trkpt><trkpt lat="42.56572814146623" lon="12.04819841720094"><ele>509.0</ele><time>2026-04-12T12:37:49Z</time></trkpt><trkpt lat="42.565920476084344" lon="12.04828427802243"><ele>508.3333333333333</ele><time>2026-04-12T12:37:50Z</time></trkpt><trkpt lat="42.566104776501234" lon="12.048357568000231"><ele>507.66666666666663</ele><time>2026-04-12T12:37:51Z</time></trkpt><trkpt lat="42.56629420514694" lon="12.048414573146893"><ele>507.0</ele><time>2026-04-12T12:37:52Z</time></trkpt><trkpt lat="42.566483743041275" lon="12.048477018542464"><ele>507.0</ele><time>2026-04-12T12:37:53Z</time></trkpt><trkpt lat="42.56667889807288" lon="12.048518615581928"><ele>507.0</ele><time>2026-04-12T12:37:54Z</time></trkpt><trkpt lat="42.566872133539974" lon="12.048551425081445"><ele>507.0</ele><time>2026-04-12T12:37:55Z</time></trkpt><trkpt lat="42.56706370689249" lon="12.048580548640603"><ele>506.66666666666663</ele><time>2026-04-12T12:37:56Z</time></trkpt><trkpt lat="42.56724814959776" lon="12.048611050955842"><ele>506.3333333333333</ele><time>2026-04-12T12:37:57Z</time></trkpt><trkpt lat="42.56743786664199" lon="12.04863200160368"><ele>506.0</ele><time>2026-04-12T12:37:58Z</time></trkpt><trkpt lat="42.56762296768811" lon="12.048651508678464"><ele>506.0</ele><time>2026-04-12T12:37:59Z</time></trkpt><trkpt lat="42.567810761122715" lon="12.04866894223059"><ele>506.0</ele><time>2026-04-12T12:38:00Z</time></trkpt><trkpt lat="42.56799780687646" lon="12.04868373542711"><ele>506.0</ele><time>2026-04-12T12:38:01Z</time></trkpt><trkpt lat="42.5681835268078" lon="12.048692456641394"><ele>508.0</ele><time>2026-04-12T12:38:02Z</time></trkpt><trkpt lat="42.56836672602176" lon="12.048690123905487"><ele>510.0</ele><time>2026-04-12T12:38:03Z</time></trkpt><trkpt lat="42.56855134179235" lon="12.048683627495167"><ele>512.0</ele><time>2026-04-12T12:38:04Z</time></trkpt><trkpt lat="42.568739553524665" lon="12.048664328294894"><ele>512.0</ele><time>2026-04-12T12:38:05Z</time></trkpt><trkpt lat="42.56893050337771" lon="12.048638418357186"><ele>512.0</ele><time>2026-04-12T12:38:06Z</time></trkpt><trkpt lat="42.56911666838261" lon="12.048612104014842"><ele>512.0</ele><time>2026-04-12T12:38:07Z</time></trkpt><trkpt lat="42.569308703958015" lon="12.048581989451415"><ele>512.0</ele><time>2026-04-12T12:38:08Z</time></trkpt><trkpt lat="42.569506104257854" lon="12.048552850494186"><ele>512.0</ele><time>2026-04-12T12:38:09Z</time></trkpt><trkpt lat="42.569693915940945" lon="12.048522789385187"><ele>512.0</ele><time>2026-04-12T12:38:10Z</time></trkpt><trkpt lat="42.569890034003336" lon="12.048502532953886"><ele>514.3333333333333</ele><time>2026-04-12T12:38:11Z</time></trkpt><trkpt lat="42.57008765570543" lon="12.04849559894576"><ele>516.6666666666666</ele><time>2026-04-12T12:38:12Z</time></trkpt><trkpt lat="42.5702797316822" lon="12.04851091370605"><ele>519.0</ele><time>2026-04-12T12:38:13Z</time></trkpt><trkpt lat="42.57047346274336" lon="12.048546991192419"><ele>521.0</ele><time>2026-04-12T12:38:14Z</time></trkpt><trkpt lat="42.57065712512171" lon="12.048604345240037"><ele>523.0</ele><time>2026-04-12T12:38:15Z</time></trkpt><trkpt lat="42.57082893848268" lon="12.048678373830576"><ele>525.0</ele><time>2026-04-12T12:38:16Z</time></trkpt><trkpt lat="42.570996982025015" lon="12.0487525650827"><ele>525.0</ele><time>2026-04-12T12:38:17Z</time></trkpt><trkpt lat="42.571169197941494" lon="12.048816343204306"><ele>525.0</ele><time>2026-04-12T12:38:18Z</time></trkpt><trkpt lat="42.5713502103061" lon="12.048865486077684"><ele>525.0</ele><time>2026-04-12T12:38:19Z</time></trkpt><trkpt lat="42.571530036018515" lon="12.048894997047727"><ele>525.0</ele><time>2026-04-12T12:38:20Z</time></trkpt><trkpt lat="42.57171564474853" lon="12.048919279012424"><ele>525.0</ele><time>2026-04-12T12:38:21Z</time></trkpt><trkpt lat="42.57190661102189" lon="12.048926560555214"><ele>525.0</ele><time>2026-04-12T12:38:22Z</time></trkpt><trkpt lat="42.57210114849265" lon="12.048928446758858"><ele>524.0</ele><time>2026-04-12T12:38:23Z</time></trkpt><trkpt lat="42.57228878029391" lon="12.04892712785838"><ele>523.0</ele><time>2026-04-12T12:38:24Z</time></trkpt><trkpt lat="42.572477398076856" lon="12.04894020701691"><ele>522.0</ele><time>2026-04-12T12:38:25Z</time></trkpt><trkpt lat="42.57266123194687" lon="12.048980659385533"><ele>522.0</ele><time>2026-04-12T12:38:26Z</time></trkpt><trkpt lat="42.57284641592287" lon="12.049040748998"><ele>522.0</ele><time>2026-04-12T12:38:27Z</time></trkpt><trkpt lat="42.57303265895559" lon="12.049112103580018"><ele>522.0</ele><time>2026-04-12T12:38:28Z</time></trkpt><trkpt lat="42.57322158685335" lon="12.049188531014208"><ele>520.6666666666666</ele><time>2026-04-12T12:38:29Z</time></trkpt><trkpt lat="42.57341009576215" lon="12.049266257090757"><ele>519.3333333333333</ele><time>2026-04-12T12:38:30Z</time></trkpt><trkpt lat="42.573595072957076" lon="12.049345829976668"><ele>518.0</ele><time>2026-04-12T12:38:31Z</time></trkpt><trkpt lat="42.573778811690154" lon="12.04942462470388"><ele>518.0</ele><time>2026-04-12T12:38:32Z</time></trkpt><trkpt lat="42.57395530592168" lon="12.049494457592232"><ele>518.0</ele><time>2026-04-12T12:38:33Z</time></trkpt><trkpt lat="42.574123113311195" lon="12.04955770823568"><ele>518.0</ele><time>2026-04-12T12:38:34Z</time></trkpt><trkpt lat="42.57428956258247" lon="12.04960571347287"><ele>518.0</ele><time>2026-04-12T12:38:35Z</time></trkpt><trkpt lat="42.57445102142066" lon="12.049631406528897"><ele>518.0</ele><time>2026-04-12T12:38:36Z</time></trkpt><trkpt lat="42.57460875934155" lon="12.0496234493398"><ele>518.0</ele><time>2026-04-12T12:38:37Z</time></trkpt><trkpt lat="42.574764780719775" lon="12.04958577689932"><ele>520.0</ele><time>2026-04-12T12:38:38Z</time></trkpt><trkpt lat="42.574921326300014" lon="12.049527856091107"><ele>522.0</ele><time>2026-04-12T12:38:39Z</time></trkpt><trkpt lat="42.575082421259935" lon="12.049475851460894"><ele>524.0</ele><time>2026-04-12T12:38:40Z</time></trkpt><trkpt lat="42.57524690662441" lon="12.049426283891021"><ele>524.6666666666666</ele><time>2026-04-12T12:38:41Z</time></trkpt><trkpt lat="42.57541296129872" lon="12.049377566273387"><ele>525.3333333333334</ele><time>2026-04-12T12:38:42Z</time></trkpt><trkpt lat="42.57557520304755" lon="12.049331614446512"><ele>526.0</ele><time>2026-04-12T12:38:43Z</time></trkpt><trkpt lat="42.57574317302261" lon="12.049287449341177"><ele>526.0</ele><time>2026-04-12T12:38:44Z</time></trkpt><trkpt lat="42.57591360691226" lon="12.049241354679799"><ele>526.0</ele><time>2026-04-12T12:38:45Z</time></trkpt><trkpt lat="42.576078170895244" lon="12.049189183200458"><ele>526.0</ele><time>2026-04-12T12:38:46Z</time></trkpt><trkpt lat="42.5762473813894" lon="12.04914140715922"><ele>527.3333333333334</ele><time>2026-04-12T12:38:47Z</time></trkpt><trkpt lat="42.57642402679627" lon="12.049090147904701"><ele>528.6666666666666</ele><time>2026-04-12T12:38:48Z</time></trkpt><trkpt lat="42.57660477301111" lon="12.049036743006655"><ele>530.0</ele><time>2026-04-12T12:38:49Z</time></trkpt><trkpt lat="42.57678856924498" lon="12.048981163746419"><ele>530.0</ele><time>2026-04-12T12:38:50Z</time></trkpt><trkpt lat="42.57697360529771" lon="12.048926772327874"><ele>530.0</ele><time>2026-04-12T12:38:51Z</time></trkpt><trkpt lat="42.577163861169204" lon="12.048872420801429"><ele>530.0</ele><time>2026-04-12T12:38:52Z</time></trkpt><trkpt lat="42.57735287697009" lon="12.04881885403435"><ele>531.0</ele><time>2026-04-12T12:38:53Z</time></trkpt><trkpt lat="42.57753898502096" lon="12.04877160202798"><ele>532.0</ele><time>2026-04-12T12:38:54Z</time></trkpt><trkpt lat="42.577723334034495" lon="12.048724033541795"><ele>533.0</ele><time>2026-04-12T12:38:55Z</time></trkpt><trkpt lat="42.577909275103366" lon="12.04866699487111"><ele>534.0</ele><time>2026-04-12T12:38:56Z</time></trkpt><trkpt lat="42.578086358511804" lon="12.04861476384555"><ele>535.0</ele><time>2026-04-12T12:38:57Z</time></trkpt><trkpt lat="42.578270759802294" lon="12.04855446370299"><ele>536.0</ele><time>2026-04-12T12:38:58Z</time></trkpt><trkpt lat="42.57845484421643" lon="12.048491667360478"><ele>536.0</ele><time>2026-04-12T12:38:59Z</time></trkpt><trkpt lat="42.57863546911416" lon="12.048422783416667"><ele>536.0</ele><time>2026-04-12T12:39:00Z</time></trkpt><trkpt lat="42.57881669679436" lon="12.048350399293975"><ele>536.0</ele><time>2026-04-12T12:39:01Z</time></trkpt><trkpt lat="42.57899204400411" lon="12.048269271995238"><ele>535.6666666666666</ele><time>2026-04-12T12:39:02Z</time></trkpt><trkpt lat="42.57917016518717" lon="12.048180918324151"><ele>535.3333333333334</ele><time>2026-04-12T12:39:03Z</time></trkpt><trkpt lat="42.5793500514672" lon="12.048086937432041"><ele>535.0</ele><time>2026-04-12T12:39:04Z</time></trkpt><trkpt lat="42.579525881819045" lon="12.047988394596723"><ele>536.6666666666667</ele><time>2026-04-12T12:39:05Z</time></trkpt><trkpt lat="42.5796896370294" lon="12.047887145995174"><ele>538.3333333333334</ele><time>2026-04-12T12:39:06Z</time></trkpt><trkpt lat="42.57983141507989" lon="12.04777111541006"><ele>540.0</ele><time>2026-04-12T12:39:07Z</time></trkpt><trkpt lat="42.57994661498666" lon="12.047629402210795"><ele>540.0</ele><time>2026-04-12T12:39:08Z</time></trkpt><trkpt lat="42.58004357382639" lon="12.047463688843369"><ele>540.0</ele><time>2026-04-12T12:39:09Z</time></trkpt><trkpt lat="42.580124439217116" lon="12.047274467553299"><ele>540.0</ele><time>2026-04-12T12:39:10Z</time></trkpt><trkpt lat="42.58019788344551" lon="12.047063866276398"><ele>539.3333333333334</ele><time>2026-04-12T12:39:11Z</time></trkpt><trkpt lat="42.58026843632563" lon="12.046836858345843"><ele>538.6666666666667</ele><time>2026-04-12T12:39:12Z</time></trkpt><trkpt lat="42.580344494497666" lon="12.046601341977025"><ele>538.0</ele><time>2026-04-12T12:39:13Z</time></trkpt><trkpt lat="42.58042058747114" lon="12.046380404500026"><ele>538.0</ele><time>2026-04-12T12:39:14Z</time></trkpt><trkpt lat="42.580494798174925" lon="12.046158254252841"><ele>538.0</ele><time>2026-04-12T12:39:15Z</time></trkpt><trkpt lat="42.58057065140756" lon="12.04593730168086"><ele>538.0</ele><time>2026-04-12T12:39:16Z</time></trkpt><trkpt lat="42.5806452531872" lon="12.045719514368624"><ele>537.6666666666667</ele><time>2026-04-12T12:39:17Z</time></trkpt><trkpt lat="42.580716275093096" lon="12.045501380339006"><ele>537.3333333333334</ele><time>2026-04-12T12:39:18Z</time></trkpt><trkpt lat="42.58078905267196" lon="12.045279234457205"><ele>537.0</ele><time>2026-04-12T12:39:19Z</time></trkpt><trkpt lat="42.58086076623367" lon="12.045059310068892"><ele>537.3333333333334</ele><time>2026-04-12T12:39:20Z</time></trkpt><trkpt lat="42.58092627996088" lon="12.044843098821325"><ele>537.6666666666667</ele><time>2026-04-12T12:39:21Z</time></trkpt><trkpt lat="42.58099734669492" lon="12.044624825516172"><ele>538.0</ele><time>2026-04-12T12:39:22Z</time></trkpt><trkpt lat="42.581070883874446" lon="12.044399748694312"><ele>538.0</ele><time>2026-04-12T12:39:23Z</time></trkpt><trkpt lat="42.58114762075648" lon="12.044169079352127"><ele>538.0</ele><time>2026-04-12T12:39:24Z</time></trkpt><trkpt lat="42.581220075544856" lon="12.04393359892701"><ele>538.0</ele><time>2026-04-12T12:39:25Z</time></trkpt><trkpt lat="42.58129487163512" lon="12.043699650402234"><ele>537.6666666666667</ele><time>2026-04-12T12:39:26Z</time></trkpt><trkpt lat="42.58137199117234" lon="12.04345721800438"><ele>537.3333333333334</ele><time>2026-04-12T12:39:27Z</time></trkpt><trkpt lat="42.58145294932266" lon="12.043208041501329"><ele>537.0</ele><time>2026-04-12T12:39:28Z</time></trkpt><trkpt lat="42.581531565549085" lon="12.042970842632865"><ele>537.0</ele><time>2026-04-12T12:39:29Z</time></trkpt><trkpt lat="42.58160875044937" lon="12.042738601765118"><ele>537.0</ele><time>2026-04-12T12:39:30Z</time></trkpt><trkpt lat="42.58168498163769" lon="12.042516733934994"><ele>537.0</ele><time>2026-04-12T12:39:31Z</time></trkpt><trkpt lat="42.58175726648545" lon="12.042303773351858"><ele>537.6666666666666</ele><time>2026-04-12T12:39:32Z</time></trkpt><trkpt lat="42.58182359434802" lon="12.042098321495363"><ele>538.3333333333333</ele><time>2026-04-12T12:39:33Z</time></trkpt><trkpt lat="42.5818946609765" lon="12.041907271096871"><ele>539.0</ele><time>2026-04-12T12:39:34Z</time></trkpt><trkpt lat="42.58198134295533" lon="12.041738011905958"><ele>540.25</ele><time>2026-04-12T12:39:35Z</time></trkpt><trkpt lat="42.58208622091764" lon="12.041595515473395"><ele>541.5</ele><time>2026-04-12T12:39:36Z</time></trkpt><trkpt lat="42.58221651747236" lon="12.041521621710693"><ele>542.75</ele><time>2026-04-12T12:39:37Z</time></trkpt><trkpt lat="42.582343115743" lon="12.041478490441417"><ele>544.0</ele><time>2026-04-12T12:39:38Z</time></trkpt><trkpt lat="42.5824639380112" lon="12.041451580827722"><ele>544.0</ele><time>2026-04-12T12:39:39Z</time></trkpt><trkpt lat="42.582588078342226" lon="12.0414001895341"><ele>544.0</ele><time>2026-04-12T12:39:40Z</time></trkpt><trkpt lat="42.58273220860726" lon="12.04138866161653"><ele>544.0</ele><time>2026-04-12T12:39:41Z</time></trkpt><trkpt lat="42.582875806902585" lon="12.041355515375127"><ele>544.0</ele><time>2026-04-12T12:39:42Z</time></trkpt><trkpt lat="42.58302626041644" lon="12.041321144275686"><ele>543.0</ele><time>2026-04-12T12:39:43Z</time></trkpt><trkpt lat="42.583174923216504" lon="12.041287589453981"><ele>542.0</ele><time>2026-04-12T12:39:44Z</time></trkpt><trkpt lat="42.58332685506995" lon="12.041231767876367"><ele>541.0</ele><time>2026-04-12T12:39:45Z</time></trkpt><trkpt lat="42.58349015656177" lon="12.041195390402706"><ele>541.0</ele><time>2026-04-12T12:39:46Z</time></trkpt><trkpt lat="42.583657513963665" lon="12.041151990369091"><ele>541.0</ele><time>2026-04-12T12:39:47Z</time></trkpt><trkpt lat="42.58382328537913" lon="12.041110728267466"><ele>541.0</ele><time>2026-04-12T12:39:48Z</time></trkpt><trkpt lat="42.584007851047645" lon="12.041065399775025"><ele>537.6666666666667</ele><time>2026-04-12T12:39:49Z</time></trkpt><trkpt lat="42.58419285039721" lon="12.041017308006312"><ele>534.3333333333334</ele><time>2026-04-12T12:39:50Z</time></trkpt><trkpt lat="42.5843889737703" lon="12.04096716159042"><ele>531.0</ele><time>2026-04-12T12:39:51Z</time></trkpt><trkpt lat="42.58459231316345" lon="12.040912112632048"><ele>529.0</ele><time>2026-04-12T12:39:52Z</time></trkpt><trkpt lat="42.58479236455723" lon="12.040859312990714"><ele>527.0</ele><time>2026-04-12T12:39:53Z</time></trkpt><trkpt lat="42.58498980647944" lon="12.040805287473297"><ele>525.0</ele><time>2026-04-12T12:39:54Z</time></trkpt><trkpt lat="42.58518637240837" lon="12.040750713658129"><ele>524.3333333333334</ele><time>2026-04-12T12:39:55Z</time></trkpt><trkpt lat="42.58538286328865" lon="12.040695187710575"><ele>523.6666666666667</ele><time>2026-04-12T12:39:56Z</time></trkpt><trkpt lat="42.58558110601757" lon="12.040651403822379"><ele>523.0</ele><time>2026-04-12T12:39:57Z</time></trkpt><trkpt lat="42.58578199600924" lon="12.040633139845285"><ele>523.0</ele><time>2026-04-12T12:39:58Z</time></trkpt><trkpt lat="42.585982894682516" lon="12.040631061481362"><ele>523.0</ele><time>2026-04-12T12:39:59Z</time></trkpt><trkpt lat="42.58618531295474" lon="12.04063745804715"><ele>523.0</ele><time>2026-04-12T12:40:00Z</time></trkpt><trkpt lat="42.58639101488055" lon="12.040645799345029"><ele>523.0</ele><time>2026-04-12T12:40:01Z</time></trkpt><trkpt lat="42.586598495694645" lon="12.040659692200833"><ele>523.0</ele><time>2026-04-12T12:40:02Z</time></trkpt><trkpt lat="42.58680745642586" lon="12.040674004895676"><ele>523.0</ele><time>2026-04-12T12:40:03Z</time></trkpt><trkpt lat="42.58702876005253" lon="12.040687772659568"><ele>523.0</ele><time>2026-04-12T12:40:04Z</time></trkpt><trkpt lat="42.587267384802864" lon="12.040709451120014"><ele>523.0</ele><time>2026-04-12T12:40:05Z</time></trkpt><trkpt lat="42.58751652456271" lon="12.040722519535063"><ele>523.0</ele><time>2026-04-12T12:40:06Z</time></trkpt><trkpt lat="42.58779979601256" lon="12.040745675054312"><ele>523.0</ele><time>2026-04-12T12:40:07Z</time></trkpt><trkpt lat="42.58804229005918" lon="12.040762487655611"><ele>520.6666666666667</ele><time>2026-04-12T12:40:09Z</time></trkpt><trkpt lat="42.588250970713304" lon="12.040778421333684"><ele>518.3333333333334</ele><time>2026-04-12T12:40:10Z</time></trkpt><trkpt lat="42.588456508840466" lon="12.040803154359997"><ele>516.0</ele><time>2026-04-12T12:40:11Z</time></trkpt><trkpt lat="42.58866506735601" lon="12.040840836156598"><ele>511.66666666666663</ele><time>2026-04-12T12:40:12Z</time></trkpt><trkpt lat="42.588876054023736" lon="12.040905492927402"><ele>507.3333333333333</ele><time>2026-04-12T12:40:13Z</time></trkpt><trkpt lat="42.589077245797185" lon="12.040982476110932"><ele>503.0</ele><time>2026-04-12T12:40:14Z</time></trkpt><trkpt lat="42.589283020008885" lon="12.041066612770317"><ele>503.0</ele><time>2026-04-12T12:40:14.999Z</time></trkpt><trkpt lat="42.589490344893925" lon="12.041131941555372"><ele>503.0</ele><time>2026-04-12T12:40:15.999Z</time></trkpt><trkpt lat="42.58968120928038" lon="12.041218590074998"><ele>503.0</ele><time>2026-04-12T12:40:16.999Z</time></trkpt><trkpt lat="42.589871325214155" lon="12.041296389449602"><ele>502.66666666666663</ele><time>2026-04-12T12:40:17.999Z</time></trkpt><trkpt lat="42.59006476661084" lon="12.041379744846845"><ele>502.33333333333337</ele><time>2026-04-12T12:40:18.999Z</time></trkpt><trkpt lat="42.59025611769347" lon="12.041464941944511"><ele>502.0</ele><time>2026-04-12T12:40:19.999Z</time></trkpt><trkpt lat="42.59044991368305" lon="12.041544622601709"><ele>502.0</ele><time>2026-04-12T12:40:20.999Z</time></trkpt><trkpt lat="42.59063952197644" lon="12.041615628618555"><ele>502.0</ele><time>2026-04-12T12:40:21.999Z</time></trkpt><trkpt lat="42.590833857756024" lon="12.041683076188775"><ele>502.0</ele><time>2026-04-12T12:40:22.999Z</time></trkpt><trkpt lat="42.591025255090734" lon="12.041730334159128"><ele>502.33333333333337</ele><time>2026-04-12T12:40:23.999Z</time></trkpt><trkpt lat="42.59120925192568" lon="12.041756812904431"><ele>502.66666666666663</ele><time>2026-04-12T12:40:24.999Z</time></trkpt><trkpt lat="42.591400751605796" lon="12.04176320708085"><ele>503.0</ele><time>2026-04-12T12:40:25.999Z</time></trkpt><trkpt lat="42.591590678673626" lon="12.041765604791422"><ele>503.0</ele><time>2026-04-12T12:40:26.999Z</time></trkpt><trkpt lat="42.591780234426224" lon="12.041771033666771"><ele>503.0</ele><time>2026-04-12T12:40:27.999Z</time></trkpt><trkpt lat="42.59196253895619" lon="12.041774291621284"><ele>503.0</ele><time>2026-04-12T12:40:28.999Z</time></trkpt><trkpt lat="42.59214828568885" lon="12.041774667062727"><ele>503.66666666666663</ele><time>2026-04-12T12:40:29.999Z</time></trkpt><trkpt lat="42.59234149083856" lon="12.041777124345733"><ele>504.33333333333337</ele><time>2026-04-12T12:40:30.999Z</time></trkpt><trkpt lat="42.59254111152368" lon="12.041772583237258"><ele>505.0</ele><time>2026-04-12T12:40:31.999Z</time></trkpt><trkpt lat="42.592741839897656" lon="12.04178051164095"><ele>505.6666666666667</ele><time>2026-04-12T12:40:32.999Z</time></trkpt><trkpt lat="42.59293221706204" lon="12.041782650796923"><ele>506.33333333333337</ele><time>2026-04-12T12:40:33.999Z</time></trkpt><trkpt lat="42.593114231323185" lon="12.04179179591602"><ele>507.0</ele><time>2026-04-12T12:40:34.999Z</time></trkpt><trkpt lat="42.593299328669104" lon="12.041796659197294"><ele>507.0</ele><time>2026-04-12T12:40:35.999Z</time></trkpt><trkpt lat="42.59348349988364" lon="12.041800310107458"><ele>507.0</ele><time>2026-04-12T12:40:36.999Z</time></trkpt><trkpt lat="42.59366393844494" lon="12.041784304965498"><ele>507.0</ele><time>2026-04-12T12:40:37.999Z</time></trkpt><trkpt lat="42.59384280445339" lon="12.041770066797742"><ele>507.33333333333337</ele><time>2026-04-12T12:40:38.999Z</time></trkpt><trkpt lat="42.59405257911033" lon="12.04175466420316"><ele>507.6666666666667</ele><time>2026-04-12T12:40:39.999Z</time></trkpt><trkpt lat="42.59425495112847" lon="12.041697258976656"><ele>508.0</ele><time>2026-04-12T12:40:40.999Z</time></trkpt><trkpt lat="42.594459641837375" lon="12.041685186188461"><ele>508.0</ele><time>2026-04-12T12:40:41.999Z</time></trkpt><trkpt lat="42.594664728889626" lon="12.041669193426934"><ele>508.0</ele><time>2026-04-12T12:40:42.999Z</time></trkpt><trkpt lat="42.594871042952384" lon="12.041642726871912"><ele>508.0</ele><time>2026-04-12T12:40:43.999Z</time></trkpt><trkpt lat="42.595077573650315" lon="12.041617150591286"><ele>508.0</ele><time>2026-04-12T12:40:44.999Z</time></trkpt><trkpt lat="42.595277311397595" lon="12.041589964594552"><ele>508.0</ele><time>2026-04-12T12:40:45.999Z</time></trkpt><trkpt lat="42.595491090219774" lon="12.041567067018768"><ele>508.0</ele><time>2026-04-12T12:40:46.999Z</time></trkpt><trkpt lat="42.595689624552946" lon="12.041553480144772"><ele>509.33333333333337</ele><time>2026-04-12T12:40:47.999Z</time></trkpt><trkpt lat="42.595903492865425" lon="12.04155457480498"><ele>510.66666666666663</ele><time>2026-04-12T12:40:48.999Z</time></trkpt><trkpt lat="42.596120490527085" lon="12.041564825710497"><ele>512.0</ele><time>2026-04-12T12:40:49.999Z</time></trkpt><trkpt lat="42.59632847852625" lon="12.041575131432941"><ele>513.6666666666666</ele><time>2026-04-12T12:40:50.999Z</time></trkpt><trkpt lat="42.59654209857601" lon="12.041568226151112"><ele>515.3333333333334</ele><time>2026-04-12T12:40:51.999Z</time></trkpt><trkpt lat="42.59675744269258" lon="12.041571429865263"><ele>517.0</ele><time>2026-04-12T12:40:52.999Z</time></trkpt><trkpt lat="42.59696011304529" lon="12.041570328019239"><ele>518.6666666666667</ele><time>2026-04-12T12:40:53.999Z</time></trkpt><trkpt lat="42.597159852855945" lon="12.041566247679114"><ele>520.3333333333334</ele><time>2026-04-12T12:40:54.999Z</time></trkpt><trkpt lat="42.59735728180718" lon="12.04154470283949"><ele>522.0</ele><time>2026-04-12T12:40:55.999Z</time></trkpt><trkpt lat="42.59755136156277" lon="12.041513332758049"><ele>522.0</ele><time>2026-04-12T12:40:56.999Z</time></trkpt><trkpt lat="42.59773822356968" lon="12.041488339839171"><ele>522.0</ele><time>2026-04-12T12:40:57.999Z</time></trkpt><trkpt lat="42.59794202616666" lon="12.041461623431397"><ele>522.0</ele><time>2026-04-12T12:40:58.999Z</time></trkpt><trkpt lat="42.598140883550144" lon="12.041435002540087"><ele>521.6666666666666</ele><time>2026-04-12T12:40:59.999Z</time></trkpt><trkpt lat="42.59834450881416" lon="12.041422565181573"><ele>521.3333333333333</ele><time>2026-04-12T12:41:00.999Z</time></trkpt><trkpt lat="42.59854725515086" lon="12.04140232135799"><ele>521.0</ele><time>2026-04-12T12:41:01.999Z</time></trkpt><trkpt lat="42.59875199892483" lon="12.04138467233664"><ele>521.0</ele><time>2026-04-12T12:41:02.999Z</time></trkpt><trkpt lat="42.598951235296546" lon="12.041373683655465"><ele>521.0</ele><time>2026-04-12T12:41:03.999Z</time></trkpt><trkpt lat="42.5991580004634" lon="12.04137114658876"><ele>521.0</ele><time>2026-04-12T12:41:04.999Z</time></trkpt><trkpt lat="42.59936707919663" lon="12.04135884664252"><ele>521.0</ele><time>2026-04-12T12:41:05.999Z</time></trkpt><trkpt lat="42.59957074659751" lon="12.04134543584437"><ele>521.0</ele><time>2026-04-12T12:41:06.999Z</time></trkpt><trkpt lat="42.59977723410533" lon="12.041340939863392"><ele>521.0</ele><time>2026-04-12T12:41:07.999Z</time></trkpt><trkpt lat="42.59998699209366" lon="12.041331273110595"><ele>521.0</ele><time>2026-04-12T12:41:08.999Z</time></trkpt><trkpt lat="42.60018993432693" lon="12.041321290860013"><ele>521.0</ele><time>2026-04-12T12:41:09.999Z</time></trkpt><trkpt lat="42.60039632426954" lon="12.041313502579701"><ele>521.0</ele><time>2026-04-12T12:41:10.999Z</time></trkpt><trkpt lat="42.60060586171224" lon="12.041314401102104"><ele>521.6666666666666</ele><time>2026-04-12T12:41:11.999Z</time></trkpt><trkpt lat="42.600816024516085" lon="12.041310467919752"><ele>522.3333333333334</ele><time>2026-04-12T12:41:12.999Z</time></trkpt><trkpt lat="42.601019060982324" lon="12.04130528438957"><ele>523.0</ele><time>2026-04-12T12:41:13.999Z</time></trkpt><trkpt lat="42.601220189414285" lon="12.041297566304038"><ele>523.3333333333334</ele><time>2026-04-12T12:41:14.999Z</time></trkpt><trkpt lat="42.60142245272587" lon="12.041296358695604"><ele>523.6666666666666</ele><time>2026-04-12T12:41:15.999Z</time></trkpt><trkpt lat="42.60162733739308" lon="12.041292981575753"><ele>524.0</ele><time>2026-04-12T12:41:16.999Z</time></trkpt><trkpt lat="42.601837215530125" lon="12.041289742007033"><ele>524.0</ele><time>2026-04-12T12:41:17.999Z</time></trkpt><trkpt lat="42.602046255809285" lon="12.041289657138396"><ele>524.0</ele><time>2026-04-12T12:41:18.999Z</time></trkpt><trkpt lat="42.602256493712474" lon="12.041288205612549"><ele>524.0</ele><time>2026-04-12T12:41:19.999Z</time></trkpt><trkpt lat="42.60246082276001" lon="12.041266607723314"><ele>524.0</ele><time>2026-04-12T12:41:20.999Z</time></trkpt><trkpt lat="42.60267774654778" lon="12.041263935019284"><ele>524.0</ele><time>2026-04-12T12:41:21.999Z</time></trkpt><trkpt lat="42.60289037544158" lon="12.041267907822995"><ele>524.0</ele><time>2026-04-12T12:41:22.999Z</time></trkpt><trkpt lat="42.60310557109565" lon="12.041263056098883"><ele>525.6666666666666</ele><time>2026-04-12T12:41:23.999Z</time></trkpt><trkpt lat="42.60331398723114" lon="12.041260932616074"><ele>527.3333333333334</ele><time>2026-04-12T12:41:24.999Z</time></trkpt><trkpt lat="42.60351937313231" lon="12.041258362028566"><ele>529.0</ele><time>2026-04-12T12:41:25.999Z</time></trkpt><trkpt lat="42.60372005959909" lon="12.041257514471194"><ele>529.6666666666667</ele><time>2026-04-12T12:41:26.999Z</time></trkpt><trkpt lat="42.60393874349161" lon="12.04125149324439"><ele>530.3333333333334</ele><time>2026-04-12T12:41:27.999Z</time></trkpt><trkpt lat="42.604147566902185" lon="12.041236097261411"><ele>531.0</ele><time>2026-04-12T12:41:28.999Z</time></trkpt><trkpt lat="42.60435076807501" lon="12.041220656982704"><ele>531.3333333333334</ele><time>2026-04-12T12:41:29.999Z</time></trkpt><trkpt lat="42.604558323422374" lon="12.041214230769556"><ele>531.6666666666667</ele><time>2026-04-12T12:41:30.999Z</time></trkpt><trkpt lat="42.60477859527016" lon="12.041219646433811"><ele>532.0</ele><time>2026-04-12T12:41:31.999Z</time></trkpt><trkpt lat="42.60498392745373" lon="12.041212081581437"><ele>532.0</ele><time>2026-04-12T12:41:32.999Z</time></trkpt><trkpt lat="42.605191203969554" lon="12.041212651766305"><ele>532.0</ele><time>2026-04-12T12:41:33.999Z</time></trkpt><trkpt lat="42.60539885294298" lon="12.041212162979408"><ele>532.0</ele><time>2026-04-12T12:41:34.999Z</time></trkpt><trkpt lat="42.605605858781836" lon="12.041211853086772"><ele>533.0</ele><time>2026-04-12T12:41:35.999Z</time></trkpt><trkpt lat="42.60580570994585" lon="12.041211619608665"><ele>534.0</ele><time>2026-04-12T12:41:36.999Z</time></trkpt><trkpt lat="42.60600444324304" lon="12.041204404911458"><ele>535.0</ele><time>2026-04-12T12:41:37.999Z</time></trkpt><trkpt lat="42.60620035346893" lon="12.041211462696412"><ele>537.3333333333334</ele><time>2026-04-12T12:41:38.999Z</time></trkpt><trkpt lat="42.60638558786376" lon="12.041223303753767"><ele>539.6666666666666</ele><time>2026-04-12T12:41:39.999Z</time></trkpt><trkpt lat="42.60656884451268" lon="12.041234531104545"><ele>542.0</ele><time>2026-04-12T12:41:40.999Z</time></trkpt><trkpt lat="42.606752254478806" lon="12.041253547454895"><ele>542.0</ele><time>2026-04-12T12:41:41.999Z</time></trkpt><trkpt lat="42.60692953929202" lon="12.041272828555975"><ele>542.0</ele><time>2026-04-12T12:41:42.999Z</time></trkpt><trkpt lat="42.60710659043552" lon="12.041296392398893"><ele>542.0</ele><time>2026-04-12T12:41:43.999Z</time></trkpt><trkpt lat="42.607286127216156" lon="12.041333337187522"><ele>544.0</ele><time>2026-04-12T12:41:44.999Z</time></trkpt><trkpt lat="42.607461321404834" lon="12.041380483455091"><ele>546.0</ele><time>2026-04-12T12:41:45.999Z</time></trkpt><trkpt lat="42.60763463405005" lon="12.041434983100933"><ele>548.0</ele><time>2026-04-12T12:41:46.999Z</time></trkpt><trkpt lat="42.60781543731563" lon="12.041492893102763"><ele>548.3333333333333</ele><time>2026-04-12T12:41:47.999Z</time></trkpt><trkpt lat="42.60799227679114" lon="12.041555234295055"><ele>548.6666666666666</ele><time>2026-04-12T12:41:48.999Z</time></trkpt><trkpt lat="42.608166901406854" lon="12.04162301578287"><ele>549.0</ele><time>2026-04-12T12:41:49.999Z</time></trkpt><trkpt lat="42.60834643693692" lon="12.04168869553605"><ele>549.0</ele><time>2026-04-12T12:41:50.999Z</time></trkpt><trkpt lat="42.608524230480555" lon="12.04174633449407"><ele>549.0</ele><time>2026-04-12T12:41:51.999Z</time></trkpt><trkpt lat="42.60870184468066" lon="12.041790114868315"><ele>549.0</ele><time>2026-04-12T12:41:52.999Z</time></trkpt><trkpt lat="42.608886242363376" lon="12.04182658015815"><ele>549.6666666666666</ele><time>2026-04-12T12:41:53.999Z</time></trkpt><trkpt lat="42.60906626437307" lon="12.041857459923351"><ele>550.3333333333333</ele><time>2026-04-12T12:41:54.999Z</time></trkpt><trkpt lat="42.60923182841263" lon="12.041873475122898"><ele>551.0</ele><time>2026-04-12T12:41:55.999Z</time></trkpt><trkpt lat="42.6093987853778" lon="12.041868894426916"><ele>551.6666666666666</ele><time>2026-04-12T12:41:56.999Z</time></trkpt><trkpt lat="42.60956814029312" lon="12.041840385826582"><ele>552.3333333333334</ele><time>2026-04-12T12:41:57.999Z</time></trkpt><trkpt lat="42.609722578108325" lon="12.04178486807204"><ele>553.0</ele><time>2026-04-12T12:41:58.999Z</time></trkpt><trkpt lat="42.60987430531586" lon="12.041731344015078"><ele>553.0</ele><time>2026-04-12T12:41:59.999Z</time></trkpt><trkpt lat="42.610023932108064" lon="12.041664593514891"><ele>553.0</ele><time>2026-04-12T12:42:00.999Z</time></trkpt><trkpt lat="42.61017855688373" lon="12.041577175394849"><ele>553.0</ele><time>2026-04-12T12:42:01.999Z</time></trkpt><trkpt lat="42.61032845209784" lon="12.0414627827726"><ele>551.6666666666667</ele><time>2026-04-12T12:42:02.999Z</time></trkpt><trkpt lat="42.61047894943821" lon="12.041333594297344"><ele>550.3333333333334</ele><time>2026-04-12T12:42:03.999Z</time></trkpt><trkpt lat="42.610630663501766" lon="12.041195390111104"><ele>549.0</ele><time>2026-04-12T12:42:04.999Z</time></trkpt><trkpt lat="42.61079961996699" lon="12.041053837089798"><ele>549.0</ele><time>2026-04-12T12:42:05.999Z</time></trkpt><trkpt lat="42.61097621538257" lon="12.040915087242842"><ele>549.0</ele><time>2026-04-12T12:42:06.999Z</time></trkpt><trkpt lat="42.611154656207795" lon="12.040774479366707"><ele>549.0</ele><time>2026-04-12T12:42:07.999Z</time></trkpt><trkpt lat="42.61133907227891" lon="12.04064160066749"><ele>546.3333333333334</ele><time>2026-04-12T12:42:08.999Z</time></trkpt><trkpt lat="42.611532643274316" lon="12.040515267768187"><ele>543.6666666666667</ele><time>2026-04-12T12:42:09.999Z</time></trkpt><trkpt lat="42.6117287938877" lon="12.040393322773442"><ele>541.0</ele><time>2026-04-12T12:42:10.999Z</time></trkpt><trkpt lat="42.61192139116182" lon="12.040270269942729"><ele>540.3333333333334</ele><time>2026-04-12T12:42:11.999Z</time></trkpt><trkpt lat="42.61211595990134" lon="12.040134839075918"><ele>539.6666666666666</ele><time>2026-04-12T12:42:12.999Z</time></trkpt><trkpt lat="42.6123044595034" lon="12.040012280242845"><ele>539.0</ele><time>2026-04-12T12:42:13.999Z</time></trkpt><trkpt lat="42.61250993261566" lon="12.039906181757571"><ele>538.3333333333333</ele><time>2026-04-12T12:42:14.999Z</time></trkpt><trkpt lat="42.612703036498026" lon="12.039779840427421"><ele>537.6666666666666</ele><time>2026-04-12T12:42:15.999Z</time></trkpt><trkpt lat="42.61288987779853" lon="12.039657523464081"><ele>537.0</ele><time>2026-04-12T12:42:16.999Z</time></trkpt><trkpt lat="42.613080060386004" lon="12.039527615736182"><ele>536.6666666666666</ele><time>2026-04-12T12:42:17.999Z</time></trkpt><trkpt lat="42.613268810246225" lon="12.039401883251001"><ele>536.3333333333333</ele><time>2026-04-12T12:42:18.999Z</time></trkpt><trkpt lat="42.61346066807708" lon="12.039265812961878"><ele>536.0</ele><time>2026-04-12T12:42:19.999Z</time></trkpt><trkpt lat="42.61365727251652" lon="12.039141298097002"><ele>536.0</ele><time>2026-04-12T12:42:20.999Z</time></trkpt><trkpt lat="42.61384897663291" lon="12.039013202425698"><ele>536.0</ele><time>2026-04-12T12:42:21.999Z</time></trkpt><trkpt lat="42.614039327596295" lon="12.038890004491495"><ele>536.0</ele><time>2026-04-12T12:42:22.999Z</time></trkpt><trkpt lat="42.61423040714877" lon="12.038761232445042"><ele>536.0</ele><time>2026-04-12T12:42:23.999Z</time></trkpt><trkpt lat="42.61442257115358" lon="12.038650234844146"><ele>536.0</ele><time>2026-04-12T12:42:24.999Z</time></trkpt><trkpt lat="42.61461630124994" lon="12.038549606678215"><ele>536.0</ele><time>2026-04-12T12:42:25.999Z</time></trkpt><trkpt lat="42.61480873229803" lon="12.03846843884781"><ele>536.0</ele><time>2026-04-12T12:42:26.999Z</time></trkpt><trkpt lat="42.61501602863102" lon="12.038411077119939"><ele>536.0</ele><time>2026-04-12T12:42:27.999Z</time></trkpt><trkpt lat="42.61523763726895" lon="12.038370988616613"><ele>536.0</ele><time>2026-04-12T12:42:28.999Z</time></trkpt><trkpt lat="42.61545348524919" lon="12.038332079026489"><ele>537.3333333333333</ele><time>2026-04-12T12:42:29.999Z</time></trkpt><trkpt lat="42.615662357090535" lon="12.038295366847723"><ele>538.6666666666666</ele><time>2026-04-12T12:42:30.999Z</time></trkpt><trkpt lat="42.615867791821664" lon="12.038255954378581"><ele>540.0</ele><time>2026-04-12T12:42:31.999Z</time></trkpt><trkpt lat="42.61607851176823" lon="12.038207796538607"><ele>539.0</ele><time>2026-04-12T12:42:32.999Z</time></trkpt><trkpt lat="42.616289850418475" lon="12.038161244790967"><ele>538.0</ele><time>2026-04-12T12:42:33.999Z</time></trkpt><trkpt lat="42.61650213730343" lon="12.038116143308441"><ele>537.0</ele><time>2026-04-12T12:42:34.999Z</time></trkpt><trkpt lat="42.61670947420437" lon="12.038072139989012"><ele>537.0</ele><time>2026-04-12T12:42:35.999Z</time></trkpt><trkpt lat="42.6169348000539" lon="12.038024162377189"><ele>537.0</ele><time>2026-04-12T12:42:36.999Z</time></trkpt><trkpt lat="42.61715276568663" lon="12.037978314191891"><ele>537.0</ele><time>2026-04-12T12:42:37.999Z</time></trkpt><trkpt lat="42.61737225705807" lon="12.037932074215862"><ele>536.0</ele><time>2026-04-12T12:42:38.999Z</time></trkpt><trkpt lat="42.61759445425584" lon="12.037884160949504"><ele>535.0</ele><time>2026-04-12T12:42:39.999Z</time></trkpt><trkpt lat="42.617812295138805" lon="12.037839001990337"><ele>534.0</ele><time>2026-04-12T12:42:40.999Z</time></trkpt><trkpt lat="42.61803331078305" lon="12.037791668072924"><ele>533.5</ele><time>2026-04-12T12:42:41.999Z</time></trkpt><trkpt lat="42.6182555409582" lon="12.037743754079521"><ele>533.0</ele><time>2026-04-12T12:42:42.999Z</time></trkpt><trkpt lat="42.6184783752127" lon="12.037695558221044"><ele>533.0</ele><time>2026-04-12T12:42:43.999Z</time></trkpt><trkpt lat="42.61869825839491" lon="12.037647389686297"><ele>533.0</ele><time>2026-04-12T12:42:44.999Z</time></trkpt><trkpt lat="42.61892056113315" lon="12.037601478036253"><ele>533.0</ele><time>2026-04-12T12:42:45.999Z</time></trkpt><trkpt lat="42.619144403204416" lon="12.037560333798247"><ele>533.0</ele><time>2026-04-12T12:42:46.999Z</time></trkpt><trkpt lat="42.619366450506355" lon="12.037514156249678"><ele>533.0</ele><time>2026-04-12T12:42:47.999Z</time></trkpt><trkpt lat="42.619594714684226" lon="12.037468043238373"><ele>533.3333333333333</ele><time>2026-04-12T12:42:48.999Z</time></trkpt><trkpt lat="42.619813523707826" lon="12.03742057497273"><ele>533.6666666666666</ele><time>2026-04-12T12:42:49.999Z</time></trkpt><trkpt lat="42.620036878102276" lon="12.03737131582447"><ele>534.0</ele><time>2026-04-12T12:42:50.999Z</time></trkpt><trkpt lat="42.620252777254734" lon="12.037325093375813"><ele>534.0</ele><time>2026-04-12T12:42:51.999Z</time></trkpt><trkpt lat="42.62046626266597" lon="12.03727854787234"><ele>534.0</ele><time>2026-04-12T12:42:52.999Z</time></trkpt><trkpt lat="42.620682001748406" lon="12.037230376622691"><ele>534.0</ele><time>2026-04-12T12:42:53.999Z</time></trkpt><trkpt lat="42.62088892050112" lon="12.037184962310496"><ele>534.0</ele><time>2026-04-12T12:42:54.999Z</time></trkpt><trkpt lat="42.621098320469365" lon="12.037144922441287"><ele>534.0</ele><time>2026-04-12T12:42:55.999Z</time></trkpt><trkpt lat="42.621312996780134" lon="12.037097927449919"><ele>534.0</ele><time>2026-04-12T12:42:56.999Z</time></trkpt><trkpt lat="42.621518326900684" lon="12.03704835134875"><ele>533.0</ele><time>2026-04-12T12:42:57.999Z</time></trkpt><trkpt lat="42.621716635746544" lon="12.037002419202267"><ele>532.0</ele><time>2026-04-12T12:42:58.999Z</time></trkpt><trkpt lat="42.621914635760945" lon="12.036958564062276"><ele>531.0</ele><time>2026-04-12T12:42:59.999Z</time></trkpt><trkpt lat="42.62211326372716" lon="12.036928118144743"><ele>529.3333333333334</ele><time>2026-04-12T12:43:00.999Z</time></trkpt><trkpt lat="42.62230629046623" lon="12.036883471118012"><ele>527.6666666666667</ele><time>2026-04-12T12:43:01.999Z</time></trkpt><trkpt lat="42.622525000751615" lon="12.03683131129181"><ele>526.0</ele><time>2026-04-12T12:43:02.999Z</time></trkpt><trkpt lat="42.62273300370981" lon="12.036761538144297"><ele>525.3333333333334</ele><time>2026-04-12T12:43:03.999Z</time></trkpt><trkpt lat="42.62295783565092" lon="12.036715755777854"><ele>524.6666666666666</ele><time>2026-04-12T12:43:04.999Z</time></trkpt><trkpt lat="42.623165528499385" lon="12.036665582725114"><ele>524.0</ele><time>2026-04-12T12:43:05.999Z</time></trkpt><trkpt lat="42.623373068607684" lon="12.036611659954314"><ele>524.0</ele><time>2026-04-12T12:43:06.999Z</time></trkpt><trkpt lat="42.623584008515515" lon="12.036553616384289"><ele>524.0</ele><time>2026-04-12T12:43:07.999Z</time></trkpt><trkpt lat="42.62379125828439" lon="12.036506170115988"><ele>524.0</ele><time>2026-04-12T12:43:08.999Z</time></trkpt><trkpt lat="42.62398576304083" lon="12.036459884086387"><ele>523.6666666666666</ele><time>2026-04-12T12:43:09.999Z</time></trkpt><trkpt lat="42.62416874644333" lon="12.036414300921587"><ele>523.3333333333334</ele><time>2026-04-12T12:43:10.999Z</time></trkpt><trkpt lat="42.62434377373748" lon="12.036372162540834"><ele>523.0</ele><time>2026-04-12T12:43:11.999Z</time></trkpt><trkpt lat="42.624513832446745" lon="12.036333795506037"><ele>523.0</ele><time>2026-04-12T12:43:12.999Z</time></trkpt><trkpt lat="42.624675394923" lon="12.036293206469"><ele>523.0</ele><time>2026-04-12T12:43:13.999Z</time></trkpt><trkpt lat="42.62483451361539" lon="12.036255738901056"><ele>523.0</ele><time>2026-04-12T12:43:14.999Z</time></trkpt><trkpt lat="42.62498433986348" lon="12.036229816793188"><ele>523.0</ele><time>2026-04-12T12:43:15.999Z</time></trkpt><trkpt lat="42.625129759644764" lon="12.03620527381357"><ele>523.0</ele><time>2026-04-12T12:43:16.999Z</time></trkpt><trkpt lat="42.625275824710066" lon="12.036186922813375"><ele>523.0</ele><time>2026-04-12T12:43:17.999Z</time></trkpt><trkpt lat="42.62542321075677" lon="12.036175991535536"><ele>523.0</ele><time>2026-04-12T12:43:18.999Z</time></trkpt><trkpt lat="42.625569784645656" lon="12.036165616557414"><ele>522.25</ele><time>2026-04-12T12:43:19.999Z</time></trkpt><trkpt lat="42.62571702300032" lon="12.03616264434707"><ele>521.5</ele><time>2026-04-12T12:43:20.999Z</time></trkpt><trkpt lat="42.62586332082416" lon="12.036155476665225"><ele>520.75</ele><time>2026-04-12T12:43:21.999Z</time></trkpt><trkpt lat="42.626003574362606" lon="12.03614664688067"><ele>520.0</ele><time>2026-04-12T12:43:22.999Z</time></trkpt><trkpt lat="42.626160657724114" lon="12.036140442700505"><ele>519.75</ele><time>2026-04-12T12:43:23.999Z</time></trkpt><trkpt lat="42.62631259761592" lon="12.036140908865528"><ele>519.5</ele><time>2026-04-12T12:43:24.999Z</time></trkpt><trkpt lat="42.62646183652515" lon="12.036147650850184"><ele>519.25</ele><time>2026-04-12T12:43:25.999Z</time></trkpt><trkpt lat="42.62660817635795" lon="12.036157415689258"><ele>519.0</ele><time>2026-04-12T12:43:26.999Z</time></trkpt><trkpt lat="42.62674978211821" lon="12.036236749763866"><ele>519.0</ele><time>2026-04-12T12:43:27.999Z</time></trkpt><trkpt lat="42.62689944664558" lon="12.036261236603899"><ele>519.0</ele><time>2026-04-12T12:43:28.999Z</time></trkpt><trkpt lat="42.6270496460698" lon="12.036270784068176"><ele>519.0</ele><time>2026-04-12T12:43:29.999Z</time></trkpt><trkpt lat="42.627207619273754" lon="12.036258956681126"><ele>519.25</ele><time>2026-04-12T12:43:30.999Z</time></trkpt><trkpt lat="42.627356497381335" lon="12.036248618103368"><ele>519.5</ele><time>2026-04-12T12:43:31.999Z</time></trkpt><trkpt lat="42.627504046609175" lon="12.036239990360476"><ele>519.75</ele><time>2026-04-12T12:43:32.999Z</time></trkpt><trkpt lat="42.62765618744858" lon="12.036224667514414"><ele>520.0</ele><time>2026-04-12T12:43:33.999Z</time></trkpt><trkpt lat="42.62779999080867" lon="12.03621595368623"><ele>520.75</ele><time>2026-04-12T12:43:34.999Z</time></trkpt><trkpt lat="42.62794683957218" lon="12.036205844483705"><ele>521.5</ele><time>2026-04-12T12:43:35.999Z</time></trkpt><trkpt lat="42.6280969574111" lon="12.036195735944373"><ele>522.25</ele><time>2026-04-12T12:43:36.999Z</time></trkpt><trkpt lat="42.628240429258796" lon="12.036184951989348"><ele>523.0</ele><time>2026-04-12T12:43:37.999Z</time></trkpt><trkpt lat="42.62838545815129" lon="12.036176790786673"><ele>523.0</ele><time>2026-04-12T12:43:38.999Z</time></trkpt><trkpt lat="42.62853630918863" lon="12.036166550624143"><ele>523.0</ele><time>2026-04-12T12:43:39.999Z</time></trkpt><trkpt lat="42.628674895433846" lon="12.036169135827738"><ele>523.0</ele><time>2026-04-12T12:43:40.999Z</time></trkpt><trkpt lat="42.628812373668396" lon="12.036161621159545"><ele>523.0</ele><time>2026-04-12T12:43:41.999Z</time></trkpt><trkpt lat="42.62894190952189" lon="12.036145488178596"><ele>523.5</ele><time>2026-04-12T12:43:42.999Z</time></trkpt><trkpt lat="42.62907753845452" lon="12.036132200392666"><ele>524.0</ele><time>2026-04-12T12:43:43.999Z</time></trkpt><trkpt lat="42.629215380999426" lon="12.036115921936585"><ele>524.5</ele><time>2026-04-12T12:43:44.999Z</time></trkpt><trkpt lat="42.62934742982706" lon="12.036090661817507"><ele>525.0</ele><time>2026-04-12T12:43:45.999Z</time></trkpt><trkpt lat="42.62948441041403" lon="12.036060439367343"><ele>524.0</ele><time>2026-04-12T12:43:46.999Z</time></trkpt><trkpt lat="42.629619905883615" lon="12.03599980837752"><ele>523.0</ele><time>2026-04-12T12:43:47.999Z</time></trkpt><trkpt lat="42.62976199754693" lon="12.035916827617847"><ele>522.0</ele><time>2026-04-12T12:43:48.999Z</time></trkpt><trkpt lat="42.62990209601548" lon="12.035839913006988"><ele>521.0</ele><time>2026-04-12T12:43:49.999Z</time></trkpt><trkpt lat="42.63005762681839" lon="12.035754693368716"><ele>521.0</ele><time>2026-04-12T12:43:50.999Z</time></trkpt><trkpt lat="42.63021008932" lon="12.035666331053521"><ele>521.0</ele><time>2026-04-12T12:43:51.999Z</time></trkpt><trkpt lat="42.630364964033305" lon="12.035590216389982"><ele>521.0</ele><time>2026-04-12T12:43:52.999Z</time></trkpt><trkpt lat="42.63052707506792" lon="12.035545924501141"><ele>522.0</ele><time>2026-04-12T12:43:53.999Z</time></trkpt><trkpt lat="42.630700816829616" lon="12.035513878691626"><ele>523.0</ele><time>2026-04-12T12:43:54.999Z</time></trkpt><trkpt lat="42.63087844983404" lon="12.035504019865026"><ele>524.0</ele><time>2026-04-12T12:43:55.999Z</time></trkpt><trkpt lat="42.631065353352206" lon="12.035502594707058"><ele>525.0</ele><time>2026-04-12T12:43:56.999Z</time></trkpt><trkpt lat="42.631251955865395" lon="12.035506514520225"><ele>526.0</ele><time>2026-04-12T12:43:57.999Z</time></trkpt><trkpt lat="42.6314479562225" lon="12.035539915828249"><ele>527.0</ele><time>2026-04-12T12:43:58.999Z</time></trkpt><trkpt lat="42.63164703679678" lon="12.035633208671474"><ele>527.0</ele><time>2026-04-12T12:43:59.999Z</time></trkpt><trkpt lat="42.63185681003544" lon="12.035751166653812"><ele>527.0</ele><time>2026-04-12T12:44:00.999Z</time></trkpt><trkpt lat="42.63206656434509" lon="12.035875368258727"><ele>528.5</ele><time>2026-04-12T12:44:01.999Z</time></trkpt><trkpt lat="42.6323039548678" lon="12.036001132550162"><ele>530.0</ele><time>2026-04-12T12:44:02.999Z</time></trkpt><trkpt lat="42.63252366699552" lon="12.036116442187001"><ele>530.0</ele><time>2026-04-12T12:44:03.999Z</time></trkpt><trkpt lat="42.632747073831794" lon="12.036220449089699"><ele>530.0</ele><time>2026-04-12T12:44:04.999Z</time></trkpt><trkpt lat="42.6329731840178" lon="12.03630055693229"><ele>531.0</ele><time>2026-04-12T12:44:05.999Z</time></trkpt><trkpt lat="42.6331979627868" lon="12.03636315110227"><ele>532.0</ele><time>2026-04-12T12:44:06.999Z</time></trkpt><trkpt lat="42.63342858105788" lon="12.036414144575929"><ele>535.5</ele><time>2026-04-12T12:44:07.999Z</time></trkpt><trkpt lat="42.63365915887945" lon="12.036461685656633"><ele>539.0</ele><time>2026-04-12T12:44:08.999Z</time></trkpt><trkpt lat="42.63389317653634" lon="12.03650000192433"><ele>539.0</ele><time>2026-04-12T12:44:09.999Z</time></trkpt><trkpt lat="42.634122207225815" lon="12.036536252278767"><ele>539.0</ele><time>2026-04-12T12:44:10.999Z</time></trkpt><trkpt lat="42.634358605695375" lon="12.036548073423289"><ele>542.5</ele><time>2026-04-12T12:44:11.999Z</time></trkpt><trkpt lat="42.63458869513419" lon="12.036542775866836"><ele>546.0</ele><time>2026-04-12T12:44:12.999Z</time></trkpt><trkpt lat="42.63482491495742" lon="12.036514578379935"><ele>546.0</ele><time>2026-04-12T12:44:13.999Z</time></trkpt><trkpt lat="42.63506549380001" lon="12.036464547937003"><ele>546.0</ele><time>2026-04-12T12:44:14.999Z</time></trkpt><trkpt lat="42.635305539544866" lon="12.036423650744993"><ele>548.0</ele><time>2026-04-12T12:44:15.999Z</time></trkpt><trkpt lat="42.635543947859404" lon="12.036381281951412"><ele>550.0</ele><time>2026-04-12T12:44:16.999Z</time></trkpt><trkpt lat="42.63578523509666" lon="12.036336586393757"><ele>550.0</ele><time>2026-04-12T12:44:17.999Z</time></trkpt><trkpt lat="42.636022251471864" lon="12.036304341633983"><ele>550.0</ele><time>2026-04-12T12:44:18.999Z</time></trkpt><trkpt lat="42.6362615861938" lon="12.036274558109064"><ele>549.5</ele><time>2026-04-12T12:44:19.999Z</time></trkpt><trkpt lat="42.63649232174223" lon="12.036247394996135"><ele>549.0</ele><time>2026-04-12T12:44:20.999Z</time></trkpt><trkpt lat="42.6367250535337" lon="12.036224619976014"><ele>549.0</ele><time>2026-04-12T12:44:21.999Z</time></trkpt><trkpt lat="42.63696118315715" lon="12.036216944351192"><ele>549.0</ele><time>2026-04-12T12:44:22.999Z</time></trkpt><trkpt lat="42.637186274235575" lon="12.036211449782654"><ele>548.3333333333334</ele><time>2026-04-12T12:44:23.999Z</time></trkpt><trkpt lat="42.63740284981513" lon="12.03620298437448"><ele>547.6666666666667</ele><time>2026-04-12T12:44:24.999Z</time></trkpt><trkpt lat="42.637604746313" lon="12.036186465619272"><ele>547.0</ele><time>2026-04-12T12:44:25.999Z</time></trkpt><trkpt lat="42.63780594850188" lon="12.036177751847633"><ele>549.0</ele><time>2026-04-12T12:44:26.999Z</time></trkpt><trkpt lat="42.63800724932541" lon="12.03616163040482"><ele>551.0</ele><time>2026-04-12T12:44:27.999Z</time></trkpt><trkpt lat="42.6382010523837" lon="12.036141395824112"><ele>553.0</ele><time>2026-04-12T12:44:28.999Z</time></trkpt><trkpt lat="42.63839197380499" lon="12.036116895550931"><ele>553.0</ele><time>2026-04-12T12:44:29.999Z</time></trkpt><trkpt lat="42.63857522058854" lon="12.036090536072916"><ele>553.0</ele><time>2026-04-12T12:44:30.999Z</time></trkpt><trkpt lat="42.63875402371272" lon="12.036069218677424"><ele>553.0</ele><time>2026-04-12T12:44:31.999Z</time></trkpt><trkpt lat="42.63893175287738" lon="12.036057103385334"><ele>553.6666666666667</ele><time>2026-04-12T12:44:32.999Z</time></trkpt><trkpt lat="42.63910876599289" lon="12.036072714123694"><ele>554.3333333333334</ele><time>2026-04-12T12:44:33.999Z</time></trkpt><trkpt lat="42.63929674785175" lon="12.03606142314547"><ele>555.0</ele><time>2026-04-12T12:44:34.999Z</time></trkpt><trkpt lat="42.639493425647785" lon="12.036053846017793"><ele>555.6666666666666</ele><time>2026-04-12T12:44:35.999Z</time></trkpt><trkpt lat="42.639689901027864" lon="12.0360437020844"><ele>556.3333333333333</ele><time>2026-04-12T12:44:36.999Z</time></trkpt><trkpt lat="42.63987930813454" lon="12.036029479329454"><ele>557.0</ele><time>2026-04-12T12:44:37.999Z</time></trkpt><trkpt lat="42.64006616384457" lon="12.036009120007323"><ele>557.0</ele><time>2026-04-12T12:44:38.999Z</time></trkpt><trkpt lat="42.64025388044672" lon="12.035961026614782"><ele>557.0</ele><time>2026-04-12T12:44:39.999Z</time></trkpt><trkpt lat="42.64043574029057" lon="12.03587988213629"><ele>557.0</ele><time>2026-04-12T12:44:40.999Z</time></trkpt><trkpt lat="42.64060804615234" lon="12.03577767560601"><ele>559.3333333333333</ele><time>2026-04-12T12:44:41.999Z</time></trkpt><trkpt lat="42.640777191044414" lon="12.03566218600959"><ele>561.6666666666666</ele><time>2026-04-12T12:44:42.999Z</time></trkpt><trkpt lat="42.64094043627738" lon="12.035511974771177"><ele>564.0</ele><time>2026-04-12T12:44:43.999Z</time></trkpt><trkpt lat="42.64109218810001" lon="12.035351225890684"><ele>564.0</ele><time>2026-04-12T12:44:44.999Z</time></trkpt><trkpt lat="42.64123652458624" lon="12.035178072768232"><ele>564.0</ele><time>2026-04-12T12:44:45.999Z</time></trkpt><trkpt lat="42.641383222770756" lon="12.035008981759397"><ele>564.0</ele><time>2026-04-12T12:44:46.999Z</time></trkpt><trkpt lat="42.64154083485291" lon="12.034871220754411"><ele>564.0</ele><time>2026-04-12T12:44:47.999Z</time></trkpt><trkpt lat="42.641715364020484" lon="12.034751466522655"><ele>564.0</ele><time>2026-04-12T12:44:48.999Z</time></trkpt><trkpt lat="42.64189179314729" lon="12.034650502056214"><ele>564.0</ele><time>2026-04-12T12:44:49.999Z</time></trkpt><trkpt lat="42.64206906316239" lon="12.034550833779289"><ele>564.6666666666666</ele><time>2026-04-12T12:44:50.999Z</time></trkpt><trkpt lat="42.64224785367929" lon="12.03446522690487"><ele>565.3333333333333</ele><time>2026-04-12T12:44:51.999Z</time></trkpt><trkpt lat="42.64241886489438" lon="12.034406132289815"><ele>566.0</ele><time>2026-04-12T12:44:52.999Z</time></trkpt><trkpt lat="42.64258505792252" lon="12.034368186772168"><ele>566.0</ele><time>2026-04-12T12:44:53.999Z</time></trkpt><trkpt lat="42.64274482306416" lon="12.034348395972751"><ele>566.0</ele><time>2026-04-12T12:44:54.999Z</time></trkpt><trkpt lat="42.64289992873559" lon="12.034331574834525"><ele>566.0</ele><time>2026-04-12T12:44:55.999Z</time></trkpt><trkpt lat="42.643043589688" lon="12.034304136132917"><ele>566.75</ele><time>2026-04-12T12:44:56.999Z</time></trkpt><trkpt lat="42.643184047651076" lon="12.03429038313432"><ele>567.5</ele><time>2026-04-12T12:44:57.999Z</time></trkpt><trkpt lat="42.643307776692076" lon="12.034272074272907"><ele>568.25</ele><time>2026-04-12T12:44:58.999Z</time></trkpt><trkpt lat="42.64340154877661" lon="12.034251448940996"><ele>569.0</ele><time>2026-04-12T12:44:59.999Z</time></trkpt><trkpt lat="42.643492983712626" lon="12.034423939871632"><ele>569.0</ele><time>2026-04-12T12:45:00.999Z</time></trkpt><trkpt lat="42.643553115210665" lon="12.034527737805204"><ele>569.0</ele><time>2026-04-12T12:45:01.999Z</time></trkpt><trkpt lat="42.643608748824896" lon="12.034622270370162"><ele>569.0</ele><time>2026-04-12T12:45:02.999Z</time></trkpt><trkpt lat="42.643613292815296" lon="12.034749346802867"><ele>569.0</ele><time>2026-04-12T12:45:03.999Z</time></trkpt><trkpt lat="42.64362185876643" lon="12.034892415319275"><ele>569.0</ele><time>2026-04-12T12:45:04.999Z</time></trkpt><trkpt lat="42.64361894180356" lon="12.035043702787315"><ele>568.75</ele><time>2026-04-12T12:45:05.999Z</time></trkpt><trkpt lat="42.64360697500471" lon="12.035193487984658"><ele>568.5</ele><time>2026-04-12T12:45:06.999Z</time></trkpt><trkpt lat="42.64359324668716" lon="12.035353220453622"><ele>568.25</ele><time>2026-04-12T12:45:07.999Z</time></trkpt><trkpt lat="42.6435681656324" lon="12.035530985522888"><ele>568.0</ele><time>2026-04-12T12:45:08.999Z</time></trkpt><trkpt lat="42.64352754096657" lon="12.035719598515586"><ele>569.0</ele><time>2026-04-12T12:45:09.999Z</time></trkpt><trkpt lat="42.64348401481127" lon="12.035912596734454"><ele>570.0</ele><time>2026-04-12T12:45:10.999Z</time></trkpt><trkpt lat="42.643426995041715" lon="12.03609691921827"><ele>571.0</ele><time>2026-04-12T12:45:11.999Z</time></trkpt><trkpt lat="42.643356284524764" lon="12.03629274299723"><ele>571.0</ele><time>2026-04-12T12:45:12.999Z</time></trkpt><trkpt lat="42.64331021210661" lon="12.036486508492896"><ele>571.0</ele><time>2026-04-12T12:45:13.999Z</time></trkpt><trkpt lat="42.64326905047105" lon="12.036686419569062"><ele>571.0</ele><time>2026-04-12T12:45:14.999Z</time></trkpt><trkpt lat="42.64322546145763" lon="12.036881680878496"><ele>572.0</ele><time>2026-04-12T12:45:15.999Z</time></trkpt><trkpt lat="42.643180528846" lon="12.037076651443657"><ele>573.0</ele><time>2026-04-12T12:45:16.999Z</time></trkpt><trkpt lat="42.64313373187836" lon="12.037267842037421"><ele>574.0</ele><time>2026-04-12T12:45:17.999Z</time></trkpt><trkpt lat="42.64307850658857" lon="12.037459254623943"><ele>574.75</ele><time>2026-04-12T12:45:18.999Z</time></trkpt><trkpt lat="42.643020810164224" lon="12.037643371694383"><ele>575.5</ele><time>2026-04-12T12:45:19.999Z</time></trkpt><trkpt lat="42.642956384926244" lon="12.03783074890637"><ele>576.25</ele><time>2026-04-12T12:45:20.999Z</time></trkpt><trkpt lat="42.64288283522048" lon="12.038007259108744"><ele>577.0</ele><time>2026-04-12T12:45:21.999Z</time></trkpt><trkpt lat="42.64280878057378" lon="12.038182971328034"><ele>575.0</ele><time>2026-04-12T12:45:22.999Z</time></trkpt><trkpt lat="42.64273445899912" lon="12.038364818444"><ele>573.0</ele><time>2026-04-12T12:45:23.999Z</time></trkpt><trkpt lat="42.642659564652945" lon="12.038543161690658"><ele>571.0</ele><time>2026-04-12T12:45:24.999Z</time></trkpt><trkpt lat="42.64258732506482" lon="12.038720826841352"><ele>571.0</ele><time>2026-04-12T12:45:25.999Z</time></trkpt><trkpt lat="42.642518793981836" lon="12.03890669169232"><ele>571.0</ele><time>2026-04-12T12:45:26.999Z</time></trkpt><trkpt lat="42.64245199493077" lon="12.039095660784191"><ele>571.0</ele><time>2026-04-12T12:45:27.999Z</time></trkpt><trkpt lat="42.642399172899594" lon="12.039287830279637"><ele>570.6666666666667</ele><time>2026-04-12T12:45:28.999Z</time></trkpt><trkpt lat="42.642355367536304" lon="12.039480955897787"><ele>570.3333333333334</ele><time>2026-04-12T12:45:29.999Z</time></trkpt><trkpt lat="42.64232191022745" lon="12.039679452978058"><ele>570.0</ele><time>2026-04-12T12:45:30.999Z</time></trkpt><trkpt lat="42.64229650882428" lon="12.03988495869231"><ele>570.0</ele><time>2026-04-12T12:45:31.999Z</time></trkpt><trkpt lat="42.64228647727994" lon="12.0400860591282"><ele>570.0</ele><time>2026-04-12T12:45:32.999Z</time></trkpt><trkpt lat="42.64228258744732" lon="12.040289310639494"><ele>570.0</ele><time>2026-04-12T12:45:33.999Z</time></trkpt><trkpt lat="42.64228497142394" lon="12.040490267272746"><ele>570.0</ele><time>2026-04-12T12:45:34.999Z</time></trkpt><trkpt lat="42.642288471474416" lon="12.040690899575486"><ele>570.25</ele><time>2026-04-12T12:45:35.999Z</time></trkpt><trkpt lat="42.64229000404" lon="12.040891813507532"><ele>570.5</ele><time>2026-04-12T12:45:36.999Z</time></trkpt><trkpt lat="42.642292087613335" lon="12.041087559080687"><ele>570.75</ele><time>2026-04-12T12:45:37.999Z</time></trkpt><trkpt lat="42.64229383897915" lon="12.041299791662114"><ele>571.0</ele><time>2026-04-12T12:45:38.999Z</time></trkpt><trkpt lat="42.64229254075928" lon="12.041511327742883"><ele>570.25</ele><time>2026-04-12T12:45:39.999Z</time></trkpt><trkpt lat="42.64228857737488" lon="12.041710937843327"><ele>569.5</ele><time>2026-04-12T12:45:40.999Z</time></trkpt><trkpt lat="42.64228426528072" lon="12.041911242184275"><ele>568.75</ele><time>2026-04-12T12:45:41.999Z</time></trkpt><trkpt lat="42.64228195065484" lon="12.042114146357788"><ele>568.0</ele><time>2026-04-12T12:45:42.999Z</time></trkpt><trkpt lat="42.64228184026071" lon="12.042314755874791"><ele>567.25</ele><time>2026-04-12T12:45:43.999Z</time></trkpt><trkpt lat="42.64228112347748" lon="12.042521810771968"><ele>566.5</ele><time>2026-04-12T12:45:44.999Z</time></trkpt><trkpt lat="42.6422830863007" lon="12.04272681402585"><ele>565.75</ele><time>2026-04-12T12:45:45.999Z</time></trkpt><trkpt lat="42.64228344983975" lon="12.042921777465997"><ele>565.0</ele><time>2026-04-12T12:45:46.999Z</time></trkpt><trkpt lat="42.64228337975787" lon="12.043122258518295"><ele>564.25</ele><time>2026-04-12T12:45:47.999Z</time></trkpt><trkpt lat="42.64228720249351" lon="12.043317004184143"><ele>563.5</ele><time>2026-04-12T12:45:48.999Z</time></trkpt><trkpt lat="42.64229495491264" lon="12.043519766040976"><ele>562.75</ele><time>2026-04-12T12:45:49.999Z</time></trkpt><trkpt lat="42.6422960108976" lon="12.043722106634933"><ele>562.0</ele><time>2026-04-12T12:45:50.999Z</time></trkpt><trkpt lat="42.64229808052139" lon="12.043930937570677"><ele>561.0</ele><time>2026-04-12T12:45:51.999Z</time></trkpt><trkpt lat="42.64229973886749" lon="12.044135211492422"><ele>560.0</ele><time>2026-04-12T12:45:52.999Z</time></trkpt><trkpt lat="42.64229935274191" lon="12.04434349474904"><ele>559.0</ele><time>2026-04-12T12:45:53.999Z</time></trkpt><trkpt lat="42.642290135882064" lon="12.044534797126882"><ele>558.0</ele><time>2026-04-12T12:45:54.999Z</time></trkpt><trkpt lat="42.64228220074057" lon="12.04472948333274"><ele>558.0</ele><time>2026-04-12T12:45:55.999Z</time></trkpt><trkpt lat="42.64227737468698" lon="12.044929434985306"><ele>558.0</ele><time>2026-04-12T12:45:56.999Z</time></trkpt><trkpt lat="42.642270840671" lon="12.045150323394013"><ele>558.0</ele><time>2026-04-12T12:45:57.999Z</time></trkpt><trkpt lat="42.64227068690061" lon="12.04538055261289"><ele>556.6666666666666</ele><time>2026-04-12T12:45:58.999Z</time></trkpt><trkpt lat="42.64227440594891" lon="12.04560855953336"><ele>555.3333333333333</ele><time>2026-04-12T12:45:59.999Z</time></trkpt><trkpt lat="42.64227598089833" lon="12.045855227323274"><ele>554.0</ele><time>2026-04-12T12:46:00.999Z</time></trkpt><trkpt lat="42.64227334747007" lon="12.046102545353559"><ele>553.0</ele><time>2026-04-12T12:46:01.999Z</time></trkpt><trkpt lat="42.64228283039842" lon="12.046354195752317"><ele>552.0</ele><time>2026-04-12T12:46:02.999Z</time></trkpt><trkpt lat="42.64230164616534" lon="12.046615809996716"><ele>551.0</ele><time>2026-04-12T12:46:03.999Z</time></trkpt><trkpt lat="42.64232288504347" lon="12.046880510440982"><ele>550.0</ele><time>2026-04-12T12:46:04.999Z</time></trkpt><trkpt lat="42.642343969558496" lon="12.047152172993044"><ele>549.0</ele><time>2026-04-12T12:46:05.999Z</time></trkpt><trkpt lat="42.642366419336284" lon="12.047423173592138"><ele>548.0</ele><time>2026-04-12T12:46:06.999Z</time></trkpt><trkpt lat="42.642388263794494" lon="12.047688909906578"><ele>547.6666666666666</ele><time>2026-04-12T12:46:07.999Z</time></trkpt><trkpt lat="42.64238984908716" lon="12.047962471750367"><ele>547.3333333333334</ele><time>2026-04-12T12:46:08.999Z</time></trkpt><trkpt lat="42.6424022354351" lon="12.048235698375471"><ele>547.0</ele><time>2026-04-12T12:46:09.999Z</time></trkpt><trkpt lat="42.64241061320001" lon="12.048513745580163"><ele>544.6666666666667</ele><time>2026-04-12T12:46:10.999Z</time></trkpt><trkpt lat="42.642431443963424" lon="12.048801014858283"><ele>542.3333333333334</ele><time>2026-04-12T12:46:11.999Z</time></trkpt><trkpt lat="42.64243710555973" lon="12.049086192740925"><ele>540.0</ele><time>2026-04-12T12:46:12.999Z</time></trkpt><trkpt lat="42.64242969787777" lon="12.049382971421199"><ele>538.3333333333334</ele><time>2026-04-12T12:46:13.999Z</time></trkpt><trkpt lat="42.64243419259057" lon="12.049677915737284"><ele>536.6666666666667</ele><time>2026-04-12T12:46:14.999Z</time></trkpt><trkpt lat="42.64243859171624" lon="12.049966587576987"><ele>535.0</ele><time>2026-04-12T12:46:15.999Z</time></trkpt><trkpt lat="42.642443613835134" lon="12.050255048325681"><ele>533.6666666666667</ele><time>2026-04-12T12:46:16.999Z</time></trkpt><trkpt lat="42.642449305840984" lon="12.05055216730752"><ele>532.3333333333334</ele><time>2026-04-12T12:46:17.999Z</time></trkpt><trkpt lat="42.642455217788864" lon="12.0508607670527"><ele>531.0</ele><time>2026-04-12T12:46:18.999Z</time></trkpt><trkpt lat="42.64246129875325" lon="12.051178189451786"><ele>530.5</ele><time>2026-04-12T12:46:19.999Z</time></trkpt><trkpt lat="42.6424673265155" lon="12.051492834610835"><ele>530.0</ele><time>2026-04-12T12:46:20.999Z</time></trkpt><trkpt lat="42.642473216724966" lon="12.051837464634934"><ele>530.0</ele><time>2026-04-12T12:46:21.999Z</time></trkpt><trkpt lat="42.6424798418374" lon="12.052193753751622"><ele>530.0</ele><time>2026-04-12T12:46:22.999Z</time></trkpt><trkpt lat="42.642487027809224" lon="12.052556344676109"><ele>530.0</ele><time>2026-04-12T12:46:23.999Z</time></trkpt><trkpt lat="42.64249391641755" lon="12.052903931224046"><ele>530.0</ele><time>2026-04-12T12:46:24.999Z</time></trkpt><trkpt lat="42.642504916004405" lon="12.05315944267612"><ele>530.0</ele><time>2026-04-12T12:46:26.999Z</time></trkpt><trkpt lat="42.64251449989927" lon="12.05344898587882"><ele>530.0</ele><time>2026-04-12T12:46:27.999Z</time></trkpt><trkpt lat="42.642522011603255" lon="12.053737211955102"><ele>530.0</ele><time>2026-04-12T12:46:28.999Z</time></trkpt><trkpt lat="42.64253493595855" lon="12.05402653750435"><ele>530.0</ele><time>2026-04-12T12:46:29.999Z</time></trkpt><trkpt lat="42.64255927562634" lon="12.054313444111095"><ele>529.6666666666666</ele><time>2026-04-12T12:46:30.999Z</time></trkpt><trkpt lat="42.64259193247042" lon="12.054599607630061"><ele>529.3333333333334</ele><time>2026-04-12T12:46:31.999Z</time></trkpt><trkpt lat="42.642629030709195" lon="12.054887588222089"><ele>529.0</ele><time>2026-04-12T12:46:32.999Z</time></trkpt><trkpt lat="42.6426704922494" lon="12.055174915607175"><ele>529.0</ele><time>2026-04-12T12:46:33.999Z</time></trkpt><trkpt lat="42.64271355917873" lon="12.055467012076438"><ele>529.0</ele><time>2026-04-12T12:46:34.999Z</time></trkpt><trkpt lat="42.6427562992336" lon="12.055762964308004"><ele>529.0</ele><time>2026-04-12T12:46:35.999Z</time></trkpt><trkpt lat="42.64279732261584" lon="12.056059946204453"><ele>528.3333333333334</ele><time>2026-04-12T12:46:36.999Z</time></trkpt><trkpt lat="42.642838508902024" lon="12.056355431428978"><ele>527.6666666666666</ele><time>2026-04-12T12:46:37.999Z</time></trkpt><trkpt lat="42.64287660827397" lon="12.056654312582303"><ele>527.0</ele><time>2026-04-12T12:46:38.999Z</time></trkpt><trkpt lat="42.6429172555078" lon="12.056952656144091"><ele>527.0</ele><time>2026-04-12T12:46:39.999Z</time></trkpt><trkpt lat="42.64296263654101" lon="12.057244411043465"><ele>527.0</ele><time>2026-04-12T12:46:40.999Z</time></trkpt><trkpt lat="42.64299981154161" lon="12.057539705674756"><ele>527.0</ele><time>2026-04-12T12:46:41.999Z</time></trkpt><trkpt lat="42.643036457540056" lon="12.057837987395677"><ele>527.6666666666666</ele><time>2026-04-12T12:46:42.999Z</time></trkpt><trkpt lat="42.64307731678648" lon="12.05813412061342"><ele>528.3333333333334</ele><time>2026-04-12T12:46:43.999Z</time></trkpt><trkpt lat="42.64311818988595" lon="12.058431004647248"><ele>529.0</ele><time>2026-04-12T12:46:44.999Z</time></trkpt><trkpt lat="42.64315972954328" lon="12.058721721397054"><ele>530.3333333333334</ele><time>2026-04-12T12:46:45.999Z</time></trkpt><trkpt lat="42.6432004622853" lon="12.059015442832399"><ele>531.6666666666666</ele><time>2026-04-12T12:46:46.999Z</time></trkpt><trkpt lat="42.643239818777175" lon="12.05930602290934"><ele>533.0</ele><time>2026-04-12T12:46:47.999Z</time></trkpt><trkpt lat="42.643288801010364" lon="12.059591787116444"><ele>533.6666666666666</ele><time>2026-04-12T12:46:48.999Z</time></trkpt><trkpt lat="42.643325694202005" lon="12.059884383313776"><ele>534.3333333333334</ele><time>2026-04-12T12:46:49.999Z</time></trkpt><trkpt lat="42.64336053395704" lon="12.060162627886502"><ele>535.0</ele><time>2026-04-12T12:46:50.999Z</time></trkpt><trkpt lat="42.64339610776936" lon="12.060428223547977"><ele>535.0</ele><time>2026-04-12T12:46:51.999Z</time></trkpt><trkpt lat="42.64343252205703" lon="12.060689456838606"><ele>535.0</ele><time>2026-04-12T12:46:52.999Z</time></trkpt><trkpt lat="42.64343575486896" lon="12.060959165127443"><ele>535.0</ele><time>2026-04-12T12:46:53.999Z</time></trkpt><trkpt lat="42.643439197108265" lon="12.061226688767864"><ele>534.3333333333334</ele><time>2026-04-12T12:46:54.999Z</time></trkpt><trkpt lat="42.643441548401405" lon="12.061517104472792"><ele>533.6666666666666</ele><time>2026-04-12T12:46:55.999Z</time></trkpt><trkpt lat="42.64342195957355" lon="12.061810085445776"><ele>533.0</ele><time>2026-04-12T12:46:56.999Z</time></trkpt><trkpt lat="42.64339874416019" lon="12.062088258002941"><ele>531.6666666666666</ele><time>2026-04-12T12:46:57.999Z</time></trkpt><trkpt lat="42.643376345488754" lon="12.062359409385513"><ele>530.3333333333334</ele><time>2026-04-12T12:46:58.999Z</time></trkpt><trkpt lat="42.64336133854611" lon="12.062636387552871"><ele>529.0</ele><time>2026-04-12T12:46:59.999Z</time></trkpt><trkpt lat="42.643353912905376" lon="12.062908440258788"><ele>528.3333333333334</ele><time>2026-04-12T12:47:00.999Z</time></trkpt><trkpt lat="42.64336193168894" lon="12.063195974597532"><ele>527.6666666666666</ele><time>2026-04-12T12:47:01.999Z</time></trkpt><trkpt lat="42.64337268266175" lon="12.06348443523064"><ele>527.0</ele><time>2026-04-12T12:47:02.999Z</time></trkpt><trkpt lat="42.643374910208095" lon="12.063780252835581"><ele>526.3333333333333</ele><time>2026-04-12T12:47:03.999Z</time></trkpt><trkpt lat="42.6434412578517" lon="12.064077661736782"><ele>525.6666666666666</ele><time>2026-04-12T12:47:04.999Z</time></trkpt><trkpt lat="42.643452879748864" lon="12.064372600637142"><ele>525.0</ele><time>2026-04-12T12:47:05.999Z</time></trkpt><trkpt lat="42.64351094287398" lon="12.064668000170869"><ele>524.3333333333334</ele><time>2026-04-12T12:47:06.999Z</time></trkpt><trkpt lat="42.643562229096055" lon="12.064953114244199"><ele>523.6666666666667</ele><time>2026-04-12T12:47:07.999Z</time></trkpt><trkpt lat="42.64361236013713" lon="12.065247651439204"><ele>523.0</ele><time>2026-04-12T12:47:08.999Z</time></trkpt><trkpt lat="42.643666199395675" lon="12.065547850499078"><ele>521.5</ele><time>2026-04-12T12:47:09.999Z</time></trkpt><trkpt lat="42.64371588999404" lon="12.065856745628798"><ele>520.0</ele><time>2026-04-12T12:47:10.999Z</time></trkpt><trkpt lat="42.64376900513314" lon="12.066172028361377"><ele>520.0</ele><time>2026-04-12T12:47:11.999Z</time></trkpt><trkpt lat="42.64382158764131" lon="12.066475307302232"><ele>520.0</ele><time>2026-04-12T12:47:12.999Z</time></trkpt><trkpt lat="42.64387073561377" lon="12.066768565349747"><ele>519.6666666666667</ele><time>2026-04-12T12:47:13.999Z</time></trkpt><trkpt lat="42.643916706537205" lon="12.06705820604997"><ele>519.3333333333334</ele><time>2026-04-12T12:47:14.999Z</time></trkpt><trkpt lat="42.64396792179742" lon="12.067345674827985"><ele>519.0</ele><time>2026-04-12T12:47:15.999Z</time></trkpt><trkpt lat="42.644019087885795" lon="12.067635247783057"><ele>518.3333333333334</ele><time>2026-04-12T12:47:16.999Z</time></trkpt><trkpt lat="42.64406086394568" lon="12.067923158392732"><ele>517.6666666666667</ele><time>2026-04-12T12:47:17.999Z</time></trkpt><trkpt lat="42.64408895460755" lon="12.068217082276282"><ele>517.0</ele><time>2026-04-12T12:47:18.999Z</time></trkpt><trkpt lat="42.64410801762737" lon="12.068491815779966"><ele>516.6666666666667</ele><time>2026-04-12T12:47:19.999Z</time></trkpt><trkpt lat="42.644116652818454" lon="12.068757737897982"><ele>516.3333333333334</ele><time>2026-04-12T12:47:20.999Z</time></trkpt><trkpt lat="42.644122327744505" lon="12.069017563988542"><ele>516.0</ele><time>2026-04-12T12:47:21.999Z</time></trkpt><trkpt lat="42.6441114451295" lon="12.06926598652502"><ele>516.0</ele><time>2026-04-12T12:47:22.999Z</time></trkpt><trkpt lat="42.644075499977376" lon="12.069482116093445"><ele>516.0</ele><time>2026-04-12T12:47:23.999Z</time></trkpt><trkpt lat="42.644020324834656" lon="12.069700221904764"><ele>516.0</ele><time>2026-04-12T12:47:24.999Z</time></trkpt><trkpt lat="42.643942441518085" lon="12.069901331652227"><ele>515.0</ele><time>2026-04-12T12:47:25.999Z</time></trkpt><trkpt lat="42.64386124402608" lon="12.070105320669802"><ele>514.0</ele><time>2026-04-12T12:47:26.999Z</time></trkpt><trkpt lat="42.643778091561266" lon="12.070309377961218"><ele>513.0</ele><time>2026-04-12T12:47:27.999Z</time></trkpt><trkpt lat="42.643700340531545" lon="12.07050300232856"><ele>513.0</ele><time>2026-04-12T12:47:28.999Z</time></trkpt><trkpt lat="42.64364683688579" lon="12.070697556374803"><ele>513.0</ele><time>2026-04-12T12:47:29.999Z</time></trkpt><trkpt lat="42.643643155830425" lon="12.070915215837148"><ele>513.0</ele><time>2026-04-12T12:47:30.999Z</time></trkpt><trkpt lat="42.64365602942014" lon="12.071136400051994"><ele>512.0</ele><time>2026-04-12T12:47:31.999Z</time></trkpt><trkpt lat="42.64368063986713" lon="12.071362687401333"><ele>511.0</ele><time>2026-04-12T12:47:32.999Z</time></trkpt><trkpt lat="42.64374043169015" lon="12.071599926778287"><ele>510.0</ele><time>2026-04-12T12:47:33.999Z</time></trkpt><trkpt lat="42.643792786133744" lon="12.071818483020825"><ele>510.0</ele><time>2026-04-12T12:47:34.999Z</time></trkpt><trkpt lat="42.6438313292377" lon="12.072042437655766"><ele>510.0</ele><time>2026-04-12T12:47:35.999Z</time></trkpt><trkpt lat="42.64386934657948" lon="12.072265954976539"><ele>510.0</ele><time>2026-04-12T12:47:36.999Z</time></trkpt><trkpt lat="42.64391260956404" lon="12.072475052571086"><ele>510.0</ele><time>2026-04-12T12:47:37.999Z</time></trkpt><trkpt lat="42.64396596577378" lon="12.072677515149405"><ele>510.0</ele><time>2026-04-12T12:47:38.999Z</time></trkpt><trkpt lat="42.6440271057324" lon="12.072863261496034"><ele>510.0</ele><time>2026-04-12T12:47:39.999Z</time></trkpt><trkpt lat="42.6440906482019" lon="12.073044333183045"><ele>510.0</ele><time>2026-04-12T12:47:40.999Z</time></trkpt><trkpt lat="42.644150876293914" lon="12.073221353411885"><ele>510.0</ele><time>2026-04-12T12:47:41.999Z</time></trkpt><trkpt lat="42.6441898016976" lon="12.073396073053035"><ele>510.0</ele><time>2026-04-12T12:47:42.999Z</time></trkpt><trkpt lat="42.64420625339603" lon="12.073560145640789"><ele>510.0</ele><time>2026-04-12T12:47:43.999Z</time></trkpt><trkpt lat="42.64420458416284" lon="12.073729608729328"><ele>510.5</ele><time>2026-04-12T12:47:44.999Z</time></trkpt><trkpt lat="42.64418293784815" lon="12.07389244899674"><ele>511.0</ele><time>2026-04-12T12:47:45.999Z</time></trkpt><trkpt lat="42.64413261221633" lon="12.074058799942549"><ele>511.5</ele><time>2026-04-12T12:47:46.999Z</time></trkpt><trkpt lat="42.644062649862455" lon="12.07422079959634"><ele>512.0</ele><time>2026-04-12T12:47:47.999Z</time></trkpt><trkpt lat="42.643972103597655" lon="12.074383571519489"><ele>512.0</ele><time>2026-04-12T12:47:48.999Z</time></trkpt><trkpt lat="42.64384766269413" lon="12.074532620752533"><ele>512.0</ele><time>2026-04-12T12:47:49.999Z</time></trkpt><trkpt lat="42.643708880240105" lon="12.074641060212723"><ele>512.0</ele><time>2026-04-12T12:47:50.999Z</time></trkpt><trkpt lat="42.64357220513015" lon="12.074757391799755"><ele>510.66666666666663</ele><time>2026-04-12T12:47:51.999Z</time></trkpt><trkpt lat="42.643421607049504" lon="12.07490750805552"><ele>509.33333333333337</ele><time>2026-04-12T12:47:52.999Z</time></trkpt><trkpt lat="42.64328420578454" lon="12.075043038685171"><ele>508.0</ele><time>2026-04-12T12:47:53.999Z</time></trkpt><trkpt lat="42.643137428791164" lon="12.07519002336884"><ele>508.0</ele><time>2026-04-12T12:47:54.999Z</time></trkpt><trkpt lat="42.64299752000728" lon="12.075323451824065"><ele>508.0</ele><time>2026-04-12T12:47:55.999Z</time></trkpt><trkpt lat="42.64286474021864" lon="12.07546190970981"><ele>508.0</ele><time>2026-04-12T12:47:56.999Z</time></trkpt><trkpt lat="42.64275782726455" lon="12.075602036511793"><ele>508.33333333333337</ele><time>2026-04-12T12:47:57.998Z</time></trkpt><trkpt lat="42.642651550178456" lon="12.07575734389373"><ele>508.66666666666663</ele><time>2026-04-12T12:47:58.998Z</time></trkpt><trkpt lat="42.64255948196103" lon="12.07592521211809"><ele>509.0</ele><time>2026-04-12T12:47:59.998Z</time></trkpt><trkpt lat="42.64246061319483" lon="12.076109411693729"><ele>509.0</ele><time>2026-04-12T12:48:00.998Z</time></trkpt><trkpt lat="42.642371482591344" lon="12.076299836636275"><ele>509.0</ele><time>2026-04-12T12:48:01.998Z</time></trkpt><trkpt lat="42.64227832386424" lon="12.076491182879641"><ele>509.0</ele><time>2026-04-12T12:48:02.998Z</time></trkpt><trkpt lat="42.642192476603974" lon="12.07667924080165"><ele>509.3333333333333</ele><time>2026-04-12T12:48:03.998Z</time></trkpt><trkpt lat="42.64209735374625" lon="12.076876871103995"><ele>509.66666666666663</ele><time>2026-04-12T12:48:04.998Z</time></trkpt><trkpt lat="42.64200337947592" lon="12.07707581349798"><ele>510.0</ele><time>2026-04-12T12:48:05.998Z</time></trkpt><trkpt lat="42.64191227934386" lon="12.077275034246957"><ele>511.0</ele><time>2026-04-12T12:48:06.998Z</time></trkpt><trkpt lat="42.6418345384868" lon="12.077478570848811"><ele>512.0</ele><time>2026-04-12T12:48:07.998Z</time></trkpt><trkpt lat="42.6417388026048" lon="12.07766674471168"><ele>513.0</ele><time>2026-04-12T12:48:08.998Z</time></trkpt><trkpt lat="42.64164215956813" lon="12.077871445562316"><ele>513.0</ele><time>2026-04-12T12:48:09.998Z</time></trkpt><trkpt lat="42.6415701690739" lon="12.07809685296554"><ele>513.0</ele><time>2026-04-12T12:48:10.998Z</time></trkpt><trkpt lat="42.64150821746611" lon="12.078329541202274"><ele>513.0</ele><time>2026-04-12T12:48:11.998Z</time></trkpt><trkpt lat="42.64144513821348" lon="12.07856447867579"><ele>512.3333333333334</ele><time>2026-04-12T12:48:12.998Z</time></trkpt><trkpt lat="42.64138260358691" lon="12.078788334495057"><ele>511.6666666666667</ele><time>2026-04-12T12:48:13.998Z</time></trkpt><trkpt lat="42.64132417933204" lon="12.079006036765863"><ele>511.0</ele><time>2026-04-12T12:48:14.998Z</time></trkpt><trkpt lat="42.641265883743486" lon="12.07921463913529"><ele>509.33333333333337</ele><time>2026-04-12T12:48:15.998Z</time></trkpt><trkpt lat="42.64121467973488" lon="12.079429194067513"><ele>507.66666666666663</ele><time>2026-04-12T12:48:16.998Z</time></trkpt><trkpt lat="42.64117087691572" lon="12.079656348241809"><ele>506.0</ele><time>2026-04-12T12:48:17.998Z</time></trkpt><trkpt lat="42.64113858865506" lon="12.079890614077872"><ele>507.3333333333333</ele><time>2026-04-12T12:48:18.998Z</time></trkpt><trkpt lat="42.641108953864446" lon="12.080120844290223"><ele>508.66666666666663</ele><time>2026-04-12T12:48:19.998Z</time></trkpt><trkpt lat="42.64109285932121" lon="12.080350048317849"><ele>510.0</ele><time>2026-04-12T12:48:20.998Z</time></trkpt><trkpt lat="42.64107395257581" lon="12.080567228691574"><ele>510.0</ele><time>2026-04-12T12:48:21.998Z</time></trkpt><trkpt lat="42.641077075895645" lon="12.080798253226678"><ele>510.0</ele><time>2026-04-12T12:48:22.998Z</time></trkpt><trkpt lat="42.64108042752252" lon="12.081015837325243"><ele>510.0</ele><time>2026-04-12T12:48:23.998Z</time></trkpt><trkpt lat="42.64107934493626" lon="12.08122437137273"><ele>510.0</ele><time>2026-04-12T12:48:24.998Z</time></trkpt><trkpt lat="42.64107573427392" lon="12.081433264048522"><ele>510.0</ele><time>2026-04-12T12:48:25.998Z</time></trkpt><trkpt lat="42.641065854557056" lon="12.081650869073433"><ele>510.0</ele><time>2026-04-12T12:48:26.998Z</time></trkpt><trkpt lat="42.641052285382344" lon="12.081857153653322"><ele>510.0</ele><time>2026-04-12T12:48:27.998Z</time></trkpt><trkpt lat="42.64103156655258" lon="12.082071397439599"><ele>510.0</ele><time>2026-04-12T12:48:28.998Z</time></trkpt><trkpt lat="42.64100405316609" lon="12.082280058675835"><ele>510.0</ele><time>2026-04-12T12:48:29.998Z</time></trkpt><trkpt lat="42.64097861853768" lon="12.082490709429525"><ele>510.0</ele><time>2026-04-12T12:48:30.998Z</time></trkpt><trkpt lat="42.640942961566836" lon="12.082701149126773"><ele>510.0</ele><time>2026-04-12T12:48:31.998Z</time></trkpt><trkpt lat="42.64090468806914" lon="12.082926899534069"><ele>510.0</ele><time>2026-04-12T12:48:32.998Z</time></trkpt><trkpt lat="42.64086493757136" lon="12.083137124225056"><ele>509.33333333333337</ele><time>2026-04-12T12:48:33.998Z</time></trkpt><trkpt lat="42.640830038349414" lon="12.083354384553635"><ele>508.6666666666667</ele><time>2026-04-12T12:48:34.998Z</time></trkpt><trkpt lat="42.64078437269386" lon="12.0835687973659"><ele>508.0</ele><time>2026-04-12T12:48:35.998Z</time></trkpt><trkpt lat="42.64074648145579" lon="12.083777536689174"><ele>508.0</ele><time>2026-04-12T12:48:36.998Z</time></trkpt><trkpt lat="42.6407143172136" lon="12.083995461036876"><ele>508.0</ele><time>2026-04-12T12:48:37.998Z</time></trkpt><trkpt lat="42.64068564047163" lon="12.08420934063124"><ele>508.0</ele><time>2026-04-12T12:48:38.998Z</time></trkpt><trkpt lat="42.64066154063013" lon="12.084430159757991"><ele>509.33333333333337</ele><time>2026-04-12T12:48:39.998Z</time></trkpt><trkpt lat="42.64064221387289" lon="12.084657325661807"><ele>510.66666666666663</ele><time>2026-04-12T12:48:40.998Z</time></trkpt><trkpt lat="42.64063300722463" lon="12.084887502733098"><ele>512.0</ele><time>2026-04-12T12:48:41.998Z</time></trkpt><trkpt lat="42.64062559515769" lon="12.085118690853967"><ele>513.0</ele><time>2026-04-12T12:48:42.998Z</time></trkpt><trkpt lat="42.64061203381607" lon="12.085352996242044"><ele>514.0</ele><time>2026-04-12T12:48:43.998Z</time></trkpt><trkpt lat="42.64059791283991" lon="12.085583491163153"><ele>515.0</ele><time>2026-04-12T12:48:44.998Z</time></trkpt><trkpt lat="42.640582314991484" lon="12.085816084476667"><ele>515.0</ele><time>2026-04-12T12:48:45.998Z</time></trkpt><trkpt lat="42.64056909895434" lon="12.086049444806468"><ele>515.0</ele><time>2026-04-12T12:48:46.998Z</time></trkpt><trkpt lat="42.640568940782444" lon="12.08627414150383"><ele>515.0</ele><time>2026-04-12T12:48:47.998Z</time></trkpt><trkpt lat="42.64056146324635" lon="12.086507547474866"><ele>513.6666666666666</ele><time>2026-04-12T12:48:48.998Z</time></trkpt><trkpt lat="42.64055116504787" lon="12.086744998125402"><ele>512.3333333333334</ele><time>2026-04-12T12:48:49.998Z</time></trkpt><trkpt lat="42.64053560895549" lon="12.086979467065222"><ele>511.0</ele><time>2026-04-12T12:48:50.998Z</time></trkpt><trkpt lat="42.64051122906638" lon="12.08722148209619"><ele>510.0</ele><time>2026-04-12T12:48:51.998Z</time></trkpt><trkpt lat="42.640497807249915" lon="12.087459145174856"><ele>509.0</ele><time>2026-04-12T12:48:52.998Z</time></trkpt><trkpt lat="42.64048894546505" lon="12.087699359971875"><ele>508.0</ele><time>2026-04-12T12:48:53.998Z</time></trkpt><trkpt lat="42.64047700311604" lon="12.08793138143044"><ele>508.0</ele><time>2026-04-12T12:48:54.998Z</time></trkpt><trkpt lat="42.640460687301825" lon="12.088160873997474"><ele>508.0</ele><time>2026-04-12T12:48:55.998Z</time></trkpt><trkpt lat="42.6404495040503" lon="12.08840343131672"><ele>508.0</ele><time>2026-04-12T12:48:56.998Z</time></trkpt><trkpt lat="42.64043390506181" lon="12.088651961271191"><ele>509.0</ele><time>2026-04-12T12:48:57.998Z</time></trkpt><trkpt lat="42.640427207620945" lon="12.08890172976849"><ele>510.0</ele><time>2026-04-12T12:48:58.998Z</time></trkpt><trkpt lat="42.64041140394479" lon="12.089149981056662"><ele>511.0</ele><time>2026-04-12T12:48:59.998Z</time></trkpt><trkpt lat="42.640394211375416" lon="12.089389477578429"><ele>511.0</ele><time>2026-04-12T12:49:00.998Z</time></trkpt><trkpt lat="42.640369930184185" lon="12.089620961240616"><ele>511.0</ele><time>2026-04-12T12:49:01.998Z</time></trkpt><trkpt lat="42.64032057048634" lon="12.089841123595788"><ele>511.0</ele><time>2026-04-12T12:49:02.998Z</time></trkpt><trkpt lat="42.640247778190975" lon="12.090051436351917"><ele>509.33333333333337</ele><time>2026-04-12T12:49:03.998Z</time></trkpt><trkpt lat="42.64016367091054" lon="12.090247926171093"><ele>507.66666666666663</ele><time>2026-04-12T12:49:04.998Z</time></trkpt><trkpt lat="42.64005616648367" lon="12.090440855673942"><ele>506.0</ele><time>2026-04-12T12:49:05.998Z</time></trkpt><trkpt lat="42.63994549829861" lon="12.0906108835582"><ele>506.3333333333333</ele><time>2026-04-12T12:49:06.998Z</time></trkpt><trkpt lat="42.639814855272384" lon="12.090765064950087"><ele>506.66666666666663</ele><time>2026-04-12T12:49:07.998Z</time></trkpt><trkpt lat="42.639669915130106" lon="12.090904438585817"><ele>507.0</ele><time>2026-04-12T12:49:08.998Z</time></trkpt><trkpt lat="42.63950807704989" lon="12.091027885758917"><ele>507.33333333333337</ele><time>2026-04-12T12:49:09.998Z</time></trkpt><trkpt lat="42.639345537948415" lon="12.09114757419779"><ele>507.6666666666667</ele><time>2026-04-12T12:49:10.998Z</time></trkpt><trkpt lat="42.63918304548382" lon="12.091269794221322"><ele>508.0</ele><time>2026-04-12T12:49:11.998Z</time></trkpt><trkpt lat="42.63902292042278" lon="12.091391811884854"><ele>508.0</ele><time>2026-04-12T12:49:12.998Z</time></trkpt><trkpt lat="42.638866619080964" lon="12.09151371134572"><ele>508.0</ele><time>2026-04-12T12:49:13.998Z</time></trkpt><trkpt lat="42.638713397670735" lon="12.091634808556913"><ele>508.0</ele><time>2026-04-12T12:49:14.998Z</time></trkpt><trkpt lat="42.63855928778279" lon="12.091750998679267"><ele>508.33333333333337</ele><time>2026-04-12T12:49:15.998Z</time></trkpt><trkpt lat="42.63840359903506" lon="12.091875346532737"><ele>508.66666666666663</ele><time>2026-04-12T12:49:16.998Z</time></trkpt><trkpt lat="42.63824837688059" lon="12.091996338779015"><ele>509.0</ele><time>2026-04-12T12:49:17.998Z</time></trkpt><trkpt lat="42.63809792451854" lon="12.092129849538361"><ele>509.0</ele><time>2026-04-12T12:49:18.998Z</time></trkpt><trkpt lat="42.637960386773564" lon="12.09226901282073"><ele>509.0</ele><time>2026-04-12T12:49:19.998Z</time></trkpt><trkpt lat="42.63782338663334" lon="12.092413035540046"><ele>509.0</ele><time>2026-04-12T12:49:20.998Z</time></trkpt><trkpt lat="42.637689173681125" lon="12.092551260101324"><ele>508.3333333333333</ele><time>2026-04-12T12:49:21.998Z</time></trkpt><trkpt lat="42.637547906639774" lon="12.092689118847026"><ele>507.66666666666663</ele><time>2026-04-12T12:49:22.998Z</time></trkpt><trkpt lat="42.637416195499895" lon="12.09281868384948"><ele>507.0</ele><time>2026-04-12T12:49:23.998Z</time></trkpt><trkpt lat="42.637291588238064" lon="12.09294969570955"><ele>507.0</ele><time>2026-04-12T12:49:24.998Z</time></trkpt><trkpt lat="42.63717582725656" lon="12.093060625548725"><ele>507.0</ele><time>2026-04-12T12:49:25.998Z</time></trkpt><trkpt lat="42.63707291562197" lon="12.09316535961643"><ele>507.0</ele><time>2026-04-12T12:49:26.998Z</time></trkpt><trkpt lat="42.636984371568936" lon="12.093259298582959"><ele>507.0</ele><time>2026-04-12T12:49:27.998Z</time></trkpt><trkpt lat="42.636897192497585" lon="12.093352078774705"><ele>506.0</ele><time>2026-04-12T12:49:28.998Z</time></trkpt><trkpt lat="42.636823693226994" lon="12.093425891724648"><ele>505.0</ele><time>2026-04-12T12:49:29.998Z</time></trkpt><trkpt lat="42.6367610175485" lon="12.093472025150865"><ele>504.0</ele><time>2026-04-12T12:49:30.998Z</time></trkpt><trkpt lat="42.63666751006263" lon="12.093526572912477"><ele>503.0</ele><time>2026-04-12T12:49:32.998Z</time></trkpt><trkpt lat="42.63660641888856" lon="12.093581667186903"><ele>502.0</ele><time>2026-04-12T12:49:34.998Z</time></trkpt><trkpt lat="42.636556921940695" lon="12.093639083376388"><ele>501.0</ele><time>2026-04-12T12:49:36.998Z</time></trkpt><trkpt lat="42.636530758212146" lon="12.093720064147307"><ele>501.0</ele><time>2026-04-12T12:49:38.998Z</time></trkpt><trkpt lat="42.63654110384027" lon="12.093809531181563"><ele>501.0</ele><time>2026-04-12T12:49:39.998Z</time></trkpt><trkpt lat="42.63656960919392" lon="12.093907110311207"><ele>501.0</ele><time>2026-04-12T12:49:40.998Z</time></trkpt><trkpt lat="42.636620758589494" lon="12.093998534659205"><ele>501.0</ele><time>2026-04-12T12:49:41.998Z</time></trkpt><trkpt lat="42.636683168244524" lon="12.0941001962045"><ele>501.0</ele><time>2026-04-12T12:49:42.998Z</time></trkpt><trkpt lat="42.63675033763649" lon="12.094205028496866"><ele>501.0</ele><time>2026-04-12T12:49:43.998Z</time></trkpt><trkpt lat="42.63682290862134" lon="12.094319197758155"><ele>500.75</ele><time>2026-04-12T12:49:44.998Z</time></trkpt><trkpt lat="42.636901027935366" lon="12.094435466327592"><ele>500.5</ele><time>2026-04-12T12:49:45.998Z</time></trkpt><trkpt lat="42.6369814287549" lon="12.094547868423398"><ele>500.25</ele><time>2026-04-12T12:49:46.998Z</time></trkpt><trkpt lat="42.637069992852034" lon="12.094659630608552"><ele>500.0</ele><time>2026-04-12T12:49:47.998Z</time></trkpt><trkpt lat="42.637158845298885" lon="12.094778532764634"><ele>500.0</ele><time>2026-04-12T12:49:48.998Z</time></trkpt><trkpt lat="42.63724620394623" lon="12.094904799668528"><ele>500.0</ele><time>2026-04-12T12:49:49.998Z</time></trkpt><trkpt lat="42.637336670479556" lon="12.095033096136556"><ele>500.0</ele><time>2026-04-12T12:49:50.998Z</time></trkpt><trkpt lat="42.63743141537225" lon="12.09515624663067"><ele>500.0</ele><time>2026-04-12T12:49:51.998Z</time></trkpt><trkpt lat="42.63752752300714" lon="12.095282118004333"><ele>499.5</ele><time>2026-04-12T12:49:52.998Z</time></trkpt><trkpt lat="42.63761928027088" lon="12.095403664559848"><ele>499.0</ele><time>2026-04-12T12:49:53.998Z</time></trkpt><trkpt lat="42.637713285451035" lon="12.095512997153053"><ele>498.5</ele><time>2026-04-12T12:49:54.998Z</time></trkpt><trkpt lat="42.63782042025205" lon="12.095617543538568"><ele>498.0</ele><time>2026-04-12T12:49:55.998Z</time></trkpt><trkpt lat="42.637938215724496" lon="12.095714476220955"><ele>497.75</ele><time>2026-04-12T12:49:56.998Z</time></trkpt><trkpt lat="42.63805857828835" lon="12.095827585709664"><ele>497.5</ele><time>2026-04-12T12:49:57.998Z</time></trkpt><trkpt lat="42.63817134111305" lon="12.095940344539523"><ele>497.25</ele><time>2026-04-12T12:49:58.998Z</time></trkpt><trkpt lat="42.638285734350056" lon="12.09604747296211"><ele>497.0</ele><time>2026-04-12T12:49:59.998Z</time></trkpt><trkpt lat="42.63840403399625" lon="12.096151737588489"><ele>497.0</ele><time>2026-04-12T12:50:00.998Z</time></trkpt><trkpt lat="42.63851962855685" lon="12.096253524350148"><ele>497.0</ele><time>2026-04-12T12:50:01.998Z</time></trkpt><trkpt lat="42.638636103120135" lon="12.09635760220659"><ele>497.0</ele><time>2026-04-12T12:50:02.998Z</time></trkpt><trkpt lat="42.638752152889396" lon="12.096460678524656"><ele>497.0</ele><time>2026-04-12T12:50:03.998Z</time></trkpt><trkpt lat="42.63886856244252" lon="12.09656198075318"><ele>495.5</ele><time>2026-04-12T12:50:04.998Z</time></trkpt><trkpt lat="42.63898628734904" lon="12.096660363957769"><ele>494.0</ele><time>2026-04-12T12:50:05.998Z</time></trkpt><trkpt lat="42.63909912927949" lon="12.096761124079533"><ele>492.5</ele><time>2026-04-12T12:50:06.998Z</time></trkpt><trkpt lat="42.639211223941444" lon="12.09686395259903"><ele>491.0</ele><time>2026-04-12T12:50:07.998Z</time></trkpt><trkpt lat="42.63931832252595" lon="12.096960314789174"><ele>491.0</ele><time>2026-04-12T12:50:08.998Z</time></trkpt><trkpt lat="42.63942534153854" lon="12.097056305929687"><ele>491.0</ele><time>2026-04-12T12:50:09.998Z</time></trkpt><trkpt lat="42.63953408170687" lon="12.09715803463761"><ele>491.0</ele><time>2026-04-12T12:50:10.998Z</time></trkpt><trkpt lat="42.639634646843874" lon="12.09725413600178"><ele>491.0</ele><time>2026-04-12T12:50:11.998Z</time></trkpt><trkpt lat="42.639737329253805" lon="12.097349890170415"><ele>490.25</ele><time>2026-04-12T12:50:12.998Z</time></trkpt><trkpt lat="42.63984040895875" lon="12.097435473698177"><ele>489.5</ele><time>2026-04-12T12:50:13.998Z</time></trkpt><trkpt lat="42.639938568210674" lon="12.09752607141305"><ele>488.75</ele><time>2026-04-12T12:50:14.998Z</time></trkpt><trkpt lat="42.64003633627853" lon="12.09761516302328"><ele>488.0</ele><time>2026-04-12T12:50:15.998Z</time></trkpt><trkpt lat="42.64013312370524" lon="12.097699538370128"><ele>488.0</ele><time>2026-04-12T12:50:16.998Z</time></trkpt><trkpt lat="42.64022368845679" lon="12.097780428534092"><ele>487.99999999999994</ele><time>2026-04-12T12:50:17.998Z</time></trkpt><trkpt lat="42.64029180253007" lon="12.097861734965829"><ele>487.99999999999994</ele><time>2026-04-12T12:50:18.998Z</time></trkpt><trkpt lat="42.64033920641078" lon="12.097947693452134"><ele>488.0</ele><time>2026-04-12T12:50:19.998Z</time></trkpt><trkpt lat="42.640361447563755" lon="12.098160602551495"><ele>488.0</ele><time>2026-04-12T12:50:21.998Z</time></trkpt><trkpt lat="42.64033844686529" lon="12.098280052913614"><ele>488.0</ele><time>2026-04-12T12:50:22.998Z</time></trkpt><trkpt lat="42.64030812373502" lon="12.09840675707301"><ele>487.99999999999994</ele><time>2026-04-12T12:50:23.998Z</time></trkpt><trkpt lat="42.64028700594811" lon="12.0985492887059"><ele>487.99999999999994</ele><time>2026-04-12T12:50:24.998Z</time></trkpt><trkpt lat="42.640280778527526" lon="12.098705810849546"><ele>488.0</ele><time>2026-04-12T12:50:25.998Z</time></trkpt><trkpt lat="42.64029482502144" lon="12.098871068070192"><ele>488.0</ele><time>2026-04-12T12:50:26.998Z</time></trkpt><trkpt lat="42.64032642265813" lon="12.099027586762828"><ele>487.5</ele><time>2026-04-12T12:50:27.998Z</time></trkpt><trkpt lat="42.640360887984954" lon="12.099184343307163"><ele>487.0</ele><time>2026-04-12T12:50:28.998Z</time></trkpt><trkpt lat="42.64041913195508" lon="12.09933136031548"><ele>486.5</ele><time>2026-04-12T12:50:29.998Z</time></trkpt><trkpt lat="42.640487729850776" lon="12.099488214393544"><ele>486.0</ele><time>2026-04-12T12:50:30.998Z</time></trkpt><trkpt lat="42.64055870836633" lon="12.099649135884725"><ele>486.0</ele><time>2026-04-12T12:50:31.998Z</time></trkpt><trkpt lat="42.64063008132791" lon="12.099816851694271"><ele>486.0</ele><time>2026-04-12T12:50:32.998Z</time></trkpt><trkpt lat="42.64069655358212" lon="12.10000006553554"><ele>486.0</ele><time>2026-04-12T12:50:33.998Z</time></trkpt><trkpt lat="42.640765313770366" lon="12.100181316632046"><ele>486.0</ele><time>2026-04-12T12:50:34.998Z</time></trkpt><trkpt lat="42.64082673847891" lon="12.100363587711787"><ele>485.5</ele><time>2026-04-12T12:50:35.998Z</time></trkpt><trkpt lat="42.640871647764705" lon="12.10055299713907"><ele>485.0</ele><time>2026-04-12T12:50:36.998Z</time></trkpt><trkpt lat="42.64090788332922" lon="12.100741421488335"><ele>484.5</ele><time>2026-04-12T12:50:37.998Z</time></trkpt><trkpt lat="42.64094982589547" lon="12.100926406262408"><ele>484.0</ele><time>2026-04-12T12:50:38.998Z</time></trkpt><trkpt lat="42.64099829596811" lon="12.10110227417928"><ele>483.25</ele><time>2026-04-12T12:50:39.998Z</time></trkpt><trkpt lat="42.64104392513451" lon="12.101275470888993"><ele>482.5</ele><time>2026-04-12T12:50:40.998Z</time></trkpt><trkpt lat="42.64107685671935" lon="12.101453359946444"><ele>481.75</ele><time>2026-04-12T12:50:41.998Z</time></trkpt><trkpt lat="42.641102163913" lon="12.101636957550499"><ele>481.0</ele><time>2026-04-12T12:50:42.998Z</time></trkpt><trkpt lat="42.64113146820533" lon="12.101818423123223"><ele>480.0</ele><time>2026-04-12T12:50:43.998Z</time></trkpt><trkpt lat="42.641152732584914" lon="12.102001467924504"><ele>479.0</ele><time>2026-04-12T12:50:44.998Z</time></trkpt><trkpt lat="42.64116526020476" lon="12.102186970459222"><ele>478.0</ele><time>2026-04-12T12:50:45.998Z</time></trkpt><trkpt lat="42.64117496120415" lon="12.102375247696896"><ele>477.0</ele><time>2026-04-12T12:50:46.998Z</time></trkpt><trkpt lat="42.64118061104911" lon="12.102566946509466"><ele>476.25</ele><time>2026-04-12T12:50:47.998Z</time></trkpt><trkpt lat="42.64117941397096" lon="12.102761954786699"><ele>475.5</ele><time>2026-04-12T12:50:48.998Z</time></trkpt><trkpt lat="42.64117460728733" lon="12.102960009134737"><ele>474.75</ele><time>2026-04-12T12:50:49.998Z</time></trkpt><trkpt lat="42.641167805949884" lon="12.10316291899642"><ele>474.0</ele><time>2026-04-12T12:50:50.998Z</time></trkpt><trkpt lat="42.64115797382509" lon="12.103358537246699"><ele>473.66666666666663</ele><time>2026-04-12T12:50:51.998Z</time></trkpt><trkpt lat="42.64114707558347" lon="12.103553353311558"><ele>473.3333333333333</ele><time>2026-04-12T12:50:52.998Z</time></trkpt><trkpt lat="42.64113392521177" lon="12.103757900612917"><ele>473.0</ele><time>2026-04-12T12:50:53.998Z</time></trkpt><trkpt lat="42.641123792276886" lon="12.103981086614802"><ele>472.66666666666663</ele><time>2026-04-12T12:50:54.998Z</time></trkpt><trkpt lat="42.641113617314886" lon="12.10422771549457"><ele>472.33333333333337</ele><time>2026-04-12T12:50:55.998Z</time></trkpt><trkpt lat="42.641081491226245" lon="12.104483527930224"><ele>472.0</ele><time>2026-04-12T12:50:56.998Z</time></trkpt><trkpt lat="42.641064590353565" lon="12.104746563590574"><ele>472.0</ele><time>2026-04-12T12:50:57.998Z</time></trkpt><trkpt lat="42.64105376123037" lon="12.105018787763429"><ele>472.0</ele><time>2026-04-12T12:50:58.998Z</time></trkpt><trkpt lat="42.64105298392133" lon="12.105294013744937"><ele>472.0</ele><time>2026-04-12T12:50:59.998Z</time></trkpt><trkpt lat="42.641071096853416" lon="12.105580273374846"><ele>472.33333333333337</ele><time>2026-04-12T12:51:00.998Z</time></trkpt><trkpt lat="42.64111123793573" lon="12.105855927192527"><ele>472.66666666666663</ele><time>2026-04-12T12:51:01.998Z</time></trkpt><trkpt lat="42.64113962040423" lon="12.10612998403372"><ele>473.0</ele><time>2026-04-12T12:51:02.998Z</time></trkpt><trkpt lat="42.64118178331774" lon="12.106399797950731"><ele>471.66666666666663</ele><time>2026-04-12T12:51:03.998Z</time></trkpt><trkpt lat="42.64122611547225" lon="12.106662802138889"><ele>470.33333333333337</ele><time>2026-04-12T12:51:04.998Z</time></trkpt><trkpt lat="42.64126029341722" lon="12.106927266352512"><ele>469.0</ele><time>2026-04-12T12:51:05.998Z</time></trkpt><trkpt lat="42.641269630314106" lon="12.1071893052928"><ele>468.33333333333337</ele><time>2026-04-12T12:51:06.998Z</time></trkpt><trkpt lat="42.6412799739915" lon="12.10745875985641"><ele>467.66666666666663</ele><time>2026-04-12T12:51:07.998Z</time></trkpt><trkpt lat="42.641297479183244" lon="12.10772047638325"><ele>467.0</ele><time>2026-04-12T12:51:08.998Z</time></trkpt><trkpt lat="42.64131617208783" lon="12.107987338060136"><ele>466.66666666666663</ele><time>2026-04-12T12:51:09.998Z</time></trkpt><trkpt lat="42.64132463103481" lon="12.108251892111314"><ele>466.33333333333337</ele><time>2026-04-12T12:51:10.998Z</time></trkpt><trkpt lat="42.641338658768376" lon="12.108511216263812"><ele>466.0</ele><time>2026-04-12T12:51:11.998Z</time></trkpt><trkpt lat="42.64135542836741" lon="12.108766488237528"><ele>466.0</ele><time>2026-04-12T12:51:12.998Z</time></trkpt><trkpt lat="42.641363057254516" lon="12.109009750976803"><ele>466.0</ele><time>2026-04-12T12:51:13.998Z</time></trkpt><trkpt lat="42.64137309864246" lon="12.109248107166184"><ele>466.0</ele><time>2026-04-12T12:51:14.998Z</time></trkpt><trkpt lat="42.64138793159864" lon="12.109474540259693"><ele>465.33333333333337</ele><time>2026-04-12T12:51:15.998Z</time></trkpt><trkpt lat="42.64140368580345" lon="12.109707138993805"><ele>464.66666666666663</ele><time>2026-04-12T12:51:16.998Z</time></trkpt><trkpt lat="42.64141399067253" lon="12.10995036652507"><ele>464.0</ele><time>2026-04-12T12:51:17.998Z</time></trkpt><trkpt lat="42.64142075847475" lon="12.110194788563422"><ele>464.0</ele><time>2026-04-12T12:51:18.998Z</time></trkpt><trkpt lat="42.64142498313164" lon="12.110444573020228"><ele>464.0</ele><time>2026-04-12T12:51:19.998Z</time></trkpt><trkpt lat="42.641441611456266" lon="12.11069976013422"><ele>464.0</ele><time>2026-04-12T12:51:20.998Z</time></trkpt><trkpt lat="42.64145594688517" lon="12.110942175828269"><ele>462.66666666666663</ele><time>2026-04-12T12:51:21.998Z</time></trkpt><trkpt lat="42.64146531116327" lon="12.111180584906169"><ele>461.33333333333337</ele><time>2026-04-12T12:51:22.998Z</time></trkpt><trkpt lat="42.64147541966083" lon="12.111422876950668"><ele>460.0</ele><time>2026-04-12T12:51:23.998Z</time></trkpt><trkpt lat="42.64148701283462" lon="12.111658975849554"><ele>459.33333333333337</ele><time>2026-04-12T12:51:24.998Z</time></trkpt><trkpt lat="42.641494214788736" lon="12.111882656238878"><ele>458.66666666666663</ele><time>2026-04-12T12:51:25.998Z</time></trkpt><trkpt lat="42.641502219635015" lon="12.112100128931893"><ele>458.0</ele><time>2026-04-12T12:51:26.998Z</time></trkpt><trkpt lat="42.64151767453061" lon="12.112312557463518"><ele>457.66666666666663</ele><time>2026-04-12T12:51:27.998Z</time></trkpt><trkpt lat="42.64154817673466" lon="12.112521880479806"><ele>457.33333333333337</ele><time>2026-04-12T12:51:28.998Z</time></trkpt><trkpt lat="42.641590417264" lon="12.11272031738658"><ele>457.0</ele><time>2026-04-12T12:51:29.998Z</time></trkpt><trkpt lat="42.641650769713124" lon="12.112914260002448"><ele>457.0</ele><time>2026-04-12T12:51:30.998Z</time></trkpt><trkpt lat="42.64172125990476" lon="12.113099246950695"><ele>457.0</ele><time>2026-04-12T12:51:31.998Z</time></trkpt><trkpt lat="42.641796895812035" lon="12.11328109279105"><ele>457.0</ele><time>2026-04-12T12:51:32.998Z</time></trkpt><trkpt lat="42.64186033691449" lon="12.11347662215234"><ele>456.6666666666667</ele><time>2026-04-12T12:51:33.998Z</time></trkpt><trkpt lat="42.64190556835652" lon="12.113685844435231"><ele>456.33333333333337</ele><time>2026-04-12T12:51:34.998Z</time></trkpt><trkpt lat="42.64195161192728" lon="12.113899677370588"><ele>456.0</ele><time>2026-04-12T12:51:35.998Z</time></trkpt><trkpt lat="42.64198440409322" lon="12.114112231479345"><ele>455.75</ele><time>2026-04-12T12:51:36.998Z</time></trkpt><trkpt lat="42.64199498417762" lon="12.114319598448235"><ele>455.5</ele><time>2026-04-12T12:51:37.998Z</time></trkpt><trkpt lat="42.64197597724922" lon="12.114512304490075"><ele>455.25</ele><time>2026-04-12T12:51:38.998Z</time></trkpt><trkpt lat="42.64192947925798" lon="12.114697689647272"><ele>455.0</ele><time>2026-04-12T12:51:39.998Z</time></trkpt><trkpt lat="42.641865168576786" lon="12.11486289104469"><ele>454.3333333333333</ele><time>2026-04-12T12:51:40.998Z</time></trkpt><trkpt lat="42.64179517301464" lon="12.115037450641903"><ele>453.66666666666663</ele><time>2026-04-12T12:51:41.998Z</time></trkpt><trkpt lat="42.6417283040984" lon="12.115226279329589"><ele>453.0</ele><time>2026-04-12T12:51:42.998Z</time></trkpt><trkpt lat="42.641660256443906" lon="12.115425777114725"><ele>453.0</ele><time>2026-04-12T12:51:43.998Z</time></trkpt><trkpt lat="42.64160323080714" lon="12.115636590308798"><ele>453.0</ele><time>2026-04-12T12:51:44.998Z</time></trkpt><trkpt lat="42.641565735503065" lon="12.115855471936483"><ele>453.0</ele><time>2026-04-12T12:51:45.998Z</time></trkpt><trkpt lat="42.64153938682039" lon="12.116069161400668"><ele>452.0</ele><time>2026-04-12T12:51:46.998Z</time></trkpt><trkpt lat="42.64151311918723" lon="12.116277856034793"><ele>451.0</ele><time>2026-04-12T12:51:47.998Z</time></trkpt><trkpt lat="42.64147805512926" lon="12.116483333136983"><ele>450.0</ele><time>2026-04-12T12:51:48.998Z</time></trkpt><trkpt lat="42.641433279438075" lon="12.116669163570611"><ele>449.5</ele><time>2026-04-12T12:51:49.998Z</time></trkpt><trkpt lat="42.641381331925594" lon="12.116847010693455"><ele>449.0</ele><time>2026-04-12T12:51:50.998Z</time></trkpt><trkpt lat="42.6413207821113" lon="12.11701879009013"><ele>448.5</ele><time>2026-04-12T12:51:51.998Z</time></trkpt><trkpt lat="42.64125886167364" lon="12.117175041088649"><ele>448.0</ele><time>2026-04-12T12:51:52.998Z</time></trkpt><trkpt lat="42.64119866727516" lon="12.117297362262713"><ele>448.0</ele><time>2026-04-12T12:51:53.998Z</time></trkpt><trkpt lat="42.64114531046644" lon="12.117390510799302"><ele>447.99999999999994</ele><time>2026-04-12T12:51:54.998Z</time></trkpt><trkpt lat="42.64109797439347" lon="12.117461381351612"><ele>447.99999999999994</ele><time>2026-04-12T12:51:55.998Z</time></trkpt><trkpt lat="42.64103134596821" lon="12.117576186315045"><ele>448.0</ele><time>2026-04-12T12:51:57.998Z</time></trkpt><trkpt lat="42.640979034396196" lon="12.117676803977762"><ele>448.0</ele><time>2026-04-12T12:52:01.998Z</time></trkpt><trkpt lat="42.64101553221022" lon="12.117826885024835"><ele>447.75</ele><time>2026-04-12T12:52:02.998Z</time></trkpt><trkpt lat="42.64105945118489" lon="12.117939068659009"><ele>447.5</ele><time>2026-04-12T12:52:03.998Z</time></trkpt><trkpt lat="42.64112038504495" lon="12.118073533066475"><ele>447.25</ele><time>2026-04-12T12:52:04.998Z</time></trkpt><trkpt lat="42.641178137031034" lon="12.118248263879138"><ele>447.0</ele><time>2026-04-12T12:52:05.998Z</time></trkpt><trkpt lat="42.64125207699006" lon="12.118441667237034"><ele>446.0</ele><time>2026-04-12T12:52:06.998Z</time></trkpt><trkpt lat="42.641335165569195" lon="12.118655423453598"><ele>445.0</ele><time>2026-04-12T12:52:07.998Z</time></trkpt><trkpt lat="42.64142034982195" lon="12.118886062839747"><ele>444.0</ele><time>2026-04-12T12:52:08.998Z</time></trkpt><trkpt lat="42.641513983772725" lon="12.119124062561358"><ele>443.66666666666663</ele><time>2026-04-12T12:52:09.998Z</time></trkpt><trkpt lat="42.641583330368775" lon="12.119362579936972"><ele>443.3333333333333</ele><time>2026-04-12T12:52:10.998Z</time></trkpt><trkpt lat="42.64167367853807" lon="12.119610369951532"><ele>443.0</ele><time>2026-04-12T12:52:11.998Z</time></trkpt><trkpt lat="42.641760850507545" lon="12.119851272108631"><ele>442.66666666666663</ele><time>2026-04-12T12:52:12.998Z</time></trkpt><trkpt lat="42.641841748915375" lon="12.120079811695236"><ele>442.33333333333337</ele><time>2026-04-12T12:52:13.998Z</time></trkpt><trkpt lat="42.64191682426589" lon="12.120299479541789"><ele>442.0</ele><time>2026-04-12T12:52:14.998Z</time></trkpt><trkpt lat="42.641982661474884" lon="12.120523137119317"><ele>440.33333333333337</ele><time>2026-04-12T12:52:15.998Z</time></trkpt><trkpt lat="42.64203372347194" lon="12.12075734969052"><ele>438.66666666666663</ele><time>2026-04-12T12:52:16.998Z</time></trkpt><trkpt lat="42.64207173056142" lon="12.121012533048026"><ele>437.0</ele><time>2026-04-12T12:52:17.998Z</time></trkpt><trkpt lat="42.642094921717785" lon="12.12127390481112"><ele>437.0</ele><time>2026-04-12T12:52:18.998Z</time></trkpt><trkpt lat="42.642113943811566" lon="12.121546642336567"><ele>437.0</ele><time>2026-04-12T12:52:19.998Z</time></trkpt><trkpt lat="42.64213269499067" lon="12.121826132986289"><ele>437.0</ele><time>2026-04-12T12:52:20.998Z</time></trkpt><trkpt lat="42.64214889479688" lon="12.12209815805461"><ele>437.0</ele><time>2026-04-12T12:52:21.998Z</time></trkpt><trkpt lat="42.64216477613042" lon="12.122364859478395"><ele>437.0</ele><time>2026-04-12T12:52:22.998Z</time></trkpt><trkpt lat="42.64218080516117" lon="12.122634041232887"><ele>437.0</ele><time>2026-04-12T12:52:23.998Z</time></trkpt><trkpt lat="42.642197830046314" lon="12.122909543423027"><ele>436.66666666666663</ele><time>2026-04-12T12:52:24.998Z</time></trkpt><trkpt lat="42.64221547775588" lon="12.123194932146369"><ele>436.33333333333337</ele><time>2026-04-12T12:52:25.998Z</time></trkpt><trkpt lat="42.64223304550043" lon="12.12347902770195"><ele>436.0</ele><time>2026-04-12T12:52:26.998Z</time></trkpt><trkpt lat="42.64225032610143" lon="12.123758479767147"><ele>435.0</ele><time>2026-04-12T12:52:27.998Z</time></trkpt><trkpt lat="42.6422671153032" lon="12.1240227829204"><ele>434.0</ele><time>2026-04-12T12:52:28.998Z</time></trkpt><trkpt lat="42.64229557499853" lon="12.124297070294766"><ele>433.0</ele><time>2026-04-12T12:52:29.998Z</time></trkpt><trkpt lat="42.64231258815634" lon="12.12456672746"><ele>432.0</ele><time>2026-04-12T12:52:30.998Z</time></trkpt><trkpt lat="42.64232436191079" lon="12.124834422044483"><ele>431.0</ele><time>2026-04-12T12:52:31.998Z</time></trkpt><trkpt lat="42.642334063986844" lon="12.125069049385548"><ele>430.0</ele><time>2026-04-12T12:52:32.998Z</time></trkpt><trkpt lat="42.64236237818658" lon="12.125305595256014"><ele>429.0</ele><time>2026-04-12T12:52:33.998Z</time></trkpt><trkpt lat="42.64242976031207" lon="12.125558360522332"><ele>428.0</ele><time>2026-04-12T12:52:34.998Z</time></trkpt><trkpt lat="42.64251892609488" lon="12.125763766867081"><ele>427.0</ele><time>2026-04-12T12:52:35.998Z</time></trkpt><trkpt lat="42.64262753407806" lon="12.125959688413339"><ele>426.33333333333337</ele><time>2026-04-12T12:52:36.998Z</time></trkpt><trkpt lat="42.64273657713474" lon="12.126162733579347"><ele>425.66666666666663</ele><time>2026-04-12T12:52:37.998Z</time></trkpt><trkpt lat="42.64284054556899" lon="12.126376772890017"><ele>425.0</ele><time>2026-04-12T12:52:38.998Z</time></trkpt><trkpt lat="42.64295536137631" lon="12.126599106701066"><ele>424.0</ele><time>2026-04-12T12:52:39.998Z</time></trkpt><trkpt lat="42.6430672692784" lon="12.126824360960514"><ele>423.0</ele><time>2026-04-12T12:52:40.998Z</time></trkpt><trkpt lat="42.64318375499952" lon="12.127053242951128"><ele>422.0</ele><time>2026-04-12T12:52:41.998Z</time></trkpt><trkpt lat="42.64330088329887" lon="12.127282832878157"><ele>421.3333333333333</ele><time>2026-04-12T12:52:42.998Z</time></trkpt><trkpt lat="42.64341320497517" lon="12.1275067154963"><ele>420.66666666666663</ele><time>2026-04-12T12:52:43.998Z</time></trkpt><trkpt lat="42.64352303411841" lon="12.127725669550939"><ele>420.0</ele><time>2026-04-12T12:52:44.998Z</time></trkpt><trkpt lat="42.64362864969122" lon="12.127931919013047"><ele>419.66666666666663</ele><time>2026-04-12T12:52:45.998Z</time></trkpt><trkpt lat="42.6437381098597" lon="12.12812791469813"><ele>419.3333333333333</ele><time>2026-04-12T12:52:46.998Z</time></trkpt><trkpt lat="42.643846736526925" lon="12.128330918242687"><ele>419.0</ele><time>2026-04-12T12:52:47.998Z</time></trkpt><trkpt lat="42.64395750742008" lon="12.128533693303536"><ele>419.0</ele><time>2026-04-12T12:52:48.998Z</time></trkpt><trkpt lat="42.644071970716894" lon="12.128738590469785"><ele>419.0</ele><time>2026-04-12T12:52:49.998Z</time></trkpt><trkpt lat="42.644181649663054" lon="12.128934422493344"><ele>419.0</ele><time>2026-04-12T12:52:50.998Z</time></trkpt><trkpt lat="42.644285428436156" lon="12.129121850402383"><ele>418.3333333333333</ele><time>2026-04-12T12:52:51.998Z</time></trkpt><trkpt lat="42.64438546676657" lon="12.129306269479807"><ele>417.66666666666663</ele><time>2026-04-12T12:52:52.998Z</time></trkpt><trkpt lat="42.64448308694204" lon="12.129482147660344"><ele>417.0</ele><time>2026-04-12T12:52:53.998Z</time></trkpt><trkpt lat="42.64458164845389" lon="12.129652006786992"><ele>416.0</ele><time>2026-04-12T12:52:54.998Z</time></trkpt><trkpt lat="42.64468154201238" lon="12.129801871147563"><ele>415.0</ele><time>2026-04-12T12:52:55.998Z</time></trkpt><trkpt lat="42.6447626598854" lon="12.129949516042387"><ele>414.0</ele><time>2026-04-12T12:52:56.998Z</time></trkpt><trkpt lat="42.64485679989059" lon="12.130090910507993"><ele>413.0</ele><time>2026-04-12T12:52:57.998Z</time></trkpt><trkpt lat="42.64496145283078" lon="12.130218087103849"><ele>413.0</ele><time>2026-04-12T12:52:58.998Z</time></trkpt><trkpt lat="42.6450533112429" lon="12.1303795129406"><ele>413.0</ele><time>2026-04-12T12:52:59.998Z</time></trkpt><trkpt lat="42.64516121200971" lon="12.130547042036497"><ele>413.0</ele><time>2026-04-12T12:53:00.998Z</time></trkpt><trkpt lat="42.645273653462986" lon="12.130709987901424"><ele>411.66666666666663</ele><time>2026-04-12T12:53:01.998Z</time></trkpt><trkpt lat="42.645390389508385" lon="12.13087746674501"><ele>410.33333333333337</ele><time>2026-04-12T12:53:02.998Z</time></trkpt><trkpt lat="42.64551236000182" lon="12.131040131476182"><ele>409.0</ele><time>2026-04-12T12:53:03.998Z</time></trkpt><trkpt lat="42.645628387243704" lon="12.131215337978361"><ele>409.0</ele><time>2026-04-12T12:53:04.998Z</time></trkpt><trkpt lat="42.645741079134275" lon="12.131394469599801"><ele>409.0</ele><time>2026-04-12T12:53:05.998Z</time></trkpt><trkpt lat="42.64585746516381" lon="12.13157398287827"><ele>409.0</ele><time>2026-04-12T12:53:06.998Z</time></trkpt><trkpt lat="42.64597923108866" lon="12.131747990300815"><ele>408.6666666666667</ele><time>2026-04-12T12:53:07.998Z</time></trkpt><trkpt lat="42.64609996021733" lon="12.131922402459379"><ele>408.33333333333337</ele><time>2026-04-12T12:53:08.998Z</time></trkpt><trkpt lat="42.64622118931135" lon="12.132100646478062"><ele>408.0</ele><time>2026-04-12T12:53:09.998Z</time></trkpt><trkpt lat="42.64634041119325" lon="12.132279781210634"><ele>406.33333333333337</ele><time>2026-04-12T12:53:10.998Z</time></trkpt><trkpt lat="42.64645829999276" lon="12.132457474985587"><ele>404.6666666666667</ele><time>2026-04-12T12:53:11.998Z</time></trkpt><trkpt lat="42.64657946834254" lon="12.132633699188547"><ele>403.0</ele><time>2026-04-12T12:53:12.998Z</time></trkpt><trkpt lat="42.646700947567155" lon="12.132808288401485"><ele>403.0</ele><time>2026-04-12T12:53:13.998Z</time></trkpt><trkpt lat="42.64682625617177" lon="12.132973264622896"><ele>403.0</ele><time>2026-04-12T12:53:14.998Z</time></trkpt><trkpt lat="42.64695302173609" lon="12.13314364171407"><ele>403.0</ele><time>2026-04-12T12:53:15.998Z</time></trkpt><trkpt lat="42.64707793478897" lon="12.133314519347984"><ele>402.0</ele><time>2026-04-12T12:53:16.998Z</time></trkpt><trkpt lat="42.647198902526746" lon="12.133488779298396"><ele>401.0</ele><time>2026-04-12T12:53:17.998Z</time></trkpt><trkpt lat="42.647321114795325" lon="12.133666663531848"><ele>400.0</ele><time>2026-04-12T12:53:18.998Z</time></trkpt><trkpt lat="42.647447907967006" lon="12.133844216348674"><ele>400.0</ele><time>2026-04-12T12:53:19.998Z</time></trkpt><trkpt lat="42.64757790562913" lon="12.134022560695845"><ele>400.0</ele><time>2026-04-12T12:53:20.998Z</time></trkpt><trkpt lat="42.64770812527249" lon="12.134197872370109"><ele>400.0</ele><time>2026-04-12T12:53:21.998Z</time></trkpt><trkpt lat="42.64783380878719" lon="12.134368470382391"><ele>399.6666666666667</ele><time>2026-04-12T12:53:22.998Z</time></trkpt><trkpt lat="42.64795223627942" lon="12.134533570581432"><ele>399.33333333333337</ele><time>2026-04-12T12:53:23.998Z</time></trkpt><trkpt lat="42.648067886410985" lon="12.13469351163391"><ele>399.0</ele><time>2026-04-12T12:53:24.998Z</time></trkpt><trkpt lat="42.64818249044172" lon="12.134854449292638"><ele>399.33333333333337</ele><time>2026-04-12T12:53:25.998Z</time></trkpt><trkpt lat="42.64829263804276" lon="12.135008654475081"><ele>399.6666666666667</ele><time>2026-04-12T12:53:26.998Z</time></trkpt><trkpt lat="42.648416529941734" lon="12.135129594505777"><ele>400.0</ele><time>2026-04-12T12:53:27.998Z</time></trkpt><trkpt lat="42.64855233579225" lon="12.135220961764553"><ele>399.25</ele><time>2026-04-12T12:53:28.998Z</time></trkpt><trkpt lat="42.64869776047796" lon="12.135270134649902"><ele>398.5</ele><time>2026-04-12T12:53:29.998Z</time></trkpt><trkpt lat="42.64884079515266" lon="12.135303384609067"><ele>397.75</ele><time>2026-04-12T12:53:30.998Z</time></trkpt><trkpt lat="42.64897173605813" lon="12.135356549934551"><ele>397.0</ele><time>2026-04-12T12:53:31.998Z</time></trkpt><trkpt lat="42.649098752248165" lon="12.135463382463202"><ele>397.0</ele><time>2026-04-12T12:53:32.998Z</time></trkpt><trkpt lat="42.64921174223589" lon="12.135618194107133"><ele>397.0</ele><time>2026-04-12T12:53:33.998Z</time></trkpt><trkpt lat="42.64930860797366" lon="12.135801906391873"><ele>397.0</ele><time>2026-04-12T12:53:34.998Z</time></trkpt><trkpt lat="42.64941659311341" lon="12.13597967635634"><ele>397.0</ele><time>2026-04-12T12:53:35.998Z</time></trkpt><trkpt lat="42.64952609354468" lon="12.136157027700333"><ele>397.0</ele><time>2026-04-12T12:53:36.998Z</time></trkpt><trkpt lat="42.64963374463199" lon="12.13634795480088"><ele>397.0</ele><time>2026-04-12T12:53:37.998Z</time></trkpt><trkpt lat="42.64975049875758" lon="12.136546376770522"><ele>395.6666666666667</ele><time>2026-04-12T12:53:38.998Z</time></trkpt><trkpt lat="42.649868285329845" lon="12.136745640002383"><ele>394.33333333333337</ele><time>2026-04-12T12:53:39.998Z</time></trkpt><trkpt lat="42.649984361919124" lon="12.136947147046099"><ele>393.0</ele><time>2026-04-12T12:53:40.998Z</time></trkpt><trkpt lat="42.650099209908554" lon="12.137150268350931"><ele>393.0</ele><time>2026-04-12T12:53:41.998Z</time></trkpt><trkpt lat="42.65021208799921" lon="12.137355419619198"><ele>393.0</ele><time>2026-04-12T12:53:42.998Z</time></trkpt><trkpt lat="42.65032767676328" lon="12.137556473744603"><ele>393.0</ele><time>2026-04-12T12:53:43.998Z</time></trkpt><trkpt lat="42.65044708795756" lon="12.137759827731827"><ele>393.0</ele><time>2026-04-12T12:53:44.998Z</time></trkpt><trkpt lat="42.650565054674395" lon="12.137968049610071"><ele>393.0</ele><time>2026-04-12T12:53:45.998Z</time></trkpt><trkpt lat="42.6506799883971" lon="12.138166574142168"><ele>393.0</ele><time>2026-04-12T12:53:46.998Z</time></trkpt><trkpt lat="42.65079993193614" lon="12.1383826090963"><ele>393.0</ele><time>2026-04-12T12:53:47.998Z</time></trkpt><trkpt lat="42.65091507275757" lon="12.138582763234101"><ele>393.0</ele><time>2026-04-12T12:53:48.998Z</time></trkpt><trkpt lat="42.65102448647959" lon="12.13878904265493"><ele>393.0</ele><time>2026-04-12T12:53:49.998Z</time></trkpt><trkpt lat="42.6511376793495" lon="12.139003884916093"><ele>393.0</ele><time>2026-04-12T12:53:50.998Z</time></trkpt><trkpt lat="42.65126168386822" lon="12.139203108973499"><ele>393.0</ele><time>2026-04-12T12:53:51.998Z</time></trkpt><trkpt lat="42.65138155201453" lon="12.139403231446202"><ele>393.0</ele><time>2026-04-12T12:53:52.998Z</time></trkpt><trkpt lat="42.651501234329174" lon="12.139592498415805"><ele>393.0</ele><time>2026-04-12T12:53:53.998Z</time></trkpt><trkpt lat="42.65160562693854" lon="12.139803064874899"><ele>393.0</ele><time>2026-04-12T12:53:54.998Z</time></trkpt><trkpt lat="42.65172727600022" lon="12.14000332346547"><ele>393.0</ele><time>2026-04-12T12:53:55.998Z</time></trkpt><trkpt lat="42.65186594009548" lon="12.140195058244483"><ele>392.0</ele><time>2026-04-12T12:53:56.998Z</time></trkpt><trkpt lat="42.65200721446397" lon="12.140376528190595"><ele>391.0</ele><time>2026-04-12T12:53:57.998Z</time></trkpt><trkpt lat="42.65216536509122" lon="12.140544281401409"><ele>390.0</ele><time>2026-04-12T12:53:58.998Z</time></trkpt><trkpt lat="42.652326064993645" lon="12.140719179412152"><ele>389.33333333333337</ele><time>2026-04-12T12:53:59.998Z</time></trkpt><trkpt lat="42.652483042940794" lon="12.140889659571544"><ele>388.6666666666667</ele><time>2026-04-12T12:54:00.998Z</time></trkpt><trkpt lat="42.65264514858162" lon="12.141055580571548"><ele>388.0</ele><time>2026-04-12T12:54:01.998Z</time></trkpt><trkpt lat="42.652790875499946" lon="12.141248193087836"><ele>387.33333333333337</ele><time>2026-04-12T12:54:02.998Z</time></trkpt><trkpt lat="42.65295242853639" lon="12.141409983555658"><ele>386.66666666666663</ele><time>2026-04-12T12:54:03.998Z</time></trkpt><trkpt lat="42.65310788065138" lon="12.141582634175675"><ele>386.0</ele><time>2026-04-12T12:54:04.998Z</time></trkpt><trkpt lat="42.653250917788455" lon="12.141764834618115"><ele>386.0</ele><time>2026-04-12T12:54:05.998Z</time></trkpt><trkpt lat="42.653402403933754" lon="12.141934948834365"><ele>386.0</ele><time>2026-04-12T12:54:06.998Z</time></trkpt><trkpt lat="42.65355393113716" lon="12.142105108996667"><ele>386.0</ele><time>2026-04-12T12:54:07.998Z</time></trkpt><trkpt lat="42.653703995798224" lon="12.14227382290846"><ele>385.66666666666663</ele><time>2026-04-12T12:54:08.998Z</time></trkpt><trkpt lat="42.6538574848653" lon="12.142450284033698"><ele>385.33333333333337</ele><time>2026-04-12T12:54:09.998Z</time></trkpt><trkpt lat="42.65401182256871" lon="12.142623584727266"><ele>385.0</ele><time>2026-04-12T12:54:10.998Z</time></trkpt><trkpt lat="42.65416689077604" lon="12.142802766033917"><ele>385.0</ele><time>2026-04-12T12:54:11.998Z</time></trkpt><trkpt lat="42.65432347295288" lon="12.14297770517856"><ele>385.0</ele><time>2026-04-12T12:54:12.998Z</time></trkpt><trkpt lat="42.65448222656693" lon="12.14314654664192"><ele>385.0</ele><time>2026-04-12T12:54:13.998Z</time></trkpt><trkpt lat="42.65464331850812" lon="12.143318947857118"><ele>384.33333333333337</ele><time>2026-04-12T12:54:14.998Z</time></trkpt><trkpt lat="42.6548012912077" lon="12.143492466925473"><ele>383.6666666666667</ele><time>2026-04-12T12:54:15.998Z</time></trkpt><trkpt lat="42.65495775059612" lon="12.143665901283454"><ele>383.0</ele><time>2026-04-12T12:54:16.998Z</time></trkpt><trkpt lat="42.655114200634166" lon="12.143847075068221"><ele>383.0</ele><time>2026-04-12T12:54:17.998Z</time></trkpt><trkpt lat="42.655270861676186" lon="12.144018770746786"><ele>383.0</ele><time>2026-04-12T12:54:18.998Z</time></trkpt><trkpt lat="42.65542250505096" lon="12.144185720502334"><ele>383.0</ele><time>2026-04-12T12:54:19.998Z</time></trkpt><trkpt lat="42.65557093280695" lon="12.144349629446396"><ele>382.0</ele><time>2026-04-12T12:54:20.998Z</time></trkpt><trkpt lat="42.65572274388408" lon="12.14452177124798"><ele>381.0</ele><time>2026-04-12T12:54:21.998Z</time></trkpt><trkpt lat="42.655874735175566" lon="12.144693671150312"><ele>380.0</ele><time>2026-04-12T12:54:22.998Z</time></trkpt><trkpt lat="42.656027770866835" lon="12.14486569878924"><ele>379.6666666666667</ele><time>2026-04-12T12:54:23.998Z</time></trkpt><trkpt lat="42.65617422153188" lon="12.145033207869595"><ele>379.3333333333333</ele><time>2026-04-12T12:54:24.998Z</time></trkpt><trkpt lat="42.656315540091406" lon="12.145192664144894"><ele>379.0</ele><time>2026-04-12T12:54:25.998Z</time></trkpt><trkpt lat="42.656448979057224" lon="12.145342650131598"><ele>379.0</ele><time>2026-04-12T12:54:26.998Z</time></trkpt><trkpt lat="42.65657350439199" lon="12.145494413642203"><ele>379.0</ele><time>2026-04-12T12:54:27.998Z</time></trkpt><trkpt lat="42.65668867684982" lon="12.145670309937241"><ele>379.0</ele><time>2026-04-12T12:54:28.998Z</time></trkpt><trkpt lat="42.65678702223654" lon="12.145867195126705"><ele>379.0</ele><time>2026-04-12T12:54:29.998Z</time></trkpt><trkpt lat="42.6568694111587" lon="12.146072363562798"><ele>379.0</ele><time>2026-04-12T12:54:30.998Z</time></trkpt><trkpt lat="42.65695945787177" lon="12.146280824509967"><ele>379.0</ele><time>2026-04-12T12:54:31.998Z</time></trkpt><trkpt lat="42.657051356249504" lon="12.146493970915325"><ele>378.3333333333333</ele><time>2026-04-12T12:54:32.998Z</time></trkpt><trkpt lat="42.65714488950981" lon="12.146703885230867"><ele>377.6666666666667</ele><time>2026-04-12T12:54:33.998Z</time></trkpt><trkpt lat="42.6572357146953" lon="12.146911644497298"><ele>377.0</ele><time>2026-04-12T12:54:34.998Z</time></trkpt><trkpt lat="42.65733282708579" lon="12.147114000467795"><ele>377.0</ele><time>2026-04-12T12:54:35.998Z</time></trkpt><trkpt lat="42.65743939851683" lon="12.147309181410868"><ele>377.0</ele><time>2026-04-12T12:54:36.998Z</time></trkpt><trkpt lat="42.65755424504756" lon="12.147491335915328"><ele>377.0</ele><time>2026-04-12T12:54:37.998Z</time></trkpt><trkpt lat="42.65766972750681" lon="12.147666584463055"><ele>376.6666666666667</ele><time>2026-04-12T12:54:38.998Z</time></trkpt><trkpt lat="42.657779820267955" lon="12.147834904272559"><ele>376.3333333333333</ele><time>2026-04-12T12:54:39.998Z</time></trkpt><trkpt lat="42.657894267763325" lon="12.14799571357896"><ele>376.0</ele><time>2026-04-12T12:54:40.998Z</time></trkpt><trkpt lat="42.65801739279833" lon="12.148148203935257"><ele>375.0</ele><time>2026-04-12T12:54:41.998Z</time></trkpt><trkpt lat="42.65815342892971" lon="12.148288041118201"><ele>374.0</ele><time>2026-04-12T12:54:42.998Z</time></trkpt><trkpt lat="42.6582946625149" lon="12.148415226868943"><ele>373.0</ele><time>2026-04-12T12:54:43.998Z</time></trkpt><trkpt lat="42.65844397009985" lon="12.148542841265783"><ele>373.0</ele><time>2026-04-12T12:54:44.998Z</time></trkpt><trkpt lat="42.658594778854614" lon="12.148680169861446"><ele>373.0</ele><time>2026-04-12T12:54:45.998Z</time></trkpt><trkpt lat="42.658746244694015" lon="12.148815469338773"><ele>373.0</ele><time>2026-04-12T12:54:46.998Z</time></trkpt><trkpt lat="42.65890280109593" lon="12.148955842506693"><ele>371.66666666666663</ele><time>2026-04-12T12:54:47.998Z</time></trkpt><trkpt lat="42.65905620542243" lon="12.14910386061267"><ele>370.3333333333333</ele><time>2026-04-12T12:54:48.998Z</time></trkpt><trkpt lat="42.659216943410605" lon="12.149245996247023"><ele>369.0</ele><time>2026-04-12T12:54:49.998Z</time></trkpt><trkpt lat="42.65937613081593" lon="12.149387482594053"><ele>365.6666666666667</ele><time>2026-04-12T12:54:50.998Z</time></trkpt><trkpt lat="42.65953079040129" lon="12.14952524240334"><ele>362.33333333333337</ele><time>2026-04-12T12:54:51.998Z</time></trkpt><trkpt lat="42.659680291413515" lon="12.149658592745917"><ele>359.0</ele><time>2026-04-12T12:54:52.998Z</time></trkpt><trkpt lat="42.65982850509224" lon="12.149793940839455"><ele>362.0</ele><time>2026-04-12T12:54:53.998Z</time></trkpt><trkpt lat="42.659981124979005" lon="12.149929870128302"><ele>365.0</ele><time>2026-04-12T12:54:54.998Z</time></trkpt><trkpt lat="42.66012622799638" lon="12.150080946757488"><ele>368.0</ele><time>2026-04-12T12:54:55.998Z</time></trkpt><trkpt lat="42.6602813806748" lon="12.150222756123656"><ele>366.0</ele><time>2026-04-12T12:54:56.998Z</time></trkpt><trkpt lat="42.660436085101885" lon="12.150364154230619"><ele>364.0</ele><time>2026-04-12T12:54:57.998Z</time></trkpt><trkpt lat="42.660601174198064" lon="12.150488817454548"><ele>362.0</ele><time>2026-04-12T12:54:58.998Z</time></trkpt><trkpt lat="42.66075494582047" lon="12.150642788173789"><ele>363.0</ele><time>2026-04-12T12:54:59.998Z</time></trkpt><trkpt lat="42.66090829435519" lon="12.150791223328442"><ele>364.0</ele><time>2026-04-12T12:55:00.998Z</time></trkpt><trkpt lat="42.66105579150921" lon="12.150954724244546"><ele>365.0</ele><time>2026-04-12T12:55:01.998Z</time></trkpt><trkpt lat="42.66120466198829" lon="12.1511088965653"><ele>365.0</ele><time>2026-04-12T12:55:02.998Z</time></trkpt><trkpt lat="42.66134454610854" lon="12.15126616853313"><ele>365.0</ele><time>2026-04-12T12:55:03.998Z</time></trkpt><trkpt lat="42.661491016913125" lon="12.15142689725015"><ele>365.0</ele><time>2026-04-12T12:55:04.998Z</time></trkpt><trkpt lat="42.66163425629365" lon="12.151585725459947"><ele>365.0</ele><time>2026-04-12T12:55:05.998Z</time></trkpt><trkpt lat="42.661777143495364" lon="12.151741814143534"><ele>365.0</ele><time>2026-04-12T12:55:06.998Z</time></trkpt><trkpt lat="42.66191916831137" lon="12.15190093592388"><ele>365.0</ele><time>2026-04-12T12:55:07.998Z</time></trkpt><trkpt lat="42.66206332333092" lon="12.152061701535638"><ele>364.33333333333337</ele><time>2026-04-12T12:55:08.998Z</time></trkpt><trkpt lat="42.66220072549031" lon="12.15222806022198"><ele>363.6666666666667</ele><time>2026-04-12T12:55:09.998Z</time></trkpt><trkpt lat="42.66234240875026" lon="12.15238773566289"><ele>363.0</ele><time>2026-04-12T12:55:10.998Z</time></trkpt><trkpt lat="42.662484561415766" lon="12.15255031167509"><ele>363.0</ele><time>2026-04-12T12:55:11.998Z</time></trkpt><trkpt lat="42.66262830114956" lon="12.152710139254893"><ele>363.0</ele><time>2026-04-12T12:55:12.998Z</time></trkpt><trkpt lat="42.662770792572374" lon="12.15287270637462"><ele>363.0</ele><time>2026-04-12T12:55:13.998Z</time></trkpt><trkpt lat="42.662916061057565" lon="12.153034439261175"><ele>363.0</ele><time>2026-04-12T12:55:14.998Z</time></trkpt><trkpt lat="42.663067305400766" lon="12.153199504667807"><ele>363.0</ele><time>2026-04-12T12:55:16.022Z</time></trkpt><trkpt lat="42.66321284073488" lon="12.153360183777155"><ele>363.0</ele><time>2026-04-12T12:55:17.022Z</time></trkpt><trkpt lat="42.66335945739591" lon="12.153523681531361"><ele>362.6666666666667</ele><time>2026-04-12T12:55:18.022Z</time></trkpt><trkpt lat="42.663504464763186" lon="12.153689293661015"><ele>362.33333333333337</ele><time>2026-04-12T12:55:19.022Z</time></trkpt><trkpt lat="42.66365044890097" lon="12.15385159492961"><ele>362.0</ele><time>2026-04-12T12:55:20.022Z</time></trkpt><trkpt lat="42.663798373475004" lon="12.154014852830393"><ele>362.0</ele><time>2026-04-12T12:55:21.022Z</time></trkpt><trkpt lat="42.663949385599146" lon="12.154182605584367"><ele>362.0</ele><time>2026-04-12T12:55:22.022Z</time></trkpt><trkpt lat="42.66410088408543" lon="12.154350223634037"><ele>362.0</ele><time>2026-04-12T12:55:23.022Z</time></trkpt><trkpt lat="42.664254099713" lon="12.15451917498765"><ele>362.0</ele><time>2026-04-12T12:55:24.022Z</time></trkpt><trkpt lat="42.664408446136946" lon="12.154693960693686"><ele>362.0</ele><time>2026-04-12T12:55:25.022Z</time></trkpt><trkpt lat="42.664560733191514" lon="12.154864064309571"><ele>362.0</ele><time>2026-04-12T12:55:26.022Z</time></trkpt><trkpt lat="42.664715209432906" lon="12.155034158588096"><ele>360.6666666666667</ele><time>2026-04-12T12:55:27.022Z</time></trkpt><trkpt lat="42.66487029468035" lon="12.155205815550051"><ele>359.3333333333333</ele><time>2026-04-12T12:55:28.022Z</time></trkpt><trkpt lat="42.66502458760922" lon="12.155379889453526"><ele>358.0</ele><time>2026-04-12T12:55:29.022Z</time></trkpt><trkpt lat="42.66518141114646" lon="12.155550275304433"><ele>357.66666666666663</ele><time>2026-04-12T12:55:30.022Z</time></trkpt><trkpt lat="42.665335031184725" lon="12.155717716090221"><ele>357.3333333333333</ele><time>2026-04-12T12:55:31.022Z</time></trkpt><trkpt lat="42.66548568833386" lon="12.155885513188613"><ele>357.0</ele><time>2026-04-12T12:55:32.022Z</time></trkpt><trkpt lat="42.66563261720335" lon="12.156052859811817"><ele>357.0</ele><time>2026-04-12T12:55:33.022Z</time></trkpt><trkpt lat="42.66578260261503" lon="12.156211555498558"><ele>357.0</ele><time>2026-04-12T12:55:34.022Z</time></trkpt><trkpt lat="42.665930097834085" lon="12.156372221812239"><ele>357.0</ele><time>2026-04-12T12:55:35.022Z</time></trkpt><trkpt lat="42.66607838198115" lon="12.1565318716917"><ele>357.0</ele><time>2026-04-12T12:55:36.022Z</time></trkpt><trkpt lat="42.666227988941564" lon="12.156684895421597"><ele>357.0</ele><time>2026-04-12T12:55:37.022Z</time></trkpt><trkpt lat="42.666373800717786" lon="12.156846560944155"><ele>357.0</ele><time>2026-04-12T12:55:38.022Z</time></trkpt><trkpt lat="42.66652094285293" lon="12.157005193425817"><ele>357.0</ele><time>2026-04-12T12:55:39.022Z</time></trkpt><trkpt lat="42.66666782369538" lon="12.157166126539021"><ele>357.0</ele><time>2026-04-12T12:55:40.022Z</time></trkpt><trkpt lat="42.6668150205519" lon="12.157331857059424"><ele>357.0</ele><time>2026-04-12T12:55:41.022Z</time></trkpt><trkpt lat="42.6669612729128" lon="12.157501032628456"><ele>356.0</ele><time>2026-04-12T12:55:42.022Z</time></trkpt><trkpt lat="42.667106383454005" lon="12.157668080626614"><ele>355.0</ele><time>2026-04-12T12:55:43.022Z</time></trkpt><trkpt lat="42.66725736002092" lon="12.157836526860054"><ele>354.0</ele><time>2026-04-12T12:55:44.022Z</time></trkpt><trkpt lat="42.66740573864615" lon="12.158003466279702"><ele>354.0</ele><time>2026-04-12T12:55:45.022Z</time></trkpt><trkpt lat="42.66755562760038" lon="12.158170044765814"><ele>354.0</ele><time>2026-04-12T12:55:46.022Z</time></trkpt><trkpt lat="42.66770126798439" lon="12.158331209171887"><ele>354.0</ele><time>2026-04-12T12:55:47.022Z</time></trkpt><trkpt lat="42.667843395218966" lon="12.158487521089974"><ele>352.3333333333333</ele><time>2026-04-12T12:55:48.022Z</time></trkpt><trkpt lat="42.66798521859477" lon="12.158638218860602"><ele>350.66666666666663</ele><time>2026-04-12T12:55:49.022Z</time></trkpt><trkpt lat="42.668127113821946" lon="12.158782745583169"><ele>349.0</ele><time>2026-04-12T12:55:50.022Z</time></trkpt><trkpt lat="42.66826155470632" lon="12.158930695679006"><ele>348.25</ele><time>2026-04-12T12:55:51.022Z</time></trkpt><trkpt lat="42.668383714400676" lon="12.1590663109861"><ele>347.5</ele><time>2026-04-12T12:55:52.022Z</time></trkpt><trkpt lat="42.66848746306399" lon="12.159201501333444"><ele>346.75</ele><time>2026-04-12T12:55:53.022Z</time></trkpt><trkpt lat="42.668575766989335" lon="12.159334510854029"><ele>346.0</ele><time>2026-04-12T12:55:54.022Z</time></trkpt><trkpt lat="42.668622106905644" lon="12.159478692415867"><ele>346.0</ele><time>2026-04-12T12:55:55.022Z</time></trkpt><trkpt lat="42.66862143687565" lon="12.159625886651801"><ele>346.0</ele><time>2026-04-12T12:55:56.022Z</time></trkpt><trkpt lat="42.66860264288876" lon="12.159776031203505"><ele>346.0</ele><time>2026-04-12T12:55:57.022Z</time></trkpt><trkpt lat="42.66856139614928" lon="12.159918229753151"><ele>346.0</ele><time>2026-04-12T12:55:58.022Z</time></trkpt><trkpt lat="42.66850933527963" lon="12.160067082134033"><ele>345.0</ele><time>2026-04-12T12:55:59.022Z</time></trkpt><trkpt lat="42.66842691702873" lon="12.160212115243281"><ele>344.0</ele><time>2026-04-12T12:56:00.025Z</time></trkpt><trkpt lat="42.66835288840753" lon="12.160359284757133"><ele>343.0</ele><time>2026-04-12T12:56:01.025Z</time></trkpt><trkpt lat="42.66827778515304" lon="12.16051058242926"><ele>342.0</ele><time>2026-04-12T12:56:02.025Z</time></trkpt><trkpt lat="42.66821479391024" lon="12.160669223999012"><ele>339.25</ele><time>2026-04-12T12:56:03.025Z</time></trkpt><trkpt lat="42.66818348306696" lon="12.160837219120316"><ele>336.5</ele><time>2026-04-12T12:56:04.025Z</time></trkpt><trkpt lat="42.66819522003694" lon="12.161005638459518"><ele>333.75</ele><time>2026-04-12T12:56:05.025Z</time></trkpt><trkpt lat="42.6682467870537" lon="12.161161584002723"><ele>331.0</ele><time>2026-04-12T12:56:06.025Z</time></trkpt><trkpt lat="42.66832338482152" lon="12.161291714193846"><ele>331.0</ele><time>2026-04-12T12:56:07.024Z</time></trkpt><trkpt lat="42.668427670162124" lon="12.1613973919272"><ele>331.0</ele><time>2026-04-12T12:56:08.024Z</time></trkpt><trkpt lat="42.66854672268515" lon="12.161468458541412"><ele>331.0</ele><time>2026-04-12T12:56:09.025Z</time></trkpt><trkpt lat="42.66867364949565" lon="12.161528123071637"><ele>331.0</ele><time>2026-04-12T12:56:10.025Z</time></trkpt><trkpt lat="42.668795711710416" lon="12.161613625093088"><ele>329.75</ele><time>2026-04-12T12:56:11.025Z</time></trkpt><trkpt lat="42.66893054728193" lon="12.161692737667085"><ele>328.5</ele><time>2026-04-12T12:56:12.025Z</time></trkpt><trkpt lat="42.66906472525918" lon="12.16178779082719"><ele>327.25</ele><time>2026-04-12T12:56:13.025Z</time></trkpt><trkpt lat="42.66917934894147" lon="12.161907117710518"><ele>326.0</ele><time>2026-04-12T12:56:14.025Z</time></trkpt><trkpt lat="42.66928329138155" lon="12.162044116828579"><ele>326.0</ele><time>2026-04-12T12:56:15.025Z</time></trkpt><trkpt lat="42.669359879476325" lon="12.162192933793563"><ele>326.0</ele><time>2026-04-12T12:56:16.025Z</time></trkpt><trkpt lat="42.66941849091831" lon="12.16236642983126"><ele>326.0</ele><time>2026-04-12T12:56:17.025Z</time></trkpt><trkpt lat="42.669463491711085" lon="12.162562300064998"><ele>326.0</ele><time>2026-04-12T12:56:18.025Z</time></trkpt><trkpt lat="42.66950665864807" lon="12.162773043136394"><ele>324.33333333333337</ele><time>2026-04-12T12:56:19.025Z</time></trkpt><trkpt lat="42.66956007350525" lon="12.163002583843026"><ele>322.6666666666667</ele><time>2026-04-12T12:56:20.025Z</time></trkpt><trkpt lat="42.66960839481648" lon="12.163232418708503"><ele>321.0</ele><time>2026-04-12T12:56:21.025Z</time></trkpt><trkpt lat="42.6696535717361" lon="12.163472900920224"><ele>320.6666666666667</ele><time>2026-04-12T12:56:22.025Z</time></trkpt><trkpt lat="42.66970305637138" lon="12.163717289778088"><ele>320.33333333333337</ele><time>2026-04-12T12:56:23.025Z</time></trkpt><trkpt lat="42.669755223147114" lon="12.163961353966318"><ele>320.0</ele><time>2026-04-12T12:56:24.025Z</time></trkpt><trkpt lat="42.66980755584804" lon="12.16419349252368"><ele>318.6666666666667</ele><time>2026-04-12T12:56:25.025Z</time></trkpt><trkpt lat="42.66985976014389" lon="12.16442410802102"><ele>317.3333333333333</ele><time>2026-04-12T12:56:26.025Z</time></trkpt><trkpt lat="42.669907585547506" lon="12.164655226780456"><ele>316.0</ele><time>2026-04-12T12:56:27.025Z</time></trkpt><trkpt lat="42.669948614555516" lon="12.16489448911841"><ele>314.66666666666663</ele><time>2026-04-12T12:56:28.025Z</time></trkpt><trkpt lat="42.66997755044655" lon="12.16513503597309"><ele>313.3333333333333</ele><time>2026-04-12T12:56:29.025Z</time></trkpt><trkpt lat="42.67000171289734" lon="12.165379515441176"><ele>312.0</ele><time>2026-04-12T12:56:30.025Z</time></trkpt><trkpt lat="42.670023190012316" lon="12.165628811401943"><ele>311.3333333333333</ele><time>2026-04-12T12:56:31.025Z</time></trkpt><trkpt lat="42.67004481853455" lon="12.165882569970147"><ele>310.66666666666663</ele><time>2026-04-12T12:56:32.025Z</time></trkpt><trkpt lat="42.67007292648896" lon="12.16613492844726"><ele>310.0</ele><time>2026-04-12T12:56:33.025Z</time></trkpt><trkpt lat="42.6701072612125" lon="12.166365879696402"><ele>309.66666666666663</ele><time>2026-04-12T12:56:34.025Z</time></trkpt><trkpt lat="42.67014421505786" lon="12.166592870017794"><ele>309.3333333333333</ele><time>2026-04-12T12:56:35.025Z</time></trkpt><trkpt lat="42.67017843058712" lon="12.166809103519244"><ele>309.0</ele><time>2026-04-12T12:56:36.025Z</time></trkpt><trkpt lat="42.67020291033598" lon="12.16702301593907"><ele>309.0</ele><time>2026-04-12T12:56:37.025Z</time></trkpt><trkpt lat="42.67020774161426" lon="12.167231344576523"><ele>309.0</ele><time>2026-04-12T12:56:38.025Z</time></trkpt><trkpt lat="42.67019252460825" lon="12.167427902537927"><ele>309.0</ele><time>2026-04-12T12:56:39.025Z</time></trkpt><trkpt lat="42.67016025129364" lon="12.167616008491375"><ele>309.0</ele><time>2026-04-12T12:56:40.025Z</time></trkpt><trkpt lat="42.6701165683926" lon="12.16779795266616"><ele>308.5</ele><time>2026-04-12T12:56:41.025Z</time></trkpt><trkpt lat="42.67007493212383" lon="12.167966450738243"><ele>308.0</ele><time>2026-04-12T12:56:42.025Z</time></trkpt><trkpt lat="42.67003950653512" lon="12.168124952240337"><ele>307.5</ele><time>2026-04-12T12:56:43.025Z</time></trkpt><trkpt lat="42.670009011145694" lon="12.16827892637136"><ele>307.0</ele><time>2026-04-12T12:56:44.025Z</time></trkpt><trkpt lat="42.66998276663613" lon="12.168437155736285"><ele>308.25</ele><time>2026-04-12T12:56:45.025Z</time></trkpt><trkpt lat="42.66996911494562" lon="12.168594492369335"><ele>309.5</ele><time>2026-04-12T12:56:46.025Z</time></trkpt><trkpt lat="42.669967071322084" lon="12.168756325485571"><ele>310.75</ele><time>2026-04-12T12:56:47.025Z</time></trkpt><trkpt lat="42.66998065137044" lon="12.168917510553793"><ele>312.0</ele><time>2026-04-12T12:56:48.025Z</time></trkpt><trkpt lat="42.669998783235386" lon="12.169076439510736"><ele>313.3333333333333</ele><time>2026-04-12T12:56:49.025Z</time></trkpt><trkpt lat="42.67003738966963" lon="12.16926424543563"><ele>314.66666666666663</ele><time>2026-04-12T12:56:50.025Z</time></trkpt><trkpt lat="42.670087332240364" lon="12.169457926936389"><ele>316.0</ele><time>2026-04-12T12:56:51.025Z</time></trkpt><trkpt lat="42.67015148714193" lon="12.169684930128993"><ele>316.3333333333333</ele><time>2026-04-12T12:56:52.025Z</time></trkpt><trkpt lat="42.67021271122912" lon="12.169935359806143"><ele>316.6666666666667</ele><time>2026-04-12T12:56:53.025Z</time></trkpt><trkpt lat="42.670266239531884" lon="12.170194753547259"><ele>317.0</ele><time>2026-04-12T12:56:54.025Z</time></trkpt><trkpt lat="42.670345880801456" lon="12.170484716115633"><ele>315.6666666666667</ele><time>2026-04-12T12:56:55.025Z</time></trkpt><trkpt lat="42.670399825614716" lon="12.170779217768619"><ele>314.3333333333333</ele><time>2026-04-12T12:56:56.025Z</time></trkpt><trkpt lat="42.67046512727563" lon="12.171062821634322"><ele>313.0</ele><time>2026-04-12T12:56:57.025Z</time></trkpt><trkpt lat="42.670524405200446" lon="12.171320265748745"><ele>312.0</ele><time>2026-04-12T12:56:58.025Z</time></trkpt><trkpt lat="42.670581201987524" lon="12.171564916038642"><ele>311.0</ele><time>2026-04-12T12:56:59.025Z</time></trkpt><trkpt lat="42.67064109792076" lon="12.171825401189514"><ele>310.0</ele><time>2026-04-12T12:57:00.025Z</time></trkpt><trkpt lat="42.6706972273377" lon="12.17207374859852"><ele>310.0</ele><time>2026-04-12T12:57:01.025Z</time></trkpt><trkpt lat="42.67074754049615" lon="12.172296361813546"><ele>310.0</ele><time>2026-04-12T12:57:02.025Z</time></trkpt><trkpt lat="42.670787959328" lon="12.172486352189312"><ele>310.0</ele><time>2026-04-12T12:57:03.025Z</time></trkpt><trkpt lat="42.670821833155756" lon="12.172678750632333"><ele>309.66666666666663</ele><time>2026-04-12T12:57:04.025Z</time></trkpt><trkpt lat="42.67084246439765" lon="12.172879776080181"><ele>309.3333333333333</ele><time>2026-04-12T12:57:05.025Z</time></trkpt><trkpt lat="42.67085156646151" lon="12.173095921057968"><ele>309.0</ele><time>2026-04-12T12:57:06.025Z</time></trkpt><trkpt lat="42.670849116260996" lon="12.17332684150762"><ele>309.0</ele><time>2026-04-12T12:57:07.025Z</time></trkpt><trkpt lat="42.6708421657221" lon="12.173567889077022"><ele>309.0</ele><time>2026-04-12T12:57:08.025Z</time></trkpt><trkpt lat="42.67083167552362" lon="12.17381436310825"><ele>309.0</ele><time>2026-04-12T12:57:09.025Z</time></trkpt><trkpt lat="42.6708237492678" lon="12.174059230833238"><ele>308.0</ele><time>2026-04-12T12:57:10.025Z</time></trkpt><trkpt lat="42.670815605848226" lon="12.174310807601946"><ele>307.0</ele><time>2026-04-12T12:57:11.025Z</time></trkpt><trkpt lat="42.670807035032716" lon="12.174560844992406"><ele>306.0</ele><time>2026-04-12T12:57:12.025Z</time></trkpt><trkpt lat="42.6708115238671" lon="12.174810249688692"><ele>306.6666666666667</ele><time>2026-04-12T12:57:13.025Z</time></trkpt><trkpt lat="42.67078600004526" lon="12.175053525260441"><ele>307.33333333333337</ele><time>2026-04-12T12:57:14.025Z</time></trkpt><trkpt lat="42.67077271637158" lon="12.17528524521949"><ele>308.0</ele><time>2026-04-12T12:57:15.025Z</time></trkpt><trkpt lat="42.670765412525206" lon="12.175531241216378"><ele>308.0</ele><time>2026-04-12T12:57:16.025Z</time></trkpt><trkpt lat="42.67075796443972" lon="12.175786066729723"><ele>308.0</ele><time>2026-04-12T12:57:17.025Z</time></trkpt><trkpt lat="42.670750640560065" lon="12.17604368552083"><ele>308.0</ele><time>2026-04-12T12:57:18.025Z</time></trkpt><trkpt lat="42.67074193084556" lon="12.176317206265281"><ele>308.0</ele><time>2026-04-12T12:57:19.025Z</time></trkpt><trkpt lat="42.67072936779336" lon="12.1765858279805"><ele>308.0</ele><time>2026-04-12T12:57:20.025Z</time></trkpt><trkpt lat="42.67072094849014" lon="12.176822627391221"><ele>308.0</ele><time>2026-04-12T12:57:21.025Z</time></trkpt><trkpt lat="42.67071071163275" lon="12.177057292552297"><ele>308.0</ele><time>2026-04-12T12:57:22.025Z</time></trkpt><trkpt lat="42.67069995451869" lon="12.177296169336806"><ele>308.0</ele><time>2026-04-12T12:57:23.025Z</time></trkpt><trkpt lat="42.67068873741325" lon="12.177525250728902"><ele>308.0</ele><time>2026-04-12T12:57:24.025Z</time></trkpt><trkpt lat="42.6706833578289" lon="12.177735410489685"><ele>308.75</ele><time>2026-04-12T12:57:25.025Z</time></trkpt><trkpt lat="42.67068618095173" lon="12.17794396043326"><ele>309.5</ele><time>2026-04-12T12:57:26.025Z</time></trkpt><trkpt lat="42.6707091704554" lon="12.178127853632617"><ele>310.25</ele><time>2026-04-12T12:57:27.025Z</time></trkpt><trkpt lat="42.67074253127294" lon="12.178313698919542"><ele>311.0</ele><time>2026-04-12T12:57:28.025Z</time></trkpt><trkpt lat="42.67079463304489" lon="12.178484613151394"><ele>311.6</ele><time>2026-04-12T12:57:29.025Z</time></trkpt><trkpt lat="42.670871739466676" lon="12.178614531985783"><ele>312.20000000000005</ele><time>2026-04-12T12:57:30.025Z</time></trkpt><trkpt lat="42.67093334102679" lon="12.178758095034413"><ele>312.79999999999995</ele><time>2026-04-12T12:57:31.025Z</time></trkpt><trkpt lat="42.67100484193917" lon="12.178862143406043"><ele>313.4</ele><time>2026-04-12T12:57:32.025Z</time></trkpt><trkpt lat="42.67106488649486" lon="12.178958840709496"><ele>314.0</ele><time>2026-04-12T12:57:33.025Z</time></trkpt><trkpt lat="42.671113333334105" lon="12.179057127766896"><ele>315.0</ele><time>2026-04-12T12:57:34.025Z</time></trkpt><trkpt lat="42.671153299485695" lon="12.179148332726271"><ele>316.0</ele><time>2026-04-12T12:57:35.025Z</time></trkpt><trkpt lat="42.67120687108966" lon="12.179279559040605"><ele>317.0</ele><time>2026-04-12T12:57:37.025Z</time></trkpt><trkpt lat="42.67125638885793" lon="12.179344832954262"><ele>318.0</ele><time>2026-04-12T12:57:40.025Z</time></trkpt><trkpt lat="42.67138540768073" lon="12.179341248355636"><ele>319.0</ele><time>2026-04-12T12:57:42.025Z</time></trkpt><trkpt lat="42.67149179913647" lon="12.179286385702348"><ele>319.0</ele><time>2026-04-12T12:57:43.025Z</time></trkpt><trkpt lat="42.671615719273326" lon="12.179215438645759"><ele>319.0</ele><time>2026-04-12T12:57:44.025Z</time></trkpt><trkpt lat="42.67177326517029" lon="12.17914877324294"><ele>319.0</ele><time>2026-04-12T12:57:45.025Z</time></trkpt><trkpt lat="42.671946946287655" lon="12.179094801188974"><ele>319.3333333333333</ele><time>2026-04-12T12:57:46.025Z</time></trkpt><trkpt lat="42.67213411347442" lon="12.17903144718919"><ele>319.6666666666667</ele><time>2026-04-12T12:57:47.025Z</time></trkpt><trkpt lat="42.672318858500965" lon="12.178964688448701"><ele>320.0</ele><time>2026-04-12T12:57:48.025Z</time></trkpt><trkpt lat="42.672505783777375" lon="12.178900702972749"><ele>318.6666666666667</ele><time>2026-04-12T12:57:49.025Z</time></trkpt><trkpt lat="42.67268839491741" lon="12.178831434039486"><ele>317.3333333333333</ele><time>2026-04-12T12:57:50.025Z</time></trkpt><trkpt lat="42.672876110304955" lon="12.178755620661724"><ele>316.0</ele><time>2026-04-12T12:57:51.025Z</time></trkpt><trkpt lat="42.6730632540381" lon="12.178654276526226"><ele>315.0</ele><time>2026-04-12T12:57:52.025Z</time></trkpt><trkpt lat="42.673239469042244" lon="12.178533516543101"><ele>314.0</ele><time>2026-04-12T12:57:53.025Z</time></trkpt><trkpt lat="42.67341986477758" lon="12.17837626552999"><ele>313.0</ele><time>2026-04-12T12:57:54.025Z</time></trkpt><trkpt lat="42.67359443507355" lon="12.178221954694681"><ele>312.66666666666663</ele><time>2026-04-12T12:57:55.025Z</time></trkpt><trkpt lat="42.67377295609285" lon="12.178064784895978"><ele>312.3333333333333</ele><time>2026-04-12T12:57:56.025Z</time></trkpt><trkpt lat="42.673958800899555" lon="12.17790823597381"><ele>312.0</ele><time>2026-04-12T12:57:57.025Z</time></trkpt><trkpt lat="42.67415208471556" lon="12.177749387611065"><ele>312.0</ele><time>2026-04-12T12:57:58.025Z</time></trkpt><trkpt lat="42.67433607166563" lon="12.177590562038713"><ele>312.0</ele><time>2026-04-12T12:57:59.025Z</time></trkpt><trkpt lat="42.674515529516356" lon="12.177430386019534"><ele>312.0</ele><time>2026-04-12T12:58:00.025Z</time></trkpt><trkpt lat="42.67470169082513" lon="12.17727360260554"><ele>313.3333333333333</ele><time>2026-04-12T12:58:01.025Z</time></trkpt><trkpt lat="42.674885682898115" lon="12.177125108279672"><ele>314.66666666666663</ele><time>2026-04-12T12:58:02.025Z</time></trkpt><trkpt lat="42.6750697809876" lon="12.176964415577428"><ele>316.0</ele><time>2026-04-12T12:58:03.025Z</time></trkpt><trkpt lat="42.67526575598937" lon="12.176829017621547"><ele>314.0</ele><time>2026-04-12T12:58:04.025Z</time></trkpt><trkpt lat="42.67545848674379" lon="12.176670835571628"><ele>312.0</ele><time>2026-04-12T12:58:05.025Z</time></trkpt><trkpt lat="42.675662725195664" lon="12.176504705265888"><ele>311.5</ele><time>2026-04-12T12:58:06.028Z</time></trkpt><trkpt lat="42.67586035747705" lon="12.176344523230828"><ele>311.0</ele><time>2026-04-12T12:58:07.027Z</time></trkpt><trkpt lat="42.67606074127077" lon="12.176183970010557"><ele>311.5</ele><time>2026-04-12T12:58:08.027Z</time></trkpt><trkpt lat="42.67628273982708" lon="12.176008261788931"><ele>312.0</ele><time>2026-04-12T12:58:09.028Z</time></trkpt><trkpt lat="42.676495198184845" lon="12.175840104406772"><ele>312.0</ele><time>2026-04-12T12:58:10.027Z</time></trkpt><trkpt lat="42.67668135937042" lon="12.175697818275554"><ele>312.0</ele><time>2026-04-12T12:58:11.027Z</time></trkpt><trkpt lat="42.676609525246185" lon="12.17574668142578"><ele>312.0</ele><time>2026-04-12T12:58:12.027Z</time></trkpt><trkpt lat="42.676781604341016" lon="12.175615590571368"><ele>312.6666666666667</ele><time>2026-04-12T12:58:13.027Z</time></trkpt><trkpt lat="42.67695830475576" lon="12.175479794634272"><ele>313.33333333333337</ele><time>2026-04-12T12:58:14.027Z</time></trkpt><trkpt lat="42.677143459304524" lon="12.175346270989783"><ele>314.0</ele><time>2026-04-12T12:58:15.027Z</time></trkpt><trkpt lat="42.677329697602914" lon="12.175215991346471"><ele>314.0</ele><time>2026-04-12T12:58:16.027Z</time></trkpt><trkpt lat="42.67750961765575" lon="12.175094067535426"><ele>314.0</ele><time>2026-04-12T12:58:17.027Z</time></trkpt><trkpt lat="42.677678753099265" lon="12.174978308178414"><ele>314.0</ele><time>2026-04-12T12:58:18.027Z</time></trkpt><trkpt lat="42.67784833840606" lon="12.174894730594827"><ele>313.6666666666667</ele><time>2026-04-12T12:58:19.027Z</time></trkpt><trkpt lat="42.67801057030185" lon="12.174827588150672"><ele>313.3333333333333</ele><time>2026-04-12T12:58:20.027Z</time></trkpt><trkpt lat="42.678170136260526" lon="12.17479162425428"><ele>313.0</ele><time>2026-04-12T12:58:21.027Z</time></trkpt><trkpt lat="42.67833950250124" lon="12.174766305974085"><ele>313.0</ele><time>2026-04-12T12:58:22.027Z</time></trkpt><trkpt lat="42.67850887102092" lon="12.174742526117482"><ele>313.0</ele><time>2026-04-12T12:58:23.027Z</time></trkpt><trkpt lat="42.67866076584526" lon="12.17469637754271"><ele>313.0</ele><time>2026-04-12T12:58:24.027Z</time></trkpt><trkpt lat="42.678793768249314" lon="12.174671284776405"><ele>311.0</ele><time>2026-04-12T12:58:25.027Z</time></trkpt><trkpt lat="42.67890262289417" lon="12.174610917496961"><ele>309.0</ele><time>2026-04-12T12:58:26.027Z</time></trkpt><trkpt lat="42.678948691304235" lon="12.17448410715703"><ele>307.0</ele><time>2026-04-12T12:58:27.027Z</time></trkpt><trkpt lat="42.67897629359451" lon="12.17435218053304"><ele>305.0</ele><time>2026-04-12T12:58:28.027Z</time></trkpt><trkpt lat="42.67895736511644" lon="12.174229553367985"><ele>303.0</ele><time>2026-04-12T12:58:29.027Z</time></trkpt><trkpt lat="42.67890231615128" lon="12.174131157742815"><ele>303.0</ele><time>2026-04-12T12:58:30.027Z</time></trkpt><trkpt lat="42.67884714990872" lon="12.174031089162606"><ele>303.0</ele><time>2026-04-12T12:58:31.027Z</time></trkpt><trkpt lat="42.67876469742026" lon="12.173906494632181"><ele>303.0</ele><time>2026-04-12T12:58:32.027Z</time></trkpt><trkpt lat="42.67866579954708" lon="12.173763445949621"><ele>303.0</ele><time>2026-04-12T12:58:33.027Z</time></trkpt><trkpt lat="42.67857219115133" lon="12.173616822038522"><ele>304.5</ele><time>2026-04-12T12:58:34.027Z</time></trkpt><trkpt lat="42.678465258792485" lon="12.173437689700663"><ele>306.0</ele><time>2026-04-12T12:58:35.027Z</time></trkpt><trkpt lat="42.67843082396389" lon="12.173317012370157"><ele>307.5</ele><time>2026-04-12T12:58:36.027Z</time></trkpt><trkpt lat="42.678434715344416" lon="12.173198880165243"><ele>309.0</ele><time>2026-04-12T12:58:37.027Z</time></trkpt><trkpt lat="42.67848421248622" lon="12.173074672800084"><ele>309.4</ele><time>2026-04-12T12:58:38.027Z</time></trkpt><trkpt lat="42.67855298577647" lon="12.17299136551633"><ele>309.79999999999995</ele><time>2026-04-12T12:58:39.027Z</time></trkpt><trkpt lat="42.67863688585272" lon="12.172938371434839"><ele>310.20000000000005</ele><time>2026-04-12T12:58:40.027Z</time></trkpt><trkpt lat="42.67873156582105" lon="12.172925719603596"><ele>310.6</ele><time>2026-04-12T12:58:41.027Z</time></trkpt><trkpt lat="42.67883936808045" lon="12.17301111784602"><ele>311.0</ele><time>2026-04-12T12:58:42.027Z</time></trkpt><trkpt lat="42.67894873438171" lon="12.173066749345788"><ele>311.25</ele><time>2026-04-12T12:58:43.027Z</time></trkpt><trkpt lat="42.67906320832631" lon="12.173157604440476"><ele>311.5</ele><time>2026-04-12T12:58:44.027Z</time></trkpt><trkpt lat="42.67917826470803" lon="12.173265976283565"><ele>311.75</ele><time>2026-04-12T12:58:45.027Z</time></trkpt><trkpt lat="42.67930508895324" lon="12.173373666039716"><ele>312.0</ele><time>2026-04-12T12:58:46.027Z</time></trkpt><trkpt lat="42.679449358612146" lon="12.173444590406342"><ele>308.3333333333333</ele><time>2026-04-12T12:58:47.027Z</time></trkpt><trkpt lat="42.679607640268344" lon="12.173491873000366"><ele>304.66666666666663</ele><time>2026-04-12T12:58:48.027Z</time></trkpt><trkpt lat="42.679758655588046" lon="12.173473692601476"><ele>301.0</ele><time>2026-04-12T12:58:49.027Z</time></trkpt><trkpt lat="42.67990404618679" lon="12.17341937329466"><ele>301.0</ele><time>2026-04-12T12:58:50.027Z</time></trkpt><trkpt lat="42.680059157852526" lon="12.173346006077242"><ele>301.0</ele><time>2026-04-12T12:58:51.027Z</time></trkpt><trkpt lat="42.68020388459338" lon="12.173256710241432"><ele>301.0</ele><time>2026-04-12T12:58:52.027Z</time></trkpt><trkpt lat="42.68032168360616" lon="12.173203352786132"><ele>301.0</ele><time>2026-04-12T12:58:53.027Z</time></trkpt><trkpt lat="42.68042555040093" lon="12.173127139397538"><ele>300.5</ele><time>2026-04-12T12:58:54.027Z</time></trkpt><trkpt lat="42.68051943599397" lon="12.173038175060022"><ele>300.0</ele><time>2026-04-12T12:58:55.027Z</time></trkpt><trkpt lat="42.68060302709686" lon="12.172934492302492"><ele>299.5</ele><time>2026-04-12T12:58:56.027Z</time></trkpt><trkpt lat="42.68066470313483" lon="12.17280751658902"><ele>299.0</ele><time>2026-04-12T12:58:57.027Z</time></trkpt><trkpt lat="42.68072621578304" lon="12.172682033234178"><ele>299.0</ele><time>2026-04-12T12:58:58.027Z</time></trkpt><trkpt lat="42.680780444191015" lon="12.172573931600592"><ele>299.0</ele><time>2026-04-12T12:58:59.027Z</time></trkpt><trkpt lat="42.680828689104054" lon="12.172482336662798"><ele>299.0</ele><time>2026-04-12T12:59:00.027Z</time></trkpt><trkpt lat="42.680873125739055" lon="12.172416084147144"><ele>299.0</ele><time>2026-04-12T12:59:01.027Z</time></trkpt><trkpt lat="42.68099871280902" lon="12.172363424865463"><ele>299.0</ele><time>2026-04-12T12:59:03.027Z</time></trkpt><trkpt lat="42.681065402527516" lon="12.17240303538362"><ele>299.0</ele><time>2026-04-12T12:59:04.027Z</time></trkpt><trkpt lat="42.6811362411429" lon="12.172453538216212"><ele>298.59999999999997</ele><time>2026-04-12T12:59:05.027Z</time></trkpt><trkpt lat="42.68120915051321" lon="12.172503912029743"><ele>298.2</ele><time>2026-04-12T12:59:06.027Z</time></trkpt><trkpt lat="42.68128194776745" lon="12.172565419799376"><ele>297.79999999999995</ele><time>2026-04-12T12:59:07.027Z</time></trkpt><trkpt lat="42.68137911854536" lon="12.172641439710036"><ele>297.4</ele><time>2026-04-12T12:59:08.027Z</time></trkpt><trkpt lat="42.681463846732655" lon="12.172725760987857"><ele>297.0</ele><time>2026-04-12T12:59:09.027Z</time></trkpt><trkpt lat="42.68156264505424" lon="12.172811390916568"><ele>297.0</ele><time>2026-04-12T12:59:10.027Z</time></trkpt><trkpt lat="42.681654125419485" lon="12.172915599178292"><ele>297.0</ele><time>2026-04-12T12:59:11.027Z</time></trkpt><trkpt lat="42.681752809547795" lon="12.173027032307102"><ele>297.0</ele><time>2026-04-12T12:59:12.027Z</time></trkpt><trkpt lat="42.68185764784909" lon="12.173136184860697"><ele>297.0</ele><time>2026-04-12T12:59:13.027Z</time></trkpt><trkpt lat="42.68195504360882" lon="12.173206794259661"><ele>294.25</ele><time>2026-04-12T12:59:14.027Z</time></trkpt><trkpt lat="42.68207066265531" lon="12.173255956655801"><ele>291.5</ele><time>2026-04-12T12:59:15.027Z</time></trkpt><trkpt lat="42.68220655036905" lon="12.17331381984152"><ele>288.75</ele><time>2026-04-12T12:59:16.027Z</time></trkpt><trkpt lat="42.68235054087435" lon="12.173342387508887"><ele>286.0</ele><time>2026-04-12T12:59:17.027Z</time></trkpt><trkpt lat="42.68249138488466" lon="12.1733445973758"><ele>286.0</ele><time>2026-04-12T12:59:18.027Z</time></trkpt><trkpt lat="42.68262494298123" lon="12.173382067049458"><ele>286.0</ele><time>2026-04-12T12:59:19.027Z</time></trkpt><trkpt lat="42.68274791236513" lon="12.173392566519103"><ele>286.0</ele><time>2026-04-12T12:59:20.027Z</time></trkpt><trkpt lat="42.68285322419425" lon="12.173390265615762"><ele>286.0</ele><time>2026-04-12T12:59:21.027Z</time></trkpt><trkpt lat="42.68295349640487" lon="12.173391444243599"><ele>286.2</ele><time>2026-04-12T12:59:22.027Z</time></trkpt><trkpt lat="42.68303520060131" lon="12.173331857512057"><ele>286.40000000000003</ele><time>2026-04-12T12:59:23.027Z</time></trkpt><trkpt lat="42.68310284455961" lon="12.173224589691346"><ele>286.6</ele><time>2026-04-12T12:59:24.027Z</time></trkpt><trkpt lat="42.68312200107198" lon="12.173092484514664"><ele>286.8</ele><time>2026-04-12T12:59:25.027Z</time></trkpt><trkpt lat="42.68312872434205" lon="12.172949915998553"><ele>287.0</ele><time>2026-04-12T12:59:26.027Z</time></trkpt><trkpt lat="42.68315218724557" lon="12.17285878894573"><ele>287.0</ele><time>2026-04-12T12:59:27.027Z</time></trkpt><trkpt lat="42.6832227302534" lon="12.1727421012835"><ele>287.0</ele><time>2026-04-12T12:59:29.027Z</time></trkpt><trkpt lat="42.68329262081379" lon="12.17275211538297"><ele>287.0</ele><time>2026-04-12T12:59:30.027Z</time></trkpt><trkpt lat="42.68335531658955" lon="12.172788289195244"><ele>287.0</ele><time>2026-04-12T12:59:31.027Z</time></trkpt><trkpt lat="42.68346792834141" lon="12.172889528509915"><ele>287.0</ele><time>2026-04-12T12:59:33.027Z</time></trkpt><trkpt lat="42.68355047536588" lon="12.172969419875336"><ele>286.6</ele><time>2026-04-12T12:59:34.027Z</time></trkpt><trkpt lat="42.68362946844731" lon="12.173057742086883"><ele>286.2</ele><time>2026-04-12T12:59:35.027Z</time></trkpt><trkpt lat="42.68371531529799" lon="12.173125101437005"><ele>285.8</ele><time>2026-04-12T12:59:36.027Z</time></trkpt><trkpt lat="42.683817507365845" lon="12.17318913519237"><ele>285.4</ele><time>2026-04-12T12:59:37.027Z</time></trkpt><trkpt lat="42.6839306332784" lon="12.17323703654268"><ele>285.0</ele><time>2026-04-12T12:59:38.027Z</time></trkpt><trkpt lat="42.68401809448497" lon="12.173305136201588"><ele>283.0</ele><time>2026-04-12T12:59:39.027Z</time></trkpt><trkpt lat="42.68415264582031" lon="12.17334034574817"><ele>281.0</ele><time>2026-04-12T12:59:40.027Z</time></trkpt><trkpt lat="42.684287883385025" lon="12.173368545067062"><ele>279.0</ele><time>2026-04-12T12:59:41.027Z</time></trkpt><trkpt lat="42.68442396091203" lon="12.173395095864745"><ele>277.0</ele><time>2026-04-12T12:59:42.027Z</time></trkpt><trkpt lat="42.68454330555738" lon="12.173419712820062"><ele>277.2</ele><time>2026-04-12T12:59:43.027Z</time></trkpt><trkpt lat="42.68464989403741" lon="12.173434976681879"><ele>277.4</ele><time>2026-04-12T12:59:44.027Z</time></trkpt><trkpt lat="42.68475039400609" lon="12.173431739341563"><ele>277.6</ele><time>2026-04-12T12:59:45.027Z</time></trkpt><trkpt lat="42.68484538204638" lon="12.173390108187098"><ele>277.8</ele><time>2026-04-12T12:59:46.027Z</time></trkpt><trkpt lat="42.68493812483975" lon="12.173254748283668"><ele>278.0</ele><time>2026-04-12T12:59:47.027Z</time></trkpt><trkpt lat="42.685000974677415" lon="12.173136192638854"><ele>278.0</ele><time>2026-04-12T12:59:48.027Z</time></trkpt><trkpt lat="42.68506675249335" lon="12.173000129656021"><ele>278.0</ele><time>2026-04-12T12:59:49.027Z</time></trkpt><trkpt lat="42.6851024354833" lon="12.172880866383638"><ele>278.0</ele><time>2026-04-12T12:59:50.027Z</time></trkpt><trkpt lat="42.685170095888" lon="12.172770504889007"><ele>278.0</ele><time>2026-04-12T12:59:51.027Z</time></trkpt><trkpt lat="42.68521719183951" lon="12.172674138703613"><ele>278.0</ele><time>2026-04-12T12:59:52.027Z</time></trkpt><trkpt lat="42.68527500371101" lon="12.172594432254183"><ele>277.0</ele><time>2026-04-12T12:59:53.027Z</time></trkpt><trkpt lat="42.68536646751119" lon="12.172545927458101"><ele>276.0</ele><time>2026-04-12T12:59:54.027Z</time></trkpt><trkpt lat="42.68547621269683" lon="12.172539704100732"><ele>275.0</ele><time>2026-04-12T12:59:55.027Z</time></trkpt><trkpt lat="42.68558316322083" lon="12.17255460154733"><ele>274.0</ele><time>2026-04-12T12:59:56.027Z</time></trkpt><trkpt lat="42.685691621348596" lon="12.17258241275423"><ele>273.0</ele><time>2026-04-12T12:59:57.027Z</time></trkpt><trkpt lat="42.68581102038708" lon="12.172631681775822"><ele>273.0</ele><time>2026-04-12T12:59:58.027Z</time></trkpt><trkpt lat="42.6859464663392" lon="12.172670653671345"><ele>273.0</ele><time>2026-04-12T12:59:59.027Z</time></trkpt><trkpt lat="42.68609175647179" lon="12.172700050900824"><ele>273.0</ele><time>2026-04-12T13:00:00.027Z</time></trkpt><trkpt lat="42.6862590842133" lon="12.17274768337603"><ele>272.0</ele><time>2026-04-12T13:00:01.027Z</time></trkpt><trkpt lat="42.68644252739908" lon="12.17279898868966"><ele>271.0</ele><time>2026-04-12T13:00:02.027Z</time></trkpt><trkpt lat="42.68663316849854" lon="12.172838315469418"><ele>270.0</ele><time>2026-04-12T13:00:03.027Z</time></trkpt><trkpt lat="42.68684461314521" lon="12.172845289546503"><ele>268.0</ele><time>2026-04-12T13:00:04.027Z</time></trkpt><trkpt lat="42.68704499906036" lon="12.172865119168701"><ele>266.0</ele><time>2026-04-12T13:00:05.027Z</time></trkpt><trkpt lat="42.687235468208186" lon="12.172885920188051"><ele>264.0</ele><time>2026-04-12T13:00:06.027Z</time></trkpt><trkpt lat="42.68741664202406" lon="12.17292263784046"><ele>264.0</ele><time>2026-04-12T13:00:07.027Z</time></trkpt><trkpt lat="42.68758657255365" lon="12.17296233060956"><ele>264.0</ele><time>2026-04-12T13:00:08.027Z</time></trkpt><trkpt lat="42.68773435466213" lon="12.17303272903213"><ele>264.0</ele><time>2026-04-12T13:00:09.027Z</time></trkpt><trkpt lat="42.68790032589942" lon="12.173076230957609"><ele>259.6666666666667</ele><time>2026-04-12T13:00:10.027Z</time></trkpt><trkpt lat="42.68805212422063" lon="12.173075089001493"><ele>255.33333333333334</ele><time>2026-04-12T13:00:11.027Z</time></trkpt><trkpt lat="42.68820910568521" lon="12.173061692157905"><ele>251.0</ele><time>2026-04-12T13:00:12.03Z</time></trkpt><trkpt lat="42.68835480554271" lon="12.173069251397948"><ele>251.0</ele><time>2026-04-12T13:00:13.03Z</time></trkpt><trkpt lat="42.68850102466804" lon="12.173120677749043"><ele>251.0</ele><time>2026-04-12T13:00:14.03Z</time></trkpt><trkpt lat="42.688657899159395" lon="12.173205431096667"><ele>251.0</ele><time>2026-04-12T13:00:15.03Z</time></trkpt><trkpt lat="42.688828599563784" lon="12.173297821766411"><ele>251.0</ele><time>2026-04-12T13:00:16.03Z</time></trkpt><trkpt lat="42.68901202828623" lon="12.173397291446417"><ele>251.0</ele><time>2026-04-12T13:00:17.03Z</time></trkpt><trkpt lat="42.68919502658856" lon="12.173473113176634"><ele>251.0</ele><time>2026-04-12T13:00:18.03Z</time></trkpt><trkpt lat="42.68937238279865" lon="12.173551079137258"><ele>249.0</ele><time>2026-04-12T13:00:19.03Z</time></trkpt><trkpt lat="42.68955348418175" lon="12.173613659508897"><ele>247.0</ele><time>2026-04-12T13:00:20.03Z</time></trkpt><trkpt lat="42.689751392066036" lon="12.173637577468252"><ele>245.0</ele><time>2026-04-12T13:00:21.029Z</time></trkpt><trkpt lat="42.689960662339104" lon="12.173639866360439"><ele>245.0</ele><time>2026-04-12T13:00:22.03Z</time></trkpt><trkpt lat="42.69017860074658" lon="12.17366262409956"><ele>245.0</ele><time>2026-04-12T13:00:23.03Z</time></trkpt><trkpt lat="42.69039381310171" lon="12.17368609370262"><ele>245.0</ele><time>2026-04-12T13:00:24.03Z</time></trkpt><trkpt lat="42.69060026062954" lon="12.173695650895155"><ele>246.33333333333334</ele><time>2026-04-12T13:00:25.03Z</time></trkpt><trkpt lat="42.69079341942046" lon="12.173726201486566"><ele>247.66666666666669</ele><time>2026-04-12T13:00:26.03Z</time></trkpt><trkpt lat="42.69098099324829" lon="12.1737583466371"><ele>249.0</ele><time>2026-04-12T13:00:27.03Z</time></trkpt><trkpt lat="42.69116690540817" lon="12.173799635163151"><ele>249.66666666666669</ele><time>2026-04-12T13:00:28.03Z</time></trkpt><trkpt lat="42.6913451031169" lon="12.173860944813597"><ele>250.33333333333334</ele><time>2026-04-12T13:00:29.03Z</time></trkpt><trkpt lat="42.69151709426193" lon="12.173958335864697"><ele>251.0</ele><time>2026-04-12T13:00:30.03Z</time></trkpt><trkpt lat="42.69167500768931" lon="12.17405077570201"><ele>251.33333333333334</ele><time>2026-04-12T13:00:31.03Z</time></trkpt><trkpt lat="42.69183807642686" lon="12.174142537340005"><ele>251.66666666666669</ele><time>2026-04-12T13:00:32.03Z</time></trkpt><trkpt lat="42.69199126414815" lon="12.174259097042974"><ele>252.0</ele><time>2026-04-12T13:00:33.03Z</time></trkpt><trkpt lat="42.692142163320575" lon="12.174374132349044"><ele>253.0</ele><time>2026-04-12T13:00:34.03Z</time></trkpt><trkpt lat="42.69229479575941" lon="12.174490185065896"><ele>254.0</ele><time>2026-04-12T13:00:35.03Z</time></trkpt><trkpt lat="42.69244239748111" lon="12.174597102192713"><ele>255.0</ele><time>2026-04-12T13:00:36.03Z</time></trkpt><trkpt lat="42.692594179673684" lon="12.174696206870715"><ele>255.0</ele><time>2026-04-12T13:00:37.03Z</time></trkpt><trkpt lat="42.69274293082608" lon="12.17480263224975"><ele>255.0</ele><time>2026-04-12T13:00:38.03Z</time></trkpt><trkpt lat="42.69287583069654" lon="12.174928975842377"><ele>255.0</ele><time>2026-04-12T13:00:39.03Z</time></trkpt><trkpt lat="42.69301071442584" lon="12.175017596791802"><ele>253.75</ele><time>2026-04-12T13:00:40.03Z</time></trkpt><trkpt lat="42.693145739648976" lon="12.175103300875387"><ele>252.5</ele><time>2026-04-12T13:00:41.03Z</time></trkpt><trkpt lat="42.693275027689836" lon="12.17514832402052"><ele>251.25</ele><time>2026-04-12T13:00:42.03Z</time></trkpt><trkpt lat="42.693426329642804" lon="12.175167636949254"><ele>250.0</ele><time>2026-04-12T13:00:43.03Z</time></trkpt><trkpt lat="42.6935925141552" lon="12.175176301623"><ele>247.33333333333331</ele><time>2026-04-12T13:00:44.03Z</time></trkpt><trkpt lat="42.69380622866856" lon="12.175217722589093"><ele>244.66666666666669</ele><time>2026-04-12T13:00:45.03Z</time></trkpt><trkpt lat="42.694016903764734" lon="12.175256215026653"><ele>242.0</ele><time>2026-04-12T13:00:46.03Z</time></trkpt><trkpt lat="42.69421354789803" lon="12.175307369227962"><ele>242.0</ele><time>2026-04-12T13:00:47.03Z</time></trkpt><trkpt lat="42.69440159781442" lon="12.175347073923176"><ele>242.0</ele><time>2026-04-12T13:00:48.03Z</time></trkpt><trkpt lat="42.694580606408095" lon="12.17537877040166"><ele>242.0</ele><time>2026-04-12T13:00:49.03Z</time></trkpt><trkpt lat="42.694760513993295" lon="12.175423778835485"><ele>240.75</ele><time>2026-04-12T13:00:50.03Z</time></trkpt><trkpt lat="42.694921431432306" lon="12.175461996425636"><ele>239.5</ele><time>2026-04-12T13:00:51.03Z</time></trkpt><trkpt lat="42.69506670099849" lon="12.175494672772846"><ele>238.25</ele><time>2026-04-12T13:00:52.03Z</time></trkpt><trkpt lat="42.69517506092346" lon="12.1755254970349"><ele>237.0</ele><time>2026-04-12T13:00:53.03Z</time></trkpt><trkpt lat="42.69527208089718" lon="12.175546978760213"><ele>237.0</ele><time>2026-04-12T13:00:54.03Z</time></trkpt><trkpt lat="42.69534970921073" lon="12.175516697761237"><ele>237.0</ele><time>2026-04-12T13:00:55.03Z</time></trkpt><trkpt lat="42.69537453941725" lon="12.17535681073151"><ele>237.0</ele><time>2026-04-12T13:00:57.03Z</time></trkpt><trkpt lat="42.69534463881672" lon="12.175256548718416"><ele>237.0</ele><time>2026-04-12T13:00:58.03Z</time></trkpt><trkpt lat="42.69527998244632" lon="12.175161192177885"><ele>237.0</ele><time>2026-04-12T13:00:59.03Z</time></trkpt><trkpt lat="42.69519752470146" lon="12.175021565550951"><ele>237.0</ele><time>2026-04-12T13:01:00.03Z</time></trkpt><trkpt lat="42.69509324799184" lon="12.174909387659378"><ele>237.0</ele><time>2026-04-12T13:01:01.03Z</time></trkpt><trkpt lat="42.695012459998885" lon="12.174785298956152"><ele>237.0</ele><time>2026-04-12T13:01:02.03Z</time></trkpt><trkpt lat="42.694914559025435" lon="12.174673391751702"><ele>237.0</ele><time>2026-04-12T13:01:03.03Z</time></trkpt><trkpt lat="42.69480443422937" lon="12.17459507056106"><ele>234.75</ele><time>2026-04-12T13:01:04.03Z</time></trkpt><trkpt lat="42.69468913863861" lon="12.174542862530213"><ele>232.5</ele><time>2026-04-12T13:01:05.03Z</time></trkpt><trkpt lat="42.69455842096983" lon="12.174477252869139"><ele>230.25</ele><time>2026-04-12T13:01:06.03Z</time></trkpt><trkpt lat="42.69444003730801" lon="12.174374271407393"><ele>228.0</ele><time>2026-04-12T13:01:07.03Z</time></trkpt><trkpt lat="42.694311935632356" lon="12.174268257361764"><ele>228.0</ele><time>2026-04-12T13:01:08.03Z</time></trkpt><trkpt lat="42.69418736657572" lon="12.174101233587313"><ele>228.0</ele><time>2026-04-12T13:01:09.03Z</time></trkpt><trkpt lat="42.69403071131746" lon="12.173950043632267"><ele>228.0</ele><time>2026-04-12T13:01:10.03Z</time></trkpt><trkpt lat="42.693881629651834" lon="12.173791081784893"><ele>226.0</ele><time>2026-04-12T13:01:11.03Z</time></trkpt><trkpt lat="42.69374451910267" lon="12.173644105674178"><ele>224.0</ele><time>2026-04-12T13:01:12.03Z</time></trkpt><trkpt lat="42.693611863996935" lon="12.17349115204479"><ele>222.0</ele><time>2026-04-12T13:01:13.03Z</time></trkpt><trkpt lat="42.69348120869139" lon="12.173319540536525"><ele>217.66666666666669</ele><time>2026-04-12T13:01:14.03Z</time></trkpt><trkpt lat="42.69336898807856" lon="12.17314093414767"><ele>213.33333333333334</ele><time>2026-04-12T13:01:15.03Z</time></trkpt><trkpt lat="42.69325797124669" lon="12.172979536674076"><ele>209.0</ele><time>2026-04-12T13:01:16.03Z</time></trkpt><trkpt lat="42.69312926013957" lon="12.172836295241163"><ele>209.0</ele><time>2026-04-12T13:01:17.03Z</time></trkpt><trkpt lat="42.69299189522668" lon="12.172700223488484"><ele>209.0</ele><time>2026-04-12T13:01:18.03Z</time></trkpt><trkpt lat="42.69285724739474" lon="12.172564591052742"><ele>209.0</ele><time>2026-04-12T13:01:19.03Z</time></trkpt><trkpt lat="42.69272394583615" lon="12.172433123734097"><ele>208.79999999999998</ele><time>2026-04-12T13:01:20.03Z</time></trkpt><trkpt lat="42.692607538870654" lon="12.172329846428845"><ele>208.6</ele><time>2026-04-12T13:01:21.03Z</time></trkpt><trkpt lat="42.69250990081599" lon="12.172232061095333"><ele>208.4</ele><time>2026-04-12T13:01:22.03Z</time></trkpt><trkpt lat="42.692447358397544" lon="12.172149316662022"><ele>208.2</ele><time>2026-04-12T13:01:23.03Z</time></trkpt><trkpt lat="42.69242152803432" lon="12.172055115137356"><ele>208.0</ele><time>2026-04-12T13:01:24.03Z</time></trkpt><trkpt lat="42.69243046030591" lon="12.171959340422571"><ele>208.0</ele><time>2026-04-12T13:01:25.03Z</time></trkpt><trkpt lat="42.692485597054" lon="12.171858887377303"><ele>208.0</ele><time>2026-04-12T13:01:26.03Z</time></trkpt><trkpt lat="42.69256111705672" lon="12.171809930375806"><ele>208.0</ele><time>2026-04-12T13:01:27.03Z</time></trkpt><trkpt lat="42.6926551949739" lon="12.171800246157252"><ele>208.0</ele><time>2026-04-12T13:01:28.03Z</time></trkpt><trkpt lat="42.69276926510082" lon="12.171812572265566"><ele>208.0</ele><time>2026-04-12T13:01:29.03Z</time></trkpt><trkpt lat="42.69291025057532" lon="12.17181726281232"><ele>205.66666666666666</ele><time>2026-04-12T13:01:30.03Z</time></trkpt><trkpt lat="42.693078013224515" lon="12.171826275972176"><ele>203.33333333333331</ele><time>2026-04-12T13:01:31.03Z</time></trkpt><trkpt lat="42.69326910691142" lon="12.171819324047092"><ele>201.0</ele><time>2026-04-12T13:01:32.03Z</time></trkpt><trkpt lat="42.693470706424854" lon="12.171814690913656"><ele>198.66666666666669</ele><time>2026-04-12T13:01:33.03Z</time></trkpt><trkpt lat="42.693656256393915" lon="12.17179944123274"><ele>196.33333333333334</ele><time>2026-04-12T13:01:34.03Z</time></trkpt><trkpt lat="42.69383132002402" lon="12.171793455782574"><ele>194.0</ele><time>2026-04-12T13:01:35.03Z</time></trkpt><trkpt lat="42.69403302875353" lon="12.17180246538668"><ele>194.0</ele><time>2026-04-12T13:01:36.03Z</time></trkpt><trkpt lat="42.69426528758696" lon="12.17180699593345"><ele>194.0</ele><time>2026-04-12T13:01:37.03Z</time></trkpt><trkpt lat="42.69448532599253" lon="12.171812362113874"><ele>192.33333333333334</ele><time>2026-04-12T13:01:38.03Z</time></trkpt><trkpt lat="42.69468468981818" lon="12.171781762809498"><ele>190.66666666666669</ele><time>2026-04-12T13:01:39.03Z</time></trkpt><trkpt lat="42.69486798128146" lon="12.171773386304956"><ele>189.0</ele><time>2026-04-12T13:01:40.03Z</time></trkpt><trkpt lat="42.69504361020597" lon="12.171769028161895"><ele>189.0</ele><time>2026-04-12T13:01:41.03Z</time></trkpt><trkpt lat="42.69518839538217" lon="12.171803859367037"><ele>189.0</ele><time>2026-04-12T13:01:42.03Z</time></trkpt><trkpt lat="42.695296146514714" lon="12.171846831324077"><ele>189.0</ele><time>2026-04-12T13:01:43.03Z</time></trkpt><trkpt lat="42.69540068666272" lon="12.171937822618164"><ele>189.0</ele><time>2026-04-12T13:01:44.03Z</time></trkpt><trkpt lat="42.69550397497984" lon="12.172051170989134"><ele>188.25</ele><time>2026-04-12T13:01:45.03Z</time></trkpt><trkpt lat="42.69562085009867" lon="12.172180259112082"><ele>187.5</ele><time>2026-04-12T13:01:46.03Z</time></trkpt><trkpt lat="42.69573308197187" lon="12.172310054672451"><ele>186.75</ele><time>2026-04-12T13:01:47.03Z</time></trkpt><trkpt lat="42.69584672934098" lon="12.172421248223753"><ele>186.0</ele><time>2026-04-12T13:01:48.03Z</time></trkpt><trkpt lat="42.69596137627904" lon="12.172509590847648"><ele>184.5</ele><time>2026-04-12T13:01:49.03Z</time></trkpt><trkpt lat="42.696113914923515" lon="12.17258368182682"><ele>183.0</ele><time>2026-04-12T13:01:50.03Z</time></trkpt><trkpt lat="42.69624405142081" lon="12.172579578664264"><ele>181.5</ele><time>2026-04-12T13:01:51.03Z</time></trkpt><trkpt lat="42.69639874287277" lon="12.172555839254562"><ele>180.0</ele><time>2026-04-12T13:01:52.03Z</time></trkpt><trkpt lat="42.6965411864599" lon="12.172561404319378"><ele>180.0</ele><time>2026-04-12T13:01:53.03Z</time></trkpt><trkpt lat="42.69669924811085" lon="12.172537315407208"><ele>180.0</ele><time>2026-04-12T13:01:54.03Z</time></trkpt><trkpt lat="42.69685465989929" lon="12.172514948172296"><ele>180.0</ele><time>2026-04-12T13:01:55.03Z</time></trkpt><trkpt lat="42.697019080163784" lon="12.172491744663935"><ele>178.25</ele><time>2026-04-12T13:01:56.03Z</time></trkpt><trkpt lat="42.697180781286505" lon="12.17246303527497"><ele>176.5</ele><time>2026-04-12T13:01:57.03Z</time></trkpt><trkpt lat="42.69732953307761" lon="12.172443824081487"><ele>174.75</ele><time>2026-04-12T13:01:58.03Z</time></trkpt><trkpt lat="42.69746594423581" lon="12.172446654712601"><ele>173.0</ele><time>2026-04-12T13:01:59.03Z</time></trkpt><trkpt lat="42.69758871443373" lon="12.172469621838196"><ele>173.0</ele><time>2026-04-12T13:02:00.03Z</time></trkpt><trkpt lat="42.69770756235989" lon="12.172529442381578"><ele>173.0</ele><time>2026-04-12T13:02:01.03Z</time></trkpt><trkpt lat="42.69781732134375" lon="12.172617255565848"><ele>173.0</ele><time>2026-04-12T13:02:02.03Z</time></trkpt><trkpt lat="42.697923717869855" lon="12.172732355075942"><ele>173.0</ele><time>2026-04-12T13:02:03.03Z</time></trkpt><trkpt lat="42.698020532135985" lon="12.172856751168595"><ele>172.25</ele><time>2026-04-12T13:02:04.03Z</time></trkpt><trkpt lat="42.69812360012117" lon="12.172973943293238"><ele>171.5</ele><time>2026-04-12T13:02:05.03Z</time></trkpt><trkpt lat="42.69822422031699" lon="12.173086062371897"><ele>170.75</ele><time>2026-04-12T13:02:06.03Z</time></trkpt><trkpt lat="42.69834048303883" lon="12.173170293006235"><ele>170.0</ele><time>2026-04-12T13:02:07.03Z</time></trkpt><trkpt lat="42.69846301191786" lon="12.173239602715457"><ele>167.75</ele><time>2026-04-12T13:02:08.03Z</time></trkpt><trkpt lat="42.698590041494725" lon="12.173276720545099"><ele>165.5</ele><time>2026-04-12T13:02:09.03Z</time></trkpt><trkpt lat="42.69872556308951" lon="12.173288994918838"><ele>163.25</ele><time>2026-04-12T13:02:10.03Z</time></trkpt><trkpt lat="42.69885741789794" lon="12.173277886787782"><ele>161.0</ele><time>2026-04-12T13:02:11.03Z</time></trkpt><trkpt lat="42.698967011581416" lon="12.173268217907724"><ele>161.0</ele><time>2026-04-12T13:02:12.03Z</time></trkpt><trkpt lat="42.69905077085243" lon="12.173286635065649"><ele>161.0</ele><time>2026-04-12T13:02:13.03Z</time></trkpt><trkpt lat="42.699115538192466" lon="12.173338635835032"><ele>161.0</ele><time>2026-04-12T13:02:14.03Z</time></trkpt><trkpt lat="42.699156274790255" lon="12.173425821961446"><ele>161.0</ele><time>2026-04-12T13:02:15.03Z</time></trkpt><trkpt lat="42.699177426634535" lon="12.173546268147136"><ele>161.0</ele><time>2026-04-12T13:02:16.03Z</time></trkpt><trkpt lat="42.699182619420725" lon="12.17369814658412"><ele>161.0</ele><time>2026-04-12T13:02:17.032Z</time></trkpt><trkpt lat="42.699211383561924" lon="12.173881668391198"><ele>161.0</ele><time>2026-04-12T13:02:18.032Z</time></trkpt><trkpt lat="42.699221555130286" lon="12.17406256177386"><ele>161.0</ele><time>2026-04-12T13:02:19.032Z</time></trkpt><trkpt lat="42.69920372527363" lon="12.174237683623632"><ele>161.0</ele><time>2026-04-12T13:02:20.032Z</time></trkpt><trkpt lat="42.69915623134848" lon="12.174399077030413"><ele>161.0</ele><time>2026-04-12T13:02:21.032Z</time></trkpt><trkpt lat="42.69909088390223" lon="12.174540527249235"><ele>161.0</ele><time>2026-04-12T13:02:22.032Z</time></trkpt><trkpt lat="42.699030643801414" lon="12.174674221841205"><ele>161.0</ele><time>2026-04-12T13:02:23.032Z</time></trkpt><trkpt lat="42.698995784470384" lon="12.174829749795373"><ele>161.0</ele><time>2026-04-12T13:02:24.032Z</time></trkpt><trkpt lat="42.69898811450089" lon="12.175009904223774"><ele>161.0</ele><time>2026-04-12T13:02:25.032Z</time></trkpt><trkpt lat="42.698972997199476" lon="12.175198801951042"><ele>158.33333333333331</ele><time>2026-04-12T13:02:26.032Z</time></trkpt><trkpt lat="42.69897598189196" lon="12.175410854796926"><ele>155.66666666666666</ele><time>2026-04-12T13:02:27.033Z</time></trkpt><trkpt lat="42.69894824743388" lon="12.175622274570722"><ele>153.0</ele><time>2026-04-12T13:02:28.033Z</time></trkpt><trkpt lat="42.69890846603966" lon="12.175844370670584"><ele>151.0</ele><time>2026-04-12T13:02:29.032Z</time></trkpt><trkpt lat="42.69883685643421" lon="12.17603701835341"><ele>149.0</ele><time>2026-04-12T13:02:30.032Z</time></trkpt><trkpt lat="42.698773910990695" lon="12.176232786224876"><ele>147.0</ele><time>2026-04-12T13:02:31.032Z</time></trkpt><trkpt lat="42.69870369026443" lon="12.176426745214807"><ele>142.33333333333334</ele><time>2026-04-12T13:02:32.032Z</time></trkpt><trkpt lat="42.69862275162452" lon="12.176600806510109"><ele>137.66666666666669</ele><time>2026-04-12T13:02:33.032Z</time></trkpt><trkpt lat="42.698531743121855" lon="12.176767370185944"><ele>133.0</ele><time>2026-04-12T13:02:34.032Z</time></trkpt><trkpt lat="42.69845072539425" lon="12.17693478887013"><ele>136.25</ele><time>2026-04-12T13:02:35.032Z</time></trkpt><trkpt lat="42.69837948005118" lon="12.177087829806736"><ele>139.5</ele><time>2026-04-12T13:02:36.032Z</time></trkpt><trkpt lat="42.69832800673045" lon="12.177239878853468"><ele>142.75</ele><time>2026-04-12T13:02:37.032Z</time></trkpt><trkpt lat="42.698234590939386" lon="12.177348308228872"><ele>146.0</ele><time>2026-04-12T13:02:38.032Z</time></trkpt><trkpt lat="42.69813524908998" lon="12.17742962529643"><ele>146.0</ele><time>2026-04-12T13:02:39.032Z</time></trkpt><trkpt lat="42.6980364225664" lon="12.177490278060096"><ele>146.0</ele><time>2026-04-12T13:02:40.032Z</time></trkpt><trkpt lat="42.697930422636425" lon="12.177551758075296"><ele>146.0</ele><time>2026-04-12T13:02:41.032Z</time></trkpt><trkpt lat="42.69785204240823" lon="12.177625446787058"><ele>146.0</ele><time>2026-04-12T13:02:42.032Z</time></trkpt><trkpt lat="42.697806512101806" lon="12.177697467456342"><ele>146.0</ele><time>2026-04-12T13:02:43.032Z</time></trkpt><trkpt lat="42.69778554671671" lon="12.177782984908795"><ele>146.0</ele><time>2026-04-12T13:02:44.032Z</time></trkpt><trkpt lat="42.697807609326325" lon="12.177886964955547"><ele>146.0</ele><time>2026-04-12T13:02:45.032Z</time></trkpt><trkpt lat="42.69790695062229" lon="12.177943838170279"><ele>146.0</ele><time>2026-04-12T13:02:46.032Z</time></trkpt><trkpt lat="42.69798942863097" lon="12.177901864467362"><ele>146.0</ele><time>2026-04-12T13:02:47.032Z</time></trkpt><trkpt lat="42.698078759120705" lon="12.177819717781944"><ele>146.0</ele><time>2026-04-12T13:02:48.032Z</time></trkpt><trkpt lat="42.6981875851931" lon="12.177728274231185"><ele>146.0</ele><time>2026-04-12T13:02:49.032Z</time></trkpt><trkpt lat="42.69830636422306" lon="12.177623335734014"><ele>146.0</ele><time>2026-04-12T13:02:50.032Z</time></trkpt><trkpt lat="42.6984268955245" lon="12.177489138769166"><ele>146.0</ele><time>2026-04-12T13:02:51.032Z</time></trkpt><trkpt lat="42.698531826090225" lon="12.177344811993867"><ele>146.0</ele><time>2026-04-12T13:02:52.032Z</time></trkpt><trkpt lat="42.698633578501855" lon="12.177203715727822"><ele>141.66666666666666</ele><time>2026-04-12T13:02:53.032Z</time></trkpt><trkpt lat="42.69874482160699" lon="12.177072040481383"><ele>137.33333333333334</ele><time>2026-04-12T13:02:54.032Z</time></trkpt><trkpt lat="42.69888087722508" lon="12.176936853771428"><ele>133.0</ele><time>2026-04-12T13:02:55.032Z</time></trkpt><trkpt lat="42.699010791374455" lon="12.176788793652376"><ele>133.0</ele><time>2026-04-12T13:02:56.032Z</time></trkpt><trkpt lat="42.69912932634584" lon="12.176627979668586"><ele>133.0</ele><time>2026-04-12T13:02:57.032Z</time></trkpt><trkpt lat="42.69922963977999" lon="12.176447287319661"><ele>133.0</ele><time>2026-04-12T13:02:58.032Z</time></trkpt><trkpt lat="42.69931933397399" lon="12.176260245601725"><ele>129.33333333333334</ele><time>2026-04-12T13:02:59.032Z</time></trkpt><trkpt lat="42.69940685112554" lon="12.17606448539823"><ele>125.66666666666666</ele><time>2026-04-12T13:03:00.032Z</time></trkpt><trkpt lat="42.699498291633184" lon="12.175865792415966"><ele>122.0</ele><time>2026-04-12T13:03:01.032Z</time></trkpt><trkpt lat="42.69959895970756" lon="12.175682251417934"><ele>122.0</ele><time>2026-04-12T13:03:02.032Z</time></trkpt><trkpt lat="42.69969924179404" lon="12.17547794699173"><ele>122.0</ele><time>2026-04-12T13:03:03.032Z</time></trkpt><trkpt lat="42.69978202757376" lon="12.175272863690111"><ele>122.0</ele><time>2026-04-12T13:03:04.032Z</time></trkpt><trkpt lat="42.69985187669355" lon="12.175062233063885"><ele>125.33333333333333</ele><time>2026-04-12T13:03:05.032Z</time></trkpt><trkpt lat="42.69991461494432" lon="12.17485027943043"><ele>128.66666666666666</ele><time>2026-04-12T13:03:06.032Z</time></trkpt><trkpt lat="42.69999483186837" lon="12.174619453332706"><ele>132.0</ele><time>2026-04-12T13:03:07.032Z</time></trkpt><trkpt lat="42.70009157685342" lon="12.174378183175271"><ele>132.0</ele><time>2026-04-12T13:03:08.032Z</time></trkpt><trkpt lat="42.70018419675353" lon="12.174152618263129"><ele>132.0</ele><time>2026-04-12T13:03:09.032Z</time></trkpt><trkpt lat="42.70027821884184" lon="12.173924279051882"><ele>132.0</ele><time>2026-04-12T13:03:10.032Z</time></trkpt><trkpt lat="42.7003704875788" lon="12.173702554454463"><ele>125.66666666666666</ele><time>2026-04-12T13:03:11.032Z</time></trkpt><trkpt lat="42.70046143174101" lon="12.17348401286595"><ele>119.33333333333333</ele><time>2026-04-12T13:03:12.032Z</time></trkpt><trkpt lat="42.70055338283622" lon="12.173264240133557"><ele>113.0</ele><time>2026-04-12T13:03:13.032Z</time></trkpt><trkpt lat="42.70064575431733" lon="12.173045181594068"><ele>113.0</ele><time>2026-04-12T13:03:14.032Z</time></trkpt><trkpt lat="42.70074033720629" lon="12.172822691063226"><ele>113.0</ele><time>2026-04-12T13:03:15.032Z</time></trkpt><trkpt lat="42.700829038067546" lon="12.172585493822309"><ele>113.0</ele><time>2026-04-12T13:03:16.032Z</time></trkpt><trkpt lat="42.700933521354465" lon="12.172364149738108"><ele>112.33333333333333</ele><time>2026-04-12T13:03:17.032Z</time></trkpt><trkpt lat="42.70102531229246" lon="12.172145526713487"><ele>111.66666666666666</ele><time>2026-04-12T13:03:18.032Z</time></trkpt><trkpt lat="42.70111819832332" lon="12.171932517362594"><ele>111.0</ele><time>2026-04-12T13:03:19.032Z</time></trkpt><trkpt lat="42.70121671766577" lon="12.171729345163445"><ele>113.33333333333334</ele><time>2026-04-12T13:03:20.032Z</time></trkpt><trkpt lat="42.701318571555234" lon="12.171523086054448"><ele>115.66666666666667</ele><time>2026-04-12T13:03:21.032Z</time></trkpt><trkpt lat="42.701419092883675" lon="12.1713230654314"><ele>118.0</ele><time>2026-04-12T13:03:22.032Z</time></trkpt><trkpt lat="42.701510448061036" lon="12.17112113682179"><ele>118.0</ele><time>2026-04-12T13:03:23.032Z</time></trkpt><trkpt lat="42.70161047459561" lon="12.170910548544583"><ele>118.0</ele><time>2026-04-12T13:03:24.032Z</time></trkpt><trkpt lat="42.70166311807487" lon="12.17067462758503"><ele>118.0</ele><time>2026-04-12T13:03:25.032Z</time></trkpt><trkpt lat="42.701716868242706" lon="12.170439674235563"><ele>122.33333333333334</ele><time>2026-04-12T13:03:26.032Z</time></trkpt><trkpt lat="42.701790020058425" lon="12.170205390862973"><ele>126.66666666666666</ele><time>2026-04-12T13:03:27.032Z</time></trkpt><trkpt lat="42.70185470065371" lon="12.169946108026085"><ele>131.0</ele><time>2026-04-12T13:03:28.032Z</time></trkpt><trkpt lat="42.70190401863516" lon="12.169694885507436"><ele>126.33333333333333</ele><time>2026-04-12T13:03:29.032Z</time></trkpt><trkpt lat="42.70196726192232" lon="12.169444605042706"><ele>121.66666666666666</ele><time>2026-04-12T13:03:30.032Z</time></trkpt><trkpt lat="42.70202876308926" lon="12.169206312296248"><ele>117.0</ele><time>2026-04-12T13:03:31.032Z</time></trkpt><trkpt lat="42.702087058216435" lon="12.168975597997683"><ele>117.0</ele><time>2026-04-12T13:03:32.032Z</time></trkpt><trkpt lat="42.70214775099944" lon="12.168743928634564"><ele>117.0</ele><time>2026-04-12T13:03:33.032Z</time></trkpt><trkpt lat="42.702209550908734" lon="12.168507383972555"><ele>117.0</ele><time>2026-04-12T13:03:34.032Z</time></trkpt><trkpt lat="42.70226968028638" lon="12.168265284276176"><ele>120.33333333333334</ele><time>2026-04-12T13:03:35.032Z</time></trkpt><trkpt lat="42.70233020322626" lon="12.168021231388023"><ele>123.66666666666667</ele><time>2026-04-12T13:03:36.032Z</time></trkpt><trkpt lat="42.702389575822" lon="12.1677917812979"><ele>127.0</ele><time>2026-04-12T13:03:37.032Z</time></trkpt><trkpt lat="42.702446703429004" lon="12.167569550125698"><ele>131.0</ele><time>2026-04-12T13:03:38.032Z</time></trkpt><trkpt lat="42.7025081693122" lon="12.167355337353321"><ele>135.0</ele><time>2026-04-12T13:03:39.032Z</time></trkpt><trkpt lat="42.702567308758724" lon="12.167147410257503"><ele>139.0</ele><time>2026-04-12T13:03:40.032Z</time></trkpt><trkpt lat="42.70263189534348" lon="12.16693477991713"><ele>139.0</ele><time>2026-04-12T13:03:41.032Z</time></trkpt><trkpt lat="42.702698331934656" lon="12.166719333609892"><ele>139.0</ele><time>2026-04-12T13:03:42.032Z</time></trkpt><trkpt lat="42.7027770286832" lon="12.166492233505615"><ele>139.0</ele><time>2026-04-12T13:03:43.032Z</time></trkpt><trkpt lat="42.702855629571516" lon="12.166261273094433"><ele>133.0</ele><time>2026-04-12T13:03:44.032Z</time></trkpt><trkpt lat="42.70293470629539" lon="12.16603047489978"><ele>127.0</ele><time>2026-04-12T13:03:45.032Z</time></trkpt><trkpt lat="42.703023094966696" lon="12.165785680356484"><ele>121.0</ele><time>2026-04-12T13:03:46.032Z</time></trkpt><trkpt lat="42.70311031164664" lon="12.165532989366598"><ele>121.0</ele><time>2026-04-12T13:03:47.032Z</time></trkpt><trkpt lat="42.70320158309649" lon="12.16527825420857"><ele>121.0</ele><time>2026-04-12T13:03:48.032Z</time></trkpt><trkpt lat="42.703299004540476" lon="12.165009517837396"><ele>121.0</ele><time>2026-04-12T13:03:49.032Z</time></trkpt><trkpt lat="42.703363985800905" lon="12.164750675493906"><ele>120.33333333333334</ele><time>2026-04-12T13:03:50.032Z</time></trkpt><trkpt lat="42.70342467228238" lon="12.164496978453345"><ele>119.66666666666666</ele><time>2026-04-12T13:03:51.032Z</time></trkpt><trkpt lat="42.703483321664265" lon="12.164279709603967"><ele>119.0</ele><time>2026-04-12T13:03:52.032Z</time></trkpt><trkpt lat="42.703529342481" lon="12.16408393022218"><ele>119.33333333333333</ele><time>2026-04-12T13:03:53.032Z</time></trkpt><trkpt lat="42.70357288705376" lon="12.163879567702587"><ele>119.66666666666666</ele><time>2026-04-12T13:03:54.032Z</time></trkpt><trkpt lat="42.70362806758428" lon="12.16367178474163"><ele>120.0</ele><time>2026-04-12T13:03:55.032Z</time></trkpt><trkpt lat="42.70369752557926" lon="12.163464105300825"><ele>117.0</ele><time>2026-04-12T13:03:56.032Z</time></trkpt><trkpt lat="42.703775736537374" lon="12.163257907448601"><ele>114.0</ele><time>2026-04-12T13:03:57.032Z</time></trkpt><trkpt lat="42.70385597399305" lon="12.163045345576974"><ele>111.0</ele><time>2026-04-12T13:03:58.032Z</time></trkpt><trkpt lat="42.70393355090069" lon="12.162830957469314"><ele>111.0</ele><time>2026-04-12T13:03:59.032Z</time></trkpt><trkpt lat="42.7040085404771" lon="12.162615278641317"><ele>111.0</ele><time>2026-04-12T13:04:00.032Z</time></trkpt><trkpt lat="42.70408282580141" lon="12.16240537203208"><ele>111.0</ele><time>2026-04-12T13:04:01.032Z</time></trkpt><trkpt lat="42.70414853320437" lon="12.162205192673897"><ele>111.0</ele><time>2026-04-12T13:04:02.032Z</time></trkpt><trkpt lat="42.70422100112106" lon="12.161999646879188"><ele>111.0</ele><time>2026-04-12T13:04:03.032Z</time></trkpt><trkpt lat="42.70429268574072" lon="12.16179385804929"><ele>111.0</ele><time>2026-04-12T13:04:04.032Z</time></trkpt><trkpt lat="42.704367532385085" lon="12.16159077213504"><ele>111.33333333333334</ele><time>2026-04-12T13:04:05.032Z</time></trkpt><trkpt lat="42.70443937951773" lon="12.161393604028508"><ele>111.66666666666667</ele><time>2026-04-12T13:04:06.032Z</time></trkpt><trkpt lat="42.70450659886604" lon="12.161202066262382"><ele>112.0</ele><time>2026-04-12T13:04:07.032Z</time></trkpt><trkpt lat="42.70457211100489" lon="12.161024766516242"><ele>112.0</ele><time>2026-04-12T13:04:08.032Z</time></trkpt><trkpt lat="42.704627204881504" lon="12.160880927588503"><ele>111.99999999999999</ele><time>2026-04-12T13:04:09.032Z</time></trkpt><trkpt lat="42.70467772532734" lon="12.16076861260996"><ele>111.99999999999999</ele><time>2026-04-12T13:04:10.032Z</time></trkpt><trkpt lat="42.704731288891466" lon="12.160699925097278"><ele>112.0</ele><time>2026-04-12T13:04:11.032Z</time></trkpt><trkpt lat="42.70484526283815" lon="12.160704899063445"><ele>112.0</ele><time>2026-04-12T13:04:13.032Z</time></trkpt><trkpt lat="42.70491129052221" lon="12.16075273298517"><ele>112.0</ele><time>2026-04-12T13:04:14.032Z</time></trkpt><trkpt lat="42.704990265961975" lon="12.160794634072783"><ele>111.99999999999999</ele><time>2026-04-12T13:04:15.032Z</time></trkpt><trkpt lat="42.70506872620913" lon="12.160851996426318"><ele>111.99999999999999</ele><time>2026-04-12T13:04:16.032Z</time></trkpt><trkpt lat="42.70512066607242" lon="12.160900487063895"><ele>112.0</ele><time>2026-04-12T13:04:17.032Z</time></trkpt><trkpt lat="42.70518238013381" lon="12.160920099573435"><ele>112.0</ele><time>2026-04-12T13:04:19.032Z</time></trkpt><trkpt lat="42.70531339104966" lon="12.160783569986643"><ele>111.25</ele><time>2026-04-12T13:04:24.035Z</time></trkpt><trkpt lat="42.70538097968402" lon="12.160667826713139"><ele>110.5</ele><time>2026-04-12T13:04:25.035Z</time></trkpt><trkpt lat="42.70544949873518" lon="12.160521488709943"><ele>109.75</ele><time>2026-04-12T13:04:26.034Z</time></trkpt><trkpt lat="42.705531622626374" lon="12.160345660475546"><ele>109.0</ele><time>2026-04-12T13:04:27.034Z</time></trkpt><trkpt lat="42.70562678891104" lon="12.16016364402437"><ele>109.0</ele><time>2026-04-12T13:04:28.034Z</time></trkpt><trkpt lat="42.705735113245595" lon="12.159963866152612"><ele>109.0</ele><time>2026-04-12T13:04:29.035Z</time></trkpt><trkpt lat="42.705829090982746" lon="12.159760182292162"><ele>109.0</ele><time>2026-04-12T13:04:30.034Z</time></trkpt><trkpt lat="42.70593729328524" lon="12.159553728843688"><ele>109.33333333333334</ele><time>2026-04-12T13:04:31.034Z</time></trkpt><trkpt lat="42.706064236175635" lon="12.15934859053064"><ele>109.66666666666666</ele><time>2026-04-12T13:04:32.035Z</time></trkpt><trkpt lat="42.70617978341467" lon="12.159143818581924"><ele>110.0</ele><time>2026-04-12T13:04:33.035Z</time></trkpt><trkpt lat="42.70630065179183" lon="12.158948154400123"><ele>110.66666666666666</ele><time>2026-04-12T13:04:34.035Z</time></trkpt><trkpt lat="42.70644697706539" lon="12.158739994364463"><ele>111.33333333333334</ele><time>2026-04-12T13:04:35.035Z</time></trkpt><trkpt lat="42.706610445301195" lon="12.158522509932851"><ele>112.0</ele><time>2026-04-12T13:04:36.035Z</time></trkpt><trkpt lat="42.70681752725599" lon="12.158263057746877"><ele>112.0</ele><time>2026-04-12T13:04:37.035Z</time></trkpt><trkpt lat="42.70701515625846" lon="12.158028583489397"><ele>112.0</ele><time>2026-04-12T13:04:38.035Z</time></trkpt><trkpt lat="42.707197403737176" lon="12.157811864817734"><ele>112.0</ele><time>2026-04-12T13:04:39.035Z</time></trkpt><trkpt lat="42.70736883990776" lon="12.15760800261686"><ele>112.0</ele><time>2026-04-12T13:04:40.035Z</time></trkpt><trkpt lat="42.70754300028671" lon="12.157400900839772"><ele>111.5</ele><time>2026-04-12T13:04:41.035Z</time></trkpt><trkpt lat="42.70772239150995" lon="12.157188010035227"><ele>111.0</ele><time>2026-04-12T13:04:42.035Z</time></trkpt><trkpt lat="42.707897910668976" lon="12.156980884769075"><ele>111.0</ele><time>2026-04-12T13:04:43.035Z</time></trkpt><trkpt lat="42.70807148552106" lon="12.156776053696678"><ele>111.0</ele><time>2026-04-12T13:04:44.035Z</time></trkpt><trkpt lat="42.708243078414895" lon="12.156571299533367"><ele>109.5</ele><time>2026-04-12T13:04:45.035Z</time></trkpt><trkpt lat="42.708418391347784" lon="12.15636138131496"><ele>108.0</ele><time>2026-04-12T13:04:46.035Z</time></trkpt><trkpt lat="42.7085935995106" lon="12.156151688842836"><ele>108.0</ele><time>2026-04-12T13:04:47.035Z</time></trkpt><trkpt lat="42.70876909526322" lon="12.155942403680124"><ele>108.0</ele><time>2026-04-12T13:04:48.035Z</time></trkpt><trkpt lat="42.70910701494741" lon="12.155543757808038"><ele>108.66666666666666</ele><time>2026-04-12T13:04:50.035Z</time></trkpt><trkpt lat="42.709269155825346" lon="12.1553521104116"><ele>109.33333333333333</ele><time>2026-04-12T13:04:51.035Z</time></trkpt><trkpt lat="42.709429425593704" lon="12.155162550722215"><ele>110.0</ele><time>2026-04-12T13:04:52.035Z</time></trkpt><trkpt lat="42.709593119618305" lon="12.15496870181192"><ele>111.0</ele><time>2026-04-12T13:04:53.035Z</time></trkpt><trkpt lat="42.70975173830475" lon="12.154780093409167"><ele>112.0</ele><time>2026-04-12T13:04:54.035Z</time></trkpt><trkpt lat="42.70990801296017" lon="12.15459427322348"><ele>113.0</ele><time>2026-04-12T13:04:55.035Z</time></trkpt><trkpt lat="42.710062927219255" lon="12.154409556551856"><ele>113.0</ele><time>2026-04-12T13:04:56.035Z</time></trkpt><trkpt lat="42.710226340183084" lon="12.15419884733047"><ele>113.0</ele><time>2026-04-12T13:04:57.035Z</time></trkpt><trkpt lat="42.71041248129392" lon="12.15397989404979"><ele>111.0</ele><time>2026-04-12T13:04:58.035Z</time></trkpt><trkpt lat="42.71059404400657" lon="12.153773677513842"><ele>109.0</ele><time>2026-04-12T13:04:59.035Z</time></trkpt><trkpt lat="42.7107699241155" lon="12.153571882151052"><ele>109.0</ele><time>2026-04-12T13:05:00.035Z</time></trkpt><trkpt lat="42.710934661960835" lon="12.153355455653221"><ele>109.0</ele><time>2026-04-12T13:05:01.035Z</time></trkpt><trkpt lat="42.71107991910738" lon="12.153130347844408"><ele>109.0</ele><time>2026-04-12T13:05:02.035Z</time></trkpt><trkpt lat="42.71120515404689" lon="12.152892481439704"><ele>109.66666666666667</ele><time>2026-04-12T13:05:03.035Z</time></trkpt><trkpt lat="42.71131257759922" lon="12.152667040997585"><ele>110.33333333333334</ele><time>2026-04-12T13:05:04.035Z</time></trkpt><trkpt lat="42.71141600507662" lon="12.152464053344481"><ele>111.0</ele><time>2026-04-12T13:05:05.035Z</time></trkpt><trkpt lat="42.71150759236782" lon="12.152268726648511"><ele>111.0</ele><time>2026-04-12T13:05:06.035Z</time></trkpt><trkpt lat="42.71156855663224" lon="12.15205305705981"><ele>111.0</ele><time>2026-04-12T13:05:07.035Z</time></trkpt><trkpt lat="42.71165598076038" lon="12.151830870323169"><ele>111.0</ele><time>2026-04-12T13:05:08.035Z</time></trkpt><trkpt lat="42.71174963798444" lon="12.151605680521243"><ele>110.66666666666666</ele><time>2026-04-12T13:05:09.035Z</time></trkpt><trkpt lat="42.71184286774799" lon="12.151391481666224"><ele>110.33333333333333</ele><time>2026-04-12T13:05:10.035Z</time></trkpt><trkpt lat="42.71193802583036" lon="12.151184397238955"><ele>110.0</ele><time>2026-04-12T13:05:11.035Z</time></trkpt><trkpt lat="42.71203135414342" lon="12.15098938129794"><ele>110.0</ele><time>2026-04-12T13:05:12.035Z</time></trkpt><trkpt lat="42.71212957044807" lon="12.150795182758158"><ele>110.0</ele><time>2026-04-12T13:05:13.035Z</time></trkpt><trkpt lat="42.71222868195926" lon="12.150628221821327"><ele>110.0</ele><time>2026-04-12T13:05:14.035Z</time></trkpt><trkpt lat="42.712338363156356" lon="12.150477870300955"><ele>110.75</ele><time>2026-04-12T13:05:15.035Z</time></trkpt><trkpt lat="42.71244249404574" lon="12.150343949464"><ele>111.5</ele><time>2026-04-12T13:05:16.035Z</time></trkpt><trkpt lat="42.71254944168637" lon="12.150195349954501"><ele>112.25</ele><time>2026-04-12T13:05:17.035Z</time></trkpt><trkpt lat="42.71264583819184" lon="12.150058595463692"><ele>113.0</ele><time>2026-04-12T13:05:18.035Z</time></trkpt><trkpt lat="42.71273132948913" lon="12.149928195910126"><ele>113.5</ele><time>2026-04-12T13:05:19.035Z</time></trkpt><trkpt lat="42.712814057589966" lon="12.14979487090216"><ele>114.0</ele><time>2026-04-12T13:05:20.035Z</time></trkpt><trkpt lat="42.71289136696336" lon="12.149671202912222"><ele>114.5</ele><time>2026-04-12T13:05:21.035Z</time></trkpt><trkpt lat="42.712959562981105" lon="12.149547462112434"><ele>115.0</ele><time>2026-04-12T13:05:22.035Z</time></trkpt><trkpt lat="42.71301827039559" lon="12.149400164949382"><ele>115.0</ele><time>2026-04-12T13:05:23.035Z</time></trkpt><trkpt lat="42.713069686712736" lon="12.149240669169892"><ele>115.0</ele><time>2026-04-12T13:05:24.035Z</time></trkpt><trkpt lat="42.71310828480774" lon="12.149084746045649"><ele>115.0</ele><time>2026-04-12T13:05:25.035Z</time></trkpt><trkpt lat="42.71314463063495" lon="12.14891854013878"><ele>115.0</ele><time>2026-04-12T13:05:26.035Z</time></trkpt><trkpt lat="42.71317416371447" lon="12.148756811653262"><ele>115.25</ele><time>2026-04-12T13:05:27.035Z</time></trkpt><trkpt lat="42.71321420433547" lon="12.148592623916716"><ele>115.5</ele><time>2026-04-12T13:05:28.035Z</time></trkpt><trkpt lat="42.71328045693748" lon="12.148437435549436"><ele>115.75</ele><time>2026-04-12T13:05:29.035Z</time></trkpt><trkpt lat="42.71336389314352" lon="12.148295287877422"><ele>116.0</ele><time>2026-04-12T13:05:30.035Z</time></trkpt><trkpt lat="42.7134545470775" lon="12.148163021052556"><ele>116.0</ele><time>2026-04-12T13:05:31.035Z</time></trkpt><trkpt lat="42.71354802714778" lon="12.148042914736967"><ele>116.0</ele><time>2026-04-12T13:05:32.035Z</time></trkpt><trkpt lat="42.71365097128125" lon="12.14792452622489"><ele>116.0</ele><time>2026-04-12T13:05:33.035Z</time></trkpt><trkpt lat="42.713748300268605" lon="12.14781938669588"><ele>116.0</ele><time>2026-04-12T13:05:34.035Z</time></trkpt><trkpt lat="42.71384390811318" lon="12.147722716379263"><ele>116.0</ele><time>2026-04-12T13:05:35.035Z</time></trkpt><trkpt lat="42.713944172707485" lon="12.147632418900157"><ele>116.0</ele><time>2026-04-12T13:05:36.035Z</time></trkpt><trkpt lat="42.71404343685454" lon="12.147540111022018"><ele>116.0</ele><time>2026-04-12T13:05:37.035Z</time></trkpt><trkpt lat="42.7141352539568" lon="12.147448743183029"><ele>116.0</ele><time>2026-04-12T13:05:38.035Z</time></trkpt><trkpt lat="42.71422971794769" lon="12.1473606857611"><ele>116.5</ele><time>2026-04-12T13:05:39.035Z</time></trkpt><trkpt lat="42.71432018378377" lon="12.147261952885772"><ele>117.0</ele><time>2026-04-12T13:05:40.035Z</time></trkpt><trkpt lat="42.71440042153659" lon="12.147153968729903"><ele>117.5</ele><time>2026-04-12T13:05:41.035Z</time></trkpt><trkpt lat="42.7144778099271" lon="12.147034219886354"><ele>118.0</ele><time>2026-04-12T13:05:42.035Z</time></trkpt><trkpt lat="42.7145531473279" lon="12.146905795284997"><ele>116.75</ele><time>2026-04-12T13:05:43.035Z</time></trkpt><trkpt lat="42.714625933127195" lon="12.146773436982487"><ele>115.5</ele><time>2026-04-12T13:05:44.035Z</time></trkpt><trkpt lat="42.714698289948736" lon="12.146647408042568"><ele>114.25</ele><time>2026-04-12T13:05:45.035Z</time></trkpt><trkpt lat="42.71477195403531" lon="12.146516274571015"><ele>113.0</ele><time>2026-04-12T13:05:46.035Z</time></trkpt><trkpt lat="42.71484737154642" lon="12.146388927421263"><ele>112.75</ele><time>2026-04-12T13:05:47.035Z</time></trkpt><trkpt lat="42.714923046086405" lon="12.146260042375292"><ele>112.5</ele><time>2026-04-12T13:05:48.035Z</time></trkpt><trkpt lat="42.71500004497496" lon="12.146130710883615"><ele>112.25</ele><time>2026-04-12T13:05:49.035Z</time></trkpt><trkpt lat="42.715074666678426" lon="12.146002910387075"><ele>112.0</ele><time>2026-04-12T13:05:50.035Z</time></trkpt><trkpt lat="42.71514941106155" lon="12.145874869340126"><ele>112.0</ele><time>2026-04-12T13:05:51.035Z</time></trkpt><trkpt lat="42.71522349881913" lon="12.145744737261241"><ele>112.0</ele><time>2026-04-12T13:05:52.035Z</time></trkpt><trkpt lat="42.715297351156224" lon="12.145615978091534"><ele>112.0</ele><time>2026-04-12T13:05:53.035Z</time></trkpt><trkpt lat="42.71537678130575" lon="12.145484365634493"><ele>112.0</ele><time>2026-04-12T13:05:54.035Z</time></trkpt><trkpt lat="42.71545717165812" lon="12.145355484992782"><ele>112.25</ele><time>2026-04-12T13:05:55.035Z</time></trkpt><trkpt lat="42.71553958621993" lon="12.14522183778087"><ele>112.5</ele><time>2026-04-12T13:05:56.035Z</time></trkpt><trkpt lat="42.715623170928176" lon="12.14508584487941"><ele>112.75</ele><time>2026-04-12T13:05:57.035Z</time></trkpt><trkpt lat="42.715706576349696" lon="12.144950491319234"><ele>113.0</ele><time>2026-04-12T13:05:58.035Z</time></trkpt><trkpt lat="42.71579313426964" lon="12.14481755568488"><ele>113.0</ele><time>2026-04-12T13:05:59.035Z</time></trkpt><trkpt lat="42.71588112039402" lon="12.144676706103821"><ele>113.0</ele><time>2026-04-12T13:06:00.035Z</time></trkpt><trkpt lat="42.71597014535204" lon="12.144532900589518"><ele>113.0</ele><time>2026-04-12T13:06:01.035Z</time></trkpt><trkpt lat="42.71605806758075" lon="12.144386648774335"><ele>113.0</ele><time>2026-04-12T13:06:02.035Z</time></trkpt><trkpt lat="42.71614471491642" lon="12.144243459258467"><ele>112.75</ele><time>2026-04-12T13:06:03.035Z</time></trkpt><trkpt lat="42.716232065431576" lon="12.144091889642493"><ele>112.5</ele><time>2026-04-12T13:06:04.035Z</time></trkpt><trkpt lat="42.71631955213821" lon="12.143946810401642"><ele>112.25</ele><time>2026-04-12T13:06:05.035Z</time></trkpt><trkpt lat="42.716405128696366" lon="12.143800343904806"><ele>112.0</ele><time>2026-04-12T13:06:06.035Z</time></trkpt><trkpt lat="42.71649253960345" lon="12.143654996837741"><ele>112.0</ele><time>2026-04-12T13:06:07.035Z</time></trkpt><trkpt lat="42.71658210792008" lon="12.14350585334996"><ele>112.0</ele><time>2026-04-12T13:06:08.035Z</time></trkpt><trkpt lat="42.716667979590454" lon="12.14336222805133"><ele>112.0</ele><time>2026-04-12T13:06:09.035Z</time></trkpt><trkpt lat="42.71675196473237" lon="12.143222892446733"><ele>112.0</ele><time>2026-04-12T13:06:10.035Z</time></trkpt><trkpt lat="42.71683685999652" lon="12.1430801463572"><ele>112.25</ele><time>2026-04-12T13:06:11.035Z</time></trkpt><trkpt lat="42.71692323955793" lon="12.142937640265714"><ele>112.5</ele><time>2026-04-12T13:06:12.035Z</time></trkpt><trkpt lat="42.71700832522344" lon="12.142796453751162"><ele>112.75</ele><time>2026-04-12T13:06:13.035Z</time></trkpt><trkpt lat="42.71709432033044" lon="12.142656188740656"><ele>113.0</ele><time>2026-04-12T13:06:14.035Z</time></trkpt><trkpt lat="42.717180473890814" lon="12.142518607034464"><ele>113.0</ele><time>2026-04-12T13:06:15.035Z</time></trkpt><trkpt lat="42.71726299152026" lon="12.142384351790058"><ele>113.0</ele><time>2026-04-12T13:06:16.035Z</time></trkpt><trkpt lat="42.71734200486021" lon="12.142245210901521"><ele>113.0</ele><time>2026-04-12T13:06:17.035Z</time></trkpt><trkpt lat="42.71742074412386" lon="12.142109497468773"><ele>113.0</ele><time>2026-04-12T13:06:18.035Z</time></trkpt><trkpt lat="42.71749748987911" lon="12.141977672598083"><ele>113.0</ele><time>2026-04-12T13:06:19.035Z</time></trkpt><trkpt lat="42.71757464482729" lon="12.141856240584623"><ele>113.00000000000001</ele><time>2026-04-12T13:06:20.035Z</time></trkpt><trkpt lat="42.717664890071006" lon="12.141752825461067"><ele>113.00000000000001</ele><time>2026-04-12T13:06:21.035Z</time></trkpt><trkpt lat="42.71776056749837" lon="12.141679927132403"><ele>113.0</ele><time>2026-04-12T13:06:22.035Z</time></trkpt><trkpt lat="42.717856236641076" lon="12.141644535247323"><ele>113.0</ele><time>2026-04-12T13:06:23.035Z</time></trkpt><trkpt lat="42.71795825324136" lon="12.141645415968327"><ele>112.66666666666666</ele><time>2026-04-12T13:06:24.035Z</time></trkpt><trkpt lat="42.7180278130353" lon="12.141641966418655"><ele>112.33333333333333</ele><time>2026-04-12T13:06:25.035Z</time></trkpt><trkpt lat="42.718095085328194" lon="12.141593307141635"><ele>112.0</ele><time>2026-04-12T13:06:26.035Z</time></trkpt><trkpt lat="42.71814248141326" lon="12.141503999622003"><ele>111.66666666666666</ele><time>2026-04-12T13:06:27.035Z</time></trkpt><trkpt lat="42.71817884234074" lon="12.141391907288527"><ele>111.33333333333333</ele><time>2026-04-12T13:06:28.037Z</time></trkpt><trkpt lat="42.71818280352288" lon="12.14126653811978"><ele>111.0</ele><time>2026-04-12T13:06:29.037Z</time></trkpt><trkpt lat="42.71817133353141" lon="12.141139429916649"><ele>111.0</ele><time>2026-04-12T13:06:30.037Z</time></trkpt><trkpt lat="42.718173734275716" lon="12.141007121334303"><ele>111.0</ele><time>2026-04-12T13:06:31.037Z</time></trkpt><trkpt lat="42.718215569350455" lon="12.140885401226754"><ele>111.0</ele><time>2026-04-12T13:06:32.037Z</time></trkpt><trkpt lat="42.71827277937604" lon="12.140765177985964"><ele>111.0</ele><time>2026-04-12T13:06:33.037Z</time></trkpt><trkpt lat="42.71833777235606" lon="12.140643777891354"><ele>111.0</ele><time>2026-04-12T13:06:34.037Z</time></trkpt><trkpt lat="42.718412034694694" lon="12.140522104422649"><ele>111.75</ele><time>2026-04-12T13:06:35.037Z</time></trkpt><trkpt lat="42.71849080120399" lon="12.140396501768976"><ele>112.5</ele><time>2026-04-12T13:06:36.037Z</time></trkpt><trkpt lat="42.71857021984331" lon="12.140266001465445"><ele>113.25</ele><time>2026-04-12T13:06:37.037Z</time></trkpt><trkpt lat="42.718653058367224" lon="12.140134605160148"><ele>114.0</ele><time>2026-04-12T13:06:38.037Z</time></trkpt><trkpt lat="42.71873851812944" lon="12.140002286725109"><ele>114.5</ele><time>2026-04-12T13:06:39.037Z</time></trkpt><trkpt lat="42.71881868757907" lon="12.139870671423951"><ele>115.0</ele><time>2026-04-12T13:06:40.037Z</time></trkpt><trkpt lat="42.718897320981185" lon="12.139735979879536"><ele>115.5</ele><time>2026-04-12T13:06:41.038Z</time></trkpt><trkpt lat="42.71897294227236" lon="12.13960014201939"><ele>116.0</ele><time>2026-04-12T13:06:42.038Z</time></trkpt><trkpt lat="42.71904310100391" lon="12.139473517676423"><ele>116.0</ele><time>2026-04-12T13:06:43.038Z</time></trkpt><trkpt lat="42.719107938073286" lon="12.139358896732713"><ele>116.0</ele><time>2026-04-12T13:06:44.038Z</time></trkpt><trkpt lat="42.719165404738305" lon="12.139271395098678"><ele>116.0</ele><time>2026-04-12T13:06:45.038Z</time></trkpt><trkpt lat="42.71920999992435" lon="12.139202168066575"><ele>116.0</ele><time>2026-04-12T13:06:46.038Z</time></trkpt><trkpt lat="42.7192776691756" lon="12.139092913178944"><ele>116.0</ele><time>2026-04-12T13:06:48.038Z</time></trkpt><trkpt lat="42.71933432186649" lon="12.139002455068526"><ele>115.49999999999999</ele><time>2026-04-12T13:06:50.038Z</time></trkpt><trkpt lat="42.71938865324374" lon="12.13890528753058"><ele>115.0</ele><time>2026-04-12T13:06:52.038Z</time></trkpt><trkpt lat="42.71942942132339" lon="12.13882538645805"><ele>114.5</ele><time>2026-04-12T13:06:54.038Z</time></trkpt><trkpt lat="42.719473143532326" lon="12.138745760944039"><ele>114.0</ele><time>2026-04-12T13:06:56.038Z</time></trkpt><trkpt lat="42.71952978097218" lon="12.138651040105652"><ele>113.49999999999999</ele><time>2026-04-12T13:06:59.038Z</time></trkpt><trkpt lat="42.71957389510061" lon="12.13857338400251"><ele>113.0</ele><time>2026-04-12T13:07:02.037Z</time></trkpt><trkpt lat="42.71962288898254" lon="12.138497777673454"><ele>112.99999999999999</ele><time>2026-04-12T13:07:05.037Z</time></trkpt><trkpt lat="42.71967243103269" lon="12.138414955003405"><ele>113.0</ele><time>2026-04-12T13:07:08.037Z</time></trkpt><trkpt lat="42.71971382908219" lon="12.138346618313307"><ele>113.0</ele><time>2026-04-12T13:07:11.037Z</time></trkpt><trkpt lat="42.71976587366028" lon="12.138258318852142"><ele>113.0</ele><time>2026-04-12T13:07:15.037Z</time></trkpt><trkpt lat="42.719819565635184" lon="12.138170144026914"><ele>112.99999999999999</ele><time>2026-04-12T13:07:18.037Z</time></trkpt><trkpt lat="42.71986678130181" lon="12.138078912123317"><ele>113.0</ele><time>2026-04-12T13:07:20.037Z</time></trkpt><trkpt lat="42.71991365836272" lon="12.137981708744835"><ele>113.49999999999999</ele><time>2026-04-12T13:07:22.037Z</time></trkpt><trkpt lat="42.71998146997297" lon="12.137863992384517"><ele>114.0</ele><time>2026-04-12T13:07:24.037Z</time></trkpt><trkpt lat="42.72002125395623" lon="12.137794444185806"><ele>114.5</ele><time>2026-04-12T13:07:25.037Z</time></trkpt><trkpt lat="42.72006511330164" lon="12.137720476761025"><ele>115.0</ele><time>2026-04-12T13:07:26.037Z</time></trkpt><trkpt lat="42.72010912481461" lon="12.137646467667258"><ele>115.49999999999999</ele><time>2026-04-12T13:07:27.037Z</time></trkpt><trkpt lat="42.7201515984343" lon="12.137563145288885"><ele>116.0</ele><time>2026-04-12T13:07:28.037Z</time></trkpt><trkpt lat="42.72019375562763" lon="12.137483823831479"><ele>115.99999999999999</ele><time>2026-04-12T13:07:29.037Z</time></trkpt><trkpt lat="42.720240438539456" lon="12.137399649309693"><ele>116.0</ele><time>2026-04-12T13:07:30.037Z</time></trkpt><trkpt lat="42.72029161766631" lon="12.137310174367514"><ele>116.0</ele><time>2026-04-12T13:07:31.037Z</time></trkpt><trkpt lat="42.72034145510727" lon="12.13722558500072"><ele>116.0</ele><time>2026-04-12T13:07:32.037Z</time></trkpt><trkpt lat="42.72038953267076" lon="12.137140874653978"><ele>115.99999999999999</ele><time>2026-04-12T13:07:33.037Z</time></trkpt><trkpt lat="42.720437166314596" lon="12.13705415276534"><ele>116.0</ele><time>2026-04-12T13:07:34.037Z</time></trkpt><trkpt lat="42.72048510305588" lon="12.13696286436734"><ele>115.99999999999999</ele><time>2026-04-12T13:07:35.037Z</time></trkpt><trkpt lat="42.720538449594535" lon="12.136869971495342"><ele>116.0</ele><time>2026-04-12T13:07:36.037Z</time></trkpt><trkpt lat="42.72059414596117" lon="12.136781449197315"><ele>116.0</ele><time>2026-04-12T13:07:37.037Z</time></trkpt><trkpt lat="42.720651445668096" lon="12.136688451279811"><ele>116.0</ele><time>2026-04-12T13:07:38.037Z</time></trkpt><trkpt lat="42.720713373214096" lon="12.136598464887125"><ele>115.99999999999999</ele><time>2026-04-12T13:07:39.037Z</time></trkpt><trkpt lat="42.72078188319371" lon="12.136513964052545"><ele>116.0</ele><time>2026-04-12T13:07:40.037Z</time></trkpt><trkpt lat="42.72085627273002" lon="12.13642004287658"><ele>116.0</ele><time>2026-04-12T13:07:41.037Z</time></trkpt><trkpt lat="42.720922945054866" lon="12.136320092545466"><ele>116.0</ele><time>2026-04-12T13:07:42.037Z</time></trkpt><trkpt lat="42.72098425117464" lon="12.136211260295681"><ele>116.0</ele><time>2026-04-12T13:07:43.037Z</time></trkpt><trkpt lat="42.72104918273419" lon="12.136102432972228"><ele>116.0</ele><time>2026-04-12T13:07:44.037Z</time></trkpt><trkpt lat="42.72110458357613" lon="12.13598562306683"><ele>116.0</ele><time>2026-04-12T13:07:45.037Z</time></trkpt><trkpt lat="42.72115205996039" lon="12.135858106425259"><ele>116.0</ele><time>2026-04-12T13:07:46.037Z</time></trkpt><trkpt lat="42.72119129657707" lon="12.135725698409844"><ele>116.0</ele><time>2026-04-12T13:07:47.037Z</time></trkpt><trkpt lat="42.72122968666176" lon="12.135595649324364"><ele>116.0</ele><time>2026-04-12T13:07:48.037Z</time></trkpt><trkpt lat="42.721260556017114" lon="12.13546194351792"><ele>116.0</ele><time>2026-04-12T13:07:49.037Z</time></trkpt><trkpt lat="42.72129189262722" lon="12.135336853927312"><ele>116.0</ele><time>2026-04-12T13:07:50.037Z</time></trkpt><trkpt lat="42.72132218745084" lon="12.135220116779314"><ele>116.0</ele><time>2026-04-12T13:07:51.037Z</time></trkpt><trkpt lat="42.721349674378345" lon="12.135110427790057"><ele>116.0</ele><time>2026-04-12T13:07:52.037Z</time></trkpt><trkpt lat="42.72137826864599" lon="12.135005437709065"><ele>116.0</ele><time>2026-04-12T13:07:53.037Z</time></trkpt><trkpt lat="42.72142796328821" lon="12.13492288901072"><ele>116.0</ele><time>2026-04-12T13:07:54.037Z</time></trkpt><trkpt lat="42.72152583688666" lon="12.134816612328542"><ele>116.0</ele><time>2026-04-12T13:07:56.037Z</time></trkpt><trkpt lat="42.72166141903101" lon="12.134893292850169"><ele>116.0</ele><time>2026-04-12T13:07:57.037Z</time></trkpt><trkpt lat="42.721768310308754" lon="12.134899707331076"><ele>116.0</ele><time>2026-04-12T13:07:58.037Z</time></trkpt><trkpt lat="42.72189071240861" lon="12.134964659984641"><ele>116.0</ele><time>2026-04-12T13:07:59.037Z</time></trkpt><trkpt lat="42.72198503889866" lon="12.13510145454696"><ele>116.0</ele><time>2026-04-12T13:08:00.037Z</time></trkpt><trkpt lat="42.72210179312127" lon="12.13518046846747"><ele>116.5</ele><time>2026-04-12T13:08:01.037Z</time></trkpt><trkpt lat="42.7222272460558" lon="12.135264705336171"><ele>117.0</ele><time>2026-04-12T13:08:02.037Z</time></trkpt><trkpt lat="42.722359266859925" lon="12.135351881419714"><ele>117.5</ele><time>2026-04-12T13:08:03.037Z</time></trkpt><trkpt lat="42.722502500818166" lon="12.13543414204649"><ele>118.0</ele><time>2026-04-12T13:08:04.037Z</time></trkpt><trkpt lat="42.7226439513257" lon="12.135506252860344"><ele>117.75</ele><time>2026-04-12T13:08:05.037Z</time></trkpt><trkpt lat="42.72277008359274" lon="12.135561182494973"><ele>117.5</ele><time>2026-04-12T13:08:06.037Z</time></trkpt><trkpt lat="42.72290282389387" lon="12.135606353868665"><ele>117.25</ele><time>2026-04-12T13:08:07.037Z</time></trkpt><trkpt lat="42.72301151358757" lon="12.135628472643374"><ele>117.0</ele><time>2026-04-12T13:08:08.037Z</time></trkpt><trkpt lat="42.723078115624354" lon="12.135694614273497"><ele>116.39999999999999</ele><time>2026-04-12T13:08:09.037Z</time></trkpt><trkpt lat="42.72314213456527" lon="12.135734042883906"><ele>115.79999999999998</ele><time>2026-04-12T13:08:10.037Z</time></trkpt><trkpt lat="42.723234922781245" lon="12.135811509138112"><ele>115.2</ele><time>2026-04-12T13:08:11.037Z</time></trkpt><trkpt lat="42.72332897261741" lon="12.13594409571762"><ele>114.6</ele><time>2026-04-12T13:08:12.037Z</time></trkpt><trkpt lat="42.72340531413891" lon="12.136035677298619"><ele>114.0</ele><time>2026-04-12T13:08:13.037Z</time></trkpt><trkpt lat="42.7234823871142" lon="12.136080855243065"><ele>114.0</ele><time>2026-04-12T13:08:14.037Z</time></trkpt><trkpt lat="42.72356043879863" lon="12.136075343933895"><ele>114.0</ele><time>2026-04-12T13:08:15.037Z</time></trkpt><trkpt lat="42.7236365493229" lon="12.136028105316882"><ele>114.0</ele><time>2026-04-12T13:08:16.037Z</time></trkpt><trkpt lat="42.72370339886303" lon="12.135949302130141"><ele>114.0</ele><time>2026-04-12T13:08:17.037Z</time></trkpt><trkpt lat="42.72377982929134" lon="12.135872600422136"><ele>114.0</ele><time>2026-04-12T13:08:18.037Z</time></trkpt><trkpt lat="42.72387692570571" lon="12.135839062103399"><ele>114.0</ele><time>2026-04-12T13:08:19.037Z</time></trkpt><trkpt lat="42.72398962981807" lon="12.13584537359626"><ele>113.0</ele><time>2026-04-12T13:08:20.037Z</time></trkpt><trkpt lat="42.724137539634434" lon="12.135870144400492"><ele>112.0</ele><time>2026-04-12T13:08:21.037Z</time></trkpt><trkpt lat="42.72431165150123" lon="12.135889720827738"><ele>111.0</ele><time>2026-04-12T13:08:22.037Z</time></trkpt><trkpt lat="42.724495277786374" lon="12.135913456046922"><ele>110.66666666666666</ele><time>2026-04-12T13:08:23.037Z</time></trkpt><trkpt lat="42.724657713365765" lon="12.135938414377044"><ele>110.33333333333333</ele><time>2026-04-12T13:08:24.037Z</time></trkpt><trkpt lat="42.72481150861644" lon="12.135962982296244"><ele>110.0</ele><time>2026-04-12T13:08:25.037Z</time></trkpt><trkpt lat="42.72497351071287" lon="12.13598617054329"><ele>110.0</ele><time>2026-04-12T13:08:26.037Z</time></trkpt><trkpt lat="42.725135325331635" lon="12.13600939250494"><ele>110.0</ele><time>2026-04-12T13:08:27.037Z</time></trkpt><trkpt lat="42.72530244678957" lon="12.136032284559745"><ele>110.0</ele><time>2026-04-12T13:08:28.037Z</time></trkpt><trkpt lat="42.725466031892324" lon="12.136056529819816"><ele>110.66666666666666</ele><time>2026-04-12T13:08:29.037Z</time></trkpt><trkpt lat="42.72562103446143" lon="12.136080665022527"><ele>111.33333333333334</ele><time>2026-04-12T13:08:30.037Z</time></trkpt><trkpt lat="42.725770448265685" lon="12.136106080038275"><ele>112.0</ele><time>2026-04-12T13:08:31.037Z</time></trkpt><trkpt lat="42.72591539648282" lon="12.136126576483765"><ele>112.0</ele><time>2026-04-12T13:08:32.037Z</time></trkpt><trkpt lat="42.72605436156064" lon="12.13614674852221"><ele>112.0</ele><time>2026-04-12T13:08:33.037Z</time></trkpt><trkpt lat="42.72619145045184" lon="12.136169552221283"><ele>112.0</ele><time>2026-04-12T13:08:34.039Z</time></trkpt><trkpt lat="42.7263074437322" lon="12.136211496892633"><ele>112.0</ele><time>2026-04-12T13:08:35.039Z</time></trkpt><trkpt lat="42.72641336481269" lon="12.13626474373108"><ele>112.6</ele><time>2026-04-12T13:08:36.039Z</time></trkpt><trkpt lat="42.726507392490404" lon="12.136329005157613"><ele>113.19999999999999</ele><time>2026-04-12T13:08:37.04Z</time></trkpt><trkpt lat="42.72659968866365" lon="12.136393607926207"><ele>113.8</ele><time>2026-04-12T13:08:38.039Z</time></trkpt><trkpt lat="42.726676598851554" lon="12.136478287473205"><ele>114.4</ele><time>2026-04-12T13:08:39.039Z</time></trkpt><trkpt lat="42.72673991650674" lon="12.136562905874705"><ele>115.0</ele><time>2026-04-12T13:08:40.04Z</time></trkpt><trkpt lat="42.72680929330789" lon="12.136637209044757"><ele>115.0</ele><time>2026-04-12T13:08:41.04Z</time></trkpt><trkpt lat="42.72689194703418" lon="12.136694176671952"><ele>115.0</ele><time>2026-04-12T13:08:42.04Z</time></trkpt><trkpt lat="42.72698346750046" lon="12.136743419823373"><ele>115.0</ele><time>2026-04-12T13:08:43.04Z</time></trkpt><trkpt lat="42.72708166629771" lon="12.136794513955017"><ele>115.0</ele><time>2026-04-12T13:08:44.04Z</time></trkpt><trkpt lat="42.72720146971954" lon="12.136819277541711"><ele>115.0</ele><time>2026-04-12T13:08:45.04Z</time></trkpt><trkpt lat="42.727321515769255" lon="12.13694355571999"><ele>116.0</ele><time>2026-04-12T13:08:46.039Z</time></trkpt><trkpt lat="42.72745476912373" lon="12.137023768125609"><ele>117.0</ele><time>2026-04-12T13:08:47.04Z</time></trkpt><trkpt lat="42.727597144345225" lon="12.137106133703648"><ele>118.0</ele><time>2026-04-12T13:08:48.04Z</time></trkpt><trkpt lat="42.72772003576945" lon="12.13720473410559"><ele>119.0</ele><time>2026-04-12T13:08:49.04Z</time></trkpt><trkpt lat="42.72785301696067" lon="12.137296405858581"><ele>119.66666666666666</ele><time>2026-04-12T13:08:50.04Z</time></trkpt><trkpt lat="42.727992095525295" lon="12.137397166838465"><ele>120.33333333333334</ele><time>2026-04-12T13:08:51.04Z</time></trkpt><trkpt lat="42.72812520740298" lon="12.137489837534634"><ele>121.0</ele><time>2026-04-12T13:08:52.04Z</time></trkpt><trkpt lat="42.72826365998404" lon="12.137586604700958"><ele>121.0</ele><time>2026-04-12T13:08:53.04Z</time></trkpt><trkpt lat="42.72839658670297" lon="12.137679720034983"><ele>121.0</ele><time>2026-04-12T13:08:54.04Z</time></trkpt><trkpt lat="42.72853990313764" lon="12.137780819838559"><ele>121.0</ele><time>2026-04-12T13:08:55.04Z</time></trkpt><trkpt lat="42.72868139829334" lon="12.137884072642644"><ele>121.75</ele><time>2026-04-12T13:08:56.04Z</time></trkpt><trkpt lat="42.72879326072316" lon="12.137965761178322"><ele>122.5</ele><time>2026-04-12T13:08:57.04Z</time></trkpt><trkpt lat="42.728908487150946" lon="12.138055480705912"><ele>123.25</ele><time>2026-04-12T13:08:58.04Z</time></trkpt><trkpt lat="42.72903580541285" lon="12.138155500408459"><ele>124.0</ele><time>2026-04-12T13:08:59.04Z</time></trkpt><trkpt lat="42.72915507741001" lon="12.13825237335196"><ele>124.5</ele><time>2026-04-12T13:09:00.04Z</time></trkpt><trkpt lat="42.72926621502043" lon="12.138343372993598"><ele>125.0</ele><time>2026-04-12T13:09:01.04Z</time></trkpt><trkpt lat="42.729389378256236" lon="12.138420116599509"><ele>125.5</ele><time>2026-04-12T13:09:02.04Z</time></trkpt><trkpt lat="42.72949298227002" lon="12.138530272316865"><ele>126.0</ele><time>2026-04-12T13:09:03.04Z</time></trkpt><trkpt lat="42.729594729242216" lon="12.138631268268412"><ele>126.25</ele><time>2026-04-12T13:09:04.04Z</time></trkpt><trkpt lat="42.729698817080525" lon="12.13873040492333"><ele>126.5</ele><time>2026-04-12T13:09:05.04Z</time></trkpt><trkpt lat="42.72980710164139" lon="12.138816994920983"><ele>126.75</ele><time>2026-04-12T13:09:06.04Z</time></trkpt><trkpt lat="42.72992062392242" lon="12.138911890215693"><ele>127.0</ele><time>2026-04-12T13:09:07.04Z</time></trkpt><trkpt lat="42.730023917207255" lon="12.139009560356744"><ele>127.25</ele><time>2026-04-12T13:09:08.04Z</time></trkpt><trkpt lat="42.73013704692567" lon="12.1390963402874"><ele>127.5</ele><time>2026-04-12T13:09:09.04Z</time></trkpt><trkpt lat="42.730248196624814" lon="12.139181949619633"><ele>127.75</ele><time>2026-04-12T13:09:10.039Z</time></trkpt><trkpt lat="42.7303469217421" lon="12.139257649402893"><ele>128.0</ele><time>2026-04-12T13:09:11.039Z</time></trkpt><trkpt lat="42.73042238755721" lon="12.139319234782283"><ele>128.5</ele><time>2026-04-12T13:09:12.039Z</time></trkpt><trkpt lat="42.73047954160386" lon="12.139367493018854"><ele>129.0</ele><time>2026-04-12T13:09:13.039Z</time></trkpt><trkpt lat="42.73053525697198" lon="12.139427099672092"><ele>129.5</ele><time>2026-04-12T13:09:14.039Z</time></trkpt><trkpt lat="42.73057259726716" lon="12.139499158473159"><ele>130.0</ele><time>2026-04-12T13:09:15.039Z</time></trkpt><trkpt lat="42.73059502712697" lon="12.139605360277647"><ele>130.5</ele><time>2026-04-12T13:09:17.039Z</time></trkpt><trkpt lat="42.73062727904858" lon="12.139709069939427"><ele>131.0</ele><time>2026-04-12T13:09:19.039Z</time></trkpt><trkpt lat="42.7306972680521" lon="12.1397854403779"><ele>131.0</ele><time>2026-04-12T13:09:22.039Z</time></trkpt><trkpt lat="42.73077738038196" lon="12.139749316513724"><ele>131.0</ele><time>2026-04-12T13:09:24.039Z</time></trkpt><trkpt lat="42.73086787608663" lon="12.139630167242988"><ele>131.0</ele><time>2026-04-12T13:09:26.039Z</time></trkpt><trkpt lat="42.73093471590238" lon="12.139594406801672"><ele>131.0</ele><time>2026-04-12T13:09:27.039Z</time></trkpt><trkpt lat="42.7310080113365" lon="12.1396039880025"><ele>131.0</ele><time>2026-04-12T13:09:28.039Z</time></trkpt><trkpt lat="42.73109762325647" lon="12.139595554050949"><ele>131.0</ele><time>2026-04-12T13:09:29.039Z</time></trkpt><trkpt lat="42.73119160107857" lon="12.139613803838836"><ele>131.25</ele><time>2026-04-12T13:09:30.039Z</time></trkpt><trkpt lat="42.73130782812002" lon="12.139630605258777"><ele>131.5</ele><time>2026-04-12T13:09:31.039Z</time></trkpt><trkpt lat="42.73142807002893" lon="12.139657905790179"><ele>131.75</ele><time>2026-04-12T13:09:32.039Z</time></trkpt><trkpt lat="42.73155421119605" lon="12.139703229873295"><ele>132.0</ele><time>2026-04-12T13:09:33.039Z</time></trkpt><trkpt lat="42.731681876833" lon="12.139750329701974"><ele>132.0</ele><time>2026-04-12T13:09:34.039Z</time></trkpt><trkpt lat="42.73180288462227" lon="12.139798369144902"><ele>132.0</ele><time>2026-04-12T13:09:35.039Z</time></trkpt><trkpt lat="42.7319285244227" lon="12.139848360815396"><ele>132.0</ele><time>2026-04-12T13:09:36.039Z</time></trkpt><trkpt lat="42.73205028590962" lon="12.139904773018195"><ele>132.0</ele><time>2026-04-12T13:09:37.039Z</time></trkpt><trkpt lat="42.732167048086666" lon="12.139955609138088"><ele>133.25</ele><time>2026-04-12T13:09:38.039Z</time></trkpt><trkpt lat="42.732286090621564" lon="12.140017086237313"><ele>134.5</ele><time>2026-04-12T13:09:39.039Z</time></trkpt><trkpt lat="42.732403197370694" lon="12.140079967465411"><ele>135.75</ele><time>2026-04-12T13:09:40.039Z</time></trkpt><trkpt lat="42.7325181745738" lon="12.140151352095785"><ele>137.0</ele><time>2026-04-12T13:09:41.039Z</time></trkpt><trkpt lat="42.73262381651724" lon="12.140239370759081"><ele>137.0</ele><time>2026-04-12T13:09:42.039Z</time></trkpt><trkpt lat="42.73272014620688" lon="12.140330720946553"><ele>137.0</ele><time>2026-04-12T13:09:43.039Z</time></trkpt><trkpt lat="42.73279798972778" lon="12.140427241046046"><ele>137.0</ele><time>2026-04-12T13:09:44.039Z</time></trkpt><trkpt lat="42.73285491424087" lon="12.140539220853787"><ele>137.0</ele><time>2026-04-12T13:09:45.039Z</time></trkpt><trkpt lat="42.73288892832884" lon="12.140647460931252"><ele>137.0</ele><time>2026-04-12T13:09:46.039Z</time></trkpt><trkpt lat="42.732917290334974" lon="12.140743558237771"><ele>137.66666666666666</ele><time>2026-04-12T13:09:47.039Z</time></trkpt><trkpt lat="42.73293920962957" lon="12.140825271855388"><ele>138.33333333333331</ele><time>2026-04-12T13:09:48.039Z</time></trkpt><trkpt lat="42.7329705927085" lon="12.140901679900844"><ele>139.0</ele><time>2026-04-12T13:09:49.039Z</time></trkpt><trkpt lat="42.73301844298781" lon="12.141000335372778"><ele>139.66666666666666</ele><time>2026-04-12T13:09:51.039Z</time></trkpt><trkpt lat="42.73308074785719" lon="12.141076249347242"><ele>140.33333333333334</ele><time>2026-04-12T13:09:53.039Z</time></trkpt><trkpt lat="42.733159182848006" lon="12.141147140897347"><ele>141.0</ele><time>2026-04-12T13:09:55.039Z</time></trkpt><trkpt lat="42.73324628127724" lon="12.141103359669652"><ele>141.0</ele><time>2026-04-12T13:09:56.039Z</time></trkpt><trkpt lat="42.73333199669511" lon="12.14106762584723"><ele>141.0</ele><time>2026-04-12T13:09:57.039Z</time></trkpt><trkpt lat="42.733433423424984" lon="12.141039268655632"><ele>141.0</ele><time>2026-04-12T13:09:58.039Z</time></trkpt><trkpt lat="42.73353844902981" lon="12.141050853309235"><ele>141.0</ele><time>2026-04-12T13:09:59.039Z</time></trkpt><trkpt lat="42.73364466149872" lon="12.141106668455341"><ele>141.0</ele><time>2026-04-12T13:10:00.039Z</time></trkpt><trkpt lat="42.7337504032916" lon="12.141218842665724"><ele>143.33333333333334</ele><time>2026-04-12T13:10:01.039Z</time></trkpt><trkpt lat="42.733883576887" lon="12.141313965687177"><ele>145.66666666666669</ele><time>2026-04-12T13:10:02.039Z</time></trkpt><trkpt lat="42.73401246308812" lon="12.14144297842042"><ele>148.0</ele><time>2026-04-12T13:10:03.039Z</time></trkpt><trkpt lat="42.73414730254654" lon="12.141573646669677"><ele>148.0</ele><time>2026-04-12T13:10:04.039Z</time></trkpt><trkpt lat="42.734283862853125" lon="12.141715701962067"><ele>148.0</ele><time>2026-04-12T13:10:05.039Z</time></trkpt><trkpt lat="42.73440420104564" lon="12.141862454204666"><ele>148.0</ele><time>2026-04-12T13:10:06.039Z</time></trkpt><trkpt lat="42.73450364749562" lon="12.14200395195183"><ele>150.75</ele><time>2026-04-12T13:10:07.039Z</time></trkpt><trkpt lat="42.734584672897135" lon="12.142155515307705"><ele>153.5</ele><time>2026-04-12T13:10:08.039Z</time></trkpt><trkpt lat="42.7346635014711" lon="12.142294531535212"><ele>156.25</ele><time>2026-04-12T13:10:09.039Z</time></trkpt><trkpt lat="42.734755121594006" lon="12.142430281883428"><ele>159.0</ele><time>2026-04-12T13:10:10.039Z</time></trkpt><trkpt lat="42.73485918905536" lon="12.142570154567828"><ele>159.0</ele><time>2026-04-12T13:10:11.039Z</time></trkpt><trkpt lat="42.73498515195888" lon="12.142718334283435"><ele>159.0</ele><time>2026-04-12T13:10:12.039Z</time></trkpt><trkpt lat="42.7350909081522" lon="12.142896564924264"><ele>159.0</ele><time>2026-04-12T13:10:13.039Z</time></trkpt><trkpt lat="42.73520159891889" lon="12.143061113935792"><ele>163.33333333333334</ele><time>2026-04-12T13:10:14.039Z</time></trkpt><trkpt lat="42.73529372665307" lon="12.143237696998758"><ele>167.66666666666669</ele><time>2026-04-12T13:10:15.039Z</time></trkpt><trkpt lat="42.735353453966" lon="12.14342680188413"><ele>172.0</ele><time>2026-04-12T13:10:16.039Z</time></trkpt><trkpt lat="42.73538909672149" lon="12.143640301943591"><ele>172.0</ele><time>2026-04-12T13:10:17.039Z</time></trkpt><trkpt lat="42.73541445978749" lon="12.143869810319492"><ele>172.0</ele><time>2026-04-12T13:10:18.039Z</time></trkpt><trkpt lat="42.73543893464196" lon="12.144106959082697"><ele>172.0</ele><time>2026-04-12T13:10:19.039Z</time></trkpt><trkpt lat="42.73546410718903" lon="12.14431842739461"><ele>171.75</ele><time>2026-04-12T13:10:20.039Z</time></trkpt><trkpt lat="42.73549295664281" lon="12.144529080223084"><ele>171.5</ele><time>2026-04-12T13:10:21.039Z</time></trkpt><trkpt lat="42.73554452618695" lon="12.144715430081899"><ele>171.25</ele><time>2026-04-12T13:10:22.039Z</time></trkpt><trkpt lat="42.735626898451656" lon="12.144866555831822"><ele>171.0</ele><time>2026-04-12T13:10:23.039Z</time></trkpt><trkpt lat="42.73573435491754" lon="12.144967247009083"><ele>171.0</ele><time>2026-04-12T13:10:24.039Z</time></trkpt><trkpt lat="42.735865021238865" lon="12.145039521137141"><ele>171.0</ele><time>2026-04-12T13:10:25.039Z</time></trkpt><trkpt lat="42.736007652408475" lon="12.145100061416708"><ele>171.0</ele><time>2026-04-12T13:10:26.039Z</time></trkpt><trkpt lat="42.736164673117756" lon="12.145185377155784"><ele>174.0</ele><time>2026-04-12T13:10:27.039Z</time></trkpt><trkpt lat="42.736344600295716" lon="12.14529058579283"><ele>177.0</ele><time>2026-04-12T13:10:28.039Z</time></trkpt><trkpt lat="42.736546798800575" lon="12.145401308028902"><ele>180.0</ele><time>2026-04-12T13:10:29.039Z</time></trkpt><trkpt lat="42.73676461127225" lon="12.14552754440356"><ele>180.33333333333334</ele><time>2026-04-12T13:10:30.039Z</time></trkpt><trkpt lat="42.736957703061364" lon="12.145675045953464"><ele>180.66666666666669</ele><time>2026-04-12T13:10:31.039Z</time></trkpt><trkpt lat="42.73713034974026" lon="12.14584636620164"><ele>181.0</ele><time>2026-04-12T13:10:32.039Z</time></trkpt><trkpt lat="42.73731229432141" lon="12.146010863156736"><ele>181.5</ele><time>2026-04-12T13:10:33.039Z</time></trkpt><trkpt lat="42.7375124482136" lon="12.146163988418271"><ele>182.0</ele><time>2026-04-12T13:10:34.039Z</time></trkpt><trkpt lat="42.73773019718502" lon="12.146304979467248"><ele>183.5</ele><time>2026-04-12T13:10:35.039Z</time></trkpt><trkpt lat="42.737950367327755" lon="12.146442961375328"><ele>185.0</ele><time>2026-04-12T13:10:36.039Z</time></trkpt><trkpt lat="42.738173821736666" lon="12.146570899488955"><ele>186.5</ele><time>2026-04-12T13:10:37.039Z</time></trkpt><trkpt lat="42.73840574705561" lon="12.146705810172145"><ele>188.0</ele><time>2026-04-12T13:10:38.039Z</time></trkpt><trkpt lat="42.73863775120355" lon="12.146839895019266"><ele>190.0</ele><time>2026-04-12T13:10:39.039Z</time></trkpt><trkpt lat="42.73887413123371" lon="12.146981169959387"><ele>192.0</ele><time>2026-04-12T13:10:40.042Z</time></trkpt><trkpt lat="42.73909995355816" lon="12.14712132709399"><ele>192.0</ele><time>2026-04-12T13:10:41.041Z</time></trkpt><trkpt lat="42.739326738915004" lon="12.147260168017201"><ele>192.0</ele><time>2026-04-12T13:10:42.041Z</time></trkpt><trkpt lat="42.73955435605131" lon="12.147396371685064"><ele>196.0</ele><time>2026-04-12T13:10:43.042Z</time></trkpt><trkpt lat="42.73978027089019" lon="12.147530476020723"><ele>200.0</ele><time>2026-04-12T13:10:44.042Z</time></trkpt><trkpt lat="42.74000621569699" lon="12.147660110986665"><ele>202.5</ele><time>2026-04-12T13:10:45.042Z</time></trkpt><trkpt lat="42.74022991113151" lon="12.14779489778925"><ele>205.0</ele><time>2026-04-12T13:10:46.042Z</time></trkpt><trkpt lat="42.74043957245501" lon="12.147913861966446"><ele>205.0</ele><time>2026-04-12T13:10:47.042Z</time></trkpt><trkpt lat="42.74062950983618" lon="12.148018380861455"><ele>205.0</ele><time>2026-04-12T13:10:48.042Z</time></trkpt><trkpt lat="42.7408152153067" lon="12.1481238910062"><ele>205.0</ele><time>2026-04-12T13:10:49.041Z</time></trkpt><trkpt lat="42.741006092630634" lon="12.148210370340893"><ele>207.0</ele><time>2026-04-12T13:10:50.041Z</time></trkpt><trkpt lat="42.7412104968656" lon="12.14827405567535"><ele>209.0</ele><time>2026-04-12T13:10:51.041Z</time></trkpt><trkpt lat="42.74141860644613" lon="12.148317789161533"><ele>211.0</ele><time>2026-04-12T13:10:52.042Z</time></trkpt><trkpt lat="42.74163904474232" lon="12.148351248929165"><ele>212.0</ele><time>2026-04-12T13:10:53.042Z</time></trkpt><trkpt lat="42.74188361393883" lon="12.14840630619884"><ele>213.0</ele><time>2026-04-12T13:10:54.042Z</time></trkpt><trkpt lat="42.74213836858863" lon="12.148459706840079"><ele>213.0</ele><time>2026-04-12T13:10:55.042Z</time></trkpt><trkpt lat="42.74238965422587" lon="12.148531704847922"><ele>213.0</ele><time>2026-04-12T13:10:56.042Z</time></trkpt><trkpt lat="42.742649871891224" lon="12.148612451039524"><ele>213.0</ele><time>2026-04-12T13:10:57.042Z</time></trkpt><trkpt lat="42.742905294544975" lon="12.148700180425985"><ele>213.0</ele><time>2026-04-12T13:10:58.042Z</time></trkpt><trkpt lat="42.74315121525592" lon="12.148772929173347"><ele>213.0</ele><time>2026-04-12T13:10:59.042Z</time></trkpt><trkpt lat="42.74339826982965" lon="12.148863072743007"><ele>213.0</ele><time>2026-04-12T13:11:00.042Z</time></trkpt><trkpt lat="42.74336872311899" lon="12.1487695980691"><ele>213.0</ele><time>2026-04-12T13:11:01.042Z</time></trkpt><trkpt lat="42.743596858514124" lon="12.148853251933769"><ele>210.5</ele><time>2026-04-12T13:11:02.042Z</time></trkpt><trkpt lat="42.74382912439834" lon="12.148938405726076"><ele>208.0</ele><time>2026-04-12T13:11:03.042Z</time></trkpt><trkpt lat="42.7440531166894" lon="12.14902540956628"><ele>211.66666666666666</ele><time>2026-04-12T13:11:04.042Z</time></trkpt><trkpt lat="42.744264621936466" lon="12.149104933418972"><ele>215.33333333333331</ele><time>2026-04-12T13:11:05.042Z</time></trkpt><trkpt lat="42.744457287965766" lon="12.149172207269306"><ele>219.0</ele><time>2026-04-12T13:11:06.042Z</time></trkpt><trkpt lat="42.74463249497973" lon="12.149235997881556"><ele>220.0</ele><time>2026-04-12T13:11:07.042Z</time></trkpt><trkpt lat="42.74480340290837" lon="12.149301933406651"><ele>221.0</ele><time>2026-04-12T13:11:08.042Z</time></trkpt><trkpt lat="42.744972454052665" lon="12.149389501594454"><ele>222.0</ele><time>2026-04-12T13:11:09.042Z</time></trkpt><trkpt lat="42.745095907038724" lon="12.149498207469856"><ele>222.0</ele><time>2026-04-12T13:11:10.042Z</time></trkpt><trkpt lat="42.745203705007356" lon="12.14956893979448"><ele>222.0</ele><time>2026-04-12T13:11:11.042Z</time></trkpt><trkpt lat="42.745274764619836" lon="12.149686656815453"><ele>222.0</ele><time>2026-04-12T13:11:12.042Z</time></trkpt><trkpt lat="42.74533134168494" lon="12.149816085711043"><ele>222.0</ele><time>2026-04-12T13:11:13.042Z</time></trkpt><trkpt lat="42.74538410820189" lon="12.149954203192985"><ele>223.75</ele><time>2026-04-12T13:11:14.042Z</time></trkpt><trkpt lat="42.74544207632355" lon="12.150101487816995"><ele>225.5</ele><time>2026-04-12T13:11:15.042Z</time></trkpt><trkpt lat="42.7454637800692" lon="12.150285383416646"><ele>227.25</ele><time>2026-04-12T13:11:16.042Z</time></trkpt><trkpt lat="42.74551543323707" lon="12.150472358070077"><ele>229.0</ele><time>2026-04-12T13:11:17.042Z</time></trkpt><trkpt lat="42.745591717159186" lon="12.150646631070884"><ele>230.5</ele><time>2026-04-12T13:11:18.042Z</time></trkpt><trkpt lat="42.745664664057614" lon="12.150803831723524"><ele>232.0</ele><time>2026-04-12T13:11:19.042Z</time></trkpt><trkpt lat="42.74572760223898" lon="12.150939463706093"><ele>233.5</ele><time>2026-04-12T13:11:20.042Z</time></trkpt><trkpt lat="42.745782425342746" lon="12.151057607246504"><ele>235.0</ele><time>2026-04-12T13:11:21.042Z</time></trkpt><trkpt lat="42.745935902711636" lon="12.151088696861008"><ele>235.0</ele><time>2026-04-12T13:11:22.042Z</time></trkpt><trkpt lat="42.74593255156986" lon="12.151222998337278"><ele>235.0</ele><time>2026-04-12T13:11:23.042Z</time></trkpt><trkpt lat="42.74583378479208" lon="12.151342842268942"><ele>235.0</ele><time>2026-04-12T13:11:24.042Z</time></trkpt><trkpt lat="42.74573349152106" lon="12.151447722106548"><ele>235.0</ele><time>2026-04-12T13:11:25.042Z</time></trkpt><trkpt lat="42.745600549933314" lon="12.151540350858639"><ele>234.0</ele><time>2026-04-12T13:11:26.042Z</time></trkpt><trkpt lat="42.74547908144996" lon="12.151669196738846"><ele>233.0</ele><time>2026-04-12T13:11:27.042Z</time></trkpt><trkpt lat="42.74538157948722" lon="12.15184454064524"><ele>232.0</ele><time>2026-04-12T13:11:28.042Z</time></trkpt><trkpt lat="42.74532132220248" lon="12.152037971557768"><ele>232.0</ele><time>2026-04-12T13:11:29.042Z</time></trkpt><trkpt lat="42.74530050737309" lon="12.152239340117317"><ele>232.0</ele><time>2026-04-12T13:11:30.042Z</time></trkpt><trkpt lat="42.74532185469144" lon="12.152415075928305"><ele>232.0</ele><time>2026-04-12T13:11:31.042Z</time></trkpt><trkpt lat="42.74539932820954" lon="12.152598061517551"><ele>232.0</ele><time>2026-04-12T13:11:32.042Z</time></trkpt><trkpt lat="42.7454986797372" lon="12.152783871708872"><ele>233.0</ele><time>2026-04-12T13:11:33.042Z</time></trkpt><trkpt lat="42.745613147549996" lon="12.152958004888017"><ele>234.0</ele><time>2026-04-12T13:11:34.042Z</time></trkpt><trkpt lat="42.74570397992711" lon="12.15313836803394"><ele>235.0</ele><time>2026-04-12T13:11:35.042Z</time></trkpt><trkpt lat="42.745785233149455" lon="12.153302177936881"><ele>236.8</ele><time>2026-04-12T13:11:36.042Z</time></trkpt><trkpt lat="42.745824472483456" lon="12.153444011869814"><ele>238.6</ele><time>2026-04-12T13:11:37.042Z</time></trkpt><trkpt lat="42.74581225822991" lon="12.153569053535067"><ele>240.39999999999998</ele><time>2026-04-12T13:11:38.042Z</time></trkpt><trkpt lat="42.74575720022276" lon="12.153683496924874"><ele>242.2</ele><time>2026-04-12T13:11:39.042Z</time></trkpt><trkpt lat="42.74569031549735" lon="12.153775247511442"><ele>244.0</ele><time>2026-04-12T13:11:40.042Z</time></trkpt><trkpt lat="42.745576191847746" lon="12.153842429021552"><ele>244.0</ele><time>2026-04-12T13:11:41.042Z</time></trkpt><trkpt lat="42.74540305450717" lon="12.15392713055163"><ele>244.0</ele><time>2026-04-12T13:11:42.042Z</time></trkpt><trkpt lat="42.74525144423199" lon="12.154015950840494"><ele>244.0</ele><time>2026-04-12T13:11:43.042Z</time></trkpt><trkpt lat="42.74514535365779" lon="12.154137667501708"><ele>244.33333333333331</ele><time>2026-04-12T13:11:44.042Z</time></trkpt><trkpt lat="42.74506909546868" lon="12.154293380652884"><ele>244.66666666666669</ele><time>2026-04-12T13:11:45.042Z</time></trkpt><trkpt lat="42.745056683895356" lon="12.15450897914612"><ele>245.0</ele><time>2026-04-12T13:11:46.042Z</time></trkpt><trkpt lat="42.745073719969504" lon="12.154737129350247"><ele>245.33333333333334</ele><time>2026-04-12T13:11:47.042Z</time></trkpt><trkpt lat="42.7450973150056" lon="12.15496424213912"><ele>245.66666666666669</ele><time>2026-04-12T13:11:48.042Z</time></trkpt><trkpt lat="42.7451480387857" lon="12.155180161950508"><ele>246.0</ele><time>2026-04-12T13:11:49.042Z</time></trkpt><trkpt lat="42.74524008479394" lon="12.155397019753712"><ele>247.33333333333331</ele><time>2026-04-12T13:11:50.042Z</time></trkpt><trkpt lat="42.74537578635647" lon="12.155610309057316"><ele>248.66666666666666</ele><time>2026-04-12T13:11:51.042Z</time></trkpt><trkpt lat="42.745524896149924" lon="12.155834409302411"><ele>250.0</ele><time>2026-04-12T13:11:52.042Z</time></trkpt><trkpt lat="42.74568035170105" lon="12.156062322110856"><ele>250.0</ele><time>2026-04-12T13:11:53.042Z</time></trkpt><trkpt lat="42.74582649608469" lon="12.156272841693976"><ele>250.0</ele><time>2026-04-12T13:11:54.042Z</time></trkpt><trkpt lat="42.74597053929998" lon="12.156463444769766"><ele>250.0</ele><time>2026-04-12T13:11:55.042Z</time></trkpt><trkpt lat="42.74614219411573" lon="12.15663034215164"><ele>252.66666666666666</ele><time>2026-04-12T13:11:56.042Z</time></trkpt><trkpt lat="42.746330429916725" lon="12.156759294606061"><ele>255.33333333333331</ele><time>2026-04-12T13:11:57.042Z</time></trkpt><trkpt lat="42.74651152040816" lon="12.156855976755253"><ele>258.0</ele><time>2026-04-12T13:11:58.042Z</time></trkpt><trkpt lat="42.74668506877576" lon="12.156911020821923"><ele>258.0</ele><time>2026-04-12T13:11:59.042Z</time></trkpt><trkpt lat="42.74683850637046" lon="12.15694813373835"><ele>258.0</ele><time>2026-04-12T13:12:00.042Z</time></trkpt><trkpt lat="42.746968617721876" lon="12.1570211127133"><ele>258.0</ele><time>2026-04-12T13:12:01.042Z</time></trkpt><trkpt lat="42.7470754488292" lon="12.157135622365056"><ele>258.0</ele><time>2026-04-12T13:12:02.042Z</time></trkpt><trkpt lat="42.74713594288137" lon="12.157291316071994"><ele>259.3333333333333</ele><time>2026-04-12T13:12:03.042Z</time></trkpt><trkpt lat="42.747156826957806" lon="12.157481056075632"><ele>260.66666666666663</ele><time>2026-04-12T13:12:04.042Z</time></trkpt><trkpt lat="42.747173151600855" lon="12.157684862211772"><ele>262.0</ele><time>2026-04-12T13:12:05.042Z</time></trkpt><trkpt lat="42.747208826042815" lon="12.157938472541"><ele>262.3333333333333</ele><time>2026-04-12T13:12:06.042Z</time></trkpt><trkpt lat="42.74723940665948" lon="12.158203317978497"><ele>262.6666666666667</ele><time>2026-04-12T13:12:07.042Z</time></trkpt><trkpt lat="42.747262462226914" lon="12.158475198701879"><ele>263.0</ele><time>2026-04-12T13:12:08.042Z</time></trkpt><trkpt lat="42.7472717311007" lon="12.158756514783773"><ele>263.0</ele><time>2026-04-12T13:12:09.042Z</time></trkpt><trkpt lat="42.74726721136659" lon="12.158999405695079"><ele>263.0</ele><time>2026-04-12T13:12:10.042Z</time></trkpt><trkpt lat="42.74726789125004" lon="12.159217954542095"><ele>263.0</ele><time>2026-04-12T13:12:11.042Z</time></trkpt><trkpt lat="42.74728864725659" lon="12.159386283489274"><ele>263.75</ele><time>2026-04-12T13:12:12.042Z</time></trkpt><trkpt lat="42.74734829204225" lon="12.15951470437662"><ele>264.5</ele><time>2026-04-12T13:12:13.042Z</time></trkpt><trkpt lat="42.74744150762219" lon="12.159626753835925"><ele>265.25</ele><time>2026-04-12T13:12:14.042Z</time></trkpt><trkpt lat="42.74756195166625" lon="12.159720575268352"><ele>266.0</ele><time>2026-04-12T13:12:15.042Z</time></trkpt><trkpt lat="42.747722267921525" lon="12.159779942509939"><ele>267.6666666666667</ele><time>2026-04-12T13:12:16.042Z</time></trkpt><trkpt lat="42.74788201532967" lon="12.159869638960837"><ele>269.3333333333333</ele><time>2026-04-12T13:12:17.042Z</time></trkpt><trkpt lat="42.748048973315846" lon="12.160004629113368"><ele>271.0</ele><time>2026-04-12T13:12:18.042Z</time></trkpt><trkpt lat="42.74820313880206" lon="12.160174929953632"><ele>271.0</ele><time>2026-04-12T13:12:19.042Z</time></trkpt><trkpt lat="42.7483379390502" lon="12.160351009868336"><ele>271.0</ele><time>2026-04-12T13:12:20.042Z</time></trkpt><trkpt lat="42.74845145214794" lon="12.160536151687497"><ele>271.0</ele><time>2026-04-12T13:12:21.042Z</time></trkpt><trkpt lat="42.7485454958807" lon="12.160729062375907"><ele>269.66666666666663</ele><time>2026-04-12T13:12:22.042Z</time></trkpt><trkpt lat="42.74861323147583" lon="12.160978842196128"><ele>268.3333333333333</ele><time>2026-04-12T13:12:23.042Z</time></trkpt><trkpt lat="42.74866968464043" lon="12.161248712367549"><ele>267.0</ele><time>2026-04-12T13:12:24.042Z</time></trkpt><trkpt lat="42.748737722198186" lon="12.161486777295055"><ele>268.5</ele><time>2026-04-12T13:12:25.042Z</time></trkpt><trkpt lat="42.748793413558886" lon="12.161690938190464"><ele>270.0</ele><time>2026-04-12T13:12:26.042Z</time></trkpt><trkpt lat="42.748814651521485" lon="12.161847502597098"><ele>271.5</ele><time>2026-04-12T13:12:27.042Z</time></trkpt><trkpt lat="42.74879000692118" lon="12.16197041120873"><ele>273.0</ele><time>2026-04-12T13:12:28.042Z</time></trkpt><trkpt lat="42.74872436492594" lon="12.162066811071153"><ele>273.0</ele><time>2026-04-12T13:12:29.042Z</time></trkpt><trkpt lat="42.74864487743357" lon="12.16216271984758"><ele>273.0</ele><time>2026-04-12T13:12:30.042Z</time></trkpt><trkpt lat="42.74855124732583" lon="12.16229536823582"><ele>273.0</ele><time>2026-04-12T13:12:31.042Z</time></trkpt><trkpt lat="42.74847461635331" lon="12.162473388140711"><ele>273.0</ele><time>2026-04-12T13:12:32.042Z</time></trkpt><trkpt lat="42.7484236640123" lon="12.162664187366412"><ele>275.0</ele><time>2026-04-12T13:12:33.042Z</time></trkpt><trkpt lat="42.74840501580552" lon="12.162879631579473"><ele>277.0</ele><time>2026-04-12T13:12:34.042Z</time></trkpt><trkpt lat="42.748383643985456" lon="12.163074745477514"><ele>279.0</ele><time>2026-04-12T13:12:35.042Z</time></trkpt><trkpt lat="42.748350045487015" lon="12.163257216146254"><ele>281.0</ele><time>2026-04-12T13:12:36.042Z</time></trkpt><trkpt lat="42.74828419685257" lon="12.163397858009388"><ele>283.40000000000003</ele><time>2026-04-12T13:12:37.042Z</time></trkpt><trkpt lat="42.748182985588315" lon="12.163466202583361"><ele>285.8</ele><time>2026-04-12T13:12:38.042Z</time></trkpt><trkpt lat="42.748083972198394" lon="12.163487101790599"><ele>288.20000000000005</ele><time>2026-04-12T13:12:39.042Z</time></trkpt><trkpt lat="42.74797833143218" lon="12.163457532742287"><ele>290.6</ele><time>2026-04-12T13:12:40.042Z</time></trkpt><trkpt lat="42.74789681960632" lon="12.163345955171058"><ele>293.0</ele><time>2026-04-12T13:12:41.042Z</time></trkpt><trkpt lat="42.747791540645025" lon="12.163234468966689"><ele>290.6666666666667</ele><time>2026-04-12T13:12:42.042Z</time></trkpt><trkpt lat="42.747670774693226" lon="12.163080117038565"><ele>288.3333333333333</ele><time>2026-04-12T13:12:43.042Z</time></trkpt><trkpt lat="42.74755724673829" lon="12.162927390326892"><ele>286.0</ele><time>2026-04-12T13:12:44.042Z</time></trkpt><trkpt lat="42.74745909046391" lon="12.162810926009618"><ele>286.0</ele><time>2026-04-12T13:12:45.042Z</time></trkpt><trkpt lat="42.74736125124938" lon="12.162725222386683"><ele>286.0</ele><time>2026-04-12T13:12:46.044Z</time></trkpt><trkpt lat="42.74725580573001" lon="12.162690687245162"><ele>286.0</ele><time>2026-04-12T13:12:47.044Z</time></trkpt><trkpt lat="42.747168043951845" lon="12.1627231724305"><ele>286.0</ele><time>2026-04-12T13:12:48.044Z</time></trkpt><trkpt lat="42.74709409938266" lon="12.162823901618932"><ele>286.0</ele><time>2026-04-12T13:12:49.044Z</time></trkpt><trkpt lat="42.747068296269205" lon="12.162956717228393"><ele>286.0</ele><time>2026-04-12T13:12:50.043Z</time></trkpt><trkpt lat="42.74706644729045" lon="12.163122377330952"><ele>286.0</ele><time>2026-04-12T13:12:51.043Z</time></trkpt><trkpt lat="42.7471857849782" lon="12.163237736654768"><ele>286.0</ele><time>2026-04-12T13:12:52.044Z</time></trkpt><trkpt lat="42.74728323688261" lon="12.163283863717426"><ele>286.0</ele><time>2026-04-12T13:12:53.043Z</time></trkpt><trkpt lat="42.747398469111424" lon="12.163284473796175"><ele>287.75</ele><time>2026-04-12T13:12:54.043Z</time></trkpt><trkpt lat="42.747528652937476" lon="12.163319093432076"><ele>289.5</ele><time>2026-04-12T13:12:55.044Z</time></trkpt><trkpt lat="42.74764021866809" lon="12.163432305504701"><ele>291.25</ele><time>2026-04-12T13:12:56.044Z</time></trkpt><trkpt lat="42.74775230707991" lon="12.163586836908749"><ele>293.0</ele><time>2026-04-12T13:12:57.044Z</time></trkpt><trkpt lat="42.74786437270319" lon="12.163790281518823"><ele>293.0</ele><time>2026-04-12T13:12:58.044Z</time></trkpt><trkpt lat="42.747977996887364" lon="12.164016175862773"><ele>293.0</ele><time>2026-04-12T13:12:59.044Z</time></trkpt><trkpt lat="42.7480838104231" lon="12.164230041139614"><ele>293.0</ele><time>2026-04-12T13:13:00.044Z</time></trkpt><trkpt lat="42.748182912833514" lon="12.164436076549784"><ele>295.33333333333337</ele><time>2026-04-12T13:13:01.044Z</time></trkpt><trkpt lat="42.748291474582075" lon="12.164615476065585"><ele>297.6666666666667</ele><time>2026-04-12T13:13:02.044Z</time></trkpt><trkpt lat="42.748439421483184" lon="12.164708726537139"><ele>300.0</ele><time>2026-04-12T13:13:03.044Z</time></trkpt><trkpt lat="42.74856678938808" lon="12.164799384179236"><ele>300.0</ele><time>2026-04-12T13:13:04.044Z</time></trkpt><trkpt lat="42.748668541250346" lon="12.16483592492075"><ele>300.0</ele><time>2026-04-12T13:13:05.044Z</time></trkpt><trkpt lat="42.74870777093029" lon="12.164994624958815"><ele>300.0</ele><time>2026-04-12T13:13:07.044Z</time></trkpt><trkpt lat="42.74867721873997" lon="12.165092019927243"><ele>300.0</ele><time>2026-04-12T13:13:08.044Z</time></trkpt><trkpt lat="42.748592804464565" lon="12.165172026085205"><ele>300.0</ele><time>2026-04-12T13:13:09.044Z</time></trkpt><trkpt lat="42.74851973208633" lon="12.165205726968125"><ele>302.0</ele><time>2026-04-12T13:13:10.044Z</time></trkpt><trkpt lat="42.74840081815901" lon="12.165179751608445"><ele>304.0</ele><time>2026-04-12T13:13:11.044Z</time></trkpt><trkpt lat="42.74822855369398" lon="12.16514385350916"><ele>306.0</ele><time>2026-04-12T13:13:12.044Z</time></trkpt><trkpt lat="42.748090696942555" lon="12.16507256680146"><ele>308.0</ele><time>2026-04-12T13:13:13.044Z</time></trkpt><trkpt lat="42.74799880377574" lon="12.164961694000045"><ele>306.25</ele><time>2026-04-12T13:13:14.044Z</time></trkpt><trkpt lat="42.74794460202364" lon="12.164818397021639"><ele>304.5</ele><time>2026-04-12T13:13:15.044Z</time></trkpt><trkpt lat="42.74793819283935" lon="12.16465739958791"><ele>302.75</ele><time>2026-04-12T13:13:16.044Z</time></trkpt><trkpt lat="42.74791420107968" lon="12.164511581273949"><ele>301.0</ele><time>2026-04-12T13:13:17.044Z</time></trkpt><trkpt lat="42.747862937966595" lon="12.164369102015865"><ele>301.0</ele><time>2026-04-12T13:13:18.044Z</time></trkpt><trkpt lat="42.747790643319206" lon="12.164276810789998"><ele>301.0</ele><time>2026-04-12T13:13:19.044Z</time></trkpt><trkpt lat="42.747694690072194" lon="12.164258393518313"><ele>301.0</ele><time>2026-04-12T13:13:20.044Z</time></trkpt><trkpt lat="42.74759806640239" lon="12.16431869221472"><ele>301.0</ele><time>2026-04-12T13:13:21.044Z</time></trkpt><trkpt lat="42.74751313606769" lon="12.164437700419258"><ele>301.0</ele><time>2026-04-12T13:13:22.044Z</time></trkpt><trkpt lat="42.747454169470366" lon="12.164605973369849"><ele>303.66666666666663</ele><time>2026-04-12T13:13:23.044Z</time></trkpt><trkpt lat="42.74736400028452" lon="12.164809405353308"><ele>306.3333333333333</ele><time>2026-04-12T13:13:24.044Z</time></trkpt><trkpt lat="42.74723702891158" lon="12.16501122712683"><ele>309.0</ele><time>2026-04-12T13:13:25.044Z</time></trkpt><trkpt lat="42.74711400974071" lon="12.165272696171845"><ele>309.6666666666667</ele><time>2026-04-12T13:13:26.044Z</time></trkpt><trkpt lat="42.74697469986013" lon="12.165486891163443"><ele>310.33333333333337</ele><time>2026-04-12T13:13:27.044Z</time></trkpt><trkpt lat="42.74686304652009" lon="12.165677919776341"><ele>311.0</ele><time>2026-04-12T13:13:28.044Z</time></trkpt><trkpt lat="42.746757952131446" lon="12.165843195128765"><ele>314.6666666666667</ele><time>2026-04-12T13:13:29.044Z</time></trkpt><trkpt lat="42.74661207371454" lon="12.165939304908049"><ele>318.3333333333333</ele><time>2026-04-12T13:13:30.044Z</time></trkpt><trkpt lat="42.74646015562731" lon="12.166025673897904"><ele>322.0</ele><time>2026-04-12T13:13:31.044Z</time></trkpt><trkpt lat="42.74628651760843" lon="12.16611096939713"><ele>322.0</ele><time>2026-04-12T13:13:32.044Z</time></trkpt><trkpt lat="42.746088318400886" lon="12.16619534246419"><ele>322.0</ele><time>2026-04-12T13:13:33.044Z</time></trkpt><trkpt lat="42.74589167044929" lon="12.166280101715572"><ele>322.0</ele><time>2026-04-12T13:13:34.044Z</time></trkpt><trkpt lat="42.74570906107203" lon="12.166346060962598"><ele>320.66666666666663</ele><time>2026-04-12T13:13:35.044Z</time></trkpt><trkpt lat="42.74553736688786" lon="12.166384685659878"><ele>319.3333333333333</ele><time>2026-04-12T13:13:36.044Z</time></trkpt><trkpt lat="42.74537742300173" lon="12.166422488810177"><ele>318.0</ele><time>2026-04-12T13:13:37.044Z</time></trkpt><trkpt lat="42.74525174460621" lon="12.166431268019343"><ele>317.5</ele><time>2026-04-12T13:13:38.044Z</time></trkpt><trkpt lat="42.745139287617704" lon="12.166507314226358"><ele>317.0</ele><time>2026-04-12T13:13:39.044Z</time></trkpt><trkpt lat="42.745050336555884" lon="12.166646047920393"><ele>316.5</ele><time>2026-04-12T13:13:40.044Z</time></trkpt><trkpt lat="42.74501633348562" lon="12.166829677509147"><ele>316.0</ele><time>2026-04-12T13:13:41.044Z</time></trkpt><trkpt lat="42.74500522136038" lon="12.167006822257644"><ele>318.75</ele><time>2026-04-12T13:13:42.044Z</time></trkpt><trkpt lat="42.74500032414788" lon="12.167197767269638"><ele>321.5</ele><time>2026-04-12T13:13:43.044Z</time></trkpt><trkpt lat="42.745014527866076" lon="12.16738876080843"><ele>324.25</ele><time>2026-04-12T13:13:44.044Z</time></trkpt><trkpt lat="42.74503569869251" lon="12.167563048654772"><ele>327.0</ele><time>2026-04-12T13:13:45.044Z</time></trkpt><trkpt lat="42.74509641437842" lon="12.167715471336578"><ele>328.0</ele><time>2026-04-12T13:13:46.044Z</time></trkpt><trkpt lat="42.745182646413255" lon="12.167848292882317"><ele>329.0</ele><time>2026-04-12T13:13:47.044Z</time></trkpt><trkpt lat="42.745287648053626" lon="12.167989208322076"><ele>330.0</ele><time>2026-04-12T13:13:48.044Z</time></trkpt><trkpt lat="42.74540311133841" lon="12.168149351879375"><ele>331.0</ele><time>2026-04-12T13:13:49.044Z</time></trkpt><trkpt lat="42.74552072945293" lon="12.16832870346267"><ele>336.66666666666663</ele><time>2026-04-12T13:13:50.044Z</time></trkpt><trkpt lat="42.74562935365909" lon="12.168522310871419"><ele>342.3333333333333</ele><time>2026-04-12T13:13:51.044Z</time></trkpt><trkpt lat="42.74570982186432" lon="12.168723038013368"><ele>348.0</ele><time>2026-04-12T13:13:52.043Z</time></trkpt><trkpt lat="42.74580889004134" lon="12.168929683314653"><ele>345.3333333333333</ele><time>2026-04-12T13:13:53.041Z</time></trkpt><trkpt lat="42.74591964211439" lon="12.169132073859542"><ele>342.66666666666663</ele><time>2026-04-12T13:13:54.04Z</time></trkpt><trkpt lat="42.74605017835209" lon="12.169322227461343"><ele>340.0</ele><time>2026-04-12T13:13:55.039Z</time></trkpt><trkpt lat="42.7461897437331" lon="12.169527599835469"><ele>343.3333333333333</ele><time>2026-04-12T13:13:56.037Z</time></trkpt><trkpt lat="42.7463504045" lon="12.169734802915153"><ele>346.6666666666667</ele><time>2026-04-12T13:13:57.036Z</time></trkpt><trkpt lat="42.74652267956674" lon="12.1699308266872"><ele>350.0</ele><time>2026-04-12T13:13:58.035Z</time></trkpt><trkpt lat="42.74670789221701" lon="12.170123861412375"><ele>356.0</ele><time>2026-04-12T13:13:59.034Z</time></trkpt><trkpt lat="42.7468946928859" lon="12.170307568983231"><ele>362.0</ele><time>2026-04-12T13:14:00.033Z</time></trkpt><trkpt lat="42.747083253578566" lon="12.170466078071676"><ele>362.0</ele><time>2026-04-12T13:14:01.033Z</time></trkpt><trkpt lat="42.7472669326625" lon="12.17060316524869"><ele>362.0</ele><time>2026-04-12T13:14:02.032Z</time></trkpt><trkpt lat="42.747440983706866" lon="12.170730123749314"><ele>362.0</ele><time>2026-04-12T13:14:03.031Z</time></trkpt><trkpt lat="42.747587183002935" lon="12.170864600939748"><ele>357.33333333333337</ele><time>2026-04-12T13:14:04.03Z</time></trkpt><trkpt lat="42.74771834283119" lon="12.1710076084926"><ele>352.6666666666667</ele><time>2026-04-12T13:14:05.03Z</time></trkpt><trkpt lat="42.747802320536074" lon="12.171167708054393"><ele>348.0</ele><time>2026-04-12T13:14:06.029Z</time></trkpt><trkpt lat="42.747889616363196" lon="12.171340645100038"><ele>348.0</ele><time>2026-04-12T13:14:07.029Z</time></trkpt><trkpt lat="42.74795465620798" lon="12.171513715080897"><ele>348.0</ele><time>2026-04-12T13:14:08.028Z</time></trkpt><trkpt lat="42.74799348828522" lon="12.171687708581857"><ele>348.0</ele><time>2026-04-12T13:14:09.027Z</time></trkpt><trkpt lat="42.747958840929776" lon="12.171845202993119"><ele>348.0</ele><time>2026-04-12T13:14:10.027Z</time></trkpt><trkpt lat="42.74794499029025" lon="12.17202505372884"><ele>350.0</ele><time>2026-04-12T13:14:11.027Z</time></trkpt><trkpt lat="42.74798133971668" lon="12.172189553527156"><ele>352.0</ele><time>2026-04-12T13:14:12.026Z</time></trkpt><trkpt lat="42.74806770076706" lon="12.172305166721316"><ele>354.0</ele><time>2026-04-12T13:14:13.026Z</time></trkpt><trkpt lat="42.748197387422564" lon="12.172338763616377"><ele>356.0</ele><time>2026-04-12T13:14:14.025Z</time></trkpt><trkpt lat="42.74831715790408" lon="12.172403915277043"><ele>355.75</ele><time>2026-04-12T13:14:15.025Z</time></trkpt><trkpt lat="42.74845113291229" lon="12.172460955607814"><ele>355.5</ele><time>2026-04-12T13:14:16.025Z</time></trkpt><trkpt lat="42.74857915252824" lon="12.172531705145651"><ele>355.25</ele><time>2026-04-12T13:14:17.024Z</time></trkpt><trkpt lat="42.74869246912185" lon="12.172657610737236"><ele>355.0</ele><time>2026-04-12T13:14:18.024Z</time></trkpt><trkpt lat="42.748780334446955" lon="12.172845351776274"><ele>355.0</ele><time>2026-04-12T13:14:19.024Z</time></trkpt><trkpt lat="42.748865470855634" lon="12.17305681356438"><ele>355.0</ele><time>2026-04-12T13:14:20.024Z</time></trkpt><trkpt lat="42.748951100343895" lon="12.173288782977117"><ele>355.0</ele><time>2026-04-12T13:14:21.023Z</time></trkpt><trkpt lat="42.74904049745929" lon="12.173530892366209"><ele>359.66666666666663</ele><time>2026-04-12T13:14:22.023Z</time></trkpt><trkpt lat="42.74914419016176" lon="12.173759254024542"><ele>364.3333333333333</ele><time>2026-04-12T13:14:23.023Z</time></trkpt><trkpt lat="42.749215046610885" lon="12.173995592481571"><ele>369.0</ele><time>2026-04-12T13:14:24.023Z</time></trkpt><trkpt lat="42.749305438246076" lon="12.174187255057788"><ele>370.5</ele><time>2026-04-12T13:14:25.023Z</time></trkpt><trkpt lat="42.7493737532009" lon="12.174371437215864"><ele>372.0</ele><time>2026-04-12T13:14:26.022Z</time></trkpt><trkpt lat="42.74941948666584" lon="12.174517463154926"><ele>373.5</ele><time>2026-04-12T13:14:27.022Z</time></trkpt><trkpt lat="42.7494284409145" lon="12.174658631650395"><ele>375.0</ele><time>2026-04-12T13:14:28.022Z</time></trkpt><trkpt lat="42.74938391262252" lon="12.174770444646743"><ele>375.0</ele><time>2026-04-12T13:14:29.022Z</time></trkpt><trkpt lat="42.7492991974634" lon="12.17484220812742"><ele>375.0</ele><time>2026-04-12T13:14:30.022Z</time></trkpt><trkpt lat="42.749195681023174" lon="12.174873022953932"><ele>375.0</ele><time>2026-04-12T13:14:31.022Z</time></trkpt><trkpt lat="42.749061147948225" lon="12.17485753338832"><ele>375.0</ele><time>2026-04-12T13:14:32.021Z</time></trkpt><trkpt lat="42.748941098318625" lon="12.174900926020399"><ele>377.0</ele><time>2026-04-12T13:14:33.021Z</time></trkpt><trkpt lat="42.74881658816749" lon="12.174956532957864"><ele>379.0</ele><time>2026-04-12T13:14:34.021Z</time></trkpt><trkpt lat="42.74864340100892" lon="12.174991152526415"><ele>381.0</ele><time>2026-04-12T13:14:35.021Z</time></trkpt><trkpt lat="42.748456978316774" lon="12.17501465228038"><ele>383.33333333333337</ele><time>2026-04-12T13:14:36.021Z</time></trkpt><trkpt lat="42.748274881225136" lon="12.175020022303396"><ele>385.6666666666667</ele><time>2026-04-12T13:14:37.021Z</time></trkpt><trkpt lat="42.74811529823281" lon="12.175033248817082"><ele>388.0</ele><time>2026-04-12T13:14:38.021Z</time></trkpt><trkpt lat="42.747968485532525" lon="12.174969131799514"><ele>388.0</ele><time>2026-04-12T13:14:39.021Z</time></trkpt><trkpt lat="42.747815892423326" lon="12.174857588891058"><ele>388.0</ele><time>2026-04-12T13:14:40.021Z</time></trkpt><trkpt lat="42.747659270644775" lon="12.174731603869132"><ele>388.0</ele><time>2026-04-12T13:14:41.021Z</time></trkpt><trkpt lat="42.74749773922556" lon="12.174619023718705"><ele>386.6666666666667</ele><time>2026-04-12T13:14:42.021Z</time></trkpt><trkpt lat="42.74734288175598" lon="12.174534583446322"><ele>385.33333333333337</ele><time>2026-04-12T13:14:43.02Z</time></trkpt><trkpt lat="42.747197832697815" lon="12.174448863891039"><ele>384.0</ele><time>2026-04-12T13:14:44.02Z</time></trkpt><trkpt lat="42.74706250735791" lon="12.174370943391814"><ele>384.0</ele><time>2026-04-12T13:14:45.02Z</time></trkpt><trkpt lat="42.746933093486675" lon="12.174330598438463"><ele>384.0</ele><time>2026-04-12T13:14:46.02Z</time></trkpt><trkpt lat="42.74680917101066" lon="12.17432733623172"><ele>384.0</ele><time>2026-04-12T13:14:47.02Z</time></trkpt><trkpt lat="42.746697689794146" lon="12.17437896201446"><ele>384.0</ele><time>2026-04-12T13:14:48.02Z</time></trkpt><trkpt lat="42.74660175790213" lon="12.174471373994676"><ele>385.75</ele><time>2026-04-12T13:14:49.02Z</time></trkpt><trkpt lat="42.746525502810165" lon="12.174612384632905"><ele>387.5</ele><time>2026-04-12T13:14:50.02Z</time></trkpt><trkpt lat="42.74645234250721" lon="12.174777476103948"><ele>389.25</ele><time>2026-04-12T13:14:51.02Z</time></trkpt><trkpt lat="42.7463788129655" lon="12.174967873049491"><ele>391.0</ele><time>2026-04-12T13:14:52.021Z</time></trkpt><trkpt lat="42.74631477161676" lon="12.175184789402243"><ele>394.33333333333337</ele><time>2026-04-12T13:14:53.022Z</time></trkpt><trkpt lat="42.746254779050155" lon="12.175409293333889"><ele>397.66666666666663</ele><time>2026-04-12T13:14:54.022Z</time></trkpt><trkpt lat="42.74620830307638" lon="12.175644707464599"><ele>401.0</ele><time>2026-04-12T13:14:55.022Z</time></trkpt><trkpt lat="42.74618532635418" lon="12.17585468527754"><ele>400.0</ele><time>2026-04-12T13:14:56.022Z</time></trkpt><trkpt lat="42.7461444372987" lon="12.176071478690726"><ele>399.0</ele><time>2026-04-12T13:14:57.022Z</time></trkpt><trkpt lat="42.746067274903666" lon="12.17626800006259"><ele>398.0</ele><time>2026-04-12T13:14:58.021Z</time></trkpt><trkpt lat="42.74598194472322" lon="12.176411107561648"><ele>401.0</ele><time>2026-04-12T13:14:59.021Z</time></trkpt><trkpt lat="42.74588995367027" lon="12.176531339177064"><ele>404.0</ele><time>2026-04-12T13:15:00.021Z</time></trkpt><trkpt lat="42.74581364370756" lon="12.176660904991309"><ele>407.0</ele><time>2026-04-12T13:15:01.022Z</time></trkpt><trkpt lat="42.74575145716964" lon="12.17683755141027"><ele>410.0</ele><time>2026-04-12T13:15:02.022Z</time></trkpt><trkpt lat="42.74572488111103" lon="12.177030184900348"><ele>410.0</ele><time>2026-04-12T13:15:03.022Z</time></trkpt><trkpt lat="42.745732101170944" lon="12.177231209629285"><ele>410.0</ele><time>2026-04-12T13:15:04.022Z</time></trkpt><trkpt lat="42.74573812145351" lon="12.177423703853853"><ele>410.0</ele><time>2026-04-12T13:15:05.022Z</time></trkpt><trkpt lat="42.745714666979694" lon="12.177608829626068"><ele>410.0</ele><time>2026-04-12T13:15:06.022Z</time></trkpt><trkpt lat="42.74569917087264" lon="12.177791462535582"><ele>412.3333333333333</ele><time>2026-04-12T13:15:07.022Z</time></trkpt><trkpt lat="42.745711984543526" lon="12.1779938593818"><ele>414.66666666666663</ele><time>2026-04-12T13:15:08.021Z</time></trkpt><trkpt lat="42.745752002875435" lon="12.178206340117606"><ele>417.0</ele><time>2026-04-12T13:15:09.021Z</time></trkpt><trkpt lat="42.74581847077932" lon="12.178420768944953"><ele>418.0</ele><time>2026-04-12T13:15:10.021Z</time></trkpt><trkpt lat="42.74590495778105" lon="12.178641147058727"><ele>419.0</ele><time>2026-04-12T13:15:11.021Z</time></trkpt><trkpt lat="42.746005399855335" lon="12.17884088808751"><ele>420.0</ele><time>2026-04-12T13:15:12.021Z</time></trkpt><trkpt lat="42.74611929316915" lon="12.179018266084706"><ele>427.33333333333337</ele><time>2026-04-12T13:15:13.021Z</time></trkpt><trkpt lat="42.7462484038025" lon="12.179173875141839"><ele>434.6666666666667</ele><time>2026-04-12T13:15:14.021Z</time></trkpt><trkpt lat="42.74636888599591" lon="12.179355588775188"><ele>442.0</ele><time>2026-04-12T13:15:15.021Z</time></trkpt><trkpt lat="42.74650733809662" lon="12.179537572570538"><ele>442.0</ele><time>2026-04-12T13:15:16.021Z</time></trkpt><trkpt lat="42.74663232916395" lon="12.179696154103011"><ele>442.0</ele><time>2026-04-12T13:15:17.021Z</time></trkpt><trkpt lat="42.746727964270875" lon="12.179822551318283"><ele>442.0</ele><time>2026-04-12T13:15:18.021Z</time></trkpt><trkpt lat="42.746787464389364" lon="12.179914134176006"><ele>442.0</ele><time>2026-04-12T13:15:19.021Z</time></trkpt><trkpt lat="42.74678870298612" lon="12.180026446979312"><ele>441.25</ele><time>2026-04-12T13:15:21.021Z</time></trkpt><trkpt lat="42.74672618381472" lon="12.18006931969727"><ele>440.5</ele><time>2026-04-12T13:15:22.021Z</time></trkpt><trkpt lat="42.74664190745753" lon="12.180077974571603"><ele>439.75</ele><time>2026-04-12T13:15:23.021Z</time></trkpt><trkpt lat="42.74651290636614" lon="12.180028053157118"><ele>439.0</ele><time>2026-04-12T13:15:24.021Z</time></trkpt><trkpt lat="42.74635154362374" lon="12.179936380944902"><ele>440.5</ele><time>2026-04-12T13:15:25.021Z</time></trkpt><trkpt lat="42.74613570894579" lon="12.17985019977881"><ele>442.0</ele><time>2026-04-12T13:15:26.021Z</time></trkpt><trkpt lat="42.74591010475688" lon="12.179757139642083"><ele>433.0</ele><time>2026-04-12T13:15:27.021Z</time></trkpt><trkpt lat="42.7456666902266" lon="12.17966035712824"><ele>424.0</ele><time>2026-04-12T13:15:28.021Z</time></trkpt><trkpt lat="42.74543873892356" lon="12.179569501895164"><ele>424.0</ele><time>2026-04-12T13:15:29.021Z</time></trkpt><trkpt lat="42.74524736648065" lon="12.179492515143204"><ele>424.0</ele><time>2026-04-12T13:15:30.021Z</time></trkpt><trkpt lat="42.745072919530365" lon="12.179434545435573"><ele>424.0</ele><time>2026-04-12T13:15:31.021Z</time></trkpt><trkpt lat="42.74490627634404" lon="12.179410006498427"><ele>425.0</ele><time>2026-04-12T13:15:32.021Z</time></trkpt><trkpt lat="42.74475661138836" lon="12.179433295810773"><ele>426.0</ele><time>2026-04-12T13:15:33.021Z</time></trkpt><trkpt lat="42.74462317564994" lon="12.17949812920376"><ele>427.0</ele><time>2026-04-12T13:15:34.021Z</time></trkpt><trkpt lat="42.744518227069264" lon="12.179619420533227"><ele>428.0</ele><time>2026-04-12T13:15:35.021Z</time></trkpt><trkpt lat="42.744459256021145" lon="12.179755875421863"><ele>432.0</ele><time>2026-04-12T13:15:36.021Z</time></trkpt><trkpt lat="42.744430980206104" lon="12.17993552541484"><ele>436.0</ele><time>2026-04-12T13:15:37.021Z</time></trkpt><trkpt lat="42.74445699190293" lon="12.180091997858323"><ele>440.0</ele><time>2026-04-12T13:15:38.021Z</time></trkpt><trkpt lat="42.744562184788705" lon="12.180181430615868"><ele>444.0</ele><time>2026-04-12T13:15:39.021Z</time></trkpt><trkpt lat="42.74464928123124" lon="12.180223485510483"><ele>444.0</ele><time>2026-04-12T13:15:40.021Z</time></trkpt><trkpt lat="42.74475421598368" lon="12.18020255764078"><ele>444.0</ele><time>2026-04-12T13:15:41.021Z</time></trkpt><trkpt lat="42.74486955558488" lon="12.180118490578216"><ele>444.0</ele><time>2026-04-12T13:15:42.021Z</time></trkpt><trkpt lat="42.745003640189395" lon="12.180038390406917"><ele>444.0</ele><time>2026-04-12T13:15:43.021Z</time></trkpt><trkpt lat="42.745147157195326" lon="12.180002129735128"><ele>442.66666666666663</ele><time>2026-04-12T13:15:44.021Z</time></trkpt><trkpt lat="42.7453071813943" lon="12.180005937575318"><ele>441.3333333333333</ele><time>2026-04-12T13:15:45.021Z</time></trkpt><trkpt lat="42.74548051393446" lon="12.180051681082501"><ele>440.0</ele><time>2026-04-12T13:15:46.021Z</time></trkpt><trkpt lat="42.745664150802355" lon="12.180122722588774"><ele>440.0</ele><time>2026-04-12T13:15:47.021Z</time></trkpt><trkpt lat="42.74586257003267" lon="12.180233094880373"><ele>440.0</ele><time>2026-04-12T13:15:48.021Z</time></trkpt><trkpt lat="42.746048151765606" lon="12.180383946620788"><ele>440.0</ele><time>2026-04-12T13:15:49.021Z</time></trkpt><trkpt lat="42.74626875659475" lon="12.18051477812897"><ele>439.5</ele><time>2026-04-12T13:15:50.021Z</time></trkpt><trkpt lat="42.74652315098032" lon="12.180620517038722"><ele>439.0</ele><time>2026-04-12T13:15:51.021Z</time></trkpt><trkpt lat="42.746770894463815" lon="12.1807113938878"><ele>449.5</ele><time>2026-04-12T13:15:52.021Z</time></trkpt><trkpt lat="42.74699611444939" lon="12.180769652764706"><ele>460.0</ele><time>2026-04-12T13:15:53.021Z</time></trkpt><trkpt lat="42.74721244323145" lon="12.180843050530603"><ele>460.0</ele><time>2026-04-12T13:15:54.021Z</time></trkpt><trkpt lat="42.74741012634025" lon="12.180938511319372"><ele>460.0</ele><time>2026-04-12T13:15:55.021Z</time></trkpt><trkpt lat="42.747595135885256" lon="12.181051277581155"><ele>460.0</ele><time>2026-04-12T13:15:56.021Z</time></trkpt><trkpt lat="42.74776412692443" lon="12.181167828931965"><ele>461.5</ele><time>2026-04-12T13:15:57.021Z</time></trkpt><trkpt lat="42.7479075697717" lon="12.181276977833718"><ele>463.0</ele><time>2026-04-12T13:15:58.021Z</time></trkpt><trkpt lat="42.74801963047138" lon="12.181349167349818"><ele>464.5</ele><time>2026-04-12T13:15:59.021Z</time></trkpt><trkpt lat="42.748119985407975" lon="12.18136505005424"><ele>466.0</ele><time>2026-04-12T13:16:00.021Z</time></trkpt><trkpt lat="42.748203262837244" lon="12.181327649735266"><ele>466.0</ele><time>2026-04-12T13:16:01.021Z</time></trkpt><trkpt lat="42.7482535158433" lon="12.181246837090336"><ele>466.0</ele><time>2026-04-12T13:16:02.021Z</time></trkpt><trkpt lat="42.7482894515963" lon="12.181122552349565"><ele>466.0</ele><time>2026-04-12T13:16:03.021Z</time></trkpt><trkpt lat="42.74827278677935" lon="12.180970304534434"><ele>466.0</ele><time>2026-04-12T13:16:04.021Z</time></trkpt><trkpt lat="42.748229658951686" lon="12.180766912588359"><ele>466.0</ele><time>2026-04-12T13:16:05.021Z</time></trkpt><trkpt lat="42.7481449002056" lon="12.180530464323732"><ele>466.33333333333337</ele><time>2026-04-12T13:16:06.021Z</time></trkpt><trkpt lat="42.7480563476349" lon="12.18027825338749"><ele>466.66666666666663</ele><time>2026-04-12T13:16:07.021Z</time></trkpt><trkpt lat="42.74797219143653" lon="12.18002338057694"><ele>467.0</ele><time>2026-04-12T13:16:08.021Z</time></trkpt><trkpt lat="42.74790157096809" lon="12.179801775249652"><ele>465.5</ele><time>2026-04-12T13:16:09.02Z</time></trkpt><trkpt lat="42.747855938607806" lon="12.179621299683232"><ele>464.0</ele><time>2026-04-12T13:16:10.02Z</time></trkpt><trkpt lat="42.7478505980886" lon="12.179479816287797"><ele>462.5</ele><time>2026-04-12T13:16:11.02Z</time></trkpt><trkpt lat="42.74789676984134" lon="12.179395042960792"><ele>461.0</ele><time>2026-04-12T13:16:12.02Z</time></trkpt><trkpt lat="42.74802175192472" lon="12.179356022567747"><ele>461.0</ele><time>2026-04-12T13:16:14.02Z</time></trkpt><trkpt lat="42.74812792209825" lon="12.179436987436125"><ele>461.0</ele><time>2026-04-12T13:16:15.02Z</time></trkpt><trkpt lat="42.74831487640879" lon="12.1794791637882"><ele>461.0</ele><time>2026-04-12T13:16:16.02Z</time></trkpt><trkpt lat="42.748494935633104" lon="12.179549647722824"><ele>460.75</ele><time>2026-04-12T13:16:17.02Z</time></trkpt><trkpt lat="42.74865924748888" lon="12.179612746194891"><ele>460.5</ele><time>2026-04-12T13:16:18.02Z</time></trkpt><trkpt lat="42.7487974074257" lon="12.17967526771358"><ele>460.25</ele><time>2026-04-12T13:16:19.02Z</time></trkpt><trkpt lat="42.74889769973369" lon="12.179746124567965"><ele>460.0</ele><time>2026-04-12T13:16:20.02Z</time></trkpt><trkpt lat="42.74895574334231" lon="12.17984776558493"><ele>462.75</ele><time>2026-04-12T13:16:21.02Z</time></trkpt><trkpt lat="42.748966380938946" lon="12.17998487153386"><ele>465.5</ele><time>2026-04-12T13:16:22.02Z</time></trkpt><trkpt lat="42.7489314699967" lon="12.18013251808115"><ele>468.25</ele><time>2026-04-12T13:16:23.02Z</time></trkpt><trkpt lat="42.74892529410871" lon="12.180316478007484"><ele>471.0</ele><time>2026-04-12T13:16:24.02Z</time></trkpt><trkpt lat="42.748911623991205" lon="12.18053800283357"><ele>472.66666666666663</ele><time>2026-04-12T13:16:25.02Z</time></trkpt><trkpt lat="42.74888811280445" lon="12.18077553640786"><ele>474.3333333333333</ele><time>2026-04-12T13:16:26.02Z</time></trkpt><trkpt lat="42.748871556871016" lon="12.181011847860237"><ele>476.0</ele><time>2026-04-12T13:16:27.02Z</time></trkpt><trkpt lat="42.74885918571999" lon="12.18122246544639"><ele>476.0</ele><time>2026-04-12T13:16:28.02Z</time></trkpt><trkpt lat="42.748883167057876" lon="12.181429851983403"><ele>476.0</ele><time>2026-04-12T13:16:29.02Z</time></trkpt><trkpt lat="42.748958138235615" lon="12.18163526747755"><ele>476.0</ele><time>2026-04-12T13:16:30.02Z</time></trkpt><trkpt lat="42.74905039013076" lon="12.181806167531953"><ele>477.4</ele><time>2026-04-12T13:16:31.02Z</time></trkpt><trkpt lat="42.74912018472028" lon="12.181942406470343"><ele>478.8</ele><time>2026-04-12T13:16:32.02Z</time></trkpt><trkpt lat="42.749170576377146" lon="12.182085650689825"><ele>480.19999999999993</ele><time>2026-04-12T13:16:33.02Z</time></trkpt><trkpt lat="42.74916252368058" lon="12.182205727478962"><ele>481.59999999999997</ele><time>2026-04-12T13:16:34.02Z</time></trkpt><trkpt lat="42.749115255179454" lon="12.182295419927422"><ele>483.0</ele><time>2026-04-12T13:16:35.02Z</time></trkpt><trkpt lat="42.749026230762" lon="12.182370337645748"><ele>483.75</ele><time>2026-04-12T13:16:36.02Z</time></trkpt><trkpt lat="42.74892843225702" lon="12.18244796763988"><ele>484.5</ele><time>2026-04-12T13:16:37.02Z</time></trkpt><trkpt lat="42.74881402606166" lon="12.182549174098103"><ele>485.25</ele><time>2026-04-12T13:16:38.02Z</time></trkpt><trkpt lat="42.74866086438589" lon="12.182677570430448"><ele>486.0</ele><time>2026-04-12T13:16:39.02Z</time></trkpt><trkpt lat="42.7484952005448" lon="12.182816161407544"><ele>486.0</ele><time>2026-04-12T13:16:40.02Z</time></trkpt><trkpt lat="42.74835517044373" lon="12.182928102107734"><ele>486.0</ele><time>2026-04-12T13:16:41.02Z</time></trkpt><trkpt lat="42.74824433989092" lon="12.183036044431294"><ele>486.0</ele><time>2026-04-12T13:16:42.02Z</time></trkpt><trkpt lat="42.74815692940694" lon="12.183125336424423"><ele>486.0</ele><time>2026-04-12T13:16:43.02Z</time></trkpt><trkpt lat="42.74809711316942" lon="12.183239847243662"><ele>487.75</ele><time>2026-04-12T13:16:44.02Z</time></trkpt><trkpt lat="42.74808082920282" lon="12.183398999307663"><ele>489.5</ele><time>2026-04-12T13:16:45.02Z</time></trkpt><trkpt lat="42.74814871595559" lon="12.183592594707514"><ele>491.25</ele><time>2026-04-12T13:16:46.02Z</time></trkpt><trkpt lat="42.7482764790287" lon="12.183723289805584"><ele>493.0</ele><time>2026-04-12T13:16:47.02Z</time></trkpt><trkpt lat="42.74840089124047" lon="12.18383449341319"><ele>494.6666666666667</ele><time>2026-04-12T13:16:48.02Z</time></trkpt><trkpt lat="42.74854820080217" lon="12.183958162601638"><ele>496.33333333333337</ele><time>2026-04-12T13:16:49.02Z</time></trkpt><trkpt lat="42.74871559660313" lon="12.184088028554028"><ele>498.0</ele><time>2026-04-12T13:16:50.02Z</time></trkpt><trkpt lat="42.74889798035348" lon="12.184198751589767"><ele>498.33333333333337</ele><time>2026-04-12T13:16:51.02Z</time></trkpt><trkpt lat="42.749098328961296" lon="12.18427668545458"><ele>498.6666666666667</ele><time>2026-04-12T13:16:52.02Z</time></trkpt><trkpt lat="42.74931205533189" lon="12.184362090180759"><ele>499.0</ele><time>2026-04-12T13:16:53.02Z</time></trkpt><trkpt lat="42.749523979037264" lon="12.184429432777684"><ele>502.0</ele><time>2026-04-12T13:16:54.02Z</time></trkpt><trkpt lat="42.749725774174344" lon="12.184501166276249"><ele>505.0</ele><time>2026-04-12T13:16:55.02Z</time></trkpt><trkpt lat="42.74993985170045" lon="12.184559458372812"><ele>508.0</ele><time>2026-04-12T13:16:56.02Z</time></trkpt><trkpt lat="42.7501645830214" lon="12.184624108489807"><ele>508.5</ele><time>2026-04-12T13:16:57.02Z</time></trkpt><trkpt lat="42.75039729740895" lon="12.184690600595832"><ele>509.0</ele><time>2026-04-12T13:16:58.022Z</time></trkpt><trkpt lat="42.75062635559077" lon="12.184757598350155"><ele>509.0</ele><time>2026-04-12T13:16:59.023Z</time></trkpt><trkpt lat="42.75084037627666" lon="12.184837101083797"><ele>509.0</ele><time>2026-04-12T13:17:00.023Z</time></trkpt><trkpt lat="42.75104928843336" lon="12.184901309503442"><ele>509.0</ele><time>2026-04-12T13:17:01.022Z</time></trkpt><trkpt lat="42.751266378863974" lon="12.184968031506278"><ele>509.0</ele><time>2026-04-12T13:17:02.022Z</time></trkpt><trkpt lat="42.751477575667074" lon="12.185022390684527"><ele>509.0</ele><time>2026-04-12T13:17:03.022Z</time></trkpt><trkpt lat="42.751666363296565" lon="12.185101809101972"><ele>509.0</ele><time>2026-04-12T13:17:04.022Z</time></trkpt><trkpt lat="42.75177946022821" lon="12.1851913541909"><ele>509.0</ele><time>2026-04-12T13:17:05.023Z</time></trkpt><trkpt lat="42.75186623346382" lon="12.185312647236506"><ele>509.0</ele><time>2026-04-12T13:17:06.023Z</time></trkpt><trkpt lat="42.751935943779735" lon="12.185477158590169"><ele>509.0</ele><time>2026-04-12T13:17:07.023Z</time></trkpt><trkpt lat="42.751981145735996" lon="12.185661078707945"><ele>509.0</ele><time>2026-04-12T13:17:08.022Z</time></trkpt><trkpt lat="42.75200760320092" lon="12.185865628974177"><ele>511.3333333333333</ele><time>2026-04-12T13:17:09.022Z</time></trkpt><trkpt lat="42.75201982063303" lon="12.186096437265785"><ele>513.6666666666666</ele><time>2026-04-12T13:17:10.022Z</time></trkpt><trkpt lat="42.752024476813" lon="12.186327130500604"><ele>516.0</ele><time>2026-04-12T13:17:11.023Z</time></trkpt><trkpt lat="42.75203959552293" lon="12.186537745849007"><ele>516.3333333333334</ele><time>2026-04-12T13:17:12.023Z</time></trkpt><trkpt lat="42.752083841412" lon="12.18672707046478"><ele>516.6666666666667</ele><time>2026-04-12T13:17:13.023Z</time></trkpt><trkpt lat="42.75217873441175" lon="12.186912126775312"><ele>517.0</ele><time>2026-04-12T13:17:14.023Z</time></trkpt><trkpt lat="42.752305920410166" lon="12.18706901488819"><ele>517.0</ele><time>2026-04-12T13:17:15.023Z</time></trkpt><trkpt lat="42.75244167504552" lon="12.18722605924673"><ele>517.0</ele><time>2026-04-12T13:17:16.023Z</time></trkpt><trkpt lat="42.752580446120604" lon="12.187397388062575"><ele>517.0</ele><time>2026-04-12T13:17:17.023Z</time></trkpt><trkpt lat="42.75272345368418" lon="12.187582411371565"><ele>519.0</ele><time>2026-04-12T13:17:18.023Z</time></trkpt><trkpt lat="42.75287400146247" lon="12.187788713666638"><ele>521.0</ele><time>2026-04-12T13:17:19.023Z</time></trkpt><trkpt lat="42.75302960191167" lon="12.18795463201013"><ele>523.0</ele><time>2026-04-12T13:17:20.023Z</time></trkpt><trkpt lat="42.75317456998446" lon="12.188128129060964"><ele>522.6666666666667</ele><time>2026-04-12T13:17:21.022Z</time></trkpt><trkpt lat="42.75333254829409" lon="12.18828917312779"><ele>522.3333333333334</ele><time>2026-04-12T13:17:22.022Z</time></trkpt><trkpt lat="42.75345800810944" lon="12.188434400237567"><ele>522.0</ele><time>2026-04-12T13:17:23.022Z</time></trkpt><trkpt lat="42.753580374862146" lon="12.188624175614128"><ele>522.0</ele><time>2026-04-12T13:17:24.022Z</time></trkpt><trkpt lat="42.753704069489295" lon="12.188845849593015"><ele>522.0</ele><time>2026-04-12T13:17:25.022Z</time></trkpt><trkpt lat="42.75383632404473" lon="12.189089638086534"><ele>522.0</ele><time>2026-04-12T13:17:26.022Z</time></trkpt><trkpt lat="42.753988584390974" lon="12.189307552928343"><ele>522.5</ele><time>2026-04-12T13:17:27.022Z</time></trkpt><trkpt lat="42.754140179090214" lon="12.189553837252014"><ele>523.0</ele><time>2026-04-12T13:17:28.022Z</time></trkpt><trkpt lat="42.75430296395282" lon="12.189837138185993"><ele>522.5</ele><time>2026-04-12T13:17:29.022Z</time></trkpt><trkpt lat="42.754460145952486" lon="12.190084181093932"><ele>522.0</ele><time>2026-04-12T13:17:30.022Z</time></trkpt><trkpt lat="42.75460696460104" lon="12.190319362445038"><ele>522.0</ele><time>2026-04-12T13:17:31.022Z</time></trkpt><trkpt lat="42.75475329498697" lon="12.190549577658624"><ele>522.0</ele><time>2026-04-12T13:17:32.022Z</time></trkpt><trkpt lat="42.754858256706214" lon="12.190733269555569"><ele>522.0</ele><time>2026-04-12T13:17:33.022Z</time></trkpt><trkpt lat="42.75495631221131" lon="12.1908941867888"><ele>523.75</ele><time>2026-04-12T13:17:34.022Z</time></trkpt><trkpt lat="42.75500848923844" lon="12.191053693901122"><ele>525.5</ele><time>2026-04-12T13:17:35.022Z</time></trkpt><trkpt lat="42.7550225409675" lon="12.191214311068626"><ele>527.25</ele><time>2026-04-12T13:17:36.022Z</time></trkpt><trkpt lat="42.754988306642694" lon="12.191361337311635"><ele>529.0</ele><time>2026-04-12T13:17:37.022Z</time></trkpt><trkpt lat="42.75492795675904" lon="12.191493224963036"><ele>529.4</ele><time>2026-04-12T13:17:38.022Z</time></trkpt><trkpt lat="42.75488241269548" lon="12.191610407507934"><ele>529.8</ele><time>2026-04-12T13:17:39.022Z</time></trkpt><trkpt lat="42.75487752620235" lon="12.191757482533085"><ele>530.2</ele><time>2026-04-12T13:17:40.022Z</time></trkpt><trkpt lat="42.754876468039214" lon="12.1919182626959"><ele>530.6</ele><time>2026-04-12T13:17:41.022Z</time></trkpt><trkpt lat="42.754906898037454" lon="12.192081872039637"><ele>531.0</ele><time>2026-04-12T13:17:42.022Z</time></trkpt><trkpt lat="42.75493324973785" lon="12.192250731336639"><ele>531.5</ele><time>2026-04-12T13:17:43.022Z</time></trkpt><trkpt lat="42.754899411526885" lon="12.192441970905564"><ele>532.0</ele><time>2026-04-12T13:17:44.022Z</time></trkpt><trkpt lat="42.75482742910529" lon="12.192607861416326"><ele>532.5</ele><time>2026-04-12T13:17:45.022Z</time></trkpt><trkpt lat="42.754734378339414" lon="12.192711572875847"><ele>533.0</ele><time>2026-04-12T13:17:46.022Z</time></trkpt><trkpt lat="42.75465647674162" lon="12.19281930848263"><ele>533.0</ele><time>2026-04-12T13:17:47.022Z</time></trkpt><trkpt lat="42.754589986024364" lon="12.192937162022417"><ele>533.0</ele><time>2026-04-12T13:17:48.022Z</time></trkpt><trkpt lat="42.75453086905259" lon="12.19306312383316"><ele>533.0</ele><time>2026-04-12T13:17:49.022Z</time></trkpt><trkpt lat="42.754488601093726" lon="12.193229101658893"><ele>533.0</ele><time>2026-04-12T13:17:50.022Z</time></trkpt><trkpt lat="42.75442650453429" lon="12.193380085442191"><ele>534.0</ele><time>2026-04-12T13:17:51.022Z</time></trkpt><trkpt lat="42.754351750045714" lon="12.193532647792283"><ele>535.0</ele><time>2026-04-12T13:17:52.022Z</time></trkpt><trkpt lat="42.75426722486016" lon="12.193679500823414"><ele>536.0</ele><time>2026-04-12T13:17:53.022Z</time></trkpt><trkpt lat="42.754160772731325" lon="12.193780419420484"><ele>537.0</ele><time>2026-04-12T13:17:54.022Z</time></trkpt><trkpt lat="42.754052262725175" lon="12.193850356581512"><ele>537.0</ele><time>2026-04-12T13:17:55.022Z</time></trkpt><trkpt lat="42.75395120187947" lon="12.193912618444681"><ele>537.0</ele><time>2026-04-12T13:17:56.022Z</time></trkpt><trkpt lat="42.75386334856467" lon="12.19398945661116"><ele>537.0</ele><time>2026-04-12T13:17:57.022Z</time></trkpt><trkpt lat="42.753793194159016" lon="12.194077145205068"><ele>537.0</ele><time>2026-04-12T13:17:58.022Z</time></trkpt><trkpt lat="42.75374072980258" lon="12.194176607621895"><ele>537.0</ele><time>2026-04-12T13:17:59.022Z</time></trkpt><trkpt lat="42.75372997262759" lon="12.194283399977007"><ele>538.2</ele><time>2026-04-12T13:18:00.022Z</time></trkpt><trkpt lat="42.75373565601252" lon="12.194390855723041"><ele>539.4000000000001</ele><time>2026-04-12T13:18:01.022Z</time></trkpt><trkpt lat="42.75381914884118" lon="12.194454303267618"><ele>540.5999999999999</ele><time>2026-04-12T13:18:02.022Z</time></trkpt><trkpt lat="42.753905833582735" lon="12.194504598447457"><ele>541.8</ele><time>2026-04-12T13:18:03.022Z</time></trkpt><trkpt lat="42.753991855348715" lon="12.194559457295645"><ele>543.0</ele><time>2026-04-12T13:18:04.022Z</time></trkpt><trkpt lat="42.75409068460407" lon="12.194609582510529"><ele>543.0</ele><time>2026-04-12T13:18:05.022Z</time></trkpt><trkpt lat="42.754191874948134" lon="12.194661474758433"><ele>543.0</ele><time>2026-04-12T13:18:06.022Z</time></trkpt><trkpt lat="42.754294894300685" lon="12.1947140803842"><ele>543.0</ele><time>2026-04-12T13:18:07.022Z</time></trkpt><trkpt lat="42.75438987403434" lon="12.194766315384122"><ele>543.0</ele><time>2026-04-12T13:18:08.022Z</time></trkpt><trkpt lat="42.75448153015355" lon="12.194816705140358"><ele>543.0</ele><time>2026-04-12T13:18:09.022Z</time></trkpt><trkpt lat="42.754566070149686" lon="12.194865946647285"><ele>545.4</ele><time>2026-04-12T13:18:10.022Z</time></trkpt><trkpt lat="42.75461724173744" lon="12.194972703431958"><ele>547.8</ele><time>2026-04-12T13:18:11.022Z</time></trkpt><trkpt lat="42.754629572957974" lon="12.195101465553499"><ele>550.2</ele><time>2026-04-12T13:18:12.022Z</time></trkpt><trkpt lat="42.754608603376624" lon="12.19523529543458"><ele>552.6</ele><time>2026-04-12T13:18:13.022Z</time></trkpt><trkpt lat="42.75456740922669" lon="12.195372170974178"><ele>555.0</ele><time>2026-04-12T13:18:14.022Z</time></trkpt><trkpt lat="42.754529607389635" lon="12.195519249021748"><ele>555.0</ele><time>2026-04-12T13:18:15.022Z</time></trkpt><trkpt lat="42.754497354391944" lon="12.195661481889147"><ele>555.0</ele><time>2026-04-12T13:18:16.022Z</time></trkpt><trkpt lat="42.75446767262989" lon="12.195788865500703"><ele>555.0</ele><time>2026-04-12T13:18:17.022Z</time></trkpt><trkpt lat="42.75443748669546" lon="12.195903342143291"><ele>555.0</ele><time>2026-04-12T13:18:18.022Z</time></trkpt><trkpt lat="42.75441028365119" lon="12.196006555958178"><ele>555.0</ele><time>2026-04-12T13:18:19.022Z</time></trkpt><trkpt lat="42.75439740552313" lon="12.196091475964494"><ele>555.0</ele><time>2026-04-12T13:18:20.022Z</time></trkpt><trkpt lat="42.754419565001825" lon="12.196188079732408"><ele>555.0</ele><time>2026-04-12T13:18:22.022Z</time></trkpt><trkpt lat="42.75444438054958" lon="12.195977250674582"><ele>555.0</ele><time>2026-04-12T13:18:27.022Z</time></trkpt><trkpt lat="42.75447362371401" lon="12.195855763989771"><ele>555.0</ele><time>2026-04-12T13:18:28.022Z</time></trkpt><trkpt lat="42.754518980421" lon="12.195716209875416"><ele>555.0</ele><time>2026-04-12T13:18:29.022Z</time></trkpt><trkpt lat="42.75454973207308" lon="12.195572962810555"><ele>555.0</ele><time>2026-04-12T13:18:30.022Z</time></trkpt><trkpt lat="42.754573652473475" lon="12.19542847485974"><ele>555.0</ele><time>2026-04-12T13:18:31.022Z</time></trkpt><trkpt lat="42.75460823290381" lon="12.1952803875888"><ele>555.0</ele><time>2026-04-12T13:18:32.022Z</time></trkpt><trkpt lat="42.75464047547057" lon="12.195147446586057"><ele>555.0</ele><time>2026-04-12T13:18:33.022Z</time></trkpt><trkpt lat="42.75465345104954" lon="12.195010779403066"><ele>555.0</ele><time>2026-04-12T13:18:34.021Z</time></trkpt><trkpt lat="42.754632163819174" lon="12.194897124119379"><ele>554.0</ele><time>2026-04-12T13:18:35.021Z</time></trkpt><trkpt lat="42.75458777969839" lon="12.194801471586507"><ele>553.0</ele><time>2026-04-12T13:18:36.021Z</time></trkpt><trkpt lat="42.75452855646566" lon="12.194747900930384"><ele>552.0</ele><time>2026-04-12T13:18:37.021Z</time></trkpt><trkpt lat="42.75444477240939" lon="12.194698558594192"><ele>551.0</ele><time>2026-04-12T13:18:38.021Z</time></trkpt><trkpt lat="42.75435909251041" lon="12.194657780198321"><ele>550.0</ele><time>2026-04-12T13:18:39.021Z</time></trkpt><trkpt lat="42.754273683390906" lon="12.194620658236358"><ele>549.0</ele><time>2026-04-12T13:18:40.021Z</time></trkpt><trkpt lat="42.7541893271159" lon="12.19458595752249"><ele>547.8</ele><time>2026-04-12T13:18:41.021Z</time></trkpt><trkpt lat="42.75410014396132" lon="12.194539363060535"><ele>546.5999999999999</ele><time>2026-04-12T13:18:42.021Z</time></trkpt><trkpt lat="42.75400512512161" lon="12.194496703638695"><ele>545.4</ele><time>2026-04-12T13:18:43.021Z</time></trkpt><trkpt lat="42.75391445120882" lon="12.19445509462467"><ele>544.1999999999999</ele><time>2026-04-12T13:18:44.021Z</time></trkpt><trkpt lat="42.75383829746185" lon="12.194403665400273"><ele>543.0</ele><time>2026-04-12T13:18:45.021Z</time></trkpt><trkpt lat="42.75377565559254" lon="12.194334509535269"><ele>543.0</ele><time>2026-04-12T13:18:46.021Z</time></trkpt><trkpt lat="42.753740322396396" lon="12.194246236876143"><ele>543.0</ele><time>2026-04-12T13:18:47.021Z</time></trkpt><trkpt lat="42.753749398859796" lon="12.19414419821279"><ele>543.0</ele><time>2026-04-12T13:18:48.021Z</time></trkpt><trkpt lat="42.753808205054646" lon="12.194088847185252"><ele>543.0</ele><time>2026-04-12T13:18:49.021Z</time></trkpt><trkpt lat="42.75387062381642" lon="12.194023695327564"><ele>543.0</ele><time>2026-04-12T13:18:50.021Z</time></trkpt><trkpt lat="42.753952256637035" lon="12.193960865162643"><ele>543.0</ele><time>2026-04-12T13:18:51.021Z</time></trkpt><trkpt lat="42.754052465252045" lon="12.193888563638065"><ele>542.4</ele><time>2026-04-12T13:18:52.021Z</time></trkpt><trkpt lat="42.75415949633247" lon="12.193812611634849"><ele>541.8</ele><time>2026-04-12T13:18:53.021Z</time></trkpt><trkpt lat="42.75424627034288" lon="12.193717076731177"><ele>541.2</ele><time>2026-04-12T13:18:54.021Z</time></trkpt><trkpt lat="42.75432691495414" lon="12.193627199561437"><ele>540.6</ele><time>2026-04-12T13:18:55.021Z</time></trkpt><trkpt lat="42.75438693981922" lon="12.193505417110527"><ele>540.0</ele><time>2026-04-12T13:18:56.021Z</time></trkpt><trkpt lat="42.75444709543361" lon="12.193379468775857"><ele>540.0</ele><time>2026-04-12T13:18:57.021Z</time></trkpt><trkpt lat="42.754495525834784" lon="12.193254327527686"><ele>540.0</ele><time>2026-04-12T13:18:58.021Z</time></trkpt><trkpt lat="42.754542451523534" lon="12.193132227223971"><ele>540.0</ele><time>2026-04-12T13:18:59.021Z</time></trkpt><trkpt lat="42.754578580266546" lon="12.193006963329605"><ele>540.0</ele><time>2026-04-12T13:19:00.021Z</time></trkpt><trkpt lat="42.754645835740504" lon="12.192910764619967"><ele>540.0</ele><time>2026-04-12T13:19:01.021Z</time></trkpt><trkpt lat="42.754709704444245" lon="12.192810755746184"><ele>538.6</ele><time>2026-04-12T13:19:02.021Z</time></trkpt><trkpt lat="42.754774541495884" lon="12.192720555033164"><ele>537.2</ele><time>2026-04-12T13:19:03.021Z</time></trkpt><trkpt lat="42.7548223168975" lon="12.192633892668168"><ele>535.8</ele><time>2026-04-12T13:19:04.023Z</time></trkpt><trkpt lat="42.75490589887755" lon="12.192559246688461"><ele>534.4</ele><time>2026-04-12T13:19:06.023Z</time></trkpt><trkpt lat="42.75493917439739" lon="12.192464559701131"><ele>533.0</ele><time>2026-04-12T13:19:11.023Z</time></trkpt><trkpt lat="42.754818523258564" lon="12.192602927508808"><ele>533.0</ele><time>2026-04-12T13:19:15.023Z</time></trkpt><trkpt lat="42.754765338159515" lon="12.192710019286238"><ele>533.0</ele><time>2026-04-12T13:19:16.023Z</time></trkpt><trkpt lat="42.75468705845026" lon="12.192818332605302"><ele>533.0</ele><time>2026-04-12T13:19:17.023Z</time></trkpt><trkpt lat="42.754610520893785" lon="12.192931605800887"><ele>533.0</ele><time>2026-04-12T13:19:18.023Z</time></trkpt><trkpt lat="42.75455553697603" lon="12.193077097492639"><ele>533.0</ele><time>2026-04-12T13:19:19.023Z</time></trkpt><trkpt lat="42.754500006776595" lon="12.193237414814234"><ele>534.0</ele><time>2026-04-12T13:19:20.023Z</time></trkpt><trkpt lat="42.75443479217757" lon="12.193393461827695"><ele>535.0</ele><time>2026-04-12T13:19:21.023Z</time></trkpt><trkpt lat="42.754358357329906" lon="12.193567636014716"><ele>536.0</ele><time>2026-04-12T13:19:22.023Z</time></trkpt><trkpt lat="42.75428053661074" lon="12.19375291302802"><ele>537.0</ele><time>2026-04-12T13:19:23.023Z</time></trkpt><trkpt lat="42.75418152177323" lon="12.193912868590383"><ele>537.0</ele><time>2026-04-12T13:19:24.023Z</time></trkpt><trkpt lat="42.75407447794549" lon="12.19404359141961"><ele>537.0</ele><time>2026-04-12T13:19:25.023Z</time></trkpt><trkpt lat="42.75408315058346" lon="12.193849149526125"><ele>537.0</ele><time>2026-04-12T13:19:26.023Z</time></trkpt><trkpt lat="42.753967444291156" lon="12.193923070686001"><ele>537.0</ele><time>2026-04-12T13:19:27.023Z</time></trkpt><trkpt lat="42.75386035336012" lon="12.193998448254915"><ele>538.2</ele><time>2026-04-12T13:19:28.023Z</time></trkpt><trkpt lat="42.753769713978166" lon="12.1940804378609"><ele>539.4000000000001</ele><time>2026-04-12T13:19:29.023Z</time></trkpt><trkpt lat="42.753708271034085" lon="12.194174694449746"><ele>540.5999999999999</ele><time>2026-04-12T13:19:30.023Z</time></trkpt><trkpt lat="42.753677911243464" lon="12.194283670741944"><ele>541.8</ele><time>2026-04-12T13:19:31.023Z</time></trkpt><trkpt lat="42.75369166703802" lon="12.194396999832815"><ele>543.0</ele><time>2026-04-12T13:19:32.023Z</time></trkpt><trkpt lat="42.75375340922985" lon="12.19449792211853"><ele>543.0</ele><time>2026-04-12T13:19:33.023Z</time></trkpt><trkpt lat="42.75385097416689" lon="12.194552174858803"><ele>543.0</ele><time>2026-04-12T13:19:34.023Z</time></trkpt><trkpt lat="42.75396246335405" lon="12.194591827556089"><ele>543.0</ele><time>2026-04-12T13:19:35.023Z</time></trkpt><trkpt lat="42.754082212619736" lon="12.194623590714313"><ele>543.0</ele><time>2026-04-12T13:19:36.023Z</time></trkpt><trkpt lat="42.75420355825327" lon="12.194652302080806"><ele>543.0</ele><time>2026-04-12T13:19:37.023Z</time></trkpt><trkpt lat="42.75431894116966" lon="12.194726675012758"><ele>543.0</ele><time>2026-04-12T13:19:38.023Z</time></trkpt><trkpt lat="42.75444345453468" lon="12.194804367047253"><ele>543.0</ele><time>2026-04-12T13:19:39.023Z</time></trkpt><trkpt lat="42.75454757655022" lon="12.194878044608302"><ele>543.0</ele><time>2026-04-12T13:19:40.023Z</time></trkpt><trkpt lat="42.75462639887024" lon="12.194988125175485"><ele>545.4</ele><time>2026-04-12T13:19:41.023Z</time></trkpt><trkpt lat="42.754658377225674" lon="12.195095649624067"><ele>547.8</ele><time>2026-04-12T13:19:42.023Z</time></trkpt><trkpt lat="42.7546446076153" lon="12.195214655635194"><ele>550.2</ele><time>2026-04-12T13:19:43.023Z</time></trkpt><trkpt lat="42.754601982862326" lon="12.19533340125948"><ele>552.6</ele><time>2026-04-12T13:19:44.023Z</time></trkpt><trkpt lat="42.754537111186735" lon="12.195458002188358"><ele>555.0</ele><time>2026-04-12T13:19:45.023Z</time></trkpt><trkpt lat="42.7545015287469" lon="12.195606616500497"><ele>555.2</ele><time>2026-04-12T13:19:46.023Z</time></trkpt><trkpt lat="42.754465567593826" lon="12.195760653057944"><ele>555.4</ele><time>2026-04-12T13:19:47.023Z</time></trkpt><trkpt lat="42.75443203505055" lon="12.195904286728764"><ele>555.6</ele><time>2026-04-12T13:19:48.023Z</time></trkpt><trkpt lat="42.75441870133" lon="12.1960414668673"><ele>555.8</ele><time>2026-04-12T13:19:49.023Z</time></trkpt><trkpt lat="42.754406885134195" lon="12.196167596202075"><ele>556.0</ele><time>2026-04-12T13:19:50.023Z</time></trkpt><trkpt lat="42.75442008199634" lon="12.196280172417048"><ele>556.0</ele><time>2026-04-12T13:19:51.023Z</time></trkpt><trkpt lat="42.75446023092258" lon="12.196378054238998"><ele>556.0</ele><time>2026-04-12T13:19:52.023Z</time></trkpt><trkpt lat="42.754509560516716" lon="12.196445135163565"><ele>556.0</ele><time>2026-04-12T13:19:53.023Z</time></trkpt><trkpt lat="42.75453035246215" lon="12.196527237756653"><ele>556.0</ele><time>2026-04-12T13:19:55.022Z</time></trkpt><trkpt lat="42.75459856046242" lon="12.196536174047603"><ele>556.0</ele><time>2026-04-12T13:19:58.022Z</time></trkpt><trkpt lat="42.75466306841168" lon="12.196595480842433"><ele>556.0</ele><time>2026-04-12T13:20:02.022Z</time></trkpt><trkpt lat="42.75462764943395" lon="12.196519529175221"><ele>556.0</ele><time>2026-04-12T13:20:07.022Z</time></trkpt><trkpt lat="42.75466123427412" lon="12.196438384618244"><ele>556.0</ele><time>2026-04-12T13:20:11.022Z</time></trkpt><trkpt lat="42.754782600923136" lon="12.196470495870715"><ele>556.0</ele><time>2026-04-12T13:20:13.022Z</time></trkpt><trkpt lat="42.75488069603718" lon="12.196515289079887"><ele>556.0</ele><time>2026-04-12T13:20:14.022Z</time></trkpt><trkpt lat="42.75501940742167" lon="12.196563121246422"><ele>556.0</ele><time>2026-04-12T13:20:15.022Z</time></trkpt><trkpt lat="42.75517665698247" lon="12.196620800597616"><ele>556.6666666666667</ele><time>2026-04-12T13:20:16.022Z</time></trkpt><trkpt lat="42.755353575153805" lon="12.196689616857155"><ele>557.3333333333334</ele><time>2026-04-12T13:20:17.022Z</time></trkpt><trkpt lat="42.75552337435217" lon="12.196754298746999"><ele>558.0</ele><time>2026-04-12T13:20:18.022Z</time></trkpt><trkpt lat="42.755678356055945" lon="12.196838014511773"><ele>558.0</ele><time>2026-04-12T13:20:19.022Z</time></trkpt><trkpt lat="42.75581249628688" lon="12.196901776695116"><ele>558.0</ele><time>2026-04-12T13:20:20.022Z</time></trkpt><trkpt lat="42.755953186017095" lon="12.196951887966152"><ele>558.0</ele><time>2026-04-12T13:20:21.022Z</time></trkpt><trkpt lat="42.75608712600466" lon="12.197028745281882"><ele>558.0</ele><time>2026-04-12T13:20:22.022Z</time></trkpt><trkpt lat="42.75622162043665" lon="12.197104515895017"><ele>559.5</ele><time>2026-04-12T13:20:23.022Z</time></trkpt><trkpt lat="42.75634486421479" lon="12.197172915228684"><ele>561.0</ele><time>2026-04-12T13:20:24.022Z</time></trkpt><trkpt lat="42.75647058544421" lon="12.197201073127266"><ele>562.5</ele><time>2026-04-12T13:20:25.022Z</time></trkpt><trkpt lat="42.75660165946329" lon="12.197178439931914"><ele>564.0</ele><time>2026-04-12T13:20:26.022Z</time></trkpt><trkpt lat="42.75674270655151" lon="12.197122951421804"><ele>563.0</ele><time>2026-04-12T13:20:27.022Z</time></trkpt><trkpt lat="42.756871360250734" lon="12.197071804052527"><ele>562.0</ele><time>2026-04-12T13:20:28.022Z</time></trkpt><trkpt lat="42.75702142738937" lon="12.197012617559789"><ele>561.0</ele><time>2026-04-12T13:20:29.022Z</time></trkpt><trkpt lat="42.75718267594951" lon="12.196949456900624"><ele>561.0</ele><time>2026-04-12T13:20:30.022Z</time></trkpt><trkpt lat="42.75734867896079" lon="12.196891248290113"><ele>561.0</ele><time>2026-04-12T13:20:31.022Z</time></trkpt><trkpt lat="42.757519443787395" lon="12.19683166463497"><ele>561.0</ele><time>2026-04-12T13:20:32.022Z</time></trkpt><trkpt lat="42.75769700895298" lon="12.196807720639946"><ele>559.3333333333334</ele><time>2026-04-12T13:20:33.022Z</time></trkpt><trkpt lat="42.757876973417495" lon="12.196809576981906"><ele>557.6666666666667</ele><time>2026-04-12T13:20:34.022Z</time></trkpt><trkpt lat="42.758050498730114" lon="12.196859459124266"><ele>556.0</ele><time>2026-04-12T13:20:35.022Z</time></trkpt><trkpt lat="42.75822196324321" lon="12.19693844398852"><ele>556.0</ele><time>2026-04-12T13:20:36.022Z</time></trkpt><trkpt lat="42.75839412504274" lon="12.19702228054816"><ele>556.0</ele><time>2026-04-12T13:20:37.022Z</time></trkpt><trkpt lat="42.75857819606806" lon="12.197104548502722"><ele>556.0</ele><time>2026-04-12T13:20:38.022Z</time></trkpt><trkpt lat="42.75877360308334" lon="12.19716588999471"><ele>556.6666666666667</ele><time>2026-04-12T13:20:39.022Z</time></trkpt><trkpt lat="42.758973586177994" lon="12.197208193290512"><ele>557.3333333333334</ele><time>2026-04-12T13:20:40.022Z</time></trkpt><trkpt lat="42.75917399960028" lon="12.197231843445152"><ele>558.0</ele><time>2026-04-12T13:20:41.022Z</time></trkpt><trkpt lat="42.75939133551" lon="12.197212654933981"><ele>558.0</ele><time>2026-04-12T13:20:42.022Z</time></trkpt><trkpt lat="42.75960716331365" lon="12.197185272698631"><ele>558.0</ele><time>2026-04-12T13:20:43.022Z</time></trkpt><trkpt lat="42.75980962536755" lon="12.197159667550586"><ele>558.0</ele><time>2026-04-12T13:20:44.022Z</time></trkpt><trkpt lat="42.75999836755867" lon="12.197165523825186"><ele>558.0</ele><time>2026-04-12T13:20:45.022Z</time></trkpt><trkpt lat="42.760178758999345" lon="12.197243193938004"><ele>558.0</ele><time>2026-04-12T13:20:46.022Z</time></trkpt><trkpt lat="42.7603496741255" lon="12.19734541655002"><ele>558.0</ele><time>2026-04-12T13:20:47.022Z</time></trkpt><trkpt lat="42.7605141782555" lon="12.197454245288105"><ele>559.3333333333334</ele><time>2026-04-12T13:20:48.022Z</time></trkpt><trkpt lat="42.76069448387963" lon="12.197563188200174"><ele>560.6666666666667</ele><time>2026-04-12T13:20:49.022Z</time></trkpt><trkpt lat="42.76085731230425" lon="12.19768693086828"><ele>562.0</ele><time>2026-04-12T13:20:50.022Z</time></trkpt><trkpt lat="42.760995726313624" lon="12.197802372226578"><ele>564.25</ele><time>2026-04-12T13:20:51.022Z</time></trkpt><trkpt lat="42.76110502736111" lon="12.197916553294778"><ele>566.5</ele><time>2026-04-12T13:20:52.022Z</time></trkpt><trkpt lat="42.761171202840636" lon="12.198056431696807"><ele>568.75</ele><time>2026-04-12T13:20:53.022Z</time></trkpt><trkpt lat="42.76121165042695" lon="12.198214645882533"><ele>571.0</ele><time>2026-04-12T13:20:54.022Z</time></trkpt><trkpt lat="42.76122870246572" lon="12.198381836768842"><ele>572.5</ele><time>2026-04-12T13:20:55.022Z</time></trkpt><trkpt lat="42.76123816328996" lon="12.198568456201267"><ele>574.0</ele><time>2026-04-12T13:20:56.022Z</time></trkpt><trkpt lat="42.76126145288569" lon="12.198742841840737"><ele>575.5</ele><time>2026-04-12T13:20:57.022Z</time></trkpt><trkpt lat="42.76127497662718" lon="12.198918827917817"><ele>577.0</ele><time>2026-04-12T13:20:58.022Z</time></trkpt><trkpt lat="42.76130489730225" lon="12.199089111921634"><ele>577.6666666666667</ele><time>2026-04-12T13:20:59.022Z</time></trkpt><trkpt lat="42.76133108735368" lon="12.19923288841661"><ele>578.3333333333334</ele><time>2026-04-12T13:21:00.022Z</time></trkpt><trkpt lat="42.761315919968474" lon="12.19935507958752"><ele>579.0</ele><time>2026-04-12T13:21:01.022Z</time></trkpt><trkpt lat="42.76127165182617" lon="12.199425791136147"><ele>579.6666666666666</ele><time>2026-04-12T13:21:02.022Z</time></trkpt><trkpt lat="42.761188927714244" lon="12.19945128935745"><ele>580.3333333333333</ele><time>2026-04-12T13:21:03.022Z</time></trkpt><trkpt lat="42.76112121649054" lon="12.199450530408631"><ele>581.0</ele><time>2026-04-12T13:21:04.022Z</time></trkpt><trkpt lat="42.761006052678894" lon="12.199449621626904"><ele>578.4</ele><time>2026-04-12T13:21:05.022Z</time></trkpt><trkpt lat="42.760903309394436" lon="12.199445826701593"><ele>575.8</ele><time>2026-04-12T13:21:06.022Z</time></trkpt><trkpt lat="42.76080805457649" lon="12.199455374929855"><ele>573.1999999999999</ele><time>2026-04-12T13:21:07.021Z</time></trkpt><trkpt lat="42.7607139242098" lon="12.199541777418492"><ele>570.6</ele><time>2026-04-12T13:21:08.021Z</time></trkpt><trkpt lat="42.76067029634589" lon="12.199634309959219"><ele>568.0</ele><time>2026-04-12T13:21:09.021Z</time></trkpt><trkpt lat="42.76068895270395" lon="12.199742816619874"><ele>568.75</ele><time>2026-04-12T13:21:10.024Z</time></trkpt><trkpt lat="42.76073071799193" lon="12.199849769203519"><ele>569.5</ele><time>2026-04-12T13:21:11.024Z</time></trkpt><trkpt lat="42.76078912086338" lon="12.199987026465566"><ele>570.25</ele><time>2026-04-12T13:21:12.024Z</time></trkpt><trkpt lat="42.760883222219036" lon="12.20007705817246"><ele>571.0</ele><time>2026-04-12T13:21:13.024Z</time></trkpt><trkpt lat="42.76101070589145" lon="12.200142908948441"><ele>573.5</ele><time>2026-04-12T13:21:14.024Z</time></trkpt><trkpt lat="42.761140761151665" lon="12.20019841686212"><ele>576.0</ele><time>2026-04-12T13:21:15.024Z</time></trkpt><trkpt lat="42.761264817717326" lon="12.200236720054876"><ele>578.5</ele><time>2026-04-12T13:21:16.024Z</time></trkpt><trkpt lat="42.76137596882656" lon="12.200231575206253"><ele>581.0</ele><time>2026-04-12T13:21:17.024Z</time></trkpt><trkpt lat="42.7614702553159" lon="12.200190185464276"><ele>581.0</ele><time>2026-04-12T13:21:18.024Z</time></trkpt><trkpt lat="42.76154279773375" lon="12.200106899413349"><ele>581.0</ele><time>2026-04-12T13:21:19.024Z</time></trkpt><trkpt lat="42.7616027106832" lon="12.199969432684815"><ele>581.0</ele><time>2026-04-12T13:21:20.024Z</time></trkpt><trkpt lat="42.76166996080199" lon="12.199849127122949"><ele>581.0</ele><time>2026-04-12T13:21:21.024Z</time></trkpt><trkpt lat="42.761749648831945" lon="12.199740102715086"><ele>581.0</ele><time>2026-04-12T13:21:22.024Z</time></trkpt><trkpt lat="42.76182676593971" lon="12.199635508104885"><ele>581.0</ele><time>2026-04-12T13:21:23.024Z</time></trkpt><trkpt lat="42.761881057223164" lon="12.199540127247733"><ele>581.0</ele><time>2026-04-12T13:21:24.024Z</time></trkpt><trkpt lat="42.76190753507362" lon="12.199432676548842"><ele>581.0</ele><time>2026-04-12T13:21:25.024Z</time></trkpt><trkpt lat="42.76190305194646" lon="12.199283182067829"><ele>581.0</ele><time>2026-04-12T13:21:26.024Z</time></trkpt><trkpt lat="42.7618408108762" lon="12.199152393812033"><ele>581.0</ele><time>2026-04-12T13:21:27.024Z</time></trkpt><trkpt lat="42.76183302467644" lon="12.19902870109089"><ele>580.2</ele><time>2026-04-12T13:21:28.024Z</time></trkpt><trkpt lat="42.761843138097916" lon="12.19893113560446"><ele>579.4000000000001</ele><time>2026-04-12T13:21:29.024Z</time></trkpt><trkpt lat="42.761903904311545" lon="12.19886262095025"><ele>578.6</ele><time>2026-04-12T13:21:30.024Z</time></trkpt><trkpt lat="42.761966439213666" lon="12.198811719965876"><ele>577.8000000000001</ele><time>2026-04-12T13:21:31.024Z</time></trkpt><trkpt lat="42.76206862750246" lon="12.198773483665462"><ele>577.0</ele><time>2026-04-12T13:21:32.024Z</time></trkpt><trkpt lat="42.7621916707709" lon="12.198709188095332"><ele>581.0</ele><time>2026-04-12T13:21:33.024Z</time></trkpt><trkpt lat="42.76230405444038" lon="12.198633488339715"><ele>585.0</ele><time>2026-04-12T13:21:34.024Z</time></trkpt><trkpt lat="42.7623892699391" lon="12.19852476496618"><ele>589.0</ele><time>2026-04-12T13:21:35.024Z</time></trkpt><trkpt lat="42.76244223380178" lon="12.198348137038659"><ele>593.0</ele><time>2026-04-12T13:21:36.024Z</time></trkpt><trkpt lat="42.76245072865526" lon="12.198183101698579"><ele>591.25</ele><time>2026-04-12T13:21:37.024Z</time></trkpt><trkpt lat="42.76247250364009" lon="12.198013019889544"><ele>589.5</ele><time>2026-04-12T13:21:38.024Z</time></trkpt><trkpt lat="42.76251643273652" lon="12.1978574274482"><ele>587.75</ele><time>2026-04-12T13:21:39.024Z</time></trkpt><trkpt lat="42.76258254240429" lon="12.197721133108056"><ele>586.0</ele><time>2026-04-12T13:21:40.024Z</time></trkpt><trkpt lat="42.76266386505715" lon="12.19759346580597"><ele>589.5</ele><time>2026-04-12T13:21:41.024Z</time></trkpt><trkpt lat="42.762749273764236" lon="12.197485438278749"><ele>593.0</ele><time>2026-04-12T13:21:42.024Z</time></trkpt><trkpt lat="42.7628403297281" lon="12.197430496481193"><ele>596.5</ele><time>2026-04-12T13:21:43.024Z</time></trkpt><trkpt lat="42.76295150430871" lon="12.197367531787659"><ele>600.0</ele><time>2026-04-12T13:21:44.024Z</time></trkpt><trkpt lat="42.763073150426926" lon="12.197338522667476"><ele>600.0</ele><time>2026-04-12T13:21:45.024Z</time></trkpt><trkpt lat="42.76321105035409" lon="12.19732819797647"><ele>600.0</ele><time>2026-04-12T13:21:46.024Z</time></trkpt><trkpt lat="42.763338843148375" lon="12.197371716476878"><ele>600.0</ele><time>2026-04-12T13:21:47.024Z</time></trkpt><trkpt lat="42.7634579804336" lon="12.197460754538321"><ele>600.0</ele><time>2026-04-12T13:21:48.024Z</time></trkpt><trkpt lat="42.763566846673015" lon="12.197539617859624"><ele>600.75</ele><time>2026-04-12T13:21:49.024Z</time></trkpt><trkpt lat="42.76368257625918" lon="12.197600494453063"><ele>601.5</ele><time>2026-04-12T13:21:50.024Z</time></trkpt><trkpt lat="42.763816348859876" lon="12.197605977238117"><ele>602.25</ele><time>2026-04-12T13:21:51.024Z</time></trkpt><trkpt lat="42.76393180123681" lon="12.197543097754824"><ele>603.0</ele><time>2026-04-12T13:21:52.024Z</time></trkpt><trkpt lat="42.76407135913141" lon="12.19746837919245"><ele>603.0</ele><time>2026-04-12T13:21:53.024Z</time></trkpt><trkpt lat="42.764240009179154" lon="12.197396608103043"><ele>603.0</ele><time>2026-04-12T13:21:54.024Z</time></trkpt><trkpt lat="42.76442080023153" lon="12.197302857450083"><ele>603.0</ele><time>2026-04-12T13:21:55.024Z</time></trkpt><trkpt lat="42.76459668952452" lon="12.197211400607156"><ele>603.3333333333334</ele><time>2026-04-12T13:21:56.024Z</time></trkpt><trkpt lat="42.76478358311579" lon="12.197112665610709"><ele>603.6666666666667</ele><time>2026-04-12T13:21:57.024Z</time></trkpt><trkpt lat="42.764975184131956" lon="12.197009499113902"><ele>604.0</ele><time>2026-04-12T13:21:58.024Z</time></trkpt><trkpt lat="42.765170944650876" lon="12.196902524372053"><ele>609.0</ele><time>2026-04-12T13:21:59.024Z</time></trkpt><trkpt lat="42.765352253187324" lon="12.196795354771504"><ele>614.0</ele><time>2026-04-12T13:22:00.024Z</time></trkpt><trkpt lat="42.76551621175018" lon="12.196684970490319"><ele>619.0</ele><time>2026-04-12T13:22:01.024Z</time></trkpt><trkpt lat="42.76566853428408" lon="12.196575966144378"><ele>618.6666666666667</ele><time>2026-04-12T13:22:02.024Z</time></trkpt><trkpt lat="42.76581397248511" lon="12.19646628067021"><ele>618.3333333333334</ele><time>2026-04-12T13:22:03.024Z</time></trkpt><trkpt lat="42.76594932808022" lon="12.19634631172049"><ele>618.0</ele><time>2026-04-12T13:22:04.024Z</time></trkpt><trkpt lat="42.76607477430994" lon="12.196242511515342"><ele>618.0</ele><time>2026-04-12T13:22:05.024Z</time></trkpt><trkpt lat="42.76620126776309" lon="12.196166304435232"><ele>618.0</ele><time>2026-04-12T13:22:06.024Z</time></trkpt><trkpt lat="42.76633561599166" lon="12.196124335597046"><ele>618.0</ele><time>2026-04-12T13:22:07.024Z</time></trkpt><trkpt lat="42.766462540570096" lon="12.196106311661698"><ele>618.0</ele><time>2026-04-12T13:22:08.024Z</time></trkpt><trkpt lat="42.76659905948198" lon="12.196101506352392"><ele>618.0</ele><time>2026-04-12T13:22:09.024Z</time></trkpt><trkpt lat="42.76676046022987" lon="12.196115639533472"><ele>618.0</ele><time>2026-04-12T13:22:10.024Z</time></trkpt><trkpt lat="42.766956720187494" lon="12.196137926101088"><ele>618.0</ele><time>2026-04-12T13:22:11.024Z</time></trkpt><trkpt lat="42.76714611855431" lon="12.196145807711021"><ele>619.3333333333334</ele><time>2026-04-12T13:22:12.024Z</time></trkpt><trkpt lat="42.76732948594834" lon="12.196112768969613"><ele>620.6666666666667</ele><time>2026-04-12T13:22:13.024Z</time></trkpt><trkpt lat="42.76750264262643" lon="12.196053561020422"><ele>622.0</ele><time>2026-04-12T13:22:14.024Z</time></trkpt><trkpt lat="42.76766303985164" lon="12.19598650680049"><ele>622.75</ele><time>2026-04-12T13:22:15.024Z</time></trkpt><trkpt lat="42.76780505238456" lon="12.195925744580844"><ele>623.5</ele><time>2026-04-12T13:22:16.024Z</time></trkpt><trkpt lat="42.76794844142" lon="12.195859952805815"><ele>624.25</ele><time>2026-04-12T13:22:17.024Z</time></trkpt><trkpt lat="42.768066158013724" lon="12.195770538757367"><ele>625.0</ele><time>2026-04-12T13:22:18.024Z</time></trkpt><trkpt lat="42.76815590157224" lon="12.195627055224106"><ele>625.0</ele><time>2026-04-12T13:22:19.024Z</time></trkpt><trkpt lat="42.76819468591317" lon="12.195444309716077"><ele>625.0</ele><time>2026-04-12T13:22:20.024Z</time></trkpt><trkpt lat="42.76823276491573" lon="12.195278780064212"><ele>625.0</ele><time>2026-04-12T13:22:21.024Z</time></trkpt><trkpt lat="42.76828514324652" lon="12.195162551636097"><ele>625.0</ele><time>2026-04-12T13:22:22.024Z</time></trkpt><trkpt lat="42.768356212757205" lon="12.195084384084826"><ele>625.0</ele><time>2026-04-12T13:22:23.024Z</time></trkpt><trkpt lat="42.768453243007905" lon="12.19503067833718"><ele>625.0</ele><time>2026-04-12T13:22:24.024Z</time></trkpt><trkpt lat="42.76857507961309" lon="12.194988252286258"><ele>625.0</ele><time>2026-04-12T13:22:25.024Z</time></trkpt><trkpt lat="42.768694083418275" lon="12.19497959958619"><ele>625.0</ele><time>2026-04-12T13:22:26.024Z</time></trkpt><trkpt lat="42.76881571764058" lon="12.195012613786353"><ele>625.3333333333334</ele><time>2026-04-12T13:22:27.024Z</time></trkpt><trkpt lat="42.768934865012746" lon="12.19508612194986"><ele>625.6666666666666</ele><time>2026-04-12T13:22:28.024Z</time></trkpt><trkpt lat="42.76906912536152" lon="12.195167700676942"><ele>626.0</ele><time>2026-04-12T13:22:29.024Z</time></trkpt><trkpt lat="42.76920178617785" lon="12.195320604160349"><ele>626.0</ele><time>2026-04-12T13:22:30.024Z</time></trkpt><trkpt lat="42.76933366844393" lon="12.19546274528955"><ele>626.0</ele><time>2026-04-12T13:22:31.024Z</time></trkpt><trkpt lat="42.769447397656805" lon="12.195579607022589"><ele>626.0</ele><time>2026-04-12T13:22:32.024Z</time></trkpt><trkpt lat="42.769551885925715" lon="12.195693081279336"><ele>626.0</ele><time>2026-04-12T13:22:33.023Z</time></trkpt><trkpt lat="42.76964656734739" lon="12.19580367999303"><ele>625.8</ele><time>2026-04-12T13:22:34.023Z</time></trkpt><trkpt lat="42.76971534096095" lon="12.195924269237898"><ele>625.6</ele><time>2026-04-12T13:22:35.023Z</time></trkpt><trkpt lat="42.76977785423274" lon="12.196043597013876"><ele>625.4</ele><time>2026-04-12T13:22:36.023Z</time></trkpt><trkpt lat="42.76980406699096" lon="12.196187617338667"><ele>625.2</ele><time>2026-04-12T13:22:37.023Z</time></trkpt><trkpt lat="42.76980241196953" lon="12.196304279083682"><ele>625.0</ele><time>2026-04-12T13:22:38.023Z</time></trkpt><trkpt lat="42.76984745026094" lon="12.196535659754758"><ele>628.3333333333334</ele><time>2026-04-12T13:22:39.023Z</time></trkpt><trkpt lat="42.7698419022848" lon="12.196720619357151"><ele>631.6666666666666</ele><time>2026-04-12T13:22:40.023Z</time></trkpt><trkpt lat="42.76986300695428" lon="12.19694062920902"><ele>635.0</ele><time>2026-04-12T13:22:41.023Z</time></trkpt><trkpt lat="42.76989960759747" lon="12.197162531173097"><ele>636.6666666666666</ele><time>2026-04-12T13:22:42.023Z</time></trkpt><trkpt lat="42.76995055322426" lon="12.197400636995734"><ele>638.3333333333334</ele><time>2026-04-12T13:22:43.023Z</time></trkpt><trkpt lat="42.76999140608214" lon="12.19761688411543"><ele>640.0</ele><time>2026-04-12T13:22:44.023Z</time></trkpt><trkpt lat="42.77002034077112" lon="12.197812603408675"><ele>640.0</ele><time>2026-04-12T13:22:45.023Z</time></trkpt><trkpt lat="42.7700287260432" lon="12.197975617007886"><ele>640.0</ele><time>2026-04-12T13:22:46.023Z</time></trkpt><trkpt lat="42.77001801087079" lon="12.198110330455087"><ele>640.0</ele><time>2026-04-12T13:22:47.023Z</time></trkpt><trkpt lat="42.769975655595736" lon="12.198212100841404"><ele>640.0</ele><time>2026-04-12T13:22:48.023Z</time></trkpt><trkpt lat="42.76991637518414" lon="12.1982565940148"><ele>640.0</ele><time>2026-04-12T13:22:49.023Z</time></trkpt><trkpt lat="42.76983716834232" lon="12.198302036351155"><ele>639.0</ele><time>2026-04-12T13:22:50.023Z</time></trkpt><trkpt lat="42.76972209805427" lon="12.198367828958819"><ele>638.0</ele><time>2026-04-12T13:22:51.023Z</time></trkpt><trkpt lat="42.769595956294715" lon="12.198439157221875"><ele>637.0</ele><time>2026-04-12T13:22:52.023Z</time></trkpt><trkpt lat="42.76946544481566" lon="12.198529039596416"><ele>636.0</ele><time>2026-04-12T13:22:53.023Z</time></trkpt><trkpt lat="42.769339383291374" lon="12.198631748572458"><ele>640.0</ele><time>2026-04-12T13:22:54.023Z</time></trkpt><trkpt lat="42.76922328380924" lon="12.198761065003712"><ele>644.0</ele><time>2026-04-12T13:22:55.023Z</time></trkpt><trkpt lat="42.76914247521672" lon="12.19892808318933"><ele>648.0</ele><time>2026-04-12T13:22:56.023Z</time></trkpt><trkpt lat="42.76907799636864" lon="12.199096304595628"><ele>652.0</ele><time>2026-04-12T13:22:57.023Z</time></trkpt><trkpt lat="42.769045596470555" lon="12.199282278914085"><ele>652.0</ele><time>2026-04-12T13:22:58.023Z</time></trkpt><trkpt lat="42.76903236923833" lon="12.19947442250717"><ele>652.0</ele><time>2026-04-12T13:22:59.023Z</time></trkpt><trkpt lat="42.76904064211245" lon="12.199665949207837"><ele>652.0</ele><time>2026-04-12T13:23:00.023Z</time></trkpt><trkpt lat="42.769103573166966" lon="12.199864855714512"><ele>652.0</ele><time>2026-04-12T13:23:01.023Z</time></trkpt><trkpt lat="42.76914855237113" lon="12.200056747123195"><ele>652.25</ele><time>2026-04-12T13:23:02.023Z</time></trkpt><trkpt lat="42.76918140102515" lon="12.200227318225753"><ele>652.5</ele><time>2026-04-12T13:23:03.023Z</time></trkpt><trkpt lat="42.76919671687415" lon="12.200382535760305"><ele>652.75</ele><time>2026-04-12T13:23:04.023Z</time></trkpt><trkpt lat="42.7691982100822" lon="12.200519780995586"><ele>653.0</ele><time>2026-04-12T13:23:05.023Z</time></trkpt><trkpt lat="42.769148731377754" lon="12.200659179473472"><ele>652.75</ele><time>2026-04-12T13:23:06.023Z</time></trkpt><trkpt lat="42.76910214822681" lon="12.20082408887228"><ele>652.5</ele><time>2026-04-12T13:23:07.023Z</time></trkpt><trkpt lat="42.76907302250333" lon="12.20098985702083"><ele>652.25</ele><time>2026-04-12T13:23:08.023Z</time></trkpt><trkpt lat="42.76908371316397" lon="12.201184965000813"><ele>652.0</ele><time>2026-04-12T13:23:09.023Z</time></trkpt><trkpt lat="42.76911506843516" lon="12.201375613311352"><ele>651.5</ele><time>2026-04-12T13:23:10.023Z</time></trkpt><trkpt lat="42.769124005618735" lon="12.201559525719366"><ele>651.0</ele><time>2026-04-12T13:23:11.023Z</time></trkpt><trkpt lat="42.76908922186963" lon="12.20172191246926"><ele>650.5</ele><time>2026-04-12T13:23:12.023Z</time></trkpt><trkpt lat="42.769090484957104" lon="12.201871614119147"><ele>650.0</ele><time>2026-04-12T13:23:13.023Z</time></trkpt><trkpt lat="42.769078375017706" lon="12.202024270072167"><ele>650.0</ele><time>2026-04-12T13:23:14.023Z</time></trkpt><trkpt lat="42.76912461390756" lon="12.20217199444305"><ele>650.0</ele><time>2026-04-12T13:23:15.023Z</time></trkpt><trkpt lat="42.76919740309187" lon="12.202313287925655"><ele>650.0</ele><time>2026-04-12T13:23:16.024Z</time></trkpt><trkpt lat="42.76928302084579" lon="12.202434163077214"><ele>650.0</ele><time>2026-04-12T13:23:17.025Z</time></trkpt><trkpt lat="42.76935324571102" lon="12.202570431061234"><ele>651.4</ele><time>2026-04-12T13:23:18.025Z</time></trkpt><trkpt lat="42.76939726536024" lon="12.202705602163334"><ele>652.8</ele><time>2026-04-12T13:23:19.025Z</time></trkpt><trkpt lat="42.76940127101966" lon="12.20282129793469"><ele>654.2</ele><time>2026-04-12T13:23:20.025Z</time></trkpt><trkpt lat="42.76934277470217" lon="12.202911230415275"><ele>655.6</ele><time>2026-04-12T13:23:21.025Z</time></trkpt><trkpt lat="42.76930410496399" lon="12.20301705812924"><ele>657.0</ele><time>2026-04-12T13:23:22.025Z</time></trkpt><trkpt lat="42.76927781146585" lon="12.203132485490439"><ele>655.75</ele><time>2026-04-12T13:23:23.025Z</time></trkpt><trkpt lat="42.769262828755004" lon="12.203270463047017"><ele>654.5</ele><time>2026-04-12T13:23:24.025Z</time></trkpt><trkpt lat="42.76933045829557" lon="12.20339199999002"><ele>653.25</ele><time>2026-04-12T13:23:25.025Z</time></trkpt><trkpt lat="42.76942329574308" lon="12.203480967167065"><ele>652.0</ele><time>2026-04-12T13:23:26.025Z</time></trkpt><trkpt lat="42.7695358885556" lon="12.203553804329886"><ele>644.6666666666667</ele><time>2026-04-12T13:23:27.025Z</time></trkpt><trkpt lat="42.76963817372143" lon="12.203641071972465"><ele>637.3333333333334</ele><time>2026-04-12T13:23:28.025Z</time></trkpt><trkpt lat="42.769794296394714" lon="12.20375559630485"><ele>630.0</ele><time>2026-04-12T13:23:29.025Z</time></trkpt><trkpt lat="42.769944961768864" lon="12.203887502352952"><ele>631.6666666666666</ele><time>2026-04-12T13:23:30.025Z</time></trkpt><trkpt lat="42.7701041440183" lon="12.204032391898972"><ele>633.3333333333333</ele><time>2026-04-12T13:23:31.025Z</time></trkpt><trkpt lat="42.770266089964096" lon="12.20417267688505"><ele>635.0</ele><time>2026-04-12T13:23:32.025Z</time></trkpt><trkpt lat="42.7704223266397" lon="12.204298167256022"><ele>631.0</ele><time>2026-04-12T13:23:33.024Z</time></trkpt><trkpt lat="42.77056990508801" lon="12.204411107147738"><ele>627.0</ele><time>2026-04-12T13:23:34.024Z</time></trkpt><trkpt lat="42.77071522234919" lon="12.204531700116462"><ele>623.0</ele><time>2026-04-12T13:23:35.024Z</time></trkpt><trkpt lat="42.77084883648485" lon="12.204644841935373"><ele>623.0</ele><time>2026-04-12T13:23:36.024Z</time></trkpt><trkpt lat="42.77097073450085" lon="12.204766313944074"><ele>623.0</ele><time>2026-04-12T13:23:37.024Z</time></trkpt><trkpt lat="42.77110098600501" lon="12.204871295128093"><ele>623.0</ele><time>2026-04-12T13:23:38.024Z</time></trkpt><trkpt lat="42.771186747701464" lon="12.205022374646845"><ele>623.0</ele><time>2026-04-12T13:23:39.024Z</time></trkpt><trkpt lat="42.77122929891025" lon="12.205160181198902"><ele>624.8</ele><time>2026-04-12T13:23:40.024Z</time></trkpt><trkpt lat="42.77122716156316" lon="12.205311109614627"><ele>626.5999999999999</ele><time>2026-04-12T13:23:41.024Z</time></trkpt><trkpt lat="42.771232132471916" lon="12.205449933650714"><ele>628.4000000000001</ele><time>2026-04-12T13:23:42.024Z</time></trkpt><trkpt lat="42.77122805061969" lon="12.205578460514447"><ele>630.2</ele><time>2026-04-12T13:23:43.024Z</time></trkpt><trkpt lat="42.77125082241012" lon="12.205738364946125"><ele>632.0</ele><time>2026-04-12T13:23:44.024Z</time></trkpt><trkpt lat="42.771307429234916" lon="12.20587880587438"><ele>632.75</ele><time>2026-04-12T13:23:45.024Z</time></trkpt><trkpt lat="42.77139166126831" lon="12.20601921113"><ele>633.5</ele><time>2026-04-12T13:23:46.024Z</time></trkpt><trkpt lat="42.77148864495559" lon="12.206153547492493"><ele>634.25</ele><time>2026-04-12T13:23:47.024Z</time></trkpt><trkpt lat="42.771573843184335" lon="12.206299157009585"><ele>635.0</ele><time>2026-04-12T13:23:48.024Z</time></trkpt><trkpt lat="42.77163222121102" lon="12.206417515106818"><ele>634.25</ele><time>2026-04-12T13:23:49.024Z</time></trkpt><trkpt lat="42.77169891412512" lon="12.206563295172273"><ele>633.5</ele><time>2026-04-12T13:23:50.024Z</time></trkpt><trkpt lat="42.77177824306926" lon="12.206729019748073"><ele>632.75</ele><time>2026-04-12T13:23:51.024Z</time></trkpt><trkpt lat="42.77187424550201" lon="12.206845702161626"><ele>632.0</ele><time>2026-04-12T13:23:52.024Z</time></trkpt><trkpt lat="42.771977293230904" lon="12.206926440109223"><ele>632.0</ele><time>2026-04-12T13:23:53.024Z</time></trkpt><trkpt lat="42.772102600686964" lon="12.206946846067162"><ele>632.0</ele><time>2026-04-12T13:23:54.024Z</time></trkpt><trkpt lat="42.77223466636824" lon="12.206959044039865"><ele>632.0</ele><time>2026-04-12T13:23:55.024Z</time></trkpt><trkpt lat="42.77237004234193" lon="12.20690713443114"><ele>632.0</ele><time>2026-04-12T13:23:56.024Z</time></trkpt><trkpt lat="42.77248546832675" lon="12.20682693243559"><ele>632.0</ele><time>2026-04-12T13:23:57.024Z</time></trkpt><trkpt lat="42.77257935265759" lon="12.20669816744333"><ele>632.0</ele><time>2026-04-12T13:23:58.024Z</time></trkpt><trkpt lat="42.77262685913983" lon="12.206521489474936"><ele>632.0</ele><time>2026-04-12T13:23:59.024Z</time></trkpt><trkpt lat="42.77268787866696" lon="12.20635237222502"><ele>632.0</ele><time>2026-04-12T13:24:00.024Z</time></trkpt><trkpt lat="42.77273646599997" lon="12.20616945042887"><ele>630.75</ele><time>2026-04-12T13:24:01.024Z</time></trkpt><trkpt lat="42.772791548900116" lon="12.205976458099059"><ele>629.5</ele><time>2026-04-12T13:24:02.024Z</time></trkpt><trkpt lat="42.77283090934242" lon="12.205800642209056"><ele>628.25</ele><time>2026-04-12T13:24:03.024Z</time></trkpt><trkpt lat="42.77291401659165" lon="12.205664659949061"><ele>627.0</ele><time>2026-04-12T13:24:04.024Z</time></trkpt><trkpt lat="42.77300714593821" lon="12.205552239486218"><ele>627.0</ele><time>2026-04-12T13:24:05.024Z</time></trkpt><trkpt lat="42.77311772066179" lon="12.205471977513623"><ele>627.0</ele><time>2026-04-12T13:24:06.024Z</time></trkpt><trkpt lat="42.773239744328606" lon="12.205401191228246"><ele>627.0</ele><time>2026-04-12T13:24:07.024Z</time></trkpt><trkpt lat="42.77338534702218" lon="12.205344381833495"><ele>627.0</ele><time>2026-04-12T13:24:08.024Z</time></trkpt><trkpt lat="42.77353768461064" lon="12.205314547234233"><ele>624.75</ele><time>2026-04-12T13:24:09.024Z</time></trkpt><trkpt lat="42.773689155175795" lon="12.205292595283106"><ele>622.5</ele><time>2026-04-12T13:24:10.024Z</time></trkpt><trkpt lat="42.773818814558155" lon="12.205289107448168"><ele>620.25</ele><time>2026-04-12T13:24:11.024Z</time></trkpt><trkpt lat="42.77393044666727" lon="12.205288991876573"><ele>618.0</ele><time>2026-04-12T13:24:12.024Z</time></trkpt><trkpt lat="42.77404148450896" lon="12.205373737753611"><ele>618.0</ele><time>2026-04-12T13:24:13.024Z</time></trkpt><trkpt lat="42.77414796303724" lon="12.205493929616804"><ele>618.0</ele><time>2026-04-12T13:24:14.024Z</time></trkpt><trkpt lat="42.774237823705995" lon="12.20562368173954"><ele>618.0</ele><time>2026-04-12T13:24:15.024Z</time></trkpt><trkpt lat="42.774317024842" lon="12.205766013323103"><ele>618.0</ele><time>2026-04-12T13:24:16.024Z</time></trkpt><trkpt lat="42.774406502197444" lon="12.20587593980161"><ele>619.4</ele><time>2026-04-12T13:24:17.024Z</time></trkpt><trkpt lat="42.77451037453843" lon="12.205936013561828"><ele>620.8</ele><time>2026-04-12T13:24:18.024Z</time></trkpt><trkpt lat="42.77461030962814" lon="12.205948137600032"><ele>622.2</ele><time>2026-04-12T13:24:19.024Z</time></trkpt><trkpt lat="42.77471299134684" lon="12.205886738085637"><ele>623.6</ele><time>2026-04-12T13:24:20.024Z</time></trkpt><trkpt lat="42.77481137621994" lon="12.205800724272036"><ele>625.0</ele><time>2026-04-12T13:24:21.024Z</time></trkpt><trkpt lat="42.77492384486709" lon="12.205765977402082"><ele>625.0</ele><time>2026-04-12T13:24:22.024Z</time></trkpt><trkpt lat="42.7750298318733" lon="12.205742091591667"><ele>625.0</ele><time>2026-04-12T13:24:23.024Z</time></trkpt><trkpt lat="42.77514671337395" lon="12.205759616139874"><ele>625.0</ele><time>2026-04-12T13:24:24.024Z</time></trkpt><trkpt lat="42.77525300357798" lon="12.205828470566814"><ele>625.0</ele><time>2026-04-12T13:24:25.024Z</time></trkpt><trkpt lat="42.775371044428695" lon="12.20591951601653"><ele>627.75</ele><time>2026-04-12T13:24:26.024Z</time></trkpt><trkpt lat="42.77548695787768" lon="12.20605165761023"><ele>630.5</ele><time>2026-04-12T13:24:27.024Z</time></trkpt><trkpt lat="42.775589312643255" lon="12.206153348811489"><ele>633.25</ele><time>2026-04-12T13:24:28.024Z</time></trkpt><trkpt lat="42.77572295888173" lon="12.206248509849445"><ele>636.0</ele><time>2026-04-12T13:24:29.024Z</time></trkpt><trkpt lat="42.77586000763969" lon="12.206300461760549"><ele>636.0</ele><time>2026-04-12T13:24:30.024Z</time></trkpt><trkpt lat="42.77602671276346" lon="12.206366753745726"><ele>636.0</ele><time>2026-04-12T13:24:31.024Z</time></trkpt><trkpt lat="42.77617627355283" lon="12.206386258577066"><ele>636.0</ele><time>2026-04-12T13:24:32.024Z</time></trkpt><trkpt lat="42.77631685855585" lon="12.206375686831148"><ele>636.0</ele><time>2026-04-12T13:24:33.024Z</time></trkpt><trkpt lat="42.77644988706994" lon="12.206328842410972"><ele>636.0</ele><time>2026-04-12T13:24:34.024Z</time></trkpt><trkpt lat="42.77658987893497" lon="12.206231628870283"><ele>636.0</ele><time>2026-04-12T13:24:35.024Z</time></trkpt><trkpt lat="42.77671378512638" lon="12.206059369160542"><ele>636.0</ele><time>2026-04-12T13:24:36.024Z</time></trkpt><trkpt lat="42.77681599136514" lon="12.205878424987779"><ele>636.0</ele><time>2026-04-12T13:24:37.024Z</time></trkpt><trkpt lat="42.77691511703098" lon="12.205694556281292"><ele>636.0</ele><time>2026-04-12T13:24:38.024Z</time></trkpt><trkpt lat="42.7770217638579" lon="12.205505046075338"><ele>634.3333333333334</ele><time>2026-04-12T13:24:39.024Z</time></trkpt><trkpt lat="42.77713981092579" lon="12.205302376791632"><ele>632.6666666666667</ele><time>2026-04-12T13:24:40.024Z</time></trkpt><trkpt lat="42.777251569037205" lon="12.205110504728957"><ele>631.0</ele><time>2026-04-12T13:24:41.024Z</time></trkpt><trkpt lat="42.77736791295074" lon="12.204907274498183"><ele>634.0</ele><time>2026-04-12T13:24:42.024Z</time></trkpt><trkpt lat="42.77747653918863" lon="12.20470082751059"><ele>637.0</ele><time>2026-04-12T13:24:43.024Z</time></trkpt><trkpt lat="42.77757237238466" lon="12.204502409343869"><ele>640.0</ele><time>2026-04-12T13:24:44.024Z</time></trkpt><trkpt lat="42.77765597310821" lon="12.204317134126098"><ele>639.25</ele><time>2026-04-12T13:24:45.024Z</time></trkpt><trkpt lat="42.77773749723963" lon="12.204141564748369"><ele>638.5</ele><time>2026-04-12T13:24:46.023Z</time></trkpt><trkpt lat="42.777820769206535" lon="12.204003239437805"><ele>637.75</ele><time>2026-04-12T13:24:47.023Z</time></trkpt><trkpt lat="42.77791777637531" lon="12.203910330877243"><ele>637.0</ele><time>2026-04-12T13:24:48.023Z</time></trkpt><trkpt lat="42.778022132708095" lon="12.203844574070045"><ele>637.75</ele><time>2026-04-12T13:24:49.023Z</time></trkpt><trkpt lat="42.77812721190291" lon="12.203828135005688"><ele>638.5</ele><time>2026-04-12T13:24:50.023Z</time></trkpt><trkpt lat="42.77824527195386" lon="12.203799602665056"><ele>639.25</ele><time>2026-04-12T13:24:51.023Z</time></trkpt><trkpt lat="42.77840780798605" lon="12.203748375055406"><ele>640.0</ele><time>2026-04-12T13:24:52.023Z</time></trkpt><trkpt lat="42.7785553882024" lon="12.203700576064687"><ele>640.0</ele><time>2026-04-12T13:24:53.023Z</time></trkpt><trkpt lat="42.77871414600112" lon="12.203650881939579"><ele>640.0</ele><time>2026-04-12T13:24:54.023Z</time></trkpt><trkpt lat="42.778858902237296" lon="12.203624126574347"><ele>640.0</ele><time>2026-04-12T13:24:55.023Z</time></trkpt><trkpt lat="42.77899004680258" lon="12.203583713150774"><ele>640.0</ele><time>2026-04-12T13:24:56.023Z</time></trkpt><trkpt lat="42.779107023125256" lon="12.203574462318308"><ele>640.0</ele><time>2026-04-12T13:24:57.023Z</time></trkpt><trkpt lat="42.77921597472489" lon="12.203493887856272"><ele>640.0</ele><time>2026-04-12T13:24:58.023Z</time></trkpt><trkpt lat="42.77931104806016" lon="12.20338019643028"><ele>640.0</ele><time>2026-04-12T13:24:59.023Z</time></trkpt><trkpt lat="42.77936105335874" lon="12.203188123937505"><ele>640.0</ele><time>2026-04-12T13:25:00.023Z</time></trkpt><trkpt lat="42.779446878749276" lon="12.203044273803435"><ele>643.6666666666667</ele><time>2026-04-12T13:25:01.023Z</time></trkpt><trkpt lat="42.77954154358466" lon="12.202881615244975"><ele>647.3333333333334</ele><time>2026-04-12T13:25:02.023Z</time></trkpt><trkpt lat="42.7796409286445" lon="12.202716899542565"><ele>651.0</ele><time>2026-04-12T13:25:03.023Z</time></trkpt><trkpt lat="42.779738935354644" lon="12.202553536481261"><ele>651.0</ele><time>2026-04-12T13:25:04.023Z</time></trkpt><trkpt lat="42.779814884217124" lon="12.202377012022055"><ele>651.0</ele><time>2026-04-12T13:25:05.023Z</time></trkpt><trkpt lat="42.779893345239856" lon="12.202245308653438"><ele>651.0</ele><time>2026-04-12T13:25:06.023Z</time></trkpt><trkpt lat="42.77994086559994" lon="12.202076471543258"><ele>651.0</ele><time>2026-04-12T13:25:07.023Z</time></trkpt><trkpt lat="42.779995416702704" lon="12.201942326306531"><ele>650.25</ele><time>2026-04-12T13:25:08.023Z</time></trkpt><trkpt lat="42.78007307572099" lon="12.201824482812581"><ele>649.5</ele><time>2026-04-12T13:25:09.023Z</time></trkpt><trkpt lat="42.78018114118735" lon="12.201741618918314"><ele>648.75</ele><time>2026-04-12T13:25:10.023Z</time></trkpt><trkpt lat="42.78032165098066" lon="12.201677906857235"><ele>648.0</ele><time>2026-04-12T13:25:11.023Z</time></trkpt><trkpt lat="42.780467202488566" lon="12.201631234367591"><ele>648.0</ele><time>2026-04-12T13:25:12.023Z</time></trkpt><trkpt lat="42.7806143938211" lon="12.201614268985205"><ele>648.0</ele><time>2026-04-12T13:25:13.023Z</time></trkpt><trkpt lat="42.78077311304215" lon="12.201623220888516"><ele>648.0</ele><time>2026-04-12T13:25:14.023Z</time></trkpt><trkpt lat="42.78093345018431" lon="12.201630702513363"><ele>645.3333333333334</ele><time>2026-04-12T13:25:15.023Z</time></trkpt><trkpt lat="42.781091923447754" lon="12.201621120455572"><ele>642.6666666666667</ele><time>2026-04-12T13:25:16.023Z</time></trkpt><trkpt lat="42.7812555294534" lon="12.201562638315709"><ele>640.0</ele><time>2026-04-12T13:25:17.023Z</time></trkpt><trkpt lat="42.78142050486654" lon="12.201489937690907"><ele>640.0</ele><time>2026-04-12T13:25:18.023Z</time></trkpt><trkpt lat="42.78158790457612" lon="12.201405871470998"><ele>640.0</ele><time>2026-04-12T13:25:19.023Z</time></trkpt><trkpt lat="42.78175725926144" lon="12.20131005836382"><ele>640.0</ele><time>2026-04-12T13:25:20.023Z</time></trkpt><trkpt lat="42.78191098062631" lon="12.201199920208559"><ele>645.0</ele><time>2026-04-12T13:25:21.023Z</time></trkpt><trkpt lat="42.78204387898064" lon="12.201077439208932"><ele>650.0</ele><time>2026-04-12T13:25:22.026Z</time></trkpt><trkpt lat="42.78215962641842" lon="12.200956080316676"><ele>655.0</ele><time>2026-04-12T13:25:23.026Z</time></trkpt><trkpt lat="42.782268816384" lon="12.200809037950537"><ele>655.0</ele><time>2026-04-12T13:25:24.026Z</time></trkpt><trkpt lat="42.78239332459206" lon="12.200696527292495"><ele>655.0</ele><time>2026-04-12T13:25:25.026Z</time></trkpt><trkpt lat="42.782530189770426" lon="12.20062765972019"><ele>655.0</ele><time>2026-04-12T13:25:26.026Z</time></trkpt><trkpt lat="42.78267166115289" lon="12.20056658353591"><ele>655.0</ele><time>2026-04-12T13:25:27.026Z</time></trkpt><trkpt lat="42.78280356806788" lon="12.200487624749856"><ele>655.5</ele><time>2026-04-12T13:25:28.026Z</time></trkpt><trkpt lat="42.78292433708001" lon="12.200395198519463"><ele>656.0</ele><time>2026-04-12T13:25:29.025Z</time></trkpt><trkpt lat="42.78302799334957" lon="12.200249487151474"><ele>656.5</ele><time>2026-04-12T13:25:30.025Z</time></trkpt><trkpt lat="42.783094059516486" lon="12.20007308625003"><ele>657.0</ele><time>2026-04-12T13:25:31.025Z</time></trkpt><trkpt lat="42.78314195142499" lon="12.199881247109976"><ele>654.5</ele><time>2026-04-12T13:25:32.026Z</time></trkpt><trkpt lat="42.78317643736459" lon="12.199692219334617"><ele>652.0</ele><time>2026-04-12T13:25:33.026Z</time></trkpt><trkpt lat="42.783220269094954" lon="12.199517588076528"><ele>649.5</ele><time>2026-04-12T13:25:34.026Z</time></trkpt><trkpt lat="42.783282289138604" lon="12.199371809090673"><ele>647.0</ele><time>2026-04-12T13:25:35.025Z</time></trkpt><trkpt lat="42.783364842323444" lon="12.199278893143125"><ele>647.0</ele><time>2026-04-12T13:25:36.025Z</time></trkpt><trkpt lat="42.78346924678021" lon="12.199226489901669"><ele>647.0</ele><time>2026-04-12T13:25:37.025Z</time></trkpt><trkpt lat="42.78359060808362" lon="12.19922140193883"><ele>647.0</ele><time>2026-04-12T13:25:38.025Z</time></trkpt><trkpt lat="42.78372372946603" lon="12.199241039572163"><ele>647.0</ele><time>2026-04-12T13:25:39.025Z</time></trkpt><trkpt lat="42.7838601228908" lon="12.199238919587279"><ele>647.5</ele><time>2026-04-12T13:25:40.025Z</time></trkpt><trkpt lat="42.78400280533275" lon="12.19922196062275"><ele>648.0</ele><time>2026-04-12T13:25:41.025Z</time></trkpt><trkpt lat="42.78415787891735" lon="12.199212426529387"><ele>648.5</ele><time>2026-04-12T13:25:42.025Z</time></trkpt><trkpt lat="42.784308354989804" lon="12.199213176102976"><ele>649.0</ele><time>2026-04-12T13:25:43.025Z</time></trkpt><trkpt lat="42.78446694420728" lon="12.19921487152419"><ele>649.6666666666667</ele><time>2026-04-12T13:25:44.025Z</time></trkpt><trkpt lat="42.784617646279386" lon="12.199172847516596"><ele>650.3333333333334</ele><time>2026-04-12T13:25:45.025Z</time></trkpt><trkpt lat="42.784772786160225" lon="12.199109473701322"><ele>651.0</ele><time>2026-04-12T13:25:46.025Z</time></trkpt><trkpt lat="42.78493398066652" lon="12.199044158206764"><ele>651.0</ele><time>2026-04-12T13:25:47.025Z</time></trkpt><trkpt lat="42.78508587985939" lon="12.199003862664034"><ele>651.0</ele><time>2026-04-12T13:25:48.025Z</time></trkpt><trkpt lat="42.785244285902365" lon="12.198972530070625"><ele>651.0</ele><time>2026-04-12T13:25:49.025Z</time></trkpt><trkpt lat="42.78539373756533" lon="12.198933198529678"><ele>647.0</ele><time>2026-04-12T13:25:50.025Z</time></trkpt><trkpt lat="42.78552391492456" lon="12.198856890819794"><ele>643.0</ele><time>2026-04-12T13:25:51.025Z</time></trkpt><trkpt lat="42.78564211742819" lon="12.198753093574206"><ele>639.0</ele><time>2026-04-12T13:25:52.025Z</time></trkpt><trkpt lat="42.78576342032266" lon="12.198660842193176"><ele>635.0</ele><time>2026-04-12T13:25:53.025Z</time></trkpt><trkpt lat="42.78589486894941" lon="12.19858190632571"><ele>635.6666666666666</ele><time>2026-04-12T13:25:54.025Z</time></trkpt><trkpt lat="42.78604449682922" lon="12.198536693870526"><ele>636.3333333333334</ele><time>2026-04-12T13:25:55.025Z</time></trkpt><trkpt lat="42.7862149872109" lon="12.19849946009074"><ele>637.0</ele><time>2026-04-12T13:25:56.025Z</time></trkpt><trkpt lat="42.786386078777554" lon="12.198488780562847"><ele>637.0</ele><time>2026-04-12T13:25:57.025Z</time></trkpt><trkpt lat="42.786569104274996" lon="12.198486248567454"><ele>637.0</ele><time>2026-04-12T13:25:58.025Z</time></trkpt><trkpt lat="42.786745165318855" lon="12.1985048659477"><ele>637.0</ele><time>2026-04-12T13:25:59.025Z</time></trkpt><trkpt lat="42.78690867447066" lon="12.198487637693134"><ele>634.6</ele><time>2026-04-12T13:26:00.025Z</time></trkpt><trkpt lat="42.787036755159406" lon="12.198515456929789"><ele>632.2</ele><time>2026-04-12T13:26:01.025Z</time></trkpt><trkpt lat="42.787138811383294" lon="12.198571940500653"><ele>629.8</ele><time>2026-04-12T13:26:02.025Z</time></trkpt><trkpt lat="42.78721038295421" lon="12.198649237113063"><ele>627.4</ele><time>2026-04-12T13:26:03.025Z</time></trkpt><trkpt lat="42.78724816092266" lon="12.198760779142253"><ele>625.0</ele><time>2026-04-12T13:26:04.025Z</time></trkpt><trkpt lat="42.78729132793021" lon="12.198897962429717"><ele>629.25</ele><time>2026-04-12T13:26:05.025Z</time></trkpt><trkpt lat="42.78733977945785" lon="12.19903755721522"><ele>633.5</ele><time>2026-04-12T13:26:06.025Z</time></trkpt><trkpt lat="42.787391614482175" lon="12.199184034002823"><ele>637.75</ele><time>2026-04-12T13:26:07.025Z</time></trkpt><trkpt lat="42.787481738768" lon="12.19930002624736"><ele>642.0</ele><time>2026-04-12T13:26:08.025Z</time></trkpt><trkpt lat="42.787602745142316" lon="12.199394015369565"><ele>638.0</ele><time>2026-04-12T13:26:09.025Z</time></trkpt><trkpt lat="42.78773848100157" lon="12.199467986819121"><ele>634.0</ele><time>2026-04-12T13:26:10.025Z</time></trkpt><trkpt lat="42.787895861366174" lon="12.19951638448592"><ele>630.0</ele><time>2026-04-12T13:26:11.025Z</time></trkpt><trkpt lat="42.78805267295165" lon="12.199550662476248"><ele>630.0</ele><time>2026-04-12T13:26:12.025Z</time></trkpt><trkpt lat="42.7882122540867" lon="12.199642674382165"><ele>630.0</ele><time>2026-04-12T13:26:13.025Z</time></trkpt><trkpt lat="42.78836913538815" lon="12.199762117581628"><ele>630.0</ele><time>2026-04-12T13:26:14.025Z</time></trkpt><trkpt lat="42.78851752515831" lon="12.199884238463405"><ele>633.3333333333334</ele><time>2026-04-12T13:26:15.025Z</time></trkpt><trkpt lat="42.788656745423495" lon="12.200015519857798"><ele>636.6666666666667</ele><time>2026-04-12T13:26:16.025Z</time></trkpt><trkpt lat="42.78880265714564" lon="12.200106834796992"><ele>640.0</ele><time>2026-04-12T13:26:17.025Z</time></trkpt><trkpt lat="42.78896579523854" lon="12.200164019191444"><ele>640.0</ele><time>2026-04-12T13:26:18.025Z</time></trkpt><trkpt lat="42.7891192814248" lon="12.20019332749538"><ele>640.0</ele><time>2026-04-12T13:26:19.025Z</time></trkpt><trkpt lat="42.78926697830325" lon="12.200157533556954"><ele>640.0</ele><time>2026-04-12T13:26:20.025Z</time></trkpt><trkpt lat="42.789384092834915" lon="12.200093102056114"><ele>640.0</ele><time>2026-04-12T13:26:21.025Z</time></trkpt><trkpt lat="42.78946692849501" lon="12.199995113822213"><ele>639.8</ele><time>2026-04-12T13:26:22.025Z</time></trkpt><trkpt lat="42.789511146509895" lon="12.19986933464243"><ele>639.6</ele><time>2026-04-12T13:26:23.025Z</time></trkpt><trkpt lat="42.78948820693256" lon="12.199731701271197"><ele>639.4</ele><time>2026-04-12T13:26:24.025Z</time></trkpt><trkpt lat="42.789448701389965" lon="12.199616254013824"><ele>639.2</ele><time>2026-04-12T13:26:25.025Z</time></trkpt><trkpt lat="42.789385640774235" lon="12.19949230828232"><ele>639.0</ele><time>2026-04-12T13:26:26.025Z</time></trkpt><trkpt lat="42.789322229155765" lon="12.199353547054178"><ele>639.0</ele><time>2026-04-12T13:26:27.025Z</time></trkpt><trkpt lat="42.78928856976968" lon="12.199207021164606"><ele>639.0</ele><time>2026-04-12T13:26:28.025Z</time></trkpt><trkpt lat="42.789262263054574" lon="12.199054612365059"><ele>639.0</ele><time>2026-04-12T13:26:29.025Z</time></trkpt><trkpt lat="42.78924325384347" lon="12.198904787743585"><ele>639.0</ele><time>2026-04-12T13:26:30.025Z</time></trkpt><trkpt lat="42.78928410815198" lon="12.198756880300852"><ele>638.4</ele><time>2026-04-12T13:26:31.025Z</time></trkpt><trkpt lat="42.78934858439738" lon="12.198647960104289"><ele>637.8</ele><time>2026-04-12T13:26:32.025Z</time></trkpt><trkpt lat="42.789430028116556" lon="12.19858614039769"><ele>637.2</ele><time>2026-04-12T13:26:33.025Z</time></trkpt><trkpt lat="42.78951442888956" lon="12.198597008286612"><ele>636.6</ele><time>2026-04-12T13:26:34.025Z</time></trkpt><trkpt lat="42.78961443540521" lon="12.19860342052593"><ele>636.0</ele><time>2026-04-12T13:26:35.025Z</time></trkpt><trkpt lat="42.789716036548924" lon="12.1986814199362"><ele>636.0</ele><time>2026-04-12T13:26:36.025Z</time></trkpt><trkpt lat="42.78984156818298" lon="12.198752718342323"><ele>636.0</ele><time>2026-04-12T13:26:37.025Z</time></trkpt><trkpt lat="42.78996835631986" lon="12.198864145565778"><ele>636.0</ele><time>2026-04-12T13:26:38.024Z</time></trkpt><trkpt lat="42.79009372937466" lon="12.198979911477839"><ele>636.0</ele><time>2026-04-12T13:26:39.024Z</time></trkpt><trkpt lat="42.79023105157784" lon="12.199129897659192"><ele>641.6666666666666</ele><time>2026-04-12T13:26:40.024Z</time></trkpt><trkpt lat="42.790364476888136" lon="12.19927219391917"><ele>647.3333333333333</ele><time>2026-04-12T13:26:41.024Z</time></trkpt><trkpt lat="42.79048928940055" lon="12.199399103342289"><ele>653.0</ele><time>2026-04-12T13:26:42.024Z</time></trkpt><trkpt lat="42.790594681993035" lon="12.199490680919666"><ele>653.0</ele><time>2026-04-12T13:26:43.024Z</time></trkpt><trkpt lat="42.790686236072304" lon="12.199542561428352"><ele>653.0</ele><time>2026-04-12T13:26:44.024Z</time></trkpt><trkpt lat="42.790780117327124" lon="12.19953189127866"><ele>653.0</ele><time>2026-04-12T13:26:45.024Z</time></trkpt><trkpt lat="42.7908637641172" lon="12.199470963687746"><ele>653.0</ele><time>2026-04-12T13:26:46.024Z</time></trkpt><trkpt lat="42.79095301433705" lon="12.19938341040204"><ele>653.0</ele><time>2026-04-12T13:26:47.024Z</time></trkpt><trkpt lat="42.79104440041569" lon="12.199294108017607"><ele>654.4</ele><time>2026-04-12T13:26:48.024Z</time></trkpt><trkpt lat="42.79114984279183" lon="12.199258562472167"><ele>655.8</ele><time>2026-04-12T13:26:49.024Z</time></trkpt><trkpt lat="42.79125006310039" lon="12.199226117193772"><ele>657.2</ele><time>2026-04-12T13:26:50.024Z</time></trkpt><trkpt lat="42.79135563004228" lon="12.199259733578398"><ele>658.6</ele><time>2026-04-12T13:26:51.024Z</time></trkpt><trkpt lat="42.79144507237006" lon="12.199338384111735"><ele>660.0</ele><time>2026-04-12T13:26:52.024Z</time></trkpt><trkpt lat="42.7915239882117" lon="12.199452821509759"><ele>660.0</ele><time>2026-04-12T13:26:53.024Z</time></trkpt><trkpt lat="42.791594515763144" lon="12.199584727048684"><ele>660.0</ele><time>2026-04-12T13:26:54.024Z</time></trkpt><trkpt lat="42.79167686170965" lon="12.199707378746208"><ele>660.0</ele><time>2026-04-12T13:26:55.024Z</time></trkpt><trkpt lat="42.7917744817656" lon="12.199803746240654"><ele>660.0</ele><time>2026-04-12T13:26:56.024Z</time></trkpt><trkpt lat="42.79188784759965" lon="12.199890577963009"><ele>664.0</ele><time>2026-04-12T13:26:57.024Z</time></trkpt><trkpt lat="42.79203922720202" lon="12.19993820530316"><ele>668.0</ele><time>2026-04-12T13:26:58.024Z</time></trkpt><trkpt lat="42.792197122908185" lon="12.199972192414203"><ele>672.0</ele><time>2026-04-12T13:26:59.024Z</time></trkpt><trkpt lat="42.792349303806915" lon="12.200001114128552"><ele>672.0</ele><time>2026-04-12T13:27:00.024Z</time></trkpt><trkpt lat="42.79248343030609" lon="12.200027818816235"><ele>672.0</ele><time>2026-04-12T13:27:01.024Z</time></trkpt><trkpt lat="42.79260884502755" lon="12.200062930199351"><ele>672.0</ele><time>2026-04-12T13:27:02.024Z</time></trkpt><trkpt lat="42.792728818374016" lon="12.20012051180445"><ele>672.0</ele><time>2026-04-12T13:27:03.024Z</time></trkpt><trkpt lat="42.79285581015483" lon="12.20020073367673"><ele>676.0</ele><time>2026-04-12T13:27:04.024Z</time></trkpt><trkpt lat="42.79299563882318" lon="12.200302027413507"><ele>680.0</ele><time>2026-04-12T13:27:05.024Z</time></trkpt><trkpt lat="42.79313158689593" lon="12.200396815627162"><ele>684.0</ele><time>2026-04-12T13:27:06.024Z</time></trkpt><trkpt lat="42.7932432917715" lon="12.200522684191219"><ele>684.0</ele><time>2026-04-12T13:27:07.024Z</time></trkpt><trkpt lat="42.79336106356101" lon="12.200618546553171"><ele>684.0</ele><time>2026-04-12T13:27:08.024Z</time></trkpt><trkpt lat="42.79348611875295" lon="12.20069141629124"><ele>684.0</ele><time>2026-04-12T13:27:09.024Z</time></trkpt><trkpt lat="42.79362011585987" lon="12.200722664881154"><ele>684.0</ele><time>2026-04-12T13:27:10.024Z</time></trkpt><trkpt lat="42.79375700945614" lon="12.20076998381816"><ele>682.6666666666666</ele><time>2026-04-12T13:27:11.024Z</time></trkpt><trkpt lat="42.79389501875344" lon="12.200837709785942"><ele>681.3333333333333</ele><time>2026-04-12T13:27:12.024Z</time></trkpt><trkpt lat="42.794046929564345" lon="12.200887698580633"><ele>680.0</ele><time>2026-04-12T13:27:13.024Z</time></trkpt><trkpt lat="42.79419993768475" lon="12.200935409835179"><ele>681.5</ele><time>2026-04-12T13:27:14.024Z</time></trkpt><trkpt lat="42.794346143726536" lon="12.200955388947165"><ele>683.0</ele><time>2026-04-12T13:27:15.024Z</time></trkpt><trkpt lat="42.794478382144554" lon="12.200909986283333"><ele>684.5</ele><time>2026-04-12T13:27:16.024Z</time></trkpt><trkpt lat="42.794589670361475" lon="12.20085129529615"><ele>686.0</ele><time>2026-04-12T13:27:17.024Z</time></trkpt><trkpt lat="42.79469920446025" lon="12.200835440976748"><ele>686.0</ele><time>2026-04-12T13:27:18.024Z</time></trkpt><trkpt lat="42.79480603724059" lon="12.200846639577417"><ele>686.0</ele><time>2026-04-12T13:27:19.024Z</time></trkpt><trkpt lat="42.794914750304734" lon="12.200891438687433"><ele>686.0</ele><time>2026-04-12T13:27:20.024Z</time></trkpt><trkpt lat="42.79503382780394" lon="12.200959366002193"><ele>686.0</ele><time>2026-04-12T13:27:21.024Z</time></trkpt><trkpt lat="42.795167616502134" lon="12.200981810551081"><ele>688.25</ele><time>2026-04-12T13:27:22.024Z</time></trkpt><trkpt lat="42.79530729582689" lon="12.200975096278366"><ele>690.5</ele><time>2026-04-12T13:27:23.024Z</time></trkpt><trkpt lat="42.79544068955891" lon="12.200947283054422"><ele>692.75</ele><time>2026-04-12T13:27:24.024Z</time></trkpt><trkpt lat="42.79556037275405" lon="12.200909330388662"><ele>695.0</ele><time>2026-04-12T13:27:25.024Z</time></trkpt><trkpt lat="42.79566358049791" lon="12.200937426328554"><ele>695.0</ele><time>2026-04-12T13:27:26.024Z</time></trkpt><trkpt lat="42.79574364005556" lon="12.201003905730488"><ele>695.0</ele><time>2026-04-12T13:27:27.024Z</time></trkpt><trkpt lat="42.79581927624904" lon="12.201105517243333"><ele>695.0</ele><time>2026-04-12T13:27:28.026Z</time></trkpt><trkpt lat="42.7958661938849" lon="12.201237564525357"><ele>695.0</ele><time>2026-04-12T13:27:29.027Z</time></trkpt><trkpt lat="42.795891099523296" lon="12.201374067937664"><ele>695.0</ele><time>2026-04-12T13:27:30.027Z</time></trkpt><trkpt lat="42.79592768789815" lon="12.201540675059618"><ele>696.2</ele><time>2026-04-12T13:27:31.026Z</time></trkpt><trkpt lat="42.7959638779334" lon="12.201677705778591"><ele>697.4</ele><time>2026-04-12T13:27:32.026Z</time></trkpt><trkpt lat="42.79603503330019" lon="12.201790876142379"><ele>698.5999999999999</ele><time>2026-04-12T13:27:33.026Z</time></trkpt><trkpt lat="42.79610614498538" lon="12.201881245537242"><ele>699.8</ele><time>2026-04-12T13:27:34.027Z</time></trkpt><trkpt lat="42.79621556135044" lon="12.201920279377045"><ele>701.0</ele><time>2026-04-12T13:27:35.026Z</time></trkpt><trkpt lat="42.796322479043035" lon="12.201935456382778"><ele>701.0</ele><time>2026-04-12T13:27:36.026Z</time></trkpt><trkpt lat="42.79643950244417" lon="12.20195177989424"><ele>701.0</ele><time>2026-04-12T13:27:37.026Z</time></trkpt><trkpt lat="42.796553348580396" lon="12.201978230305293"><ele>701.0</ele><time>2026-04-12T13:27:38.026Z</time></trkpt><trkpt lat="42.79666108202423" lon="12.202014241199324"><ele>701.0</ele><time>2026-04-12T13:27:39.026Z</time></trkpt><trkpt lat="42.79675691703591" lon="12.20212683509424"><ele>701.0</ele><time>2026-04-12T13:27:40.026Z</time></trkpt><trkpt lat="42.79682994682284" lon="12.202266402246533"><ele>701.0</ele><time>2026-04-12T13:27:41.026Z</time></trkpt><trkpt lat="42.79686489638716" lon="12.202410938580146"><ele>701.0</ele><time>2026-04-12T13:27:42.026Z</time></trkpt><trkpt lat="42.79687735012871" lon="12.20256689769851"><ele>701.0</ele><time>2026-04-12T13:27:43.026Z</time></trkpt><trkpt lat="42.79689184668906" lon="12.202710475055396"><ele>701.75</ele><time>2026-04-12T13:27:44.026Z</time></trkpt><trkpt lat="42.79694566532194" lon="12.202856299182791"><ele>702.5</ele><time>2026-04-12T13:27:45.026Z</time></trkpt><trkpt lat="42.797021745089026" lon="12.202992032830098"><ele>703.25</ele><time>2026-04-12T13:27:46.026Z</time></trkpt><trkpt lat="42.797095946850526" lon="12.203113514899103"><ele>704.0</ele><time>2026-04-12T13:27:47.026Z</time></trkpt><trkpt lat="42.797194277030435" lon="12.203199895949146"><ele>704.0</ele><time>2026-04-12T13:27:48.026Z</time></trkpt><trkpt lat="42.797313007664414" lon="12.203232434574423"><ele>704.0</ele><time>2026-04-12T13:27:49.026Z</time></trkpt><trkpt lat="42.79744261920878" lon="12.203196609236176"><ele>704.0</ele><time>2026-04-12T13:27:50.026Z</time></trkpt><trkpt lat="42.79756920677801" lon="12.20314858323147"><ele>704.0</ele><time>2026-04-12T13:27:51.026Z</time></trkpt><trkpt lat="42.797708717753935" lon="12.203095632054566"><ele>703.5</ele><time>2026-04-12T13:27:52.026Z</time></trkpt><trkpt lat="42.79785333114482" lon="12.203046906987462"><ele>703.0</ele><time>2026-04-12T13:27:53.026Z</time></trkpt><trkpt lat="42.7979855191802" lon="12.20299469655612"><ele>702.5</ele><time>2026-04-12T13:27:54.026Z</time></trkpt><trkpt lat="42.798115109229286" lon="12.20300381005832"><ele>702.0</ele><time>2026-04-12T13:27:55.026Z</time></trkpt><trkpt lat="42.79823241581192" lon="12.203069981942935"><ele>700.25</ele><time>2026-04-12T13:27:56.026Z</time></trkpt><trkpt lat="42.7983401457433" lon="12.203170534961334"><ele>698.5</ele><time>2026-04-12T13:27:57.026Z</time></trkpt><trkpt lat="42.79845707084979" lon="12.203306313969263"><ele>696.75</ele><time>2026-04-12T13:27:58.026Z</time></trkpt><trkpt lat="42.79856351902001" lon="12.203436725104332"><ele>695.0</ele><time>2026-04-12T13:27:59.026Z</time></trkpt><trkpt lat="42.79865367655418" lon="12.203571720438937"><ele>694.75</ele><time>2026-04-12T13:28:00.026Z</time></trkpt><trkpt lat="42.79871879879141" lon="12.203732423409727"><ele>694.5</ele><time>2026-04-12T13:28:01.026Z</time></trkpt><trkpt lat="42.79875561461012" lon="12.20391826295648"><ele>694.25</ele><time>2026-04-12T13:28:02.026Z</time></trkpt><trkpt lat="42.798753841868646" lon="12.204111217595056"><ele>694.0</ele><time>2026-04-12T13:28:03.026Z</time></trkpt><trkpt lat="42.79873782333752" lon="12.204303128707235"><ele>694.0</ele><time>2026-04-12T13:28:04.026Z</time></trkpt><trkpt lat="42.79872029996749" lon="12.204502047367638"><ele>694.0</ele><time>2026-04-12T13:28:05.026Z</time></trkpt><trkpt lat="42.79873120676989" lon="12.20470085107279"><ele>694.0</ele><time>2026-04-12T13:28:06.026Z</time></trkpt><trkpt lat="42.79876796305175" lon="12.204906440578545"><ele>694.0</ele><time>2026-04-12T13:28:07.026Z</time></trkpt><trkpt lat="42.798823329483646" lon="12.205114668265393"><ele>694.0</ele><time>2026-04-12T13:28:08.026Z</time></trkpt><trkpt lat="42.79889010952454" lon="12.205305418594618"><ele>694.0</ele><time>2026-04-12T13:28:09.026Z</time></trkpt><trkpt lat="42.798976501710264" lon="12.205465039656646"><ele>694.0</ele><time>2026-04-12T13:28:10.026Z</time></trkpt><trkpt lat="42.799086079383216" lon="12.205579812399332"><ele>694.0</ele><time>2026-04-12T13:28:11.026Z</time></trkpt><trkpt lat="42.799208472197115" lon="12.205648052405138"><ele>695.25</ele><time>2026-04-12T13:28:12.026Z</time></trkpt><trkpt lat="42.79934311240479" lon="12.205664035408516"><ele>696.5</ele><time>2026-04-12T13:28:13.026Z</time></trkpt><trkpt lat="42.79948744787843" lon="12.205666863192693"><ele>697.75</ele><time>2026-04-12T13:28:14.026Z</time></trkpt><trkpt lat="42.79964536072027" lon="12.205674420721662"><ele>699.0</ele><time>2026-04-12T13:28:15.026Z</time></trkpt><trkpt lat="42.7998106769485" lon="12.205685605866137"><ele>699.0</ele><time>2026-04-12T13:28:16.026Z</time></trkpt><trkpt lat="42.79997695409679" lon="12.205697855628035"><ele>699.0</ele><time>2026-04-12T13:28:17.026Z</time></trkpt><trkpt lat="42.80014337476924" lon="12.205701574089863"><ele>699.0</ele><time>2026-04-12T13:28:18.026Z</time></trkpt><trkpt lat="42.800299975310026" lon="12.205702784577651"><ele>698.75</ele><time>2026-04-12T13:28:19.026Z</time></trkpt><trkpt lat="42.800447732723065" lon="12.205709904340509"><ele>698.5</ele><time>2026-04-12T13:28:20.026Z</time></trkpt><trkpt lat="42.800585747288785" lon="12.205733360629267"><ele>698.25</ele><time>2026-04-12T13:28:21.026Z</time></trkpt><trkpt lat="42.80071950506961" lon="12.205774147556276"><ele>698.0</ele><time>2026-04-12T13:28:22.026Z</time></trkpt><trkpt lat="42.800828328018596" lon="12.205828792286123"><ele>698.0</ele><time>2026-04-12T13:28:23.026Z</time></trkpt><trkpt lat="42.80090692103062" lon="12.205912189448979"><ele>698.0</ele><time>2026-04-12T13:28:24.026Z</time></trkpt><trkpt lat="42.800952804392296" lon="12.20603564043925"><ele>698.0</ele><time>2026-04-12T13:28:25.026Z</time></trkpt><trkpt lat="42.800970210299106" lon="12.206179833913989"><ele>698.0</ele><time>2026-04-12T13:28:26.026Z</time></trkpt><trkpt lat="42.80098332887438" lon="12.20634203842787"><ele>698.0</ele><time>2026-04-12T13:28:27.026Z</time></trkpt><trkpt lat="42.80099870489136" lon="12.206506444735275"><ele>697.5</ele><time>2026-04-12T13:28:28.026Z</time></trkpt><trkpt lat="42.80102071371707" lon="12.206676715862937"><ele>697.0</ele><time>2026-04-12T13:28:29.026Z</time></trkpt><trkpt lat="42.801055819050944" lon="12.206840718779603"><ele>696.5</ele><time>2026-04-12T13:28:30.025Z</time></trkpt><trkpt lat="42.80110970550617" lon="12.20699325523247"><ele>696.0</ele><time>2026-04-12T13:28:31.025Z</time></trkpt><trkpt lat="42.80119713789573" lon="12.207114746126463"><ele>696.0</ele><time>2026-04-12T13:28:32.025Z</time></trkpt><trkpt lat="42.80130886952246" lon="12.20719775017008"><ele>696.0</ele><time>2026-04-12T13:28:33.025Z</time></trkpt><trkpt lat="42.801436303521065" lon="12.207245017369733"><ele>696.0</ele><time>2026-04-12T13:28:34.025Z</time></trkpt><trkpt lat="42.801569663869245" lon="12.207273018288634"><ele>696.0</ele><time>2026-04-12T13:28:35.025Z</time></trkpt><trkpt lat="42.801708120791524" lon="12.20729354167556"><ele>696.0</ele><time>2026-04-12T13:28:36.025Z</time></trkpt><trkpt lat="42.801838917767554" lon="12.20731711045431"><ele>696.0</ele><time>2026-04-12T13:28:37.025Z</time></trkpt><trkpt lat="42.80196141415788" lon="12.207352820242082"><ele>696.0</ele><time>2026-04-12T13:28:38.025Z</time></trkpt><trkpt lat="42.80208395162017" lon="12.207416715901093"><ele>696.0</ele><time>2026-04-12T13:28:39.025Z</time></trkpt><trkpt lat="42.8022140769824" lon="12.207509656841603"><ele>699.3333333333334</ele><time>2026-04-12T13:28:40.025Z</time></trkpt><trkpt lat="42.80233373404161" lon="12.207620107837217"><ele>702.6666666666667</ele><time>2026-04-12T13:28:41.025Z</time></trkpt><trkpt lat="42.80245385773358" lon="12.207739516532609"><ele>706.0</ele><time>2026-04-12T13:28:42.025Z</time></trkpt><trkpt lat="42.802582133347215" lon="12.207864607546238"><ele>707.6666666666667</ele><time>2026-04-12T13:28:43.025Z</time></trkpt><trkpt lat="42.80272567484" lon="12.207967018311185"><ele>709.3333333333334</ele><time>2026-04-12T13:28:44.025Z</time></trkpt><trkpt lat="42.80287047997744" lon="12.208026760086309"><ele>711.0</ele><time>2026-04-12T13:28:45.025Z</time></trkpt><trkpt lat="42.80303116469725" lon="12.208047324435753"><ele>711.0</ele><time>2026-04-12T13:28:46.025Z</time></trkpt><trkpt lat="42.80319052849127" lon="12.20803900958393"><ele>711.0</ele><time>2026-04-12T13:28:47.025Z</time></trkpt><trkpt lat="42.80335420991476" lon="12.208008103591979"><ele>711.0</ele><time>2026-04-12T13:28:48.025Z</time></trkpt><trkpt lat="42.8035352654532" lon="12.207978772782068"><ele>710.6666666666666</ele><time>2026-04-12T13:28:49.025Z</time></trkpt><trkpt lat="42.80370685951173" lon="12.207937402748215"><ele>710.3333333333333</ele><time>2026-04-12T13:28:50.025Z</time></trkpt><trkpt lat="42.80388880215211" lon="12.207911384747725"><ele>710.0</ele><time>2026-04-12T13:28:51.025Z</time></trkpt><trkpt lat="42.804057977769574" lon="12.207899711945457"><ele>710.0</ele><time>2026-04-12T13:28:52.025Z</time></trkpt><trkpt lat="42.804216770128285" lon="12.207912748523926"><ele>710.0</ele><time>2026-04-12T13:28:53.025Z</time></trkpt><trkpt lat="42.80436378117021" lon="12.20795247666571"><ele>710.0</ele><time>2026-04-12T13:28:54.025Z</time></trkpt><trkpt lat="42.80451277537925" lon="12.208024315910055"><ele>713.3333333333333</ele><time>2026-04-12T13:28:55.025Z</time></trkpt><trkpt lat="42.80466034905334" lon="12.20811476469321"><ele>716.6666666666666</ele><time>2026-04-12T13:28:56.025Z</time></trkpt><trkpt lat="42.80481127813102" lon="12.208203478111292"><ele>720.0</ele><time>2026-04-12T13:28:57.025Z</time></trkpt><trkpt lat="42.80496402591238" lon="12.208293495495997"><ele>720.0</ele><time>2026-04-12T13:28:58.025Z</time></trkpt><trkpt lat="42.80511497085926" lon="12.20839187633812"><ele>720.0</ele><time>2026-04-12T13:28:59.025Z</time></trkpt><trkpt lat="42.805272158361355" lon="12.208486952848936"><ele>720.0</ele><time>2026-04-12T13:29:00.025Z</time></trkpt><trkpt lat="42.805420708809784" lon="12.208574847865435"><ele>722.3333333333334</ele><time>2026-04-12T13:29:01.025Z</time></trkpt><trkpt lat="42.80556911649427" lon="12.208659779942908"><ele>724.6666666666667</ele><time>2026-04-12T13:29:02.025Z</time></trkpt><trkpt lat="42.80571428906869" lon="12.208738186204867"><ele>727.0</ele><time>2026-04-12T13:29:03.025Z</time></trkpt><trkpt lat="42.80585152242945" lon="12.208823345841703"><ele>727.0</ele><time>2026-04-12T13:29:04.025Z</time></trkpt><trkpt lat="42.805982988302304" lon="12.208915545030093"><ele>727.0</ele><time>2026-04-12T13:29:05.025Z</time></trkpt><trkpt lat="42.80610614220698" lon="12.20903034044269"><ele>727.0</ele><time>2026-04-12T13:29:06.025Z</time></trkpt><trkpt lat="42.806216065303694" lon="12.209174832696936"><ele>730.0</ele><time>2026-04-12T13:29:07.025Z</time></trkpt><trkpt lat="42.80632194153409" lon="12.20933763726562"><ele>733.0</ele><time>2026-04-12T13:29:08.025Z</time></trkpt><trkpt lat="42.806413982668616" lon="12.209509283006842"><ele>736.0</ele><time>2026-04-12T13:29:09.025Z</time></trkpt><trkpt lat="42.806514859786425" lon="12.209659866540498"><ele>736.0</ele><time>2026-04-12T13:29:10.025Z</time></trkpt><trkpt lat="42.80664359638101" lon="12.209772914548868"><ele>736.0</ele><time>2026-04-12T13:29:11.025Z</time></trkpt><trkpt lat="42.806782688120684" lon="12.209855587174397"><ele>736.0</ele><time>2026-04-12T13:29:12.025Z</time></trkpt><trkpt lat="42.806916272053726" lon="12.209920748710777"><ele>736.0</ele><time>2026-04-12T13:29:13.025Z</time></trkpt><trkpt lat="42.80703850594876" lon="12.209988333989877"><ele>736.25</ele><time>2026-04-12T13:29:14.025Z</time></trkpt><trkpt lat="42.807149836807454" lon="12.210052564070926"><ele>736.5</ele><time>2026-04-12T13:29:15.025Z</time></trkpt><trkpt lat="42.807264545725744" lon="12.210131158223941"><ele>736.75</ele><time>2026-04-12T13:29:16.025Z</time></trkpt><trkpt lat="42.80736007897889" lon="12.210225355022377"><ele>737.0</ele><time>2026-04-12T13:29:17.025Z</time></trkpt><trkpt lat="42.807449104746716" lon="12.210307648764838"><ele>737.0</ele><time>2026-04-12T13:29:18.025Z</time></trkpt><trkpt lat="42.80752852453564" lon="12.210395592602683"><ele>737.0</ele><time>2026-04-12T13:29:19.025Z</time></trkpt><trkpt lat="42.80760811991741" lon="12.210487560493457"><ele>737.0</ele><time>2026-04-12T13:29:20.025Z</time></trkpt><trkpt lat="42.80768818868154" lon="12.210590507700442"><ele>737.0</ele><time>2026-04-12T13:29:21.025Z</time></trkpt><trkpt lat="42.80776949999178" lon="12.21068884258907"><ele>737.0</ele><time>2026-04-12T13:29:22.025Z</time></trkpt><trkpt lat="42.807855292645655" lon="12.21077767054092"><ele>738.5</ele><time>2026-04-12T13:29:23.025Z</time></trkpt><trkpt lat="42.80794891088861" lon="12.210870214587702"><ele>740.0</ele><time>2026-04-12T13:29:24.025Z</time></trkpt><trkpt lat="42.80806885935755" lon="12.210964102781642"><ele>741.5</ele><time>2026-04-12T13:29:25.025Z</time></trkpt><trkpt lat="42.80820487941265" lon="12.211054538621765"><ele>743.0</ele><time>2026-04-12T13:29:26.025Z</time></trkpt><trkpt lat="42.8083486086015" lon="12.211157987383581"><ele>745.6666666666666</ele><time>2026-04-12T13:29:27.025Z</time></trkpt><trkpt lat="42.808498739243" lon="12.211264151451552"><ele>748.3333333333334</ele><time>2026-04-12T13:29:28.025Z</time></trkpt><trkpt lat="42.80866646094334" lon="12.211370683549042"><ele>751.0</ele><time>2026-04-12T13:29:29.025Z</time></trkpt><trkpt lat="42.808833710944256" lon="12.211461277988944"><ele>752.6666666666667</ele><time>2026-04-12T13:29:30.025Z</time></trkpt><trkpt lat="42.80898418070566" lon="12.211534055731597"><ele>754.3333333333334</ele><time>2026-04-12T13:29:31.025Z</time></trkpt><trkpt lat="42.8091353676874" lon="12.211592991260261"><ele>756.0</ele><time>2026-04-12T13:29:32.025Z</time></trkpt><trkpt lat="42.809302620343786" lon="12.211650661762192"><ele>757.0</ele><time>2026-04-12T13:29:33.025Z</time></trkpt><trkpt lat="42.809467171574475" lon="12.211725722085784"><ele>758.0</ele><time>2026-04-12T13:29:34.027Z</time></trkpt><trkpt lat="42.809620954894065" lon="12.211801790436713"><ele>759.0</ele><time>2026-04-12T13:29:35.027Z</time></trkpt><trkpt lat="42.809766952052044" lon="12.211873194167637"><ele>759.0</ele><time>2026-04-12T13:29:36.027Z</time></trkpt><trkpt lat="42.80993365397603" lon="12.211928360966116"><ele>759.0</ele><time>2026-04-12T13:29:37.027Z</time></trkpt><trkpt lat="42.81009172982006" lon="12.21195929340203"><ele>759.0</ele><time>2026-04-12T13:29:38.028Z</time></trkpt><trkpt lat="42.81025330225797" lon="12.21196750320026"><ele>760.3333333333334</ele><time>2026-04-12T13:29:39.028Z</time></trkpt><trkpt lat="42.81042188107396" lon="12.211957157753067"><ele>761.6666666666667</ele><time>2026-04-12T13:29:40.027Z</time></trkpt><trkpt lat="42.81057498436799" lon="12.21193478182"><ele>763.0</ele><time>2026-04-12T13:29:41.028Z</time></trkpt><trkpt lat="42.81070746170729" lon="12.211897121610498"><ele>763.0</ele><time>2026-04-12T13:29:42.028Z</time></trkpt><trkpt lat="42.81083562733028" lon="12.211864647330973"><ele>763.0</ele><time>2026-04-12T13:29:43.027Z</time></trkpt><trkpt lat="42.810974502273794" lon="12.211872887429593"><ele>763.0</ele><time>2026-04-12T13:29:44.027Z</time></trkpt><trkpt lat="42.81111441413587" lon="12.211913040950854"><ele>763.0</ele><time>2026-04-12T13:29:45.027Z</time></trkpt><trkpt lat="42.81125903868447" lon="12.211994844293102"><ele>763.0</ele><time>2026-04-12T13:29:46.027Z</time></trkpt><trkpt lat="42.81138296062409" lon="12.21209574474676"><ele>763.0</ele><time>2026-04-12T13:29:47.028Z</time></trkpt><trkpt lat="42.81149334697433" lon="12.212211737371703"><ele>763.0</ele><time>2026-04-12T13:29:48.028Z</time></trkpt><trkpt lat="42.81159239342802" lon="12.212337354479665"><ele>763.0</ele><time>2026-04-12T13:29:49.028Z</time></trkpt><trkpt lat="42.81166623509842" lon="12.212473752389403"><ele>763.0</ele><time>2026-04-12T13:29:50.028Z</time></trkpt><trkpt lat="42.81172179361694" lon="12.212633738309226"><ele>763.0</ele><time>2026-04-12T13:29:51.028Z</time></trkpt><trkpt lat="42.811741923258786" lon="12.21281209773407"><ele>763.0</ele><time>2026-04-12T13:29:52.028Z</time></trkpt><trkpt lat="42.8117188290627" lon="12.212989613731894"><ele>763.0</ele><time>2026-04-12T13:29:53.028Z</time></trkpt><trkpt lat="42.811661194591295" lon="12.213158793202442"><ele>764.25</ele><time>2026-04-12T13:29:54.028Z</time></trkpt><trkpt lat="42.811590954992795" lon="12.21333437160524"><ele>765.5</ele><time>2026-04-12T13:29:55.028Z</time></trkpt><trkpt lat="42.81152524632992" lon="12.213496778053386"><ele>766.75</ele><time>2026-04-12T13:29:56.028Z</time></trkpt><trkpt lat="42.81147518638394" lon="12.213666520269937"><ele>768.0</ele><time>2026-04-12T13:29:57.028Z</time></trkpt><trkpt lat="42.811455104108994" lon="12.213850685773505"><ele>769.0</ele><time>2026-04-12T13:29:58.028Z</time></trkpt><trkpt lat="42.81147036943187" lon="12.21405182858846"><ele>770.0</ele><time>2026-04-12T13:29:59.028Z</time></trkpt><trkpt lat="42.81151362306539" lon="12.214256635893221"><ele>771.0</ele><time>2026-04-12T13:30:00.028Z</time></trkpt><trkpt lat="42.811572583151104" lon="12.214469170179225"><ele>771.0</ele><time>2026-04-12T13:30:01.028Z</time></trkpt><trkpt lat="42.811626363262086" lon="12.214678919560537"><ele>771.0</ele><time>2026-04-12T13:30:02.028Z</time></trkpt><trkpt lat="42.81167729565218" lon="12.21488949603803"><ele>771.0</ele><time>2026-04-12T13:30:03.028Z</time></trkpt><trkpt lat="42.8117237679456" lon="12.215096080153925"><ele>771.0</ele><time>2026-04-12T13:30:04.028Z</time></trkpt><trkpt lat="42.81176115657256" lon="12.21526428057197"><ele>771.0</ele><time>2026-04-12T13:30:05.028Z</time></trkpt><trkpt lat="42.811816225600616" lon="12.215421452953203"><ele>771.0</ele><time>2026-04-12T13:30:06.028Z</time></trkpt><trkpt lat="42.811896210358505" lon="12.21554445109858"><ele>771.0</ele><time>2026-04-12T13:30:07.028Z</time></trkpt><trkpt lat="42.81199174207576" lon="12.215650057426798"><ele>772.5</ele><time>2026-04-12T13:30:08.028Z</time></trkpt><trkpt lat="42.81211280980968" lon="12.215723337321162"><ele>774.0</ele><time>2026-04-12T13:30:09.027Z</time></trkpt><trkpt lat="42.81224893790646" lon="12.215783062117193"><ele>775.5</ele><time>2026-04-12T13:30:10.027Z</time></trkpt><trkpt lat="42.812405032987606" lon="12.215829258078122"><ele>777.0</ele><time>2026-04-12T13:30:11.027Z</time></trkpt><trkpt lat="42.81258179682978" lon="12.215880230627272"><ele>776.6666666666667</ele><time>2026-04-12T13:30:12.027Z</time></trkpt><trkpt lat="42.81275207721047" lon="12.215901699781435"><ele>776.3333333333334</ele><time>2026-04-12T13:30:13.027Z</time></trkpt><trkpt lat="42.81290284958103" lon="12.21591590750472"><ele>776.0</ele><time>2026-04-12T13:30:14.027Z</time></trkpt><trkpt lat="42.81303062571374" lon="12.21591994254522"><ele>776.0</ele><time>2026-04-12T13:30:15.027Z</time></trkpt><trkpt lat="42.8131355635301" lon="12.215930630293741"><ele>776.0</ele><time>2026-04-12T13:30:16.027Z</time></trkpt><trkpt lat="42.8132276440709" lon="12.215886521282492"><ele>776.0</ele><time>2026-04-12T13:30:17.027Z</time></trkpt><trkpt lat="42.8133071854696" lon="12.215816549884005"><ele>776.0</ele><time>2026-04-12T13:30:18.027Z</time></trkpt><trkpt lat="42.81337767287924" lon="12.215717684898122"><ele>776.0</ele><time>2026-04-12T13:30:19.027Z</time></trkpt><trkpt lat="42.813445816928834" lon="12.215605673759734"><ele>775.25</ele><time>2026-04-12T13:30:20.027Z</time></trkpt><trkpt lat="42.81351136101953" lon="12.215483678551655"><ele>774.5</ele><time>2026-04-12T13:30:21.027Z</time></trkpt><trkpt lat="42.81357783424437" lon="12.215351988899593"><ele>773.75</ele><time>2026-04-12T13:30:22.027Z</time></trkpt><trkpt lat="42.813644615233066" lon="12.21520320977108"><ele>773.0</ele><time>2026-04-12T13:30:23.027Z</time></trkpt><trkpt lat="42.81370329422009" lon="12.215038406266975"><ele>773.0</ele><time>2026-04-12T13:30:24.027Z</time></trkpt><trkpt lat="42.81374338522161" lon="12.214853620945007"><ele>773.0</ele><time>2026-04-12T13:30:25.027Z</time></trkpt><trkpt lat="42.81375969971176" lon="12.214648604053952"><ele>773.0</ele><time>2026-04-12T13:30:26.027Z</time></trkpt><trkpt lat="42.81376221218723" lon="12.214439384026997"><ele>773.0</ele><time>2026-04-12T13:30:27.027Z</time></trkpt><trkpt lat="42.81376951399421" lon="12.21425000711479"><ele>775.5</ele><time>2026-04-12T13:30:28.027Z</time></trkpt><trkpt lat="42.81379252664816" lon="12.214066626853137"><ele>778.0</ele><time>2026-04-12T13:30:29.027Z</time></trkpt><trkpt lat="42.813827420707035" lon="12.213901222688925"><ele>780.5</ele><time>2026-04-12T13:30:30.027Z</time></trkpt><trkpt lat="42.81387562203567" lon="12.213750083355501"><ele>783.0</ele><time>2026-04-12T13:30:31.027Z</time></trkpt><trkpt lat="42.81394855737249" lon="12.21363064967239"><ele>782.75</ele><time>2026-04-12T13:30:32.027Z</time></trkpt><trkpt lat="42.8140511809717" lon="12.21355530967807"><ele>782.5</ele><time>2026-04-12T13:30:33.027Z</time></trkpt><trkpt lat="42.81415922517084" lon="12.213559990132095"><ele>782.25</ele><time>2026-04-12T13:30:34.027Z</time></trkpt><trkpt lat="42.81427533975578" lon="12.213574125986632"><ele>782.0</ele><time>2026-04-12T13:30:35.027Z</time></trkpt><trkpt lat="42.81439292081534" lon="12.213571384905855"><ele>782.0</ele><time>2026-04-12T13:30:36.027Z</time></trkpt><trkpt lat="42.814507572760284" lon="12.21357360461719"><ele>782.0</ele><time>2026-04-12T13:30:37.027Z</time></trkpt><trkpt lat="42.814599017279804" lon="12.213531939953858"><ele>782.0</ele><time>2026-04-12T13:30:38.027Z</time></trkpt><trkpt lat="42.81468563851459" lon="12.213470299322015"><ele>782.0</ele><time>2026-04-12T13:30:39.027Z</time></trkpt><trkpt lat="42.814764713576146" lon="12.213370650978788"><ele>782.0</ele><time>2026-04-12T13:30:40.027Z</time></trkpt><trkpt lat="42.81483682766824" lon="12.213255206553866"><ele>783.75</ele><time>2026-04-12T13:30:41.027Z</time></trkpt><trkpt lat="42.814903491231" lon="12.213128546176693"><ele>785.5</ele><time>2026-04-12T13:30:42.027Z</time></trkpt><trkpt lat="42.81497119520984" lon="12.212996152205124"><ele>787.25</ele><time>2026-04-12T13:30:43.027Z</time></trkpt><trkpt lat="42.81503776081549" lon="12.212852467737925"><ele>789.0</ele><time>2026-04-12T13:30:44.027Z</time></trkpt><trkpt lat="42.81509841165357" lon="12.212715645244254"><ele>789.0</ele><time>2026-04-12T13:30:45.027Z</time></trkpt><trkpt lat="42.81514925215791" lon="12.212574045692026"><ele>789.0</ele><time>2026-04-12T13:30:46.027Z</time></trkpt><trkpt lat="42.81519251211484" lon="12.212422125953362"><ele>789.0</ele><time>2026-04-12T13:30:47.027Z</time></trkpt><trkpt lat="42.81523588065026" lon="12.2122664523684"><ele>789.0</ele><time>2026-04-12T13:30:48.027Z</time></trkpt><trkpt lat="42.81528486266371" lon="12.212105878092226"><ele>788.75</ele><time>2026-04-12T13:30:49.027Z</time></trkpt><trkpt lat="42.81533780620625" lon="12.211947909260077"><ele>788.5</ele><time>2026-04-12T13:30:50.027Z</time></trkpt><trkpt lat="42.81539692055482" lon="12.211798713943145"><ele>788.25</ele><time>2026-04-12T13:30:51.027Z</time></trkpt><trkpt lat="42.81547421400394" lon="12.211660617023387"><ele>788.0</ele><time>2026-04-12T13:30:52.027Z</time></trkpt><trkpt lat="42.815570107056594" lon="12.21152580750302"><ele>790.25</ele><time>2026-04-12T13:30:53.027Z</time></trkpt><trkpt lat="42.81566941119232" lon="12.2113915076509"><ele>792.5</ele><time>2026-04-12T13:30:54.027Z</time></trkpt><trkpt lat="42.81575790476946" lon="12.21127224242098"><ele>794.75</ele><time>2026-04-12T13:30:55.027Z</time></trkpt><trkpt lat="42.815843815134336" lon="12.211180356101206"><ele>797.0</ele><time>2026-04-12T13:30:56.027Z</time></trkpt><trkpt lat="42.81593505543352" lon="12.211120361078933"><ele>798.0</ele><time>2026-04-12T13:30:57.027Z</time></trkpt><trkpt lat="42.81603380963728" lon="12.21110808554321"><ele>799.0</ele><time>2026-04-12T13:30:58.027Z</time></trkpt><trkpt lat="42.816123021362955" lon="12.21113226340654"><ele>800.0</ele><time>2026-04-12T13:30:59.027Z</time></trkpt><trkpt lat="42.816231450971316" lon="12.211211757951435"><ele>801.0</ele><time>2026-04-12T13:31:00.027Z</time></trkpt><trkpt lat="42.81635679834474" lon="12.211285441284637"><ele>801.0</ele><time>2026-04-12T13:31:01.027Z</time></trkpt><trkpt lat="42.816498369727576" lon="12.211343585817081"><ele>801.0</ele><time>2026-04-12T13:31:02.027Z</time></trkpt><trkpt lat="42.816622439450484" lon="12.211427245840987"><ele>801.0</ele><time>2026-04-12T13:31:03.027Z</time></trkpt><trkpt lat="42.81674623095574" lon="12.211494511479996"><ele>801.0</ele><time>2026-04-12T13:31:04.027Z</time></trkpt><trkpt lat="42.81686659908159" lon="12.211558794135113"><ele>801.0</ele><time>2026-04-12T13:31:05.027Z</time></trkpt><trkpt lat="42.816992785138815" lon="12.211625954433215"><ele>801.0</ele><time>2026-04-12T13:31:06.027Z</time></trkpt><trkpt lat="42.817116326890634" lon="12.211688283211755"><ele>801.0</ele><time>2026-04-12T13:31:07.027Z</time></trkpt><trkpt lat="42.8172469083335" lon="12.211752745666415"><ele>801.0</ele><time>2026-04-12T13:31:08.027Z</time></trkpt><trkpt lat="42.817384772668234" lon="12.211820148974772"><ele>801.0</ele><time>2026-04-12T13:31:09.027Z</time></trkpt><trkpt lat="42.8175040950895" lon="12.211878487005748"><ele>801.0</ele><time>2026-04-12T13:31:10.027Z</time></trkpt><trkpt lat="42.817609720867004" lon="12.211930128503953"><ele>801.0</ele><time>2026-04-12T13:31:11.027Z</time></trkpt><trkpt lat="42.81771164051705" lon="12.211978601300597"><ele>801.0</ele><time>2026-04-12T13:31:12.027Z</time></trkpt><trkpt lat="42.81782722116847" lon="12.212024710617637"><ele>802.5</ele><time>2026-04-12T13:31:13.027Z</time></trkpt><trkpt lat="42.81796624352418" lon="12.212055158450665"><ele>804.0</ele><time>2026-04-12T13:31:14.027Z</time></trkpt><trkpt lat="42.81812005795141" lon="12.21205827290891"><ele>805.5</ele><time>2026-04-12T13:31:15.027Z</time></trkpt><trkpt lat="42.81825601214628" lon="12.212036816484812"><ele>807.0</ele><time>2026-04-12T13:31:16.027Z</time></trkpt><trkpt lat="42.818398077383165" lon="12.211992703165752"><ele>803.6666666666667</ele><time>2026-04-12T13:31:17.027Z</time></trkpt><trkpt lat="42.818535263212326" lon="12.211902522190629"><ele>800.3333333333334</ele><time>2026-04-12T13:31:18.027Z</time></trkpt><trkpt lat="42.818668466769346" lon="12.211801804622816"><ele>797.0</ele><time>2026-04-12T13:31:19.027Z</time></trkpt><trkpt lat="42.81879826263588" lon="12.211694535475113"><ele>797.0</ele><time>2026-04-12T13:31:20.027Z</time></trkpt><trkpt lat="42.81894222239435" lon="12.21159438520263"><ele>797.0</ele><time>2026-04-12T13:31:21.027Z</time></trkpt><trkpt lat="42.81908855948062" lon="12.211511315464293"><ele>797.0</ele><time>2026-04-12T13:31:22.026Z</time></trkpt><trkpt lat="42.819230156324835" lon="12.211436466940448"><ele>800.25</ele><time>2026-04-12T13:31:23.026Z</time></trkpt><trkpt lat="42.81936902223932" lon="12.21137225109906"><ele>803.5</ele><time>2026-04-12T13:31:24.026Z</time></trkpt><trkpt lat="42.81951498481216" lon="12.2113455244139"><ele>806.75</ele><time>2026-04-12T13:31:25.026Z</time></trkpt><trkpt lat="42.819665285078926" lon="12.211347376093133"><ele>810.0</ele><time>2026-04-12T13:31:26.026Z</time></trkpt><trkpt lat="42.81981265608626" lon="12.211411372017384"><ele>810.0</ele><time>2026-04-12T13:31:27.026Z</time></trkpt><trkpt lat="42.81995371021308" lon="12.211458092022076"><ele>810.0</ele><time>2026-04-12T13:31:28.026Z</time></trkpt><trkpt lat="42.82008211757068" lon="12.211472890207334"><ele>810.0</ele><time>2026-04-12T13:31:29.026Z</time></trkpt><trkpt lat="42.82021664367469" lon="12.211776735936192"><ele>810.0</ele><time>2026-04-12T13:31:30.026Z</time></trkpt><trkpt lat="42.82035695309326" lon="12.211897730044463"><ele>810.0</ele><time>2026-04-12T13:31:31.026Z</time></trkpt><trkpt lat="42.820500331959416" lon="12.212017675073746"><ele>810.0</ele><time>2026-04-12T13:31:32.026Z</time></trkpt><trkpt lat="42.820657458541085" lon="12.21211435206136"><ele>810.0</ele><time>2026-04-12T13:31:33.026Z</time></trkpt><trkpt lat="42.820817791500836" lon="12.21219329399042"><ele>810.0</ele><time>2026-04-12T13:31:34.026Z</time></trkpt><trkpt lat="42.82097172428194" lon="12.212265613257093"><ele>810.0</ele><time>2026-04-12T13:31:35.026Z</time></trkpt><trkpt lat="42.82112552757035" lon="12.212326887728105"><ele>810.3333333333333</ele><time>2026-04-12T13:31:36.026Z</time></trkpt><trkpt lat="42.82128969536571" lon="12.212353542079216"><ele>810.6666666666666</ele><time>2026-04-12T13:31:37.026Z</time></trkpt><trkpt lat="42.821443257532046" lon="12.21235118196223"><ele>811.0</ele><time>2026-04-12T13:31:38.026Z</time></trkpt><trkpt lat="42.8215994034591" lon="12.212310663150605"><ele>811.0</ele><time>2026-04-12T13:31:39.026Z</time></trkpt><trkpt lat="42.8217492640079" lon="12.21225797545491"><ele>811.0</ele><time>2026-04-12T13:31:40.028Z</time></trkpt><trkpt lat="42.82188936788029" lon="12.212195180549974"><ele>811.0</ele><time>2026-04-12T13:31:41.028Z</time></trkpt><trkpt lat="42.82203105757664" lon="12.21212558593669"><ele>810.25</ele><time>2026-04-12T13:31:42.028Z</time></trkpt><trkpt lat="42.82216701369483" lon="12.212064921426322"><ele>809.5</ele><time>2026-04-12T13:31:43.028Z</time></trkpt><trkpt lat="42.82230336779223" lon="12.212028222900608"><ele>808.75</ele><time>2026-04-12T13:31:44.028Z</time></trkpt><trkpt lat="42.8224358575657" lon="12.212013281219209"><ele>808.0</ele><time>2026-04-12T13:31:45.028Z</time></trkpt><trkpt lat="42.82255553773319" lon="12.211990007856539"><ele>806.4</ele><time>2026-04-12T13:31:46.028Z</time></trkpt><trkpt lat="42.82267059511851" lon="12.21196937447586"><ele>804.8</ele><time>2026-04-12T13:31:47.028Z</time></trkpt><trkpt lat="42.82278554386583" lon="12.211941510304491"><ele>803.2</ele><time>2026-04-12T13:31:48.028Z</time></trkpt><trkpt lat="42.82289288664202" lon="12.211918031771987"><ele>801.6</ele><time>2026-04-12T13:31:49.029Z</time></trkpt><trkpt lat="42.82299235536171" lon="12.211907496495156"><ele>800.0</ele><time>2026-04-12T13:31:50.029Z</time></trkpt><trkpt lat="42.82309198908547" lon="12.211916092220042"><ele>800.0</ele><time>2026-04-12T13:31:51.028Z</time></trkpt><trkpt lat="42.823172714674755" lon="12.211963226048788"><ele>800.0</ele><time>2026-04-12T13:31:52.028Z</time></trkpt><trkpt lat="42.8232448199325" lon="12.212053897993655"><ele>800.0</ele><time>2026-04-12T13:31:53.028Z</time></trkpt><trkpt lat="42.82330376283259" lon="12.212167314110888"><ele>800.0</ele><time>2026-04-12T13:31:54.028Z</time></trkpt><trkpt lat="42.82335225406299" lon="12.212280798264219"><ele>800.0</ele><time>2026-04-12T13:31:55.028Z</time></trkpt><trkpt lat="42.823395208335654" lon="12.21239143035691"><ele>800.6</ele><time>2026-04-12T13:31:56.028Z</time></trkpt><trkpt lat="42.823433786781585" lon="12.212504645869851"><ele>801.2</ele><time>2026-04-12T13:31:57.028Z</time></trkpt><trkpt lat="42.82348709951216" lon="12.21262004004429"><ele>801.8</ele><time>2026-04-12T13:31:58.028Z</time></trkpt><trkpt lat="42.8235687449102" lon="12.21272913247556"><ele>802.4</ele><time>2026-04-12T13:31:59.028Z</time></trkpt><trkpt lat="42.82366485820568" lon="12.21282718122541"><ele>803.0</ele><time>2026-04-12T13:32:00.028Z</time></trkpt><trkpt lat="42.823767129220116" lon="12.212920147353096"><ele>803.0</ele><time>2026-04-12T13:32:01.028Z</time></trkpt><trkpt lat="42.82388428301693" lon="12.213008994481763"><ele>803.0</ele><time>2026-04-12T13:32:02.028Z</time></trkpt><trkpt lat="42.82400548590015" lon="12.213115733534066"><ele>803.0</ele><time>2026-04-12T13:32:03.028Z</time></trkpt><trkpt lat="42.82411735552583" lon="12.213249368905826"><ele>803.0</ele><time>2026-04-12T13:32:04.028Z</time></trkpt><trkpt lat="42.82421203931355" lon="12.213396217138573"><ele>802.5</ele><time>2026-04-12T13:32:05.028Z</time></trkpt><trkpt lat="42.82429495850898" lon="12.213538582854019"><ele>802.0</ele><time>2026-04-12T13:32:06.028Z</time></trkpt><trkpt lat="42.82438837247684" lon="12.213669445794348"><ele>801.5</ele><time>2026-04-12T13:32:07.028Z</time></trkpt><trkpt lat="42.82448633770542" lon="12.213768911279947"><ele>801.0</ele><time>2026-04-12T13:32:08.028Z</time></trkpt><trkpt lat="42.8245924199463" lon="12.213808294351931"><ele>801.0</ele><time>2026-04-12T13:32:09.028Z</time></trkpt><trkpt lat="42.824703612387445" lon="12.21379972171452"><ele>801.0</ele><time>2026-04-12T13:32:10.028Z</time></trkpt><trkpt lat="42.82481075706944" lon="12.213754044306475"><ele>801.0</ele><time>2026-04-12T13:32:11.028Z</time></trkpt><trkpt lat="42.82491485602027" lon="12.213684200670526"><ele>801.0</ele><time>2026-04-12T13:32:12.028Z</time></trkpt><trkpt lat="42.8250162210712" lon="12.213618299790301"><ele>801.0</ele><time>2026-04-12T13:32:13.028Z</time></trkpt><trkpt lat="42.82513178347647" lon="12.21358546120537"><ele>801.0</ele><time>2026-04-12T13:32:14.028Z</time></trkpt><trkpt lat="42.82525859755897" lon="12.213585755070989"><ele>801.0</ele><time>2026-04-12T13:32:15.028Z</time></trkpt><trkpt lat="42.82538744393633" lon="12.213643045450466"><ele>801.0</ele><time>2026-04-12T13:32:16.028Z</time></trkpt><trkpt lat="42.82552175013431" lon="12.213728192644718"><ele>800.25</ele><time>2026-04-12T13:32:17.028Z</time></trkpt><trkpt lat="42.82564803448966" lon="12.21382809386221"><ele>799.5</ele><time>2026-04-12T13:32:18.028Z</time></trkpt><trkpt lat="42.8257782044413" lon="12.213910325966195"><ele>798.75</ele><time>2026-04-12T13:32:19.028Z</time></trkpt><trkpt lat="42.82589798316221" lon="12.213964931612571"><ele>798.0</ele><time>2026-04-12T13:32:20.028Z</time></trkpt><trkpt lat="42.82601767890099" lon="12.21396770039273"><ele>794.25</ele><time>2026-04-12T13:32:21.028Z</time></trkpt><trkpt lat="42.82613294162356" lon="12.213920450151575"><ele>790.5</ele><time>2026-04-12T13:32:22.028Z</time></trkpt><trkpt lat="42.82623667978019" lon="12.213825816264553"><ele>786.75</ele><time>2026-04-12T13:32:23.028Z</time></trkpt><trkpt lat="42.82633494390673" lon="12.213697338932773"><ele>783.0</ele><time>2026-04-12T13:32:24.028Z</time></trkpt><trkpt lat="42.82642227612219" lon="12.21355215378216"><ele>783.0</ele><time>2026-04-12T13:32:25.028Z</time></trkpt><trkpt lat="42.8265098247491" lon="12.213418155104145"><ele>783.0</ele><time>2026-04-12T13:32:26.028Z</time></trkpt><trkpt lat="42.82659884055705" lon="12.213324516434959"><ele>783.0</ele><time>2026-04-12T13:32:27.028Z</time></trkpt><trkpt lat="42.82668116984936" lon="12.213281705590619"><ele>783.0</ele><time>2026-04-12T13:32:28.028Z</time></trkpt><trkpt lat="42.826763819735795" lon="12.213286889902536"><ele>783.0</ele><time>2026-04-12T13:32:29.028Z</time></trkpt><trkpt lat="42.82683924749556" lon="12.21334758820814"><ele>781.4</ele><time>2026-04-12T13:32:30.028Z</time></trkpt><trkpt lat="42.82690547350304" lon="12.213445102579398"><ele>779.8</ele><time>2026-04-12T13:32:31.027Z</time></trkpt><trkpt lat="42.82696904000727" lon="12.213556657049585"><ele>778.2</ele><time>2026-04-12T13:32:32.027Z</time></trkpt><trkpt lat="42.82702722052328" lon="12.213675396337845"><ele>776.6</ele><time>2026-04-12T13:32:33.027Z</time></trkpt><trkpt lat="42.827103734802165" lon="12.21378537755466"><ele>775.0</ele><time>2026-04-12T13:32:34.027Z</time></trkpt><trkpt lat="42.82721047598522" lon="12.213866081998646"><ele>775.0</ele><time>2026-04-12T13:32:35.027Z</time></trkpt><trkpt lat="42.827327540101585" lon="12.213896061301815"><ele>775.0</ele><time>2026-04-12T13:32:36.027Z</time></trkpt><trkpt lat="42.82746027108427" lon="12.213894473594738"><ele>775.0</ele><time>2026-04-12T13:32:37.027Z</time></trkpt><trkpt lat="42.827586820566935" lon="12.213834394241536"><ele>775.0</ele><time>2026-04-12T13:32:38.027Z</time></trkpt><trkpt lat="42.827692361264184" lon="12.213734292175687"><ele>772.0</ele><time>2026-04-12T13:32:39.027Z</time></trkpt><trkpt lat="42.82775506492163" lon="12.21360728155608"><ele>769.0</ele><time>2026-04-12T13:32:40.027Z</time></trkpt><trkpt lat="42.827784816989904" lon="12.213483085358003"><ele>766.0</ele><time>2026-04-12T13:32:41.027Z</time></trkpt><trkpt lat="42.82775503723749" lon="12.213350357212896"><ele>763.0</ele><time>2026-04-12T13:32:42.027Z</time></trkpt><trkpt lat="42.827718939763585" lon="12.213216508525264"><ele>760.0</ele><time>2026-04-12T13:32:43.027Z</time></trkpt><trkpt lat="42.827684438261926" lon="12.213065929515789"><ele>760.0</ele><time>2026-04-12T13:32:44.027Z</time></trkpt><trkpt lat="42.82767879468807" lon="12.212909966988091"><ele>760.0</ele><time>2026-04-12T13:32:45.027Z</time></trkpt><trkpt lat="42.82770336772606" lon="12.212753390653988"><ele>760.0</ele><time>2026-04-12T13:32:46.027Z</time></trkpt><trkpt lat="42.82775714503743" lon="12.212628974625538"><ele>760.0</ele><time>2026-04-12T13:32:47.027Z</time></trkpt><trkpt lat="42.827856460771805" lon="12.212552408674838"><ele>760.0</ele><time>2026-04-12T13:32:48.027Z</time></trkpt><trkpt lat="42.82796392710379" lon="12.212517559584056"><ele>760.0</ele><time>2026-04-12T13:32:49.027Z</time></trkpt><trkpt lat="42.82807246358336" lon="12.212496275911663"><ele>760.0</ele><time>2026-04-12T13:32:50.027Z</time></trkpt><trkpt lat="42.828176582910075" lon="12.212462957689825"><ele>760.0</ele><time>2026-04-12T13:32:51.027Z</time></trkpt><trkpt lat="42.82827672096058" lon="12.21239146695367"><ele>760.0</ele><time>2026-04-12T13:32:52.027Z</time></trkpt><trkpt lat="42.828339761684795" lon="12.212273101485135"><ele>758.4</ele><time>2026-04-12T13:32:53.027Z</time></trkpt><trkpt lat="42.828366406610805" lon="12.212125917293266"><ele>756.8</ele><time>2026-04-12T13:32:54.027Z</time></trkpt><trkpt lat="42.82839408245651" lon="12.211975329581794"><ele>755.2</ele><time>2026-04-12T13:32:55.027Z</time></trkpt><trkpt lat="42.82843432798939" lon="12.211874827831773"><ele>753.6</ele><time>2026-04-12T13:32:56.027Z</time></trkpt><trkpt lat="42.82850047462846" lon="12.211818940595656"><ele>752.0</ele><time>2026-04-12T13:32:57.027Z</time></trkpt><trkpt lat="42.828575928089755" lon="12.211836515928399"><ele>751.4000000000001</ele><time>2026-04-12T13:32:58.027Z</time></trkpt><trkpt lat="42.828632862905316" lon="12.21191724142297"><ele>750.8000000000001</ele><time>2026-04-12T13:32:59.027Z</time></trkpt><trkpt lat="42.828657856331155" lon="12.212036921761282"><ele>750.2</ele><time>2026-04-12T13:33:00.027Z</time></trkpt><trkpt lat="42.82869726026202" lon="12.212170392835803"><ele>749.6</ele><time>2026-04-12T13:33:01.027Z</time></trkpt><trkpt lat="42.8287625314375" lon="12.212304095402493"><ele>749.0</ele><time>2026-04-12T13:33:02.027Z</time></trkpt><trkpt lat="42.828862683950064" lon="12.212427017334736"><ele>749.0</ele><time>2026-04-12T13:33:03.027Z</time></trkpt><trkpt lat="42.828983538844625" lon="12.212548010436585"><ele>749.0</ele><time>2026-04-12T13:33:04.027Z</time></trkpt><trkpt lat="42.82908089119799" lon="12.21268143725321"><ele>749.0</ele><time>2026-04-12T13:33:05.027Z</time></trkpt><trkpt lat="42.8291755221265" lon="12.21282998836442"><ele>749.0</ele><time>2026-04-12T13:33:06.027Z</time></trkpt><trkpt lat="42.82926821424024" lon="12.212980112231643"><ele>747.25</ele><time>2026-04-12T13:33:07.027Z</time></trkpt><trkpt lat="42.829374011635885" lon="12.213117358266151"><ele>745.5</ele><time>2026-04-12T13:33:08.027Z</time></trkpt><trkpt lat="42.8295037147401" lon="12.21322617051382"><ele>743.75</ele><time>2026-04-12T13:33:09.027Z</time></trkpt><trkpt lat="42.82963607725776" lon="12.213306414531878"><ele>742.0</ele><time>2026-04-12T13:33:10.027Z</time></trkpt><trkpt lat="42.82977457821178" lon="12.213386859536376"><ele>742.0</ele><time>2026-04-12T13:33:11.027Z</time></trkpt><trkpt lat="42.829904335987855" lon="12.213495132279009"><ele>742.0</ele><time>2026-04-12T13:33:12.027Z</time></trkpt><trkpt lat="42.830016841675956" lon="12.213645630270976"><ele>742.0</ele><time>2026-04-12T13:33:13.027Z</time></trkpt><trkpt lat="42.83011917863486" lon="12.213802716602638"><ele>741.75</ele><time>2026-04-12T13:33:14.027Z</time></trkpt><trkpt lat="42.83020696805631" lon="12.213970624217295"><ele>741.5</ele><time>2026-04-12T13:33:15.027Z</time></trkpt><trkpt lat="42.8303308802836" lon="12.214083013182066"><ele>741.25</ele><time>2026-04-12T13:33:16.027Z</time></trkpt><trkpt lat="42.83044638419942" lon="12.21419225773174"><ele>741.0</ele><time>2026-04-12T13:33:17.027Z</time></trkpt><trkpt lat="42.83058796553311" lon="12.21423058435004"><ele>741.0</ele><time>2026-04-12T13:33:18.027Z</time></trkpt><trkpt lat="42.83073970210018" lon="12.2142103930584"><ele>741.0</ele><time>2026-04-12T13:33:19.027Z</time></trkpt><trkpt lat="42.83091444750701" lon="12.214195448490123"><ele>741.0</ele><time>2026-04-12T13:33:20.027Z</time></trkpt><trkpt lat="42.83108261448711" lon="12.21420013912782"><ele>737.25</ele><time>2026-04-12T13:33:21.027Z</time></trkpt><trkpt lat="42.83122779424872" lon="12.214244529806592"><ele>733.5</ele><time>2026-04-12T13:33:22.027Z</time></trkpt><trkpt lat="42.83136006584692" lon="12.214274844075769"><ele>729.75</ele><time>2026-04-12T13:33:23.027Z</time></trkpt><trkpt lat="42.83147526887266" lon="12.214312001535486"><ele>726.0</ele><time>2026-04-12T13:33:24.027Z</time></trkpt><trkpt lat="42.83157539999657" lon="12.214412048559707"><ele>726.0</ele><time>2026-04-12T13:33:25.027Z</time></trkpt><trkpt lat="42.83161699776347" lon="12.214581497771993"><ele>726.0</ele><time>2026-04-12T13:33:26.027Z</time></trkpt><trkpt lat="42.83166783394826" lon="12.21473646205379"><ele>726.0</ele><time>2026-04-12T13:33:27.027Z</time></trkpt><trkpt lat="42.83172024295511" lon="12.21488048569852"><ele>726.0</ele><time>2026-04-12T13:33:28.027Z</time></trkpt><trkpt lat="42.83180948992516" lon="12.214977563139927"><ele>725.0</ele><time>2026-04-12T13:33:29.027Z</time></trkpt><trkpt lat="42.83190742251367" lon="12.215003616609776"><ele>724.0</ele><time>2026-04-12T13:33:30.027Z</time></trkpt><trkpt lat="42.83199322622236" lon="12.21502088622533"><ele>723.0</ele><time>2026-04-12T13:33:31.027Z</time></trkpt><trkpt lat="42.83209018681959" lon="12.215029020253043"><ele>722.0</ele><time>2026-04-12T13:33:32.027Z</time></trkpt><trkpt lat="42.832201498555335" lon="12.21503376826967"><ele>721.0</ele><time>2026-04-12T13:33:33.027Z</time></trkpt><trkpt lat="42.83231811319529" lon="12.215031245149207"><ele>721.0</ele><time>2026-04-12T13:33:34.027Z</time></trkpt><trkpt lat="42.832438046721926" lon="12.215026646821919"><ele>721.0</ele><time>2026-04-12T13:33:35.027Z</time></trkpt><trkpt lat="42.83255587610944" lon="12.215018338591037"><ele>721.0</ele><time>2026-04-12T13:33:36.027Z</time></trkpt><trkpt lat="42.832672021577544" lon="12.215023632617765"><ele>721.0</ele><time>2026-04-12T13:33:37.027Z</time></trkpt><trkpt lat="42.83278788554445" lon="12.215043837103117"><ele>718.25</ele><time>2026-04-12T13:33:38.027Z</time></trkpt><trkpt lat="42.83290543836469" lon="12.215080788182934"><ele>715.5</ele><time>2026-04-12T13:33:39.027Z</time></trkpt><trkpt lat="42.83302157963973" lon="12.215144975265884"><ele>712.75</ele><time>2026-04-12T13:33:40.027Z</time></trkpt><trkpt lat="42.83311487005451" lon="12.215231760356737"><ele>710.0</ele><time>2026-04-12T13:33:41.027Z</time></trkpt><trkpt lat="42.83317958870746" lon="12.215343566738612"><ele>710.0</ele><time>2026-04-12T13:33:42.027Z</time></trkpt><trkpt lat="42.833220260398235" lon="12.21548817920073"><ele>710.0</ele><time>2026-04-12T13:33:43.026Z</time></trkpt><trkpt lat="42.83326468197436" lon="12.215645231459824"><ele>710.0</ele><time>2026-04-12T13:33:44.026Z</time></trkpt><trkpt lat="42.8333085118669" lon="12.215798010122814"><ele>710.0</ele><time>2026-04-12T13:33:45.026Z</time></trkpt><trkpt lat="42.8333654513125" lon="12.2159411534127"><ele>711.4</ele><time>2026-04-12T13:33:46.03Z</time></trkpt><trkpt lat="42.833433636035615" lon="12.216070657309384"><ele>712.8</ele><time>2026-04-12T13:33:47.029Z</time></trkpt><trkpt lat="42.833510425482324" lon="12.216179315456696"><ele>714.2</ele><time>2026-04-12T13:33:48.029Z</time></trkpt><trkpt lat="42.83357404912228" lon="12.2162906551367"><ele>715.6</ele><time>2026-04-12T13:33:49.029Z</time></trkpt><trkpt lat="42.833645649867954" lon="12.216377113042"><ele>717.0</ele><time>2026-04-12T13:33:50.03Z</time></trkpt><trkpt lat="42.8337146430459" lon="12.216460422093295"><ele>715.0</ele><time>2026-04-12T13:33:51.03Z</time></trkpt><trkpt lat="42.833766454211315" lon="12.216541984543246"><ele>713.0</ele><time>2026-04-12T13:33:52.029Z</time></trkpt><trkpt lat="42.83382014550163" lon="12.216636081480175"><ele>711.0</ele><time>2026-04-12T13:33:53.029Z</time></trkpt><trkpt lat="42.83386542777133" lon="12.21673692344019"><ele>709.0</ele><time>2026-04-12T13:33:54.029Z</time></trkpt><trkpt lat="42.83391163076496" lon="12.216841655962437"><ele>707.0</ele><time>2026-04-12T13:33:55.029Z</time></trkpt><trkpt lat="42.83395797797198" lon="12.216946714996828"><ele>705.0</ele><time>2026-04-12T13:33:56.029Z</time></trkpt><trkpt lat="42.83400605278475" lon="12.217055690133412"><ele>705.0</ele><time>2026-04-12T13:33:57.029Z</time></trkpt><trkpt lat="42.83408328542534" lon="12.217140515440743"><ele>705.0</ele><time>2026-04-12T13:33:58.029Z</time></trkpt><trkpt lat="42.83412787481501" lon="12.217246687943849"><ele>705.0</ele><time>2026-04-12T13:33:59.03Z</time></trkpt><trkpt lat="42.83417710633487" lon="12.217350773546151"><ele>705.0</ele><time>2026-04-12T13:34:00.03Z</time></trkpt><trkpt lat="42.834222429595584" lon="12.217448106516674"><ele>705.0</ele><time>2026-04-12T13:34:01.029Z</time></trkpt><trkpt lat="42.83427122901781" lon="12.217541595569703"><ele>705.0</ele><time>2026-04-12T13:34:02.029Z</time></trkpt><trkpt lat="42.83431474735989" lon="12.217636287872304"><ele>704.6</ele><time>2026-04-12T13:34:03.029Z</time></trkpt><trkpt lat="42.834364024824545" lon="12.217733086544877"><ele>704.2</ele><time>2026-04-12T13:34:04.029Z</time></trkpt><trkpt lat="42.83441718713314" lon="12.217835716672358"><ele>703.8</ele><time>2026-04-12T13:34:05.029Z</time></trkpt><trkpt lat="42.83446394706656" lon="12.21795438880143"><ele>703.4</ele><time>2026-04-12T13:34:06.029Z</time></trkpt><trkpt lat="42.834501645397886" lon="12.218076883177378"><ele>703.0</ele><time>2026-04-12T13:34:07.029Z</time></trkpt><trkpt lat="42.83453895791244" lon="12.218199722746611"><ele>703.0</ele><time>2026-04-12T13:34:08.029Z</time></trkpt><trkpt lat="42.83458638951742" lon="12.218337502781342"><ele>703.0</ele><time>2026-04-12T13:34:09.029Z</time></trkpt><trkpt lat="42.8346444350328" lon="12.218500062876748"><ele>703.0</ele><time>2026-04-12T13:34:10.029Z</time></trkpt><trkpt lat="42.8347111519552" lon="12.218679813750027"><ele>703.0</ele><time>2026-04-12T13:34:11.029Z</time></trkpt><trkpt lat="42.83476814918529" lon="12.218847043514582"><ele>704.75</ele><time>2026-04-12T13:34:12.029Z</time></trkpt><trkpt lat="42.8348123975079" lon="12.219006243907371"><ele>706.5</ele><time>2026-04-12T13:34:13.029Z</time></trkpt><trkpt lat="42.83484555461554" lon="12.21915905387749"><ele>708.25</ele><time>2026-04-12T13:34:14.029Z</time></trkpt><trkpt lat="42.83485044766365" lon="12.219321472317786"><ele>710.0</ele><time>2026-04-12T13:34:15.029Z</time></trkpt><trkpt lat="42.8348360870424" lon="12.219478625949654"><ele>710.0</ele><time>2026-04-12T13:34:16.029Z</time></trkpt><trkpt lat="42.834833057763916" lon="12.219614778563571"><ele>710.0</ele><time>2026-04-12T13:34:17.029Z</time></trkpt><trkpt lat="42.83484467660254" lon="12.219741340000931"><ele>710.0</ele><time>2026-04-12T13:34:18.029Z</time></trkpt><trkpt lat="42.83489856075734" lon="12.219843514611199"><ele>710.0</ele><time>2026-04-12T13:34:19.029Z</time></trkpt><trkpt lat="42.834987550491746" lon="12.219913332264783"><ele>710.0</ele><time>2026-04-12T13:34:20.029Z</time></trkpt><trkpt lat="42.83509840114486" lon="12.219980058873729"><ele>708.6</ele><time>2026-04-12T13:34:21.029Z</time></trkpt><trkpt lat="42.835202252069955" lon="12.220051206702768"><ele>707.2</ele><time>2026-04-12T13:34:22.029Z</time></trkpt><trkpt lat="42.83529992332415" lon="12.220130890794161"><ele>705.8</ele><time>2026-04-12T13:34:23.029Z</time></trkpt><trkpt lat="42.835367213706334" lon="12.220230193196766"><ele>704.4</ele><time>2026-04-12T13:34:24.029Z</time></trkpt><trkpt lat="42.8354221464979" lon="12.220344566289535"><ele>703.0</ele><time>2026-04-12T13:34:25.029Z</time></trkpt><trkpt lat="42.83548054702841" lon="12.2204842660468"><ele>703.0</ele><time>2026-04-12T13:34:26.029Z</time></trkpt><trkpt lat="42.83553231224072" lon="12.220637868868119"><ele>703.0</ele><time>2026-04-12T13:34:27.029Z</time></trkpt><trkpt lat="42.83558114674325" lon="12.22081580455986"><ele>703.0</ele><time>2026-04-12T13:34:28.029Z</time></trkpt><trkpt lat="42.835633609827454" lon="12.22100342116421"><ele>703.0</ele><time>2026-04-12T13:34:29.029Z</time></trkpt><trkpt lat="42.835689207642716" lon="12.221179256452103"><ele>705.25</ele><time>2026-04-12T13:34:30.029Z</time></trkpt><trkpt lat="42.83575345466435" lon="12.221343274885998"><ele>707.5</ele><time>2026-04-12T13:34:31.029Z</time></trkpt><trkpt lat="42.83582348028883" lon="12.221491891773303"><ele>709.75</ele><time>2026-04-12T13:34:32.029Z</time></trkpt><trkpt lat="42.835899392091" lon="12.221621464056048"><ele>712.0</ele><time>2026-04-12T13:34:33.029Z</time></trkpt><trkpt lat="42.83598946990934" lon="12.221740040349745"><ele>712.0</ele><time>2026-04-12T13:34:34.029Z</time></trkpt><trkpt lat="42.83609564822433" lon="12.22183635705094"><ele>712.0</ele><time>2026-04-12T13:34:35.029Z</time></trkpt><trkpt lat="42.83619424743637" lon="12.221945974175165"><ele>712.0</ele><time>2026-04-12T13:34:36.029Z</time></trkpt><trkpt lat="42.83629319003419" lon="12.222063760455915"><ele>712.0</ele><time>2026-04-12T13:34:37.029Z</time></trkpt><trkpt lat="42.836392212639446" lon="12.222179380492554"><ele>712.0</ele><time>2026-04-12T13:34:38.029Z</time></trkpt><trkpt lat="42.83649132267109" lon="12.222296036559907"><ele>712.0</ele><time>2026-04-12T13:34:39.029Z</time></trkpt><trkpt lat="42.83659574333085" lon="12.222415640974528"><ele>712.0</ele><time>2026-04-12T13:34:40.029Z</time></trkpt><trkpt lat="42.83669206557536" lon="12.222534704012764"><ele>712.0</ele><time>2026-04-12T13:34:41.029Z</time></trkpt><trkpt lat="42.83679990762947" lon="12.222651713177074"><ele>714.0</ele><time>2026-04-12T13:34:42.029Z</time></trkpt><trkpt lat="42.8369113164772" lon="12.222764317978834"><ele>716.0</ele><time>2026-04-12T13:34:43.029Z</time></trkpt><trkpt lat="42.83702244941175" lon="12.222876017594762"><ele>718.0</ele><time>2026-04-12T13:34:44.029Z</time></trkpt><trkpt lat="42.837131958877144" lon="12.222991909802156"><ele>720.0</ele><time>2026-04-12T13:34:45.029Z</time></trkpt><trkpt lat="42.837243533210774" lon="12.2231141323232"><ele>721.0</ele><time>2026-04-12T13:34:46.029Z</time></trkpt><trkpt lat="42.83737090768779" lon="12.22323130470998"><ele>722.0</ele><time>2026-04-12T13:34:47.029Z</time></trkpt><trkpt lat="42.83751276164094" lon="12.223342396917387"><ele>723.0</ele><time>2026-04-12T13:34:48.029Z</time></trkpt><trkpt lat="42.83766366551928" lon="12.223450040507805"><ele>723.0</ele><time>2026-04-12T13:34:49.029Z</time></trkpt><trkpt lat="42.83781266362847" lon="12.223561454534858"><ele>723.0</ele><time>2026-04-12T13:34:50.029Z</time></trkpt><trkpt lat="42.837965940502194" lon="12.223656802045541"><ele>723.0</ele><time>2026-04-12T13:34:51.029Z</time></trkpt><trkpt lat="42.8381230546446" lon="12.223756439724855"><ele>723.0</ele><time>2026-04-12T13:34:52.029Z</time></trkpt><trkpt lat="42.83827523588039" lon="12.22386236773897"><ele>723.0</ele><time>2026-04-12T13:34:53.029Z</time></trkpt><trkpt lat="42.838427159829926" lon="12.223971969058615"><ele>723.0</ele><time>2026-04-12T13:34:54.029Z</time></trkpt><trkpt lat="42.83856896520176" lon="12.224098460971174"><ele>722.0</ele><time>2026-04-12T13:34:55.029Z</time></trkpt><trkpt lat="42.83871316429316" lon="12.224226771532601"><ele>721.0</ele><time>2026-04-12T13:34:56.029Z</time></trkpt><trkpt lat="42.83885157635359" lon="12.22434620091572"><ele>720.0</ele><time>2026-04-12T13:34:57.029Z</time></trkpt><trkpt lat="42.838985160569244" lon="12.224464663374418"><ele>720.0</ele><time>2026-04-12T13:34:58.029Z</time></trkpt><trkpt lat="42.83911282664522" lon="12.224580938506993"><ele>720.0</ele><time>2026-04-12T13:34:59.029Z</time></trkpt><trkpt lat="42.83923763723434" lon="12.224694872614858"><ele>720.0</ele><time>2026-04-12T13:35:00.029Z</time></trkpt><trkpt lat="42.839357877568375" lon="12.224783918214431"><ele>720.0</ele><time>2026-04-12T13:35:01.029Z</time></trkpt><trkpt lat="42.83947622037476" lon="12.224846033551435"><ele>720.5</ele><time>2026-04-12T13:35:02.029Z</time></trkpt><trkpt lat="42.839601422128545" lon="12.224873730755993"><ele>721.0</ele><time>2026-04-12T13:35:03.029Z</time></trkpt><trkpt lat="42.83973491155459" lon="12.22486208941333"><ele>721.5</ele><time>2026-04-12T13:35:04.029Z</time></trkpt><trkpt lat="42.83987896461595" lon="12.224820908054518"><ele>722.0</ele><time>2026-04-12T13:35:05.029Z</time></trkpt><trkpt lat="42.84000325807929" lon="12.224755096232425"><ele>722.0</ele><time>2026-04-12T13:35:06.029Z</time></trkpt><trkpt lat="42.84010610097418" lon="12.2246609064251"><ele>722.0</ele><time>2026-04-12T13:35:07.029Z</time></trkpt><trkpt lat="42.84020480768754" lon="12.224543220576171"><ele>722.0</ele><time>2026-04-12T13:35:08.029Z</time></trkpt><trkpt lat="42.840297212662875" lon="12.224388185017402"><ele>722.0</ele><time>2026-04-12T13:35:09.029Z</time></trkpt><trkpt lat="42.84038877373497" lon="12.224245822176025"><ele>721.75</ele><time>2026-04-12T13:35:10.029Z</time></trkpt><trkpt lat="42.84047927390579" lon="12.22410679863803"><ele>721.5</ele><time>2026-04-12T13:35:11.029Z</time></trkpt><trkpt lat="42.840578351326" lon="12.223985426059299"><ele>721.25</ele><time>2026-04-12T13:35:12.029Z</time></trkpt><trkpt lat="42.840690569547945" lon="12.223881439419232"><ele>721.0</ele><time>2026-04-12T13:35:13.028Z</time></trkpt><trkpt lat="42.84079674418336" lon="12.22379697837518"><ele>719.5999999999999</ele><time>2026-04-12T13:35:14.028Z</time></trkpt><trkpt lat="42.84089209742177" lon="12.22373156218975"><ele>718.2</ele><time>2026-04-12T13:35:15.028Z</time></trkpt><trkpt lat="42.8409920143203" lon="12.223661383713758"><ele>716.8</ele><time>2026-04-12T13:35:16.028Z</time></trkpt><trkpt lat="42.84108597334286" lon="12.22359004492648"><ele>715.4000000000001</ele><time>2026-04-12T13:35:17.028Z</time></trkpt><trkpt lat="42.841178350327105" lon="12.223521978469128"><ele>714.0</ele><time>2026-04-12T13:35:18.028Z</time></trkpt><trkpt lat="42.84126694863939" lon="12.223462144834409"><ele>714.0</ele><time>2026-04-12T13:35:19.028Z</time></trkpt><trkpt lat="42.84136258255968" lon="12.22341137595202"><ele>714.0</ele><time>2026-04-12T13:35:20.028Z</time></trkpt><trkpt lat="42.84146220668429" lon="12.22338458014633"><ele>714.0</ele><time>2026-04-12T13:35:21.028Z</time></trkpt><trkpt lat="42.84156244058657" lon="12.22339331682974"><ele>714.0</ele><time>2026-04-12T13:35:22.028Z</time></trkpt><trkpt lat="42.84166654863825" lon="12.22343244780768"><ele>714.0</ele><time>2026-04-12T13:35:23.028Z</time></trkpt><trkpt lat="42.841771576422175" lon="12.223492504828794"><ele>711.25</ele><time>2026-04-12T13:35:24.028Z</time></trkpt><trkpt lat="42.84187052736757" lon="12.223578339793965"><ele>708.5</ele><time>2026-04-12T13:35:25.028Z</time></trkpt><trkpt lat="42.84197441843694" lon="12.223681797038639"><ele>705.75</ele><time>2026-04-12T13:35:26.028Z</time></trkpt><trkpt lat="42.842082887241" lon="12.223790023183051"><ele>703.0</ele><time>2026-04-12T13:35:27.028Z</time></trkpt><trkpt lat="42.84220850416631" lon="12.223889867485706"><ele>703.0</ele><time>2026-04-12T13:35:28.028Z</time></trkpt><trkpt lat="42.84233823733585" lon="12.223978124227513"><ele>703.0</ele><time>2026-04-12T13:35:29.028Z</time></trkpt><trkpt lat="42.84247085322538" lon="12.224059793880134"><ele>703.0</ele><time>2026-04-12T13:35:30.028Z</time></trkpt><trkpt lat="42.842591680956154" lon="12.224133116375373"><ele>703.0</ele><time>2026-04-12T13:35:31.028Z</time></trkpt><trkpt lat="42.84271005562519" lon="12.224203225688866"><ele>704.0</ele><time>2026-04-12T13:35:32.028Z</time></trkpt><trkpt lat="42.84282307225426" lon="12.224255361728524"><ele>705.0</ele><time>2026-04-12T13:35:33.028Z</time></trkpt><trkpt lat="42.84292975583614" lon="12.224274030185825"><ele>706.0</ele><time>2026-04-12T13:35:34.028Z</time></trkpt><trkpt lat="42.843034940202415" lon="12.224245704117449"><ele>707.0</ele><time>2026-04-12T13:35:35.028Z</time></trkpt><trkpt lat="42.84314100045752" lon="12.224172923010178"><ele>707.0</ele><time>2026-04-12T13:35:36.028Z</time></trkpt><trkpt lat="42.84323675641195" lon="12.224057866184594"><ele>707.0</ele><time>2026-04-12T13:35:37.028Z</time></trkpt><trkpt lat="42.84332256476043" lon="12.223919089849101"><ele>707.0</ele><time>2026-04-12T13:35:38.028Z</time></trkpt><trkpt lat="42.843412728021654" lon="12.223777474470253"><ele>707.0</ele><time>2026-04-12T13:35:39.028Z</time></trkpt><trkpt lat="42.84350857646662" lon="12.223636670545762"><ele>707.75</ele><time>2026-04-12T13:35:40.028Z</time></trkpt><trkpt lat="42.843606249450765" lon="12.223499629841204"><ele>708.5</ele><time>2026-04-12T13:35:41.028Z</time></trkpt><trkpt lat="42.84369859740155" lon="12.223375111822849"><ele>709.25</ele><time>2026-04-12T13:35:42.028Z</time></trkpt><trkpt lat="42.84380563080014" lon="12.223274963163696"><ele>710.0</ele><time>2026-04-12T13:35:43.028Z</time></trkpt><trkpt lat="42.84391401836813" lon="12.223198549253095"><ele>710.0</ele><time>2026-04-12T13:35:44.028Z</time></trkpt><trkpt lat="42.844020828533715" lon="12.22315421427805"><ele>710.0</ele><time>2026-04-12T13:35:45.028Z</time></trkpt><trkpt lat="42.84409882595239" lon="12.223154049694994"><ele>710.0</ele><time>2026-04-12T13:35:46.028Z</time></trkpt><trkpt lat="42.844168766932476" lon="12.2231941433211"><ele>710.0</ele><time>2026-04-12T13:35:47.028Z</time></trkpt><trkpt lat="42.844237900524284" lon="12.223265752348325"><ele>710.0</ele><time>2026-04-12T13:35:48.028Z</time></trkpt><trkpt lat="42.84431185669893" lon="12.223352013751326"><ele>712.5</ele><time>2026-04-12T13:35:49.028Z</time></trkpt><trkpt lat="42.844386905296844" lon="12.223450419451467"><ele>715.0</ele><time>2026-04-12T13:35:50.028Z</time></trkpt><trkpt lat="42.84446563348754" lon="12.223563317233214"><ele>717.5</ele><time>2026-04-12T13:35:51.028Z</time></trkpt><trkpt lat="42.84455342697652" lon="12.223674071725199"><ele>720.0</ele><time>2026-04-12T13:35:52.03Z</time></trkpt><trkpt lat="42.844648066542085" lon="12.22376769685722"><ele>720.0</ele><time>2026-04-12T13:35:53.03Z</time></trkpt><trkpt lat="42.844741763498206" lon="12.223826800524417"><ele>720.0</ele><time>2026-04-12T13:35:54.03Z</time></trkpt><trkpt lat="42.84483397555396" lon="12.22384949842866"><ele>720.0</ele><time>2026-04-12T13:35:55.03Z</time></trkpt><trkpt lat="42.84491894962889" lon="12.223833242177147"><ele>720.0</ele><time>2026-04-12T13:35:56.03Z</time></trkpt><trkpt lat="42.8449799937303" lon="12.223767507006944"><ele>720.0</ele><time>2026-04-12T13:35:57.03Z</time></trkpt><trkpt lat="42.84501714781381" lon="12.223664984180376"><ele>720.0</ele><time>2026-04-12T13:35:58.03Z</time></trkpt><trkpt lat="42.84502199817401" lon="12.223527910342558"><ele>720.0</ele><time>2026-04-12T13:35:59.031Z</time></trkpt><trkpt lat="42.845000503894006" lon="12.223371661807672"><ele>720.0</ele><time>2026-04-12T13:36:00.031Z</time></trkpt><trkpt lat="42.84497386059466" lon="12.223210204272101"><ele>720.0</ele><time>2026-04-12T13:36:01.03Z</time></trkpt><trkpt lat="42.84493994215937" lon="12.223053546269158"><ele>720.0</ele><time>2026-04-12T13:36:02.03Z</time></trkpt><trkpt lat="42.84491939784404" lon="12.222895794411741"><ele>718.6</ele><time>2026-04-12T13:36:03.03Z</time></trkpt><trkpt lat="42.8449154914483" lon="12.22274001702237"><ele>717.2</ele><time>2026-04-12T13:36:04.03Z</time></trkpt><trkpt lat="42.84493395972661" lon="12.222586232943707"><ele>715.8</ele><time>2026-04-12T13:36:05.03Z</time></trkpt><trkpt lat="42.844962335378085" lon="12.222481126138835"><ele>714.4</ele><time>2026-04-12T13:36:06.03Z</time></trkpt><trkpt lat="42.845022617254635" lon="12.222400443643552"><ele>713.0</ele><time>2026-04-12T13:36:07.03Z</time></trkpt><trkpt lat="42.84510590257871" lon="12.222364862196514"><ele>712.75</ele><time>2026-04-12T13:36:08.03Z</time></trkpt><trkpt lat="42.84520971188523" lon="12.222373199509642"><ele>712.5</ele><time>2026-04-12T13:36:09.03Z</time></trkpt><trkpt lat="42.845321906771055" lon="12.222415356437295"><ele>712.25</ele><time>2026-04-12T13:36:10.03Z</time></trkpt><trkpt lat="42.845439020078864" lon="12.222487407794508"><ele>712.0</ele><time>2026-04-12T13:36:11.03Z</time></trkpt><trkpt lat="42.84554771200929" lon="12.222597110415"><ele>712.0</ele><time>2026-04-12T13:36:12.03Z</time></trkpt><trkpt lat="42.84565052476471" lon="12.22273569566907"><ele>712.0</ele><time>2026-04-12T13:36:13.03Z</time></trkpt><trkpt lat="42.84574304212395" lon="12.222875788471706"><ele>712.0</ele><time>2026-04-12T13:36:14.03Z</time></trkpt><trkpt lat="42.84584324698621" lon="12.222985613421137"><ele>712.0</ele><time>2026-04-12T13:36:15.03Z</time></trkpt><trkpt lat="42.84597633057261" lon="12.22306691971753"><ele>713.5</ele><time>2026-04-12T13:36:16.03Z</time></trkpt><trkpt lat="42.84612058006061" lon="12.223101241845816"><ele>715.0</ele><time>2026-04-12T13:36:17.03Z</time></trkpt><trkpt lat="42.84625203216832" lon="12.223105012367162"><ele>716.5</ele><time>2026-04-12T13:36:18.03Z</time></trkpt><trkpt lat="42.84636880886329" lon="12.223065657557115"><ele>718.0</ele><time>2026-04-12T13:36:19.03Z</time></trkpt><trkpt lat="42.84648195936493" lon="12.2229968328572"><ele>718.0</ele><time>2026-04-12T13:36:20.03Z</time></trkpt><trkpt lat="42.84657377283846" lon="12.222888825910415"><ele>718.0</ele><time>2026-04-12T13:36:21.03Z</time></trkpt><trkpt lat="42.84663770937121" lon="12.2227499769223"><ele>718.0</ele><time>2026-04-12T13:36:22.03Z</time></trkpt><trkpt lat="42.84666757639987" lon="12.222600369942239"><ele>718.0</ele><time>2026-04-12T13:36:23.03Z</time></trkpt><trkpt lat="42.84664966702518" lon="12.222448525934004"><ele>717.25</ele><time>2026-04-12T13:36:24.03Z</time></trkpt><trkpt lat="42.846602722967894" lon="12.222307025173908"><ele>716.5</ele><time>2026-04-12T13:36:25.03Z</time></trkpt><trkpt lat="42.846530052158556" lon="12.222164659238343"><ele>715.75</ele><time>2026-04-12T13:36:26.03Z</time></trkpt><trkpt lat="42.84646448299363" lon="12.22200808407298"><ele>715.0</ele><time>2026-04-12T13:36:27.03Z</time></trkpt><trkpt lat="42.84641360253276" lon="12.221864383184716"><ele>715.0</ele><time>2026-04-12T13:36:28.03Z</time></trkpt><trkpt lat="42.84638182494232" lon="12.221727184749726"><ele>715.0</ele><time>2026-04-12T13:36:29.03Z</time></trkpt><trkpt lat="42.84637769547145" lon="12.221582216892463"><ele>715.0</ele><time>2026-04-12T13:36:30.03Z</time></trkpt><trkpt lat="42.8463984606211" lon="12.221456225947545"><ele>715.0</ele><time>2026-04-12T13:36:31.03Z</time></trkpt><trkpt lat="42.8464514516042" lon="12.221366710968278"><ele>715.0</ele><time>2026-04-12T13:36:32.03Z</time></trkpt><trkpt lat="42.84653102323018" lon="12.221311381290821"><ele>713.0</ele><time>2026-04-12T13:36:33.03Z</time></trkpt><trkpt lat="42.84662301532913" lon="12.221307152278738"><ele>711.0</ele><time>2026-04-12T13:36:34.03Z</time></trkpt><trkpt lat="42.846730399507095" lon="12.221334738469439"><ele>709.0</ele><time>2026-04-12T13:36:35.03Z</time></trkpt><trkpt lat="42.846864234594634" lon="12.221395593639905"><ele>707.0</ele><time>2026-04-12T13:36:36.03Z</time></trkpt><trkpt lat="42.84702397531716" lon="12.221452136015275"><ele>707.0</ele><time>2026-04-12T13:36:37.03Z</time></trkpt><trkpt lat="42.847225185364685" lon="12.221479390862214"><ele>707.0</ele><time>2026-04-12T13:36:38.03Z</time></trkpt><trkpt lat="42.84746247652853" lon="12.221501361829855"><ele>707.0</ele><time>2026-04-12T13:36:39.03Z</time></trkpt><trkpt lat="42.84769429143241" lon="12.221521469014382"><ele>708.0</ele><time>2026-04-12T13:36:40.03Z</time></trkpt><trkpt lat="42.847908891928746" lon="12.221548593575125"><ele>709.0</ele><time>2026-04-12T13:36:41.03Z</time></trkpt><trkpt lat="42.84809341674899" lon="12.221571304939081"><ele>710.0</ele><time>2026-04-12T13:36:42.03Z</time></trkpt><trkpt lat="42.848268540323176" lon="12.221591283412446"><ele>710.0</ele><time>2026-04-12T13:36:43.03Z</time></trkpt><trkpt lat="42.848438587625026" lon="12.221588536190326"><ele>710.0</ele><time>2026-04-12T13:36:44.03Z</time></trkpt><trkpt lat="42.84860580987047" lon="12.221551866520652"><ele>710.0</ele><time>2026-04-12T13:36:45.03Z</time></trkpt><trkpt lat="42.84877462497878" lon="12.221483058179775"><ele>710.6666666666666</ele><time>2026-04-12T13:36:46.03Z</time></trkpt><trkpt lat="42.84893898680083" lon="12.221403994228156"><ele>711.3333333333334</ele><time>2026-04-12T13:36:47.03Z</time></trkpt><trkpt lat="42.84909814831033" lon="12.221328587436286"><ele>712.0</ele><time>2026-04-12T13:36:48.03Z</time></trkpt><trkpt lat="42.84926113487846" lon="12.221257528458054"><ele>711.6666666666667</ele><time>2026-04-12T13:36:49.03Z</time></trkpt><trkpt lat="42.84942777517383" lon="12.22119944267555"><ele>711.3333333333334</ele><time>2026-04-12T13:36:50.03Z</time></trkpt><trkpt lat="42.849592912459116" lon="12.221143998928506"><ele>711.0</ele><time>2026-04-12T13:36:51.03Z</time></trkpt><trkpt lat="42.84976378289749" lon="12.221083336338873"><ele>711.0</ele><time>2026-04-12T13:36:52.03Z</time></trkpt><trkpt lat="42.849933292087705" lon="12.221014960386414"><ele>711.0</ele><time>2026-04-12T13:36:53.03Z</time></trkpt><trkpt lat="42.85010193999709" lon="12.220945381167747"><ele>711.0</ele><time>2026-04-12T13:36:54.03Z</time></trkpt><trkpt lat="42.850259679343914" lon="12.220879572637966"><ele>709.3333333333334</ele><time>2026-04-12T13:36:55.03Z</time></trkpt><trkpt lat="42.85041499880905" lon="12.220805972097482"><ele>707.6666666666667</ele><time>2026-04-12T13:36:56.03Z</time></trkpt><trkpt lat="42.85055972201226" lon="12.220716888411685"><ele>706.0</ele><time>2026-04-12T13:36:57.03Z</time></trkpt><trkpt lat="42.85069062344893" lon="12.220601188790631"><ele>705.75</ele><time>2026-04-12T13:36:58.03Z</time></trkpt><trkpt lat="42.85079808622814" lon="12.220466038355932"><ele>705.5</ele><time>2026-04-12T13:36:59.03Z</time></trkpt><trkpt lat="42.850873007450524" lon="12.220330412992846"><ele>705.25</ele><time>2026-04-12T13:37:00.03Z</time></trkpt><trkpt lat="42.85091482357266" lon="12.220172198670754"><ele>705.0</ele><time>2026-04-12T13:37:01.03Z</time></trkpt><trkpt lat="42.85092173855357" lon="12.220002288109727"><ele>705.0</ele><time>2026-04-12T13:37:02.03Z</time></trkpt><trkpt lat="42.85090333100254" lon="12.219818029744479"><ele>705.0</ele><time>2026-04-12T13:37:03.029Z</time></trkpt><trkpt lat="42.85088532532874" lon="12.219623397228752"><ele>705.0</ele><time>2026-04-12T13:37:04.029Z</time></trkpt><trkpt lat="42.850874475034956" lon="12.219445438286648"><ele>705.0</ele><time>2026-04-12T13:37:05.029Z</time></trkpt><trkpt lat="42.850883864659046" lon="12.219285239997449"><ele>704.8</ele><time>2026-04-12T13:37:06.029Z</time></trkpt><trkpt lat="42.85092367948214" lon="12.219144821579638"><ele>704.6</ele><time>2026-04-12T13:37:07.029Z</time></trkpt><trkpt lat="42.85099171210926" lon="12.219032581390536"><ele>704.4000000000001</ele><time>2026-04-12T13:37:08.029Z</time></trkpt><trkpt lat="42.85108409714538" lon="12.218975457147913"><ele>704.2</ele><time>2026-04-12T13:37:09.029Z</time></trkpt><trkpt lat="42.85118869665524" lon="12.218971457064084"><ele>704.0</ele><time>2026-04-12T13:37:10.029Z</time></trkpt><trkpt lat="42.85131219878408" lon="12.218990578545379"><ele>707.3333333333333</ele><time>2026-04-12T13:37:11.029Z</time></trkpt><trkpt lat="42.85144597860296" lon="12.219019352215065"><ele>710.6666666666666</ele><time>2026-04-12T13:37:12.029Z</time></trkpt><trkpt lat="42.85158957555412" lon="12.219049705080195"><ele>714.0</ele><time>2026-04-12T13:37:13.029Z</time></trkpt><trkpt lat="42.85176301766923" lon="12.219085727167005"><ele>713.3333333333334</ele><time>2026-04-12T13:37:14.029Z</time></trkpt><trkpt lat="42.851933036486514" lon="12.21913154387223"><ele>712.6666666666667</ele><time>2026-04-12T13:37:15.029Z</time></trkpt><trkpt lat="42.85210226504082" lon="12.219173513814644"><ele>712.0</ele><time>2026-04-12T13:37:16.029Z</time></trkpt><trkpt lat="42.852263503327464" lon="12.219205857181569"><ele>712.0</ele><time>2026-04-12T13:37:17.029Z</time></trkpt><trkpt lat="42.85242335247117" lon="12.219241964069088"><ele>712.0</ele><time>2026-04-12T13:37:18.029Z</time></trkpt><trkpt lat="42.852567302132094" lon="12.219254193309695"><ele>712.0</ele><time>2026-04-12T13:37:19.029Z</time></trkpt><trkpt lat="42.852706032897885" lon="12.219278020854496"><ele>712.0</ele><time>2026-04-12T13:37:20.029Z</time></trkpt><trkpt lat="42.852841741063855" lon="12.219317541133746"><ele>710.5</ele><time>2026-04-12T13:37:21.029Z</time></trkpt><trkpt lat="42.85298747672565" lon="12.21935061259935"><ele>709.0</ele><time>2026-04-12T13:37:22.029Z</time></trkpt><trkpt lat="42.853138243337696" lon="12.219367370753828"><ele>707.5</ele><time>2026-04-12T13:37:23.029Z</time></trkpt><trkpt lat="42.85327877162847" lon="12.219394542423116"><ele>706.0</ele><time>2026-04-12T13:37:24.029Z</time></trkpt><trkpt lat="42.85340518837515" lon="12.219417570032235"><ele>705.0</ele><time>2026-04-12T13:37:25.029Z</time></trkpt><trkpt lat="42.85353925955053" lon="12.21943173574603"><ele>704.0</ele><time>2026-04-12T13:37:26.029Z</time></trkpt><trkpt lat="42.85367526734008" lon="12.219450268914237"><ele>703.0</ele><time>2026-04-12T13:37:27.029Z</time></trkpt><trkpt lat="42.85379378232383" lon="12.219486407569093"><ele>702.0</ele><time>2026-04-12T13:37:28.029Z</time></trkpt><trkpt lat="42.85388964277853" lon="12.219551659994213"><ele>702.0</ele><time>2026-04-12T13:37:29.029Z</time></trkpt><trkpt lat="42.8539758704556" lon="12.219656804434942"><ele>702.0</ele><time>2026-04-12T13:37:30.029Z</time></trkpt><trkpt lat="42.85403519819734" lon="12.219789223583224"><ele>702.0</ele><time>2026-04-12T13:37:31.029Z</time></trkpt><trkpt lat="42.85410284392382" lon="12.219922678929137"><ele>702.0</ele><time>2026-04-12T13:37:32.029Z</time></trkpt><trkpt lat="42.85418932657506" lon="12.220034812099204"><ele>702.5</ele><time>2026-04-12T13:37:33.029Z</time></trkpt><trkpt lat="42.85429282735148" lon="12.2201181337005"><ele>703.0</ele><time>2026-04-12T13:37:34.029Z</time></trkpt><trkpt lat="42.85441298663643" lon="12.220172209861907"><ele>703.5</ele><time>2026-04-12T13:37:35.029Z</time></trkpt><trkpt lat="42.85454073838984" lon="12.220185598311168"><ele>704.0</ele><time>2026-04-12T13:37:36.029Z</time></trkpt><trkpt lat="42.85466295834853" lon="12.220156105399365"><ele>704.0</ele><time>2026-04-12T13:37:37.029Z</time></trkpt><trkpt lat="42.85477055414886" lon="12.220082129820923"><ele>704.0</ele><time>2026-04-12T13:37:38.029Z</time></trkpt><trkpt lat="42.85486873744462" lon="12.219963681717548"><ele>704.0</ele><time>2026-04-12T13:37:39.029Z</time></trkpt><trkpt lat="42.854956414357915" lon="12.219840988939515"><ele>704.0</ele><time>2026-04-12T13:37:40.029Z</time></trkpt><trkpt lat="42.85506587895628" lon="12.219734093128476"><ele>699.75</ele><time>2026-04-12T13:37:41.029Z</time></trkpt><trkpt lat="42.85519629727669" lon="12.219648655944635"><ele>695.5</ele><time>2026-04-12T13:37:42.029Z</time></trkpt><trkpt lat="42.85533194710082" lon="12.219597198832778"><ele>691.25</ele><time>2026-04-12T13:37:43.029Z</time></trkpt><trkpt lat="42.85548150991713" lon="12.219579781017764"><ele>687.0</ele><time>2026-04-12T13:37:44.029Z</time></trkpt><trkpt lat="42.855637997317864" lon="12.219594944840242"><ele>687.0</ele><time>2026-04-12T13:37:45.029Z</time></trkpt><trkpt lat="42.85578899006046" lon="12.219624267015826"><ele>687.0</ele><time>2026-04-12T13:37:46.029Z</time></trkpt><trkpt lat="42.85592387204646" lon="12.219661033817534"><ele>687.0</ele><time>2026-04-12T13:37:47.029Z</time></trkpt><trkpt lat="42.856041929058605" lon="12.219712932758187"><ele>687.0</ele><time>2026-04-12T13:37:48.029Z</time></trkpt><trkpt lat="42.856141251131966" lon="12.219813411814794"><ele>687.0</ele><time>2026-04-12T13:37:49.029Z</time></trkpt><trkpt lat="42.85621197888201" lon="12.219940099387573"><ele>687.0</ele><time>2026-04-12T13:37:50.029Z</time></trkpt><trkpt lat="42.85626045071762" lon="12.220096884896051"><ele>687.0</ele><time>2026-04-12T13:37:51.029Z</time></trkpt><trkpt lat="42.85629843317544" lon="12.22027129907536"><ele>687.0</ele><time>2026-04-12T13:37:52.029Z</time></trkpt><trkpt lat="42.85633021609423" lon="12.220437778804836"><ele>687.0</ele><time>2026-04-12T13:37:53.029Z</time></trkpt><trkpt lat="42.85637954458277" lon="12.22058578389944"><ele>687.0</ele><time>2026-04-12T13:37:54.029Z</time></trkpt><trkpt lat="42.85645325738372" lon="12.220702265181503"><ele>687.0</ele><time>2026-04-12T13:37:55.029Z</time></trkpt><trkpt lat="42.856547052589136" lon="12.220772647001287"><ele>687.0</ele><time>2026-04-12T13:37:56.029Z</time></trkpt><trkpt lat="42.85664886828914" lon="12.22079851029447"><ele>687.0</ele><time>2026-04-12T13:37:57.029Z</time></trkpt><trkpt lat="42.856760878749384" lon="12.220771208391985"><ele>687.25</ele><time>2026-04-12T13:37:58.031Z</time></trkpt><trkpt lat="42.85683987799803" lon="12.220696503744929"><ele>687.5</ele><time>2026-04-12T13:37:59.031Z</time></trkpt><trkpt lat="42.85689894381036" lon="12.220569482069896"><ele>687.75</ele><time>2026-04-12T13:38:00.031Z</time></trkpt><trkpt lat="42.856951309892615" lon="12.22042151431726"><ele>688.0</ele><time>2026-04-12T13:38:01.031Z</time></trkpt><trkpt lat="42.8570074334728" lon="12.220269745432168"><ele>688.0</ele><time>2026-04-12T13:38:02.032Z</time></trkpt><trkpt lat="42.85707447870892" lon="12.220133949877141"><ele>688.0</ele><time>2026-04-12T13:38:03.031Z</time></trkpt><trkpt lat="42.85715713951045" lon="12.220027906825042"><ele>688.0</ele><time>2026-04-12T13:38:04.031Z</time></trkpt><trkpt lat="42.85726712581896" lon="12.219953844826792"><ele>688.0</ele><time>2026-04-12T13:38:05.031Z</time></trkpt><trkpt lat="42.85738075188859" lon="12.219922870556115"><ele>688.0</ele><time>2026-04-12T13:38:06.031Z</time></trkpt><trkpt lat="42.857482150902136" lon="12.219950658751596"><ele>688.0</ele><time>2026-04-12T13:38:07.031Z</time></trkpt><trkpt lat="42.85756366737296" lon="12.220028017277876"><ele>688.0</ele><time>2026-04-12T13:38:08.031Z</time></trkpt><trkpt lat="42.85759872045849" lon="12.220134092397272"><ele>688.0</ele><time>2026-04-12T13:38:09.031Z</time></trkpt><trkpt lat="42.85760715307543" lon="12.220251933783718"><ele>688.0</ele><time>2026-04-12T13:38:10.031Z</time></trkpt><trkpt lat="42.857597171209115" lon="12.220385068426149"><ele>688.0</ele><time>2026-04-12T13:38:11.031Z</time></trkpt><trkpt lat="42.85758144082445" lon="12.220523366178393"><ele>688.0</ele><time>2026-04-12T13:38:12.031Z</time></trkpt><trkpt lat="42.857566147672756" lon="12.22067730161857"><ele>688.0</ele><time>2026-04-12T13:38:13.031Z</time></trkpt><trkpt lat="42.85753910052222" lon="12.22084684370023"><ele>688.0</ele><time>2026-04-12T13:38:14.031Z</time></trkpt><trkpt lat="42.85750922450347" lon="12.221038005420496"><ele>688.3333333333334</ele><time>2026-04-12T13:38:15.031Z</time></trkpt><trkpt lat="42.857475142596044" lon="12.22125728379585"><ele>688.6666666666666</ele><time>2026-04-12T13:38:16.031Z</time></trkpt><trkpt lat="42.85744184035924" lon="12.221482734668186"><ele>689.0</ele><time>2026-04-12T13:38:17.031Z</time></trkpt><trkpt lat="42.85740064595639" lon="12.221688059919419"><ele>687.0</ele><time>2026-04-12T13:38:18.031Z</time></trkpt><trkpt lat="42.85735977487331" lon="12.221873620058068"><ele>685.0</ele><time>2026-04-12T13:38:19.031Z</time></trkpt><trkpt lat="42.85732774797986" lon="12.222042170695149"><ele>683.0</ele><time>2026-04-12T13:38:20.031Z</time></trkpt><trkpt lat="42.85730543696349" lon="12.222198136789821"><ele>681.0</ele><time>2026-04-12T13:38:21.031Z</time></trkpt><trkpt lat="42.857307897266864" lon="12.222329258649188"><ele>681.0</ele><time>2026-04-12T13:38:22.031Z</time></trkpt><trkpt lat="42.85734978183789" lon="12.222438799750078"><ele>681.0</ele><time>2026-04-12T13:38:23.031Z</time></trkpt><trkpt lat="42.857409681725166" lon="12.222478215411085"><ele>681.0</ele><time>2026-04-12T13:38:24.031Z</time></trkpt><trkpt lat="42.85748469355037" lon="12.22246062362852"><ele>681.0</ele><time>2026-04-12T13:38:25.031Z</time></trkpt><trkpt lat="42.85754215671847" lon="12.222356557309721"><ele>681.0</ele><time>2026-04-12T13:38:26.031Z</time></trkpt><trkpt lat="42.85756948859423" lon="12.222227936496164"><ele>681.0</ele><time>2026-04-12T13:38:27.031Z</time></trkpt><trkpt lat="42.85758301103427" lon="12.222059434951047"><ele>681.0</ele><time>2026-04-12T13:38:28.031Z</time></trkpt><trkpt lat="42.857607175403075" lon="12.221876025298618"><ele>681.0</ele><time>2026-04-12T13:38:29.031Z</time></trkpt><trkpt lat="42.85765261641868" lon="12.221699589965763"><ele>681.0</ele><time>2026-04-12T13:38:30.031Z</time></trkpt><trkpt lat="42.85771108201463" lon="12.221516301419857"><ele>681.0</ele><time>2026-04-12T13:38:31.03Z</time></trkpt><trkpt lat="42.85778407418241" lon="12.221353419069379"><ele>681.8</ele><time>2026-04-12T13:38:32.03Z</time></trkpt><trkpt lat="42.85786705238857" lon="12.221235361782442"><ele>682.5999999999999</ele><time>2026-04-12T13:38:33.03Z</time></trkpt><trkpt lat="42.857956945111795" lon="12.221164447951036"><ele>683.4</ele><time>2026-04-12T13:38:34.03Z</time></trkpt><trkpt lat="42.858033583837845" lon="12.221158195637448"><ele>684.2</ele><time>2026-04-12T13:38:35.03Z</time></trkpt><trkpt lat="42.858116748004086" lon="12.221216796525413"><ele>685.0</ele><time>2026-04-12T13:38:36.03Z</time></trkpt><trkpt lat="42.8582018829902" lon="12.221325024183576"><ele>685.0</ele><time>2026-04-12T13:38:37.03Z</time></trkpt><trkpt lat="42.85829594733842" lon="12.221452224845207"><ele>685.0</ele><time>2026-04-12T13:38:38.03Z</time></trkpt><trkpt lat="42.858400962590146" lon="12.221565231755678"><ele>685.0</ele><time>2026-04-12T13:38:39.03Z</time></trkpt><trkpt lat="42.85850058794338" lon="12.221697509903814"><ele>685.0</ele><time>2026-04-12T13:38:40.03Z</time></trkpt><trkpt lat="42.85860250665918" lon="12.221828085007747"><ele>682.2</ele><time>2026-04-12T13:38:41.03Z</time></trkpt><trkpt lat="42.85869470683737" lon="12.221904052525177"><ele>679.4</ele><time>2026-04-12T13:38:42.03Z</time></trkpt><trkpt lat="42.858782232477736" lon="12.221965111595084"><ele>676.5999999999999</ele><time>2026-04-12T13:38:43.03Z</time></trkpt><trkpt lat="42.85886732792839" lon="12.221988941291299"><ele>673.8</ele><time>2026-04-12T13:38:44.03Z</time></trkpt><trkpt lat="42.85895050959134" lon="12.221942407612758"><ele>671.0</ele><time>2026-04-12T13:38:45.03Z</time></trkpt><trkpt lat="42.859020914443924" lon="12.221857874649995"><ele>671.0</ele><time>2026-04-12T13:38:46.03Z</time></trkpt><trkpt lat="42.859093817016046" lon="12.22176690312501"><ele>671.0</ele><time>2026-04-12T13:38:47.03Z</time></trkpt><trkpt lat="42.85918272145678" lon="12.22170540848606"><ele>671.0</ele><time>2026-04-12T13:38:48.03Z</time></trkpt><trkpt lat="42.859274613948415" lon="12.221707628875839"><ele>671.0</ele><time>2026-04-12T13:38:49.03Z</time></trkpt><trkpt lat="42.85934636901484" lon="12.22177115370479"><ele>671.0</ele><time>2026-04-12T13:38:50.03Z</time></trkpt><trkpt lat="42.85940275538923" lon="12.22188570076622"><ele>672.0</ele><time>2026-04-12T13:38:51.03Z</time></trkpt><trkpt lat="42.859443008487716" lon="12.222024347722204"><ele>673.0</ele><time>2026-04-12T13:38:52.03Z</time></trkpt><trkpt lat="42.859502387805996" lon="12.222169314019162"><ele>674.0</ele><time>2026-04-12T13:38:53.03Z</time></trkpt><trkpt lat="42.85957862650662" lon="12.222301838624519"><ele>675.0</ele><time>2026-04-12T13:38:54.03Z</time></trkpt><trkpt lat="42.85968238740344" lon="12.222404394909326"><ele>671.0</ele><time>2026-04-12T13:38:55.03Z</time></trkpt><trkpt lat="42.859816734699905" lon="12.222469698750503"><ele>667.0</ele><time>2026-04-12T13:38:56.03Z</time></trkpt><trkpt lat="42.859969065918065" lon="12.222516657032852"><ele>663.0</ele><time>2026-04-12T13:38:57.03Z</time></trkpt><trkpt lat="42.86012302839755" lon="12.222557735933872"><ele>663.0</ele><time>2026-04-12T13:38:58.03Z</time></trkpt><trkpt lat="42.86027298541336" lon="12.22257119719728"><ele>663.0</ele><time>2026-04-12T13:38:59.03Z</time></trkpt><trkpt lat="42.86044515660467" lon="12.222560136316233"><ele>663.0</ele><time>2026-04-12T13:39:00.03Z</time></trkpt><trkpt lat="42.860607327703576" lon="12.22255687044795"><ele>663.0</ele><time>2026-04-12T13:39:01.03Z</time></trkpt><trkpt lat="42.86076082207538" lon="12.222577030046605"><ele>663.0</ele><time>2026-04-12T13:39:02.03Z</time></trkpt><trkpt lat="42.86087450171927" lon="12.22265949315277"><ele>663.0</ele><time>2026-04-12T13:39:03.03Z</time></trkpt><trkpt lat="42.86100242212675" lon="12.222770745690251"><ele>663.0</ele><time>2026-04-12T13:39:04.03Z</time></trkpt><trkpt lat="42.86105608259988" lon="12.222921382144861"><ele>660.75</ele><time>2026-04-12T13:39:05.03Z</time></trkpt><trkpt lat="42.861124652908366" lon="12.223076196218438"><ele>658.5</ele><time>2026-04-12T13:39:06.03Z</time></trkpt><trkpt lat="42.86119805478416" lon="12.223212164941682"><ele>656.25</ele><time>2026-04-12T13:39:07.03Z</time></trkpt><trkpt lat="42.86123885688233" lon="12.223335217658539"><ele>654.0</ele><time>2026-04-12T13:39:08.03Z</time></trkpt><trkpt lat="42.861328593596056" lon="12.223422745039462"><ele>654.0</ele><time>2026-04-12T13:39:09.03Z</time></trkpt><trkpt lat="42.86143901261772" lon="12.22347431726684"><ele>654.0</ele><time>2026-04-12T13:39:10.03Z</time></trkpt><trkpt lat="42.86156307325539" lon="12.223475918619952"><ele>654.0</ele><time>2026-04-12T13:39:11.03Z</time></trkpt><trkpt lat="42.861693853365814" lon="12.223443038100262"><ele>654.0</ele><time>2026-04-12T13:39:12.03Z</time></trkpt><trkpt lat="42.86181742100414" lon="12.223420406517363"><ele>654.25</ele><time>2026-04-12T13:39:13.03Z</time></trkpt><trkpt lat="42.86194701743696" lon="12.223435547699085"><ele>654.5</ele><time>2026-04-12T13:39:14.03Z</time></trkpt><trkpt lat="42.862071861086314" lon="12.22348042520782"><ele>654.75</ele><time>2026-04-12T13:39:15.03Z</time></trkpt><trkpt lat="42.86220530783419" lon="12.223560277723907"><ele>655.0</ele><time>2026-04-12T13:39:16.03Z</time></trkpt><trkpt lat="42.862319187735345" lon="12.223656768960947"><ele>655.0</ele><time>2026-04-12T13:39:17.03Z</time></trkpt><trkpt lat="42.86242177494569" lon="12.223782933544442"><ele>655.0</ele><time>2026-04-12T13:39:18.03Z</time></trkpt><trkpt lat="42.862508128356815" lon="12.223938754028552"><ele>655.0</ele><time>2026-04-12T13:39:19.03Z</time></trkpt><trkpt lat="42.8625622502138" lon="12.224075327702076"><ele>655.0</ele><time>2026-04-12T13:39:20.03Z</time></trkpt><trkpt lat="42.8626479749087" lon="12.224189983226253"><ele>650.2</ele><time>2026-04-12T13:39:21.03Z</time></trkpt><trkpt lat="42.862740410789925" lon="12.22425870966656"><ele>645.4</ele><time>2026-04-12T13:39:22.03Z</time></trkpt><trkpt lat="42.86282845427061" lon="12.224274459615383"><ele>640.6</ele><time>2026-04-12T13:39:23.03Z</time></trkpt><trkpt lat="42.86290744897246" lon="12.224216816916075"><ele>635.8</ele><time>2026-04-12T13:39:24.03Z</time></trkpt><trkpt lat="42.862981187915906" lon="12.224112753418273"><ele>631.0</ele><time>2026-04-12T13:39:25.03Z</time></trkpt><trkpt lat="42.86306056514413" lon="12.223993387624095"><ele>633.5</ele><time>2026-04-12T13:39:26.03Z</time></trkpt><trkpt lat="42.86315889399221" lon="12.223877967950658"><ele>636.0</ele><time>2026-04-12T13:39:27.03Z</time></trkpt><trkpt lat="42.86328052090956" lon="12.223786945000395"><ele>638.5</ele><time>2026-04-12T13:39:28.03Z</time></trkpt><trkpt lat="42.863416042967735" lon="12.223711328510303"><ele>641.0</ele><time>2026-04-12T13:39:29.03Z</time></trkpt><trkpt lat="42.86356354753032" lon="12.223665083342679"><ele>641.0</ele><time>2026-04-12T13:39:30.03Z</time></trkpt><trkpt lat="42.86372085398775" lon="12.223656090528124"><ele>641.0</ele><time>2026-04-12T13:39:31.03Z</time></trkpt><trkpt lat="42.863885406960925" lon="12.223666295874281"><ele>641.0</ele><time>2026-04-12T13:39:32.03Z</time></trkpt><trkpt lat="42.86404642394776" lon="12.223683325621746"><ele>641.0</ele><time>2026-04-12T13:39:33.03Z</time></trkpt><trkpt lat="42.86420416642239" lon="12.223703190237973"><ele>641.0</ele><time>2026-04-12T13:39:34.03Z</time></trkpt><trkpt lat="42.86437234997561" lon="12.223739982981064"><ele>641.0</ele><time>2026-04-12T13:39:35.03Z</time></trkpt><trkpt lat="42.864538385240266" lon="12.22379672252705"><ele>642.0</ele><time>2026-04-12T13:39:36.03Z</time></trkpt><trkpt lat="42.86469262668403" lon="12.22386311395508"><ele>643.0</ele><time>2026-04-12T13:39:37.03Z</time></trkpt><trkpt lat="42.86485251652293" lon="12.223949120828117"><ele>644.0</ele><time>2026-04-12T13:39:38.03Z</time></trkpt><trkpt lat="42.86496941522678" lon="12.224103812424385"><ele>644.75</ele><time>2026-04-12T13:39:39.03Z</time></trkpt><trkpt lat="42.865044001443636" lon="12.224283441963205"><ele>645.5</ele><time>2026-04-12T13:39:40.03Z</time></trkpt><trkpt lat="42.865122741286235" lon="12.22446215890785"><ele>646.25</ele><time>2026-04-12T13:39:41.03Z</time></trkpt><trkpt lat="42.865156128776185" lon="12.224637158255366"><ele>647.0</ele><time>2026-04-12T13:39:42.03Z</time></trkpt><trkpt lat="42.865148063679754" lon="12.224816105383741"><ele>647.0</ele><time>2026-04-12T13:39:43.029Z</time></trkpt><trkpt lat="42.86516295800749" lon="12.22501312871959"><ele>647.0</ele><time>2026-04-12T13:39:44.029Z</time></trkpt><trkpt lat="42.86516934496409" lon="12.225208402951674"><ele>647.0</ele><time>2026-04-12T13:39:45.029Z</time></trkpt><trkpt lat="42.86517377685351" lon="12.225402704520441"><ele>647.0</ele><time>2026-04-12T13:39:46.029Z</time></trkpt><trkpt lat="42.86518050776575" lon="12.2255882778061"><ele>641.5</ele><time>2026-04-12T13:39:47.029Z</time></trkpt><trkpt lat="42.865203212747204" lon="12.225754153635439"><ele>636.0</ele><time>2026-04-12T13:39:48.029Z</time></trkpt><trkpt lat="42.86525049738276" lon="12.225903944829847"><ele>630.5</ele><time>2026-04-12T13:39:49.029Z</time></trkpt><trkpt lat="42.86533163989588" lon="12.22601919757656"><ele>625.0</ele><time>2026-04-12T13:39:50.029Z</time></trkpt><trkpt lat="42.86543943810896" lon="12.226077400819662"><ele>625.0</ele><time>2026-04-12T13:39:51.029Z</time></trkpt><trkpt lat="42.86555712024147" lon="12.226073114779267"><ele>625.0</ele><time>2026-04-12T13:39:52.029Z</time></trkpt><trkpt lat="42.865680733236005" lon="12.226025359052803"><ele>625.0</ele><time>2026-04-12T13:39:53.029Z</time></trkpt><trkpt lat="42.86580883776076" lon="12.225980261029408"><ele>625.0</ele><time>2026-04-12T13:39:54.029Z</time></trkpt><trkpt lat="42.865954249044314" lon="12.225957614672751"><ele>624.75</ele><time>2026-04-12T13:39:55.029Z</time></trkpt><trkpt lat="42.866106345055904" lon="12.225962005302295"><ele>624.5</ele><time>2026-04-12T13:39:56.029Z</time></trkpt><trkpt lat="42.86625662777773" lon="12.225968758964603"><ele>624.25</ele><time>2026-04-12T13:39:57.029Z</time></trkpt><trkpt lat="42.866401812668" lon="12.225940601941339"><ele>624.0</ele><time>2026-04-12T13:39:58.029Z</time></trkpt><trkpt lat="42.86653759633899" lon="12.225920046656169"><ele>624.0</ele><time>2026-04-12T13:39:59.029Z</time></trkpt><trkpt lat="42.86664474718571" lon="12.22592461493045"><ele>624.0</ele><time>2026-04-12T13:40:00.029Z</time></trkpt><trkpt lat="42.866736423370355" lon="12.225968577316394"><ele>624.0</ele><time>2026-04-12T13:40:01.029Z</time></trkpt><trkpt lat="42.86679623612925" lon="12.226057045765696"><ele>624.0</ele><time>2026-04-12T13:40:02.029Z</time></trkpt><trkpt lat="42.86682345626468" lon="12.226186997943543"><ele>624.0</ele><time>2026-04-12T13:40:03.029Z</time></trkpt><trkpt lat="42.86685066329281" lon="12.226339461421098"><ele>625.5</ele><time>2026-04-12T13:40:04.032Z</time></trkpt><trkpt lat="42.86688273150827" lon="12.226505844118051"><ele>627.0</ele><time>2026-04-12T13:40:05.032Z</time></trkpt><trkpt lat="42.8669187599269" lon="12.226692388975469"><ele>628.5</ele><time>2026-04-12T13:40:06.032Z</time></trkpt><trkpt lat="42.86694515683355" lon="12.22687683629837"><ele>630.0</ele><time>2026-04-12T13:40:07.032Z</time></trkpt><trkpt lat="42.86693480581576" lon="12.227062846827058"><ele>630.0</ele><time>2026-04-12T13:40:08.032Z</time></trkpt><trkpt lat="42.86687097114132" lon="12.227234736771381"><ele>630.0</ele><time>2026-04-12T13:40:09.032Z</time></trkpt><trkpt lat="42.86680703323429" lon="12.227383540032031"><ele>630.0</ele><time>2026-04-12T13:40:10.032Z</time></trkpt><trkpt lat="42.86677924228942" lon="12.227556528118447"><ele>630.0</ele><time>2026-04-12T13:40:11.032Z</time></trkpt><trkpt lat="42.8667678704379" lon="12.227746733853913"><ele>623.75</ele><time>2026-04-12T13:40:12.032Z</time></trkpt><trkpt lat="42.866770227207795" lon="12.227949524902956"><ele>617.5</ele><time>2026-04-12T13:40:13.032Z</time></trkpt><trkpt lat="42.86678070792623" lon="12.22814858887535"><ele>611.25</ele><time>2026-04-12T13:40:14.032Z</time></trkpt><trkpt lat="42.86681984599359" lon="12.22833642543672"><ele>605.0</ele><time>2026-04-12T13:40:15.032Z</time></trkpt><trkpt lat="42.86688678004848" lon="12.228511791505717"><ele>604.5</ele><time>2026-04-12T13:40:16.032Z</time></trkpt><trkpt lat="42.866975063922254" lon="12.228668370020904"><ele>604.0</ele><time>2026-04-12T13:40:17.032Z</time></trkpt><trkpt lat="42.86706124214548" lon="12.228815044626554"><ele>603.5</ele><time>2026-04-12T13:40:18.032Z</time></trkpt><trkpt lat="42.867135043873986" lon="12.228963529670184"><ele>603.0</ele><time>2026-04-12T13:40:19.032Z</time></trkpt><trkpt lat="42.867184541599855" lon="12.229104266188068"><ele>601.1999999999999</ele><time>2026-04-12T13:40:20.032Z</time></trkpt><trkpt lat="42.867212800151236" lon="12.22923632088137"><ele>599.4</ele><time>2026-04-12T13:40:21.032Z</time></trkpt><trkpt lat="42.86719608204778" lon="12.229372607692433"><ele>597.5999999999999</ele><time>2026-04-12T13:40:22.032Z</time></trkpt><trkpt lat="42.86714708099436" lon="12.229489005427833"><ele>595.8</ele><time>2026-04-12T13:40:23.032Z</time></trkpt><trkpt lat="42.86707222902369" lon="12.22957498789184"><ele>594.0</ele><time>2026-04-12T13:40:24.032Z</time></trkpt><trkpt lat="42.86697551352759" lon="12.22961410487297"><ele>594.0</ele><time>2026-04-12T13:40:25.032Z</time></trkpt><trkpt lat="42.86685763182029" lon="12.229628779540258"><ele>594.0</ele><time>2026-04-12T13:40:26.032Z</time></trkpt><trkpt lat="42.86672723612172" lon="12.229648415022853"><ele>594.0</ele><time>2026-04-12T13:40:27.032Z</time></trkpt><trkpt lat="42.8665935994915" lon="12.229675964665958"><ele>594.0</ele><time>2026-04-12T13:40:28.032Z</time></trkpt><trkpt lat="42.8664717938143" lon="12.229697495347581"><ele>594.25</ele><time>2026-04-12T13:40:29.032Z</time></trkpt><trkpt lat="42.86634262154868" lon="12.229727661423487"><ele>594.5</ele><time>2026-04-12T13:40:30.032Z</time></trkpt><trkpt lat="42.86622292894699" lon="12.229759232595182"><ele>594.75</ele><time>2026-04-12T13:40:31.032Z</time></trkpt><trkpt lat="42.86611170441073" lon="12.229817830079762"><ele>595.0</ele><time>2026-04-12T13:40:32.032Z</time></trkpt><trkpt lat="42.86602144361318" lon="12.229922435478494"><ele>595.0</ele><time>2026-04-12T13:40:33.032Z</time></trkpt><trkpt lat="42.865962514832155" lon="12.230055332491558"><ele>595.0</ele><time>2026-04-12T13:40:34.032Z</time></trkpt><trkpt lat="42.865945507644966" lon="12.23021150785858"><ele>595.0</ele><time>2026-04-12T13:40:35.032Z</time></trkpt><trkpt lat="42.86598160906493" lon="12.230367553849625"><ele>595.0</ele><time>2026-04-12T13:40:36.032Z</time></trkpt><trkpt lat="42.86604846375792" lon="12.23051411816209"><ele>593.75</ele><time>2026-04-12T13:40:37.032Z</time></trkpt><trkpt lat="42.86614418887118" lon="12.23064607855533"><ele>592.5</ele><time>2026-04-12T13:40:38.032Z</time></trkpt><trkpt lat="42.86624034346671" lon="12.230781381058652"><ele>591.25</ele><time>2026-04-12T13:40:39.032Z</time></trkpt><trkpt lat="42.86634202810563" lon="12.230917919668514"><ele>590.0</ele><time>2026-04-12T13:40:40.032Z</time></trkpt><trkpt lat="42.86645470239883" lon="12.231051858308314"><ele>590.0</ele><time>2026-04-12T13:40:41.032Z</time></trkpt><trkpt lat="42.8665659444552" lon="12.231190504408858"><ele>590.0</ele><time>2026-04-12T13:40:42.032Z</time></trkpt><trkpt lat="42.86667382094716" lon="12.231331348148537"><ele>590.0</ele><time>2026-04-12T13:40:43.032Z</time></trkpt><trkpt lat="42.866769377852705" lon="12.231462145051939"><ele>590.0</ele><time>2026-04-12T13:40:44.032Z</time></trkpt><trkpt lat="42.8668470966249" lon="12.231601950847017"><ele>585.25</ele><time>2026-04-12T13:40:45.032Z</time></trkpt><trkpt lat="42.866892834220266" lon="12.231746085273251"><ele>580.5</ele><time>2026-04-12T13:40:46.032Z</time></trkpt><trkpt lat="42.86689594411292" lon="12.231901079201327"><ele>575.75</ele><time>2026-04-12T13:40:47.032Z</time></trkpt><trkpt lat="42.8668657296868" lon="12.232077850237845"><ele>571.0</ele><time>2026-04-12T13:40:48.032Z</time></trkpt><trkpt lat="42.86681038628125" lon="12.232244320334724"><ele>572.0</ele><time>2026-04-12T13:40:49.032Z</time></trkpt><trkpt lat="42.86673267541253" lon="12.232393071149259"><ele>573.0</ele><time>2026-04-12T13:40:50.032Z</time></trkpt><trkpt lat="42.86663494526445" lon="12.232507425432296"><ele>574.0</ele><time>2026-04-12T13:40:51.032Z</time></trkpt><trkpt lat="42.866521207984974" lon="12.232573709462974"><ele>575.0</ele><time>2026-04-12T13:40:52.032Z</time></trkpt><trkpt lat="42.866395844400394" lon="12.23258255910652"><ele>575.0</ele><time>2026-04-12T13:40:53.032Z</time></trkpt><trkpt lat="42.86626284594562" lon="12.232558169667172"><ele>575.0</ele><time>2026-04-12T13:40:54.032Z</time></trkpt><trkpt lat="42.866120353717065" lon="12.232527463295037"><ele>575.0</ele><time>2026-04-12T13:40:55.032Z</time></trkpt><trkpt lat="42.86596933598151" lon="12.232502109447834"><ele>575.0</ele><time>2026-04-12T13:40:56.032Z</time></trkpt><trkpt lat="42.865823175411094" lon="12.232483077902074"><ele>575.0</ele><time>2026-04-12T13:40:57.032Z</time></trkpt><trkpt lat="42.865688442376715" lon="12.232469395869511"><ele>575.0</ele><time>2026-04-12T13:40:58.032Z</time></trkpt><trkpt lat="42.86556030706481" lon="12.232460951460055"><ele>575.0</ele><time>2026-04-12T13:40:59.032Z</time></trkpt><trkpt lat="42.86545188901319" lon="12.23247049550029"><ele>575.0</ele><time>2026-04-12T13:41:00.032Z</time></trkpt><trkpt lat="42.865357623825645" lon="12.232533746608787"><ele>575.0</ele><time>2026-04-12T13:41:01.032Z</time></trkpt><trkpt lat="42.8653000275179" lon="12.232652268315498"><ele>575.0</ele><time>2026-04-12T13:41:02.032Z</time></trkpt><trkpt lat="42.86528001145686" lon="12.232805431572013"><ele>575.0</ele><time>2026-04-12T13:41:03.032Z</time></trkpt><trkpt lat="42.86527289566186" lon="12.23298152129469"><ele>575.0</ele><time>2026-04-12T13:41:04.031Z</time></trkpt><trkpt lat="42.86525417955388" lon="12.233166387450652"><ele>576.25</ele><time>2026-04-12T13:41:05.031Z</time></trkpt><trkpt lat="42.86520033295368" lon="12.23334754601031"><ele>577.5</ele><time>2026-04-12T13:41:06.031Z</time></trkpt><trkpt lat="42.865128119834694" lon="12.233516420401958"><ele>578.75</ele><time>2026-04-12T13:41:07.031Z</time></trkpt><trkpt lat="42.86504566388498" lon="12.233660434679233"><ele>580.0</ele><time>2026-04-12T13:41:08.031Z</time></trkpt><trkpt lat="42.86496420575516" lon="12.233801238003897"><ele>576.5</ele><time>2026-04-12T13:41:09.031Z</time></trkpt><trkpt lat="42.864909621592695" lon="12.23395982946996"><ele>573.0</ele><time>2026-04-12T13:41:10.031Z</time></trkpt><trkpt lat="42.86488220448095" lon="12.234129448046058"><ele>569.5</ele><time>2026-04-12T13:41:11.031Z</time></trkpt><trkpt lat="42.86489571372778" lon="12.234322341716506"><ele>566.0</ele><time>2026-04-12T13:41:12.031Z</time></trkpt><trkpt lat="42.864932301937" lon="12.234511836662554"><ele>565.75</ele><time>2026-04-12T13:41:13.031Z</time></trkpt><trkpt lat="42.864953065971704" lon="12.23470728729229"><ele>565.5</ele><time>2026-04-12T13:41:14.031Z</time></trkpt><trkpt lat="42.864972958719555" lon="12.234895773000344"><ele>565.25</ele><time>2026-04-12T13:41:15.031Z</time></trkpt><trkpt lat="42.86502327642089" lon="12.235077159730443"><ele>565.0</ele><time>2026-04-12T13:41:16.031Z</time></trkpt><trkpt lat="42.86510820018509" lon="12.235233060927868"><ele>564.5</ele><time>2026-04-12T13:41:17.031Z</time></trkpt><trkpt lat="42.865211514694074" lon="12.235370333779322"><ele>564.0</ele><time>2026-04-12T13:41:18.031Z</time></trkpt><trkpt lat="42.86531242227646" lon="12.235506163825267"><ele>563.5</ele><time>2026-04-12T13:41:19.031Z</time></trkpt><trkpt lat="42.86538886421271" lon="12.235633726522126"><ele>563.0</ele><time>2026-04-12T13:41:20.031Z</time></trkpt><trkpt lat="42.865429714735136" lon="12.235763778815226"><ele>563.0</ele><time>2026-04-12T13:41:21.031Z</time></trkpt><trkpt lat="42.86544533822218" lon="12.23591154417587"><ele>563.0</ele><time>2026-04-12T13:41:22.031Z</time></trkpt><trkpt lat="42.86542536251416" lon="12.236065663642082"><ele>563.0</ele><time>2026-04-12T13:41:23.031Z</time></trkpt><trkpt lat="42.86537650830427" lon="12.236239060189169"><ele>563.0</ele><time>2026-04-12T13:41:24.031Z</time></trkpt><trkpt lat="42.865308240355745" lon="12.236420477357656"><ele>561.0</ele><time>2026-04-12T13:41:25.031Z</time></trkpt><trkpt lat="42.865229087765435" lon="12.23661089446268"><ele>559.0</ele><time>2026-04-12T13:41:26.031Z</time></trkpt><trkpt lat="42.86514125004939" lon="12.236813435970538"><ele>557.0</ele><time>2026-04-12T13:41:27.031Z</time></trkpt><trkpt lat="42.86504978465954" lon="12.23702430825654"><ele>554.6666666666666</ele><time>2026-04-12T13:41:28.031Z</time></trkpt><trkpt lat="42.864966186198906" lon="12.237241164049454"><ele>552.3333333333334</ele><time>2026-04-12T13:41:29.031Z</time></trkpt><trkpt lat="42.86488175168763" lon="12.237441232432456"><ele>550.0</ele><time>2026-04-12T13:41:30.031Z</time></trkpt><trkpt lat="42.86479835011426" lon="12.237630936816295"><ele>549.0</ele><time>2026-04-12T13:41:31.031Z</time></trkpt><trkpt lat="42.86472137962274" lon="12.237825582521532"><ele>548.0</ele><time>2026-04-12T13:41:32.031Z</time></trkpt><trkpt lat="42.86465972855133" lon="12.238031795957433"><ele>547.0</ele><time>2026-04-12T13:41:33.031Z</time></trkpt><trkpt lat="42.86461525300262" lon="12.238238509576805"><ele>544.0</ele><time>2026-04-12T13:41:34.031Z</time></trkpt><trkpt lat="42.86458590530729" lon="12.238439803503907"><ele>541.0</ele><time>2026-04-12T13:41:35.031Z</time></trkpt><trkpt lat="42.86456791116901" lon="12.238650666589052"><ele>538.0</ele><time>2026-04-12T13:41:36.031Z</time></trkpt><trkpt lat="42.86456138275481" lon="12.238866560872477"><ele>538.75</ele><time>2026-04-12T13:41:37.031Z</time></trkpt><trkpt lat="42.86455412816505" lon="12.239075085439032"><ele>539.5</ele><time>2026-04-12T13:41:38.031Z</time></trkpt><trkpt lat="42.86453869420908" lon="12.239278045516505"><ele>540.25</ele><time>2026-04-12T13:41:39.031Z</time></trkpt><trkpt lat="42.864519701906005" lon="12.23947173599882"><ele>541.0</ele><time>2026-04-12T13:41:40.031Z</time></trkpt><trkpt lat="42.86448588679322" lon="12.239649993065738"><ele>541.5</ele><time>2026-04-12T13:41:41.031Z</time></trkpt><trkpt lat="42.8644245150019" lon="12.239822751521952"><ele>542.0</ele><time>2026-04-12T13:41:42.031Z</time></trkpt><trkpt lat="42.86433577541312" lon="12.239980278884246"><ele>542.5</ele><time>2026-04-12T13:41:43.031Z</time></trkpt><trkpt lat="42.86421769204095" lon="12.24011770056957"><ele>543.0</ele><time>2026-04-12T13:41:44.031Z</time></trkpt><trkpt lat="42.86407833827774" lon="12.240232202316875"><ele>541.0</ele><time>2026-04-12T13:41:45.031Z</time></trkpt><trkpt lat="42.863924148237025" lon="12.240336855941143"><ele>539.0</ele><time>2026-04-12T13:41:46.031Z</time></trkpt><trkpt lat="42.86377162387583" lon="12.240449671629708"><ele>537.0</ele><time>2026-04-12T13:41:47.031Z</time></trkpt><trkpt lat="42.863618776355196" lon="12.24056346083964"><ele>535.0</ele><time>2026-04-12T13:41:48.031Z</time></trkpt><trkpt lat="42.86347047187447" lon="12.240666592962647"><ele>533.0</ele><time>2026-04-12T13:41:49.031Z</time></trkpt><trkpt lat="42.86332081808881" lon="12.240770454485745"><ele>531.0</ele><time>2026-04-12T13:41:50.031Z</time></trkpt><trkpt lat="42.86317066741002" lon="12.24088441396259"><ele>531.0</ele><time>2026-04-12T13:41:51.031Z</time></trkpt><trkpt lat="42.86301393840795" lon="12.241001106046609"><ele>531.0</ele><time>2026-04-12T13:41:52.031Z</time></trkpt><trkpt lat="42.862850669286445" lon="12.241116632919468"><ele>531.0</ele><time>2026-04-12T13:41:53.031Z</time></trkpt><trkpt lat="42.8626942480469" lon="12.241242790200493"><ele>530.6666666666666</ele><time>2026-04-12T13:41:54.031Z</time></trkpt><trkpt lat="42.86254129380049" lon="12.241368215917529"><ele>530.3333333333333</ele><time>2026-04-12T13:41:55.031Z</time></trkpt><trkpt lat="42.86239659136501" lon="12.241500514709193"><ele>530.0</ele><time>2026-04-12T13:41:56.031Z</time></trkpt><trkpt lat="42.862256404206136" lon="12.241641255674267"><ele>530.0</ele><time>2026-04-12T13:41:57.031Z</time></trkpt><trkpt lat="42.86212731174945" lon="12.24180361650546"><ele>530.0</ele><time>2026-04-12T13:41:58.031Z</time></trkpt><trkpt lat="42.862012826189115" lon="12.241970725970441"><ele>530.0</ele><time>2026-04-12T13:41:59.031Z</time></trkpt><trkpt lat="42.86190994031376" lon="12.242114167715664"><ele>530.0</ele><time>2026-04-12T13:42:00.031Z</time></trkpt><trkpt lat="42.86180890879049" lon="12.242219628939196"><ele>530.0</ele><time>2026-04-12T13:42:01.031Z</time></trkpt><trkpt lat="42.86169711959523" lon="12.242271806081748"><ele>530.0</ele><time>2026-04-12T13:42:02.031Z</time></trkpt><trkpt lat="42.86156638562686" lon="12.24226243575953"><ele>530.0</ele><time>2026-04-12T13:42:03.031Z</time></trkpt><trkpt lat="42.8614390288626" lon="12.242247702610472"><ele>527.8</ele><time>2026-04-12T13:42:04.031Z</time></trkpt><trkpt lat="42.86131399650421" lon="12.242238548644599"><ele>525.6</ele><time>2026-04-12T13:42:05.031Z</time></trkpt><trkpt lat="42.861209332726645" lon="12.242251001551434"><ele>523.4</ele><time>2026-04-12T13:42:06.031Z</time></trkpt><trkpt lat="42.861122447702996" lon="12.242317510133713"><ele>521.2</ele><time>2026-04-12T13:42:07.031Z</time></trkpt><trkpt lat="42.8610680662964" lon="12.242439059284962"><ele>519.0</ele><time>2026-04-12T13:42:08.031Z</time></trkpt><trkpt lat="42.86105725509029" lon="12.242598952983018"><ele>519.0</ele><time>2026-04-12T13:42:09.031Z</time></trkpt><trkpt lat="42.861061593250774" lon="12.242770520347992"><ele>519.0</ele><time>2026-04-12T13:42:10.033Z</time></trkpt><trkpt lat="42.86105636590386" lon="12.242937621081474"><ele>519.0</ele><time>2026-04-12T13:42:11.033Z</time></trkpt><trkpt lat="42.86101720649223" lon="12.243087171798338"><ele>519.0</ele><time>2026-04-12T13:42:12.033Z</time></trkpt><trkpt lat="42.8609321093238" lon="12.243195690025704"><ele>514.25</ele><time>2026-04-12T13:42:13.033Z</time></trkpt><trkpt lat="42.8608228020363" lon="12.243250620886927"><ele>509.5</ele><time>2026-04-12T13:42:14.033Z</time></trkpt><trkpt lat="42.86069812409099" lon="12.243286707181019"><ele>504.75</ele><time>2026-04-12T13:42:15.033Z</time></trkpt><trkpt lat="42.860561928281946" lon="12.243344946307563"><ele>500.0</ele><time>2026-04-12T13:42:16.033Z</time></trkpt><trkpt lat="42.86042091053292" lon="12.243431250077291"><ele>500.0</ele><time>2026-04-12T13:42:17.033Z</time></trkpt><trkpt lat="42.86029304419301" lon="12.243549508963797"><ele>500.0</ele><time>2026-04-12T13:42:18.033Z</time></trkpt><trkpt lat="42.86019257819721" lon="12.243694448048796"><ele>500.0</ele><time>2026-04-12T13:42:19.033Z</time></trkpt><trkpt lat="42.860119343154324" lon="12.243864684899723"><ele>500.0</ele><time>2026-04-12T13:42:20.033Z</time></trkpt><trkpt lat="42.86007748518602" lon="12.244060104519052"><ele>498.0</ele><time>2026-04-12T13:42:21.033Z</time></trkpt><trkpt lat="42.860063755471174" lon="12.244279537637375"><ele>496.0</ele><time>2026-04-12T13:42:22.033Z</time></trkpt><trkpt lat="42.86006508326579" lon="12.244490921913476"><ele>494.0</ele><time>2026-04-12T13:42:23.033Z</time></trkpt><trkpt lat="42.86007362500716" lon="12.244694787496055"><ele>494.25</ele><time>2026-04-12T13:42:24.033Z</time></trkpt><trkpt lat="42.86007794593651" lon="12.244887581326994"><ele>494.5</ele><time>2026-04-12T13:42:25.033Z</time></trkpt><trkpt lat="42.86006827925671" lon="12.245069351622021"><ele>494.75</ele><time>2026-04-12T13:42:26.033Z</time></trkpt><trkpt lat="42.86004027772047" lon="12.245234273369077"><ele>495.0</ele><time>2026-04-12T13:42:27.033Z</time></trkpt><trkpt lat="42.8599742146316" lon="12.245370038848545"><ele>495.0</ele><time>2026-04-12T13:42:28.033Z</time></trkpt><trkpt lat="42.85988040065548" lon="12.245473981040965"><ele>495.0</ele><time>2026-04-12T13:42:29.033Z</time></trkpt><trkpt lat="42.859770045495615" lon="12.245537442763199"><ele>495.0</ele><time>2026-04-12T13:42:30.033Z</time></trkpt><trkpt lat="42.85964279869334" lon="12.245574482422088"><ele>495.0</ele><time>2026-04-12T13:42:31.033Z</time></trkpt><trkpt lat="42.85949487863447" lon="12.245629436488269"><ele>494.66666666666663</ele><time>2026-04-12T13:42:32.033Z</time></trkpt><trkpt lat="42.85934696263077" lon="12.245708141425206"><ele>494.3333333333333</ele><time>2026-04-12T13:42:33.033Z</time></trkpt><trkpt lat="42.859201682188186" lon="12.245805323091012"><ele>494.0</ele><time>2026-04-12T13:42:34.033Z</time></trkpt><trkpt lat="42.85906904066164" lon="12.245926399140885"><ele>494.0</ele><time>2026-04-12T13:42:35.033Z</time></trkpt><trkpt lat="42.858943601957115" lon="12.246074161845216"><ele>494.0</ele><time>2026-04-12T13:42:36.033Z</time></trkpt><trkpt lat="42.85884447876667" lon="12.246252749640137"><ele>494.0</ele><time>2026-04-12T13:42:37.033Z</time></trkpt><trkpt lat="42.85875930527147" lon="12.246436976015932"><ele>495.25</ele><time>2026-04-12T13:42:38.033Z</time></trkpt><trkpt lat="42.8586868709855" lon="12.246616293926014"><ele>496.5</ele><time>2026-04-12T13:42:39.033Z</time></trkpt><trkpt lat="42.85862027238572" lon="12.246784999206353"><ele>497.75</ele><time>2026-04-12T13:42:40.033Z</time></trkpt><trkpt lat="42.85856992146829" lon="12.246964292895914"><ele>499.0</ele><time>2026-04-12T13:42:41.033Z</time></trkpt><trkpt lat="42.858554237080696" lon="12.247152440477393"><ele>498.25</ele><time>2026-04-12T13:42:42.033Z</time></trkpt><trkpt lat="42.85858475812428" lon="12.247341548270708"><ele>497.5</ele><time>2026-04-12T13:42:43.033Z</time></trkpt><trkpt lat="42.85864286500657" lon="12.247523513092393"><ele>496.75</ele><time>2026-04-12T13:42:44.033Z</time></trkpt><trkpt lat="42.858721374280904" lon="12.247700135425122"><ele>496.0</ele><time>2026-04-12T13:42:45.033Z</time></trkpt><trkpt lat="42.85880182003628" lon="12.247881173376328"><ele>496.0</ele><time>2026-04-12T13:42:46.033Z</time></trkpt><trkpt lat="42.85888568585305" lon="12.248059550500814"><ele>496.0</ele><time>2026-04-12T13:42:47.033Z</time></trkpt><trkpt lat="42.858989783373545" lon="12.248230685072414"><ele>496.0</ele><time>2026-04-12T13:42:48.033Z</time></trkpt><trkpt lat="42.859111743706585" lon="12.248383000027157"><ele>496.6666666666667</ele><time>2026-04-12T13:42:49.033Z</time></trkpt><trkpt lat="42.85923556311536" lon="12.248519097474786"><ele>497.33333333333337</ele><time>2026-04-12T13:42:50.033Z</time></trkpt><trkpt lat="42.85935260557605" lon="12.248656356801423"><ele>498.0</ele><time>2026-04-12T13:42:51.033Z</time></trkpt><trkpt lat="42.85945689809069" lon="12.24879395006384"><ele>498.0</ele><time>2026-04-12T13:42:52.033Z</time></trkpt><trkpt lat="42.859553082713276" lon="12.248929410976048"><ele>498.0</ele><time>2026-04-12T13:42:53.033Z</time></trkpt><trkpt lat="42.85963511159593" lon="12.24907885551371"><ele>498.0</ele><time>2026-04-12T13:42:54.033Z</time></trkpt><trkpt lat="42.85968761006103" lon="12.249243566066447"><ele>498.0</ele><time>2026-04-12T13:42:55.033Z</time></trkpt><trkpt lat="42.85970366819758" lon="12.249413459603131"><ele>496.75</ele><time>2026-04-12T13:42:56.033Z</time></trkpt><trkpt lat="42.859674649307344" lon="12.249585313121765"><ele>495.5</ele><time>2026-04-12T13:42:57.033Z</time></trkpt><trkpt lat="42.85962059447214" lon="12.249752358456494"><ele>494.25</ele><time>2026-04-12T13:42:58.032Z</time></trkpt><trkpt lat="42.859556973242356" lon="12.249909578405052"><ele>493.0</ele><time>2026-04-12T13:42:59.032Z</time></trkpt><trkpt lat="42.85948316979759" lon="12.250056962559206"><ele>491.0</ele><time>2026-04-12T13:43:00.032Z</time></trkpt><trkpt lat="42.859390673172996" lon="12.250196837578853"><ele>489.0</ele><time>2026-04-12T13:43:01.032Z</time></trkpt><trkpt lat="42.859283161714906" lon="12.250313649819017"><ele>487.0</ele><time>2026-04-12T13:43:02.032Z</time></trkpt><trkpt lat="42.85916210536686" lon="12.250432464232011"><ele>485.0</ele><time>2026-04-12T13:43:03.032Z</time></trkpt><trkpt lat="42.85903668881513" lon="12.250546619111875"><ele>483.25</ele><time>2026-04-12T13:43:04.032Z</time></trkpt><trkpt lat="42.858925729876916" lon="12.250671401304627"><ele>481.5</ele><time>2026-04-12T13:43:05.032Z</time></trkpt><trkpt lat="42.85884367497205" lon="12.25080838706078"><ele>479.75</ele><time>2026-04-12T13:43:06.032Z</time></trkpt><trkpt lat="42.85880086458795" lon="12.250963898194463"><ele>478.0</ele><time>2026-04-12T13:43:07.032Z</time></trkpt><trkpt lat="42.85880299561255" lon="12.251134732836343"><ele>478.0</ele><time>2026-04-12T13:43:08.032Z</time></trkpt><trkpt lat="42.858843158118425" lon="12.251298140657774"><ele>478.0</ele><time>2026-04-12T13:43:09.032Z</time></trkpt><trkpt lat="42.85889844754986" lon="12.251450006432167"><ele>478.0</ele><time>2026-04-12T13:43:10.032Z</time></trkpt><trkpt lat="42.858938109019924" lon="12.251600159041853"><ele>478.0</ele><time>2026-04-12T13:43:11.032Z</time></trkpt><trkpt lat="42.85896717679131" lon="12.251740570393482"><ele>477.75</ele><time>2026-04-12T13:43:12.032Z</time></trkpt><trkpt lat="42.858999881141656" lon="12.251884516608808"><ele>477.5</ele><time>2026-04-12T13:43:13.032Z</time></trkpt><trkpt lat="42.85903165456286" lon="12.252038765800437"><ele>477.25</ele><time>2026-04-12T13:43:14.032Z</time></trkpt><trkpt lat="42.85906234489241" lon="12.25220742765113"><ele>477.0</ele><time>2026-04-12T13:43:15.032Z</time></trkpt><trkpt lat="42.85909012672789" lon="12.252384729709133"><ele>477.0</ele><time>2026-04-12T13:43:16.032Z</time></trkpt><trkpt lat="42.85911497799386" lon="12.252575648805525"><ele>477.0</ele><time>2026-04-12T13:43:17.032Z</time></trkpt><trkpt lat="42.859150519734335" lon="12.25277403569832"><ele>477.0</ele><time>2026-04-12T13:43:18.032Z</time></trkpt><trkpt lat="42.85918542465986" lon="12.252984444014507"><ele>476.0</ele><time>2026-04-12T13:43:19.032Z</time></trkpt><trkpt lat="42.85922225313242" lon="12.253207822859919"><ele>475.0</ele><time>2026-04-12T13:43:20.032Z</time></trkpt><trkpt lat="42.85925637031191" lon="12.253427059465334"><ele>474.0</ele><time>2026-04-12T13:43:21.032Z</time></trkpt><trkpt lat="42.859293251435574" lon="12.253650159185247"><ele>474.0</ele><time>2026-04-12T13:43:22.032Z</time></trkpt><trkpt lat="42.85932220807287" lon="12.253872560157621"><ele>474.0</ele><time>2026-04-12T13:43:23.032Z</time></trkpt><trkpt lat="42.85932852249302" lon="12.25409882030323"><ele>474.0</ele><time>2026-04-12T13:43:24.032Z</time></trkpt><trkpt lat="42.8593152811786" lon="12.254329243134507"><ele>473.66666666666663</ele><time>2026-04-12T13:43:25.032Z</time></trkpt><trkpt lat="42.85928975488987" lon="12.254557961455427"><ele>473.3333333333333</ele><time>2026-04-12T13:43:26.032Z</time></trkpt><trkpt lat="42.859260036773776" lon="12.254787860618947"><ele>473.0</ele><time>2026-04-12T13:43:27.032Z</time></trkpt><trkpt lat="42.859230525458905" lon="12.255015755097403"><ele>473.0</ele><time>2026-04-12T13:43:28.032Z</time></trkpt><trkpt lat="42.85920208375917" lon="12.255236874452372"><ele>473.0</ele><time>2026-04-12T13:43:29.032Z</time></trkpt><trkpt lat="42.859181404711535" lon="12.255442736352004"><ele>473.0</ele><time>2026-04-12T13:43:30.032Z</time></trkpt><trkpt lat="42.85916151497918" lon="12.255639361725802"><ele>473.0</ele><time>2026-04-12T13:43:31.032Z</time></trkpt><trkpt lat="42.859134088251984" lon="12.255836447037506"><ele>473.0</ele><time>2026-04-12T13:43:32.032Z</time></trkpt><trkpt lat="42.85909435758541" lon="12.256035099771077"><ele>473.0</ele><time>2026-04-12T13:43:33.032Z</time></trkpt><trkpt lat="42.85904554019602" lon="12.25623387283803"><ele>473.0</ele><time>2026-04-12T13:43:34.032Z</time></trkpt><trkpt lat="42.85899321138213" lon="12.256446312508448"><ele>473.0</ele><time>2026-04-12T13:43:35.032Z</time></trkpt><trkpt lat="42.858936725734516" lon="12.256665193422272"><ele>473.0</ele><time>2026-04-12T13:43:36.032Z</time></trkpt><trkpt lat="42.85888692541202" lon="12.256885143061362"><ele>472.3333333333333</ele><time>2026-04-12T13:43:37.032Z</time></trkpt><trkpt lat="42.85884593250621" lon="12.257114022827635"><ele>471.66666666666663</ele><time>2026-04-12T13:43:38.032Z</time></trkpt><trkpt lat="42.85881741049584" lon="12.257340572264406"><ele>471.0</ele><time>2026-04-12T13:43:39.032Z</time></trkpt><trkpt lat="42.8587942860119" lon="12.25757625229264"><ele>470.0</ele><time>2026-04-12T13:43:40.032Z</time></trkpt><trkpt lat="42.85877602803053" lon="12.257810388668961"><ele>469.0</ele><time>2026-04-12T13:43:41.032Z</time></trkpt><trkpt lat="42.85875891122371" lon="12.258043760521812"><ele>468.0</ele><time>2026-04-12T13:43:42.032Z</time></trkpt><trkpt lat="42.85874653875844" lon="12.258278894141448"><ele>466.0</ele><time>2026-04-12T13:43:43.032Z</time></trkpt><trkpt lat="42.85874257459475" lon="12.258507432698508"><ele>464.0</ele><time>2026-04-12T13:43:44.032Z</time></trkpt><trkpt lat="42.8587554766134" lon="12.25872839913544"><ele>462.0</ele><time>2026-04-12T13:43:45.032Z</time></trkpt><trkpt lat="42.8587936704027" lon="12.258942823247633"><ele>461.0</ele><time>2026-04-12T13:43:46.032Z</time></trkpt><trkpt lat="42.858864911484105" lon="12.259138651586628"><ele>460.0</ele><time>2026-04-12T13:43:47.032Z</time></trkpt><trkpt lat="42.85896415823991" lon="12.259301202657046"><ele>459.0</ele><time>2026-04-12T13:43:48.032Z</time></trkpt><trkpt lat="42.859065625073" lon="12.259461946414497"><ele>459.0</ele><time>2026-04-12T13:43:49.032Z</time></trkpt><trkpt lat="42.85916130088347" lon="12.259628686599937"><ele>459.0</ele><time>2026-04-12T13:43:50.032Z</time></trkpt><trkpt lat="42.859253089903916" lon="12.259790483733621"><ele>459.0</ele><time>2026-04-12T13:43:51.032Z</time></trkpt><trkpt lat="42.8593427111294" lon="12.259951270946758"><ele>459.0</ele><time>2026-04-12T13:43:52.032Z</time></trkpt><trkpt lat="42.85945202044132" lon="12.26010609656187"><ele>459.0</ele><time>2026-04-12T13:43:53.032Z</time></trkpt><trkpt lat="42.859572320742586" lon="12.260239885194558"><ele>459.0</ele><time>2026-04-12T13:43:54.032Z</time></trkpt><trkpt lat="42.859692976141396" lon="12.260343573857838"><ele>459.0</ele><time>2026-04-12T13:43:55.032Z</time></trkpt><trkpt lat="42.859790308623225" lon="12.26041665676172"><ele>459.0</ele><time>2026-04-12T13:43:56.032Z</time></trkpt><trkpt lat="42.8598712569104" lon="12.260479933889991"><ele>459.0</ele><time>2026-04-12T13:43:57.032Z</time></trkpt><trkpt lat="42.85995456635248" lon="12.260545986283782"><ele>459.0</ele><time>2026-04-12T13:43:58.032Z</time></trkpt><trkpt lat="42.86004088600335" lon="12.260629277949333"><ele>459.0</ele><time>2026-04-12T13:43:59.032Z</time></trkpt><trkpt lat="42.86013159179154" lon="12.260719961959367"><ele>459.0</ele><time>2026-04-12T13:44:00.032Z</time></trkpt><trkpt lat="42.86023199794048" lon="12.260823879317906"><ele>459.0</ele><time>2026-04-12T13:44:01.032Z</time></trkpt><trkpt lat="42.86033836600096" lon="12.260954551128053"><ele>459.0</ele><time>2026-04-12T13:44:02.032Z</time></trkpt><trkpt lat="42.860447629754894" lon="12.26110444170503"><ele>459.0</ele><time>2026-04-12T13:44:03.032Z</time></trkpt><trkpt lat="42.86055907920679" lon="12.261277776791244"><ele>458.66666666666663</ele><time>2026-04-12T13:44:04.032Z</time></trkpt><trkpt lat="42.86067184729521" lon="12.261466647512357"><ele>458.3333333333333</ele><time>2026-04-12T13:44:05.032Z</time></trkpt><trkpt lat="42.860773585908746" lon="12.26164077981395"><ele>458.0</ele><time>2026-04-12T13:44:06.032Z</time></trkpt><trkpt lat="42.860874393627874" lon="12.26182243999063"><ele>458.0</ele><time>2026-04-12T13:44:07.032Z</time></trkpt><trkpt lat="42.86097551834026" lon="12.261996872230911"><ele>458.0</ele><time>2026-04-12T13:44:08.032Z</time></trkpt><trkpt lat="42.86107069097599" lon="12.262158188148897"><ele>458.0</ele><time>2026-04-12T13:44:09.032Z</time></trkpt><trkpt lat="42.861163506175686" lon="12.262318287947886"><ele>457.75</ele><time>2026-04-12T13:44:10.032Z</time></trkpt><trkpt lat="42.86125740002729" lon="12.262478508924262"><ele>457.5</ele><time>2026-04-12T13:44:11.031Z</time></trkpt><trkpt lat="42.86135072403278" lon="12.262632664376897"><ele>457.25</ele><time>2026-04-12T13:44:12.031Z</time></trkpt><trkpt lat="42.861441131071686" lon="12.262767773256314"><ele>457.0</ele><time>2026-04-12T13:44:13.031Z</time></trkpt><trkpt lat="42.86153646846855" lon="12.262876149920684"><ele>457.0</ele><time>2026-04-12T13:44:14.031Z</time></trkpt><trkpt lat="42.861624852533716" lon="12.262938608748128"><ele>457.00000000000006</ele><time>2026-04-12T13:44:15.031Z</time></trkpt><trkpt lat="42.86172367188877" lon="12.262961497070197"><ele>457.00000000000006</ele><time>2026-04-12T13:44:16.034Z</time></trkpt><trkpt lat="42.86182078457644" lon="12.262929581753427"><ele>457.0</ele><time>2026-04-12T13:44:17.034Z</time></trkpt><trkpt lat="42.86190876738747" lon="12.262847363606117"><ele>457.0</ele><time>2026-04-12T13:44:18.034Z</time></trkpt><trkpt lat="42.86199170204427" lon="12.26273811698311"><ele>453.25</ele><time>2026-04-12T13:44:19.034Z</time></trkpt><trkpt lat="42.8620705702009" lon="12.262612390181083"><ele>449.5</ele><time>2026-04-12T13:44:20.034Z</time></trkpt><trkpt lat="42.86213868766021" lon="12.262466931744584"><ele>445.75</ele><time>2026-04-12T13:44:21.034Z</time></trkpt><trkpt lat="42.862182329974274" lon="12.262304197237174"><ele>442.0</ele><time>2026-04-12T13:44:22.033Z</time></trkpt><trkpt lat="42.862204653268854" lon="12.262123463683277"><ele>441.75</ele><time>2026-04-12T13:44:23.034Z</time></trkpt><trkpt lat="42.86220444468185" lon="12.261949348529086"><ele>441.5</ele><time>2026-04-12T13:44:24.034Z</time></trkpt><trkpt lat="42.86218318291776" lon="12.261785057147142"><ele>441.25</ele><time>2026-04-12T13:44:25.034Z</time></trkpt><trkpt lat="42.862150583036446" lon="12.261628639303936"><ele>441.0</ele><time>2026-04-12T13:44:26.034Z</time></trkpt><trkpt lat="42.862110838669906" lon="12.261484289285388"><ele>441.20000000000005</ele><time>2026-04-12T13:44:27.034Z</time></trkpt><trkpt lat="42.86206282554544" lon="12.26134227874992"><ele>441.40000000000003</ele><time>2026-04-12T13:44:28.034Z</time></trkpt><trkpt lat="42.86201236928418" lon="12.261215049441109"><ele>441.6</ele><time>2026-04-12T13:44:29.033Z</time></trkpt><trkpt lat="42.861947979373106" lon="12.261100212536313"><ele>441.8</ele><time>2026-04-12T13:44:30.033Z</time></trkpt><trkpt lat="42.86188626553166" lon="12.260984543986286"><ele>442.0</ele><time>2026-04-12T13:44:31.033Z</time></trkpt><trkpt lat="42.86183948001417" lon="12.260862520156865"><ele>442.0</ele><time>2026-04-12T13:44:32.033Z</time></trkpt><trkpt lat="42.861818516618314" lon="12.260721218184376"><ele>442.00000000000006</ele><time>2026-04-12T13:44:33.033Z</time></trkpt><trkpt lat="42.86183993126329" lon="12.260586140284131"><ele>442.00000000000006</ele><time>2026-04-12T13:44:34.033Z</time></trkpt><trkpt lat="42.86189002446405" lon="12.260475366680943"><ele>442.0</ele><time>2026-04-12T13:44:35.033Z</time></trkpt><trkpt lat="42.861970829043315" lon="12.260391550537847"><ele>442.0</ele><time>2026-04-12T13:44:36.033Z</time></trkpt><trkpt lat="42.862069162198146" lon="12.260337005684926"><ele>441.75</ele><time>2026-04-12T13:44:37.033Z</time></trkpt><trkpt lat="42.8621651175983" lon="12.260314593055922"><ele>441.5</ele><time>2026-04-12T13:44:38.033Z</time></trkpt><trkpt lat="42.86227622501847" lon="12.260320869429817"><ele>441.25</ele><time>2026-04-12T13:44:39.033Z</time></trkpt><trkpt lat="42.86239809570408" lon="12.260338185042828"><ele>441.0</ele><time>2026-04-12T13:44:40.033Z</time></trkpt><trkpt lat="42.862535406797114" lon="12.260371604237065"><ele>438.0</ele><time>2026-04-12T13:44:41.033Z</time></trkpt><trkpt lat="42.86268267682583" lon="12.260437752664666"><ele>435.0</ele><time>2026-04-12T13:44:42.033Z</time></trkpt><trkpt lat="42.86284046902526" lon="12.26051563901553"><ele>432.0</ele><time>2026-04-12T13:44:43.033Z</time></trkpt><trkpt lat="42.863000133924885" lon="12.260589405989533"><ele>434.33333333333337</ele><time>2026-04-12T13:44:44.033Z</time></trkpt><trkpt lat="42.86315837450551" lon="12.260653593941303"><ele>436.6666666666667</ele><time>2026-04-12T13:44:45.033Z</time></trkpt><trkpt lat="42.86332363555658" lon="12.260722240894024"><ele>439.0</ele><time>2026-04-12T13:44:46.033Z</time></trkpt><trkpt lat="42.86348763018978" lon="12.260777534014268"><ele>439.0</ele><time>2026-04-12T13:44:47.033Z</time></trkpt><trkpt lat="42.86364397537894" lon="12.260833288651456"><ele>439.0</ele><time>2026-04-12T13:44:48.033Z</time></trkpt><trkpt lat="42.863797907147884" lon="12.260896221877491"><ele>439.0</ele><time>2026-04-12T13:44:49.033Z</time></trkpt><trkpt lat="42.86395562579059" lon="12.260964836386787"><ele>439.0</ele><time>2026-04-12T13:44:50.033Z</time></trkpt><trkpt lat="42.8641115810799" lon="12.261027286172412"><ele>439.0</ele><time>2026-04-12T13:44:51.033Z</time></trkpt><trkpt lat="42.86426387504251" lon="12.261088785204631"><ele>439.0</ele><time>2026-04-12T13:44:52.033Z</time></trkpt><trkpt lat="42.86441471432629" lon="12.261156991892323"><ele>436.0</ele><time>2026-04-12T13:44:53.033Z</time></trkpt><trkpt lat="42.864558875546706" lon="12.261236767758248"><ele>433.0</ele><time>2026-04-12T13:44:54.033Z</time></trkpt><trkpt lat="42.86469995006411" lon="12.261334490318125"><ele>430.0</ele><time>2026-04-12T13:44:55.033Z</time></trkpt><trkpt lat="42.86482748901584" lon="12.261443509102314"><ele>429.25</ele><time>2026-04-12T13:44:56.033Z</time></trkpt><trkpt lat="42.86492938576722" lon="12.261571171056643"><ele>428.5</ele><time>2026-04-12T13:44:57.033Z</time></trkpt><trkpt lat="42.865004701936456" lon="12.261716016060552"><ele>427.75</ele><time>2026-04-12T13:44:58.033Z</time></trkpt><trkpt lat="42.86506575436732" lon="12.261873604597302"><ele>427.0</ele><time>2026-04-12T13:44:59.033Z</time></trkpt><trkpt lat="42.8651156008494" lon="12.26202976386852"><ele>427.0</ele><time>2026-04-12T13:45:00.033Z</time></trkpt><trkpt lat="42.86516779974359" lon="12.262185613509999"><ele>427.0</ele><time>2026-04-12T13:45:01.033Z</time></trkpt><trkpt lat="42.86521947239824" lon="12.262329953459757"><ele>427.0</ele><time>2026-04-12T13:45:02.033Z</time></trkpt><trkpt lat="42.8652805615884" lon="12.262470638048642"><ele>427.0</ele><time>2026-04-12T13:45:03.033Z</time></trkpt><trkpt lat="42.86534301653524" lon="12.262602592162537"><ele>428.5</ele><time>2026-04-12T13:45:04.033Z</time></trkpt><trkpt lat="42.86541599715018" lon="12.262730854016455"><ele>430.0</ele><time>2026-04-12T13:45:05.033Z</time></trkpt><trkpt lat="42.86548465772435" lon="12.262851756584562"><ele>431.5</ele><time>2026-04-12T13:45:06.033Z</time></trkpt><trkpt lat="42.86555142546121" lon="12.262968928349471"><ele>433.0</ele><time>2026-04-12T13:45:07.033Z</time></trkpt><trkpt lat="42.86561890274928" lon="12.263088649684848"><ele>431.79999999999995</ele><time>2026-04-12T13:45:08.033Z</time></trkpt><trkpt lat="42.86568469180094" lon="12.263198295089865"><ele>430.59999999999997</ele><time>2026-04-12T13:45:09.033Z</time></trkpt><trkpt lat="42.86575808743771" lon="12.263312932390184"><ele>429.40000000000003</ele><time>2026-04-12T13:45:10.033Z</time></trkpt><trkpt lat="42.865833081384636" lon="12.263425989860558"><ele>428.20000000000005</ele><time>2026-04-12T13:45:11.033Z</time></trkpt><trkpt lat="42.86590949546642" lon="12.263542949119595"><ele>427.0</ele><time>2026-04-12T13:45:12.033Z</time></trkpt><trkpt lat="42.866000806694686" lon="12.263650948710566"><ele>427.0</ele><time>2026-04-12T13:45:13.033Z</time></trkpt><trkpt lat="42.86608988552261" lon="12.26374796492351"><ele>427.0</ele><time>2026-04-12T13:45:14.033Z</time></trkpt><trkpt lat="42.866190250285136" lon="12.26383687618497"><ele>427.0</ele><time>2026-04-12T13:45:15.033Z</time></trkpt><trkpt lat="42.86629862059935" lon="12.263915897729284"><ele>427.0</ele><time>2026-04-12T13:45:16.033Z</time></trkpt><trkpt lat="42.86640006471314" lon="12.26398405073065"><ele>429.20000000000005</ele><time>2026-04-12T13:45:17.033Z</time></trkpt><trkpt lat="42.86650491383533" lon="12.264063243357796"><ele>431.40000000000003</ele><time>2026-04-12T13:45:18.033Z</time></trkpt><trkpt lat="42.86660457999743" lon="12.264132040924299"><ele>433.59999999999997</ele><time>2026-04-12T13:45:19.033Z</time></trkpt><trkpt lat="42.86670316524717" lon="12.264198969068731"><ele>435.79999999999995</ele><time>2026-04-12T13:45:20.033Z</time></trkpt><trkpt lat="42.866795961241415" lon="12.264258816712273"><ele>438.0</ele><time>2026-04-12T13:45:21.033Z</time></trkpt><trkpt lat="42.86688166829021" lon="12.264322468301303"><ele>438.0</ele><time>2026-04-12T13:45:22.033Z</time></trkpt><trkpt lat="42.8669757768509" lon="12.264386055950894"><ele>437.99999999999994</ele><time>2026-04-12T13:45:23.033Z</time></trkpt><trkpt lat="42.867068946488295" lon="12.26445426413772"><ele>437.99999999999994</ele><time>2026-04-12T13:45:24.033Z</time></trkpt><trkpt lat="42.86715960428954" lon="12.26452025422471"><ele>438.0</ele><time>2026-04-12T13:45:25.033Z</time></trkpt><trkpt lat="42.86724299188158" lon="12.26458625509415"><ele>438.0</ele><time>2026-04-12T13:45:26.033Z</time></trkpt><trkpt lat="42.867313016785346" lon="12.264649414678848"><ele>438.0</ele><time>2026-04-12T13:45:27.033Z</time></trkpt><trkpt lat="42.86737498814215" lon="12.264724886472118"><ele>438.0</ele><time>2026-04-12T13:45:28.033Z</time></trkpt><trkpt lat="42.867434541041824" lon="12.264816510809332"><ele>438.0</ele><time>2026-04-12T13:45:29.033Z</time></trkpt><trkpt lat="42.86748759341946" lon="12.264914462723628"><ele>438.0</ele><time>2026-04-12T13:45:30.033Z</time></trkpt><trkpt lat="42.86753157708786" lon="12.265022284639954"><ele>438.0</ele><time>2026-04-12T13:45:31.033Z</time></trkpt><trkpt lat="42.867578557893964" lon="12.265130903572972"><ele>438.0</ele><time>2026-04-12T13:45:32.033Z</time></trkpt><trkpt lat="42.867626058377766" lon="12.265249816330645"><ele>440.0</ele><time>2026-04-12T13:45:33.033Z</time></trkpt><trkpt lat="42.86765964179137" lon="12.265378239178943"><ele>441.99999999999994</ele><time>2026-04-12T13:45:34.033Z</time></trkpt><trkpt lat="42.867700619922616" lon="12.265504151800798"><ele>443.99999999999994</ele><time>2026-04-12T13:45:35.033Z</time></trkpt><trkpt lat="42.86774071411684" lon="12.26562447962584"><ele>446.0</ele><time>2026-04-12T13:45:36.033Z</time></trkpt><trkpt lat="42.867776851499706" lon="12.26574792554983"><ele>448.0</ele><time>2026-04-12T13:45:37.033Z</time></trkpt><trkpt lat="42.8678121578203" lon="12.26586998254107"><ele>449.50000000000006</ele><time>2026-04-12T13:45:38.032Z</time></trkpt><trkpt lat="42.86785257878794" lon="12.265992917998563"><ele>451.0</ele><time>2026-04-12T13:45:39.032Z</time></trkpt><trkpt lat="42.86788491032188" lon="12.266107724838957"><ele>452.5</ele><time>2026-04-12T13:45:40.032Z</time></trkpt><trkpt lat="42.86791654214699" lon="12.266220106646886"><ele>454.0</ele><time>2026-04-12T13:45:41.032Z</time></trkpt><trkpt lat="42.8679377880958" lon="12.266314280770638"><ele>455.50000000000006</ele><time>2026-04-12T13:45:42.032Z</time></trkpt><trkpt lat="42.86797530389598" lon="12.266411150562492"><ele>457.0</ele><time>2026-04-12T13:45:43.032Z</time></trkpt><trkpt lat="42.867996864625354" lon="12.266515432436611"><ele>457.33333333333337</ele><time>2026-04-12T13:45:44.032Z</time></trkpt><trkpt lat="42.86802176747948" lon="12.266615304346129"><ele>457.6666666666667</ele><time>2026-04-12T13:45:45.032Z</time></trkpt><trkpt lat="42.86804816392448" lon="12.266696945069166"><ele>458.0</ele><time>2026-04-12T13:45:46.032Z</time></trkpt><trkpt lat="42.86807167330639" lon="12.26679256730469"><ele>458.33333333333337</ele><time>2026-04-12T13:45:47.032Z</time></trkpt><trkpt lat="42.86809303541407" lon="12.266906277797501"><ele>458.6666666666667</ele><time>2026-04-12T13:45:48.032Z</time></trkpt><trkpt lat="42.86809908542744" lon="12.267010214011044"><ele>459.0</ele><time>2026-04-12T13:45:49.032Z</time></trkpt><trkpt lat="42.86810301343363" lon="12.26712246057248"><ele>459.0</ele><time>2026-04-12T13:45:50.032Z</time></trkpt><trkpt lat="42.868103171900096" lon="12.26723042071125"><ele>459.0</ele><time>2026-04-12T13:45:51.032Z</time></trkpt><trkpt lat="42.868104003629774" lon="12.267350730799373"><ele>459.0</ele><time>2026-04-12T13:45:52.032Z</time></trkpt><trkpt lat="42.86809358897342" lon="12.267460956746145"><ele>459.0</ele><time>2026-04-12T13:45:53.032Z</time></trkpt><trkpt lat="42.86807733717375" lon="12.267585711395016"><ele>459.0</ele><time>2026-04-12T13:45:54.032Z</time></trkpt><trkpt lat="42.86806604671045" lon="12.267714064012182"><ele>459.0</ele><time>2026-04-12T13:45:55.032Z</time></trkpt><trkpt lat="42.86805727854436" lon="12.267839790050848"><ele>458.6666666666667</ele><time>2026-04-12T13:45:56.032Z</time></trkpt><trkpt lat="42.86804778960331" lon="12.267959184456352"><ele>458.33333333333337</ele><time>2026-04-12T13:45:57.032Z</time></trkpt><trkpt lat="42.86804097469614" lon="12.268076079921583"><ele>458.0</ele><time>2026-04-12T13:45:58.032Z</time></trkpt><trkpt lat="42.86804544470008" lon="12.268193591910297"><ele>457.6666666666667</ele><time>2026-04-12T13:45:59.032Z</time></trkpt><trkpt lat="42.868055696115206" lon="12.26831254162038"><ele>457.33333333333337</ele><time>2026-04-12T13:46:00.032Z</time></trkpt><trkpt lat="42.86808062714308" lon="12.268428508131736"><ele>457.0</ele><time>2026-04-12T13:46:01.032Z</time></trkpt><trkpt lat="42.86811820167272" lon="12.268531472364627"><ele>456.40000000000003</ele><time>2026-04-12T13:46:02.032Z</time></trkpt><trkpt lat="42.86817356275414" lon="12.268629964767591"><ele>455.80000000000007</ele><time>2026-04-12T13:46:03.032Z</time></trkpt><trkpt lat="42.86824438959923" lon="12.268724690996457"><ele>455.2</ele><time>2026-04-12T13:46:04.032Z</time></trkpt><trkpt lat="42.86831950162323" lon="12.26881118934415"><ele>454.6</ele><time>2026-04-12T13:46:05.032Z</time></trkpt><trkpt lat="42.86839340191578" lon="12.268891474141823"><ele>454.0</ele><time>2026-04-12T13:46:06.032Z</time></trkpt><trkpt lat="42.86846605619435" lon="12.26897119503711"><ele>453.2</ele><time>2026-04-12T13:46:07.032Z</time></trkpt><trkpt lat="42.8685289155655" lon="12.26905919069926"><ele>452.4</ele><time>2026-04-12T13:46:08.032Z</time></trkpt><trkpt lat="42.8685802156429" lon="12.269170578920926"><ele>451.6</ele><time>2026-04-12T13:46:09.032Z</time></trkpt><trkpt lat="42.8686145454574" lon="12.269301932079705"><ele>450.8</ele><time>2026-04-12T13:46:10.032Z</time></trkpt><trkpt lat="42.868631573536994" lon="12.26944378512175"><ele>450.0</ele><time>2026-04-12T13:46:11.032Z</time></trkpt><trkpt lat="42.86861530439433" lon="12.269578327656642"><ele>450.0</ele><time>2026-04-12T13:46:12.032Z</time></trkpt><trkpt lat="42.86858772932899" lon="12.269712237823327"><ele>450.0</ele><time>2026-04-12T13:46:13.032Z</time></trkpt><trkpt lat="42.868555650682325" lon="12.269842146580674"><ele>450.0</ele><time>2026-04-12T13:46:14.032Z</time></trkpt><trkpt lat="42.86852643990724" lon="12.26997082208492"><ele>450.0</ele><time>2026-04-12T13:46:15.032Z</time></trkpt><trkpt lat="42.8685207675001" lon="12.270105945936175"><ele>450.0</ele><time>2026-04-12T13:46:16.032Z</time></trkpt><trkpt lat="42.86854355558792" lon="12.27024126012941"><ele>448.4</ele><time>2026-04-12T13:46:17.032Z</time></trkpt><trkpt lat="42.86859105607508" lon="12.270364790786022"><ele>446.8</ele><time>2026-04-12T13:46:18.032Z</time></trkpt><trkpt lat="42.868667269006956" lon="12.27046993777835"><ele>445.20000000000005</ele><time>2026-04-12T13:46:19.032Z</time></trkpt><trkpt lat="42.868753068597854" lon="12.27054896406081"><ele>443.6</ele><time>2026-04-12T13:46:20.032Z</time></trkpt><trkpt lat="42.868854402261825" lon="12.270600463893262"><ele>442.0</ele><time>2026-04-12T13:46:21.032Z</time></trkpt><trkpt lat="42.868964310494185" lon="12.270617058241944"><ele>442.0</ele><time>2026-04-12T13:46:22.035Z</time></trkpt><trkpt lat="42.8690723653074" lon="12.270596190214475"><ele>442.0</ele><time>2026-04-12T13:46:23.035Z</time></trkpt><trkpt lat="42.86918563069524" lon="12.270542271437446"><ele>442.0</ele><time>2026-04-12T13:46:24.035Z</time></trkpt><trkpt lat="42.869286615788006" lon="12.270469490862336"><ele>442.0</ele><time>2026-04-12T13:46:25.035Z</time></trkpt><trkpt lat="42.86938243600941" lon="12.270390532323384"><ele>440.0</ele><time>2026-04-12T13:46:26.034Z</time></trkpt><trkpt lat="42.86947863035135" lon="12.27031096766937"><ele>438.0</ele><time>2026-04-12T13:46:27.034Z</time></trkpt><trkpt lat="42.86957898436381" lon="12.270238676058115"><ele>436.0</ele><time>2026-04-12T13:46:28.035Z</time></trkpt><trkpt lat="42.86968262335704" lon="12.27017143965842"><ele>434.0</ele><time>2026-04-12T13:46:29.035Z</time></trkpt><trkpt lat="42.869797285142084" lon="12.270127066916558"><ele>434.0</ele><time>2026-04-12T13:46:30.035Z</time></trkpt><trkpt lat="42.86991667964784" lon="12.270111977478582"><ele>434.0</ele><time>2026-04-12T13:46:31.035Z</time></trkpt><trkpt lat="42.870046850200964" lon="12.27012101883555"><ele>434.0</ele><time>2026-04-12T13:46:32.035Z</time></trkpt><trkpt lat="42.870181925423225" lon="12.270149395641678"><ele>434.0</ele><time>2026-04-12T13:46:33.035Z</time></trkpt><trkpt lat="42.87032302808205" lon="12.270200282374535"><ele>432.0</ele><time>2026-04-12T13:46:34.035Z</time></trkpt><trkpt lat="42.870460543449376" lon="12.270267806978254"><ele>430.0</ele><time>2026-04-12T13:46:35.035Z</time></trkpt><trkpt lat="42.87059770636789" lon="12.270350528466022"><ele>428.0</ele><time>2026-04-12T13:46:36.035Z</time></trkpt><trkpt lat="42.87072893251528" lon="12.270426768415586"><ele>426.0</ele><time>2026-04-12T13:46:37.035Z</time></trkpt><trkpt lat="42.87086181572609" lon="12.270500501675214"><ele>424.75</ele><time>2026-04-12T13:46:38.035Z</time></trkpt><trkpt lat="42.870998092536716" lon="12.270571769722114"><ele>423.5</ele><time>2026-04-12T13:46:39.035Z</time></trkpt><trkpt lat="42.87113895421573" lon="12.270642981058112"><ele>422.25</ele><time>2026-04-12T13:46:40.035Z</time></trkpt><trkpt lat="42.87128339452526" lon="12.270700009257757"><ele>421.0</ele><time>2026-04-12T13:46:41.035Z</time></trkpt><trkpt lat="42.871435862940764" lon="12.270733536571361"><ele>421.0</ele><time>2026-04-12T13:46:42.035Z</time></trkpt><trkpt lat="42.87159744683374" lon="12.270768347250186"><ele>421.0</ele><time>2026-04-12T13:46:43.035Z</time></trkpt><trkpt lat="42.87175250655588" lon="12.27081256694664"><ele>421.0</ele><time>2026-04-12T13:46:44.035Z</time></trkpt><trkpt lat="42.87188223057491" lon="12.27086215846079"><ele>421.5</ele><time>2026-04-12T13:46:45.035Z</time></trkpt><trkpt lat="42.87200396170659" lon="12.270912243617694"><ele>422.0</ele><time>2026-04-12T13:46:46.035Z</time></trkpt><trkpt lat="42.87212345372736" lon="12.270949769401673"><ele>422.5</ele><time>2026-04-12T13:46:47.035Z</time></trkpt><trkpt lat="42.8722407521672" lon="12.270986676256836"><ele>423.0</ele><time>2026-04-12T13:46:48.035Z</time></trkpt><trkpt lat="42.87235512354821" lon="12.271040882879081"><ele>423.0</ele><time>2026-04-12T13:46:49.035Z</time></trkpt><trkpt lat="42.87246336837461" lon="12.27111362606479"><ele>423.0</ele><time>2026-04-12T13:46:50.035Z</time></trkpt><trkpt lat="42.872557433831915" lon="12.271211890557803"><ele>423.0</ele><time>2026-04-12T13:46:51.035Z</time></trkpt><trkpt lat="42.87263173861738" lon="12.27134024462351"><ele>423.0</ele><time>2026-04-12T13:46:52.035Z</time></trkpt><trkpt lat="42.87267861525945" lon="12.27149026376783"><ele>420.75</ele><time>2026-04-12T13:46:53.035Z</time></trkpt><trkpt lat="42.87270190781415" lon="12.271656122148391"><ele>418.5</ele><time>2026-04-12T13:46:54.035Z</time></trkpt><trkpt lat="42.87269187607066" lon="12.271829181666774"><ele>416.25</ele><time>2026-04-12T13:46:55.035Z</time></trkpt><trkpt lat="42.872669231235896" lon="12.272007663910312"><ele>414.0</ele><time>2026-04-12T13:46:56.035Z</time></trkpt><trkpt lat="42.872664616091825" lon="12.272191313138746"><ele>413.0</ele><time>2026-04-12T13:46:57.035Z</time></trkpt><trkpt lat="42.87267817033592" lon="12.272371732508597"><ele>412.0</ele><time>2026-04-12T13:46:58.035Z</time></trkpt><trkpt lat="42.87269789533171" lon="12.272542728033576"><ele>411.0</ele><time>2026-04-12T13:46:59.035Z</time></trkpt><trkpt lat="42.87271785198486" lon="12.272712574717175"><ele>410.0</ele><time>2026-04-12T13:47:00.035Z</time></trkpt><trkpt lat="42.87274105575101" lon="12.272889416748368"><ele>410.0</ele><time>2026-04-12T13:47:01.035Z</time></trkpt><trkpt lat="42.87275831943699" lon="12.273071073497904"><ele>410.0</ele><time>2026-04-12T13:47:02.035Z</time></trkpt><trkpt lat="42.87276452227888" lon="12.273256385827857"><ele>410.0</ele><time>2026-04-12T13:47:03.035Z</time></trkpt><trkpt lat="42.872767812313334" lon="12.273436819618583"><ele>410.0</ele><time>2026-04-12T13:47:04.035Z</time></trkpt><trkpt lat="42.87276795604261" lon="12.273615755682274"><ele>407.75</ele><time>2026-04-12T13:47:05.035Z</time></trkpt><trkpt lat="42.8727623983294" lon="12.273795131799108"><ele>405.5</ele><time>2026-04-12T13:47:06.035Z</time></trkpt><trkpt lat="42.87275029768064" lon="12.273977723909212"><ele>403.25</ele><time>2026-04-12T13:47:07.035Z</time></trkpt><trkpt lat="42.87273603102173" lon="12.274160191523404"><ele>401.0</ele><time>2026-04-12T13:47:08.035Z</time></trkpt><trkpt lat="42.872726112669426" lon="12.27433928208562"><ele>399.5</ele><time>2026-04-12T13:47:09.035Z</time></trkpt><trkpt lat="42.87272485917371" lon="12.274517266992437"><ele>398.0</ele><time>2026-04-12T13:47:10.035Z</time></trkpt><trkpt lat="42.87273121092923" lon="12.274693089871688"><ele>396.5</ele><time>2026-04-12T13:47:11.034Z</time></trkpt><trkpt lat="42.872751463812975" lon="12.274870626172914"><ele>395.0</ele><time>2026-04-12T13:47:12.034Z</time></trkpt><trkpt lat="42.872793126297545" lon="12.275055757960333"><ele>395.25</ele><time>2026-04-12T13:47:13.034Z</time></trkpt><trkpt lat="42.872847749713664" lon="12.275240307478352"><ele>395.5</ele><time>2026-04-12T13:47:14.034Z</time></trkpt><trkpt lat="42.872914020049464" lon="12.27541408344484"><ele>395.75</ele><time>2026-04-12T13:47:15.034Z</time></trkpt><trkpt lat="42.87297516379036" lon="12.275587878748356"><ele>396.0</ele><time>2026-04-12T13:47:16.034Z</time></trkpt><trkpt lat="42.87303285281185" lon="12.27575285188535"><ele>396.0</ele><time>2026-04-12T13:47:17.034Z</time></trkpt><trkpt lat="42.87309547999094" lon="12.275915760271344"><ele>396.0</ele><time>2026-04-12T13:47:18.034Z</time></trkpt><trkpt lat="42.873158840882404" lon="12.27608602940896"><ele>396.0</ele><time>2026-04-12T13:47:19.034Z</time></trkpt><trkpt lat="42.87322319034609" lon="12.276270615627965"><ele>396.0</ele><time>2026-04-12T13:47:20.034Z</time></trkpt><trkpt lat="42.87329017034671" lon="12.276462571077078"><ele>396.25</ele><time>2026-04-12T13:47:21.034Z</time></trkpt><trkpt lat="42.87335306227072" lon="12.276640024114972"><ele>396.5</ele><time>2026-04-12T13:47:22.034Z</time></trkpt><trkpt lat="42.8734176020711" lon="12.276803088465003"><ele>396.75</ele><time>2026-04-12T13:47:23.034Z</time></trkpt><trkpt lat="42.87349418980915" lon="12.276945088118536"><ele>397.0</ele><time>2026-04-12T13:47:24.034Z</time></trkpt><trkpt lat="42.873594643161226" lon="12.277054314543841"><ele>397.0</ele><time>2026-04-12T13:47:25.034Z</time></trkpt><trkpt lat="42.873715645558924" lon="12.277135132636245"><ele>397.0</ele><time>2026-04-12T13:47:26.034Z</time></trkpt><trkpt lat="42.87383574514844" lon="12.277181032596081"><ele>397.0</ele><time>2026-04-12T13:47:27.034Z</time></trkpt><trkpt lat="42.87395022492004" lon="12.277237031999457"><ele>397.0</ele><time>2026-04-12T13:47:28.034Z</time></trkpt><trkpt lat="42.87404178459058" lon="12.277341216063421"><ele>395.75</ele><time>2026-04-12T13:47:29.034Z</time></trkpt><trkpt lat="42.87411853500065" lon="12.277486026149646"><ele>394.5</ele><time>2026-04-12T13:47:30.034Z</time></trkpt><trkpt lat="42.87418715282377" lon="12.277665124406118"><ele>393.25</ele><time>2026-04-12T13:47:31.034Z</time></trkpt><trkpt lat="42.874262717445816" lon="12.277840278592613"><ele>392.0</ele><time>2026-04-12T13:47:32.034Z</time></trkpt><trkpt lat="42.87435686696951" lon="12.278008774172719"><ele>395.66666666666663</ele><time>2026-04-12T13:47:33.034Z</time></trkpt><trkpt lat="42.87446449980963" lon="12.27819227194449"><ele>399.33333333333337</ele><time>2026-04-12T13:47:34.034Z</time></trkpt><trkpt lat="42.87457125831102" lon="12.278364745197885"><ele>403.0</ele><time>2026-04-12T13:47:35.034Z</time></trkpt><trkpt lat="42.87468008358155" lon="12.278524653557927"><ele>403.0</ele><time>2026-04-12T13:47:36.034Z</time></trkpt><trkpt lat="42.874783638822755" lon="12.278668639419578"><ele>403.0</ele><time>2026-04-12T13:47:37.034Z</time></trkpt><trkpt lat="42.87489698676757" lon="12.278788204341478"><ele>403.0</ele><time>2026-04-12T13:47:38.034Z</time></trkpt><trkpt lat="42.87501417277242" lon="12.278881376609123"><ele>403.0</ele><time>2026-04-12T13:47:39.034Z</time></trkpt><trkpt lat="42.87513081588991" lon="12.278963137482178"><ele>403.75</ele><time>2026-04-12T13:47:40.034Z</time></trkpt><trkpt lat="42.87523785175584" lon="12.279038485029456"><ele>404.5</ele><time>2026-04-12T13:47:41.034Z</time></trkpt><trkpt lat="42.875335626198144" lon="12.279115800599577"><ele>405.25</ele><time>2026-04-12T13:47:42.034Z</time></trkpt><trkpt lat="42.875435230157954" lon="12.279182907572205"><ele>406.0</ele><time>2026-04-12T13:47:43.034Z</time></trkpt><trkpt lat="42.87553788581865" lon="12.279250651457383"><ele>406.0</ele><time>2026-04-12T13:47:44.034Z</time></trkpt><trkpt lat="42.87564443719836" lon="12.279310697782025"><ele>406.0</ele><time>2026-04-12T13:47:45.034Z</time></trkpt><trkpt lat="42.87576273310262" lon="12.279380908654511"><ele>406.0</ele><time>2026-04-12T13:47:46.034Z</time></trkpt><trkpt lat="42.87588708691293" lon="12.279461313879601"><ele>406.0</ele><time>2026-04-12T13:47:47.034Z</time></trkpt><trkpt lat="42.876003830680226" lon="12.279537292163464"><ele>406.0</ele><time>2026-04-12T13:47:48.034Z</time></trkpt><trkpt lat="42.87611797354863" lon="12.279608270956368"><ele>406.0</ele><time>2026-04-12T13:47:49.034Z</time></trkpt><trkpt lat="42.87622194181635" lon="12.279670273334208"><ele>406.0</ele><time>2026-04-12T13:47:50.034Z</time></trkpt><trkpt lat="42.87631007050708" lon="12.27972894274161"><ele>406.0</ele><time>2026-04-12T13:47:51.034Z</time></trkpt><trkpt lat="42.876382536908835" lon="12.279796303065947"><ele>406.0</ele><time>2026-04-12T13:47:52.034Z</time></trkpt><trkpt lat="42.87643980672209" lon="12.279884293083748"><ele>407.20000000000005</ele><time>2026-04-12T13:47:53.034Z</time></trkpt><trkpt lat="42.87648293325621" lon="12.279998762201659"><ele>408.40000000000003</ele><time>2026-04-12T13:47:54.034Z</time></trkpt><trkpt lat="42.876510008729895" lon="12.280121444943667"><ele>409.6</ele><time>2026-04-12T13:47:55.034Z</time></trkpt><trkpt lat="42.876556755944804" lon="12.280251633985785"><ele>410.8</ele><time>2026-04-12T13:47:56.034Z</time></trkpt><trkpt lat="42.87662680933259" lon="12.280363030895925"><ele>412.0</ele><time>2026-04-12T13:47:57.034Z</time></trkpt><trkpt lat="42.87672278991465" lon="12.280441351804901"><ele>411.25</ele><time>2026-04-12T13:47:58.034Z</time></trkpt><trkpt lat="42.876838331030235" lon="12.280487236433807"><ele>410.5</ele><time>2026-04-12T13:47:59.034Z</time></trkpt><trkpt lat="42.876967524267165" lon="12.280524961203866"><ele>409.75</ele><time>2026-04-12T13:48:00.034Z</time></trkpt><trkpt lat="42.87709676295053" lon="12.280596135301955"><ele>409.0</ele><time>2026-04-12T13:48:01.034Z</time></trkpt><trkpt lat="42.87721638973175" lon="12.280709652324445"><ele>408.6666666666667</ele><time>2026-04-12T13:48:02.034Z</time></trkpt><trkpt lat="42.87732713901012" lon="12.28084855163213"><ele>408.33333333333337</ele><time>2026-04-12T13:48:03.034Z</time></trkpt><trkpt lat="42.87743669631332" lon="12.280995280555688"><ele>408.0</ele><time>2026-04-12T13:48:04.034Z</time></trkpt><trkpt lat="42.877536566137124" lon="12.281140649985032"><ele>408.0</ele><time>2026-04-12T13:48:05.034Z</time></trkpt><trkpt lat="42.87761172895712" lon="12.281286422409083"><ele>408.0</ele><time>2026-04-12T13:48:06.034Z</time></trkpt><trkpt lat="42.877657827842434" lon="12.281455379380427"><ele>408.0</ele><time>2026-04-12T13:48:07.034Z</time></trkpt><trkpt lat="42.87767262522777" lon="12.281629895867733"><ele>408.0</ele><time>2026-04-12T13:48:08.034Z</time></trkpt><trkpt lat="42.87765966663031" lon="12.281810960526123"><ele>408.25</ele><time>2026-04-12T13:48:09.034Z</time></trkpt><trkpt lat="42.87762776947403" lon="12.28200170165078"><ele>408.5</ele><time>2026-04-12T13:48:10.034Z</time></trkpt><trkpt lat="42.877597231592226" lon="12.282200158762015"><ele>408.75</ele><time>2026-04-12T13:48:11.034Z</time></trkpt><trkpt lat="42.877566839445954" lon="12.282402824928147"><ele>409.0</ele><time>2026-04-12T13:48:12.034Z</time></trkpt><trkpt lat="42.877544842177656" lon="12.282608116677055"><ele>407.6666666666667</ele><time>2026-04-12T13:48:13.034Z</time></trkpt><trkpt lat="42.87754773778844" lon="12.282822459087656"><ele>406.33333333333337</ele><time>2026-04-12T13:48:14.034Z</time></trkpt><trkpt lat="42.877576384261616" lon="12.283034276720215"><ele>405.0</ele><time>2026-04-12T13:48:15.034Z</time></trkpt><trkpt lat="42.87761336952546" lon="12.28324422206123"><ele>405.0</ele><time>2026-04-12T13:48:16.034Z</time></trkpt><trkpt lat="42.87762793569082" lon="12.283445096597209"><ele>405.0</ele><time>2026-04-12T13:48:17.034Z</time></trkpt><trkpt lat="42.87761337894684" lon="12.283626709300663"><ele>405.0</ele><time>2026-04-12T13:48:18.034Z</time></trkpt><trkpt lat="42.877558000648634" lon="12.28380312013348"><ele>405.0</ele><time>2026-04-12T13:48:19.034Z</time></trkpt><trkpt lat="42.877487431821876" lon="12.283984222829764"><ele>399.33333333333337</ele><time>2026-04-12T13:48:20.034Z</time></trkpt><trkpt lat="42.877414887649046" lon="12.284159662473096"><ele>393.6666666666667</ele><time>2026-04-12T13:48:21.034Z</time></trkpt><trkpt lat="42.87735382170012" lon="12.28434469787215"><ele>388.0</ele><time>2026-04-12T13:48:22.034Z</time></trkpt><trkpt lat="42.87730080387651" lon="12.284547229029974"><ele>388.0</ele><time>2026-04-12T13:48:23.033Z</time></trkpt><trkpt lat="42.877261158285165" lon="12.284756053510876"><ele>388.0</ele><time>2026-04-12T13:48:24.033Z</time></trkpt><trkpt lat="42.87724545499034" lon="12.284969733651598"><ele>388.0</ele><time>2026-04-12T13:48:25.033Z</time></trkpt><trkpt lat="42.87725118068923" lon="12.28518364664875"><ele>387.33333333333337</ele><time>2026-04-12T13:48:26.033Z</time></trkpt><trkpt lat="42.87727656734042" lon="12.285397823342358"><ele>386.66666666666663</ele><time>2026-04-12T13:48:27.033Z</time></trkpt><trkpt lat="42.87732163622432" lon="12.28560997000257"><ele>386.0</ele><time>2026-04-12T13:48:28.035Z</time></trkpt><trkpt lat="42.8773821296028" lon="12.285818372766634"><ele>387.3333333333333</ele><time>2026-04-12T13:48:29.035Z</time></trkpt><trkpt lat="42.8774617447279" lon="12.2860210200896"><ele>388.66666666666663</ele><time>2026-04-12T13:48:30.035Z</time></trkpt><trkpt lat="42.87756422432314" lon="12.286210635803332"><ele>390.0</ele><time>2026-04-12T13:48:31.036Z</time></trkpt><trkpt lat="42.87768380432642" lon="12.286388820554578"><ele>386.3333333333333</ele><time>2026-04-12T13:48:32.036Z</time></trkpt><trkpt lat="42.87781224310661" lon="12.28655480105486"><ele>382.66666666666663</ele><time>2026-04-12T13:48:33.036Z</time></trkpt><trkpt lat="42.877941977763406" lon="12.286718271518811"><ele>379.0</ele><time>2026-04-12T13:48:34.036Z</time></trkpt><trkpt lat="42.87805920838019" lon="12.286887901239965"><ele>379.0</ele><time>2026-04-12T13:48:35.036Z</time></trkpt><trkpt lat="42.878144999306684" lon="12.287062873949838"><ele>379.0</ele><time>2026-04-12T13:48:36.036Z</time></trkpt><trkpt lat="42.8782033745442" lon="12.28722664608669"><ele>379.0</ele><time>2026-04-12T13:48:37.036Z</time></trkpt><trkpt lat="42.8782293619266" lon="12.28737757952444"><ele>379.0</ele><time>2026-04-12T13:48:38.036Z</time></trkpt><trkpt lat="42.878223781492984" lon="12.287523921447168"><ele>377.2</ele><time>2026-04-12T13:48:39.036Z</time></trkpt><trkpt lat="42.878187164745654" lon="12.287661515322961"><ele>375.4</ele><time>2026-04-12T13:48:40.036Z</time></trkpt><trkpt lat="42.878128925860544" lon="12.287774706625406"><ele>373.6</ele><time>2026-04-12T13:48:41.036Z</time></trkpt><trkpt lat="42.87804465560989" lon="12.287869289234385"><ele>371.8</ele><time>2026-04-12T13:48:42.036Z</time></trkpt><trkpt lat="42.8779415596158" lon="12.287926442057694"><ele>370.0</ele><time>2026-04-12T13:48:43.036Z</time></trkpt><trkpt lat="42.877828610732216" lon="12.287932436105246"><ele>370.0</ele><time>2026-04-12T13:48:44.036Z</time></trkpt><trkpt lat="42.87772185261193" lon="12.287886062156309"><ele>370.0</ele><time>2026-04-12T13:48:45.036Z</time></trkpt><trkpt lat="42.87762561219835" lon="12.28779500617535"><ele>370.0</ele><time>2026-04-12T13:48:46.036Z</time></trkpt><trkpt lat="42.87752976060135" lon="12.287680506583644"><ele>370.0</ele><time>2026-04-12T13:48:47.036Z</time></trkpt><trkpt lat="42.877423887415446" lon="12.287554722634633"><ele>367.0</ele><time>2026-04-12T13:48:48.036Z</time></trkpt><trkpt lat="42.87731008510577" lon="12.287456134988249"><ele>364.0</ele><time>2026-04-12T13:48:49.036Z</time></trkpt><trkpt lat="42.87718614772321" lon="12.287397657356173"><ele>361.0</ele><time>2026-04-12T13:48:50.036Z</time></trkpt><trkpt lat="42.87705610977749" lon="12.28738466327413"><ele>358.0</ele><time>2026-04-12T13:48:51.036Z</time></trkpt><trkpt lat="42.87693177908634" lon="12.287409089464658"><ele>358.0</ele><time>2026-04-12T13:48:52.036Z</time></trkpt><trkpt lat="42.87681220432216" lon="12.287477800808075"><ele>358.0</ele><time>2026-04-12T13:48:53.036Z</time></trkpt><trkpt lat="42.876707920639326" lon="12.287580558386635"><ele>358.0</ele><time>2026-04-12T13:48:54.036Z</time></trkpt><trkpt lat="42.87662922900269" lon="12.287710718075258"><ele>358.0</ele><time>2026-04-12T13:48:55.036Z</time></trkpt><trkpt lat="42.87657892397561" lon="12.287865348274796"><ele>356.25</ele><time>2026-04-12T13:48:56.036Z</time></trkpt><trkpt lat="42.87655779571368" lon="12.288034203384198"><ele>354.5</ele><time>2026-04-12T13:48:57.036Z</time></trkpt><trkpt lat="42.87657256506735" lon="12.288208084401768"><ele>352.75</ele><time>2026-04-12T13:48:58.036Z</time></trkpt><trkpt lat="42.87662388520515" lon="12.288366704643177"><ele>351.0</ele><time>2026-04-12T13:48:59.036Z</time></trkpt><trkpt lat="42.87670697235981" lon="12.288502671874724"><ele>351.0</ele><time>2026-04-12T13:49:00.036Z</time></trkpt><trkpt lat="42.87682266537531" lon="12.288639112301036"><ele>351.0</ele><time>2026-04-12T13:49:01.036Z</time></trkpt><trkpt lat="42.87696287385524" lon="12.28876946813033"><ele>351.0</ele><time>2026-04-12T13:49:02.036Z</time></trkpt><trkpt lat="42.877125270896265" lon="12.288932365859031"><ele>351.0</ele><time>2026-04-12T13:49:03.036Z</time></trkpt><trkpt lat="42.877288097458305" lon="12.289118671502584"><ele>351.0</ele><time>2026-04-12T13:49:04.036Z</time></trkpt><trkpt lat="42.877456634710875" lon="12.289306827557803"><ele>351.0</ele><time>2026-04-12T13:49:05.036Z</time></trkpt><trkpt lat="42.877617574214725" lon="12.289490448923734"><ele>347.3333333333333</ele><time>2026-04-12T13:49:06.036Z</time></trkpt><trkpt lat="42.87777945812813" lon="12.28966779008968"><ele>343.66666666666663</ele><time>2026-04-12T13:49:07.036Z</time></trkpt><trkpt lat="42.87792521956829" lon="12.289831673910653"><ele>340.0</ele><time>2026-04-12T13:49:08.036Z</time></trkpt><trkpt lat="42.87807119627633" lon="12.289998844868219"><ele>340.0</ele><time>2026-04-12T13:49:09.036Z</time></trkpt><trkpt lat="42.8782019019563" lon="12.290152010296099"><ele>340.0</ele><time>2026-04-12T13:49:10.036Z</time></trkpt><trkpt lat="42.87832343535878" lon="12.290290528085531"><ele>340.0</ele><time>2026-04-12T13:49:11.036Z</time></trkpt><trkpt lat="42.878429093894745" lon="12.29042738101933"><ele>336.0</ele><time>2026-04-12T13:49:12.036Z</time></trkpt><trkpt lat="42.87851084730567" lon="12.290584620912039"><ele>332.0</ele><time>2026-04-12T13:49:13.036Z</time></trkpt><trkpt lat="42.8785751034403" lon="12.290756371604097"><ele>328.0</ele><time>2026-04-12T13:49:14.036Z</time></trkpt><trkpt lat="42.87862330170512" lon="12.290930188843447"><ele>324.0</ele><time>2026-04-12T13:49:15.036Z</time></trkpt><trkpt lat="42.878671617867035" lon="12.291100165179891"><ele>323.75</ele><time>2026-04-12T13:49:16.036Z</time></trkpt><trkpt lat="42.87871900072231" lon="12.291266863743308"><ele>323.5</ele><time>2026-04-12T13:49:17.036Z</time></trkpt><trkpt lat="42.878766754611064" lon="12.291427935476639"><ele>323.25</ele><time>2026-04-12T13:49:18.036Z</time></trkpt><trkpt lat="42.87880709897715" lon="12.291585726741356"><ele>323.0</ele><time>2026-04-12T13:49:19.036Z</time></trkpt><trkpt lat="42.87884867696038" lon="12.291736104569214"><ele>323.0</ele><time>2026-04-12T13:49:20.035Z</time></trkpt><trkpt lat="42.87888318291165" lon="12.291883224612068"><ele>323.0</ele><time>2026-04-12T13:49:21.035Z</time></trkpt><trkpt lat="42.878904152724495" lon="12.292025036508027"><ele>323.0</ele><time>2026-04-12T13:49:22.035Z</time></trkpt><trkpt lat="42.87890109166603" lon="12.292164433980851"><ele>323.0</ele><time>2026-04-12T13:49:23.035Z</time></trkpt><trkpt lat="42.878888044319424" lon="12.292307729228142"><ele>323.0</ele><time>2026-04-12T13:49:24.035Z</time></trkpt><trkpt lat="42.87886816258078" lon="12.29245768438315"><ele>324.75</ele><time>2026-04-12T13:49:25.035Z</time></trkpt><trkpt lat="42.87884508839465" lon="12.292607639359678"><ele>326.5</ele><time>2026-04-12T13:49:26.035Z</time></trkpt><trkpt lat="42.87882436710392" lon="12.292764075233787"><ele>328.25</ele><time>2026-04-12T13:49:27.035Z</time></trkpt><trkpt lat="42.878809015659314" lon="12.292920866007343"><ele>330.0</ele><time>2026-04-12T13:49:28.035Z</time></trkpt><trkpt lat="42.87878698749576" lon="12.293089475184413"><ele>332.25</ele><time>2026-04-12T13:49:29.035Z</time></trkpt><trkpt lat="42.87878419622326" lon="12.293264907253182"><ele>334.5</ele><time>2026-04-12T13:49:30.035Z</time></trkpt><trkpt lat="42.87879506974716" lon="12.293453256142067"><ele>336.75</ele><time>2026-04-12T13:49:31.035Z</time></trkpt><trkpt lat="42.87881900143785" lon="12.293637691835153"><ele>339.0</ele><time>2026-04-12T13:49:32.035Z</time></trkpt><trkpt lat="42.87885174347873" lon="12.293816839849537"><ele>337.2</ele><time>2026-04-12T13:49:33.035Z</time></trkpt><trkpt lat="42.87888918470601" lon="12.293978112645204"><ele>335.4</ele><time>2026-04-12T13:49:34.035Z</time></trkpt><trkpt lat="42.87893629363442" lon="12.294118042070842"><ele>333.6</ele><time>2026-04-12T13:49:35.035Z</time></trkpt><trkpt lat="42.87898092841732" lon="12.294227938300963"><ele>331.8</ele><time>2026-04-12T13:49:36.035Z</time></trkpt><trkpt lat="42.878997564864974" lon="12.294319923234973"><ele>330.0</ele><time>2026-04-12T13:49:37.035Z</time></trkpt><trkpt lat="42.8789839395912" lon="12.294423770404869"><ele>330.0</ele><time>2026-04-12T13:49:38.035Z</time></trkpt><trkpt lat="42.87893796410632" lon="12.294541483873083"><ele>330.0</ele><time>2026-04-12T13:49:39.035Z</time></trkpt><trkpt lat="42.878869226323715" lon="12.29467135076259"><ele>330.0</ele><time>2026-04-12T13:49:40.035Z</time></trkpt><trkpt lat="42.87878649362228" lon="12.294806749684431"><ele>330.0</ele><time>2026-04-12T13:49:41.035Z</time></trkpt><trkpt lat="42.878699980257" lon="12.294945914604106"><ele>326.25</ele><time>2026-04-12T13:49:42.035Z</time></trkpt><trkpt lat="42.87862449778245" lon="12.295070681979242"><ele>322.5</ele><time>2026-04-12T13:49:43.035Z</time></trkpt><trkpt lat="42.87855025241977" lon="12.295186207034881"><ele>318.75</ele><time>2026-04-12T13:49:44.035Z</time></trkpt><trkpt lat="42.87845780683169" lon="12.295291740684773"><ele>315.0</ele><time>2026-04-12T13:49:45.035Z</time></trkpt><trkpt lat="42.87834863892037" lon="12.295364730120669"><ele>314.75</ele><time>2026-04-12T13:49:46.035Z</time></trkpt><trkpt lat="42.87822498106897" lon="12.295400109348623"><ele>314.5</ele><time>2026-04-12T13:49:47.035Z</time></trkpt><trkpt lat="42.87808873497699" lon="12.295401150417899"><ele>314.25</ele><time>2026-04-12T13:49:48.035Z</time></trkpt><trkpt lat="42.877945622456394" lon="12.295370817533133"><ele>314.0</ele><time>2026-04-12T13:49:49.035Z</time></trkpt><trkpt lat="42.87780742351216" lon="12.295316126035596"><ele>314.0</ele><time>2026-04-12T13:49:50.035Z</time></trkpt><trkpt lat="42.877676837767034" lon="12.295228785171854"><ele>314.0</ele><time>2026-04-12T13:49:51.035Z</time></trkpt><trkpt lat="42.87755164392462" lon="12.29512003976403"><ele>314.0</ele><time>2026-04-12T13:49:52.035Z</time></trkpt><trkpt lat="42.8774373271353" lon="12.295005257080662"><ele>314.0</ele><time>2026-04-12T13:49:53.035Z</time></trkpt><trkpt lat="42.87732472312427" lon="12.294907056678735"><ele>315.6666666666667</ele><time>2026-04-12T13:49:54.035Z</time></trkpt><trkpt lat="42.87722510303442" lon="12.294850550555042"><ele>317.33333333333337</ele><time>2026-04-12T13:49:55.035Z</time></trkpt><trkpt lat="42.87713918454911" lon="12.294833804797664"><ele>319.0</ele><time>2026-04-12T13:49:56.035Z</time></trkpt><trkpt lat="42.87706415569771" lon="12.2948685578016"><ele>320.6666666666667</ele><time>2026-04-12T13:49:57.035Z</time></trkpt><trkpt lat="42.87700846506158" lon="12.294945114350798"><ele>322.3333333333333</ele><time>2026-04-12T13:49:58.035Z</time></trkpt><trkpt lat="42.87697709812857" lon="12.295053386067078"><ele>324.0</ele><time>2026-04-12T13:49:59.035Z</time></trkpt><trkpt lat="42.876984728915886" lon="12.29517246701328"><ele>324.0</ele><time>2026-04-12T13:50:00.035Z</time></trkpt><trkpt lat="42.87702558801723" lon="12.295273679416866"><ele>324.0</ele><time>2026-04-12T13:50:01.035Z</time></trkpt><trkpt lat="42.87707032992483" lon="12.295367229666098"><ele>324.0</ele><time>2026-04-12T13:50:02.035Z</time></trkpt><trkpt lat="42.877132082789515" lon="12.295481847630382"><ele>324.0</ele><time>2026-04-12T13:50:03.035Z</time></trkpt><trkpt lat="42.8772013290292" lon="12.29562625539704"><ele>324.0</ele><time>2026-04-12T13:50:04.035Z</time></trkpt><trkpt lat="42.877282413859426" lon="12.295804483003446"><ele>327.6666666666667</ele><time>2026-04-12T13:50:05.035Z</time></trkpt><trkpt lat="42.87737720432649" lon="12.296015027686135"><ele>331.33333333333337</ele><time>2026-04-12T13:50:06.035Z</time></trkpt><trkpt lat="42.87747472562745" lon="12.29622998862372"><ele>335.0</ele><time>2026-04-12T13:50:07.035Z</time></trkpt><trkpt lat="42.87756489650101" lon="12.296425106711297"><ele>334.0</ele><time>2026-04-12T13:50:08.035Z</time></trkpt><trkpt lat="42.8776554026485" lon="12.296611825614326"><ele>333.0</ele><time>2026-04-12T13:50:09.035Z</time></trkpt><trkpt lat="42.87773921837897" lon="12.296773040339584"><ele>332.0</ele><time>2026-04-12T13:50:10.035Z</time></trkpt><trkpt lat="42.877816690451645" lon="12.296914015531392"><ele>331.0</ele><time>2026-04-12T13:50:11.035Z</time></trkpt><trkpt lat="42.8778753393254" lon="12.297045759588427"><ele>331.0</ele><time>2026-04-12T13:50:12.035Z</time></trkpt><trkpt lat="42.877898293010176" lon="12.297192501147755"><ele>331.0</ele><time>2026-04-12T13:50:13.035Z</time></trkpt><trkpt lat="42.87788949393881" lon="12.297328105823446"><ele>331.0</ele><time>2026-04-12T13:50:14.035Z</time></trkpt><trkpt lat="42.87784358396143" lon="12.29742948717359"><ele>331.0</ele><time>2026-04-12T13:50:15.035Z</time></trkpt><trkpt lat="42.8777778348583" lon="12.297471271761513"><ele>331.0</ele><time>2026-04-12T13:50:16.035Z</time></trkpt><trkpt lat="42.877705679981126" lon="12.297453209156027"><ele>331.0</ele><time>2026-04-12T13:50:17.035Z</time></trkpt><trkpt lat="42.87760589843369" lon="12.297408874277831"><ele>333.5</ele><time>2026-04-12T13:50:18.035Z</time></trkpt><trkpt lat="42.8774910134874" lon="12.297358357120439"><ele>336.0</ele><time>2026-04-12T13:50:19.035Z</time></trkpt><trkpt lat="42.877365219902636" lon="12.297293881270111"><ele>338.5</ele><time>2026-04-12T13:50:20.035Z</time></trkpt><trkpt lat="42.87723165886998" lon="12.297232740256984"><ele>341.0</ele><time>2026-04-12T13:50:21.035Z</time></trkpt><trkpt lat="42.87707669859867" lon="12.297168980532186"><ele>341.0</ele><time>2026-04-12T13:50:22.035Z</time></trkpt><trkpt lat="42.87691350813858" lon="12.297085602082651"><ele>341.0</ele><time>2026-04-12T13:50:23.035Z</time></trkpt><trkpt lat="42.87671956010524" lon="12.296993641173824"><ele>341.0</ele><time>2026-04-12T13:50:24.035Z</time></trkpt><trkpt lat="42.87650464603518" lon="12.296897630789735"><ele>346.5</ele><time>2026-04-12T13:50:25.035Z</time></trkpt><trkpt lat="42.87628392535615" lon="12.29679359776813"><ele>352.0</ele><time>2026-04-12T13:50:26.035Z</time></trkpt><trkpt lat="42.876072181202176" lon="12.296700634133208"><ele>355.3333333333333</ele><time>2026-04-12T13:50:27.035Z</time></trkpt><trkpt lat="42.87589734859818" lon="12.296623729047147"><ele>358.6666666666667</ele><time>2026-04-12T13:50:28.035Z</time></trkpt><trkpt lat="42.875751349840165" lon="12.296556335043082"><ele>362.0</ele><time>2026-04-12T13:50:29.035Z</time></trkpt><trkpt lat="42.87560954558834" lon="12.296496411470882"><ele>362.0</ele><time>2026-04-12T13:50:30.035Z</time></trkpt><trkpt lat="42.87548866783152" lon="12.296460744105888"><ele>362.0</ele><time>2026-04-12T13:50:31.035Z</time></trkpt><trkpt lat="42.875375314343096" lon="12.296457725988729"><ele>362.0</ele><time>2026-04-12T13:50:32.035Z</time></trkpt><trkpt lat="42.87527077571363" lon="12.296491363501715"><ele>362.0</ele><time>2026-04-12T13:50:33.034Z</time></trkpt><trkpt lat="42.87516402574202" lon="12.296557797512268"><ele>362.75</ele><time>2026-04-12T13:50:34.036Z</time></trkpt><trkpt lat="42.875064654042724" lon="12.296663294972225"><ele>363.5</ele><time>2026-04-12T13:50:35.036Z</time></trkpt><trkpt lat="42.87498487355733" lon="12.296798169145795"><ele>364.25</ele><time>2026-04-12T13:50:36.036Z</time></trkpt><trkpt lat="42.874923872246455" lon="12.296963671307095"><ele>365.0</ele><time>2026-04-12T13:50:37.036Z</time></trkpt><trkpt lat="42.87487181484385" lon="12.297162200446264"><ele>368.33333333333337</ele><time>2026-04-12T13:50:38.036Z</time></trkpt><trkpt lat="42.874823069950004" lon="12.297389440553944"><ele>371.6666666666667</ele><time>2026-04-12T13:50:39.036Z</time></trkpt><trkpt lat="42.87475814916765" lon="12.297641729372756"><ele>375.0</ele><time>2026-04-12T13:50:40.036Z</time></trkpt><trkpt lat="42.87468585119755" lon="12.29791081231133"><ele>378.33333333333337</ele><time>2026-04-12T13:50:41.037Z</time></trkpt><trkpt lat="42.87461548722994" lon="12.298199617136476"><ele>381.6666666666667</ele><time>2026-04-12T13:50:42.037Z</time></trkpt><trkpt lat="42.87455042750575" lon="12.298453472689845"><ele>385.0</ele><time>2026-04-12T13:50:43.037Z</time></trkpt><trkpt lat="42.874493513761294" lon="12.298653542125617"><ele>385.0</ele><time>2026-04-12T13:50:44.037Z</time></trkpt><trkpt lat="42.87443306485303" lon="12.29884218465948"><ele>385.0</ele><time>2026-04-12T13:50:45.037Z</time></trkpt><trkpt lat="42.874363702366054" lon="12.29901267276177"><ele>385.0</ele><time>2026-04-12T13:50:46.036Z</time></trkpt><trkpt lat="42.874272630670596" lon="12.299156711753906"><ele>385.0</ele><time>2026-04-12T13:50:47.037Z</time></trkpt><trkpt lat="42.87416265761985" lon="12.299238698173424"><ele>386.5</ele><time>2026-04-12T13:50:48.037Z</time></trkpt><trkpt lat="42.87403765374587" lon="12.299277517084205"><ele>388.0</ele><time>2026-04-12T13:50:49.037Z</time></trkpt><trkpt lat="42.873892660278095" lon="12.299307200888988"><ele>389.5</ele><time>2026-04-12T13:50:50.037Z</time></trkpt><trkpt lat="42.87373635933424" lon="12.299332994442198"><ele>391.0</ele><time>2026-04-12T13:50:51.037Z</time></trkpt><trkpt lat="42.87356504547897" lon="12.299361753289938"><ele>391.0</ele><time>2026-04-12T13:50:52.037Z</time></trkpt><trkpt lat="42.873386851106616" lon="12.299389862354891"><ele>391.0</ele><time>2026-04-12T13:50:53.037Z</time></trkpt><trkpt lat="42.873188539068146" lon="12.299427701348918"><ele>391.0</ele><time>2026-04-12T13:50:54.037Z</time></trkpt><trkpt lat="42.872989192544594" lon="12.299476654614766"><ele>391.0</ele><time>2026-04-12T13:50:55.037Z</time></trkpt><trkpt lat="42.87278949664713" lon="12.299521401472205"><ele>391.0</ele><time>2026-04-12T13:50:56.037Z</time></trkpt><trkpt lat="42.87261598145174" lon="12.299566038286121"><ele>391.0</ele><time>2026-04-12T13:50:57.037Z</time></trkpt><trkpt lat="42.872437403785355" lon="12.299601853688863"><ele>392.0</ele><time>2026-04-12T13:50:58.037Z</time></trkpt><trkpt lat="42.87227915358497" lon="12.299636405852368"><ele>393.0</ele><time>2026-04-12T13:50:59.037Z</time></trkpt><trkpt lat="42.87213657481655" lon="12.29968159143663"><ele>394.0</ele><time>2026-04-12T13:51:00.037Z</time></trkpt><trkpt lat="42.87201090490489" lon="12.299741446996498"><ele>395.0</ele><time>2026-04-12T13:51:01.037Z</time></trkpt><trkpt lat="42.8719169104086" lon="12.299827356668677"><ele>398.2</ele><time>2026-04-12T13:51:02.037Z</time></trkpt><trkpt lat="42.87185860805627" lon="12.299940809590312"><ele>401.4</ele><time>2026-04-12T13:51:03.037Z</time></trkpt><trkpt lat="42.87182733093103" lon="12.300064162388763"><ele>404.6</ele><time>2026-04-12T13:51:04.037Z</time></trkpt><trkpt lat="42.87183382077845" lon="12.300212488177467"><ele>407.8</ele><time>2026-04-12T13:51:05.037Z</time></trkpt><trkpt lat="42.87186144391231" lon="12.300377565477245"><ele>411.0</ele><time>2026-04-12T13:51:06.037Z</time></trkpt><trkpt lat="42.87189012450705" lon="12.300558638206178"><ele>412.5</ele><time>2026-04-12T13:51:07.037Z</time></trkpt><trkpt lat="42.87191685380699" lon="12.300747902354578"><ele>414.0</ele><time>2026-04-12T13:51:08.037Z</time></trkpt><trkpt lat="42.87194399489286" lon="12.300932147289375"><ele>415.5</ele><time>2026-04-12T13:51:09.037Z</time></trkpt><trkpt lat="42.87195868975284" lon="12.301109730790415"><ele>417.0</ele><time>2026-04-12T13:51:10.037Z</time></trkpt><trkpt lat="42.87194846285993" lon="12.301255268519999"><ele>417.0</ele><time>2026-04-12T13:51:11.037Z</time></trkpt><trkpt lat="42.87191333064442" lon="12.301400896640489"><ele>417.0</ele><time>2026-04-12T13:51:12.037Z</time></trkpt><trkpt lat="42.87185935292298" lon="12.301550016985843"><ele>417.0</ele><time>2026-04-12T13:51:13.037Z</time></trkpt><trkpt lat="42.87178667765182" lon="12.301715192415632"><ele>417.0</ele><time>2026-04-12T13:51:14.037Z</time></trkpt><trkpt lat="42.87169975112186" lon="12.301909363793346"><ele>420.0</ele><time>2026-04-12T13:51:15.037Z</time></trkpt><trkpt lat="42.87160515289083" lon="12.30209819815545"><ele>423.0</ele><time>2026-04-12T13:51:16.037Z</time></trkpt><trkpt lat="42.871505996589825" lon="12.3022747514325"><ele>426.0</ele><time>2026-04-12T13:51:17.037Z</time></trkpt><trkpt lat="42.8713872552216" lon="12.302421383504823"><ele>428.66666666666663</ele><time>2026-04-12T13:51:18.037Z</time></trkpt><trkpt lat="42.871248101362795" lon="12.302571988776405"><ele>431.3333333333333</ele><time>2026-04-12T13:51:19.037Z</time></trkpt><trkpt lat="42.871107276073914" lon="12.302695609959699"><ele>434.0</ele><time>2026-04-12T13:51:20.037Z</time></trkpt><trkpt lat="42.87096254917816" lon="12.302800079231911"><ele>433.3333333333333</ele><time>2026-04-12T13:51:21.037Z</time></trkpt><trkpt lat="42.870814021118534" lon="12.302880682234195"><ele>432.66666666666663</ele><time>2026-04-12T13:51:22.037Z</time></trkpt><trkpt lat="42.870648351565464" lon="12.30293859948233"><ele>432.0</ele><time>2026-04-12T13:51:23.037Z</time></trkpt><trkpt lat="42.870468105930804" lon="12.302973876847757"><ele>432.0</ele><time>2026-04-12T13:51:24.037Z</time></trkpt><trkpt lat="42.87028524374404" lon="12.30300355845896"><ele>432.0</ele><time>2026-04-12T13:51:25.037Z</time></trkpt><trkpt lat="42.87012266157429" lon="12.303029838085187"><ele>432.0</ele><time>2026-04-12T13:51:26.037Z</time></trkpt><trkpt lat="42.86998546568526" lon="12.303056956574238"><ele>433.6666666666667</ele><time>2026-04-12T13:51:27.037Z</time></trkpt><trkpt lat="42.86987744875823" lon="12.303101453755968"><ele>435.33333333333337</ele><time>2026-04-12T13:51:28.037Z</time></trkpt><trkpt lat="42.86979859334053" lon="12.303171945766513"><ele>437.0</ele><time>2026-04-12T13:51:29.037Z</time></trkpt><trkpt lat="42.869751203950756" lon="12.303264128066353"><ele>438.6666666666667</ele><time>2026-04-12T13:51:30.037Z</time></trkpt><trkpt lat="42.869731171031965" lon="12.303362397097334"><ele>440.33333333333337</ele><time>2026-04-12T13:51:31.036Z</time></trkpt><trkpt lat="42.8697452103541" lon="12.303466331358056"><ele>442.0</ele><time>2026-04-12T13:51:32.036Z</time></trkpt><trkpt lat="42.86979406422068" lon="12.303572180781764"><ele>442.0</ele><time>2026-04-12T13:51:33.036Z</time></trkpt><trkpt lat="42.869863453306124" lon="12.303688651911903"><ele>442.0</ele><time>2026-04-12T13:51:34.036Z</time></trkpt><trkpt lat="42.86993246299022" lon="12.303825420125111"><ele>442.0</ele><time>2026-04-12T13:51:35.036Z</time></trkpt><trkpt lat="42.86999831992659" lon="12.303955369238398"><ele>442.0</ele><time>2026-04-12T13:51:36.036Z</time></trkpt><trkpt lat="42.87005906229567" lon="12.30408762839004"><ele>443.25</ele><time>2026-04-12T13:51:37.036Z</time></trkpt><trkpt lat="42.87011668614506" lon="12.30422313552525"><ele>444.5</ele><time>2026-04-12T13:51:38.036Z</time></trkpt><trkpt lat="42.870160157244" lon="12.304365552012603"><ele>445.75</ele><time>2026-04-12T13:51:39.036Z</time></trkpt><trkpt lat="42.87019127752568" lon="12.304513941686194"><ele>447.0</ele><time>2026-04-12T13:51:40.036Z</time></trkpt><trkpt lat="42.87021889427577" lon="12.304673188616206"><ele>446.25</ele><time>2026-04-12T13:51:41.036Z</time></trkpt><trkpt lat="42.870247975660256" lon="12.304836249882076"><ele>445.5</ele><time>2026-04-12T13:51:42.036Z</time></trkpt><trkpt lat="42.870279269654006" lon="12.305000517174596"><ele>444.75</ele><time>2026-04-12T13:51:43.036Z</time></trkpt><trkpt lat="42.870311284973226" lon="12.305165865923335"><ele>444.0</ele><time>2026-04-12T13:51:44.036Z</time></trkpt><trkpt lat="42.870344129540236" lon="12.305335583372818"><ele>444.0</ele><time>2026-04-12T13:51:45.036Z</time></trkpt><trkpt lat="42.87037110719924" lon="12.305505151249223"><ele>444.0</ele><time>2026-04-12T13:51:46.036Z</time></trkpt><trkpt lat="42.87038988071996" lon="12.305682085983042"><ele>444.0</ele><time>2026-04-12T13:51:47.036Z</time></trkpt><trkpt lat="42.87040085678847" lon="12.305861038058064"><ele>444.0</ele><time>2026-04-12T13:51:48.036Z</time></trkpt><trkpt lat="42.870403874142646" lon="12.306038383461352"><ele>442.75</ele><time>2026-04-12T13:51:49.036Z</time></trkpt><trkpt lat="42.87040518860107" lon="12.30621067461641"><ele>441.5</ele><time>2026-04-12T13:51:50.036Z</time></trkpt><trkpt lat="42.87041049042847" lon="12.306377122200917"><ele>440.25</ele><time>2026-04-12T13:51:51.036Z</time></trkpt><trkpt lat="42.87041550298061" lon="12.306540193143947"><ele>439.0</ele><time>2026-04-12T13:51:52.036Z</time></trkpt><trkpt lat="42.87040467863371" lon="12.306692631331579"><ele>438.6</ele><time>2026-04-12T13:51:53.036Z</time></trkpt><trkpt lat="42.87037890525149" lon="12.306830870755961"><ele>438.2</ele><time>2026-04-12T13:51:54.036Z</time></trkpt><trkpt lat="42.87032682375138" lon="12.306960983106523"><ele>437.80000000000007</ele><time>2026-04-12T13:51:55.036Z</time></trkpt><trkpt lat="42.87025052465259" lon="12.307079804494256"><ele>437.40000000000003</ele><time>2026-04-12T13:51:56.036Z</time></trkpt><trkpt lat="42.87015787012937" lon="12.307177060421038"><ele>437.0</ele><time>2026-04-12T13:51:57.036Z</time></trkpt><trkpt lat="42.87007083757521" lon="12.30727526028528"><ele>437.0</ele><time>2026-04-12T13:51:58.036Z</time></trkpt><trkpt lat="42.86999443095963" lon="12.3073736316751"><ele>437.00000000000006</ele><time>2026-04-12T13:51:59.036Z</time></trkpt><trkpt lat="42.869925971628376" lon="12.307479216416997"><ele>437.00000000000006</ele><time>2026-04-12T13:52:00.036Z</time></trkpt><trkpt lat="42.869863617959716" lon="12.307587417461368"><ele>437.0</ele><time>2026-04-12T13:52:01.036Z</time></trkpt><trkpt lat="42.869805601114656" lon="12.307684725997866"><ele>437.0</ele><time>2026-04-12T13:52:02.036Z</time></trkpt><trkpt lat="42.86977356312054" lon="12.307786559777922"><ele>436.99999999999994</ele><time>2026-04-12T13:52:03.036Z</time></trkpt><trkpt lat="42.86975476484923" lon="12.307885769299979"><ele>437.0</ele><time>2026-04-12T13:52:04.036Z</time></trkpt><trkpt lat="42.869741382469115" lon="12.307981000795069"><ele>437.0</ele><time>2026-04-12T13:52:05.036Z</time></trkpt><trkpt lat="42.869730948184504" lon="12.308066453282485"><ele>437.0</ele><time>2026-04-12T13:52:06.036Z</time></trkpt><trkpt lat="42.86971808686293" lon="12.308210961582969"><ele>436.99999999999994</ele><time>2026-04-12T13:52:08.036Z</time></trkpt><trkpt lat="42.869707993036016" lon="12.308313958307272"><ele>437.0</ele><time>2026-04-12T13:52:10.036Z</time></trkpt><trkpt lat="42.86969599498668" lon="12.308418094321357"><ele>436.6</ele><time>2026-04-12T13:52:13.036Z</time></trkpt><trkpt lat="42.869660159587994" lon="12.308500500000095"><ele>436.20000000000005</ele><time>2026-04-12T13:52:16.036Z</time></trkpt><trkpt lat="42.86954744765823" lon="12.308555015410574"><ele>435.8</ele><time>2026-04-12T13:52:18.036Z</time></trkpt><trkpt lat="42.869456427129606" lon="12.308568549304185"><ele>435.4</ele><time>2026-04-12T13:52:19.036Z</time></trkpt><trkpt lat="42.86935393921107" lon="12.308581869075653"><ele>435.0</ele><time>2026-04-12T13:52:20.036Z</time></trkpt><trkpt lat="42.869231793983495" lon="12.30861236350056"><ele>437.66666666666663</ele><time>2026-04-12T13:52:21.036Z</time></trkpt><trkpt lat="42.86908924720989" lon="12.308682444420851"><ele>440.3333333333333</ele><time>2026-04-12T13:52:22.036Z</time></trkpt><trkpt lat="42.86893163200027" lon="12.308759236319677"><ele>443.0</ele><time>2026-04-12T13:52:23.036Z</time></trkpt><trkpt lat="42.86876627173887" lon="12.308821269665978"><ele>443.0</ele><time>2026-04-12T13:52:24.036Z</time></trkpt><trkpt lat="42.86861277744786" lon="12.308878367150777"><ele>443.0</ele><time>2026-04-12T13:52:25.036Z</time></trkpt><trkpt lat="42.868461114526035" lon="12.308945346493767"><ele>443.0</ele><time>2026-04-12T13:52:26.036Z</time></trkpt><trkpt lat="42.868315070745034" lon="12.308998293802661"><ele>439.3333333333333</ele><time>2026-04-12T13:52:27.036Z</time></trkpt><trkpt lat="42.86816277981091" lon="12.309024282113521"><ele>435.66666666666663</ele><time>2026-04-12T13:52:28.036Z</time></trkpt><trkpt lat="42.86800307551436" lon="12.30902130411775"><ele>432.0</ele><time>2026-04-12T13:52:29.036Z</time></trkpt><trkpt lat="42.867840831627966" lon="12.30900623890286"><ele>432.0</ele><time>2026-04-12T13:52:30.036Z</time></trkpt><trkpt lat="42.86768685130233" lon="12.308991343709478"><ele>432.0</ele><time>2026-04-12T13:52:31.036Z</time></trkpt><trkpt lat="42.86753443554304" lon="12.308983496939186"><ele>432.0</ele><time>2026-04-12T13:52:32.036Z</time></trkpt><trkpt lat="42.867384208922346" lon="12.309006048672908"><ele>434.0</ele><time>2026-04-12T13:52:33.036Z</time></trkpt><trkpt lat="42.86724037770728" lon="12.309071358721893"><ele>436.0</ele><time>2026-04-12T13:52:34.036Z</time></trkpt><trkpt lat="42.86709183917833" lon="12.309164353790939"><ele>438.0</ele><time>2026-04-12T13:52:35.036Z</time></trkpt><trkpt lat="42.866933479717005" lon="12.309268767493899"><ele>442.33333333333337</ele><time>2026-04-12T13:52:36.036Z</time></trkpt><trkpt lat="42.86677362352491" lon="12.309364131739647"><ele>446.6666666666667</ele><time>2026-04-12T13:52:37.036Z</time></trkpt><trkpt lat="42.866609192372216" lon="12.309463590735511"><ele>451.0</ele><time>2026-04-12T13:52:38.036Z</time></trkpt><trkpt lat="42.866442862675186" lon="12.309568910182355"><ele>451.0</ele><time>2026-04-12T13:52:39.036Z</time></trkpt><trkpt lat="42.86626876755794" lon="12.30967101634139"><ele>451.0</ele><time>2026-04-12T13:52:40.038Z</time></trkpt><trkpt lat="42.866109402887105" lon="12.309764379012256"><ele>451.0</ele><time>2026-04-12T13:52:41.037Z</time></trkpt><trkpt lat="42.8659394044187" lon="12.309867717723648"><ele>449.33333333333337</ele><time>2026-04-12T13:52:42.037Z</time></trkpt><trkpt lat="42.86577953891713" lon="12.309953552719831"><ele>447.66666666666663</ele><time>2026-04-12T13:52:43.038Z</time></trkpt><trkpt lat="42.86562899069909" lon="12.310030541204718"><ele>446.0</ele><time>2026-04-12T13:52:44.038Z</time></trkpt><trkpt lat="42.8654787826427" lon="12.31010075947209"><ele>446.0</ele><time>2026-04-12T13:52:45.038Z</time></trkpt><trkpt lat="42.86531502531882" lon="12.310143240147205"><ele>446.0</ele><time>2026-04-12T13:52:46.038Z</time></trkpt><trkpt lat="42.865149619782876" lon="12.310172583136428"><ele>446.0</ele><time>2026-04-12T13:52:47.038Z</time></trkpt><trkpt lat="42.86497688456515" lon="12.310185414053333"><ele>448.66666666666663</ele><time>2026-04-12T13:52:48.038Z</time></trkpt><trkpt lat="42.86480996950538" lon="12.310208223844285"><ele>451.33333333333337</ele><time>2026-04-12T13:52:49.038Z</time></trkpt><trkpt lat="42.86465130102671" lon="12.310257857533092"><ele>454.0</ele><time>2026-04-12T13:52:50.038Z</time></trkpt><trkpt lat="42.86450583478443" lon="12.310328894662074"><ele>454.0</ele><time>2026-04-12T13:52:51.038Z</time></trkpt><trkpt lat="42.86435517787315" lon="12.310403665794512"><ele>454.0</ele><time>2026-04-12T13:52:52.038Z</time></trkpt><trkpt lat="42.86419832653446" lon="12.310456585618086"><ele>454.0</ele><time>2026-04-12T13:52:53.038Z</time></trkpt><trkpt lat="42.86402527417242" lon="12.310474303996658"><ele>456.0</ele><time>2026-04-12T13:52:54.038Z</time></trkpt><trkpt lat="42.863861022463" lon="12.3104573606006"><ele>458.0</ele><time>2026-04-12T13:52:55.038Z</time></trkpt><trkpt lat="42.863706542447034" lon="12.310426653919857"><ele>460.0</ele><time>2026-04-12T13:52:56.038Z</time></trkpt><trkpt lat="42.863565261243814" lon="12.310400873275682"><ele>458.4</ele><time>2026-04-12T13:52:57.038Z</time></trkpt><trkpt lat="42.863440615215175" lon="12.310380293081046"><ele>456.8</ele><time>2026-04-12T13:52:58.038Z</time></trkpt><trkpt lat="42.86333508402718" lon="12.310384966942731"><ele>455.20000000000005</ele><time>2026-04-12T13:52:59.038Z</time></trkpt><trkpt lat="42.863249366906125" lon="12.310435558780581"><ele>453.6</ele><time>2026-04-12T13:53:00.038Z</time></trkpt><trkpt lat="42.863178535304826" lon="12.310519169384353"><ele>452.0</ele><time>2026-04-12T13:53:01.038Z</time></trkpt><trkpt lat="42.86314760515834" lon="12.310622412700965"><ele>451.3333333333333</ele><time>2026-04-12T13:53:02.038Z</time></trkpt><trkpt lat="42.863147749520735" lon="12.310740423508589"><ele>450.66666666666663</ele><time>2026-04-12T13:53:03.038Z</time></trkpt><trkpt lat="42.86318213754647" lon="12.310840414463232"><ele>450.0</ele><time>2026-04-12T13:53:04.038Z</time></trkpt><trkpt lat="42.86324274814176" lon="12.310925008838554"><ele>449.33333333333337</ele><time>2026-04-12T13:53:05.038Z</time></trkpt><trkpt lat="42.863322897494875" lon="12.310973279037666"><ele>448.6666666666667</ele><time>2026-04-12T13:53:06.038Z</time></trkpt><trkpt lat="42.86342023459518" lon="12.31098764053541"><ele>448.0</ele><time>2026-04-12T13:53:07.038Z</time></trkpt><trkpt lat="42.86354262442436" lon="12.310987458129361"><ele>447.33333333333337</ele><time>2026-04-12T13:53:08.038Z</time></trkpt><trkpt lat="42.86368189871983" lon="12.310996199524162"><ele>446.66666666666663</ele><time>2026-04-12T13:53:09.037Z</time></trkpt><trkpt lat="42.86383741735833" lon="12.311024490452484"><ele>446.0</ele><time>2026-04-12T13:53:10.037Z</time></trkpt><trkpt lat="42.86399687675403" lon="12.31108734158123"><ele>446.0</ele><time>2026-04-12T13:53:11.037Z</time></trkpt><trkpt lat="42.864161644454214" lon="12.311153506391062"><ele>446.0</ele><time>2026-04-12T13:53:12.037Z</time></trkpt><trkpt lat="42.86434710301366" lon="12.311249400346359"><ele>446.0</ele><time>2026-04-12T13:53:13.037Z</time></trkpt><trkpt lat="42.86454984164026" lon="12.311336362238475"><ele>444.66666666666663</ele><time>2026-04-12T13:53:14.037Z</time></trkpt><trkpt lat="42.86474341559426" lon="12.311390145462676"><ele>443.33333333333337</ele><time>2026-04-12T13:53:15.037Z</time></trkpt><trkpt lat="42.86491617470992" lon="12.311426587453044"><ele>442.0</ele><time>2026-04-12T13:53:16.037Z</time></trkpt><trkpt lat="42.86507891863722" lon="12.311475117611474"><ele>444.6666666666667</ele><time>2026-04-12T13:53:17.037Z</time></trkpt><trkpt lat="42.86524532143902" lon="12.31153320746456"><ele>447.33333333333337</ele><time>2026-04-12T13:53:18.037Z</time></trkpt><trkpt lat="42.86541231692606" lon="12.31162034874228"><ele>450.0</ele><time>2026-04-12T13:53:19.037Z</time></trkpt><trkpt lat="42.86557605993336" lon="12.311710047482931"><ele>450.0</ele><time>2026-04-12T13:53:20.037Z</time></trkpt><trkpt lat="42.86574208101099" lon="12.31183857186584"><ele>450.0</ele><time>2026-04-12T13:53:21.037Z</time></trkpt><trkpt lat="42.865906265375294" lon="12.311985785858443"><ele>450.0</ele><time>2026-04-12T13:53:22.037Z</time></trkpt><trkpt lat="42.86607173837064" lon="12.312147617991481"><ele>452.0</ele><time>2026-04-12T13:53:23.037Z</time></trkpt><trkpt lat="42.86622991324296" lon="12.31230454870571"><ele>454.0</ele><time>2026-04-12T13:53:24.037Z</time></trkpt><trkpt lat="42.866377286638894" lon="12.312453561199879"><ele>456.0</ele><time>2026-04-12T13:53:25.037Z</time></trkpt><trkpt lat="42.86651741632251" lon="12.312593429887807"><ele>456.0</ele><time>2026-04-12T13:53:26.037Z</time></trkpt><trkpt lat="42.86664629345294" lon="12.312720871404004"><ele>456.0</ele><time>2026-04-12T13:53:27.037Z</time></trkpt><trkpt lat="42.866761216120075" lon="12.312838802956776"><ele>456.0</ele><time>2026-04-12T13:53:28.037Z</time></trkpt><trkpt lat="42.8668443122674" lon="12.312941690912037"><ele>456.0</ele><time>2026-04-12T13:53:29.037Z</time></trkpt><trkpt lat="42.86691299400301" lon="12.313051621748958"><ele>456.6666666666667</ele><time>2026-04-12T13:53:30.037Z</time></trkpt><trkpt lat="42.86693568682652" lon="12.313171023054124"><ele>457.33333333333337</ele><time>2026-04-12T13:53:31.037Z</time></trkpt><trkpt lat="42.86690906824503" lon="12.313276163842108"><ele>458.0</ele><time>2026-04-12T13:53:32.037Z</time></trkpt><trkpt lat="42.8668662558702" lon="12.313381326679064"><ele>458.6666666666667</ele><time>2026-04-12T13:53:33.037Z</time></trkpt><trkpt lat="42.86680665489547" lon="12.313445095377793"><ele>459.33333333333337</ele><time>2026-04-12T13:53:34.037Z</time></trkpt><trkpt lat="42.86673834053696" lon="12.313445334937935"><ele>460.0</ele><time>2026-04-12T13:53:35.037Z</time></trkpt><trkpt lat="42.86667274592219" lon="12.313408684260756"><ele>460.0</ele><time>2026-04-12T13:53:36.037Z</time></trkpt><trkpt lat="42.86659604278857" lon="12.313356697717877"><ele>460.0</ele><time>2026-04-12T13:53:37.037Z</time></trkpt><trkpt lat="42.86651864733346" lon="12.313289807957212"><ele>460.0</ele><time>2026-04-12T13:53:38.037Z</time></trkpt><trkpt lat="42.86641417366643" lon="12.313206539336084"><ele>460.0</ele><time>2026-04-12T13:53:39.037Z</time></trkpt><trkpt lat="42.86629571705728" lon="12.313106396824772"><ele>460.0</ele><time>2026-04-12T13:53:40.037Z</time></trkpt><trkpt lat="42.86616057834447" lon="12.313013625013927"><ele>460.0</ele><time>2026-04-12T13:53:41.037Z</time></trkpt><trkpt lat="42.86600597945273" lon="12.312936170045592"><ele>460.0</ele><time>2026-04-12T13:53:42.037Z</time></trkpt><trkpt lat="42.865839526716925" lon="12.312871429383284"><ele>460.0</ele><time>2026-04-12T13:53:43.037Z</time></trkpt><trkpt lat="42.86565391793631" lon="12.312819329740893"><ele>460.0</ele><time>2026-04-12T13:53:44.037Z</time></trkpt><trkpt lat="42.86544235597144" lon="12.312761900113367"><ele>460.0</ele><time>2026-04-12T13:53:45.037Z</time></trkpt><trkpt lat="42.86523102879581" lon="12.312694168855108"><ele>460.0</ele><time>2026-04-12T13:53:46.037Z</time></trkpt><trkpt lat="42.86502957835877" lon="12.31262190588357"><ele>461.6666666666667</ele><time>2026-04-12T13:53:47.037Z</time></trkpt><trkpt lat="42.86484113955394" lon="12.312577827621904"><ele>463.33333333333337</ele><time>2026-04-12T13:53:48.037Z</time></trkpt><trkpt lat="42.86466863351588" lon="12.312534787031451"><ele>465.0</ele><time>2026-04-12T13:53:49.037Z</time></trkpt><trkpt lat="42.86451711091737" lon="12.312500214247647"><ele>465.0</ele><time>2026-04-12T13:53:50.037Z</time></trkpt><trkpt lat="42.86438528713164" lon="12.312482930091548"><ele>465.0</ele><time>2026-04-12T13:53:51.037Z</time></trkpt><trkpt lat="42.86425310620852" lon="12.312513970659593"><ele>465.0</ele><time>2026-04-12T13:53:52.037Z</time></trkpt><trkpt lat="42.864141818047564" lon="12.3125621895604"><ele>465.0</ele><time>2026-04-12T13:53:53.037Z</time></trkpt><trkpt lat="42.86400920047936" lon="12.312634678503239"><ele>467.0</ele><time>2026-04-12T13:53:54.037Z</time></trkpt><trkpt lat="42.863859008034495" lon="12.312711443720081"><ele>469.0</ele><time>2026-04-12T13:53:55.037Z</time></trkpt><trkpt lat="42.863692136579445" lon="12.312791162292875"><ele>471.0</ele><time>2026-04-12T13:53:56.037Z</time></trkpt><trkpt lat="42.863517499323784" lon="12.312872342392604"><ele>471.33333333333337</ele><time>2026-04-12T13:53:57.037Z</time></trkpt><trkpt lat="42.86335304434951" lon="12.312941375588291"><ele>471.6666666666667</ele><time>2026-04-12T13:53:58.037Z</time></trkpt><trkpt lat="42.863206178259404" lon="12.313001373283253"><ele>472.0</ele><time>2026-04-12T13:53:59.037Z</time></trkpt><trkpt lat="42.863072036836776" lon="12.313058790710343"><ele>473.0</ele><time>2026-04-12T13:54:00.037Z</time></trkpt><trkpt lat="42.8629452128727" lon="12.313104074159975"><ele>474.0</ele><time>2026-04-12T13:54:01.037Z</time></trkpt><trkpt lat="42.862820843678094" lon="12.313144253874396"><ele>475.0</ele><time>2026-04-12T13:54:02.037Z</time></trkpt><trkpt lat="42.862715390290695" lon="12.313150569191254"><ele>476.0</ele><time>2026-04-12T13:54:03.037Z</time></trkpt><trkpt lat="42.86261296763289" lon="12.313134433709179"><ele>476.0</ele><time>2026-04-12T13:54:04.037Z</time></trkpt><trkpt lat="42.862513321104664" lon="12.313096765954203"><ele>476.0</ele><time>2026-04-12T13:54:05.037Z</time></trkpt><trkpt lat="42.862403641020734" lon="12.31305765722151"><ele>476.0</ele><time>2026-04-12T13:54:06.037Z</time></trkpt><trkpt lat="42.86227579441925" lon="12.313077665138081"><ele>476.0</ele><time>2026-04-12T13:54:07.037Z</time></trkpt><trkpt lat="42.8621250323602" lon="12.313083291533081"><ele>474.3333333333333</ele><time>2026-04-12T13:54:08.037Z</time></trkpt><trkpt lat="42.86198198746086" lon="12.313061989355102"><ele>472.66666666666663</ele><time>2026-04-12T13:54:09.037Z</time></trkpt><trkpt lat="42.86182997970728" lon="12.313030840273235"><ele>471.0</ele><time>2026-04-12T13:54:10.037Z</time></trkpt><trkpt lat="42.86166052209038" lon="12.312996672396798"><ele>470.66666666666663</ele><time>2026-04-12T13:54:11.037Z</time></trkpt><trkpt lat="42.86148802512428" lon="12.31293356946293"><ele>470.3333333333333</ele><time>2026-04-12T13:54:12.037Z</time></trkpt><trkpt lat="42.86130547586038" lon="12.31288804708251"><ele>470.0</ele><time>2026-04-12T13:54:13.037Z</time></trkpt><trkpt lat="42.861133310621675" lon="12.312845114226723"><ele>470.0</ele><time>2026-04-12T13:54:14.037Z</time></trkpt><trkpt lat="42.860970512064455" lon="12.312804724557273"><ele>470.0</ele><time>2026-04-12T13:54:15.037Z</time></trkpt><trkpt lat="42.86081466462037" lon="12.312766555186856"><ele>470.0</ele><time>2026-04-12T13:54:16.037Z</time></trkpt><trkpt lat="42.86065482543736" lon="12.312749766653331"><ele>470.0</ele><time>2026-04-12T13:54:17.037Z</time></trkpt><trkpt lat="42.86049632473352" lon="12.312711001496174"><ele>470.0</ele><time>2026-04-12T13:54:18.037Z</time></trkpt><trkpt lat="42.86033522731257" lon="12.312665953246475"><ele>470.0</ele><time>2026-04-12T13:54:19.037Z</time></trkpt><trkpt lat="42.860175228528234" lon="12.312620820320218"><ele>471.0</ele><time>2026-04-12T13:54:20.037Z</time></trkpt><trkpt lat="42.860012943884364" lon="12.312581912345836"><ele>472.0</ele><time>2026-04-12T13:54:21.037Z</time></trkpt><trkpt lat="42.85985821496278" lon="12.312536467680184"><ele>473.0</ele><time>2026-04-12T13:54:22.036Z</time></trkpt><trkpt lat="42.85971134675804" lon="12.312481045634579"><ele>473.0</ele><time>2026-04-12T13:54:23.036Z</time></trkpt><trkpt lat="42.859572478080416" lon="12.3124202950165"><ele>473.0</ele><time>2026-04-12T13:54:24.036Z</time></trkpt><trkpt lat="42.85944090762682" lon="12.312354000111037"><ele>473.0</ele><time>2026-04-12T13:54:25.036Z</time></trkpt><trkpt lat="42.859317175238154" lon="12.312289846833018"><ele>473.0</ele><time>2026-04-12T13:54:26.036Z</time></trkpt><trkpt lat="42.859199638207315" lon="12.312229004849629"><ele>472.0</ele><time>2026-04-12T13:54:27.036Z</time></trkpt><trkpt lat="42.8590918996822" lon="12.312168874055473"><ele>470.99999999999994</ele><time>2026-04-12T13:54:28.036Z</time></trkpt><trkpt lat="42.85898797463451" lon="12.31211329007111"><ele>469.99999999999994</ele><time>2026-04-12T13:54:29.036Z</time></trkpt><trkpt lat="42.85889937047346" lon="12.312057954079828"><ele>469.0</ele><time>2026-04-12T13:54:30.036Z</time></trkpt><trkpt lat="42.858818269664624" lon="12.312016363335223"><ele>468.0</ele><time>2026-04-12T13:54:31.036Z</time></trkpt><trkpt lat="42.858740198627125" lon="12.311973265343282"><ele>468.0</ele><time>2026-04-12T13:54:32.036Z</time></trkpt><trkpt lat="42.85866848573704" lon="12.311926455915795"><ele>467.99999999999994</ele><time>2026-04-12T13:54:33.036Z</time></trkpt><trkpt lat="42.8586076581932" lon="12.311856995174715"><ele>467.99999999999994</ele><time>2026-04-12T13:54:34.036Z</time></trkpt><trkpt lat="42.85854470612858" lon="12.311766701233134"><ele>468.0</ele><time>2026-04-12T13:54:35.036Z</time></trkpt><trkpt lat="42.85848483515881" lon="12.311655135210934"><ele>468.0</ele><time>2026-04-12T13:54:36.036Z</time></trkpt><trkpt lat="42.85841892157572" lon="12.311529907516421"><ele>470.0</ele><time>2026-04-12T13:54:37.036Z</time></trkpt><trkpt lat="42.858350149171805" lon="12.311382219465154"><ele>472.0</ele><time>2026-04-12T13:54:38.036Z</time></trkpt><trkpt lat="42.858281401967744" lon="12.311223741424648"><ele>474.0</ele><time>2026-04-12T13:54:39.036Z</time></trkpt><trkpt lat="42.85821405824645" lon="12.311071411338775"><ele>476.0</ele><time>2026-04-12T13:54:40.036Z</time></trkpt><trkpt lat="42.85814938774189" lon="12.310928009297658"><ele>476.0</ele><time>2026-04-12T13:54:41.036Z</time></trkpt><trkpt lat="42.85806995094244" lon="12.310801851571904"><ele>476.0</ele><time>2026-04-12T13:54:42.036Z</time></trkpt><trkpt lat="42.85798334698303" lon="12.31069118121111"><ele>476.0</ele><time>2026-04-12T13:54:43.036Z</time></trkpt><trkpt lat="42.85786629911335" lon="12.310571973343045"><ele>476.0</ele><time>2026-04-12T13:54:44.036Z</time></trkpt><trkpt lat="42.85771709957822" lon="12.310447139441838"><ele>477.25</ele><time>2026-04-12T13:54:45.036Z</time></trkpt><trkpt lat="42.85758081543942" lon="12.310340552130503"><ele>478.5</ele><time>2026-04-12T13:54:46.039Z</time></trkpt><trkpt lat="42.85745527713402" lon="12.310247373039912"><ele>479.75</ele><time>2026-04-12T13:54:47.039Z</time></trkpt><trkpt lat="42.85733803699224" lon="12.310139157328955"><ele>481.0</ele><time>2026-04-12T13:54:48.039Z</time></trkpt><trkpt lat="42.85722700782252" lon="12.310011386372807"><ele>481.0</ele><time>2026-04-12T13:54:49.039Z</time></trkpt><trkpt lat="42.857141719351866" lon="12.309860877981619"><ele>481.0</ele><time>2026-04-12T13:54:50.039Z</time></trkpt><trkpt lat="42.85707505657627" lon="12.309677774813762"><ele>481.0</ele><time>2026-04-12T13:54:51.039Z</time></trkpt><trkpt lat="42.85702778976445" lon="12.309469673227339"><ele>481.0</ele><time>2026-04-12T13:54:52.038Z</time></trkpt><trkpt lat="42.85701145280861" lon="12.309245746028862"><ele>481.33333333333337</ele><time>2026-04-12T13:54:53.038Z</time></trkpt><trkpt lat="42.85700924488956" lon="12.3090053836264"><ele>481.66666666666663</ele><time>2026-04-12T13:54:54.038Z</time></trkpt><trkpt lat="42.85699621247579" lon="12.308763834586331"><ele>482.0</ele><time>2026-04-12T13:54:55.039Z</time></trkpt><trkpt lat="42.856985068690506" lon="12.30851197646996"><ele>482.66666666666663</ele><time>2026-04-12T13:54:56.038Z</time></trkpt><trkpt lat="42.85697295421551" lon="12.308247867156279"><ele>483.33333333333337</ele><time>2026-04-12T13:54:57.038Z</time></trkpt><trkpt lat="42.85695866660019" lon="12.307978121591209"><ele>484.0</ele><time>2026-04-12T13:54:58.038Z</time></trkpt><trkpt lat="42.85694721700448" lon="12.30772636713578"><ele>484.6666666666667</ele><time>2026-04-12T13:54:59.039Z</time></trkpt><trkpt lat="42.85693657865182" lon="12.30748948235264"><ele>485.33333333333337</ele><time>2026-04-12T13:55:00.039Z</time></trkpt><trkpt lat="42.85693127884889" lon="12.30727120808596"><ele>486.0</ele><time>2026-04-12T13:55:01.039Z</time></trkpt><trkpt lat="42.8569214382326" lon="12.307071767096886"><ele>486.75</ele><time>2026-04-12T13:55:02.039Z</time></trkpt><trkpt lat="42.856911551616975" lon="12.306887624002252"><ele>487.5</ele><time>2026-04-12T13:55:03.039Z</time></trkpt><trkpt lat="42.85689176977874" lon="12.306728774131377"><ele>488.25</ele><time>2026-04-12T13:55:04.039Z</time></trkpt><trkpt lat="42.85685487246094" lon="12.30659071045872"><ele>489.0</ele><time>2026-04-12T13:55:05.039Z</time></trkpt><trkpt lat="42.85679522492765" lon="12.306493789051034"><ele>489.8333333333333</ele><time>2026-04-12T13:55:06.039Z</time></trkpt><trkpt lat="42.85672234397787" lon="12.306434173023044"><ele>490.66666666666663</ele><time>2026-04-12T13:55:07.039Z</time></trkpt><trkpt lat="42.8566381942626" lon="12.30639872997166"><ele>491.5</ele><time>2026-04-12T13:55:08.039Z</time></trkpt><trkpt lat="42.8565548553051" lon="12.306385269592871"><ele>492.3333333333333</ele><time>2026-04-12T13:55:09.039Z</time></trkpt><trkpt lat="42.856468202458814" lon="12.306390295524139"><ele>493.16666666666663</ele><time>2026-04-12T13:55:10.039Z</time></trkpt><trkpt lat="42.85638692239317" lon="12.30643195491203"><ele>494.0</ele><time>2026-04-12T13:55:11.039Z</time></trkpt><trkpt lat="42.85631211657764" lon="12.306503926009329"><ele>494.0</ele><time>2026-04-12T13:55:12.039Z</time></trkpt><trkpt lat="42.856222854752374" lon="12.306580387014096"><ele>494.0</ele><time>2026-04-12T13:55:13.039Z</time></trkpt><trkpt lat="42.856117152433626" lon="12.306692988000972"><ele>494.0</ele><time>2026-04-12T13:55:14.039Z</time></trkpt><trkpt lat="42.85598717154211" lon="12.306831011168818"><ele>494.0</ele><time>2026-04-12T13:55:15.039Z</time></trkpt><trkpt lat="42.85586165971958" lon="12.306964288781648"><ele>496.25</ele><time>2026-04-12T13:55:16.039Z</time></trkpt><trkpt lat="42.855754117252154" lon="12.30709831722922"><ele>498.5</ele><time>2026-04-12T13:55:17.039Z</time></trkpt><trkpt lat="42.85563876233547" lon="12.307172617418274"><ele>500.75</ele><time>2026-04-12T13:55:18.039Z</time></trkpt><trkpt lat="42.855515361314865" lon="12.307207675749167"><ele>503.0</ele><time>2026-04-12T13:55:19.039Z</time></trkpt><trkpt lat="42.855393260081655" lon="12.307206593481975"><ele>503.0</ele><time>2026-04-12T13:55:20.039Z</time></trkpt><trkpt lat="42.85528029558359" lon="12.307200357976367"><ele>502.99999999999994</ele><time>2026-04-12T13:55:21.039Z</time></trkpt><trkpt lat="42.85516795177926" lon="12.30721112725262"><ele>502.99999999999994</ele><time>2026-04-12T13:55:22.039Z</time></trkpt><trkpt lat="42.85505979838802" lon="12.307258041048518"><ele>503.0</ele><time>2026-04-12T13:55:23.039Z</time></trkpt><trkpt lat="42.854967932933164" lon="12.307328520437576"><ele>503.0</ele><time>2026-04-12T13:55:24.039Z</time></trkpt><trkpt lat="42.85488490236619" lon="12.307403046945971"><ele>502.66666666666663</ele><time>2026-04-12T13:55:25.039Z</time></trkpt><trkpt lat="42.854796718605684" lon="12.30744984697882"><ele>502.3333333333333</ele><time>2026-04-12T13:55:26.039Z</time></trkpt><trkpt lat="42.85470751193899" lon="12.307457081869474"><ele>502.0</ele><time>2026-04-12T13:55:27.039Z</time></trkpt><trkpt lat="42.85462772581153" lon="12.307419297081035"><ele>501.66666666666663</ele><time>2026-04-12T13:55:28.038Z</time></trkpt><trkpt lat="42.85457467478954" lon="12.30734601415095"><ele>501.3333333333333</ele><time>2026-04-12T13:55:29.038Z</time></trkpt><trkpt lat="42.854545723445675" lon="12.307250458283068"><ele>501.0</ele><time>2026-04-12T13:55:30.038Z</time></trkpt><trkpt lat="42.85455021674518" lon="12.307145341928509"><ele>501.8</ele><time>2026-04-12T13:55:31.038Z</time></trkpt><trkpt lat="42.85458609708111" lon="12.307032893741487"><ele>502.6</ele><time>2026-04-12T13:55:32.038Z</time></trkpt><trkpt lat="42.854643702797915" lon="12.306924958529734"><ele>503.4</ele><time>2026-04-12T13:55:33.038Z</time></trkpt><trkpt lat="42.854705582632775" lon="12.306816227637478"><ele>504.2</ele><time>2026-04-12T13:55:34.038Z</time></trkpt><trkpt lat="42.854767165514694" lon="12.306691919548614"><ele>505.0</ele><time>2026-04-12T13:55:35.038Z</time></trkpt><trkpt lat="42.85482337945528" lon="12.306554304869781"><ele>505.75</ele><time>2026-04-12T13:55:36.038Z</time></trkpt><trkpt lat="42.85485698385888" lon="12.30641069788496"><ele>506.5</ele><time>2026-04-12T13:55:37.038Z</time></trkpt><trkpt lat="42.854871092877424" lon="12.306264122085436"><ele>507.25</ele><time>2026-04-12T13:55:38.038Z</time></trkpt><trkpt lat="42.854860563926216" lon="12.306112412807787"><ele>508.0</ele><time>2026-04-12T13:55:39.038Z</time></trkpt><trkpt lat="42.854823309870156" lon="12.305950400976686"><ele>508.0</ele><time>2026-04-12T13:55:40.038Z</time></trkpt><trkpt lat="42.85476559676518" lon="12.3058053831437"><ele>508.0</ele><time>2026-04-12T13:55:41.038Z</time></trkpt><trkpt lat="42.85467561809239" lon="12.3056778273528"><ele>508.0</ele><time>2026-04-12T13:55:42.038Z</time></trkpt><trkpt lat="42.85457247437564" lon="12.305568816033185"><ele>508.0</ele><time>2026-04-12T13:55:43.038Z</time></trkpt><trkpt lat="42.854456908894484" lon="12.305477848182559"><ele>507.75</ele><time>2026-04-12T13:55:44.038Z</time></trkpt><trkpt lat="42.85432296316884" lon="12.305413445942598"><ele>507.5</ele><time>2026-04-12T13:55:45.038Z</time></trkpt><trkpt lat="42.85417813877035" lon="12.305363059713004"><ele>507.25</ele><time>2026-04-12T13:55:46.038Z</time></trkpt><trkpt lat="42.85403384766661" lon="12.305317684172868"><ele>507.0</ele><time>2026-04-12T13:55:47.038Z</time></trkpt><trkpt lat="42.85388567059915" lon="12.30529691193636"><ele>507.0</ele><time>2026-04-12T13:55:48.038Z</time></trkpt><trkpt lat="42.85374284555419" lon="12.305280486059264"><ele>507.0</ele><time>2026-04-12T13:55:49.038Z</time></trkpt><trkpt lat="42.853601271942104" lon="12.305249686800819"><ele>507.0</ele><time>2026-04-12T13:55:50.038Z</time></trkpt><trkpt lat="42.85346509961445" lon="12.305227488314783"><ele>507.0</ele><time>2026-04-12T13:55:51.038Z</time></trkpt><trkpt lat="42.85332924851676" lon="12.305218274633422"><ele>505.5</ele><time>2026-04-12T13:55:52.038Z</time></trkpt><trkpt lat="42.85319562441858" lon="12.30522260221974"><ele>504.0</ele><time>2026-04-12T13:55:53.038Z</time></trkpt><trkpt lat="42.85306969813696" lon="12.305241494220068"><ele>502.5</ele><time>2026-04-12T13:55:54.038Z</time></trkpt><trkpt lat="42.85294528512284" lon="12.30525422219208"><ele>501.0</ele><time>2026-04-12T13:55:55.038Z</time></trkpt><trkpt lat="42.85281717221429" lon="12.305274560976734"><ele>501.0</ele><time>2026-04-12T13:55:56.038Z</time></trkpt><trkpt lat="42.8527016598343" lon="12.305299175383347"><ele>501.0</ele><time>2026-04-12T13:55:57.038Z</time></trkpt><trkpt lat="42.85259110464141" lon="12.305348926481916"><ele>501.0</ele><time>2026-04-12T13:55:58.038Z</time></trkpt><trkpt lat="42.852481412200724" lon="12.305424153373762"><ele>501.0</ele><time>2026-04-12T13:55:59.038Z</time></trkpt><trkpt lat="42.8523926482881" lon="12.305532478128391"><ele>498.25</ele><time>2026-04-12T13:56:00.038Z</time></trkpt><trkpt lat="42.85230682612044" lon="12.305655438353073"><ele>495.5</ele><time>2026-04-12T13:56:01.038Z</time></trkpt><trkpt lat="42.852222685833944" lon="12.305763811605914"><ele>492.75</ele><time>2026-04-12T13:56:02.038Z</time></trkpt><trkpt lat="42.852124463626495" lon="12.305844053716795"><ele>490.0</ele><time>2026-04-12T13:56:03.038Z</time></trkpt><trkpt lat="42.85201994232836" lon="12.305897724152072"><ele>490.0</ele><time>2026-04-12T13:56:04.038Z</time></trkpt><trkpt lat="42.85189832792069" lon="12.305932233546203"><ele>490.0</ele><time>2026-04-12T13:56:05.038Z</time></trkpt><trkpt lat="42.85175989985403" lon="12.305958713814224"><ele>490.0</ele><time>2026-04-12T13:56:06.038Z</time></trkpt><trkpt lat="42.85161317121057" lon="12.305995234320932"><ele>490.0</ele><time>2026-04-12T13:56:07.038Z</time></trkpt><trkpt lat="42.85145687079313" lon="12.306019840118724"><ele>490.6666666666667</ele><time>2026-04-12T13:56:08.038Z</time></trkpt><trkpt lat="42.85129499618187" lon="12.306055466567535"><ele>491.33333333333337</ele><time>2026-04-12T13:56:09.038Z</time></trkpt><trkpt lat="42.851140350204574" lon="12.306083154942971"><ele>492.0</ele><time>2026-04-12T13:56:10.038Z</time></trkpt><trkpt lat="42.85099446733928" lon="12.30616209249172"><ele>491.0</ele><time>2026-04-12T13:56:11.038Z</time></trkpt><trkpt lat="42.850857567829614" lon="12.306268629524764"><ele>490.0</ele><time>2026-04-12T13:56:12.038Z</time></trkpt><trkpt lat="42.85073672080228" lon="12.306395347038595"><ele>489.0</ele><time>2026-04-12T13:56:13.038Z</time></trkpt><trkpt lat="42.85062457860132" lon="12.306542314225624"><ele>486.5</ele><time>2026-04-12T13:56:14.038Z</time></trkpt><trkpt lat="42.850520479401155" lon="12.306677445071282"><ele>484.0</ele><time>2026-04-12T13:56:15.038Z</time></trkpt><trkpt lat="42.85041881237084" lon="12.306802205926306"><ele>481.5</ele><time>2026-04-12T13:56:16.038Z</time></trkpt><trkpt lat="42.85031295077033" lon="12.306925125047917"><ele>479.0</ele><time>2026-04-12T13:56:17.038Z</time></trkpt><trkpt lat="42.850202031677334" lon="12.307051439133925"><ele>479.0</ele><time>2026-04-12T13:56:18.038Z</time></trkpt><trkpt lat="42.850095065555536" lon="12.307176711278249"><ele>479.0</ele><time>2026-04-12T13:56:19.038Z</time></trkpt><trkpt lat="42.849983176429916" lon="12.307305792978944"><ele>479.0</ele><time>2026-04-12T13:56:20.038Z</time></trkpt><trkpt lat="42.849872371713154" lon="12.30742976133183"><ele>479.0</ele><time>2026-04-12T13:56:21.038Z</time></trkpt><trkpt lat="42.849758119878956" lon="12.307554249402438"><ele>479.25</ele><time>2026-04-12T13:56:22.038Z</time></trkpt><trkpt lat="42.849640518511954" lon="12.307668259389336"><ele>479.5</ele><time>2026-04-12T13:56:23.038Z</time></trkpt><trkpt lat="42.84952472278247" lon="12.307768525564436"><ele>479.75</ele><time>2026-04-12T13:56:24.038Z</time></trkpt><trkpt lat="42.84940324130739" lon="12.30784750224482"><ele>480.0</ele><time>2026-04-12T13:56:25.038Z</time></trkpt><trkpt lat="42.84928619090906" lon="12.307919635332244"><ele>477.75</ele><time>2026-04-12T13:56:26.038Z</time></trkpt><trkpt lat="42.84915993300501" lon="12.307986035418555"><ele>475.5</ele><time>2026-04-12T13:56:27.038Z</time></trkpt><trkpt lat="42.84904234787072" lon="12.308047937948444"><ele>473.25</ele><time>2026-04-12T13:56:28.038Z</time></trkpt><trkpt lat="42.848931951060706" lon="12.308098391827505"><ele>471.0</ele><time>2026-04-12T13:56:29.038Z</time></trkpt><trkpt lat="42.84882139323294" lon="12.308156885301594"><ele>471.0</ele><time>2026-04-12T13:56:30.038Z</time></trkpt><trkpt lat="42.848718471786405" lon="12.308222551210044"><ele>471.0</ele><time>2026-04-12T13:56:31.038Z</time></trkpt><trkpt lat="42.848622708585786" lon="12.30829036866506"><ele>471.0</ele><time>2026-04-12T13:56:32.038Z</time></trkpt><trkpt lat="42.84852971886269" lon="12.308350818309783"><ele>471.0</ele><time>2026-04-12T13:56:33.038Z</time></trkpt><trkpt lat="42.848433165919985" lon="12.308418845659167"><ele>471.0</ele><time>2026-04-12T13:56:34.038Z</time></trkpt><trkpt lat="42.848337475521404" lon="12.308491153126706"><ele>471.25</ele><time>2026-04-12T13:56:35.038Z</time></trkpt><trkpt lat="42.84823808426813" lon="12.308564410968405"><ele>471.5</ele><time>2026-04-12T13:56:36.038Z</time></trkpt><trkpt lat="42.84813575937507" lon="12.30863146131491"><ele>471.75</ele><time>2026-04-12T13:56:37.038Z</time></trkpt><trkpt lat="42.84803396463655" lon="12.308709742001641"><ele>472.0</ele><time>2026-04-12T13:56:38.038Z</time></trkpt><trkpt lat="42.8479363698601" lon="12.308797905691439"><ele>472.00000000000006</ele><time>2026-04-12T13:56:39.038Z</time></trkpt><trkpt lat="42.84785630324373" lon="12.308884629386876"><ele>472.0</ele><time>2026-04-12T13:56:40.037Z</time></trkpt><trkpt lat="42.84779137966459" lon="12.30897681765471"><ele>472.0</ele><time>2026-04-12T13:56:41.037Z</time></trkpt><trkpt lat="42.847728775628596" lon="12.309065486523226"><ele>472.0</ele><time>2026-04-12T13:56:42.037Z</time></trkpt><trkpt lat="42.84767685493851" lon="12.309142649783348"><ele>472.00000000000006</ele><time>2026-04-12T13:56:43.037Z</time></trkpt><trkpt lat="42.84762952022393" lon="12.309201925183553"><ele>472.0</ele><time>2026-04-12T13:56:44.037Z</time></trkpt><trkpt lat="42.847559599929504" lon="12.30929324730401"><ele>471.50000000000006</ele><time>2026-04-12T13:56:46.037Z</time></trkpt><trkpt lat="42.84749817689577" lon="12.309371414829906"><ele>471.0</ele><time>2026-04-12T13:56:48.037Z</time></trkpt><trkpt lat="42.8474376255553" lon="12.309439391956198"><ele>470.5</ele><time>2026-04-12T13:56:50.037Z</time></trkpt><trkpt lat="42.84735565434419" lon="12.309535410713524"><ele>470.0</ele><time>2026-04-12T13:56:52.039Z</time></trkpt><trkpt lat="42.847306389184325" lon="12.309598754811766"><ele>469.50000000000006</ele><time>2026-04-12T13:56:53.039Z</time></trkpt><trkpt lat="42.847248982394206" lon="12.309669276973853"><ele>469.0</ele><time>2026-04-12T13:56:54.039Z</time></trkpt><trkpt lat="42.847186894273044" lon="12.309738993419394"><ele>468.83333333333337</ele><time>2026-04-12T13:56:55.039Z</time></trkpt><trkpt lat="42.84712710160575" lon="12.309810628947039"><ele>468.6666666666667</ele><time>2026-04-12T13:56:56.039Z</time></trkpt><trkpt lat="42.84707154955825" lon="12.309881027893246"><ele>468.5</ele><time>2026-04-12T13:56:57.039Z</time></trkpt><trkpt lat="42.8470188049567" lon="12.309945815068248"><ele>468.33333333333337</ele><time>2026-04-12T13:56:58.039Z</time></trkpt><trkpt lat="42.84696029294478" lon="12.310009639452714"><ele>468.1666666666667</ele><time>2026-04-12T13:56:59.039Z</time></trkpt><trkpt lat="42.846910043514484" lon="12.310086676762557"><ele>468.0</ele><time>2026-04-12T13:57:00.039Z</time></trkpt><trkpt lat="42.846864412516425" lon="12.310175829158347"><ele>468.0</ele><time>2026-04-12T13:57:01.039Z</time></trkpt><trkpt lat="42.846821145724654" lon="12.310273504752708"><ele>468.0</ele><time>2026-04-12T13:57:02.039Z</time></trkpt><trkpt lat="42.846784192083085" lon="12.310372464789811"><ele>468.0</ele><time>2026-04-12T13:57:03.039Z</time></trkpt><trkpt lat="42.846735023439244" lon="12.31047221310586"><ele>468.0</ele><time>2026-04-12T13:57:04.039Z</time></trkpt><trkpt lat="42.846697768557966" lon="12.310569596539988"><ele>468.0</ele><time>2026-04-12T13:57:05.038Z</time></trkpt><trkpt lat="42.84666889788593" lon="12.310663696126321"><ele>468.0</ele><time>2026-04-12T13:57:06.038Z</time></trkpt><trkpt lat="42.84664133662049" lon="12.31076037125488"><ele>467.3333333333333</ele><time>2026-04-12T13:57:07.038Z</time></trkpt><trkpt lat="42.846613433383" lon="12.310865585289848"><ele>466.66666666666663</ele><time>2026-04-12T13:57:08.038Z</time></trkpt><trkpt lat="42.84658959442677" lon="12.310957620136806"><ele>466.0</ele><time>2026-04-12T13:57:09.038Z</time></trkpt><trkpt lat="42.84657253469588" lon="12.31105441036071"><ele>465.3333333333333</ele><time>2026-04-12T13:57:10.038Z</time></trkpt><trkpt lat="42.84655839848825" lon="12.31114804705508"><ele>464.66666666666663</ele><time>2026-04-12T13:57:11.038Z</time></trkpt><trkpt lat="42.846541785535905" lon="12.311235909021072"><ele>464.0</ele><time>2026-04-12T13:57:12.038Z</time></trkpt><trkpt lat="42.84651345042233" lon="12.311350311123665"><ele>462.0</ele><time>2026-04-12T13:57:13.038Z</time></trkpt><trkpt lat="42.846489147918874" lon="12.311494856863165"><ele>460.0</ele><time>2026-04-12T13:57:14.038Z</time></trkpt><trkpt lat="42.84650781600869" lon="12.311639799933792"><ele>458.0</ele><time>2026-04-12T13:57:15.038Z</time></trkpt><trkpt lat="42.846541348280056" lon="12.31176586467194"><ele>456.0</ele><time>2026-04-12T13:57:16.038Z</time></trkpt><trkpt lat="42.84658873980931" lon="12.311879478423785"><ele>454.0</ele><time>2026-04-12T13:57:17.038Z</time></trkpt><trkpt lat="42.846641313276834" lon="12.311987963619496"><ele>454.0</ele><time>2026-04-12T13:57:18.038Z</time></trkpt><trkpt lat="42.846705221566545" lon="12.312073994873142"><ele>454.0</ele><time>2026-04-12T13:57:19.038Z</time></trkpt><trkpt lat="42.846739121865035" lon="12.312189497618586"><ele>454.0</ele><time>2026-04-12T13:57:20.038Z</time></trkpt><trkpt lat="42.84678239580135" lon="12.312286999412715"><ele>454.0</ele><time>2026-04-12T13:57:21.038Z</time></trkpt><trkpt lat="42.846834843977874" lon="12.312392507339135"><ele>454.0</ele><time>2026-04-12T13:57:22.038Z</time></trkpt><trkpt lat="42.84689653869301" lon="12.312510576514143"><ele>451.4</ele><time>2026-04-12T13:57:23.038Z</time></trkpt><trkpt lat="42.84695903530955" lon="12.312622239729173"><ele>448.79999999999995</ele><time>2026-04-12T13:57:24.038Z</time></trkpt><trkpt lat="42.847018305260185" lon="12.31272949102528"><ele>446.20000000000005</ele><time>2026-04-12T13:57:25.038Z</time></trkpt><trkpt lat="42.84708285956212" lon="12.312830452927908"><ele>443.6</ele><time>2026-04-12T13:57:26.038Z</time></trkpt><trkpt lat="42.84713040618864" lon="12.312913291940312"><ele>441.0</ele><time>2026-04-12T13:57:27.038Z</time></trkpt><trkpt lat="42.84716754803399" lon="12.313001591821475"><ele>442.0</ele><time>2026-04-12T13:57:28.037Z</time></trkpt><trkpt lat="42.847212259607375" lon="12.313075489506526"><ele>443.0</ele><time>2026-04-12T13:57:29.037Z</time></trkpt><trkpt lat="42.84725697106021" lon="12.313147027886355"><ele>444.0</ele><time>2026-04-12T13:57:30.037Z</time></trkpt><trkpt lat="42.8473027639081" lon="12.31321099184279"><ele>445.0</ele><time>2026-04-12T13:57:31.037Z</time></trkpt><trkpt lat="42.84734161112594" lon="12.313291628419664"><ele>446.0</ele><time>2026-04-12T13:57:32.037Z</time></trkpt><trkpt lat="42.84739065869455" lon="12.313346011666496"><ele>447.0</ele><time>2026-04-12T13:57:33.037Z</time></trkpt><trkpt lat="42.84749187860143" lon="12.313448783434996"><ele>447.0</ele><time>2026-04-12T13:57:35.037Z</time></trkpt><trkpt lat="42.84754931067829" lon="12.313510504084297"><ele>447.0</ele><time>2026-04-12T13:57:36.037Z</time></trkpt><trkpt lat="42.84760985280334" lon="12.313571046208136"><ele>447.0</ele><time>2026-04-12T13:57:37.037Z</time></trkpt><trkpt lat="42.84768384577031" lon="12.313645039183527"><ele>447.0</ele><time>2026-04-12T13:57:38.037Z</time></trkpt><trkpt lat="42.84775096654583" lon="12.313714701492277"><ele>447.0</ele><time>2026-04-12T13:57:39.037Z</time></trkpt><trkpt lat="42.84781647480857" lon="12.313786203603346"><ele>447.0</ele><time>2026-04-12T13:57:40.037Z</time></trkpt><trkpt lat="42.84788375639664" lon="12.313867650055537"><ele>445.8333333333333</ele><time>2026-04-12T13:57:41.037Z</time></trkpt><trkpt lat="42.84794354107847" lon="12.313951422951137"><ele>444.66666666666663</ele><time>2026-04-12T13:57:42.037Z</time></trkpt><trkpt lat="42.84799662302348" lon="12.31403252236217"><ele>443.5</ele><time>2026-04-12T13:57:43.037Z</time></trkpt><trkpt lat="42.84804930869396" lon="12.314115472363053"><ele>442.3333333333333</ele><time>2026-04-12T13:57:44.037Z</time></trkpt><trkpt lat="42.84810057864994" lon="12.31420136825812"><ele>441.16666666666663</ele><time>2026-04-12T13:57:45.037Z</time></trkpt><trkpt lat="42.84814805375145" lon="12.314289305518368"><ele>440.0</ele><time>2026-04-12T13:57:46.037Z</time></trkpt><trkpt lat="42.84819040505447" lon="12.314378009601121"><ele>439.99999999999994</ele><time>2026-04-12T13:57:47.037Z</time></trkpt><trkpt lat="42.848228413867176" lon="12.314459656550271"><ele>440.0</ele><time>2026-04-12T13:57:48.037Z</time></trkpt><trkpt lat="42.848269487762394" lon="12.314548669103871"><ele>440.0</ele><time>2026-04-12T13:57:50.037Z</time></trkpt><trkpt lat="42.84830175373455" lon="12.314643631218996"><ele>440.0</ele><time>2026-04-12T13:57:52.037Z</time></trkpt><trkpt lat="42.84832847945616" lon="12.314744995428217"><ele>439.99999999999994</ele><time>2026-04-12T13:57:54.037Z</time></trkpt><trkpt lat="42.84835270801266" lon="12.3148583557377"><ele>440.0</ele><time>2026-04-12T13:57:57.037Z</time></trkpt><trkpt lat="42.84836011847481" lon="12.31474050356924"><ele>440.0</ele><time>2026-04-12T13:58:04.037Z</time></trkpt><trkpt lat="42.848316332872514" lon="12.314642413144764"><ele>440.0</ele><time>2026-04-12T13:58:05.037Z</time></trkpt><trkpt lat="42.84824594629316" lon="12.314465367129424"><ele>440.0</ele><time>2026-04-12T13:58:07.037Z</time></trkpt><trkpt lat="42.84817941687613" lon="12.31430583457953"><ele>440.0</ele><time>2026-04-12T13:58:08.037Z</time></trkpt><trkpt lat="42.848120998160184" lon="12.314203910410995"><ele>440.0</ele><time>2026-04-12T13:58:09.037Z</time></trkpt><trkpt lat="42.84805953199443" lon="12.31409773882182"><ele>440.0</ele><time>2026-04-12T13:58:10.037Z</time></trkpt><trkpt lat="42.847995237872816" lon="12.314004416211388"><ele>440.0</ele><time>2026-04-12T13:58:11.037Z</time></trkpt><trkpt lat="42.847934449466486" lon="12.313917980741003"><ele>440.0</ele><time>2026-04-12T13:58:12.037Z</time></trkpt><trkpt lat="42.84787429575803" lon="12.31382501506546"><ele>440.0</ele><time>2026-04-12T13:58:13.037Z</time></trkpt><trkpt lat="42.84780106562572" lon="12.313745081601294"><ele>441.16666666666663</ele><time>2026-04-12T13:58:14.037Z</time></trkpt><trkpt lat="42.84773243027962" lon="12.313673748530054"><ele>442.3333333333333</ele><time>2026-04-12T13:58:15.037Z</time></trkpt><trkpt lat="42.84766076946885" lon="12.313594153881521"><ele>443.5</ele><time>2026-04-12T13:58:16.037Z</time></trkpt><trkpt lat="42.8475972240801" lon="12.313535286237391"><ele>444.66666666666663</ele><time>2026-04-12T13:58:17.037Z</time></trkpt><trkpt lat="42.84753632677537" lon="12.313474318623424"><ele>445.8333333333333</ele><time>2026-04-12T13:58:18.037Z</time></trkpt><trkpt lat="42.84747797391549" lon="12.313408074195257"><ele>447.0</ele><time>2026-04-12T13:58:19.037Z</time></trkpt><trkpt lat="42.84743364681515" lon="12.313346695883752"><ele>447.0</ele><time>2026-04-12T13:58:20.037Z</time></trkpt><trkpt lat="42.84737617316196" lon="12.313246783135508"><ele>447.0</ele><time>2026-04-12T13:58:22.037Z</time></trkpt><trkpt lat="42.84732265061843" lon="12.313111842755244"><ele>447.0</ele><time>2026-04-12T13:58:24.037Z</time></trkpt><trkpt lat="42.84728243989406" lon="12.313043978243014"><ele>447.0</ele><time>2026-04-12T13:58:25.037Z</time></trkpt><trkpt lat="42.84723025704147" lon="12.312969702630749"><ele>447.0</ele><time>2026-04-12T13:58:26.037Z</time></trkpt><trkpt lat="42.847184309312134" lon="12.312897134666896"><ele>447.0</ele><time>2026-04-12T13:58:27.037Z</time></trkpt><trkpt lat="42.847137776303555" lon="12.312824732251855"><ele>446.0</ele><time>2026-04-12T13:58:28.037Z</time></trkpt><trkpt lat="42.847093266554026" lon="12.312741258877063"><ele>445.0</ele><time>2026-04-12T13:58:29.037Z</time></trkpt><trkpt lat="42.84704523832896" lon="12.312655680484418"><ele>444.0</ele><time>2026-04-12T13:58:30.037Z</time></trkpt><trkpt lat="42.84700699197262" lon="12.312567999412165"><ele>443.0</ele><time>2026-04-12T13:58:31.037Z</time></trkpt><trkpt lat="42.84696696318438" lon="12.312480668461362"><ele>442.0</ele><time>2026-04-12T13:58:32.037Z</time></trkpt><trkpt lat="42.8469303081172" lon="12.312393133178272"><ele>441.0</ele><time>2026-04-12T13:58:33.037Z</time></trkpt><trkpt lat="42.846885789553255" lon="12.312302154338791"><ele>440.6666666666667</ele><time>2026-04-12T13:58:34.037Z</time></trkpt><trkpt lat="42.84683495545103" lon="12.312208748795815"><ele>440.33333333333337</ele><time>2026-04-12T13:58:35.037Z</time></trkpt><trkpt lat="42.84678473346977" lon="12.312117709965575"><ele>440.0</ele><time>2026-04-12T13:58:36.037Z</time></trkpt><trkpt lat="42.84673376006259" lon="12.312022752526733"><ele>439.6666666666667</ele><time>2026-04-12T13:58:37.037Z</time></trkpt><trkpt lat="42.84667946505425" lon="12.311925885738205"><ele>439.33333333333337</ele><time>2026-04-12T13:58:38.037Z</time></trkpt><trkpt lat="42.84662368310118" lon="12.31181975276252"><ele>439.0</ele><time>2026-04-12T13:58:39.037Z</time></trkpt><trkpt lat="42.84659162023631" lon="12.31172050423312"><ele>441.50000000000006</ele><time>2026-04-12T13:58:40.037Z</time></trkpt><trkpt lat="42.84655934392333" lon="12.311616703286978"><ele>444.0</ele><time>2026-04-12T13:58:41.036Z</time></trkpt><trkpt lat="42.84653973067828" lon="12.311511435161526"><ele>446.5</ele><time>2026-04-12T13:58:42.036Z</time></trkpt><trkpt lat="42.84654063025484" lon="12.31141815741943"><ele>449.0</ele><time>2026-04-12T13:58:43.036Z</time></trkpt><trkpt lat="42.84655332234066" lon="12.311323904555831"><ele>451.50000000000006</ele><time>2026-04-12T13:58:44.036Z</time></trkpt><trkpt lat="42.84657487925023" lon="12.311231002615845"><ele>454.0</ele><time>2026-04-12T13:58:45.036Z</time></trkpt><trkpt lat="42.846605036303224" lon="12.311128793009738"><ele>456.0</ele><time>2026-04-12T13:58:46.036Z</time></trkpt><trkpt lat="42.846640048271865" lon="12.311006256288094"><ele>458.0</ele><time>2026-04-12T13:58:47.036Z</time></trkpt><trkpt lat="42.846675453826364" lon="12.310871939285374"><ele>460.0</ele><time>2026-04-12T13:58:48.036Z</time></trkpt><trkpt lat="42.84670828749446" lon="12.310738674016134"><ele>462.0</ele><time>2026-04-12T13:58:49.036Z</time></trkpt><trkpt lat="42.84674294605782" lon="12.310616554535665"><ele>464.0</ele><time>2026-04-12T13:58:50.036Z</time></trkpt><trkpt lat="42.846774656909595" lon="12.31050517917549"><ele>464.79999999999995</ele><time>2026-04-12T13:58:51.036Z</time></trkpt><trkpt lat="42.846804602061056" lon="12.310391644367133"><ele>465.59999999999997</ele><time>2026-04-12T13:58:52.036Z</time></trkpt><trkpt lat="42.84684294994803" lon="12.310278590608636"><ele>466.4</ele><time>2026-04-12T13:58:53.036Z</time></trkpt><trkpt lat="42.84690609034965" lon="12.310159153560042"><ele>467.2</ele><time>2026-04-12T13:58:54.036Z</time></trkpt><trkpt lat="42.84697376453584" lon="12.31005721051642"><ele>468.0</ele><time>2026-04-12T13:58:55.036Z</time></trkpt><trkpt lat="42.847048538974455" lon="12.30995994149262"><ele>468.0</ele><time>2026-04-12T13:58:56.036Z</time></trkpt><trkpt lat="42.84713855376968" lon="12.30986298600483"><ele>467.99999999999994</ele><time>2026-04-12T13:58:57.036Z</time></trkpt><trkpt lat="42.847215854922034" lon="12.309771248533469"><ele>467.99999999999994</ele><time>2026-04-12T13:58:58.039Z</time></trkpt><trkpt lat="42.847289668738036" lon="12.309683146060307"><ele>468.0</ele><time>2026-04-12T13:58:59.039Z</time></trkpt><trkpt lat="42.847357686564216" lon="12.309601723202459"><ele>468.0</ele><time>2026-04-12T13:59:00.039Z</time></trkpt><trkpt lat="42.84741015527385" lon="12.309530708398809"><ele>468.2</ele><time>2026-04-12T13:59:01.039Z</time></trkpt><trkpt lat="42.84747317418873" lon="12.309455181463292"><ele>468.4</ele><time>2026-04-12T13:59:03.039Z</time></trkpt><trkpt lat="42.84737165729964" lon="12.309292452779998"><ele>468.59999999999997</ele><time>2026-04-12T13:59:06.039Z</time></trkpt><trkpt lat="42.84730672786423" lon="12.309260621597865"><ele>468.79999999999995</ele><time>2026-04-12T13:59:07.04Z</time></trkpt><trkpt lat="42.84721867193045" lon="12.309207704809552"><ele>469.0</ele><time>2026-04-12T13:59:08.039Z</time></trkpt><trkpt lat="42.84710383993194" lon="12.309139994692543"><ele>469.0</ele><time>2026-04-12T13:59:09.039Z</time></trkpt><trkpt lat="42.846980938289114" lon="12.309053883454002"><ele>469.0</ele><time>2026-04-12T13:59:10.039Z</time></trkpt><trkpt lat="42.846844580754215" lon="12.308961512080609"><ele>469.0</ele><time>2026-04-12T13:59:11.039Z</time></trkpt><trkpt lat="42.84669785672421" lon="12.308851895617899"><ele>465.6666666666667</ele><time>2026-04-12T13:59:12.039Z</time></trkpt><trkpt lat="42.846553525081426" lon="12.308747303177967"><ele>462.33333333333337</ele><time>2026-04-12T13:59:13.039Z</time></trkpt><trkpt lat="42.8464205791435" lon="12.308644383841035"><ele>459.0</ele><time>2026-04-12T13:59:14.039Z</time></trkpt><trkpt lat="42.846292921224226" lon="12.308550544696303"><ele>459.0</ele><time>2026-04-12T13:59:15.039Z</time></trkpt><trkpt lat="42.846176208570135" lon="12.308486224737758"><ele>459.0</ele><time>2026-04-12T13:59:16.039Z</time></trkpt><trkpt lat="42.84606709144633" lon="12.308450049095358"><ele>459.0</ele><time>2026-04-12T13:59:17.039Z</time></trkpt><trkpt lat="42.84595051365744" lon="12.308444916388327"><ele>459.0</ele><time>2026-04-12T13:59:18.039Z</time></trkpt><trkpt lat="42.84583683552154" lon="12.30848536122193"><ele>460.5</ele><time>2026-04-12T13:59:19.039Z</time></trkpt><trkpt lat="42.845720034246334" lon="12.308544758661913"><ele>462.0</ele><time>2026-04-12T13:59:20.039Z</time></trkpt><trkpt lat="42.84559249407829" lon="12.308581780967904"><ele>463.5</ele><time>2026-04-12T13:59:21.039Z</time></trkpt><trkpt lat="42.8454750293084" lon="12.308629323534277"><ele>465.0</ele><time>2026-04-12T13:59:22.039Z</time></trkpt><trkpt lat="42.84537168429206" lon="12.30866306651794"><ele>465.0</ele><time>2026-04-12T13:59:23.039Z</time></trkpt><trkpt lat="42.84527994803082" lon="12.308672042332848"><ele>465.0</ele><time>2026-04-12T13:59:24.039Z</time></trkpt><trkpt lat="42.8451934441562" lon="12.308646234549688"><ele>465.0</ele><time>2026-04-12T13:59:25.039Z</time></trkpt><trkpt lat="42.8451263945196" lon="12.308596830377553"><ele>465.0</ele><time>2026-04-12T13:59:26.039Z</time></trkpt><trkpt lat="42.8450736851706" lon="12.308510327435457"><ele>465.0</ele><time>2026-04-12T13:59:27.039Z</time></trkpt><trkpt lat="42.84502177632916" lon="12.308402467223273"><ele>465.0</ele><time>2026-04-12T13:59:28.039Z</time></trkpt><trkpt lat="42.84497531362636" lon="12.308274103087133"><ele>464.8</ele><time>2026-04-12T13:59:29.039Z</time></trkpt><trkpt lat="42.84493099673171" lon="12.308138829805271"><ele>464.6</ele><time>2026-04-12T13:59:30.039Z</time></trkpt><trkpt lat="42.844897804818075" lon="12.307997526226197"><ele>464.4</ele><time>2026-04-12T13:59:31.039Z</time></trkpt><trkpt lat="42.844856181625396" lon="12.307867971142457"><ele>464.2</ele><time>2026-04-12T13:59:32.039Z</time></trkpt><trkpt lat="42.84480968422991" lon="12.307756195552122"><ele>464.0</ele><time>2026-04-12T13:59:33.039Z</time></trkpt><trkpt lat="42.84474075633858" lon="12.307672814739103"><ele>465.6</ele><time>2026-04-12T13:59:34.039Z</time></trkpt><trkpt lat="42.84465316373204" lon="12.307611299841964"><ele>467.2</ele><time>2026-04-12T13:59:35.039Z</time></trkpt><trkpt lat="42.84454992014729" lon="12.307556758340708"><ele>468.80000000000007</ele><time>2026-04-12T13:59:36.039Z</time></trkpt><trkpt lat="42.84446016566697" lon="12.307500439383602"><ele>470.40000000000003</ele><time>2026-04-12T13:59:37.039Z</time></trkpt><trkpt lat="42.844381485724575" lon="12.307430146929862"><ele>472.0</ele><time>2026-04-12T13:59:38.039Z</time></trkpt><trkpt lat="42.84429806385453" lon="12.307347057320053"><ele>473.0</ele><time>2026-04-12T13:59:39.039Z</time></trkpt><trkpt lat="42.84419761205168" lon="12.307278156926836"><ele>474.0</ele><time>2026-04-12T13:59:40.039Z</time></trkpt><trkpt lat="42.84409084138132" lon="12.307246607747373"><ele>475.0</ele><time>2026-04-12T13:59:41.039Z</time></trkpt><trkpt lat="42.84397586551053" lon="12.307239011509198"><ele>476.0</ele><time>2026-04-12T13:59:42.039Z</time></trkpt><trkpt lat="42.84384308088011" lon="12.30725245913834"><ele>475.25</ele><time>2026-04-12T13:59:43.039Z</time></trkpt><trkpt lat="42.84370782927674" lon="12.30725235312157"><ele>474.5</ele><time>2026-04-12T13:59:44.039Z</time></trkpt><trkpt lat="42.84357474235912" lon="12.307251967221701"><ele>473.75</ele><time>2026-04-12T13:59:45.039Z</time></trkpt><trkpt lat="42.84344157387541" lon="12.307247460812404"><ele>473.0</ele><time>2026-04-12T13:59:46.039Z</time></trkpt><trkpt lat="42.84330606106653" lon="12.3072406128963"><ele>473.0</ele><time>2026-04-12T13:59:47.039Z</time></trkpt><trkpt lat="42.84318470976059" lon="12.307230997348693"><ele>472.99999999999994</ele><time>2026-04-12T13:59:48.039Z</time></trkpt><trkpt lat="42.843083289793206" lon="12.307207942572417"><ele>472.99999999999994</ele><time>2026-04-12T13:59:49.039Z</time></trkpt><trkpt lat="42.84299333210451" lon="12.307173338305153"><ele>473.0</ele><time>2026-04-12T13:59:50.039Z</time></trkpt><trkpt lat="42.84292904662645" lon="12.307128314079602"><ele>473.0</ele><time>2026-04-12T13:59:51.039Z</time></trkpt><trkpt lat="42.84285772049512" lon="12.307059864195843"><ele>473.0</ele><time>2026-04-12T13:59:52.039Z</time></trkpt><trkpt lat="42.84277373021353" lon="12.306978167117032"><ele>473.0</ele><time>2026-04-12T13:59:53.039Z</time></trkpt><trkpt lat="42.84270263611364" lon="12.306857674019406"><ele>473.0</ele><time>2026-04-12T13:59:54.039Z</time></trkpt><trkpt lat="42.8426153982872" lon="12.306750228491161"><ele>473.0</ele><time>2026-04-12T13:59:55.039Z</time></trkpt><trkpt lat="42.84252404391264" lon="12.306648137823306"><ele>471.25</ele><time>2026-04-12T13:59:56.039Z</time></trkpt><trkpt lat="42.842415807702615" lon="12.306562057605507"><ele>469.5</ele><time>2026-04-12T13:59:57.039Z</time></trkpt><trkpt lat="42.842293751088896" lon="12.306523070047778"><ele>467.75</ele><time>2026-04-12T13:59:58.039Z</time></trkpt><trkpt lat="42.84217489165796" lon="12.30647342235132"><ele>466.0</ele><time>2026-04-12T13:59:59.039Z</time></trkpt><trkpt lat="42.84206333150484" lon="12.306428277336401"><ele>467.4</ele><time>2026-04-12T14:00:00.039Z</time></trkpt><trkpt lat="42.84196744222778" lon="12.306374381262561"><ele>468.8</ele><time>2026-04-12T14:00:01.039Z</time></trkpt><trkpt lat="42.84189139235284" lon="12.30630537262529"><ele>470.19999999999993</ele><time>2026-04-12T14:00:02.039Z</time></trkpt><trkpt lat="42.84183505890818" lon="12.306209812221972"><ele>471.59999999999997</ele><time>2026-04-12T14:00:03.039Z</time></trkpt><trkpt lat="42.84178044440064" lon="12.306097860916793"><ele>473.0</ele><time>2026-04-12T14:00:04.039Z</time></trkpt><trkpt lat="42.841742490918755" lon="12.305984039755279"><ele>471.0</ele><time>2026-04-12T14:00:05.039Z</time></trkpt><trkpt lat="42.84171875810344" lon="12.305860933215852"><ele>468.99999999999994</ele><time>2026-04-12T14:00:06.039Z</time></trkpt><trkpt lat="42.84171120816866" lon="12.305731971686262"><ele>466.99999999999994</ele><time>2026-04-12T14:00:07.039Z</time></trkpt><trkpt lat="42.841707940223465" lon="12.305601356997675"><ele>465.0</ele><time>2026-04-12T14:00:08.039Z</time></trkpt><trkpt lat="42.841704396737875" lon="12.305473300701868"><ele>463.0</ele><time>2026-04-12T14:00:09.039Z</time></trkpt><trkpt lat="42.8416678588262" lon="12.305350037655588"><ele>463.0</ele><time>2026-04-12T14:00:10.038Z</time></trkpt><trkpt lat="42.84159632217057" lon="12.305250359331696"><ele>462.99999999999994</ele><time>2026-04-12T14:00:11.038Z</time></trkpt><trkpt lat="42.84152956394472" lon="12.305158291486961"><ele>462.99999999999994</ele><time>2026-04-12T14:00:12.038Z</time></trkpt><trkpt lat="42.84148933521453" lon="12.305051500659559"><ele>463.0</ele><time>2026-04-12T14:00:13.038Z</time></trkpt><trkpt lat="42.84144534370565" lon="12.304933588131348"><ele>463.0</ele><time>2026-04-12T14:00:14.038Z</time></trkpt><trkpt lat="42.84142364655631" lon="12.304798168103988"><ele>462.4</ele><time>2026-04-12T14:00:15.038Z</time></trkpt><trkpt lat="42.84140917322571" lon="12.304659692649551"><ele>461.79999999999995</ele><time>2026-04-12T14:00:16.038Z</time></trkpt><trkpt lat="42.841401915330316" lon="12.304531817611597"><ele>461.2</ele><time>2026-04-12T14:00:17.038Z</time></trkpt><trkpt lat="42.84139513842422" lon="12.304402731705043"><ele>460.6</ele><time>2026-04-12T14:00:18.038Z</time></trkpt><trkpt lat="42.84139312484623" lon="12.304269177139272"><ele>460.0</ele><time>2026-04-12T14:00:19.038Z</time></trkpt><trkpt lat="42.8413748577488" lon="12.304137262834836"><ele>460.0</ele><time>2026-04-12T14:00:20.038Z</time></trkpt><trkpt lat="42.8413477755971" lon="12.304000359797344"><ele>460.0</ele><time>2026-04-12T14:00:21.038Z</time></trkpt><trkpt lat="42.8413091487265" lon="12.30387513356018"><ele>460.0</ele><time>2026-04-12T14:00:22.038Z</time></trkpt><trkpt lat="42.841284725919095" lon="12.303748954540449"><ele>460.0</ele><time>2026-04-12T14:00:23.038Z</time></trkpt><trkpt lat="42.84125158686697" lon="12.303600120505584"><ele>460.0</ele><time>2026-04-12T14:00:24.038Z</time></trkpt><trkpt lat="42.84124211997009" lon="12.303460028897032"><ele>457.5</ele><time>2026-04-12T14:00:25.038Z</time></trkpt><trkpt lat="42.84122925680759" lon="12.303314501595384"><ele>455.0</ele><time>2026-04-12T14:00:26.038Z</time></trkpt><trkpt lat="42.84120308260681" lon="12.30316870071374"><ele>452.5</ele><time>2026-04-12T14:00:27.038Z</time></trkpt><trkpt lat="42.841166327931326" lon="12.303013467115562"><ele>450.0</ele><time>2026-04-12T14:00:28.038Z</time></trkpt><trkpt lat="42.84111534365681" lon="12.302860243251049"><ele>448.0</ele><time>2026-04-12T14:00:29.038Z</time></trkpt><trkpt lat="42.84106936689231" lon="12.30272091818286"><ele>446.0</ele><time>2026-04-12T14:00:30.038Z</time></trkpt><trkpt lat="42.84103391193004" lon="12.302587501472006"><ele>444.0</ele><time>2026-04-12T14:00:31.038Z</time></trkpt><trkpt lat="42.84101864762368" lon="12.302460168117532"><ele>442.0</ele><time>2026-04-12T14:00:32.038Z</time></trkpt><trkpt lat="42.841020967573776" lon="12.302336864138626"><ele>440.0</ele><time>2026-04-12T14:00:33.038Z</time></trkpt><trkpt lat="42.84102995846534" lon="12.302207921921395"><ele>438.6</ele><time>2026-04-12T14:00:34.038Z</time></trkpt><trkpt lat="42.84105331263714" lon="12.302089053393274"><ele>437.2</ele><time>2026-04-12T14:00:35.038Z</time></trkpt><trkpt lat="42.84111214150167" lon="12.301992869608153"><ele>435.79999999999995</ele><time>2026-04-12T14:00:36.038Z</time></trkpt><trkpt lat="42.8411538133974" lon="12.301872379686824"><ele>434.4</ele><time>2026-04-12T14:00:37.038Z</time></trkpt><trkpt lat="42.84120169290364" lon="12.301747570786226"><ele>433.0</ele><time>2026-04-12T14:00:38.038Z</time></trkpt><trkpt lat="42.84122293309245" lon="12.301615039905872"><ele>433.0</ele><time>2026-04-12T14:00:39.038Z</time></trkpt><trkpt lat="42.84122877961925" lon="12.301479618918336"><ele>432.99999999999994</ele><time>2026-04-12T14:00:40.038Z</time></trkpt><trkpt lat="42.84120410950169" lon="12.301345017048885"><ele>432.99999999999994</ele><time>2026-04-12T14:00:41.038Z</time></trkpt><trkpt lat="42.84116967117102" lon="12.301226001338057"><ele>433.0</ele><time>2026-04-12T14:00:42.038Z</time></trkpt><trkpt lat="42.84112470596576" lon="12.301123868494157"><ele>433.0</ele><time>2026-04-12T14:00:43.038Z</time></trkpt><trkpt lat="42.841091070614134" lon="12.301023112917417"><ele>433.1666666666667</ele><time>2026-04-12T14:00:44.038Z</time></trkpt><trkpt lat="42.84106462762213" lon="12.300927189337779"><ele>433.33333333333337</ele><time>2026-04-12T14:00:45.038Z</time></trkpt><trkpt lat="42.84105721275849" lon="12.300838598084875"><ele>433.5</ele><time>2026-04-12T14:00:46.038Z</time></trkpt><trkpt lat="42.84102389984685" lon="12.300677265281374"><ele>433.66666666666663</ele><time>2026-04-12T14:00:48.038Z</time></trkpt><trkpt lat="42.84103325845878" lon="12.300590669757431"><ele>433.8333333333333</ele><time>2026-04-12T14:00:49.038Z</time></trkpt><trkpt lat="42.84108053842753" lon="12.300489299474268"><ele>434.0</ele><time>2026-04-12T14:00:50.038Z</time></trkpt><trkpt lat="42.84114309130776" lon="12.30041384173444"><ele>436.0</ele><time>2026-04-12T14:00:51.038Z</time></trkpt><trkpt lat="42.84121073697377" lon="12.30034962222039"><ele>438.0</ele><time>2026-04-12T14:00:52.038Z</time></trkpt><trkpt lat="42.84129222755026" lon="12.30028288692487"><ele>440.0</ele><time>2026-04-12T14:00:53.038Z</time></trkpt><trkpt lat="42.84138923550408" lon="12.300225226701578"><ele>442.0</ele><time>2026-04-12T14:00:54.038Z</time></trkpt><trkpt lat="42.84149552585993" lon="12.300164361794902"><ele>444.0</ele><time>2026-04-12T14:00:55.038Z</time></trkpt><trkpt lat="42.841611530675245" lon="12.300094038390712"><ele>444.0</ele><time>2026-04-12T14:00:56.038Z</time></trkpt><trkpt lat="42.84173329417508" lon="12.300034325017549"><ele>444.0</ele><time>2026-04-12T14:00:57.038Z</time></trkpt><trkpt lat="42.841861561903755" lon="12.299976847361002"><ele>444.0</ele><time>2026-04-12T14:00:58.038Z</time></trkpt><trkpt lat="42.841985593172176" lon="12.299912142187612"><ele>444.0</ele><time>2026-04-12T14:00:59.038Z</time></trkpt><trkpt lat="42.842094283020124" lon="12.299861860251687"><ele>444.2</ele><time>2026-04-12T14:01:00.038Z</time></trkpt><trkpt lat="42.84218548484507" lon="12.29981204710414"><ele>444.4</ele><time>2026-04-12T14:01:01.038Z</time></trkpt><trkpt lat="42.84224283824012" lon="12.299751362861382"><ele>444.6</ele><time>2026-04-12T14:01:02.038Z</time></trkpt><trkpt lat="42.842272897698045" lon="12.29960278574543"><ele>444.8</ele><time>2026-04-12T14:01:04.04Z</time></trkpt><trkpt lat="42.842206368149114" lon="12.299465791133512"><ele>445.0</ele><time>2026-04-12T14:01:06.04Z</time></trkpt><trkpt lat="42.84211017763205" lon="12.299467251916337"><ele>444.4</ele><time>2026-04-12T14:01:07.04Z</time></trkpt><trkpt lat="42.842024360510656" lon="12.299451282220312"><ele>443.8</ele><time>2026-04-12T14:01:08.04Z</time></trkpt><trkpt lat="42.841942027731626" lon="12.29948181663884"><ele>443.20000000000005</ele><time>2026-04-12T14:01:09.04Z</time></trkpt><trkpt lat="42.841859081882596" lon="12.299482707253107"><ele>442.6</ele><time>2026-04-12T14:01:10.04Z</time></trkpt><trkpt lat="42.841764651289196" lon="12.299467234668342"><ele>442.0</ele><time>2026-04-12T14:01:11.04Z</time></trkpt><trkpt lat="42.84164864379103" lon="12.299479083786196"><ele>444.0</ele><time>2026-04-12T14:01:12.04Z</time></trkpt><trkpt lat="42.84153375407532" lon="12.299472610736155"><ele>446.0</ele><time>2026-04-12T14:01:13.04Z</time></trkpt><trkpt lat="42.84140779240746" lon="12.299464078471704"><ele>448.0</ele><time>2026-04-12T14:01:14.04Z</time></trkpt><trkpt lat="42.841285009576154" lon="12.299462125301996"><ele>450.0</ele><time>2026-04-12T14:01:15.04Z</time></trkpt><trkpt lat="42.841165132308106" lon="12.299460635773231"><ele>450.0</ele><time>2026-04-12T14:01:16.04Z</time></trkpt><trkpt lat="42.841052841845546" lon="12.299465442358905"><ele>450.0</ele><time>2026-04-12T14:01:17.04Z</time></trkpt><trkpt lat="42.840940535618245" lon="12.299477829615933"><ele>450.0</ele><time>2026-04-12T14:01:18.04Z</time></trkpt><trkpt lat="42.84083067145206" lon="12.29950539358123"><ele>450.0</ele><time>2026-04-12T14:01:19.04Z</time></trkpt><trkpt lat="42.840719362263606" lon="12.299545818306575"><ele>452.0</ele><time>2026-04-12T14:01:20.04Z</time></trkpt><trkpt lat="42.840614843927845" lon="12.29959149385868"><ele>454.0</ele><time>2026-04-12T14:01:21.04Z</time></trkpt><trkpt lat="42.84050784388434" lon="12.299628321598512"><ele>456.0</ele><time>2026-04-12T14:01:22.04Z</time></trkpt><trkpt lat="42.840408326649204" lon="12.299635195186646"><ele>458.0</ele><time>2026-04-12T14:01:23.04Z</time></trkpt><trkpt lat="42.840309059379706" lon="12.29962123873292"><ele>460.0</ele><time>2026-04-12T14:01:24.04Z</time></trkpt><trkpt lat="42.84020730222138" lon="12.299603354923422"><ele>461.6</ele><time>2026-04-12T14:01:25.04Z</time></trkpt><trkpt lat="42.84010487571725" lon="12.29957750430139"><ele>463.2</ele><time>2026-04-12T14:01:26.04Z</time></trkpt><trkpt lat="42.839999455614354" lon="12.299616844178233"><ele>464.79999999999995</ele><time>2026-04-12T14:01:27.04Z</time></trkpt><trkpt lat="42.83989055396553" lon="12.299642732473176"><ele>466.4</ele><time>2026-04-12T14:01:28.04Z</time></trkpt><trkpt lat="42.83977623747747" lon="12.299680122661401"><ele>468.0</ele><time>2026-04-12T14:01:29.04Z</time></trkpt><trkpt lat="42.83965186121986" lon="12.29972370629617"><ele>466.25</ele><time>2026-04-12T14:01:30.04Z</time></trkpt><trkpt lat="42.839519180808615" lon="12.299762165397883"><ele>464.5</ele><time>2026-04-12T14:01:31.04Z</time></trkpt><trkpt lat="42.839399295942066" lon="12.299798051160401"><ele>462.75</ele><time>2026-04-12T14:01:32.04Z</time></trkpt><trkpt lat="42.839287653876866" lon="12.299825466253598"><ele>461.0</ele><time>2026-04-12T14:01:33.04Z</time></trkpt><trkpt lat="42.83917831687478" lon="12.299864903348356"><ele>461.0</ele><time>2026-04-12T14:01:34.04Z</time></trkpt><trkpt lat="42.83910511359626" lon="12.299874329484568"><ele>461.0</ele><time>2026-04-12T14:01:35.04Z</time></trkpt><trkpt lat="42.83904158881918" lon="12.299896141405151"><ele>461.0</ele><time>2026-04-12T14:01:36.04Z</time></trkpt><trkpt lat="42.83893013651005" lon="12.299926731246302"><ele>461.0</ele><time>2026-04-12T14:01:39.04Z</time></trkpt><trkpt lat="42.83860856131253" lon="12.299848051967738"><ele>461.0</ele><time>2026-04-12T14:01:40.04Z</time></trkpt><trkpt lat="42.838570134528766" lon="12.299771625799067"><ele>461.0</ele><time>2026-04-12T14:01:41.04Z</time></trkpt><trkpt lat="42.83851814897832" lon="12.299681890120038"><ele>461.0</ele><time>2026-04-12T14:01:42.04Z</time></trkpt><trkpt lat="42.8384639117386" lon="12.299563750344703"><ele>461.0</ele><time>2026-04-12T14:01:43.04Z</time></trkpt><trkpt lat="42.83842065573014" lon="12.29942320920071"><ele>461.0</ele><time>2026-04-12T14:01:44.04Z</time></trkpt><trkpt lat="42.83837476459043" lon="12.299257931640843"><ele>461.0</ele><time>2026-04-12T14:01:45.04Z</time></trkpt><trkpt lat="42.83832564059588" lon="12.29909358849674"><ele>461.0</ele><time>2026-04-12T14:01:46.04Z</time></trkpt><trkpt lat="42.83826722608206" lon="12.298923273527796"><ele>461.0</ele><time>2026-04-12T14:01:47.04Z</time></trkpt><trkpt lat="42.838193124879" lon="12.298778358638584"><ele>461.0</ele><time>2026-04-12T14:01:48.04Z</time></trkpt><trkpt lat="42.83815499939079" lon="12.298627891226428"><ele>461.0</ele><time>2026-04-12T14:01:49.04Z</time></trkpt><trkpt lat="42.838103488209626" lon="12.29848309339436"><ele>461.0</ele><time>2026-04-12T14:01:50.04Z</time></trkpt><trkpt lat="42.8380723097641" lon="12.298369770321289"><ele>461.0</ele><time>2026-04-12T14:01:51.04Z</time></trkpt><trkpt lat="42.83805863263783" lon="12.298255396253744"><ele>461.0</ele><time>2026-04-12T14:01:52.04Z</time></trkpt><trkpt lat="42.83805081378367" lon="12.298130555530761"><ele>461.0</ele><time>2026-04-12T14:01:53.04Z</time></trkpt><trkpt lat="42.83805071562592" lon="12.297999128711446"><ele>459.0</ele><time>2026-04-12T14:01:54.04Z</time></trkpt><trkpt lat="42.83805007064234" lon="12.297843429552984"><ele>457.0</ele><time>2026-04-12T14:01:55.04Z</time></trkpt><trkpt lat="42.83804032274054" lon="12.297693741903169"><ele>455.0</ele><time>2026-04-12T14:01:56.04Z</time></trkpt><trkpt lat="42.838035100277565" lon="12.297554225992878"><ele>453.0</ele><time>2026-04-12T14:01:57.04Z</time></trkpt><trkpt lat="42.838005494453995" lon="12.297424749209977"><ele>451.0</ele><time>2026-04-12T14:01:58.04Z</time></trkpt><trkpt lat="42.83794428321912" lon="12.297316999501835"><ele>451.20000000000005</ele><time>2026-04-12T14:01:59.04Z</time></trkpt><trkpt lat="42.837857720518414" lon="12.297239451564243"><ele>451.40000000000003</ele><time>2026-04-12T14:02:00.04Z</time></trkpt><trkpt lat="42.83775599611853" lon="12.29718731403231"><ele>451.6</ele><time>2026-04-12T14:02:01.04Z</time></trkpt><trkpt lat="42.83764538937055" lon="12.297128929443932"><ele>451.8</ele><time>2026-04-12T14:02:02.04Z</time></trkpt><trkpt lat="42.83756087626523" lon="12.297069107550998"><ele>452.0</ele><time>2026-04-12T14:02:03.04Z</time></trkpt><trkpt lat="42.83745061419512" lon="12.296951207495386"><ele>452.0</ele><time>2026-04-12T14:02:04.04Z</time></trkpt><trkpt lat="42.83734693170806" lon="12.296808886763332"><ele>452.0</ele><time>2026-04-12T14:02:05.04Z</time></trkpt><trkpt lat="42.8372640109912" lon="12.296660859811604"><ele>452.0</ele><time>2026-04-12T14:02:06.04Z</time></trkpt><trkpt lat="42.83718683242445" lon="12.296494344744323"><ele>452.0</ele><time>2026-04-12T14:02:07.04Z</time></trkpt><trkpt lat="42.83711666905233" lon="12.296312608537471"><ele>453.5</ele><time>2026-04-12T14:02:08.04Z</time></trkpt><trkpt lat="42.83706073940121" lon="12.296134105411866"><ele>455.0</ele><time>2026-04-12T14:02:09.04Z</time></trkpt><trkpt lat="42.836989557879974" lon="12.2959656698117"><ele>456.5</ele><time>2026-04-12T14:02:10.04Z</time></trkpt><trkpt lat="42.83691840515984" lon="12.295829320460529"><ele>458.0</ele><time>2026-04-12T14:02:11.04Z</time></trkpt><trkpt lat="42.836834708322755" lon="12.295749562723994"><ele>457.2</ele><time>2026-04-12T14:02:12.04Z</time></trkpt><trkpt lat="42.836746734914676" lon="12.295688990300738"><ele>456.4</ele><time>2026-04-12T14:02:13.04Z</time></trkpt><trkpt lat="42.83664708725814" lon="12.295614072940081"><ele>455.59999999999997</ele><time>2026-04-12T14:02:14.04Z</time></trkpt><trkpt lat="42.8365468929469" lon="12.295548370571412"><ele>454.79999999999995</ele><time>2026-04-12T14:02:15.04Z</time></trkpt><trkpt lat="42.83643505930283" lon="12.295480210150831"><ele>454.0</ele><time>2026-04-12T14:02:16.04Z</time></trkpt><trkpt lat="42.83631534274066" lon="12.295411546295831"><ele>454.0</ele><time>2026-04-12T14:02:17.04Z</time></trkpt><trkpt lat="42.8362045629659" lon="12.295350860334155"><ele>454.0</ele><time>2026-04-12T14:02:17.963Z</time></trkpt><trkpt lat="42.836089305326624" lon="12.295288615699054"><ele>454.0</ele><time>2026-04-12T14:02:18.963Z</time></trkpt><trkpt lat="42.835966525440185" lon="12.295246396671853"><ele>454.0</ele><time>2026-04-12T14:02:19.964Z</time></trkpt><trkpt lat="42.835850918034545" lon="12.295181963200383"><ele>453.75</ele><time>2026-04-12T14:02:20.965Z</time></trkpt><trkpt lat="42.83574000348185" lon="12.295110091963231"><ele>453.5</ele><time>2026-04-12T14:02:21.966Z</time></trkpt><trkpt lat="42.83561611052175" lon="12.295054695427174"><ele>453.25</ele><time>2026-04-12T14:02:22.966Z</time></trkpt><trkpt lat="42.8354930830218" lon="12.295015161195941"><ele>453.0</ele><time>2026-04-12T14:02:23.967Z</time></trkpt><trkpt lat="42.83537812367204" lon="12.295013458318847"><ele>453.0</ele><time>2026-04-12T14:02:24.967Z</time></trkpt><trkpt lat="42.83525994944372" lon="12.294999171979747"><ele>453.0</ele><time>2026-04-12T14:02:25.968Z</time></trkpt><trkpt lat="42.83512744622535" lon="12.29500211870406"><ele>453.0</ele><time>2026-04-12T14:02:26.968Z</time></trkpt><trkpt lat="42.835007936833456" lon="12.295011541118203"><ele>453.0</ele><time>2026-04-12T14:02:27.969Z</time></trkpt><trkpt lat="42.83489307591638" lon="12.295003162737602"><ele>453.0</ele><time>2026-04-12T14:02:28.969Z</time></trkpt><trkpt lat="42.83478431020298" lon="12.294947287436996"><ele>452.99999999999994</ele><time>2026-04-12T14:02:29.97Z</time></trkpt><trkpt lat="42.834688592104065" lon="12.29487430865015"><ele>452.99999999999994</ele><time>2026-04-12T14:02:30.97Z</time></trkpt><trkpt lat="42.83460067994759" lon="12.294786827142756"><ele>453.0</ele><time>2026-04-12T14:02:31.971Z</time></trkpt><trkpt lat="42.83451257389452" lon="12.294694288108424"><ele>453.0</ele><time>2026-04-12T14:02:32.971Z</time></trkpt><trkpt lat="42.83443177763073" lon="12.294558222348918"><ele>454.5</ele><time>2026-04-12T14:02:33.971Z</time></trkpt><trkpt lat="42.834362628929476" lon="12.29440180092001"><ele>456.0</ele><time>2026-04-12T14:02:34.971Z</time></trkpt><trkpt lat="42.83430064037153" lon="12.294254096975154"><ele>457.5</ele><time>2026-04-12T14:02:35.972Z</time></trkpt><trkpt lat="42.834254492975866" lon="12.294117429044055"><ele>459.0</ele><time>2026-04-12T14:02:36.972Z</time></trkpt><trkpt lat="42.834223027334026" lon="12.294004583373566"><ele>458.0</ele><time>2026-04-12T14:02:37.972Z</time></trkpt><trkpt lat="42.83422139757625" lon="12.293878567181286"><ele>457.0</ele><time>2026-04-12T14:02:38.972Z</time></trkpt><trkpt lat="42.83419897290978" lon="12.293759585164656"><ele>456.0</ele><time>2026-04-12T14:02:39.973Z</time></trkpt><trkpt lat="42.83420365049471" lon="12.293612949485016"><ele>455.0</ele><time>2026-04-12T14:02:40.973Z</time></trkpt><trkpt lat="42.83421707220831" lon="12.293470010157932"><ele>454.0</ele><time>2026-04-12T14:02:41.973Z</time></trkpt><trkpt lat="42.83420684270639" lon="12.293368855353213"><ele>454.0</ele><time>2026-04-12T14:02:42.973Z</time></trkpt><trkpt lat="42.834157625542396" lon="12.293212215875945"><ele>454.0</ele><time>2026-04-12T14:02:44.973Z</time></trkpt><trkpt lat="42.83411861179625" lon="12.293143888042449"><ele>454.0</ele><time>2026-04-12T14:02:45.973Z</time></trkpt><trkpt lat="42.834061914193136" lon="12.293079075578985"><ele>454.0</ele><time>2026-04-12T14:02:46.974Z</time></trkpt><trkpt lat="42.83399037332404" lon="12.293009732180332"><ele>454.0</ele><time>2026-04-12T14:02:47.974Z</time></trkpt><trkpt lat="42.83390542320884" lon="12.292934459106284"><ele>452.4</ele><time>2026-04-12T14:02:48.974Z</time></trkpt><trkpt lat="42.83381414319488" lon="12.292862249221493"><ele>450.79999999999995</ele><time>2026-04-12T14:02:49.974Z</time></trkpt><trkpt lat="42.8337291514664" lon="12.292794650729812"><ele>449.20000000000005</ele><time>2026-04-12T14:02:50.974Z</time></trkpt><trkpt lat="42.833657916867466" lon="12.29272121244837"><ele>447.6</ele><time>2026-04-12T14:02:51.974Z</time></trkpt><trkpt lat="42.83358756412986" lon="12.292667226557327"><ele>446.0</ele><time>2026-04-12T14:02:52.974Z</time></trkpt><trkpt lat="42.83351508196478" lon="12.292593503187035"><ele>446.4</ele><time>2026-04-12T14:02:53.974Z</time></trkpt><trkpt lat="42.83344269083265" lon="12.292522065279224"><ele>446.8</ele><time>2026-04-12T14:02:54.974Z</time></trkpt><trkpt lat="42.833364655512966" lon="12.292453129033152"><ele>447.19999999999993</ele><time>2026-04-12T14:02:55.974Z</time></trkpt><trkpt lat="42.83329486806852" lon="12.292392797198007"><ele>447.59999999999997</ele><time>2026-04-12T14:02:56.974Z</time></trkpt><trkpt lat="42.833227146764884" lon="12.292331861442479"><ele>448.0</ele><time>2026-04-12T14:02:57.974Z</time></trkpt><trkpt lat="42.83313709390647" lon="12.292235756471367"><ele>446.83333333333337</ele><time>2026-04-12T14:02:59.974Z</time></trkpt><trkpt lat="42.83308857328996" lon="12.292175942672198"><ele>445.6666666666667</ele><time>2026-04-12T14:03:00.974Z</time></trkpt><trkpt lat="42.833020672448065" lon="12.292057555704826"><ele>444.5</ele><time>2026-04-12T14:03:02.975Z</time></trkpt><trkpt lat="42.83298358190335" lon="12.291977280703467"><ele>443.33333333333337</ele><time>2026-04-12T14:03:03.975Z</time></trkpt><trkpt lat="42.83293327398982" lon="12.2918675231666"><ele>442.1666666666667</ele><time>2026-04-12T14:03:04.975Z</time></trkpt><trkpt lat="42.83290045768141" lon="12.291728216161047"><ele>441.0</ele><time>2026-04-12T14:03:05.975Z</time></trkpt><trkpt lat="42.83285057751434" lon="12.291571295863156"><ele>439.8</ele><time>2026-04-12T14:03:06.975Z</time></trkpt><trkpt lat="42.83279747181643" lon="12.291420616808688"><ele>438.6</ele><time>2026-04-12T14:03:07.975Z</time></trkpt><trkpt lat="42.83275004649824" lon="12.291284221894625"><ele>437.4</ele><time>2026-04-12T14:03:08.975Z</time></trkpt><trkpt lat="42.832716018999434" lon="12.29115260651844"><ele>436.2</ele><time>2026-04-12T14:03:09.977Z</time></trkpt><trkpt lat="42.832688688621396" lon="12.291037348925933"><ele>435.0</ele><time>2026-04-12T14:03:10.977Z</time></trkpt><trkpt lat="42.83268099410972" lon="12.29092497864122"><ele>435.0</ele><time>2026-04-12T14:03:11.977Z</time></trkpt><trkpt lat="42.83270462539935" lon="12.290810402745954"><ele>435.0</ele><time>2026-04-12T14:03:12.977Z</time></trkpt><trkpt lat="42.83273922264298" lon="12.290716998040125"><ele>435.0</ele><time>2026-04-12T14:03:13.977Z</time></trkpt><trkpt lat="42.83276940272381" lon="12.290615607954459"><ele>435.0</ele><time>2026-04-12T14:03:14.977Z</time></trkpt><trkpt lat="42.83282794037034" lon="12.290540110770175"><ele>435.0</ele><time>2026-04-12T14:03:15.977Z</time></trkpt><trkpt lat="42.83287943194475" lon="12.290446110831727"><ele>435.0</ele><time>2026-04-12T14:03:16.977Z</time></trkpt><trkpt lat="42.832930128539026" lon="12.290336559215076"><ele>436.0</ele><time>2026-04-12T14:03:17.977Z</time></trkpt><trkpt lat="42.83296834178628" lon="12.29020968541161"><ele>437.0</ele><time>2026-04-12T14:03:18.977Z</time></trkpt><trkpt lat="42.83300720804365" lon="12.290080628034886"><ele>438.0</ele><time>2026-04-12T14:03:19.977Z</time></trkpt><trkpt lat="42.83306985298597" lon="12.289932300321603"><ele>439.0</ele><time>2026-04-12T14:03:20.977Z</time></trkpt><trkpt lat="42.833106410458285" lon="12.289782826220906"><ele>440.0</ele><time>2026-04-12T14:03:21.976Z</time></trkpt><trkpt lat="42.8331548690711" lon="12.289650196152385"><ele>440.99999999999994</ele><time>2026-04-12T14:03:22.977Z</time></trkpt><trkpt lat="42.833207613410565" lon="12.289534228157901"><ele>442.0</ele><time>2026-04-12T14:03:23.977Z</time></trkpt><trkpt lat="42.83323679212753" lon="12.289413573301356"><ele>443.0</ele><time>2026-04-12T14:03:24.977Z</time></trkpt><trkpt lat="42.83328600234981" lon="12.289319658874494"><ele>444.0</ele><time>2026-04-12T14:03:25.977Z</time></trkpt><trkpt lat="42.83331271995729" lon="12.289221598113487"><ele>444.99999999999994</ele><time>2026-04-12T14:03:26.977Z</time></trkpt><trkpt lat="42.83330657001121" lon="12.289131104649487"><ele>446.0</ele><time>2026-04-12T14:03:27.977Z</time></trkpt><trkpt lat="42.83328195422977" lon="12.289023118679701"><ele>445.99999999999994</ele><time>2026-04-12T14:03:28.977Z</time></trkpt><trkpt lat="42.833222541428526" lon="12.288932194660182"><ele>446.0</ele><time>2026-04-12T14:03:29.977Z</time></trkpt><trkpt lat="42.833167074360276" lon="12.288851755386917"><ele>446.0</ele><time>2026-04-12T14:03:30.977Z</time></trkpt><trkpt lat="42.83310623941646" lon="12.288752368041287"><ele>446.0</ele><time>2026-04-12T14:03:31.977Z</time></trkpt><trkpt lat="42.83304782151941" lon="12.288656341507723"><ele>445.99999999999994</ele><time>2026-04-12T14:03:32.977Z</time></trkpt><trkpt lat="42.83297925449201" lon="12.288576727493277"><ele>446.0</ele><time>2026-04-12T14:03:33.977Z</time></trkpt><trkpt lat="42.83289445106374" lon="12.288523443578852"><ele>446.6</ele><time>2026-04-12T14:03:34.977Z</time></trkpt><trkpt lat="42.832813560206354" lon="12.28845655031774"><ele>447.20000000000005</ele><time>2026-04-12T14:03:35.977Z</time></trkpt><trkpt lat="42.83272948118373" lon="12.288435465220182"><ele>447.79999999999995</ele><time>2026-04-12T14:03:36.977Z</time></trkpt><trkpt lat="42.83263046412189" lon="12.288402174540973"><ele>448.4</ele><time>2026-04-12T14:03:38.977Z</time></trkpt><trkpt lat="42.83258856686305" lon="12.288332541558507"><ele>449.0</ele><time>2026-04-12T14:03:39.977Z</time></trkpt><trkpt lat="42.83258067224256" lon="12.288153994178103"><ele>447.2</ele><time>2026-04-12T14:03:41.977Z</time></trkpt><trkpt lat="42.83257345795337" lon="12.288020832815283"><ele>445.4</ele><time>2026-04-12T14:03:42.977Z</time></trkpt><trkpt lat="42.832577404165164" lon="12.287866657281688"><ele>443.6</ele><time>2026-04-12T14:03:43.977Z</time></trkpt><trkpt lat="42.832562732886814" lon="12.287724159168008"><ele>441.8</ele><time>2026-04-12T14:03:44.977Z</time></trkpt><trkpt lat="42.83252523103285" lon="12.287598881831395"><ele>440.0</ele><time>2026-04-12T14:03:45.977Z</time></trkpt><trkpt lat="42.83246147832631" lon="12.287463920348344"><ele>440.0</ele><time>2026-04-12T14:03:46.977Z</time></trkpt><trkpt lat="42.832393835594196" lon="12.287342289732292"><ele>440.0</ele><time>2026-04-12T14:03:47.977Z</time></trkpt><trkpt lat="42.83233390975324" lon="12.287195989701278"><ele>440.0</ele><time>2026-04-12T14:03:48.976Z</time></trkpt><trkpt lat="42.83227122252604" lon="12.287043566489112"><ele>440.0</ele><time>2026-04-12T14:03:49.976Z</time></trkpt><trkpt lat="42.832232895466014" lon="12.28688103307509"><ele>438.2</ele><time>2026-04-12T14:03:50.976Z</time></trkpt><trkpt lat="42.83219284813139" lon="12.286729204975707"><ele>436.4</ele><time>2026-04-12T14:03:51.976Z</time></trkpt><trkpt lat="42.83215742159211" lon="12.286591387198028"><ele>434.6</ele><time>2026-04-12T14:03:52.976Z</time></trkpt><trkpt lat="42.83211720602035" lon="12.286473221720332"><ele>432.8</ele><time>2026-04-12T14:03:53.976Z</time></trkpt><trkpt lat="42.832047241114715" lon="12.286383419620845"><ele>431.0</ele><time>2026-04-12T14:03:54.976Z</time></trkpt><trkpt lat="42.83197621440759" lon="12.28630974334497"><ele>429.20000000000005</ele><time>2026-04-12T14:03:55.976Z</time></trkpt><trkpt lat="42.831868890394475" lon="12.286271340614752"><ele>427.40000000000003</ele><time>2026-04-12T14:03:56.976Z</time></trkpt><trkpt lat="42.83176515021288" lon="12.286271331014667"><ele>425.6</ele><time>2026-04-12T14:03:57.976Z</time></trkpt><trkpt lat="42.831681002673434" lon="12.286277123484908"><ele>423.8</ele><time>2026-04-12T14:03:58.976Z</time></trkpt><trkpt lat="42.831598599794994" lon="12.28627609977084"><ele>422.0</ele><time>2026-04-12T14:03:59.976Z</time></trkpt><trkpt lat="42.831531068403706" lon="12.286259531054847"><ele>426.75</ele><time>2026-04-12T14:04:00.976Z</time></trkpt><trkpt lat="42.83144626836341" lon="12.286233629676008"><ele>431.5</ele><time>2026-04-12T14:04:01.976Z</time></trkpt><trkpt lat="42.83136433307255" lon="12.286124773623882"><ele>436.25</ele><time>2026-04-12T14:04:02.976Z</time></trkpt><trkpt lat="42.83128773798784" lon="12.285992734770163"><ele>441.0</ele><time>2026-04-12T14:04:03.976Z</time></trkpt><trkpt lat="42.8312233688411" lon="12.285840110612444"><ele>441.0</ele><time>2026-04-12T14:04:04.976Z</time></trkpt><trkpt lat="42.83115363534181" lon="12.285679300534174"><ele>441.0</ele><time>2026-04-12T14:04:05.976Z</time></trkpt><trkpt lat="42.83108400249205" lon="12.28553704834036"><ele>441.0</ele><time>2026-04-12T14:04:06.976Z</time></trkpt><trkpt lat="42.83102301497806" lon="12.285426357307866"><ele>441.0</ele><time>2026-04-12T14:04:07.976Z</time></trkpt><trkpt lat="42.830954874089116" lon="12.28531599358808"><ele>442.0</ele><time>2026-04-12T14:04:08.976Z</time></trkpt><trkpt lat="42.83089683476059" lon="12.285210663725465"><ele>443.0</ele><time>2026-04-12T14:04:09.976Z</time></trkpt><trkpt lat="42.8308381157189" lon="12.285104711160711"><ele>444.0</ele><time>2026-04-12T14:04:10.976Z</time></trkpt><trkpt lat="42.8307628933757" lon="12.285017414286171"><ele>445.0</ele><time>2026-04-12T14:04:11.976Z</time></trkpt><trkpt lat="42.830663151218815" lon="12.284955301325901"><ele>446.0</ele><time>2026-04-12T14:04:12.976Z</time></trkpt><trkpt lat="42.83056790017666" lon="12.284896801763722"><ele>446.0</ele><time>2026-04-12T14:04:13.976Z</time></trkpt><trkpt lat="42.830464741108095" lon="12.284841572090288"><ele>446.0</ele><time>2026-04-12T14:04:14.976Z</time></trkpt><trkpt lat="42.83036905208634" lon="12.28479666400243"><ele>446.0</ele><time>2026-04-12T14:04:15.976Z</time></trkpt><trkpt lat="42.83027366710624" lon="12.284748848789292"><ele>446.0</ele><time>2026-04-12T14:04:16.976Z</time></trkpt><trkpt lat="42.83018088069782" lon="12.284686128558318"><ele>446.0</ele><time>2026-04-12T14:04:17.976Z</time></trkpt><trkpt lat="42.83008473790838" lon="12.284611349653012"><ele>447.6</ele><time>2026-04-12T14:04:18.976Z</time></trkpt><trkpt lat="42.830004313155634" lon="12.284523653229847"><ele>449.20000000000005</ele><time>2026-04-12T14:04:19.976Z</time></trkpt><trkpt lat="42.82992329323307" lon="12.284423718788327"><ele>450.79999999999995</ele><time>2026-04-12T14:04:20.976Z</time></trkpt><trkpt lat="42.8298478649763" lon="12.28432345055974"><ele>452.4</ele><time>2026-04-12T14:04:21.976Z</time></trkpt><trkpt lat="42.82978400767923" lon="12.2842342606903"><ele>454.0</ele><time>2026-04-12T14:04:22.976Z</time></trkpt><trkpt lat="42.829723335472536" lon="12.284154907711157"><ele>454.00000000000006</ele><time>2026-04-12T14:04:23.976Z</time></trkpt><trkpt lat="42.82966841437072" lon="12.284085781189997"><ele>454.0</ele><time>2026-04-12T14:04:24.975Z</time></trkpt><trkpt lat="42.8296193593878" lon="12.284004798732903"><ele>454.0</ele><time>2026-04-12T14:04:25.975Z</time></trkpt><trkpt lat="42.82959318823108" lon="12.283917111910018"><ele>454.0</ele><time>2026-04-12T14:04:26.975Z</time></trkpt><trkpt lat="42.82958311993774" lon="12.283791301463037"><ele>454.00000000000006</ele><time>2026-04-12T14:04:28.975Z</time></trkpt><trkpt lat="42.829612695886155" lon="12.283650937120548"><ele>454.0</ele><time>2026-04-12T14:04:31.975Z</time></trkpt><trkpt lat="42.82965815160183" lon="12.283518758294774"><ele>456.4</ele><time>2026-04-12T14:04:33.975Z</time></trkpt><trkpt lat="42.82974926969507" lon="12.283414332464163"><ele>458.79999999999995</ele><time>2026-04-12T14:04:35.975Z</time></trkpt><trkpt lat="42.82984577909953" lon="12.283387548994096"><ele>461.20000000000005</ele><time>2026-04-12T14:04:37.975Z</time></trkpt><trkpt lat="42.82995726741473" lon="12.283381354902493"><ele>463.6</ele><time>2026-04-12T14:05:18.976Z</time></trkpt><trkpt lat="42.83002649651489" lon="12.28339359018565"><ele>466.0</ele><time>2026-04-12T14:05:19.977Z</time></trkpt><trkpt lat="42.83011038992994" lon="12.283412782049151"><ele>465.0</ele><time>2026-04-12T14:05:20.976Z</time></trkpt><trkpt lat="42.83021001899336" lon="12.283426683833575"><ele>464.0</ele><time>2026-04-12T14:05:21.976Z</time></trkpt><trkpt lat="42.83029099054343" lon="12.283435266609498"><ele>463.0</ele><time>2026-04-12T14:05:22.976Z</time></trkpt><trkpt lat="42.83036313901377" lon="12.283447047289807"><ele>462.0</ele><time>2026-04-12T14:05:23.976Z</time></trkpt><trkpt lat="42.83047060268505" lon="12.283429316505755"><ele>461.0</ele><time>2026-04-12T14:05:25.976Z</time></trkpt><trkpt lat="42.83059625020918" lon="12.283358399128073"><ele>460.99999999999994</ele><time>2026-04-12T14:05:27.976Z</time></trkpt><trkpt lat="42.8305906018958" lon="12.28319183645814"><ele>461.0</ele><time>2026-04-12T14:05:29.976Z</time></trkpt><trkpt lat="42.8305371248402" lon="12.28312906257814"><ele>461.0</ele><time>2026-04-12T14:05:30.976Z</time></trkpt><trkpt lat="42.8304778917992" lon="12.283089062977442"><ele>461.0</ele><time>2026-04-12T14:05:31.976Z</time></trkpt><trkpt lat="42.83040284658503" lon="12.283059525414329"><ele>460.99999999999994</ele><time>2026-04-12T14:05:32.976Z</time></trkpt><trkpt lat="42.83031366091422" lon="12.283036300882227"><ele>461.0</ele><time>2026-04-12T14:05:33.976Z</time></trkpt><trkpt lat="42.83023419340784" lon="12.283003548882567"><ele>461.16666666666663</ele><time>2026-04-12T14:05:34.976Z</time></trkpt><trkpt lat="42.83016076742947" lon="12.282965743394632"><ele>461.3333333333333</ele><time>2026-04-12T14:05:35.976Z</time></trkpt><trkpt lat="42.83008596510423" lon="12.282915887145002"><ele>461.5</ele><time>2026-04-12T14:05:36.976Z</time></trkpt><trkpt lat="42.830014150702425" lon="12.282855230772805"><ele>461.66666666666663</ele><time>2026-04-12T14:05:37.976Z</time></trkpt><trkpt lat="42.829968140318734" lon="12.282794909162284"><ele>461.8333333333333</ele><time>2026-04-12T14:05:38.976Z</time></trkpt><trkpt lat="42.82993459409482" lon="12.282718282478367"><ele>462.0</ele><time>2026-04-12T14:05:39.976Z</time></trkpt><trkpt lat="42.82990483766798" lon="12.282622601129065"><ele>465.20000000000005</ele><time>2026-04-12T14:05:40.976Z</time></trkpt><trkpt lat="42.82985829476139" lon="12.282516758701846"><ele>468.40000000000003</ele><time>2026-04-12T14:05:41.976Z</time></trkpt><trkpt lat="42.82980121092968" lon="12.282394822724685"><ele>471.59999999999997</ele><time>2026-04-12T14:05:42.976Z</time></trkpt><trkpt lat="42.829729761503444" lon="12.282279518501863"><ele>474.79999999999995</ele><time>2026-04-12T14:05:43.976Z</time></trkpt><trkpt lat="42.82965191130024" lon="12.282179990863538"><ele>478.0</ele><time>2026-04-12T14:05:44.976Z</time></trkpt><trkpt lat="42.82959179515583" lon="12.282099448877789"><ele>479.59999999999997</ele><time>2026-04-12T14:05:45.976Z</time></trkpt><trkpt lat="42.82955613678742" lon="12.282007755849111"><ele>481.19999999999993</ele><time>2026-04-12T14:05:46.976Z</time></trkpt><trkpt lat="42.829544177571066" lon="12.281839455593587"><ele>482.8</ele><time>2026-04-12T14:05:48.976Z</time></trkpt><trkpt lat="42.82953112548444" lon="12.281713247477402"><ele>484.4</ele><time>2026-04-12T14:05:49.976Z</time></trkpt><trkpt lat="42.82945881243399" lon="12.281605951297443"><ele>486.0</ele><time>2026-04-12T14:05:50.976Z</time></trkpt><trkpt lat="42.829414280442215" lon="12.281493900031318"><ele>484.6</ele><time>2026-04-12T14:05:51.976Z</time></trkpt><trkpt lat="42.829387838838414" lon="12.281354367840612"><ele>483.20000000000005</ele><time>2026-04-12T14:05:52.976Z</time></trkpt><trkpt lat="42.829378697124106" lon="12.281228647679203"><ele>481.79999999999995</ele><time>2026-04-12T14:05:53.975Z</time></trkpt><trkpt lat="42.8293760452554" lon="12.281094498505961"><ele>480.4</ele><time>2026-04-12T14:05:54.975Z</time></trkpt><trkpt lat="42.82937441595016" lon="12.280952422951605"><ele>479.0</ele><time>2026-04-12T14:05:55.975Z</time></trkpt><trkpt lat="42.82937136703314" lon="12.28080391367739"><ele>478.99999999999994</ele><time>2026-04-12T14:05:56.975Z</time></trkpt><trkpt lat="42.82936589555638" lon="12.280648307594689"><ele>479.0</ele><time>2026-04-12T14:05:57.975Z</time></trkpt><trkpt lat="42.82935327867486" lon="12.28053481245488"><ele>479.0</ele><time>2026-04-12T14:05:58.975Z</time></trkpt><trkpt lat="42.82935171748063" lon="12.280431628201978"><ele>479.0</ele><time>2026-04-12T14:05:59.975Z</time></trkpt><trkpt lat="42.82935419819633" lon="12.28034399446845"><ele>478.99999999999994</ele><time>2026-04-12T14:06:00.975Z</time></trkpt><trkpt lat="42.82934886595171" lon="12.280244002686691"><ele>479.0</ele><time>2026-04-12T14:06:01.975Z</time></trkpt><trkpt lat="42.8293326003933" lon="12.280125934321655"><ele>478.79999999999995</ele><time>2026-04-12T14:06:02.975Z</time></trkpt><trkpt lat="42.82932640218491" lon="12.28000682245126"><ele>478.59999999999997</ele><time>2026-04-12T14:06:03.975Z</time></trkpt><trkpt lat="42.82929201766793" lon="12.279875092189265"><ele>478.4</ele><time>2026-04-12T14:06:04.975Z</time></trkpt><trkpt lat="42.82925054451868" lon="12.279725539868798"><ele>478.2</ele><time>2026-04-12T14:06:05.975Z</time></trkpt><trkpt lat="42.829224283855304" lon="12.279580543363334"><ele>478.0</ele><time>2026-04-12T14:06:06.975Z</time></trkpt><trkpt lat="42.82918342099957" lon="12.279440279563204"><ele>478.0</ele><time>2026-04-12T14:06:07.975Z</time></trkpt><trkpt lat="42.829146287370456" lon="12.279306634018685"><ele>477.99999999999994</ele><time>2026-04-12T14:06:08.975Z</time></trkpt><trkpt lat="42.82911434539849" lon="12.279190100724739"><ele>477.99999999999994</ele><time>2026-04-12T14:06:09.975Z</time></trkpt><trkpt lat="42.82907626548863" lon="12.27905833881732"><ele>478.0</ele><time>2026-04-12T14:06:10.975Z</time></trkpt><trkpt lat="42.82902234038106" lon="12.278936524800615"><ele>478.0</ele><time>2026-04-12T14:06:11.975Z</time></trkpt><trkpt lat="42.82899408161186" lon="12.27880190297824"><ele>477.4</ele><time>2026-04-12T14:06:12.975Z</time></trkpt><trkpt lat="42.82894055792171" lon="12.278685394303597"><ele>476.79999999999995</ele><time>2026-04-12T14:06:13.975Z</time></trkpt><trkpt lat="42.82889183792062" lon="12.278548935400604"><ele>476.2</ele><time>2026-04-12T14:06:14.975Z</time></trkpt><trkpt lat="42.82881044612789" lon="12.278425838521008"><ele>475.6</ele><time>2026-04-12T14:06:15.975Z</time></trkpt><trkpt lat="42.828744211263924" lon="12.27832212542864"><ele>475.0</ele><time>2026-04-12T14:06:16.975Z</time></trkpt><trkpt lat="42.82867288782092" lon="12.278240778059647"><ele>475.00000000000006</ele><time>2026-04-12T14:06:17.975Z</time></trkpt><trkpt lat="42.82863646453909" lon="12.278148954872536"><ele>475.0</ele><time>2026-04-12T14:06:18.975Z</time></trkpt><trkpt lat="42.82860387845859" lon="12.278046042284549"><ele>475.0</ele><time>2026-04-12T14:06:19.975Z</time></trkpt><trkpt lat="42.82859046067431" lon="12.277945336756739"><ele>475.0</ele><time>2026-04-12T14:06:20.975Z</time></trkpt><trkpt lat="42.82857573365254" lon="12.277847219740314"><ele>475.00000000000006</ele><time>2026-04-12T14:06:21.975Z</time></trkpt><trkpt lat="42.82854433960344" lon="12.277755237761573"><ele>475.0</ele><time>2026-04-12T14:06:22.975Z</time></trkpt><trkpt lat="42.82849689442717" lon="12.277676104493171"><ele>474.50000000000006</ele><time>2026-04-12T14:06:23.975Z</time></trkpt><trkpt lat="42.82844564184984" lon="12.2775740329736"><ele>474.0</ele><time>2026-04-12T14:06:24.975Z</time></trkpt><trkpt lat="42.828380764084514" lon="12.27749665278826"><ele>473.5</ele><time>2026-04-12T14:06:25.975Z</time></trkpt><trkpt lat="42.82830591704815" lon="12.27743234969779"><ele>473.0</ele><time>2026-04-12T14:06:26.975Z</time></trkpt><trkpt lat="42.8282201960344" lon="12.27739335553123"><ele>472.50000000000006</ele><time>2026-04-12T14:06:27.975Z</time></trkpt><trkpt lat="42.82814203071478" lon="12.277371389598171"><ele>472.0</ele><time>2026-04-12T14:06:28.974Z</time></trkpt><trkpt lat="42.82806802676553" lon="12.277337692338982"><ele>472.00000000000006</ele><time>2026-04-12T14:06:29.974Z</time></trkpt><trkpt lat="42.828008536264946" lon="12.277288280444663"><ele>472.0</ele><time>2026-04-12T14:06:30.974Z</time></trkpt><trkpt lat="42.82795248775987" lon="12.277231866748563"><ele>472.0</ele><time>2026-04-12T14:06:31.974Z</time></trkpt><trkpt lat="42.82789394220179" lon="12.27716164464523"><ele>472.0</ele><time>2026-04-12T14:06:32.974Z</time></trkpt><trkpt lat="42.82785128573234" lon="12.277066607553147"><ele>472.00000000000006</ele><time>2026-04-12T14:06:33.974Z</time></trkpt><trkpt lat="42.82780189150831" lon="12.277001877512317"><ele>472.0</ele><time>2026-04-12T14:06:34.974Z</time></trkpt><trkpt lat="42.8276982795031" lon="12.27697577677241"><ele>471.0</ele><time>2026-04-12T14:06:36.974Z</time></trkpt><trkpt lat="42.8276219934002" lon="12.277022792760235"><ele>470.00000000000006</ele><time>2026-04-12T14:06:37.974Z</time></trkpt><trkpt lat="42.827531239100935" lon="12.27702466054003"><ele>469.00000000000006</ele><time>2026-04-12T14:06:38.974Z</time></trkpt><trkpt lat="42.827427466264176" lon="12.277044132000078"><ele>468.0</ele><time>2026-04-12T14:06:39.974Z</time></trkpt><trkpt lat="42.82732106047948" lon="12.277044920087912"><ele>467.0</ele><time>2026-04-12T14:06:40.974Z</time></trkpt><trkpt lat="42.827218006205925" lon="12.277021669214676"><ele>467.0</ele><time>2026-04-12T14:06:41.974Z</time></trkpt><trkpt lat="42.827114053925726" lon="12.276980863575519"><ele>467.00000000000006</ele><time>2026-04-12T14:06:42.974Z</time></trkpt><trkpt lat="42.82701820814145" lon="12.276929043845985"><ele>467.00000000000006</ele><time>2026-04-12T14:06:43.974Z</time></trkpt><trkpt lat="42.82694207106408" lon="12.276855123762411"><ele>467.0</ele><time>2026-04-12T14:06:44.974Z</time></trkpt><trkpt lat="42.826881003192675" lon="12.276770721308203"><ele>467.0</ele><time>2026-04-12T14:06:45.974Z</time></trkpt><trkpt lat="42.82682630915163" lon="12.276666910023007"><ele>466.20000000000005</ele><time>2026-04-12T14:06:46.974Z</time></trkpt><trkpt lat="42.82677919879667" lon="12.276540944693716"><ele>465.40000000000003</ele><time>2026-04-12T14:06:47.974Z</time></trkpt><trkpt lat="42.82673775537098" lon="12.276404664071597"><ele>464.59999999999997</ele><time>2026-04-12T14:06:48.974Z</time></trkpt><trkpt lat="42.82670479451321" lon="12.27627922402099"><ele>463.79999999999995</ele><time>2026-04-12T14:06:49.974Z</time></trkpt><trkpt lat="42.826663294609695" lon="12.276161121255939"><ele>463.0</ele><time>2026-04-12T14:06:50.974Z</time></trkpt><trkpt lat="42.826600630491306" lon="12.276039351701893"><ele>464.59999999999997</ele><time>2026-04-12T14:06:51.974Z</time></trkpt><trkpt lat="42.82652839535518" lon="12.275921518284767"><ele>466.19999999999993</ele><time>2026-04-12T14:06:52.974Z</time></trkpt><trkpt lat="42.82644665525597" lon="12.2758232155241"><ele>467.8</ele><time>2026-04-12T14:06:53.974Z</time></trkpt><trkpt lat="42.82638997687959" lon="12.275699860169752"><ele>469.4</ele><time>2026-04-12T14:06:54.974Z</time></trkpt><trkpt lat="42.82633100151022" lon="12.275589778947957"><ele>471.0</ele><time>2026-04-12T14:06:55.974Z</time></trkpt><trkpt lat="42.82628384377664" lon="12.275466189858246"><ele>471.6</ele><time>2026-04-12T14:06:56.974Z</time></trkpt><trkpt lat="42.82625435813103" lon="12.275331683688067"><ele>472.20000000000005</ele><time>2026-04-12T14:06:57.974Z</time></trkpt><trkpt lat="42.82623257619015" lon="12.275209571683199"><ele>472.79999999999995</ele><time>2026-04-12T14:06:58.974Z</time></trkpt><trkpt lat="42.82621089938722" lon="12.275074368553035"><ele>473.4</ele><time>2026-04-12T14:06:59.974Z</time></trkpt><trkpt lat="42.82619090411074" lon="12.274919796918459"><ele>474.0</ele><time>2026-04-12T14:07:00.974Z</time></trkpt><trkpt lat="42.826173205535376" lon="12.274754202453105"><ele>474.4</ele><time>2026-04-12T14:07:01.974Z</time></trkpt><trkpt lat="42.826147820003925" lon="12.274619524683661"><ele>474.79999999999995</ele><time>2026-04-12T14:07:02.974Z</time></trkpt><trkpt lat="42.82614692513139" lon="12.274464260555975"><ele>475.20000000000005</ele><time>2026-04-12T14:07:03.973Z</time></trkpt><trkpt lat="42.826133628973956" lon="12.274319114750831"><ele>475.6</ele><time>2026-04-12T14:07:04.973Z</time></trkpt><trkpt lat="42.82611978277585" lon="12.274172039978097"><ele>476.0</ele><time>2026-04-12T14:07:05.973Z</time></trkpt><trkpt lat="42.82610818881524" lon="12.274036559203186"><ele>475.49999999999994</ele><time>2026-04-12T14:07:06.973Z</time></trkpt><trkpt lat="42.82611418151304" lon="12.27391212360629"><ele>475.0</ele><time>2026-04-12T14:07:07.973Z</time></trkpt><trkpt lat="42.82610820850186" lon="12.273821342129846"><ele>474.5</ele><time>2026-04-12T14:07:08.973Z</time></trkpt><trkpt lat="42.826080251782386" lon="12.273719790003298"><ele>474.0</ele><time>2026-04-12T14:07:09.973Z</time></trkpt><trkpt lat="42.82602519987343" lon="12.273607228954495"><ele>473.49999999999994</ele><time>2026-04-12T14:07:10.973Z</time></trkpt><trkpt lat="42.825962643444285" lon="12.273507150307035"><ele>473.0</ele><time>2026-04-12T14:07:11.973Z</time></trkpt><trkpt lat="42.82589375713808" lon="12.273429592238866"><ele>474.59999999999997</ele><time>2026-04-12T14:07:12.973Z</time></trkpt><trkpt lat="42.82583579664989" lon="12.273369503391354"><ele>476.19999999999993</ele><time>2026-04-12T14:07:13.973Z</time></trkpt><trkpt lat="42.825761018906896" lon="12.273303313047148"><ele>477.8</ele><time>2026-04-12T14:07:14.973Z</time></trkpt><trkpt lat="42.82567100837976" lon="12.273265690675142"><ele>479.4</ele><time>2026-04-12T14:07:15.973Z</time></trkpt><trkpt lat="42.8255571996435" lon="12.273266825071252"><ele>481.0</ele><time>2026-04-12T14:07:16.973Z</time></trkpt><trkpt lat="42.825450819620684" lon="12.27324559366819"><ele>481.0</ele><time>2026-04-12T14:07:17.973Z</time></trkpt><trkpt lat="42.82532581085805" lon="12.273210572704102"><ele>481.0</ele><time>2026-04-12T14:07:18.973Z</time></trkpt><trkpt lat="42.82523040273599" lon="12.273184687066841"><ele>481.0</ele><time>2026-04-12T14:07:19.973Z</time></trkpt><trkpt lat="42.82514502009593" lon="12.273152112586251"><ele>481.0</ele><time>2026-04-12T14:07:20.973Z</time></trkpt><trkpt lat="42.82506434966095" lon="12.27311385753108"><ele>481.0</ele><time>2026-04-12T14:07:21.975Z</time></trkpt><trkpt lat="42.82497331696879" lon="12.273004652715107"><ele>479.25</ele><time>2026-04-12T14:07:22.975Z</time></trkpt><trkpt lat="42.824870283425255" lon="12.272889948043925"><ele>477.5</ele><time>2026-04-12T14:07:23.975Z</time></trkpt><trkpt lat="42.82476711095744" lon="12.272779076369957"><ele>475.75</ele><time>2026-04-12T14:07:24.975Z</time></trkpt><trkpt lat="42.824676573986814" lon="12.272666897173218"><ele>474.0</ele><time>2026-04-12T14:07:25.975Z</time></trkpt><trkpt lat="42.82459906417651" lon="12.272558995649515"><ele>474.0</ele><time>2026-04-12T14:07:26.975Z</time></trkpt><trkpt lat="42.824533866127894" lon="12.27245885266958"><ele>474.0</ele><time>2026-04-12T14:07:27.975Z</time></trkpt><trkpt lat="42.824489020653786" lon="12.272359351187637"><ele>474.0</ele><time>2026-04-12T14:07:28.975Z</time></trkpt><trkpt lat="42.8244229284184" lon="12.2723001333878"><ele>474.0</ele><time>2026-04-12T14:07:29.975Z</time></trkpt><trkpt lat="42.82434853077824" lon="12.272241973373738"><ele>474.0</ele><time>2026-04-12T14:07:30.975Z</time></trkpt><trkpt lat="42.824263795968605" lon="12.272190790941334"><ele>474.0</ele><time>2026-04-12T14:07:31.976Z</time></trkpt><trkpt lat="42.82417154917987" lon="12.272153291291724"><ele>474.79999999999995</ele><time>2026-04-12T14:07:32.976Z</time></trkpt><trkpt lat="42.82408847394032" lon="12.272084706571436"><ele>475.59999999999997</ele><time>2026-04-12T14:07:33.975Z</time></trkpt><trkpt lat="42.82400509546915" lon="12.272023908158523"><ele>476.4</ele><time>2026-04-12T14:07:34.975Z</time></trkpt><trkpt lat="42.82393499020313" lon="12.271948673841893"><ele>477.2</ele><time>2026-04-12T14:07:35.975Z</time></trkpt><trkpt lat="42.82387129824428" lon="12.271856230762442"><ele>478.0</ele><time>2026-04-12T14:07:36.975Z</time></trkpt><trkpt lat="42.823822077291176" lon="12.271760223677546"><ele>478.0</ele><time>2026-04-12T14:07:37.975Z</time></trkpt><trkpt lat="42.823789506889575" lon="12.271661796477476"><ele>477.99999999999994</ele><time>2026-04-12T14:07:38.975Z</time></trkpt><trkpt lat="42.82375348706763" lon="12.271570064851053"><ele>477.99999999999994</ele><time>2026-04-12T14:07:39.975Z</time></trkpt><trkpt lat="42.82370397476222" lon="12.2714668837044"><ele>478.0</ele><time>2026-04-12T14:07:40.975Z</time></trkpt><trkpt lat="42.82363291352485" lon="12.27134015021401"><ele>478.0</ele><time>2026-04-12T14:07:41.975Z</time></trkpt><trkpt lat="42.82357431870587" lon="12.271240034735168"><ele>476.1666666666667</ele><time>2026-04-12T14:07:42.975Z</time></trkpt><trkpt lat="42.82352003943932" lon="12.271152050034187"><ele>474.33333333333337</ele><time>2026-04-12T14:07:43.975Z</time></trkpt><trkpt lat="42.823447199608246" lon="12.27107170465083"><ele>472.5</ele><time>2026-04-12T14:07:44.974Z</time></trkpt><trkpt lat="42.82339184027737" lon="12.270987830059964"><ele>470.66666666666663</ele><time>2026-04-12T14:07:45.974Z</time></trkpt><trkpt lat="42.82333944549915" lon="12.270892550783882"><ele>468.8333333333333</ele><time>2026-04-12T14:07:46.974Z</time></trkpt><trkpt lat="42.823268346052444" lon="12.270831603378474"><ele>467.0</ele><time>2026-04-12T14:07:47.974Z</time></trkpt><trkpt lat="42.8231724868205" lon="12.270796426796204"><ele>470.66666666666663</ele><time>2026-04-12T14:07:48.974Z</time></trkpt><trkpt lat="42.82308392995251" lon="12.2707600338411"><ele>474.3333333333333</ele><time>2026-04-12T14:07:49.974Z</time></trkpt><trkpt lat="42.82299797269775" lon="12.270723100973328"><ele>478.0</ele><time>2026-04-12T14:07:50.974Z</time></trkpt><trkpt lat="42.8229049872509" lon="12.270686654127301"><ele>481.66666666666663</ele><time>2026-04-12T14:07:51.974Z</time></trkpt><trkpt lat="42.82281890811728" lon="12.270676159108755"><ele>485.3333333333333</ele><time>2026-04-12T14:07:52.974Z</time></trkpt><trkpt lat="42.82275280875155" lon="12.270641381531604"><ele>489.0</ele><time>2026-04-12T14:07:53.974Z</time></trkpt><trkpt lat="42.82268732552782" lon="12.270615345717072"><ele>490.8333333333333</ele><time>2026-04-12T14:07:54.974Z</time></trkpt><trkpt lat="42.82257553056645" lon="12.270588099309402"><ele>492.66666666666663</ele><time>2026-04-12T14:07:56.974Z</time></trkpt><trkpt lat="42.82251024720429" lon="12.27057135676647"><ele>494.5</ele><time>2026-04-12T14:07:57.974Z</time></trkpt><trkpt lat="42.82242389001306" lon="12.270529696597434"><ele>496.3333333333333</ele><time>2026-04-12T14:07:58.974Z</time></trkpt><trkpt lat="42.822331593200964" lon="12.270506344825272"><ele>498.16666666666663</ele><time>2026-04-12T14:07:59.974Z</time></trkpt><trkpt lat="42.82225018667827" lon="12.270479302452399"><ele>500.0</ele><time>2026-04-12T14:08:00.974Z</time></trkpt><trkpt lat="42.822175239023444" lon="12.270441609933147"><ele>499.99999999999994</ele><time>2026-04-12T14:08:01.974Z</time></trkpt><trkpt lat="42.82209226490479" lon="12.270408431652609"><ele>500.0</ele><time>2026-04-12T14:08:02.974Z</time></trkpt><trkpt lat="42.822031840800975" lon="12.27036395702192"><ele>500.0</ele><time>2026-04-12T14:08:03.974Z</time></trkpt><trkpt lat="42.82196702634963" lon="12.270319246098527"><ele>500.0</ele><time>2026-04-12T14:08:04.974Z</time></trkpt><trkpt lat="42.821878924726285" lon="12.27027014184749"><ele>499.99999999999994</ele><time>2026-04-12T14:08:05.974Z</time></trkpt><trkpt lat="42.82179147349588" lon="12.270216033031408"><ele>500.0</ele><time>2026-04-12T14:08:06.974Z</time></trkpt><trkpt lat="42.82168774028463" lon="12.270157243256248"><ele>502.25</ele><time>2026-04-12T14:08:07.974Z</time></trkpt><trkpt lat="42.82158581739439" lon="12.270098037237323"><ele>504.5</ele><time>2026-04-12T14:08:08.974Z</time></trkpt><trkpt lat="42.821479121258164" lon="12.27003743910533"><ele>506.75</ele><time>2026-04-12T14:08:09.974Z</time></trkpt><trkpt lat="42.821370418809764" lon="12.269978908446813"><ele>509.0</ele><time>2026-04-12T14:08:10.974Z</time></trkpt><trkpt lat="42.82126245132785" lon="12.269914472711228"><ele>508.99999999999994</ele><time>2026-04-12T14:08:11.974Z</time></trkpt><trkpt lat="42.82117631663017" lon="12.269866601311548"><ele>509.0</ele><time>2026-04-12T14:08:12.974Z</time></trkpt><trkpt lat="42.821100986691576" lon="12.269824147935813"><ele>509.0</ele><time>2026-04-12T14:08:13.974Z</time></trkpt><trkpt lat="42.82102559713606" lon="12.269774527417411"><ele>509.0</ele><time>2026-04-12T14:08:14.974Z</time></trkpt><trkpt lat="42.82093943389044" lon="12.269719166073903"><ele>508.99999999999994</ele><time>2026-04-12T14:08:15.974Z</time></trkpt><trkpt lat="42.82085921807457" lon="12.269664908808899"><ele>509.0</ele><time>2026-04-12T14:08:16.974Z</time></trkpt><trkpt lat="42.82079606158811" lon="12.26961402071445"><ele>510.0</ele><time>2026-04-12T14:08:17.974Z</time></trkpt><trkpt lat="42.82070914667158" lon="12.269517083178497"><ele>511.0</ele><time>2026-04-12T14:08:19.973Z</time></trkpt><trkpt lat="42.82065308436051" lon="12.269372539156874"><ele>512.0</ele><time>2026-04-12T14:08:21.973Z</time></trkpt><trkpt lat="42.820633859303385" lon="12.26928076474751"><ele>513.0</ele><time>2026-04-12T14:08:22.973Z</time></trkpt><trkpt lat="42.820617130665944" lon="12.269181412365226"><ele>514.0</ele><time>2026-04-12T14:08:23.973Z</time></trkpt><trkpt lat="42.82060185396302" lon="12.26907581716997"><ele>514.0</ele><time>2026-04-12T14:08:24.973Z</time></trkpt><trkpt lat="42.8205899276077" lon="12.268976336114392"><ele>514.0</ele><time>2026-04-12T14:08:25.973Z</time></trkpt><trkpt lat="42.82057348924179" lon="12.26882667833632"><ele>514.0</ele><time>2026-04-12T14:08:27.973Z</time></trkpt><trkpt lat="42.820590786739295" lon="12.268683104661367"><ele>514.0</ele><time>2026-04-12T14:08:29.973Z</time></trkpt><trkpt lat="42.82064446666483" lon="12.268518428840212"><ele>514.0</ele><time>2026-04-12T14:08:32.973Z</time></trkpt><trkpt lat="42.82067526028045" lon="12.268417397306576"><ele>514.8333333333334</ele><time>2026-04-12T14:08:34.973Z</time></trkpt><trkpt lat="42.820705117768924" lon="12.268310970703348"><ele>515.6666666666667</ele><time>2026-04-12T14:08:36.973Z</time></trkpt><trkpt lat="42.82072350103648" lon="12.268218248730422"><ele>516.5</ele><time>2026-04-12T14:08:37.973Z</time></trkpt><trkpt lat="42.82072450912026" lon="12.26810502919322"><ele>517.3333333333334</ele><time>2026-04-12T14:08:38.973Z</time></trkpt><trkpt lat="42.82072405696457" lon="12.26797255123995"><ele>518.1666666666666</ele><time>2026-04-12T14:08:39.973Z</time></trkpt><trkpt lat="42.82072066898926" lon="12.267839205635443"><ele>519.0</ele><time>2026-04-12T14:08:40.973Z</time></trkpt><trkpt lat="42.82071912627464" lon="12.26772196781403"><ele>520.5</ele><time>2026-04-12T14:08:41.973Z</time></trkpt><trkpt lat="42.82072066547405" lon="12.267617370270322"><ele>522.0</ele><time>2026-04-12T14:08:42.973Z</time></trkpt><trkpt lat="42.82073373566414" lon="12.267489490835938"><ele>523.5</ele><time>2026-04-12T14:08:43.973Z</time></trkpt><trkpt lat="42.82074533379739" lon="12.267375884154301"><ele>525.0</ele><time>2026-04-12T14:08:44.973Z</time></trkpt><trkpt lat="42.82076269278816" lon="12.267255738233766"><ele>526.5</ele><time>2026-04-12T14:08:45.973Z</time></trkpt><trkpt lat="42.82078442143768" lon="12.26713735823358"><ele>528.0</ele><time>2026-04-12T14:08:46.973Z</time></trkpt><trkpt lat="42.820801711077124" lon="12.267020996585636"><ele>528.0</ele><time>2026-04-12T14:08:47.973Z</time></trkpt><trkpt lat="42.82082698899645" lon="12.266909502549915"><ele>528.0</ele><time>2026-04-12T14:08:48.973Z</time></trkpt><trkpt lat="42.82085096118286" lon="12.2668119885675"><ele>528.0</ele><time>2026-04-12T14:08:49.973Z</time></trkpt><trkpt lat="42.82087132211324" lon="12.266719707987603"><ele>528.0</ele><time>2026-04-12T14:08:50.973Z</time></trkpt><trkpt lat="42.82088756729757" lon="12.266634303069196"><ele>528.0</ele><time>2026-04-12T14:08:51.973Z</time></trkpt><trkpt lat="42.82090035335726" lon="12.266542839310365"><ele>528.0</ele><time>2026-04-12T14:08:52.973Z</time></trkpt><trkpt lat="42.820924330808" lon="12.26645794109601"><ele>528.0</ele><time>2026-04-12T14:08:53.972Z</time></trkpt><trkpt lat="42.82095382218123" lon="12.26637330187567"><ele>531.0</ele><time>2026-04-12T14:08:54.972Z</time></trkpt><trkpt lat="42.820985789669514" lon="12.266295958120661"><ele>534.0</ele><time>2026-04-12T14:08:55.972Z</time></trkpt><trkpt lat="42.82102088412881" lon="12.266218166539781"><ele>537.0</ele><time>2026-04-12T14:08:56.972Z</time></trkpt><trkpt lat="42.82105917985949" lon="12.266128789324961"><ele>540.0</ele><time>2026-04-12T14:08:57.972Z</time></trkpt><trkpt lat="42.82107656069603" lon="12.266037538544346"><ele>543.0</ele><time>2026-04-12T14:08:58.972Z</time></trkpt><trkpt lat="42.82107995495564" lon="12.26593388267804"><ele>546.0</ele><time>2026-04-12T14:08:59.972Z</time></trkpt><trkpt lat="42.82101309522258" lon="12.265799439222352"><ele>545.8333333333334</ele><time>2026-04-12T14:09:01.972Z</time></trkpt><trkpt lat="42.820931769661755" lon="12.265711882327127"><ele>545.6666666666666</ele><time>2026-04-12T14:09:03.972Z</time></trkpt><trkpt lat="42.82087237784054" lon="12.265665815479172"><ele>545.5</ele><time>2026-04-12T14:09:05.972Z</time></trkpt><trkpt lat="42.82078189213534" lon="12.265609854578331"><ele>545.3333333333333</ele><time>2026-04-12T14:09:07.972Z</time></trkpt><trkpt lat="42.820710207686744" lon="12.265578139923917"><ele>545.1666666666666</ele><time>2026-04-12T14:09:08.972Z</time></trkpt><trkpt lat="42.82062521627519" lon="12.265545623129299"><ele>545.0</ele><time>2026-04-12T14:09:09.972Z</time></trkpt><trkpt lat="42.82053933313775" lon="12.265509086139783"><ele>545.0</ele><time>2026-04-12T14:09:10.972Z</time></trkpt><trkpt lat="42.82044837243757" lon="12.26546497626427"><ele>545.0</ele><time>2026-04-12T14:09:12.972Z</time></trkpt><trkpt lat="42.820373863152454" lon="12.265441437168285"><ele>545.0</ele><time>2026-04-12T14:09:14.972Z</time></trkpt><trkpt lat="42.82033896077978" lon="12.265320247796398"><ele>545.0</ele><time>2026-04-12T14:09:16.972Z</time></trkpt><trkpt lat="42.82031305810918" lon="12.265230048042598"><ele>545.0</ele><time>2026-04-12T14:09:18.972Z</time></trkpt><trkpt lat="42.82029850635989" lon="12.265070281636566"><ele>545.0</ele><time>2026-04-12T14:09:20.972Z</time></trkpt><trkpt lat="42.820297535942906" lon="12.26494654546594"><ele>545.0</ele><time>2026-04-12T14:09:21.972Z</time></trkpt><trkpt lat="42.82029802239419" lon="12.264840228771108"><ele>545.0</ele><time>2026-04-12T14:09:22.972Z</time></trkpt><trkpt lat="42.8203073021641" lon="12.264685462118361"><ele>545.0</ele><time>2026-04-12T14:09:24.972Z</time></trkpt><trkpt lat="42.82033894241273" lon="12.26452906274027"><ele>545.0</ele><time>2026-04-12T14:09:26.972Z</time></trkpt><trkpt lat="42.82034165074357" lon="12.264411929637813"><ele>544.0</ele><time>2026-04-12T14:09:27.974Z</time></trkpt><trkpt lat="42.82038661946404" lon="12.264304162354575"><ele>543.0</ele><time>2026-04-12T14:09:28.974Z</time></trkpt><trkpt lat="42.820463506699355" lon="12.264234248567895"><ele>542.0</ele><time>2026-04-12T14:09:29.974Z</time></trkpt><trkpt lat="42.820519382490346" lon="12.264130150115783"><ele>541.0</ele><time>2026-04-12T14:09:30.975Z</time></trkpt><trkpt lat="42.82057479419204" lon="12.264016679174953"><ele>540.0</ele><time>2026-04-12T14:09:31.974Z</time></trkpt><trkpt lat="42.82060231154636" lon="12.26389907081775"><ele>539.4</ele><time>2026-04-12T14:09:32.974Z</time></trkpt><trkpt lat="42.820637714985544" lon="12.263812540583107"><ele>538.8</ele><time>2026-04-12T14:09:33.974Z</time></trkpt><trkpt lat="42.82071679484546" lon="12.263719002777949"><ele>538.2</ele><time>2026-04-12T14:09:35.974Z</time></trkpt><trkpt lat="42.82079471358937" lon="12.263687016679144"><ele>537.6</ele><time>2026-04-12T14:09:37.975Z</time></trkpt><trkpt lat="42.820889902843916" lon="12.263709808484323"><ele>537.0</ele><time>2026-04-12T14:09:40.974Z</time></trkpt><trkpt lat="42.820996208054254" lon="12.263734750453523"><ele>537.0</ele><time>2026-04-12T14:09:42.974Z</time></trkpt><trkpt lat="42.82109532444593" lon="12.263719658951482"><ele>537.0</ele><time>2026-04-12T14:09:44.974Z</time></trkpt><trkpt lat="42.82120741805728" lon="12.263750483628453"><ele>537.0</ele><time>2026-04-12T14:09:46.974Z</time></trkpt><trkpt lat="42.821270162191986" lon="12.263737053992138"><ele>537.0</ele><time>2026-04-12T14:09:47.974Z</time></trkpt><trkpt lat="42.821354540961124" lon="12.263756062859601"><ele>537.0</ele><time>2026-04-12T14:09:49.974Z</time></trkpt><trkpt lat="42.82148041240609" lon="12.263705496223206"><ele>537.0</ele><time>2026-04-12T14:09:51.974Z</time></trkpt><trkpt lat="42.82154229294567" lon="12.263602833872811"><ele>537.0</ele><time>2026-04-12T14:09:52.974Z</time></trkpt><trkpt lat="42.82156852253299" lon="12.263470932067358"><ele>537.0</ele><time>2026-04-12T14:09:53.974Z</time></trkpt><trkpt lat="42.82157412701928" lon="12.263373727739229"><ele>537.0</ele><time>2026-04-12T14:09:54.974Z</time></trkpt><trkpt lat="42.82157675188232" lon="12.263279425400201"><ele>537.0</ele><time>2026-04-12T14:09:55.974Z</time></trkpt><trkpt lat="42.82157347551204" lon="12.263158405971454"><ele>537.0</ele><time>2026-04-12T14:09:57.974Z</time></trkpt><trkpt lat="42.82156340446216" lon="12.263067291645399"><ele>536.3333333333334</ele><time>2026-04-12T14:09:58.974Z</time></trkpt><trkpt lat="42.82155348141364" lon="12.262971334962637"><ele>535.6666666666666</ele><time>2026-04-12T14:09:59.973Z</time></trkpt><trkpt lat="42.821548535689054" lon="12.262871642224741"><ele>535.0</ele><time>2026-04-12T14:10:00.973Z</time></trkpt><trkpt lat="42.82153341991833" lon="12.262757006367119"><ele>534.3333333333333</ele><time>2026-04-12T14:10:01.973Z</time></trkpt><trkpt lat="42.821543755837006" lon="12.262657197451817"><ele>533.6666666666666</ele><time>2026-04-12T14:10:02.973Z</time></trkpt><trkpt lat="42.82158314535171" lon="12.26250465663758"><ele>533.0</ele><time>2026-04-12T14:10:04.973Z</time></trkpt><trkpt lat="42.82161536013868" lon="12.262425218198947"><ele>533.0</ele><time>2026-04-12T14:10:05.973Z</time></trkpt><trkpt lat="42.82167763595196" lon="12.26229072180298"><ele>533.0</ele><time>2026-04-12T14:10:07.973Z</time></trkpt><trkpt lat="42.82172237976606" lon="12.262214659865316"><ele>533.0</ele><time>2026-04-12T14:10:08.973Z</time></trkpt><trkpt lat="42.82177319746392" lon="12.262129598182373"><ele>533.0</ele><time>2026-04-12T14:10:09.973Z</time></trkpt><trkpt lat="42.82182531743462" lon="12.262047767865099"><ele>533.0</ele><time>2026-04-12T14:10:10.973Z</time></trkpt><trkpt lat="42.821885882263004" lon="12.2619765680867"><ele>533.0</ele><time>2026-04-12T14:10:11.973Z</time></trkpt><trkpt lat="42.821945073399" lon="12.261927010717846"><ele>533.1999999999999</ele><time>2026-04-12T14:10:12.973Z</time></trkpt><trkpt lat="42.82207246151828" lon="12.261863883689497"><ele>533.4</ele><time>2026-04-12T14:10:14.973Z</time></trkpt><trkpt lat="42.822149272879834" lon="12.261834283318501"><ele>533.5999999999999</ele><time>2026-04-12T14:10:15.973Z</time></trkpt><trkpt lat="42.82223209025687" lon="12.26179369711984"><ele>533.8</ele><time>2026-04-12T14:10:16.973Z</time></trkpt><trkpt lat="42.82231353651051" lon="12.261752295494347"><ele>534.0</ele><time>2026-04-12T14:10:17.973Z</time></trkpt><trkpt lat="42.82240468328759" lon="12.261696543950347"><ele>534.0</ele><time>2026-04-12T14:10:18.973Z</time></trkpt><trkpt lat="42.82251043548932" lon="12.26162702173965"><ele>534.0</ele><time>2026-04-12T14:10:19.973Z</time></trkpt><trkpt lat="42.822608883656045" lon="12.261576123612272"><ele>534.0</ele><time>2026-04-12T14:10:20.973Z</time></trkpt><trkpt lat="42.82268566478881" lon="12.26151909802819"><ele>534.0</ele><time>2026-04-12T14:10:21.973Z</time></trkpt><trkpt lat="42.822762418670195" lon="12.261466827749068"><ele>534.0</ele><time>2026-04-12T14:10:22.973Z</time></trkpt><trkpt lat="42.82285031316955" lon="12.261406703381937"><ele>533.5</ele><time>2026-04-12T14:10:23.973Z</time></trkpt><trkpt lat="42.82293866936402" lon="12.261348581709171"><ele>533.0</ele><time>2026-04-12T14:10:24.973Z</time></trkpt><trkpt lat="42.8230345057204" lon="12.261288970687042"><ele>532.5</ele><time>2026-04-12T14:10:25.973Z</time></trkpt><trkpt lat="42.82315081701362" lon="12.26121092291711"><ele>532.0</ele><time>2026-04-12T14:10:26.973Z</time></trkpt><trkpt lat="42.823267684154935" lon="12.26114660509297"><ele>532.0</ele><time>2026-04-12T14:10:27.973Z</time></trkpt><trkpt lat="42.82337350180225" lon="12.261079420983116"><ele>532.0</ele><time>2026-04-12T14:10:28.973Z</time></trkpt><trkpt lat="42.82347724623353" lon="12.261017735578454"><ele>532.0</ele><time>2026-04-12T14:10:29.973Z</time></trkpt><trkpt lat="42.82357681621112" lon="12.260946973154606"><ele>532.0</ele><time>2026-04-12T14:10:30.973Z</time></trkpt><trkpt lat="42.82366949906939" lon="12.260892024277485"><ele>532.0</ele><time>2026-04-12T14:10:31.973Z</time></trkpt><trkpt lat="42.82375541973337" lon="12.260842774329408"><ele>532.0</ele><time>2026-04-12T14:10:32.973Z</time></trkpt><trkpt lat="42.82383071825997" lon="12.260791021359015"><ele>532.0</ele><time>2026-04-12T14:10:33.973Z</time></trkpt><trkpt lat="42.82390920897038" lon="12.260733191299325"><ele>532.0</ele><time>2026-04-12T14:10:34.972Z</time></trkpt><trkpt lat="42.823968456509135" lon="12.260675333358876"><ele>532.0</ele><time>2026-04-12T14:10:35.972Z</time></trkpt><trkpt lat="42.82404211975469" lon="12.260546962995404"><ele>532.0</ele><time>2026-04-12T14:10:37.972Z</time></trkpt><trkpt lat="42.824077897122194" lon="12.260451892296237"><ele>532.0</ele><time>2026-04-12T14:10:38.972Z</time></trkpt><trkpt lat="42.82408434876591" lon="12.260320029859406"><ele>532.0</ele><time>2026-04-12T14:10:40.972Z</time></trkpt><trkpt lat="42.82407741144732" lon="12.260192493636707"><ele>532.0</ele><time>2026-04-12T14:10:42.972Z</time></trkpt><trkpt lat="42.82406566053478" lon="12.260088372006372"><ele>532.0</ele><time>2026-04-12T14:10:43.972Z</time></trkpt><trkpt lat="42.82403545193294" lon="12.259977935744958"><ele>532.0</ele><time>2026-04-12T14:10:44.972Z</time></trkpt><trkpt lat="42.82400409800492" lon="12.259876868594532"><ele>532.0</ele><time>2026-04-12T14:10:45.972Z</time></trkpt><trkpt lat="42.82396981512828" lon="12.259776222422227"><ele>532.0</ele><time>2026-04-12T14:10:46.972Z</time></trkpt><trkpt lat="42.82391816805115" lon="12.259664499913525"><ele>534.8000000000001</ele><time>2026-04-12T14:10:47.972Z</time></trkpt><trkpt lat="42.82384799368475" lon="12.259574559185975"><ele>537.6</ele><time>2026-04-12T14:10:48.972Z</time></trkpt><trkpt lat="42.823756464989536" lon="12.259499182120344"><ele>540.4000000000001</ele><time>2026-04-12T14:10:49.972Z</time></trkpt><trkpt lat="42.82368724296244" lon="12.259438250232462"><ele>543.2</ele><time>2026-04-12T14:10:50.972Z</time></trkpt><trkpt lat="42.823617330634036" lon="12.259375094674073"><ele>546.0</ele><time>2026-04-12T14:10:52.972Z</time></trkpt><trkpt lat="42.823627826355505" lon="12.259254238650957"><ele>546.0</ele><time>2026-04-12T14:10:55.972Z</time></trkpt><trkpt lat="42.82370056902466" lon="12.259198700675823"><ele>546.0</ele><time>2026-04-12T14:10:57.972Z</time></trkpt><trkpt lat="42.82377139385421" lon="12.259179524337501"><ele>546.0</ele><time>2026-04-12T14:10:58.972Z</time></trkpt><trkpt lat="42.823847436870395" lon="12.259176986011356"><ele>546.0</ele><time>2026-04-12T14:10:59.972Z</time></trkpt><trkpt lat="42.823928675094145" lon="12.259182094295893"><ele>546.0</ele><time>2026-04-12T14:11:00.972Z</time></trkpt><trkpt lat="42.82402646989126" lon="12.259205374360397"><ele>546.0</ele><time>2026-04-12T14:11:01.972Z</time></trkpt><trkpt lat="42.82413346877943" lon="12.259225161722602"><ele>546.0</ele><time>2026-04-12T14:11:02.972Z</time></trkpt><trkpt lat="42.824242204557116" lon="12.259247454849936"><ele>546.0</ele><time>2026-04-12T14:11:03.972Z</time></trkpt><trkpt lat="42.82433545359136" lon="12.259260043942907"><ele>546.0</ele><time>2026-04-12T14:11:04.972Z</time></trkpt><trkpt lat="42.824429248973075" lon="12.259269053570334"><ele>546.0</ele><time>2026-04-12T14:11:05.972Z</time></trkpt><trkpt lat="42.82452832752806" lon="12.259272340636995"><ele>546.0</ele><time>2026-04-12T14:11:06.972Z</time></trkpt><trkpt lat="42.8246191470426" lon="12.259274018456393"><ele>546.1666666666666</ele><time>2026-04-12T14:11:07.972Z</time></trkpt><trkpt lat="42.82470393558209" lon="12.259272607284323"><ele>546.3333333333334</ele><time>2026-04-12T14:11:08.971Z</time></trkpt><trkpt lat="42.824774431966155" lon="12.259251449978704"><ele>546.5</ele><time>2026-04-12T14:11:09.971Z</time></trkpt><trkpt lat="42.8248521036716" lon="12.259213124178428"><ele>546.6666666666667</ele><time>2026-04-12T14:11:10.971Z</time></trkpt><trkpt lat="42.824936341217914" lon="12.259174691382738"><ele>546.8333333333334</ele><time>2026-04-12T14:11:11.971Z</time></trkpt><trkpt lat="42.82502069034706" lon="12.259137212025852"><ele>547.0</ele><time>2026-04-12T14:11:12.971Z</time></trkpt><trkpt lat="42.82509090326253" lon="12.259102498099374"><ele>546.6666666666667</ele><time>2026-04-12T14:11:13.971Z</time></trkpt><trkpt lat="42.8251816415972" lon="12.259023380250486"><ele>546.3333333333334</ele><time>2026-04-12T14:11:15.971Z</time></trkpt><trkpt lat="42.82523589371874" lon="12.258919451884648"><ele>546.0</ele><time>2026-04-12T14:11:17.971Z</time></trkpt><trkpt lat="42.8251970739272" lon="12.258846028743468"><ele>545.6666666666666</ele><time>2026-04-12T14:17:07.969Z</time></trkpt><trkpt lat="42.82513236044868" lon="12.25880327287824"><ele>545.3333333333333</ele><time>2026-04-12T14:17:09.969Z</time></trkpt><trkpt lat="42.82506600609953" lon="12.258746831081737"><ele>545.0</ele><time>2026-04-12T14:17:10.969Z</time></trkpt><trkpt lat="42.824979524939714" lon="12.258740507432746"><ele>545.0</ele><time>2026-04-12T14:17:11.969Z</time></trkpt><trkpt lat="42.82490543219344" lon="12.25873341438978"><ele>545.0</ele><time>2026-04-12T14:17:12.969Z</time></trkpt><trkpt lat="42.824837290587226" lon="12.258727035082345"><ele>545.0</ele><time>2026-04-12T14:17:13.969Z</time></trkpt><trkpt lat="42.82470577114132" lon="12.258741545858737"><ele>545.0</ele><time>2026-04-12T14:17:15.969Z</time></trkpt><trkpt lat="42.82463850532998" lon="12.258727461466341"><ele>545.0</ele><time>2026-04-12T14:17:16.969Z</time></trkpt><trkpt lat="42.82456872030427" lon="12.258728443105905"><ele>545.0</ele><time>2026-04-12T14:17:17.969Z</time></trkpt><trkpt lat="42.824482775806636" lon="12.258736235903921"><ele>545.0</ele><time>2026-04-12T14:17:18.969Z</time></trkpt><trkpt lat="42.82438654508268" lon="12.258714378806216"><ele>545.0</ele><time>2026-04-12T14:17:19.969Z</time></trkpt><trkpt lat="42.82430467964655" lon="12.2587073236134"><ele>545.0</ele><time>2026-04-12T14:17:20.969Z</time></trkpt><trkpt lat="42.82424102266627" lon="12.258687300911104"><ele>545.0</ele><time>2026-04-12T14:17:21.969Z</time></trkpt><trkpt lat="42.824176468110615" lon="12.258655943990167"><ele>545.0</ele><time>2026-04-12T14:17:22.969Z</time></trkpt><trkpt lat="42.82411340270076" lon="12.258634702595101"><ele>545.0</ele><time>2026-04-12T14:17:23.969Z</time></trkpt><trkpt lat="42.824065686982934" lon="12.258575397989562"><ele>545.0</ele><time>2026-04-12T14:17:24.969Z</time></trkpt><trkpt lat="42.82402317787523" lon="12.25850969614069"><ele>546.8</ele><time>2026-04-12T14:17:25.968Z</time></trkpt><trkpt lat="42.82399498889569" lon="12.258365678391739"><ele>548.6</ele><time>2026-04-12T14:17:27.968Z</time></trkpt><trkpt lat="42.82399458813882" lon="12.258234489456232"><ele>550.4</ele><time>2026-04-12T14:17:29.968Z</time></trkpt><trkpt lat="42.824017944322726" lon="12.258073573504799"><ele>552.2</ele><time>2026-04-12T14:17:31.968Z</time></trkpt><trkpt lat="42.824040148101616" lon="12.257991603506687"><ele>554.0</ele><time>2026-04-12T14:17:32.968Z</time></trkpt><trkpt lat="42.8240765003274" lon="12.257834370083195"><ele>555.3333333333333</ele><time>2026-04-12T14:17:34.968Z</time></trkpt><trkpt lat="42.82410947504049" lon="12.257736534918465"><ele>556.6666666666666</ele><time>2026-04-12T14:17:35.968Z</time></trkpt><trkpt lat="42.82413545025793" lon="12.257617263549225"><ele>558.0</ele><time>2026-04-12T14:17:37.968Z</time></trkpt><trkpt lat="42.8241243827043" lon="12.25753127460376"><ele>559.3333333333334</ele><time>2026-04-12T14:17:39.968Z</time></trkpt><trkpt lat="42.824090542757176" lon="12.257429082393196"><ele>560.6666666666667</ele><time>2026-04-12T14:17:41.968Z</time></trkpt><trkpt lat="42.8240771826834" lon="12.257338260883222"><ele>562.0</ele><time>2026-04-12T14:17:43.968Z</time></trkpt><trkpt lat="42.82408735122933" lon="12.25723511326687"><ele>559.8333333333334</ele><time>2026-04-12T14:17:45.968Z</time></trkpt><trkpt lat="42.824132812568955" lon="12.257081389229263"><ele>557.6666666666667</ele><time>2026-04-12T14:17:47.968Z</time></trkpt><trkpt lat="42.82418438563252" lon="12.256980047871792"><ele>555.5</ele><time>2026-04-12T14:17:48.968Z</time></trkpt><trkpt lat="42.82423594527937" lon="12.256906818792261"><ele>553.3333333333334</ele><time>2026-04-12T14:17:49.968Z</time></trkpt><trkpt lat="42.82429504003679" lon="12.256826478555753"><ele>551.1666666666666</ele><time>2026-04-12T14:17:50.969Z</time></trkpt><trkpt lat="42.82435587992192" lon="12.25676645871597"><ele>549.0</ele><time>2026-04-12T14:17:52.97Z</time></trkpt><trkpt lat="42.824441070902104" lon="12.256694022729006"><ele>549.0</ele><time>2026-04-12T14:17:54.969Z</time></trkpt><trkpt lat="42.82452865448759" lon="12.256625196586743"><ele>549.0</ele><time>2026-04-12T14:17:56.969Z</time></trkpt><trkpt lat="42.8245863488182" lon="12.256450935694563"><ele>549.0</ele><time>2026-04-12T14:17:58.97Z</time></trkpt><trkpt lat="42.82459754912922" lon="12.256363035686602"><ele>549.0</ele><time>2026-04-12T14:17:59.97Z</time></trkpt><trkpt lat="42.824595557279366" lon="12.256270841091403"><ele>549.0</ele><time>2026-04-12T14:18:00.969Z</time></trkpt><trkpt lat="42.8245700271683" lon="12.256172398045162"><ele>549.5</ele><time>2026-04-12T14:18:01.969Z</time></trkpt><trkpt lat="42.82452442248312" lon="12.256090228232637"><ele>550.0</ele><time>2026-04-12T14:18:02.969Z</time></trkpt><trkpt lat="42.82446965685353" lon="12.256020048802322"><ele>550.5</ele><time>2026-04-12T14:18:03.97Z</time></trkpt><trkpt lat="42.82441763816687" lon="12.255961968677886"><ele>551.0</ele><time>2026-04-12T14:18:04.97Z</time></trkpt><trkpt lat="42.82436363689419" lon="12.255909424662308"><ele>551.5</ele><time>2026-04-12T14:18:05.97Z</time></trkpt><trkpt lat="42.82428827937336" lon="12.255854655975908"><ele>552.0</ele><time>2026-04-12T14:18:07.97Z</time></trkpt><trkpt lat="42.82419515397866" lon="12.25581449405008"><ele>557.2</ele><time>2026-04-12T14:18:09.969Z</time></trkpt><trkpt lat="42.82412508737285" lon="12.255723086104709"><ele>562.4000000000001</ele><time>2026-04-12T14:18:11.969Z</time></trkpt><trkpt lat="42.82412566349131" lon="12.255540832326245"><ele>567.5999999999999</ele><time>2026-04-12T14:18:13.969Z</time></trkpt><trkpt lat="42.82411953704533" lon="12.255437852363952"><ele>572.8</ele><time>2026-04-12T14:18:14.969Z</time></trkpt><trkpt lat="42.82412509078553" lon="12.255342053969388"><ele>578.0</ele><time>2026-04-12T14:18:15.969Z</time></trkpt><trkpt lat="42.824113919069696" lon="12.255221134666968"><ele>578.0</ele><time>2026-04-12T14:18:16.969Z</time></trkpt><trkpt lat="42.82408202481627" lon="12.25510720251234"><ele>578.0</ele><time>2026-04-12T14:18:17.969Z</time></trkpt><trkpt lat="42.8240492585522" lon="12.255019858927124"><ele>578.0</ele><time>2026-04-12T14:18:18.969Z</time></trkpt><trkpt lat="42.824004467515934" lon="12.254919378350658"><ele>578.0</ele><time>2026-04-12T14:18:19.969Z</time></trkpt><trkpt lat="42.82396436475287" lon="12.254841898860644"><ele>578.0</ele><time>2026-04-12T14:18:20.969Z</time></trkpt><trkpt lat="42.82391421589611" lon="12.254762811041736"><ele>578.0</ele><time>2026-04-12T14:18:21.969Z</time></trkpt><trkpt lat="42.823858865056636" lon="12.254676099153743"><ele>578.3333333333333</ele><time>2026-04-12T14:18:22.969Z</time></trkpt><trkpt lat="42.82380023458484" lon="12.254577403000084"><ele>578.6666666666666</ele><time>2026-04-12T14:18:23.969Z</time></trkpt><trkpt lat="42.823746388848306" lon="12.254481000752575"><ele>579.0</ele><time>2026-04-12T14:18:24.969Z</time></trkpt><trkpt lat="42.82370581721347" lon="12.254400401139208"><ele>579.3333333333334</ele><time>2026-04-12T14:18:25.969Z</time></trkpt><trkpt lat="42.82366353737077" lon="12.2543340997391"><ele>579.6666666666667</ele><time>2026-04-12T14:18:27.969Z</time></trkpt><trkpt lat="42.823669557714624" lon="12.254243347969862"><ele>580.0</ele><time>2026-04-12T14:18:28.969Z</time></trkpt><trkpt lat="42.82365105980513" lon="12.254143540906313"><ele>580.0</ele><time>2026-04-12T14:18:29.969Z</time></trkpt><trkpt lat="42.823673773142076" lon="12.254057435269434"><ele>580.0</ele><time>2026-04-12T14:18:30.969Z</time></trkpt><trkpt lat="42.823712033455564" lon="12.253966902269855"><ele>580.0</ele><time>2026-04-12T14:18:31.969Z</time></trkpt><trkpt lat="42.82372288695879" lon="12.25383917316552"><ele>580.0</ele><time>2026-04-12T14:18:33.969Z</time></trkpt><trkpt lat="42.823700326717706" lon="12.253678463234932"><ele>580.0</ele><time>2026-04-12T14:18:35.969Z</time></trkpt><trkpt lat="42.82363214864294" lon="12.253576577650414"><ele>580.0</ele><time>2026-04-12T14:18:37.969Z</time></trkpt><trkpt lat="42.823582921619476" lon="12.253475609154087"><ele>580.0</ele><time>2026-04-12T14:18:39.969Z</time></trkpt><trkpt lat="42.82361653858109" lon="12.253359530132352"><ele>580.0</ele><time>2026-04-12T14:18:41.969Z</time></trkpt><trkpt lat="42.823630797553825" lon="12.253213163302416"><ele>580.0</ele><time>2026-04-12T14:18:43.969Z</time></trkpt><trkpt lat="42.82363849383208" lon="12.253057909012643"><ele>580.0</ele><time>2026-04-12T14:18:45.968Z</time></trkpt><trkpt lat="42.82361365861702" lon="12.25292718227023"><ele>580.0</ele><time>2026-04-12T14:18:47.968Z</time></trkpt><trkpt lat="42.82361611409727" lon="12.252808319684435"><ele>580.0</ele><time>2026-04-12T14:18:49.968Z</time></trkpt><trkpt lat="42.823703091384914" lon="12.252707517444362"><ele>580.0</ele><time>2026-04-12T14:18:51.968Z</time></trkpt><trkpt lat="42.823817823388076" lon="12.25263926105583"><ele>580.0</ele><time>2026-04-12T14:18:53.968Z</time></trkpt><trkpt lat="42.82388479441327" lon="12.25259010316825"><ele>580.0</ele><time>2026-04-12T14:18:54.968Z</time></trkpt><trkpt lat="42.823951110326576" lon="12.252544705085645"><ele>580.0</ele><time>2026-04-12T14:18:55.968Z</time></trkpt><trkpt lat="42.82401193594657" lon="12.25249549824608"><ele>580.0</ele><time>2026-04-12T14:18:56.968Z</time></trkpt><trkpt lat="42.82407302069878" lon="12.252437140555456"><ele>580.0</ele><time>2026-04-12T14:18:57.968Z</time></trkpt><trkpt lat="42.82412744609595" lon="12.252383060573013"><ele>580.0</ele><time>2026-04-12T14:18:58.968Z</time></trkpt><trkpt lat="42.824173961934946" lon="12.252324963299518"><ele>580.0</ele><time>2026-04-12T14:18:59.968Z</time></trkpt><trkpt lat="42.8242461789505" lon="12.252188237789921"><ele>580.0</ele><time>2026-04-12T14:19:01.968Z</time></trkpt><trkpt lat="42.82430547818161" lon="12.252072012763325"><ele>578.1666666666667</ele><time>2026-04-12T14:19:03.968Z</time></trkpt><trkpt lat="42.82434843452335" lon="12.251973203751948"><ele>576.3333333333334</ele><time>2026-04-12T14:19:05.968Z</time></trkpt><trkpt lat="42.8243619061268" lon="12.251818088008251"><ele>574.5</ele><time>2026-04-12T14:19:08.968Z</time></trkpt><trkpt lat="42.82430822790489" lon="12.251758813765612"><ele>572.6666666666666</ele><time>2026-04-12T14:19:09.968Z</time></trkpt><trkpt lat="42.82421596316603" lon="12.251765657764782"><ele>570.8333333333333</ele><time>2026-04-12T14:19:10.968Z</time></trkpt><trkpt lat="42.82415398592552" lon="12.251800599614679"><ele>569.0</ele><time>2026-04-12T14:19:11.968Z</time></trkpt><trkpt lat="42.82407338483279" lon="12.25180773780034"><ele>569.0</ele><time>2026-04-12T14:19:13.968Z</time></trkpt><trkpt lat="42.824002553219096" lon="12.251736813914414"><ele>569.0</ele><time>2026-04-12T14:19:15.968Z</time></trkpt><trkpt lat="42.82394230258406" lon="12.251595163352395"><ele>569.0</ele><time>2026-04-12T14:19:17.968Z</time></trkpt><trkpt lat="42.823911918245905" lon="12.251501419948958"><ele>569.0</ele><time>2026-04-12T14:19:18.968Z</time></trkpt><trkpt lat="42.82389352872228" lon="12.251410917004995"><ele>569.0</ele><time>2026-04-12T14:19:19.967Z</time></trkpt><trkpt lat="42.82388131262668" lon="12.251316749582447"><ele>569.0</ele><time>2026-04-12T14:19:20.967Z</time></trkpt><trkpt lat="42.82388415201612" lon="12.251154432272122"><ele>567.4</ele><time>2026-04-12T14:19:22.967Z</time></trkpt><trkpt lat="42.823932627650024" lon="12.25098493158302"><ele>565.8</ele><time>2026-04-12T14:19:24.967Z</time></trkpt><trkpt lat="42.82394535295068" lon="12.250801591454232"><ele>564.2</ele><time>2026-04-12T14:19:26.967Z</time></trkpt><trkpt lat="42.82393668807163" lon="12.250686935846055"><ele>562.6</ele><time>2026-04-12T14:19:27.967Z</time></trkpt><trkpt lat="42.823936623097815" lon="12.250577304336787"><ele>561.0</ele><time>2026-04-12T14:19:28.967Z</time></trkpt><trkpt lat="42.82390701430481" lon="12.250475978018994"><ele>560.6</ele><time>2026-04-12T14:19:29.967Z</time></trkpt><trkpt lat="42.82389232531238" lon="12.250374603590766"><ele>560.2</ele><time>2026-04-12T14:19:30.967Z</time></trkpt><trkpt lat="42.82388436765683" lon="12.2502770317521"><ele>559.8</ele><time>2026-04-12T14:19:31.967Z</time></trkpt><trkpt lat="42.82388480747357" lon="12.250136793557"><ele>559.4</ele><time>2026-04-12T14:19:33.967Z</time></trkpt><trkpt lat="42.82394487106803" lon="12.249986010963934"><ele>559.0</ele><time>2026-04-12T14:19:35.967Z</time></trkpt><trkpt lat="42.82400781076841" lon="12.249914526542913"><ele>559.0</ele><time>2026-04-12T14:19:36.967Z</time></trkpt><trkpt lat="42.82407233359298" lon="12.249853430648955"><ele>559.0</ele><time>2026-04-12T14:19:37.967Z</time></trkpt><trkpt lat="42.824125790386724" lon="12.249701644605517"><ele>559.0</ele><time>2026-04-12T14:19:39.967Z</time></trkpt><trkpt lat="42.82420525941701" lon="12.24958566863989"><ele>559.0</ele><time>2026-04-12T14:19:41.967Z</time></trkpt><trkpt lat="42.82425349894043" lon="12.249509082534347"><ele>559.0</ele><time>2026-04-12T14:19:42.967Z</time></trkpt><trkpt lat="42.8241898435526" lon="12.249315436373495"><ele>558.6666666666667</ele><time>2026-04-12T14:19:43.967Z</time></trkpt><trkpt lat="42.824178263871815" lon="12.249203659005646"><ele>558.3333333333334</ele><time>2026-04-12T14:19:44.967Z</time></trkpt><trkpt lat="42.824120408706534" lon="12.249092336547852"><ele>558.0</ele><time>2026-04-12T14:19:45.967Z</time></trkpt><trkpt lat="42.82407383863118" lon="12.248988227521453"><ele>557.6666666666666</ele><time>2026-04-12T14:19:46.967Z</time></trkpt><trkpt lat="42.82402865766162" lon="12.24888036535315"><ele>557.3333333333333</ele><time>2026-04-12T14:19:47.967Z</time></trkpt><trkpt lat="42.823991688321364" lon="12.248788130042128"><ele>557.0</ele><time>2026-04-12T14:19:48.967Z</time></trkpt><trkpt lat="42.82395537136782" lon="12.248704492166823"><ele>555.3333333333333</ele><time>2026-04-12T14:19:49.967Z</time></trkpt><trkpt lat="42.82391388688428" lon="12.248636825820936"><ele>553.6666666666666</ele><time>2026-04-12T14:19:50.967Z</time></trkpt><trkpt lat="42.82386055357819" lon="12.248582792751689"><ele>552.0</ele><time>2026-04-12T14:19:51.967Z</time></trkpt><trkpt lat="42.823794486281415" lon="12.248530394289446"><ele>550.3333333333334</ele><time>2026-04-12T14:19:52.967Z</time></trkpt><trkpt lat="42.823712205089215" lon="12.248483913570132"><ele>548.6666666666667</ele><time>2026-04-12T14:19:53.966Z</time></trkpt><trkpt lat="42.82363350315535" lon="12.248444015390211"><ele>547.0</ele><time>2026-04-12T14:19:54.966Z</time></trkpt><trkpt lat="42.823554234146556" lon="12.24840435514974"><ele>547.8333333333334</ele><time>2026-04-12T14:19:55.966Z</time></trkpt><trkpt lat="42.82346477105133" lon="12.248361192279113"><ele>548.6666666666667</ele><time>2026-04-12T14:19:56.968Z</time></trkpt><trkpt lat="42.82337643021308" lon="12.24832155582669"><ele>549.5</ele><time>2026-04-12T14:19:57.968Z</time></trkpt><trkpt lat="42.82329457170999" lon="12.24829337846553"><ele>550.3333333333334</ele><time>2026-04-12T14:19:58.968Z</time></trkpt><trkpt lat="42.8232244972307" lon="12.24827973860288"><ele>551.1666666666666</ele><time>2026-04-12T14:19:59.969Z</time></trkpt><trkpt lat="42.82314064473732" lon="12.248244835089036"><ele>552.0</ele><time>2026-04-12T14:20:01.969Z</time></trkpt><trkpt lat="42.82311520044488" lon="12.248148650836628"><ele>552.0</ele><time>2026-04-12T14:20:04.968Z</time></trkpt><trkpt lat="42.823196125571044" lon="12.248074115586297"><ele>552.0</ele><time>2026-04-12T14:20:07.968Z</time></trkpt><trkpt lat="42.823290365838645" lon="12.248113150698597"><ele>552.0</ele><time>2026-04-12T14:20:09.968Z</time></trkpt><trkpt lat="42.82336462724789" lon="12.24815744492714"><ele>552.0</ele><time>2026-04-12T14:20:10.968Z</time></trkpt><trkpt lat="42.82344158895067" lon="12.248189584805695"><ele>552.0</ele><time>2026-04-12T14:20:11.968Z</time></trkpt><trkpt lat="42.82351839734583" lon="12.24822456440836"><ele>552.0</ele><time>2026-04-12T14:20:12.968Z</time></trkpt><trkpt lat="42.823597327432196" lon="12.248242270182564"><ele>551.0</ele><time>2026-04-12T14:20:13.968Z</time></trkpt><trkpt lat="42.82368260335395" lon="12.248255795502278"><ele>550.0</ele><time>2026-04-12T14:20:14.968Z</time></trkpt><trkpt lat="42.8237751350002" lon="12.248269130653005"><ele>549.0</ele><time>2026-04-12T14:20:15.968Z</time></trkpt><trkpt lat="42.82387087887944" lon="12.24828089783851"><ele>548.0</ele><time>2026-04-12T14:20:16.968Z</time></trkpt><trkpt lat="42.82396166951228" lon="12.248280204704805"><ele>547.0</ele><time>2026-04-12T14:20:17.968Z</time></trkpt><trkpt lat="42.824050298358536" lon="12.248281204910937"><ele>547.0</ele><time>2026-04-12T14:20:18.968Z</time></trkpt><trkpt lat="42.824131579073" lon="12.24828457149982"><ele>547.0</ele><time>2026-04-12T14:20:19.968Z</time></trkpt><trkpt lat="42.824199238653684" lon="12.248299100458807"><ele>547.0</ele><time>2026-04-12T14:20:20.968Z</time></trkpt><trkpt lat="42.824267325276075" lon="12.248328336028868"><ele>547.0</ele><time>2026-04-12T14:20:21.968Z</time></trkpt><trkpt lat="42.8243276900915" lon="12.24836216661526"><ele>547.0</ele><time>2026-04-12T14:20:22.968Z</time></trkpt><trkpt lat="42.82440085248757" lon="12.24838307264151"><ele>547.0</ele><time>2026-04-12T14:20:23.968Z</time></trkpt><trkpt lat="42.8244735841849" lon="12.248379702776832"><ele>547.0</ele><time>2026-04-12T14:20:24.968Z</time></trkpt><trkpt lat="42.8245542477371" lon="12.248350179402255"><ele>546.8000000000001</ele><time>2026-04-12T14:20:25.968Z</time></trkpt><trkpt lat="42.824641342830226" lon="12.24830642687554"><ele>546.6</ele><time>2026-04-12T14:20:26.968Z</time></trkpt><trkpt lat="42.824732035155336" lon="12.248242165362957"><ele>546.4000000000001</ele><time>2026-04-12T14:20:27.968Z</time></trkpt><trkpt lat="42.82482596024045" lon="12.248166556287186"><ele>546.2</ele><time>2026-04-12T14:20:28.968Z</time></trkpt><trkpt lat="42.82491768319486" lon="12.248086548389823"><ele>546.0</ele><time>2026-04-12T14:20:29.968Z</time></trkpt><trkpt lat="42.825006206561504" lon="12.248006070155286"><ele>546.0</ele><time>2026-04-12T14:20:30.968Z</time></trkpt><trkpt lat="42.82507924362949" lon="12.247935650729104"><ele>546.0</ele><time>2026-04-12T14:20:31.968Z</time></trkpt><trkpt lat="42.825145682764656" lon="12.247872887580982"><ele>546.0</ele><time>2026-04-12T14:20:32.968Z</time></trkpt><trkpt lat="42.825251430707844" lon="12.247812251709076"><ele>546.0</ele><time>2026-04-12T14:20:34.968Z</time></trkpt><trkpt lat="42.82534299345837" lon="12.247830715797136"><ele>546.0</ele><time>2026-04-12T14:20:36.967Z</time></trkpt><trkpt lat="42.825399894911016" lon="12.24787672796138"><ele>546.0</ele><time>2026-04-12T14:20:38.967Z</time></trkpt><trkpt lat="42.825472314753945" lon="12.247986599729767"><ele>546.6666666666666</ele><time>2026-04-12T14:20:40.967Z</time></trkpt><trkpt lat="42.825532581309254" lon="12.248062661921917"><ele>547.3333333333334</ele><time>2026-04-12T14:20:41.967Z</time></trkpt><trkpt lat="42.82562663765023" lon="12.248082296690692"><ele>548.0</ele><time>2026-04-12T14:20:43.967Z</time></trkpt><trkpt lat="42.82567768870743" lon="12.248004344685373"><ele>548.6666666666667</ele><time>2026-04-12T14:20:45.967Z</time></trkpt><trkpt lat="42.82568604017853" lon="12.24788210195543"><ele>549.3333333333334</ele><time>2026-04-12T14:20:47.967Z</time></trkpt><trkpt lat="42.82569268937577" lon="12.247796388687332"><ele>550.0</ele><time>2026-04-12T14:20:48.967Z</time></trkpt><trkpt lat="42.825665248096946" lon="12.24763685480736"><ele>550.0</ele><time>2026-04-12T14:20:50.967Z</time></trkpt><trkpt lat="42.825659723567654" lon="12.247479141486057"><ele>550.0</ele><time>2026-04-12T14:20:52.967Z</time></trkpt><trkpt lat="42.82568206172569" lon="12.247385564891955"><ele>550.0</ele><time>2026-04-12T14:20:53.967Z</time></trkpt><trkpt lat="42.82571837564882" lon="12.24729484071034"><ele>550.0</ele><time>2026-04-12T14:20:54.967Z</time></trkpt><trkpt lat="42.82577790914667" lon="12.2472202504201"><ele>550.0</ele><time>2026-04-12T14:20:55.967Z</time></trkpt><trkpt lat="42.825841429889884" lon="12.247147921778685"><ele>550.0</ele><time>2026-04-12T14:20:56.967Z</time></trkpt><trkpt lat="42.8259123208471" lon="12.247070362688314"><ele>550.5</ele><time>2026-04-12T14:20:57.967Z</time></trkpt><trkpt lat="42.825969169769955" lon="12.246989724861749"><ele>551.0</ele><time>2026-04-12T14:20:58.967Z</time></trkpt><trkpt lat="42.82600032217719" lon="12.246914313834484"><ele>551.5</ele><time>2026-04-12T14:20:59.967Z</time></trkpt><trkpt lat="42.8259960170612" lon="12.246757860359821"><ele>552.0</ele><time>2026-04-12T14:21:01.967Z</time></trkpt><trkpt lat="42.82599428327659" lon="12.246665952953633"><ele>552.5</ele><time>2026-04-12T14:21:02.967Z</time></trkpt><trkpt lat="42.82601528153399" lon="12.246526260658259"><ele>553.0</ele><time>2026-04-12T14:21:04.967Z</time></trkpt><trkpt lat="42.82606177281783" lon="12.246454904088731"><ele>553.0</ele><time>2026-04-12T14:21:05.967Z</time></trkpt><trkpt lat="42.82612358423192" lon="12.246393495188743"><ele>553.0</ele><time>2026-04-12T14:21:06.967Z</time></trkpt><trkpt lat="42.826201004921955" lon="12.24634126557736"><ele>553.0</ele><time>2026-04-12T14:21:07.967Z</time></trkpt><trkpt lat="42.826286475276085" lon="12.246287005475994"><ele>553.0</ele><time>2026-04-12T14:21:08.967Z</time></trkpt><trkpt lat="42.82635732677384" lon="12.246240461547885"><ele>553.0</ele><time>2026-04-12T14:21:09.967Z</time></trkpt><trkpt lat="42.82641613869277" lon="12.246174869426618"><ele>553.0</ele><time>2026-04-12T14:21:10.967Z</time></trkpt><trkpt lat="42.82646794661981" lon="12.246109081939208"><ele>553.0</ele><time>2026-04-12T14:21:11.966Z</time></trkpt><trkpt lat="42.8265171853977" lon="12.246016105312053"><ele>553.0</ele><time>2026-04-12T14:21:12.966Z</time></trkpt><trkpt lat="42.82655796820618" lon="12.24593113050265"><ele>553.0</ele><time>2026-04-12T14:21:13.966Z</time></trkpt><trkpt lat="42.82659689067142" lon="12.245858217786997"><ele>553.0</ele><time>2026-04-12T14:21:14.966Z</time></trkpt><trkpt lat="42.82666461027064" lon="12.245763120572496"><ele>553.0</ele><time>2026-04-12T14:21:16.966Z</time></trkpt><trkpt lat="42.82677564409534" lon="12.245665896092031"><ele>553.5</ele><time>2026-04-12T14:21:18.966Z</time></trkpt><trkpt lat="42.8268506327058" lon="12.245629002633475"><ele>554.0</ele><time>2026-04-12T14:21:19.966Z</time></trkpt><trkpt lat="42.82692986210117" lon="12.245605678246573"><ele>554.5</ele><time>2026-04-12T14:21:20.966Z</time></trkpt><trkpt lat="42.82699883115692" lon="12.245598497746794"><ele>555.0</ele><time>2026-04-12T14:21:21.966Z</time></trkpt><trkpt lat="42.82710296198978" lon="12.245585344511657"><ele>555.5</ele><time>2026-04-12T14:21:23.966Z</time></trkpt><trkpt lat="42.827180500218155" lon="12.245502621557327"><ele>556.0</ele><time>2026-04-12T14:21:25.966Z</time></trkpt><trkpt lat="42.82722620701689" lon="12.245361016431344"><ele>555.0</ele><time>2026-04-12T14:21:27.966Z</time></trkpt><trkpt lat="42.8271883367348" lon="12.245215354816589"><ele>554.0</ele><time>2026-04-12T14:21:29.966Z</time></trkpt><trkpt lat="42.82715959402598" lon="12.245119771334165"><ele>553.0</ele><time>2026-04-12T14:21:30.966Z</time></trkpt><trkpt lat="42.827125091702364" lon="12.245009674663518"><ele>552.0</ele><time>2026-04-12T14:21:31.966Z</time></trkpt><trkpt lat="42.82708391066686" lon="12.24489762463284"><ele>551.0</ele><time>2026-04-12T14:21:32.966Z</time></trkpt><trkpt lat="42.827040007779765" lon="12.24477289316285"><ele>551.0</ele><time>2026-04-12T14:21:33.966Z</time></trkpt><trkpt lat="42.82699037043099" lon="12.24465217490159"><ele>551.0</ele><time>2026-04-12T14:21:34.966Z</time></trkpt><trkpt lat="42.82692745324955" lon="12.244552082748436"><ele>551.0</ele><time>2026-04-12T14:21:35.966Z</time></trkpt><trkpt lat="42.8268519751761" lon="12.244449131938582"><ele>551.0</ele><time>2026-04-12T14:21:36.966Z</time></trkpt><trkpt lat="42.82676598785603" lon="12.24435464182478"><ele>551.0</ele><time>2026-04-12T14:21:37.966Z</time></trkpt><trkpt lat="42.826691250029626" lon="12.244268702895443"><ele>551.2</ele><time>2026-04-12T14:21:38.966Z</time></trkpt><trkpt lat="42.826623154160956" lon="12.244172380282647"><ele>551.4000000000001</ele><time>2026-04-12T14:21:39.966Z</time></trkpt><trkpt lat="42.826550286396106" lon="12.244071396688518"><ele>551.6</ele><time>2026-04-12T14:21:40.966Z</time></trkpt><trkpt lat="42.82647188949185" lon="12.243970303657816"><ele>551.8000000000001</ele><time>2026-04-12T14:21:41.966Z</time></trkpt><trkpt lat="42.82639808626561" lon="12.243872073619315"><ele>552.0</ele><time>2026-04-12T14:21:42.966Z</time></trkpt><trkpt lat="42.82633347185113" lon="12.243785717915415"><ele>554.0</ele><time>2026-04-12T14:21:43.966Z</time></trkpt><trkpt lat="42.82626912242519" lon="12.243713688791914"><ele>556.0</ele><time>2026-04-12T14:21:44.966Z</time></trkpt><trkpt lat="42.82619765278811" lon="12.243659318105555"><ele>558.0</ele><time>2026-04-12T14:21:45.965Z</time></trkpt><trkpt lat="42.82611296174449" lon="12.243623156849518"><ele>560.0</ele><time>2026-04-12T14:21:46.965Z</time></trkpt><trkpt lat="42.826023883678495" lon="12.24359118337829"><ele>562.0</ele><time>2026-04-12T14:21:47.965Z</time></trkpt><trkpt lat="42.825943241080154" lon="12.24356098379705"><ele>564.0</ele><time>2026-04-12T14:21:48.965Z</time></trkpt><trkpt lat="42.8258736771751" lon="12.243531924022934"><ele>564.0</ele><time>2026-04-12T14:21:49.965Z</time></trkpt><trkpt lat="42.82576828077483" lon="12.243437574721604"><ele>564.0</ele><time>2026-04-12T14:21:51.965Z</time></trkpt><trkpt lat="42.82571165549611" lon="12.243394117551968"><ele>564.0</ele><time>2026-04-12T14:21:52.965Z</time></trkpt><trkpt lat="42.825639565486185" lon="12.243353533201974"><ele>564.0</ele><time>2026-04-12T14:21:53.965Z</time></trkpt><trkpt lat="42.82556053446569" lon="12.243316397252995"><ele>564.0</ele><time>2026-04-12T14:21:54.965Z</time></trkpt><trkpt lat="42.82546898356971" lon="12.243293400937441"><ele>564.0</ele><time>2026-04-12T14:21:55.965Z</time></trkpt><trkpt lat="42.82536471141602" lon="12.243272571126724"><ele>564.0</ele><time>2026-04-12T14:21:56.965Z</time></trkpt><trkpt lat="42.825257245450615" lon="12.2432599443292"><ele>564.0</ele><time>2026-04-12T14:21:57.965Z</time></trkpt><trkpt lat="42.8251547446236" lon="12.24325652446163"><ele>564.0</ele><time>2026-04-12T14:21:58.965Z</time></trkpt><trkpt lat="42.82508139179784" lon="12.243270521703021"><ele>564.0</ele><time>2026-04-12T14:21:59.965Z</time></trkpt><trkpt lat="42.82498499140911" lon="12.243280885830247"><ele>564.0</ele><time>2026-04-12T14:22:01.965Z</time></trkpt><trkpt lat="42.82491370700649" lon="12.243244835778453"><ele>563.5</ele><time>2026-04-12T14:22:04.967Z</time></trkpt><trkpt lat="42.82484244367966" lon="12.243213068068133"><ele>563.0</ele><time>2026-04-12T14:22:06.968Z</time></trkpt><trkpt lat="42.824786901241986" lon="12.243141303607231"><ele>562.5</ele><time>2026-04-12T14:22:09.967Z</time></trkpt><trkpt lat="42.8247590841159" lon="12.243059069697763"><ele>562.0</ele><time>2026-04-12T14:22:11.967Z</time></trkpt><trkpt lat="42.82477858227409" lon="12.242927254928551"><ele>561.5</ele><time>2026-04-12T14:22:13.967Z</time></trkpt><trkpt lat="42.82479109318441" lon="12.242785776336804"><ele>561.0</ele><time>2026-04-12T14:22:15.967Z</time></trkpt><trkpt lat="42.824803644432365" lon="12.242699411177295"><ele>563.8333333333334</ele><time>2026-04-12T14:22:16.967Z</time></trkpt><trkpt lat="42.824792533872866" lon="12.242608657039483"><ele>566.6666666666666</ele><time>2026-04-12T14:22:17.967Z</time></trkpt><trkpt lat="42.824771076283696" lon="12.242514244597572"><ele>569.5</ele><time>2026-04-12T14:22:18.967Z</time></trkpt><trkpt lat="42.82474834964549" lon="12.242425160628166"><ele>572.3333333333333</ele><time>2026-04-12T14:22:19.967Z</time></trkpt><trkpt lat="42.82472819004452" lon="12.242342229361588"><ele>575.1666666666666</ele><time>2026-04-12T14:22:20.967Z</time></trkpt><trkpt lat="42.824662470660236" lon="12.242235953414992"><ele>578.0</ele><time>2026-04-12T14:22:22.967Z</time></trkpt><trkpt lat="42.82455994640142" lon="12.24220181813822"><ele>579.1666666666666</ele><time>2026-04-12T14:22:24.967Z</time></trkpt><trkpt lat="42.82449233898865" lon="12.242187837103526"><ele>580.3333333333333</ele><time>2026-04-12T14:22:25.967Z</time></trkpt><trkpt lat="42.82440294470025" lon="12.242171192334117"><ele>581.5</ele><time>2026-04-12T14:22:26.967Z</time></trkpt><trkpt lat="42.82432096137284" lon="12.242160086920455"><ele>582.6666666666666</ele><time>2026-04-12T14:22:27.967Z</time></trkpt><trkpt lat="42.824237037042806" lon="12.242158488878232"><ele>583.8333333333334</ele><time>2026-04-12T14:22:28.967Z</time></trkpt><trkpt lat="42.82414082413118" lon="12.242178154262913"><ele>585.0</ele><time>2026-04-12T14:22:29.967Z</time></trkpt><trkpt lat="42.82405436998367" lon="12.242213423666296"><ele>585.0</ele><time>2026-04-12T14:22:30.967Z</time></trkpt><trkpt lat="42.823988127125766" lon="12.24225419614676"><ele>585.0</ele><time>2026-04-12T14:22:31.967Z</time></trkpt><trkpt lat="42.8239279545101" lon="12.242294428360866"><ele>585.0</ele><time>2026-04-12T14:22:32.967Z</time></trkpt><trkpt lat="42.823856355384756" lon="12.242335960129415"><ele>585.0</ele><time>2026-04-12T14:22:33.967Z</time></trkpt><trkpt lat="42.823796479331854" lon="12.242371936727134"><ele>585.0</ele><time>2026-04-12T14:22:34.967Z</time></trkpt><trkpt lat="42.82372873617171" lon="12.242382723725523"><ele>585.0</ele><time>2026-04-12T14:22:35.967Z</time></trkpt><trkpt lat="42.82366761798578" lon="12.242361703487637"><ele>585.0</ele><time>2026-04-12T14:22:36.967Z</time></trkpt><trkpt lat="42.82356639596596" lon="12.242287094490027"><ele>585.0</ele><time>2026-04-12T14:22:38.967Z</time></trkpt><trkpt lat="42.823516516517444" lon="12.242177329685756"><ele>585.0</ele><time>2026-04-12T14:22:40.966Z</time></trkpt><trkpt lat="42.82351452491164" lon="12.242064731820609"><ele>585.0</ele><time>2026-04-12T14:22:42.966Z</time></trkpt><trkpt lat="42.823546919451445" lon="12.241938142922338"><ele>585.0</ele><time>2026-04-12T14:22:44.966Z</time></trkpt><trkpt lat="42.823589380640634" lon="12.241861698045492"><ele>585.0</ele><time>2026-04-12T14:22:45.966Z</time></trkpt><trkpt lat="42.8236531141871" lon="12.2417656364483"><ele>585.0</ele><time>2026-04-12T14:22:46.966Z</time></trkpt><trkpt lat="42.82372768614509" lon="12.241651017339617"><ele>585.0</ele><time>2026-04-12T14:22:47.966Z</time></trkpt><trkpt lat="42.823799087427936" lon="12.241548139006236"><ele>585.0</ele><time>2026-04-12T14:22:48.966Z</time></trkpt><trkpt lat="42.82386992925176" lon="12.241460614638825"><ele>585.0</ele><time>2026-04-12T14:22:49.966Z</time></trkpt><trkpt lat="42.82392477859192" lon="12.241385573172982"><ele>585.0</ele><time>2026-04-12T14:22:50.966Z</time></trkpt><trkpt lat="42.82395877394345" lon="12.241306041809915"><ele>585.0</ele><time>2026-04-12T14:22:51.966Z</time></trkpt><trkpt lat="42.823985891232624" lon="12.241210781081156"><ele>585.0</ele><time>2026-04-12T14:22:52.966Z</time></trkpt><trkpt lat="42.824000812858635" lon="12.241088074207402"><ele>585.6666666666666</ele><time>2026-04-12T14:22:53.966Z</time></trkpt><trkpt lat="42.82401415787266" lon="12.240974015793354"><ele>586.3333333333334</ele><time>2026-04-12T14:22:54.966Z</time></trkpt><trkpt lat="42.824020936970406" lon="12.240866294939343"><ele>587.0</ele><time>2026-04-12T14:22:55.966Z</time></trkpt><trkpt lat="42.824033961672484" lon="12.240754182032587"><ele>587.6666666666667</ele><time>2026-04-12T14:22:56.966Z</time></trkpt><trkpt lat="42.824049326751464" lon="12.240632655725845"><ele>588.3333333333334</ele><time>2026-04-12T14:22:57.966Z</time></trkpt><trkpt lat="42.82406720145373" lon="12.240505525496953"><ele>589.0</ele><time>2026-04-12T14:22:58.966Z</time></trkpt><trkpt lat="42.82410192962211" lon="12.240403851015126"><ele>589.2857142857142</ele><time>2026-04-12T14:22:59.966Z</time></trkpt><trkpt lat="42.82413998004077" lon="12.240325141350517"><ele>589.5714285714286</ele><time>2026-04-12T14:23:00.966Z</time></trkpt><trkpt lat="42.82418822996844" lon="12.240261555209061"><ele>589.8571428571429</ele><time>2026-04-12T14:23:01.966Z</time></trkpt><trkpt lat="42.8242374450318" lon="12.240206408814304"><ele>590.1428571428571</ele><time>2026-04-12T14:23:02.966Z</time></trkpt><trkpt lat="42.82429616933666" lon="12.240173161328885"><ele>590.4285714285714</ele><time>2026-04-12T14:23:03.966Z</time></trkpt><trkpt lat="42.8243608661147" lon="12.240144264197157"><ele>590.7142857142857</ele><time>2026-04-12T14:23:04.966Z</time></trkpt><trkpt lat="42.82442543615272" lon="12.24013005831694"><ele>591.0</ele><time>2026-04-12T14:23:05.966Z</time></trkpt><trkpt lat="42.82454684127542" lon="12.2401266386168"><ele>591.0</ele><time>2026-04-12T14:23:07.966Z</time></trkpt><trkpt lat="42.82462356795168" lon="12.240143116459132"><ele>591.0</ele><time>2026-04-12T14:23:08.966Z</time></trkpt><trkpt lat="42.824726881198856" lon="12.240169677149272"><ele>591.0</ele><time>2026-04-12T14:23:09.966Z</time></trkpt><trkpt lat="42.82483646342365" lon="12.240198777956147"><ele>591.0</ele><time>2026-04-12T14:23:10.966Z</time></trkpt><trkpt lat="42.82494955983261" lon="12.240234122718718"><ele>591.0</ele><time>2026-04-12T14:23:11.966Z</time></trkpt><trkpt lat="42.82504856972106" lon="12.240251165929811"><ele>591.0</ele><time>2026-04-12T14:23:12.966Z</time></trkpt><trkpt lat="42.825138840999514" lon="12.240245708178515"><ele>591.0</ele><time>2026-04-12T14:23:13.966Z</time></trkpt><trkpt lat="42.82523970408736" lon="12.240228577146151"><ele>591.0</ele><time>2026-04-12T14:23:14.966Z</time></trkpt><trkpt lat="42.82534891720343" lon="12.240199085894218"><ele>591.0</ele><time>2026-04-12T14:23:15.965Z</time></trkpt><trkpt lat="42.825466824802874" lon="12.240176104206437"><ele>591.0</ele><time>2026-04-12T14:23:16.965Z</time></trkpt><trkpt lat="42.82558208251486" lon="12.24015397301555"><ele>593.2</ele><time>2026-04-12T14:23:17.965Z</time></trkpt><trkpt lat="42.82569215114528" lon="12.240123524130812"><ele>595.4000000000001</ele><time>2026-04-12T14:23:18.965Z</time></trkpt><trkpt lat="42.82578974222593" lon="12.24010604185314"><ele>597.6</ele><time>2026-04-12T14:23:19.965Z</time></trkpt><trkpt lat="42.82586627042581" lon="12.240083963103885"><ele>599.8000000000001</ele><time>2026-04-12T14:23:20.965Z</time></trkpt><trkpt lat="42.82598231870245" lon="12.240024030034677"><ele>602.0</ele><time>2026-04-12T14:23:22.965Z</time></trkpt><trkpt lat="42.826060099961005" lon="12.239896630945521"><ele>602.8333333333333</ele><time>2026-04-12T14:23:24.965Z</time></trkpt><trkpt lat="42.82607880675025" lon="12.239808876896666"><ele>603.6666666666666</ele><time>2026-04-12T14:23:25.965Z</time></trkpt><trkpt lat="42.82608118569571" lon="12.239701661075577"><ele>604.5</ele><time>2026-04-12T14:23:26.965Z</time></trkpt><trkpt lat="42.82605867217122" lon="12.239589817675714"><ele>605.3333333333334</ele><time>2026-04-12T14:23:27.965Z</time></trkpt><trkpt lat="42.826016752902916" lon="12.239465077444226"><ele>606.1666666666667</ele><time>2026-04-12T14:23:28.965Z</time></trkpt><trkpt lat="42.825995025507126" lon="12.239365444436638"><ele>607.0</ele><time>2026-04-12T14:23:29.965Z</time></trkpt><trkpt lat="42.82600849772025" lon="12.23922436276829"><ele>607.0</ele><time>2026-04-12T14:23:31.965Z</time></trkpt><trkpt lat="42.8260909662636" lon="12.239098520417867"><ele>607.0</ele><time>2026-04-12T14:23:33.965Z</time></trkpt><trkpt lat="42.8261459278603" lon="12.239055838577974"><ele>607.0</ele><time>2026-04-12T14:23:34.965Z</time></trkpt><trkpt lat="42.82627607407926" lon="12.23901032751856"><ele>607.0</ele><time>2026-04-12T14:23:36.965Z</time></trkpt><trkpt lat="42.82634911663257" lon="12.239016134905937"><ele>607.0</ele><time>2026-04-12T14:23:37.965Z</time></trkpt><trkpt lat="42.826420195353464" lon="12.239041251216696"><ele>607.0</ele><time>2026-04-12T14:23:38.965Z</time></trkpt><trkpt lat="42.826481943317674" lon="12.239090198015731"><ele>607.0</ele><time>2026-04-12T14:23:39.965Z</time></trkpt><trkpt lat="42.82658149295759" lon="12.239223360759606"><ele>607.0</ele><time>2026-04-12T14:23:41.965Z</time></trkpt><trkpt lat="42.826640034152796" lon="12.239300571536843"><ele>607.0</ele><time>2026-04-12T14:23:42.965Z</time></trkpt><trkpt lat="42.826708805500424" lon="12.23938286622544"><ele>607.0</ele><time>2026-04-12T14:23:43.965Z</time></trkpt><trkpt lat="42.82677709406728" lon="12.239449118182062"><ele>609.6</ele><time>2026-04-12T14:23:44.965Z</time></trkpt><trkpt lat="42.82684659726496" lon="12.239502334975043"><ele>612.2</ele><time>2026-04-12T14:23:45.965Z</time></trkpt><trkpt lat="42.82696349665138" lon="12.239531924155601"><ele>614.8</ele><time>2026-04-12T14:23:47.965Z</time></trkpt><trkpt lat="42.827093965693734" lon="12.239506953844089"><ele>617.4</ele><time>2026-04-12T14:23:49.965Z</time></trkpt><trkpt lat="42.827152262473355" lon="12.239451100647432"><ele>620.0</ele><time>2026-04-12T14:23:50.964Z</time></trkpt><trkpt lat="42.827189072716386" lon="12.239376574654717"><ele>620.0</ele><time>2026-04-12T14:23:51.964Z</time></trkpt><trkpt lat="42.827217933567525" lon="12.239218530523267"><ele>620.0</ele><time>2026-04-12T14:23:53.964Z</time></trkpt><trkpt lat="42.82722428121896" lon="12.239122883736211"><ele>620.0</ele><time>2026-04-12T14:23:54.964Z</time></trkpt><trkpt lat="42.82722356481732" lon="12.239024831232884"><ele>620.0</ele><time>2026-04-12T14:23:55.964Z</time></trkpt><trkpt lat="42.82722001862558" lon="12.238914222422485"><ele>620.0</ele><time>2026-04-12T14:23:56.964Z</time></trkpt><trkpt lat="42.827232020708536" lon="12.238810609350827"><ele>620.0</ele><time>2026-04-12T14:23:57.964Z</time></trkpt><trkpt lat="42.827247837888926" lon="12.238722885942131"><ele>618.8</ele><time>2026-04-12T14:23:58.964Z</time></trkpt><trkpt lat="42.82732721584521" lon="12.238599459757818"><ele>617.6</ele><time>2026-04-12T14:24:00.964Z</time></trkpt><trkpt lat="42.82744047396089" lon="12.23856313342978"><ele>616.4</ele><time>2026-04-12T14:24:02.964Z</time></trkpt><trkpt lat="42.82751647516753" lon="12.238563888475593"><ele>615.2</ele><time>2026-04-12T14:24:03.964Z</time></trkpt><trkpt lat="42.827607099791024" lon="12.23858041013052"><ele>614.0</ele><time>2026-04-12T14:24:04.964Z</time></trkpt><trkpt lat="42.827708894225324" lon="12.238598817722078"><ele>614.0</ele><time>2026-04-12T14:24:05.964Z</time></trkpt><trkpt lat="42.82782263307936" lon="12.238613849173788"><ele>614.0</ele><time>2026-04-12T14:24:06.964Z</time></trkpt><trkpt lat="42.827940185723286" lon="12.238629937403179"><ele>614.0</ele><time>2026-04-12T14:24:07.964Z</time></trkpt><trkpt lat="42.82805522965081" lon="12.238651279685763"><ele>614.0</ele><time>2026-04-12T14:24:08.967Z</time></trkpt><trkpt lat="42.828174907726286" lon="12.238674161284113"><ele>614.0</ele><time>2026-04-12T14:24:09.966Z</time></trkpt><trkpt lat="42.82829793690301" lon="12.238703683785118"><ele>614.0</ele><time>2026-04-12T14:24:10.966Z</time></trkpt><trkpt lat="42.82840573909577" lon="12.238739551148756"><ele>614.0</ele><time>2026-04-12T14:24:11.967Z</time></trkpt><trkpt lat="42.828507106623285" lon="12.23876640521435"><ele>614.0</ele><time>2026-04-12T14:24:12.966Z</time></trkpt><trkpt lat="42.8286005720432" lon="12.238797143394809"><ele>614.0</ele><time>2026-04-12T14:24:13.966Z</time></trkpt><trkpt lat="42.828671119752784" lon="12.238804812440126"><ele>615.8333333333333</ele><time>2026-04-12T14:24:14.966Z</time></trkpt><trkpt lat="42.82880035596699" lon="12.2387657056863"><ele>617.6666666666666</ele><time>2026-04-12T14:24:16.966Z</time></trkpt><trkpt lat="42.82885910299964" lon="12.238708972830118"><ele>619.5</ele><time>2026-04-12T14:24:17.967Z</time></trkpt><trkpt lat="42.82890742107141" lon="12.238637935747377"><ele>621.3333333333334</ele><time>2026-04-12T14:24:18.966Z</time></trkpt><trkpt lat="42.828951672085616" lon="12.238555345726253"><ele>623.1666666666667</ele><time>2026-04-12T14:24:19.966Z</time></trkpt><trkpt lat="42.82898692419797" lon="12.238442285750336"><ele>625.0</ele><time>2026-04-12T14:24:20.966Z</time></trkpt><trkpt lat="42.82902108624983" lon="12.238306356135215"><ele>625.0</ele><time>2026-04-12T14:24:21.966Z</time></trkpt><trkpt lat="42.82905082432289" lon="12.238174653926196"><ele>625.0</ele><time>2026-04-12T14:24:22.966Z</time></trkpt><trkpt lat="42.82907372310208" lon="12.238077054507523"><ele>625.0</ele><time>2026-04-12T14:24:23.966Z</time></trkpt><trkpt lat="42.8290853646686" lon="12.23798614280329"><ele>625.0</ele><time>2026-04-12T14:24:24.966Z</time></trkpt><trkpt lat="42.82907220412506" lon="12.237879277209714"><ele>625.0</ele><time>2026-04-12T14:24:25.966Z</time></trkpt><trkpt lat="42.82903312858376" lon="12.237773308726323"><ele>625.0</ele><time>2026-04-12T14:24:26.966Z</time></trkpt><trkpt lat="42.8289847430357" lon="12.23767574856"><ele>624.8333333333334</ele><time>2026-04-12T14:24:27.966Z</time></trkpt><trkpt lat="42.82894558573838" lon="12.237556160304843"><ele>624.6666666666667</ele><time>2026-04-12T14:24:29.966Z</time></trkpt><trkpt lat="42.828983381669836" lon="12.237463767398392"><ele>624.5</ele><time>2026-04-12T14:24:31.966Z</time></trkpt><trkpt lat="42.82907749312231" lon="12.237411376036537"><ele>624.3333333333334</ele><time>2026-04-12T14:24:33.966Z</time></trkpt><trkpt lat="42.82914107036156" lon="12.237416400831757"><ele>624.1666666666666</ele><time>2026-04-12T14:24:34.966Z</time></trkpt><trkpt lat="42.82920919577957" lon="12.23741041658098"><ele>624.0</ele><time>2026-04-12T14:24:35.966Z</time></trkpt><trkpt lat="42.82927615062499" lon="12.237376411773191"><ele>624.5</ele><time>2026-04-12T14:24:36.966Z</time></trkpt><trkpt lat="42.829359695284786" lon="12.237258463649345"><ele>625.0</ele><time>2026-04-12T14:24:38.966Z</time></trkpt><trkpt lat="42.82937390576154" lon="12.237167788145422"><ele>625.5</ele><time>2026-04-12T14:24:39.966Z</time></trkpt><trkpt lat="42.82937829190141" lon="12.23706890735184"><ele>626.0</ele><time>2026-04-12T14:24:40.966Z</time></trkpt><trkpt lat="42.82939151357043" lon="12.23698325656099"><ele>626.5</ele><time>2026-04-12T14:24:41.966Z</time></trkpt><trkpt lat="42.82945769147558" lon="12.236865053676047"><ele>627.0</ele><time>2026-04-12T14:24:43.966Z</time></trkpt><trkpt lat="42.82952166832451" lon="12.236826468112543"><ele>627.0</ele><time>2026-04-12T14:24:44.966Z</time></trkpt><trkpt lat="42.82960600683002" lon="12.23681604656064"><ele>627.0</ele><time>2026-04-12T14:24:45.965Z</time></trkpt><trkpt lat="42.82969045154537" lon="12.236814976995435"><ele>627.0</ele><time>2026-04-12T14:24:46.965Z</time></trkpt><trkpt lat="42.82976506951097" lon="12.236803061137069"><ele>627.0</ele><time>2026-04-12T14:24:47.965Z</time></trkpt><trkpt lat="42.829825250620864" lon="12.23677447798016"><ele>627.0</ele><time>2026-04-12T14:24:48.965Z</time></trkpt><trkpt lat="42.82990028395279" lon="12.236660323027314"><ele>627.0</ele><time>2026-04-12T14:24:50.965Z</time></trkpt><trkpt lat="42.829930571632616" lon="12.236559138916654"><ele>625.6</ele><time>2026-04-12T14:24:51.965Z</time></trkpt><trkpt lat="42.82996337904734" lon="12.236453731229451"><ele>624.2</ele><time>2026-04-12T14:24:52.965Z</time></trkpt><trkpt lat="42.83001080762884" lon="12.236346374585544"><ele>622.8</ele><time>2026-04-12T14:24:53.965Z</time></trkpt><trkpt lat="42.83006971822872" lon="12.23624466736017"><ele>621.4</ele><time>2026-04-12T14:24:54.965Z</time></trkpt><trkpt lat="42.83014009070443" lon="12.23614898722291"><ele>620.0</ele><time>2026-04-12T14:24:55.965Z</time></trkpt><trkpt lat="42.8302170847756" lon="12.236061653640348"><ele>619.1666666666666</ele><time>2026-04-12T14:24:56.965Z</time></trkpt><trkpt lat="42.83028920719108" lon="12.235988741016447"><ele>618.3333333333333</ele><time>2026-04-12T14:24:57.965Z</time></trkpt><trkpt lat="42.8303443024462" lon="12.23591341927188"><ele>617.5</ele><time>2026-04-12T14:24:58.965Z</time></trkpt><trkpt lat="42.83038222685414" lon="12.235822324306717"><ele>616.6666666666666</ele><time>2026-04-12T14:24:59.965Z</time></trkpt><trkpt lat="42.83039850311196" lon="12.235733053263619"><ele>615.8333333333334</ele><time>2026-04-12T14:25:00.965Z</time></trkpt><trkpt lat="42.83039536386081" lon="12.235638639332931"><ele>615.0</ele><time>2026-04-12T14:25:01.965Z</time></trkpt><trkpt lat="42.830371783484544" lon="12.23554008261156"><ele>615.8</ele><time>2026-04-12T14:25:02.965Z</time></trkpt><trkpt lat="42.830327232486866" lon="12.235446795281472"><ele>616.6</ele><time>2026-04-12T14:25:03.965Z</time></trkpt><trkpt lat="42.83026679812821" lon="12.235363173282009"><ele>617.4</ele><time>2026-04-12T14:25:04.965Z</time></trkpt><trkpt lat="42.83019060064609" lon="12.235289495342798"><ele>618.2</ele><time>2026-04-12T14:25:05.965Z</time></trkpt><trkpt lat="42.8301043290834" lon="12.235220013226968"><ele>619.0</ele><time>2026-04-12T14:25:06.965Z</time></trkpt><trkpt lat="42.83000995742057" lon="12.23515412320127"><ele>619.0</ele><time>2026-04-12T14:25:07.965Z</time></trkpt><trkpt lat="42.82991907430531" lon="12.235094012606755"><ele>619.0</ele><time>2026-04-12T14:25:08.965Z</time></trkpt><trkpt lat="42.82982146085918" lon="12.235053823509263"><ele>619.0</ele><time>2026-04-12T14:25:09.965Z</time></trkpt><trkpt lat="42.82970953054017" lon="12.23501598054991"><ele>619.0</ele><time>2026-04-12T14:25:10.965Z</time></trkpt><trkpt lat="42.829606869662236" lon="12.234984253761283"><ele>619.0</ele><time>2026-04-12T14:25:11.965Z</time></trkpt><trkpt lat="42.82950763278962" lon="12.234945816215655"><ele>619.0</ele><time>2026-04-12T14:25:12.965Z</time></trkpt><trkpt lat="42.82941216135825" lon="12.234882168206541"><ele>619.0</ele><time>2026-04-12T14:25:13.965Z</time></trkpt><trkpt lat="42.829322736290834" lon="12.234806324258214"><ele>619.0</ele><time>2026-04-12T14:25:14.965Z</time></trkpt><trkpt lat="42.829238144911635" lon="12.234723970580974"><ele>619.0</ele><time>2026-04-12T14:25:15.965Z</time></trkpt><trkpt lat="42.82914924453758" lon="12.234619219218082"><ele>619.0</ele><time>2026-04-12T14:25:16.965Z</time></trkpt><trkpt lat="42.82906707052775" lon="12.234499386820614"><ele>619.5</ele><time>2026-04-12T14:25:17.965Z</time></trkpt><trkpt lat="42.82897880611838" lon="12.234372326779022"><ele>620.0</ele><time>2026-04-12T14:25:18.965Z</time></trkpt><trkpt lat="42.828896611862056" lon="12.234249055949125"><ele>620.5</ele><time>2026-04-12T14:25:19.965Z</time></trkpt><trkpt lat="42.828817964176785" lon="12.234141535310787"><ele>621.0</ele><time>2026-04-12T14:25:20.964Z</time></trkpt><trkpt lat="42.82874994880585" lon="12.234049906576441"><ele>620.9999999999999</ele><time>2026-04-12T14:25:21.964Z</time></trkpt><trkpt lat="42.82869348246903" lon="12.233972715380926"><ele>621.0</ele><time>2026-04-12T14:25:22.964Z</time></trkpt><trkpt lat="42.82864075614621" lon="12.23392003091691"><ele>621.0</ele><time>2026-04-12T14:25:23.964Z</time></trkpt><trkpt lat="42.82857850028302" lon="12.233899453780133"><ele>621.0</ele><time>2026-04-12T14:25:24.964Z</time></trkpt><trkpt lat="42.828509004388266" lon="12.233892744743972"><ele>621.0</ele><time>2026-04-12T14:25:25.964Z</time></trkpt><trkpt lat="42.828433216416805" lon="12.23391158723674"><ele>620.9999999999999</ele><time>2026-04-12T14:25:26.964Z</time></trkpt><trkpt lat="42.8283669275473" lon="12.233957150723116"><ele>621.0</ele><time>2026-04-12T14:25:27.964Z</time></trkpt><trkpt lat="42.82828694640648" lon="12.234019697116127"><ele>622.1666666666666</ele><time>2026-04-12T14:25:28.964Z</time></trkpt><trkpt lat="42.828209323473494" lon="12.23407040475999"><ele>623.3333333333334</ele><time>2026-04-12T14:25:29.964Z</time></trkpt><trkpt lat="42.82814420925739" lon="12.23409044119964"><ele>624.5</ele><time>2026-04-12T14:25:30.964Z</time></trkpt><trkpt lat="42.82807421496876" lon="12.234082887058527"><ele>625.6666666666667</ele><time>2026-04-12T14:25:31.964Z</time></trkpt><trkpt lat="42.828008055420646" lon="12.234056415541307"><ele>626.8333333333334</ele><time>2026-04-12T14:25:32.964Z</time></trkpt><trkpt lat="42.82790864115916" lon="12.234002583824926"><ele>628.0</ele><time>2026-04-12T14:25:33.964Z</time></trkpt><trkpt lat="42.827806118731" lon="12.233941895394345"><ele>629.4</ele><time>2026-04-12T14:25:34.964Z</time></trkpt><trkpt lat="42.827710655750536" lon="12.233863995834605"><ele>630.8</ele><time>2026-04-12T14:25:35.964Z</time></trkpt><trkpt lat="42.827632152351335" lon="12.233786947819734"><ele>632.2</ele><time>2026-04-12T14:25:36.964Z</time></trkpt><trkpt lat="42.827562473632675" lon="12.233700787563683"><ele>633.6</ele><time>2026-04-12T14:25:37.964Z</time></trkpt><trkpt lat="42.827511561797216" lon="12.233605415420419"><ele>635.0</ele><time>2026-04-12T14:25:38.964Z</time></trkpt><trkpt lat="42.827478102117986" lon="12.233523295976951"><ele>635.0</ele><time>2026-04-12T14:25:39.964Z</time></trkpt><trkpt lat="42.82744812049927" lon="12.233432556338832"><ele>635.0</ele><time>2026-04-12T14:25:40.964Z</time></trkpt><trkpt lat="42.82738330704236" lon="12.23330229374601"><ele>635.0</ele><time>2026-04-12T14:25:41.964Z</time></trkpt><trkpt lat="42.82729393411019" lon="12.23319476399301"><ele>635.0</ele><time>2026-04-12T14:25:42.964Z</time></trkpt><trkpt lat="42.8271971133003" lon="12.233108637960433"><ele>635.0</ele><time>2026-04-12T14:25:43.964Z</time></trkpt><trkpt lat="42.827091156064235" lon="12.233035934259254"><ele>634.8</ele><time>2026-04-12T14:25:44.964Z</time></trkpt><trkpt lat="42.8269790728744" lon="12.232941032098944"><ele>634.6</ele><time>2026-04-12T14:25:45.964Z</time></trkpt><trkpt lat="42.82687566259366" lon="12.232832480015633"><ele>634.4</ele><time>2026-04-12T14:25:46.964Z</time></trkpt><trkpt lat="42.826807596115714" lon="12.232743923052164"><ele>634.2</ele><time>2026-04-12T14:25:47.964Z</time></trkpt><trkpt lat="42.826772431720485" lon="12.232667916895531"><ele>634.0</ele><time>2026-04-12T14:25:48.964Z</time></trkpt><trkpt lat="42.82675682036572" lon="12.23258296451996"><ele>634.0</ele><time>2026-04-12T14:25:49.964Z</time></trkpt><trkpt lat="42.826785927680504" lon="12.23242819747636"><ele>634.0</ele><time>2026-04-12T14:25:51.964Z</time></trkpt><trkpt lat="42.82686930095886" lon="12.232314919293273"><ele>634.0</ele><time>2026-04-12T14:25:53.964Z</time></trkpt><trkpt lat="42.8269811485562" lon="12.232249970056094"><ele>634.0</ele><time>2026-04-12T14:25:55.963Z</time></trkpt><trkpt lat="42.82706218146867" lon="12.232217788698287"><ele>634.0</ele><time>2026-04-12T14:25:56.963Z</time></trkpt><trkpt lat="42.82715773560786" lon="12.232166696620004"><ele>635.3333333333334</ele><time>2026-04-12T14:25:57.963Z</time></trkpt><trkpt lat="42.82723181232377" lon="12.232095999026"><ele>636.6666666666667</ele><time>2026-04-12T14:25:58.963Z</time></trkpt><trkpt lat="42.82728331809764" lon="12.23200157542508"><ele>638.0</ele><time>2026-04-12T14:25:59.963Z</time></trkpt><trkpt lat="42.82731481645983" lon="12.231900464997201"><ele>639.3333333333334</ele><time>2026-04-12T14:26:00.963Z</time></trkpt><trkpt lat="42.827323878438456" lon="12.231806915176628"><ele>640.6666666666666</ele><time>2026-04-12T14:26:01.963Z</time></trkpt><trkpt lat="42.827324010374596" lon="12.231715888162732"><ele>642.0</ele><time>2026-04-12T14:26:02.963Z</time></trkpt><trkpt lat="42.827274206538206" lon="12.231566879685245"><ele>642.0</ele><time>2026-04-12T14:26:04.963Z</time></trkpt><trkpt lat="42.82721528083898" lon="12.231508466248693"><ele>642.0</ele><time>2026-04-12T14:26:05.963Z</time></trkpt><trkpt lat="42.82715542423773" lon="12.231463724717099"><ele>642.0</ele><time>2026-04-12T14:26:06.963Z</time></trkpt><trkpt lat="42.82707584775066" lon="12.231424231014504"><ele>642.0</ele><time>2026-04-12T14:26:07.963Z</time></trkpt><trkpt lat="42.826979673429285" lon="12.231374594238243"><ele>642.0</ele><time>2026-04-12T14:26:08.963Z</time></trkpt><trkpt lat="42.82687812311703" lon="12.231308945681027"><ele>642.0</ele><time>2026-04-12T14:26:09.963Z</time></trkpt><trkpt lat="42.82678215031942" lon="12.231231816028819"><ele>643.3333333333334</ele><time>2026-04-12T14:26:10.963Z</time></trkpt><trkpt lat="42.82671198997368" lon="12.231150746010849"><ele>644.6666666666666</ele><time>2026-04-12T14:26:11.963Z</time></trkpt><trkpt lat="42.826662481254196" lon="12.231073153404846"><ele>646.0</ele><time>2026-04-12T14:26:12.963Z</time></trkpt><trkpt lat="42.82662088960736" lon="12.23098051481545"><ele>647.3333333333333</ele><time>2026-04-12T14:26:13.963Z</time></trkpt><trkpt lat="42.826579372942035" lon="12.230870266096629"><ele>648.6666666666666</ele><time>2026-04-12T14:26:14.965Z</time></trkpt><trkpt lat="42.82653565861037" lon="12.230746796925514"><ele>650.0</ele><time>2026-04-12T14:26:15.965Z</time></trkpt><trkpt lat="42.826478559616625" lon="12.230604986977236"><ele>652.0</ele><time>2026-04-12T14:26:16.965Z</time></trkpt><trkpt lat="42.82642538488493" lon="12.230462728421626"><ele>654.0</ele><time>2026-04-12T14:26:17.965Z</time></trkpt><trkpt lat="42.82639487191121" lon="12.230316313235804"><ele>656.0</ele><time>2026-04-12T14:26:18.965Z</time></trkpt><trkpt lat="42.82636616452995" lon="12.230179994537812"><ele>658.0</ele><time>2026-04-12T14:26:19.965Z</time></trkpt><trkpt lat="42.82634675966204" lon="12.230073052713959"><ele>660.0</ele><time>2026-04-12T14:26:20.965Z</time></trkpt><trkpt lat="42.8263445917943" lon="12.229920496119146"><ele>659.2</ele><time>2026-04-12T14:26:22.965Z</time></trkpt><trkpt lat="42.826418517669225" lon="12.229785848053897"><ele>658.4</ele><time>2026-04-12T14:26:24.965Z</time></trkpt><trkpt lat="42.826515977755896" lon="12.229688165150156"><ele>657.5999999999999</ele><time>2026-04-12T14:26:26.965Z</time></trkpt><trkpt lat="42.82658045980456" lon="12.229639502899715"><ele>656.8</ele><time>2026-04-12T14:26:27.965Z</time></trkpt><trkpt lat="42.82665841999088" lon="12.229599068933892"><ele>656.0</ele><time>2026-04-12T14:26:28.965Z</time></trkpt><trkpt lat="42.82673837814337" lon="12.229535443601154"><ele>658.8333333333333</ele><time>2026-04-12T14:26:29.965Z</time></trkpt><trkpt lat="42.82681115300655" lon="12.229459908001338"><ele>661.6666666666666</ele><time>2026-04-12T14:26:30.965Z</time></trkpt><trkpt lat="42.82686654475817" lon="12.229382333698233"><ele>664.5</ele><time>2026-04-12T14:26:31.965Z</time></trkpt><trkpt lat="42.82691085263212" lon="12.229282987950073"><ele>667.3333333333334</ele><time>2026-04-12T14:26:32.965Z</time></trkpt><trkpt lat="42.82694820769185" lon="12.22917732318381"><ele>670.1666666666667</ele><time>2026-04-12T14:26:33.965Z</time></trkpt><trkpt lat="42.826978482877436" lon="12.229056343898488"><ele>673.0</ele><time>2026-04-12T14:26:34.965Z</time></trkpt><trkpt lat="42.82700135611144" lon="12.228920395401817"><ele>673.0</ele><time>2026-04-12T14:26:35.965Z</time></trkpt><trkpt lat="42.82703107420708" lon="12.228784061473764"><ele>673.0</ele><time>2026-04-12T14:26:36.965Z</time></trkpt><trkpt lat="42.827062071401386" lon="12.228667584357968"><ele>673.0</ele><time>2026-04-12T14:26:37.965Z</time></trkpt><trkpt lat="42.82710705473576" lon="12.228574915921826"><ele>673.0</ele><time>2026-04-12T14:26:38.965Z</time></trkpt><trkpt lat="42.827150379249765" lon="12.228487792480585"><ele>673.0</ele><time>2026-04-12T14:26:39.965Z</time></trkpt><trkpt lat="42.82720058611639" lon="12.228396063185832"><ele>673.0</ele><time>2026-04-12T14:26:40.965Z</time></trkpt><trkpt lat="42.82724684210532" lon="12.228307283077571"><ele>673.0</ele><time>2026-04-12T14:26:41.965Z</time></trkpt><trkpt lat="42.827304633210666" lon="12.228209807241315"><ele>673.0</ele><time>2026-04-12T14:26:42.965Z</time></trkpt><trkpt lat="42.82736885183324" lon="12.228119410218023"><ele>673.0</ele><time>2026-04-12T14:26:43.965Z</time></trkpt><trkpt lat="42.827436255861585" lon="12.228040772636223"><ele>673.0</ele><time>2026-04-12T14:26:44.965Z</time></trkpt><trkpt lat="42.827499804374376" lon="12.227994533456938"><ele>673.0</ele><time>2026-04-12T14:26:45.964Z</time></trkpt><trkpt lat="42.827570537221845" lon="12.227964830062323"><ele>673.0</ele><time>2026-04-12T14:26:46.964Z</time></trkpt><trkpt lat="42.827663167743964" lon="12.22794020344875"><ele>674.4</ele><time>2026-04-12T14:26:48.964Z</time></trkpt><trkpt lat="42.82777334820198" lon="12.22791572602471"><ele>675.8</ele><time>2026-04-12T14:26:50.964Z</time></trkpt><trkpt lat="42.8278800124575" lon="12.227884421249438"><ele>677.2</ele><time>2026-04-12T14:26:52.964Z</time></trkpt><trkpt lat="42.82799109622856" lon="12.227853113490108"><ele>678.6</ele><time>2026-04-12T14:26:54.964Z</time></trkpt><trkpt lat="42.82806940780721" lon="12.227849807609948"><ele>680.0</ele><time>2026-04-12T14:26:55.964Z</time></trkpt><trkpt lat="42.82815586190761" lon="12.227852226058124"><ele>680.0</ele><time>2026-04-12T14:26:56.964Z</time></trkpt><trkpt lat="42.82821944631202" lon="12.227874695958679"><ele>680.0</ele><time>2026-04-12T14:26:57.964Z</time></trkpt><trkpt lat="42.82831912269376" lon="12.227881491294706"><ele>680.0</ele><time>2026-04-12T14:26:58.964Z</time></trkpt><trkpt lat="42.8284129044354" lon="12.227883658471029"><ele>680.0</ele><time>2026-04-12T14:26:59.964Z</time></trkpt><trkpt lat="42.82847578736074" lon="12.227893685779472"><ele>680.0</ele><time>2026-04-12T14:27:00.964Z</time></trkpt><trkpt lat="42.8285825376527" lon="12.22783697126164"><ele>680.0</ele><time>2026-04-12T14:27:02.964Z</time></trkpt><trkpt lat="42.82863311329419" lon="12.227702795591053"><ele>680.0</ele><time>2026-04-12T14:27:04.964Z</time></trkpt><trkpt lat="42.828586389096074" lon="12.227566504586871"><ele>680.0</ele><time>2026-04-12T14:27:06.964Z</time></trkpt><trkpt lat="42.828533166849404" lon="12.227453345523656"><ele>680.0</ele><time>2026-04-12T14:27:07.964Z</time></trkpt><trkpt lat="42.82846878640416" lon="12.227359649597538"><ele>680.0</ele><time>2026-04-12T14:27:08.964Z</time></trkpt><trkpt lat="42.82837766272389" lon="12.22726259556787"><ele>680.0</ele><time>2026-04-12T14:27:09.964Z</time></trkpt><trkpt lat="42.82828168642059" lon="12.227149136644035"><ele>682.6</ele><time>2026-04-12T14:27:10.964Z</time></trkpt><trkpt lat="42.82819615588408" lon="12.227054233575355"><ele>685.2</ele><time>2026-04-12T14:27:11.964Z</time></trkpt><trkpt lat="42.82811789480098" lon="12.226945050195061"><ele>687.8</ele><time>2026-04-12T14:27:12.964Z</time></trkpt><trkpt lat="42.82805024760577" lon="12.22685327898574"><ele>690.4</ele><time>2026-04-12T14:27:13.964Z</time></trkpt><trkpt lat="42.827984490232566" lon="12.226773574469275"><ele>693.0</ele><time>2026-04-12T14:27:14.964Z</time></trkpt><trkpt lat="42.827922039481784" lon="12.226693485686393"><ele>693.0</ele><time>2026-04-12T14:27:15.964Z</time></trkpt><trkpt lat="42.82786758274152" lon="12.22659849603763"><ele>693.0</ele><time>2026-04-12T14:27:16.964Z</time></trkpt><trkpt lat="42.82783028875092" lon="12.226499988811131"><ele>693.0</ele><time>2026-04-12T14:27:17.964Z</time></trkpt><trkpt lat="42.82780585629471" lon="12.22638759154403"><ele>693.0</ele><time>2026-04-12T14:27:18.964Z</time></trkpt><trkpt lat="42.82779093025165" lon="12.226275120478098"><ele>693.0</ele><time>2026-04-12T14:27:19.964Z</time></trkpt><trkpt lat="42.82776766680809" lon="12.22617279863876"><ele>693.0</ele><time>2026-04-12T14:27:20.963Z</time></trkpt><trkpt lat="42.827736400527826" lon="12.226097559788732"><ele>691.8</ele><time>2026-04-12T14:27:21.963Z</time></trkpt><trkpt lat="42.82761252148969" lon="12.226020229081904"><ele>690.5999999999999</ele><time>2026-04-12T14:27:23.963Z</time></trkpt><trkpt lat="42.8275330102896" lon="12.226008952654732"><ele>689.4000000000001</ele><time>2026-04-12T14:27:24.963Z</time></trkpt><trkpt lat="42.82746161784308" lon="12.225982802836286"><ele>688.2</ele><time>2026-04-12T14:27:25.963Z</time></trkpt><trkpt lat="42.827393810192795" lon="12.225873443220527"><ele>687.0</ele><time>2026-04-12T14:27:27.963Z</time></trkpt><trkpt lat="42.8273647441634" lon="12.225725816091048"><ele>687.6666666666666</ele><time>2026-04-12T14:27:29.963Z</time></trkpt><trkpt lat="42.82735180201028" lon="12.225626588004218"><ele>688.3333333333334</ele><time>2026-04-12T14:27:30.963Z</time></trkpt><trkpt lat="42.82735703998538" lon="12.225516677326203"><ele>689.0</ele><time>2026-04-12T14:27:31.963Z</time></trkpt><trkpt lat="42.82737897784029" lon="12.225404474796367"><ele>689.6666666666667</ele><time>2026-04-12T14:27:32.963Z</time></trkpt><trkpt lat="42.827407741230125" lon="12.225292183935467"><ele>690.3333333333334</ele><time>2026-04-12T14:27:33.963Z</time></trkpt><trkpt lat="42.827433449358416" lon="12.225164888190667"><ele>691.0</ele><time>2026-04-12T14:27:34.963Z</time></trkpt><trkpt lat="42.82745436149538" lon="12.225048844304013"><ele>690.9999999999999</ele><time>2026-04-12T14:27:35.963Z</time></trkpt><trkpt lat="42.827450704951424" lon="12.224949542057436"><ele>691.0</ele><time>2026-04-12T14:27:36.963Z</time></trkpt><trkpt lat="42.82743290909428" lon="12.224857337783606"><ele>691.0</ele><time>2026-04-12T14:27:37.963Z</time></trkpt><trkpt lat="42.827403875389614" lon="12.224780741923432"><ele>691.0</ele><time>2026-04-12T14:27:38.963Z</time></trkpt><trkpt lat="42.82736604396113" lon="12.224711100373753"><ele>691.0</ele><time>2026-04-12T14:27:39.963Z</time></trkpt><trkpt lat="42.8273525946773" lon="12.224584743491203"><ele>690.9999999999999</ele><time>2026-04-12T14:27:41.963Z</time></trkpt><trkpt lat="42.82738157213885" lon="12.224506435341784"><ele>691.0</ele><time>2026-04-12T14:27:42.963Z</time></trkpt><trkpt lat="42.82743160669659" lon="12.224436827389331"><ele>692.1999999999999</ele><time>2026-04-12T14:27:43.963Z</time></trkpt><trkpt lat="42.82748827365753" lon="12.22439707215436"><ele>693.4</ele><time>2026-04-12T14:27:44.963Z</time></trkpt><trkpt lat="42.82760093303071" lon="12.224377408850032"><ele>694.6</ele><time>2026-04-12T14:27:46.963Z</time></trkpt><trkpt lat="42.827725408308474" lon="12.224388936618588"><ele>695.8</ele><time>2026-04-12T14:27:48.963Z</time></trkpt><trkpt lat="42.82781157551005" lon="12.224389344612213"><ele>697.0</ele><time>2026-04-12T14:27:49.963Z</time></trkpt><trkpt lat="42.827913135653745" lon="12.224379683204443"><ele>697.0</ele><time>2026-04-12T14:27:50.963Z</time></trkpt><trkpt lat="42.828013601244535" lon="12.224369473867657"><ele>697.0</ele><time>2026-04-12T14:27:51.963Z</time></trkpt><trkpt lat="42.82810884961613" lon="12.224354387810832"><ele>697.0</ele><time>2026-04-12T14:27:52.963Z</time></trkpt><trkpt lat="42.828196735836435" lon="12.224329404411582"><ele>697.0</ele><time>2026-04-12T14:27:53.963Z</time></trkpt><trkpt lat="42.8282781523677" lon="12.224292265250172"><ele>697.0</ele><time>2026-04-12T14:27:54.963Z</time></trkpt><trkpt lat="42.828359030873365" lon="12.224244877112476"><ele>697.0</ele><time>2026-04-12T14:27:55.962Z</time></trkpt><trkpt lat="42.82844316876952" lon="12.224185941426613"><ele>697.0</ele><time>2026-04-12T14:27:56.962Z</time></trkpt><trkpt lat="42.82853105802894" lon="12.224118012289438"><ele>697.0</ele><time>2026-04-12T14:27:57.962Z</time></trkpt><trkpt lat="42.82861162578361" lon="12.224051358815183"><ele>697.0</ele><time>2026-04-12T14:27:58.962Z</time></trkpt><trkpt lat="42.82867602523046" lon="12.223995079275923"><ele>697.0</ele><time>2026-04-12T14:27:59.962Z</time></trkpt><trkpt lat="42.82878408280489" lon="12.223933293979464"><ele>697.1666666666667</ele><time>2026-04-12T14:28:01.962Z</time></trkpt><trkpt lat="42.82885175260572" lon="12.22390078959191"><ele>697.3333333333334</ele><time>2026-04-12T14:28:02.962Z</time></trkpt><trkpt lat="42.82892627597682" lon="12.223843025196123"><ele>697.5</ele><time>2026-04-12T14:28:03.962Z</time></trkpt><trkpt lat="42.828984328148145" lon="12.223766117919476"><ele>697.6666666666666</ele><time>2026-04-12T14:28:04.962Z</time></trkpt><trkpt lat="42.82902722673032" lon="12.223665640752419"><ele>697.8333333333333</ele><time>2026-04-12T14:28:05.962Z</time></trkpt><trkpt lat="42.829068179675076" lon="12.223555560827482"><ele>698.0</ele><time>2026-04-12T14:28:06.962Z</time></trkpt><trkpt lat="42.829115329431616" lon="12.22346542603634"><ele>698.0</ele><time>2026-04-12T14:28:07.962Z</time></trkpt><trkpt lat="42.829215257637486" lon="12.223399073538296"><ele>698.0</ele><time>2026-04-12T14:28:09.962Z</time></trkpt><trkpt lat="42.82930747151272" lon="12.22340131405724"><ele>698.0</ele><time>2026-04-12T14:28:11.962Z</time></trkpt><trkpt lat="42.82941060519656" lon="12.223416463578411"><ele>698.0</ele><time>2026-04-12T14:28:13.962Z</time></trkpt><trkpt lat="42.82948355998147" lon="12.22342501091355"><ele>698.0</ele><time>2026-04-12T14:28:14.962Z</time></trkpt><trkpt lat="42.82955925942291" lon="12.22341417659418"><ele>698.8</ele><time>2026-04-12T14:28:15.962Z</time></trkpt><trkpt lat="42.82963360585873" lon="12.223366755083545"><ele>699.5999999999999</ele><time>2026-04-12T14:28:16.962Z</time></trkpt><trkpt lat="42.82971664863345" lon="12.22329459545932"><ele>700.4000000000001</ele><time>2026-04-12T14:28:17.962Z</time></trkpt><trkpt lat="42.82980325610425" lon="12.22322000956826"><ele>701.2</ele><time>2026-04-12T14:28:18.962Z</time></trkpt><trkpt lat="42.8298870525632" lon="12.22315358062136"><ele>702.0</ele><time>2026-04-12T14:28:19.962Z</time></trkpt><trkpt lat="42.82995209008803" lon="12.223116495060923"><ele>702.0</ele><time>2026-04-12T14:28:20.964Z</time></trkpt><trkpt lat="42.83005863915635" lon="12.223097556674318"><ele>702.0</ele><time>2026-04-12T14:28:22.964Z</time></trkpt><trkpt lat="42.83017269598941" lon="12.223137792355498"><ele>702.0</ele><time>2026-04-12T14:28:24.965Z</time></trkpt><trkpt lat="42.83024895336757" lon="12.223192434094756"><ele>702.0</ele><time>2026-04-12T14:28:25.964Z</time></trkpt><trkpt lat="42.830323853611176" lon="12.223227381419548"><ele>702.0</ele><time>2026-04-12T14:28:26.965Z</time></trkpt><trkpt lat="42.83039542353063" lon="12.223221499583588"><ele>699.3333333333334</ele><time>2026-04-12T14:28:27.964Z</time></trkpt><trkpt lat="42.830517585047296" lon="12.223118306293776"><ele>696.6666666666666</ele><time>2026-04-12T14:28:29.964Z</time></trkpt><trkpt lat="42.830583279178256" lon="12.223058521049452"><ele>694.0</ele><time>2026-04-12T14:28:30.964Z</time></trkpt><trkpt lat="42.83064700457936" lon="12.223002858712869"><ele>691.3333333333333</ele><time>2026-04-12T14:28:31.964Z</time></trkpt><trkpt lat="42.830707279072634" lon="12.222961515583679"><ele>688.6666666666666</ele><time>2026-04-12T14:28:32.964Z</time></trkpt><trkpt lat="42.830772156334945" lon="12.222927527697458"><ele>686.0</ele><time>2026-04-12T14:28:33.964Z</time></trkpt><trkpt lat="42.83088674844911" lon="12.2229447943747"><ele>685.0</ele><time>2026-04-12T14:28:35.964Z</time></trkpt><trkpt lat="42.83100083839831" lon="12.223040404386122"><ele>684.0</ele><time>2026-04-12T14:28:37.964Z</time></trkpt><trkpt lat="42.83106513112028" lon="12.223120371268148"><ele>683.0</ele><time>2026-04-12T14:28:38.964Z</time></trkpt><trkpt lat="42.83113733137212" lon="12.223212599895733"><ele>682.0</ele><time>2026-04-12T14:28:39.964Z</time></trkpt><trkpt lat="42.831220662864894" lon="12.223312608949497"><ele>681.0</ele><time>2026-04-12T14:28:40.964Z</time></trkpt><trkpt lat="42.83132794579385" lon="12.22338890796676"><ele>683.75</ele><time>2026-04-12T14:28:41.963Z</time></trkpt><trkpt lat="42.83144107281997" lon="12.223446522559334"><ele>686.5</ele><time>2026-04-12T14:28:42.963Z</time></trkpt><trkpt lat="42.83156504445305" lon="12.223492398880605"><ele>689.25</ele><time>2026-04-12T14:28:43.963Z</time></trkpt><trkpt lat="42.83168073412984" lon="12.223537658369702"><ele>692.0</ele><time>2026-04-12T14:28:44.963Z</time></trkpt><trkpt lat="42.831779789930124" lon="12.223582122244999"><ele>693.2</ele><time>2026-04-12T14:28:45.963Z</time></trkpt><trkpt lat="42.83187179294297" lon="12.223616056099916"><ele>694.4000000000001</ele><time>2026-04-12T14:28:46.963Z</time></trkpt><trkpt lat="42.83196753014307" lon="12.223634585851704"><ele>695.5999999999999</ele><time>2026-04-12T14:28:47.963Z</time></trkpt><trkpt lat="42.8320587796531" lon="12.223618058862314"><ele>696.8</ele><time>2026-04-12T14:28:48.963Z</time></trkpt><trkpt lat="42.83214357719561" lon="12.223561887073197"><ele>698.0</ele><time>2026-04-12T14:28:49.963Z</time></trkpt><trkpt lat="42.83222879852718" lon="12.223480087327683"><ele>698.0</ele><time>2026-04-12T14:28:50.963Z</time></trkpt><trkpt lat="42.832304575125214" lon="12.223370185372495"><ele>698.0</ele><time>2026-04-12T14:28:51.963Z</time></trkpt><trkpt lat="42.832380242484305" lon="12.22326436235677"><ele>698.0</ele><time>2026-04-12T14:28:52.963Z</time></trkpt><trkpt lat="42.832455191381406" lon="12.223190726677384"><ele>698.0</ele><time>2026-04-12T14:28:53.963Z</time></trkpt><trkpt lat="42.832533493758774" lon="12.223138391449913"><ele>698.0</ele><time>2026-04-12T14:28:54.963Z</time></trkpt><trkpt lat="42.83261624971017" lon="12.223106425713848"><ele>698.9999999999999</ele><time>2026-04-12T14:28:55.963Z</time></trkpt><trkpt lat="42.8326937792847" lon="12.223058822193527"><ele>700.0</ele><time>2026-04-12T14:28:56.963Z</time></trkpt><trkpt lat="42.83275400613879" lon="12.223004136972742"><ele>701.0</ele><time>2026-04-12T14:28:57.963Z</time></trkpt><trkpt lat="42.83280411156387" lon="12.222946833839313"><ele>702.0</ele><time>2026-04-12T14:28:58.963Z</time></trkpt><trkpt lat="42.832855149464955" lon="12.222890472536845"><ele>703.0</ele><time>2026-04-12T14:28:59.963Z</time></trkpt><trkpt lat="42.83290981439636" lon="12.22283502365217"><ele>703.9999999999999</ele><time>2026-04-12T14:29:00.963Z</time></trkpt><trkpt lat="42.83298672263102" lon="12.22277235700032"><ele>705.0</ele><time>2026-04-12T14:29:01.963Z</time></trkpt><trkpt lat="42.83307100622797" lon="12.222716188702966"><ele>705.0</ele><time>2026-04-12T14:29:02.963Z</time></trkpt><trkpt lat="42.833153783088825" lon="12.222673918001888"><ele>705.0</ele><time>2026-04-12T14:29:03.963Z</time></trkpt><trkpt lat="42.83322058491637" lon="12.222632663341766"><ele>705.0</ele><time>2026-04-12T14:29:04.963Z</time></trkpt><trkpt lat="42.83330890734846" lon="12.222519562824807"><ele>705.0</ele><time>2026-04-12T14:29:06.963Z</time></trkpt><trkpt lat="42.83334584465234" lon="12.222449887074813"><ele>705.0</ele><time>2026-04-12T14:29:07.963Z</time></trkpt><trkpt lat="42.83336915897956" lon="12.22235407272437"><ele>705.0</ele><time>2026-04-12T14:29:08.963Z</time></trkpt><trkpt lat="42.83338431214983" lon="12.222258378245659"><ele>704.8333333333334</ele><time>2026-04-12T14:29:09.963Z</time></trkpt><trkpt lat="42.83338311925673" lon="12.222164001596484"><ele>704.6666666666666</ele><time>2026-04-12T14:29:10.963Z</time></trkpt><trkpt lat="42.833379925543625" lon="12.222054739624141"><ele>704.5</ele><time>2026-04-12T14:29:11.963Z</time></trkpt><trkpt lat="42.833361507959694" lon="12.221936172893244"><ele>704.3333333333333</ele><time>2026-04-12T14:29:12.963Z</time></trkpt><trkpt lat="42.833344815948216" lon="12.22182084577658"><ele>704.1666666666666</ele><time>2026-04-12T14:29:13.963Z</time></trkpt><trkpt lat="42.83332107818483" lon="12.221703812652224"><ele>704.0</ele><time>2026-04-12T14:29:14.963Z</time></trkpt><trkpt lat="42.83329428850522" lon="12.22159407887742"><ele>704.0</ele><time>2026-04-12T14:29:15.963Z</time></trkpt><trkpt lat="42.833249533200586" lon="12.221491693146938"><ele>704.0</ele><time>2026-04-12T14:29:16.962Z</time></trkpt><trkpt lat="42.83319030915859" lon="12.221380097210616"><ele>704.0</ele><time>2026-04-12T14:29:17.962Z</time></trkpt><trkpt lat="42.83312935485109" lon="12.221273213938336"><ele>704.0</ele><time>2026-04-12T14:29:18.962Z</time></trkpt><trkpt lat="42.83308002127424" lon="12.22117132661998"><ele>704.0</ele><time>2026-04-12T14:29:19.962Z</time></trkpt><trkpt lat="42.833046068548754" lon="12.221078217840732"><ele>705.0</ele><time>2026-04-12T14:29:20.962Z</time></trkpt><trkpt lat="42.83303626100222" lon="12.220988910429458"><ele>706.0</ele><time>2026-04-12T14:29:21.962Z</time></trkpt><trkpt lat="42.83303479530657" lon="12.220890557991524"><ele>707.0</ele><time>2026-04-12T14:29:22.962Z</time></trkpt><trkpt lat="42.833055243026685" lon="12.220791567193364"><ele>708.0</ele><time>2026-04-12T14:29:23.962Z</time></trkpt><trkpt lat="42.833080262243456" lon="12.220684979791"><ele>709.0</ele><time>2026-04-12T14:29:24.962Z</time></trkpt><trkpt lat="42.83310011112975" lon="12.220569507492126"><ele>710.0</ele><time>2026-04-12T14:29:25.962Z</time></trkpt><trkpt lat="42.833094939678475" lon="12.220463379233237"><ele>710.0</ele><time>2026-04-12T14:29:26.962Z</time></trkpt><trkpt lat="42.83308028667945" lon="12.220357305356218"><ele>710.0</ele><time>2026-04-12T14:29:27.962Z</time></trkpt><trkpt lat="42.83305320459732" lon="12.220260916022188"><ele>710.0</ele><time>2026-04-12T14:29:28.962Z</time></trkpt><trkpt lat="42.833019428815305" lon="12.220169002947792"><ele>710.0</ele><time>2026-04-12T14:29:29.962Z</time></trkpt><trkpt lat="42.83298553379022" lon="12.220074503974601"><ele>710.0</ele><time>2026-04-12T14:29:30.962Z</time></trkpt><trkpt lat="42.83296107344903" lon="12.219987940245781"><ele>710.0</ele><time>2026-04-12T14:29:31.962Z</time></trkpt><trkpt lat="42.83294616295921" lon="12.219827429076021"><ele>707.6</ele><time>2026-04-12T14:29:33.962Z</time></trkpt><trkpt lat="42.83299264898513" lon="12.21970468892735"><ele>705.2</ele><time>2026-04-12T14:29:35.962Z</time></trkpt><trkpt lat="42.83307407593524" lon="12.21962871592623"><ele>702.8</ele><time>2026-04-12T14:29:37.962Z</time></trkpt><trkpt lat="42.8331773842305" lon="12.219572615178725"><ele>700.4</ele><time>2026-04-12T14:29:39.962Z</time></trkpt><trkpt lat="42.83329494293315" lon="12.219563093778428"><ele>698.0</ele><time>2026-04-12T14:29:41.962Z</time></trkpt><trkpt lat="42.83336662263299" lon="12.219555381714622"><ele>697.9999999999999</ele><time>2026-04-12T14:29:42.962Z</time></trkpt><trkpt lat="42.833430540862736" lon="12.219543767225003"><ele>698.0</ele><time>2026-04-12T14:29:43.962Z</time></trkpt><trkpt lat="42.83351239327517" lon="12.21945081344348"><ele>698.0</ele><time>2026-04-12T14:29:45.962Z</time></trkpt><trkpt lat="42.83352896787223" lon="12.219365641004666"><ele>698.0</ele><time>2026-04-12T14:29:46.962Z</time></trkpt><trkpt lat="42.83353059963106" lon="12.219274649432162"><ele>698.0</ele><time>2026-04-12T14:29:47.962Z</time></trkpt><trkpt lat="42.83351837378597" lon="12.219177416010767"><ele>697.9999999999999</ele><time>2026-04-12T14:29:48.962Z</time></trkpt><trkpt lat="42.83350054662911" lon="12.219083582225743"><ele>698.0</ele><time>2026-04-12T14:29:49.962Z</time></trkpt><trkpt lat="42.83348083716106" lon="12.21898451495115"><ele>697.8</ele><time>2026-04-12T14:29:50.962Z</time></trkpt><trkpt lat="42.83346786779641" lon="12.218877388715988"><ele>697.5999999999999</ele><time>2026-04-12T14:29:51.961Z</time></trkpt><trkpt lat="42.83345874153154" lon="12.218773193979922"><ele>697.4000000000001</ele><time>2026-04-12T14:29:52.961Z</time></trkpt><trkpt lat="42.83346206110748" lon="12.218621818443692"><ele>697.2</ele><time>2026-04-12T14:29:54.961Z</time></trkpt><trkpt lat="42.833484873863455" lon="12.218485842585089"><ele>697.0</ele><time>2026-04-12T14:29:56.961Z</time></trkpt><trkpt lat="42.8335513475271" lon="12.218354597915873"><ele>698.4285714285714</ele><time>2026-04-12T14:29:58.961Z</time></trkpt><trkpt lat="42.83359838239409" lon="12.21829576680959"><ele>699.8571428571429</ele><time>2026-04-12T14:29:59.961Z</time></trkpt><trkpt lat="42.83365428783266" lon="12.218232696192963"><ele>701.2857142857142</ele><time>2026-04-12T14:30:00.961Z</time></trkpt><trkpt lat="42.83371078434952" lon="12.218170662236394"><ele>702.7142857142858</ele><time>2026-04-12T14:30:01.961Z</time></trkpt><trkpt lat="42.83377115733915" lon="12.218109219779691"><ele>704.1428571428571</ele><time>2026-04-12T14:30:02.961Z</time></trkpt><trkpt lat="42.8338316264012" lon="12.218059545644515"><ele>705.5714285714286</ele><time>2026-04-12T14:30:03.961Z</time></trkpt><trkpt lat="42.833890045349285" lon="12.218005579481787"><ele>707.0</ele><time>2026-04-12T14:30:04.961Z</time></trkpt><trkpt lat="42.83397480092139" lon="12.217896685758573"><ele>707.0</ele><time>2026-04-12T14:30:06.961Z</time></trkpt><trkpt lat="42.834045550018914" lon="12.217802453558221"><ele>707.0</ele><time>2026-04-12T14:30:08.961Z</time></trkpt><trkpt lat="42.834101733264504" lon="12.217734386931161"><ele>707.0</ele><time>2026-04-12T14:30:10.961Z</time></trkpt><trkpt lat="42.83415434712076" lon="12.21766656947193"><ele>707.0</ele><time>2026-04-12T14:30:12.961Z</time></trkpt><trkpt lat="42.83420437765461" lon="12.217598251299197"><ele>707.0</ele><time>2026-04-12T14:30:15.961Z</time></trkpt><trkpt lat="42.8342637116877" lon="12.217558071869128"><ele>707.0</ele><time>2026-04-12T14:30:51.963Z</time></trkpt><trkpt lat="42.83425152331915" lon="12.217457987006114"><ele>707.0</ele><time>2026-04-12T14:30:53.963Z</time></trkpt><trkpt lat="42.83420702456627" lon="12.217362141245868"><ele>707.0</ele><time>2026-04-12T14:30:55.963Z</time></trkpt><trkpt lat="42.83414596252599" lon="12.217220230638818"><ele>707.0</ele><time>2026-04-12T14:30:57.963Z</time></trkpt><trkpt lat="42.83407343532743" lon="12.217123091173029"><ele>707.0</ele><time>2026-04-12T14:30:58.963Z</time></trkpt><trkpt lat="42.834014840639036" lon="12.216999812141669"><ele>707.0</ele><time>2026-04-12T14:30:59.963Z</time></trkpt><trkpt lat="42.83395223769678" lon="12.216879306519528"><ele>706.6</ele><time>2026-04-12T14:31:00.963Z</time></trkpt><trkpt lat="42.833910850700626" lon="12.216751874952717"><ele>706.2</ele><time>2026-04-12T14:31:01.963Z</time></trkpt><trkpt lat="42.83385579858679" lon="12.216630322093076"><ele>705.8</ele><time>2026-04-12T14:31:02.963Z</time></trkpt><trkpt lat="42.83379804813928" lon="12.216522906407734"><ele>705.4</ele><time>2026-04-12T14:31:03.963Z</time></trkpt><trkpt lat="42.833733670650645" lon="12.216426224559893"><ele>705.0</ele><time>2026-04-12T14:31:04.963Z</time></trkpt><trkpt lat="42.83366552490749" lon="12.216336153576291"><ele>702.8</ele><time>2026-04-12T14:31:05.963Z</time></trkpt><trkpt lat="42.83358896203868" lon="12.216248611197132"><ele>700.6</ele><time>2026-04-12T14:31:06.963Z</time></trkpt><trkpt lat="42.833518725263275" lon="12.216156639665824"><ele>698.4000000000001</ele><time>2026-04-12T14:31:07.963Z</time></trkpt><trkpt lat="42.833441642085205" lon="12.216071272801255"><ele>696.2</ele><time>2026-04-12T14:31:08.963Z</time></trkpt><trkpt lat="42.83339312432656" lon="12.21596010314624"><ele>694.0</ele><time>2026-04-12T14:31:09.963Z</time></trkpt><trkpt lat="42.833350931267205" lon="12.21583415214895"><ele>696.6666666666667</ele><time>2026-04-12T14:31:10.962Z</time></trkpt><trkpt lat="42.833310450253805" lon="12.215715566445363"><ele>699.3333333333334</ele><time>2026-04-12T14:31:11.962Z</time></trkpt><trkpt lat="42.833268580421006" lon="12.215611787333774"><ele>702.0</ele><time>2026-04-12T14:31:12.962Z</time></trkpt><trkpt lat="42.83323786005282" lon="12.215501282821199"><ele>704.6666666666666</ele><time>2026-04-12T14:31:13.962Z</time></trkpt><trkpt lat="42.83320666201038" lon="12.215395093891091"><ele>707.3333333333333</ele><time>2026-04-12T14:31:14.962Z</time></trkpt><trkpt lat="42.833177140451674" lon="12.215280940544972"><ele>710.0</ele><time>2026-04-12T14:31:15.962Z</time></trkpt><trkpt lat="42.83312540484398" lon="12.215196683007074"><ele>710.0</ele><time>2026-04-12T14:31:16.962Z</time></trkpt><trkpt lat="42.8330710529541" lon="12.215141966903442"><ele>710.0</ele><time>2026-04-12T14:31:17.962Z</time></trkpt><trkpt lat="42.83300644104542" lon="12.21509488194118"><ele>710.0</ele><time>2026-04-12T14:31:18.962Z</time></trkpt><trkpt lat="42.832934641507855" lon="12.215061178497734"><ele>710.0</ele><time>2026-04-12T14:31:19.962Z</time></trkpt><trkpt lat="42.832855295792996" lon="12.215029911458023"><ele>710.0</ele><time>2026-04-12T14:31:20.962Z</time></trkpt><trkpt lat="42.83276402362971" lon="12.21500194807256"><ele>710.0</ele><time>2026-04-12T14:31:21.962Z</time></trkpt><trkpt lat="42.832655511126504" lon="12.214982610148345"><ele>713.6666666666666</ele><time>2026-04-12T14:31:22.962Z</time></trkpt><trkpt lat="42.83250408379043" lon="12.214981390972687"><ele>717.3333333333334</ele><time>2026-04-12T14:31:23.962Z</time></trkpt><trkpt lat="42.83234306216384" lon="12.214992291626864"><ele>721.0</ele><time>2026-04-12T14:31:24.962Z</time></trkpt><trkpt lat="42.83219549766679" lon="12.215003878705796"><ele>721.0</ele><time>2026-04-12T14:31:25.962Z</time></trkpt><trkpt lat="42.83205450036428" lon="12.214993429835431"><ele>721.0</ele><time>2026-04-12T14:31:26.962Z</time></trkpt><trkpt lat="42.83193198249377" lon="12.214964107701006"><ele>721.0</ele><time>2026-04-12T14:31:27.962Z</time></trkpt><trkpt lat="42.831825165241774" lon="12.214908067648228"><ele>721.0</ele><time>2026-04-12T14:31:28.962Z</time></trkpt><trkpt lat="42.83173826054594" lon="12.214825407503833"><ele>722.0</ele><time>2026-04-12T14:31:29.962Z</time></trkpt><trkpt lat="42.83168454202044" lon="12.214706728700062"><ele>723.0</ele><time>2026-04-12T14:31:30.962Z</time></trkpt><trkpt lat="42.83164600814194" lon="12.214571195898547"><ele>724.0</ele><time>2026-04-12T14:31:31.962Z</time></trkpt><trkpt lat="42.83158936066932" lon="12.214433238624679"><ele>725.0</ele><time>2026-04-12T14:31:32.962Z</time></trkpt><trkpt lat="42.831511702284104" lon="12.214308942907955"><ele>726.0</ele><time>2026-04-12T14:31:33.962Z</time></trkpt><trkpt lat="42.83138680660635" lon="12.214246452384439"><ele>726.0</ele><time>2026-04-12T14:31:34.962Z</time></trkpt><trkpt lat="42.831254096754755" lon="12.214193980083257"><ele>726.0</ele><time>2026-04-12T14:31:35.962Z</time></trkpt><trkpt lat="42.831102625851535" lon="12.21417428312685"><ele>726.0</ele><time>2026-04-12T14:31:36.962Z</time></trkpt><trkpt lat="42.83094496336656" lon="12.214178231052866"><ele>726.0</ele><time>2026-04-12T14:31:37.962Z</time></trkpt><trkpt lat="42.830802641201295" lon="12.214162813220165"><ele>729.75</ele><time>2026-04-12T14:31:38.962Z</time></trkpt><trkpt lat="42.83066827205782" lon="12.214188529933967"><ele>733.5</ele><time>2026-04-12T14:31:39.962Z</time></trkpt><trkpt lat="42.830530437147175" lon="12.21416897139418"><ele>737.25</ele><time>2026-04-12T14:31:40.962Z</time></trkpt><trkpt lat="42.83040203796503" lon="12.214115965487597"><ele>741.0</ele><time>2026-04-12T14:31:41.962Z</time></trkpt><trkpt lat="42.83028698624192" lon="12.21401016649058"><ele>741.25</ele><time>2026-04-12T14:31:42.962Z</time></trkpt><trkpt lat="42.83018638727339" lon="12.213880770974784"><ele>741.5</ele><time>2026-04-12T14:31:43.962Z</time></trkpt><trkpt lat="42.830090595215424" lon="12.213724662072325"><ele>741.75</ele><time>2026-04-12T14:31:44.962Z</time></trkpt><trkpt lat="42.829984881462856" lon="12.213571174955106"><ele>742.0</ele><time>2026-04-12T14:31:45.961Z</time></trkpt><trkpt lat="42.82988838258329" lon="12.21341795092892"><ele>742.0</ele><time>2026-04-12T14:31:46.961Z</time></trkpt><trkpt lat="42.82975838906977" lon="12.213313194923478"><ele>742.0</ele><time>2026-04-12T14:31:47.961Z</time></trkpt><trkpt lat="42.82961874466854" lon="12.213244213752667"><ele>742.0</ele><time>2026-04-12T14:31:48.961Z</time></trkpt><trkpt lat="42.829488953853414" lon="12.213164389703795"><ele>742.0</ele><time>2026-04-12T14:31:49.961Z</time></trkpt><trkpt lat="42.82937907591455" lon="12.213077133336707"><ele>743.1666666666667</ele><time>2026-04-12T14:31:50.961Z</time></trkpt><trkpt lat="42.829291091171754" lon="12.21297206529818"><ele>744.3333333333334</ele><time>2026-04-12T14:31:51.961Z</time></trkpt><trkpt lat="42.82924009346687" lon="12.212885536129516"><ele>745.5</ele><time>2026-04-12T14:31:52.961Z</time></trkpt><trkpt lat="42.82920821363004" lon="12.212808684263539"><ele>746.6666666666666</ele><time>2026-04-12T14:31:53.961Z</time></trkpt><trkpt lat="42.829166980350365" lon="12.212727615431861"><ele>747.8333333333333</ele><time>2026-04-12T14:31:54.961Z</time></trkpt><trkpt lat="42.829115437015915" lon="12.212636029721006"><ele>749.0</ele><time>2026-04-12T14:31:55.961Z</time></trkpt><trkpt lat="42.82904731660872" lon="12.212544310589847"><ele>749.0</ele><time>2026-04-12T14:31:56.961Z</time></trkpt><trkpt lat="42.82896802456221" lon="12.212464820292192"><ele>749.0</ele><time>2026-04-12T14:31:57.961Z</time></trkpt><trkpt lat="42.82888060087224" lon="12.212385188875"><ele>749.0</ele><time>2026-04-12T14:31:58.961Z</time></trkpt><trkpt lat="42.82880441961784" lon="12.212290379777379"><ele>749.0</ele><time>2026-04-12T14:31:59.961Z</time></trkpt><trkpt lat="42.8287520424614" lon="12.212179428710101"><ele>749.0</ele><time>2026-04-12T14:32:00.961Z</time></trkpt><trkpt lat="42.82871774589777" lon="12.212063672034901"><ele>749.5</ele><time>2026-04-12T14:32:01.961Z</time></trkpt><trkpt lat="42.82869680102201" lon="12.211949694722867"><ele>750.0</ele><time>2026-04-12T14:32:02.961Z</time></trkpt><trkpt lat="42.82865679817828" lon="12.211859210427315"><ele>750.5</ele><time>2026-04-12T14:32:03.961Z</time></trkpt><trkpt lat="42.828606734775356" lon="12.211772770756092"><ele>751.0</ele><time>2026-04-12T14:32:04.961Z</time></trkpt><trkpt lat="42.82852254718268" lon="12.211749491588831"><ele>751.5</ele><time>2026-04-12T14:32:05.961Z</time></trkpt><trkpt lat="42.82843072384068" lon="12.211793172800057"><ele>752.0</ele><time>2026-04-12T14:32:06.961Z</time></trkpt><trkpt lat="42.82836483769558" lon="12.211917835083074"><ele>752.0</ele><time>2026-04-12T14:32:07.961Z</time></trkpt><trkpt lat="42.82833981534806" lon="12.212063336093118"><ele>752.0</ele><time>2026-04-12T14:32:08.961Z</time></trkpt><trkpt lat="42.82831991621508" lon="12.212196212094781"><ele>752.0</ele><time>2026-04-12T14:32:09.961Z</time></trkpt><trkpt lat="42.82828388730125" lon="12.212309624661387"><ele>752.0</ele><time>2026-04-12T14:32:10.961Z</time></trkpt><trkpt lat="42.82823292239647" lon="12.212376701430841"><ele>752.0</ele><time>2026-04-12T14:32:11.961Z</time></trkpt><trkpt lat="42.828158152418894" lon="12.21240801599992"><ele>752.0</ele><time>2026-04-12T14:32:12.961Z</time></trkpt><trkpt lat="42.82806130070229" lon="12.212438333380474"><ele>753.6</ele><time>2026-04-12T14:32:13.961Z</time></trkpt><trkpt lat="42.82795011953753" lon="12.212467416783127"><ele>755.2</ele><time>2026-04-12T14:32:14.961Z</time></trkpt><trkpt lat="42.827840107490935" lon="12.212500056703876"><ele>756.8</ele><time>2026-04-12T14:32:15.961Z</time></trkpt><trkpt lat="42.827740726523075" lon="12.212566505977852"><ele>758.4</ele><time>2026-04-12T14:32:16.961Z</time></trkpt><trkpt lat="42.82767465433639" lon="12.212675588088524"><ele>760.0</ele><time>2026-04-12T14:32:17.961Z</time></trkpt><trkpt lat="42.827641685674074" lon="12.212832379988662"><ele>760.0</ele><time>2026-04-12T14:32:18.961Z</time></trkpt><trkpt lat="42.82764756247944" lon="12.21301315398075"><ele>760.0</ele><time>2026-04-12T14:32:19.961Z</time></trkpt><trkpt lat="42.82768675953295" lon="12.213193072300339"><ele>760.0</ele><time>2026-04-12T14:32:20.96Z</time></trkpt><trkpt lat="42.82772644140351" lon="12.213342416680883"><ele>760.0</ele><time>2026-04-12T14:32:21.96Z</time></trkpt><trkpt lat="42.82774424426526" lon="12.213474910480603"><ele>759.2</ele><time>2026-04-12T14:32:22.96Z</time></trkpt><trkpt lat="42.82772520586298" lon="12.213593788941141"><ele>758.4</ele><time>2026-04-12T14:32:23.96Z</time></trkpt><trkpt lat="42.82767398717067" lon="12.213693710367872"><ele>757.5999999999999</ele><time>2026-04-12T14:32:24.96Z</time></trkpt><trkpt lat="42.82760039436514" lon="12.213770467129459"><ele>756.8</ele><time>2026-04-12T14:32:25.888Z</time></trkpt><trkpt lat="42.827466569582654" lon="12.213847800970274"><ele>756.0</ele><time>2026-04-12T14:32:26.888Z</time></trkpt><trkpt lat="42.827330283562674" lon="12.213853869595374"><ele>760.75</ele><time>2026-04-12T14:32:27.888Z</time></trkpt><trkpt lat="42.82721520394985" lon="12.213822100521345"><ele>765.5</ele><time>2026-04-12T14:32:28.888Z</time></trkpt><trkpt lat="42.82711960335336" lon="12.213753584224397"><ele>770.25</ele><time>2026-04-12T14:32:29.888Z</time></trkpt><trkpt lat="42.82703993356313" lon="12.213637164609032"><ele>775.0</ele><time>2026-04-12T14:32:30.888Z</time></trkpt><trkpt lat="42.82698006855142" lon="12.213511080066887"><ele>775.0</ele><time>2026-04-12T14:32:31.888Z</time></trkpt><trkpt lat="42.826929686689404" lon="12.213401216649059"><ele>775.0</ele><time>2026-04-12T14:32:32.89Z</time></trkpt><trkpt lat="42.826866120378746" lon="12.213299687062937"><ele>775.0</ele><time>2026-04-12T14:32:33.89Z</time></trkpt><trkpt lat="42.82676265948943" lon="12.213239631786983"><ele>775.0</ele><time>2026-04-12T14:32:34.89Z</time></trkpt><trkpt lat="42.826648254539705" lon="12.213254336701107"><ele>775.0</ele><time>2026-04-12T14:32:35.89Z</time></trkpt><trkpt lat="42.82654590176075" lon="12.213338824395011"><ele>777.0</ele><time>2026-04-12T14:32:36.89Z</time></trkpt><trkpt lat="42.82645933690522" lon="12.213444970037663"><ele>779.0</ele><time>2026-04-12T14:32:37.89Z</time></trkpt><trkpt lat="42.82636838456714" lon="12.213575309846101"><ele>781.0</ele><time>2026-04-12T14:32:38.891Z</time></trkpt><trkpt lat="42.826290405664885" lon="12.213690412915055"><ele>783.0</ele><time>2026-04-12T14:32:39.89Z</time></trkpt><trkpt lat="42.82622054539118" lon="12.213795755185444"><ele>783.0</ele><time>2026-04-12T14:32:40.89Z</time></trkpt><trkpt lat="42.82612341855481" lon="12.21388127257553"><ele>783.0</ele><time>2026-04-12T14:32:41.89Z</time></trkpt><trkpt lat="42.825989694705136" lon="12.213932930701986"><ele>783.0</ele><time>2026-04-12T14:32:42.89Z</time></trkpt><trkpt lat="42.82585612125148" lon="12.213901791880875"><ele>783.0</ele><time>2026-04-12T14:32:43.89Z</time></trkpt><trkpt lat="42.82572663432572" lon="12.213828714718233"><ele>786.75</ele><time>2026-04-12T14:32:44.891Z</time></trkpt><trkpt lat="42.82559849435635" lon="12.213728021700842"><ele>790.5</ele><time>2026-04-12T14:32:45.89Z</time></trkpt><trkpt lat="42.82547160945112" lon="12.213623379844401"><ele>794.25</ele><time>2026-04-12T14:32:46.89Z</time></trkpt><trkpt lat="42.82533401017297" lon="12.213555609234271"><ele>798.0</ele><time>2026-04-12T14:32:47.89Z</time></trkpt><trkpt lat="42.82518735810446" lon="12.213527214761372"><ele>798.75</ele><time>2026-04-12T14:32:48.89Z</time></trkpt><trkpt lat="42.825033794976676" lon="12.21355382726375"><ele>799.5</ele><time>2026-04-12T14:32:49.89Z</time></trkpt><trkpt lat="42.82490868673018" lon="12.213634677927477"><ele>800.25</ele><time>2026-04-12T14:32:50.89Z</time></trkpt><trkpt lat="42.82480087047573" lon="12.213717945762214"><ele>801.0</ele><time>2026-04-12T14:32:51.89Z</time></trkpt><trkpt lat="42.82469461111285" lon="12.213788810522795"><ele>801.0</ele><time>2026-04-12T14:32:52.89Z</time></trkpt><trkpt lat="42.82458019236514" lon="12.213777357711537"><ele>801.0</ele><time>2026-04-12T14:32:53.89Z</time></trkpt><trkpt lat="42.8244742985679" lon="12.213723106628851"><ele>801.0</ele><time>2026-04-12T14:32:54.89Z</time></trkpt><trkpt lat="42.82438372799403" lon="12.213615934039753"><ele>801.0</ele><time>2026-04-12T14:32:55.89Z</time></trkpt><trkpt lat="42.82429341419969" lon="12.213466783277969"><ele>801.6666666666667</ele><time>2026-04-12T14:32:56.89Z</time></trkpt><trkpt lat="42.824198373281966" lon="12.213301747260589"><ele>802.3333333333334</ele><time>2026-04-12T14:32:57.89Z</time></trkpt><trkpt lat="42.824091323367945" lon="12.21314041581399"><ele>803.0</ele><time>2026-04-12T14:32:58.89Z</time></trkpt><trkpt lat="42.82395795410126" lon="12.213003344192092"><ele>803.0</ele><time>2026-04-12T14:32:59.89Z</time></trkpt><trkpt lat="42.8238211316513" lon="12.212899130252676"><ele>803.0</ele><time>2026-04-12T14:33:00.89Z</time></trkpt><trkpt lat="42.82368929146688" lon="12.21279202240899"><ele>803.0</ele><time>2026-04-12T14:33:01.89Z</time></trkpt><trkpt lat="42.823578657858086" lon="12.212677012062114"><ele>803.0</ele><time>2026-04-12T14:33:02.89Z</time></trkpt><trkpt lat="42.823487611974336" lon="12.212529224895162"><ele>802.25</ele><time>2026-04-12T14:33:03.89Z</time></trkpt><trkpt lat="42.82341844580413" lon="12.212364584646785"><ele>801.5</ele><time>2026-04-12T14:33:04.89Z</time></trkpt><trkpt lat="42.82335271317161" lon="12.212200061979113"><ele>800.75</ele><time>2026-04-12T14:33:05.89Z</time></trkpt><trkpt lat="42.82328814482838" lon="12.212059801488891"><ele>800.0</ele><time>2026-04-12T14:33:06.89Z</time></trkpt><trkpt lat="42.82320469924809" lon="12.211939052351896"><ele>800.0</ele><time>2026-04-12T14:33:07.89Z</time></trkpt><trkpt lat="42.823099646625515" lon="12.211869593612441"><ele>800.0</ele><time>2026-04-12T14:33:08.89Z</time></trkpt><trkpt lat="42.822984463681635" lon="12.211862300562569"><ele>800.0</ele><time>2026-04-12T14:33:09.889Z</time></trkpt><trkpt lat="42.822853529871985" lon="12.211880588975998"><ele>800.0</ele><time>2026-04-12T14:33:10.889Z</time></trkpt><trkpt lat="42.82270851040546" lon="12.21192774778281"><ele>802.6666666666667</ele><time>2026-04-12T14:33:11.889Z</time></trkpt><trkpt lat="42.82256067745156" lon="12.211961790696888"><ele>805.3333333333333</ele><time>2026-04-12T14:33:12.889Z</time></trkpt><trkpt lat="42.822414321724516" lon="12.211983481344065"><ele>808.0</ele><time>2026-04-12T14:33:13.889Z</time></trkpt><trkpt lat="42.82225230280573" lon="12.212012194106055"><ele>808.0</ele><time>2026-04-12T14:33:14.889Z</time></trkpt><trkpt lat="42.82208593955852" lon="12.212058024714525"><ele>808.0</ele><time>2026-04-12T14:33:15.889Z</time></trkpt><trkpt lat="42.82191967698806" lon="12.212123380632036"><ele>808.0</ele><time>2026-04-12T14:33:16.889Z</time></trkpt><trkpt lat="42.8217569756885" lon="12.212208464296902"><ele>809.0</ele><time>2026-04-12T14:33:17.889Z</time></trkpt><trkpt lat="42.82159324488632" lon="12.21227721052977"><ele>810.0</ele><time>2026-04-12T14:33:18.889Z</time></trkpt><trkpt lat="42.82143706575692" lon="12.2123216252049"><ele>811.0</ele><time>2026-04-12T14:33:19.889Z</time></trkpt><trkpt lat="42.821286419792685" lon="12.212329808003688"><ele>811.0</ele><time>2026-04-12T14:33:20.889Z</time></trkpt><trkpt lat="42.82114058836434" lon="12.21231177874268"><ele>811.0</ele><time>2026-04-12T14:33:21.889Z</time></trkpt><trkpt lat="42.82099342995218" lon="12.212265948621981"><ele>811.0</ele><time>2026-04-12T14:33:22.889Z</time></trkpt><trkpt lat="42.820835994558706" lon="12.21219844334082"><ele>810.6666666666666</ele><time>2026-04-12T14:33:23.889Z</time></trkpt><trkpt lat="42.82067663422934" lon="12.212130398948643"><ele>810.3333333333333</ele><time>2026-04-12T14:33:24.889Z</time></trkpt><trkpt lat="42.82051907209395" lon="12.212038082802616"><ele>810.0</ele><time>2026-04-12T14:33:25.889Z</time></trkpt><trkpt lat="42.82036298578452" lon="12.211918912430203"><ele>810.0</ele><time>2026-04-12T14:33:26.889Z</time></trkpt><trkpt lat="42.82022849696693" lon="12.211795675825122"><ele>810.0</ele><time>2026-04-12T14:33:27.889Z</time></trkpt><trkpt lat="42.820099902439026" lon="12.211672797225992"><ele>810.0</ele><time>2026-04-12T14:33:28.889Z</time></trkpt><trkpt lat="42.8199881025568" lon="12.211569516853972"><ele>810.0</ele><time>2026-04-12T14:33:29.889Z</time></trkpt><trkpt lat="42.8198913071835" lon="12.211479438721385"><ele>810.0</ele><time>2026-04-12T14:33:30.889Z</time></trkpt><trkpt lat="42.81980751083794" lon="12.211410193210932"><ele>810.0</ele><time>2026-04-12T14:33:31.889Z</time></trkpt><trkpt lat="42.81972259108696" lon="12.211367445288532"><ele>810.0</ele><time>2026-04-12T14:33:32.889Z</time></trkpt><trkpt lat="42.819633680367225" lon="12.211332048139493"><ele>810.0</ele><time>2026-04-12T14:33:33.889Z</time></trkpt><trkpt lat="42.81953393060534" lon="12.211314950247699"><ele>810.0</ele><time>2026-04-12T14:33:34.889Z</time></trkpt><trkpt lat="42.819425307414654" lon="12.211322100881377"><ele>810.0</ele><time>2026-04-12T14:33:35.888Z</time></trkpt><trkpt lat="42.81929663200388" lon="12.211357277032702"><ele>810.0</ele><time>2026-04-12T14:33:36.888Z</time></trkpt><trkpt lat="42.81914697184847" lon="12.21142612976172"><ele>810.0</ele><time>2026-04-12T14:33:37.888Z</time></trkpt><trkpt lat="42.81899144989566" lon="12.211513962946757"><ele>805.6666666666667</ele><time>2026-04-12T14:33:38.888Z</time></trkpt><trkpt lat="42.81883736999275" lon="12.211604922472315"><ele>801.3333333333334</ele><time>2026-04-12T14:33:39.888Z</time></trkpt><trkpt lat="42.81869171794736" lon="12.211702856813577"><ele>797.0</ele><time>2026-04-12T14:33:40.888Z</time></trkpt><trkpt lat="42.81855895758999" lon="12.211804310412983"><ele>800.3333333333334</ele><time>2026-04-12T14:33:41.888Z</time></trkpt><trkpt lat="42.81842381408415" lon="12.211886831460971"><ele>803.6666666666667</ele><time>2026-04-12T14:33:42.888Z</time></trkpt><trkpt lat="42.81827565892127" lon="12.211942684237105"><ele>807.0</ele><time>2026-04-12T14:33:43.888Z</time></trkpt><trkpt lat="42.81811083324552" lon="12.211961980843888"><ele>807.0</ele><time>2026-04-12T14:33:44.888Z</time></trkpt><trkpt lat="42.81794941711472" lon="12.21197785794508"><ele>807.0</ele><time>2026-04-12T14:33:45.888Z</time></trkpt><trkpt lat="42.817813379043415" lon="12.21195762250198"><ele>807.0</ele><time>2026-04-12T14:33:46.888Z</time></trkpt><trkpt lat="42.81769038783099" lon="12.211935279748532"><ele>807.0</ele><time>2026-04-12T14:33:47.888Z</time></trkpt><trkpt lat="42.81757660385636" lon="12.211882673759126"><ele>805.8</ele><time>2026-04-12T14:33:48.888Z</time></trkpt><trkpt lat="42.81746986651609" lon="12.211809214098814"><ele>804.6</ele><time>2026-04-12T14:33:49.888Z</time></trkpt><trkpt lat="42.81736233091837" lon="12.211756896377022"><ele>803.4</ele><time>2026-04-12T14:33:50.888Z</time></trkpt><trkpt lat="42.81727437040011" lon="12.211715634282283"><ele>802.1999999999999</ele><time>2026-04-12T14:33:51.888Z</time></trkpt><trkpt lat="42.81720947510557" lon="12.211683553306973"><ele>801.0</ele><time>2026-04-12T14:33:52.888Z</time></trkpt><trkpt lat="42.81714976887859" lon="12.21162791350189"><ele>801.0</ele><time>2026-04-12T14:33:55.888Z</time></trkpt><trkpt lat="42.81712852666274" lon="12.211539378016015"><ele>801.0</ele><time>2026-04-12T14:33:57.888Z</time></trkpt><trkpt lat="42.81714620614961" lon="12.211393074506555"><ele>801.0</ele><time>2026-04-12T14:33:59.887Z</time></trkpt><trkpt lat="42.81712596616457" lon="12.21129580676839"><ele>801.0</ele><time>2026-04-12T14:34:00.887Z</time></trkpt><trkpt lat="42.817091709072436" lon="12.211195792080733"><ele>801.0</ele><time>2026-04-12T14:34:01.887Z</time></trkpt><trkpt lat="42.81707480833917" lon="12.21109850994712"><ele>801.0</ele><time>2026-04-12T14:34:02.887Z</time></trkpt><trkpt lat="42.81705285424365" lon="12.21100577908467"><ele>803.5</ele><time>2026-04-12T14:34:03.887Z</time></trkpt><trkpt lat="42.817030019468476" lon="12.210918546734243"><ele>806.0</ele><time>2026-04-12T14:34:04.887Z</time></trkpt><trkpt lat="42.81700316998226" lon="12.210831286404442"><ele>808.5</ele><time>2026-04-12T14:34:05.887Z</time></trkpt><trkpt lat="42.816986072665465" lon="12.210706036695068"><ele>811.0</ele><time>2026-04-12T14:34:07.887Z</time></trkpt><trkpt lat="42.81696557465678" lon="12.210620518859917"><ele>813.5</ele><time>2026-04-12T14:34:10.887Z</time></trkpt><trkpt lat="42.81699921454179" lon="12.210736963837446"><ele>816.0</ele><time>2026-04-12T14:34:16.887Z</time></trkpt><trkpt lat="42.81702751201747" lon="12.210822484867734"><ele>816.0</ele><time>2026-04-12T14:34:17.887Z</time></trkpt><trkpt lat="42.81705968632554" lon="12.210913977543585"><ele>816.0</ele><time>2026-04-12T14:34:18.887Z</time></trkpt><trkpt lat="42.81709822456099" lon="12.210995915930326"><ele>816.0</ele><time>2026-04-12T14:34:19.887Z</time></trkpt><trkpt lat="42.81714102087207" lon="12.211078379582043"><ele>816.0</ele><time>2026-04-12T14:34:20.887Z</time></trkpt><trkpt lat="42.81718151792431" lon="12.211146786438796"><ele>816.0</ele><time>2026-04-12T14:34:21.887Z</time></trkpt><trkpt lat="42.81725134554269" lon="12.211260080614363"><ele>816.0</ele><time>2026-04-12T14:34:23.886Z</time></trkpt><trkpt lat="42.81729729051302" lon="12.211335282597757"><ele>808.5</ele><time>2026-04-12T14:34:26.886Z</time></trkpt><trkpt lat="42.81695858184321" lon="12.211532528527654"><ele>801.0</ele><time>2026-04-12T14:34:30.886Z</time></trkpt><trkpt lat="42.816868274083724" lon="12.211490740527402"><ele>801.0</ele><time>2026-04-12T14:34:31.886Z</time></trkpt><trkpt lat="42.81676626495321" lon="12.211442549967046"><ele>801.0</ele><time>2026-04-12T14:34:32.886Z</time></trkpt><trkpt lat="42.81664196151757" lon="12.211392728014959"><ele>801.0</ele><time>2026-04-12T14:34:33.886Z</time></trkpt><trkpt lat="42.81652264167792" lon="12.211347936056569"><ele>801.0</ele><time>2026-04-12T14:34:34.886Z</time></trkpt><trkpt lat="42.81639749396783" lon="12.211298023198427"><ele>801.0</ele><time>2026-04-12T14:34:35.886Z</time></trkpt><trkpt lat="42.81626577841484" lon="12.211232883351348"><ele>801.0</ele><time>2026-04-12T14:34:36.886Z</time></trkpt><trkpt lat="42.816138005658516" lon="12.211176988708928"><ele>801.0</ele><time>2026-04-12T14:34:37.886Z</time></trkpt><trkpt lat="42.81602418185336" lon="12.211143715417426"><ele>801.0</ele><time>2026-04-12T14:34:38.889Z</time></trkpt><trkpt lat="42.81592903895415" lon="12.211168882347925"><ele>800.0</ele><time>2026-04-12T14:34:39.888Z</time></trkpt><trkpt lat="42.81583584065458" lon="12.211255527274455"><ele>799.0</ele><time>2026-04-12T14:34:40.888Z</time></trkpt><trkpt lat="42.81574459811077" lon="12.211368080691159"><ele>798.0</ele><time>2026-04-12T14:34:41.888Z</time></trkpt><trkpt lat="42.81564595821248" lon="12.211494157718967"><ele>797.0</ele><time>2026-04-12T14:34:42.888Z</time></trkpt><trkpt lat="42.815541432835424" lon="12.211603356689928"><ele>794.75</ele><time>2026-04-12T14:34:43.888Z</time></trkpt><trkpt lat="42.81544999663851" lon="12.211733901837295"><ele>792.5</ele><time>2026-04-12T14:34:44.888Z</time></trkpt><trkpt lat="42.81534307398695" lon="12.211846129656726"><ele>790.25</ele><time>2026-04-12T14:34:45.888Z</time></trkpt><trkpt lat="42.815288538522914" lon="12.211998195922089"><ele>788.0</ele><time>2026-04-12T14:34:46.888Z</time></trkpt><trkpt lat="42.815238702951376" lon="12.212148554574695"><ele>788.0</ele><time>2026-04-12T14:34:47.889Z</time></trkpt><trkpt lat="42.815193393691715" lon="12.212292865777805"><ele>788.0</ele><time>2026-04-12T14:34:48.888Z</time></trkpt><trkpt lat="42.81515407520689" lon="12.212418095985614"><ele>788.0</ele><time>2026-04-12T14:34:49.888Z</time></trkpt><trkpt lat="42.81511733019557" lon="12.212535727630069"><ele>788.0</ele><time>2026-04-12T14:34:50.888Z</time></trkpt><trkpt lat="42.815082444136856" lon="12.21264309035739"><ele>788.0</ele><time>2026-04-12T14:34:51.888Z</time></trkpt><trkpt lat="42.815041489357384" lon="12.212758128852155"><ele>788.2</ele><time>2026-04-12T14:34:52.888Z</time></trkpt><trkpt lat="42.81499463580862" lon="12.212874320709922"><ele>788.4</ele><time>2026-04-12T14:34:53.888Z</time></trkpt><trkpt lat="42.81494272531658" lon="12.213005252275272"><ele>788.6</ele><time>2026-04-12T14:34:54.888Z</time></trkpt><trkpt lat="42.81487602183833" lon="12.213133321772002"><ele>788.8000000000001</ele><time>2026-04-12T14:34:55.888Z</time></trkpt><trkpt lat="42.81480179663495" lon="12.213260359436822"><ele>789.0</ele><time>2026-04-12T14:34:56.888Z</time></trkpt><trkpt lat="42.814720316030666" lon="12.21337750022191"><ele>788.75</ele><time>2026-04-12T14:34:57.888Z</time></trkpt><trkpt lat="42.81461872812529" lon="12.21346649222155"><ele>788.5</ele><time>2026-04-12T14:34:58.888Z</time></trkpt><trkpt lat="42.81450076494807" lon="12.213518994162014"><ele>788.25</ele><time>2026-04-12T14:34:59.888Z</time></trkpt><trkpt lat="42.814371432685604" lon="12.213539043125031"><ele>788.0</ele><time>2026-04-12T14:35:00.888Z</time></trkpt><trkpt lat="42.814251818321125" lon="12.213524472903012"><ele>788.0</ele><time>2026-04-12T14:35:01.888Z</time></trkpt><trkpt lat="42.81414055740447" lon="12.213518419267663"><ele>788.0</ele><time>2026-04-12T14:35:02.888Z</time></trkpt><trkpt lat="42.81404083711624" lon="12.213536490260019"><ele>788.0</ele><time>2026-04-12T14:35:03.888Z</time></trkpt><trkpt lat="42.81395444747662" lon="12.213567753220845"><ele>788.0</ele><time>2026-04-12T14:35:04.888Z</time></trkpt><trkpt lat="42.813885321554785" lon="12.213643884387055"><ele>788.0</ele><time>2026-04-12T14:35:05.888Z</time></trkpt><trkpt lat="42.81384134076582" lon="12.213757946495795"><ele>788.0</ele><time>2026-04-12T14:35:06.888Z</time></trkpt><trkpt lat="42.81380326638229" lon="12.213892361914862"><ele>788.0</ele><time>2026-04-12T14:35:07.888Z</time></trkpt><trkpt lat="42.81376241767393" lon="12.214043002501274"><ele>788.0</ele><time>2026-04-12T14:35:08.888Z</time></trkpt><trkpt lat="42.813752560371064" lon="12.214213985683719"><ele>788.0</ele><time>2026-04-12T14:35:09.888Z</time></trkpt><trkpt lat="42.81373478936226" lon="12.214387601474447"><ele>786.75</ele><time>2026-04-12T14:35:10.888Z</time></trkpt><trkpt lat="42.81371654538974" lon="12.214563075136864"><ele>785.5</ele><time>2026-04-12T14:35:11.888Z</time></trkpt><trkpt lat="42.81371435797117" lon="12.214744379274492"><ele>784.25</ele><time>2026-04-12T14:35:12.888Z</time></trkpt><trkpt lat="42.81369530815531" lon="12.21492972108013"><ele>783.0</ele><time>2026-04-12T14:35:13.888Z</time></trkpt><trkpt lat="42.813656529217056" lon="12.215121231299491"><ele>784.5</ele><time>2026-04-12T14:35:14.888Z</time></trkpt><trkpt lat="42.813579751252114" lon="12.215287374884557"><ele>786.0</ele><time>2026-04-12T14:35:15.887Z</time></trkpt><trkpt lat="42.81350938650875" lon="12.215439008432146"><ele>787.5</ele><time>2026-04-12T14:35:16.887Z</time></trkpt><trkpt lat="42.813439222520415" lon="12.215581534497897"><ele>789.0</ele><time>2026-04-12T14:35:17.887Z</time></trkpt><trkpt lat="42.813371870422536" lon="12.215720479971814"><ele>785.75</ele><time>2026-04-12T14:35:18.887Z</time></trkpt><trkpt lat="42.8132769612061" lon="12.215818030683693"><ele>782.5</ele><time>2026-04-12T14:35:19.887Z</time></trkpt><trkpt lat="42.81317563597961" lon="12.215908156367544"><ele>779.25</ele><time>2026-04-12T14:35:20.887Z</time></trkpt><trkpt lat="42.813053329895105" lon="12.215966776018321"><ele>776.0</ele><time>2026-04-12T14:35:21.887Z</time></trkpt><trkpt lat="42.81291262449337" lon="12.215997882825093"><ele>776.0</ele><time>2026-04-12T14:35:22.887Z</time></trkpt><trkpt lat="42.812766819114074" lon="12.216009516503995"><ele>776.0</ele><time>2026-04-12T14:35:23.887Z</time></trkpt><trkpt lat="42.81262598384722" lon="12.21601398384514"><ele>776.0</ele><time>2026-04-12T14:35:24.887Z</time></trkpt><trkpt lat="42.812480554900624" lon="12.215998084827755"><ele>776.0</ele><time>2026-04-12T14:35:25.887Z</time></trkpt><trkpt lat="42.81233386459705" lon="12.21595185855047"><ele>776.3333333333334</ele><time>2026-04-12T14:35:26.887Z</time></trkpt><trkpt lat="42.81218440848472" lon="12.215883692223308"><ele>776.6666666666667</ele><time>2026-04-12T14:35:27.887Z</time></trkpt><trkpt lat="42.81204665026692" lon="12.215784979505148"><ele>777.0</ele><time>2026-04-12T14:35:28.887Z</time></trkpt><trkpt lat="42.81192971323811" lon="12.215654729238734"><ele>775.0</ele><time>2026-04-12T14:35:29.887Z</time></trkpt><trkpt lat="42.811840109850536" lon="12.215485660764294"><ele>773.0</ele><time>2026-04-12T14:35:30.887Z</time></trkpt><trkpt lat="42.81178385667008" lon="12.215296033749565"><ele>771.0</ele><time>2026-04-12T14:35:31.887Z</time></trkpt><trkpt lat="42.811745342327356" lon="12.215095597516303"><ele>771.0</ele><time>2026-04-12T14:35:32.887Z</time></trkpt><trkpt lat="42.81171006706618" lon="12.214898728423375"><ele>771.0</ele><time>2026-04-12T14:35:33.887Z</time></trkpt><trkpt lat="42.811668411879005" lon="12.214717092670542"><ele>771.0</ele><time>2026-04-12T14:35:34.887Z</time></trkpt><trkpt lat="42.811615165731325" lon="12.214530570536782"><ele>771.0</ele><time>2026-04-12T14:35:35.887Z</time></trkpt><trkpt lat="42.8115674137455" lon="12.214353985346467"><ele>771.0</ele><time>2026-04-12T14:35:36.887Z</time></trkpt><trkpt lat="42.81151777416616" lon="12.21417299919781"><ele>771.0</ele><time>2026-04-12T14:35:37.887Z</time></trkpt><trkpt lat="42.81147992372497" lon="12.213997896691799"><ele>771.0</ele><time>2026-04-12T14:35:38.887Z</time></trkpt><trkpt lat="42.81147167322324" lon="12.21381201329597"><ele>771.0</ele><time>2026-04-12T14:35:39.886Z</time></trkpt><trkpt lat="42.81150000777943" lon="12.213618666542851"><ele>770.0</ele><time>2026-04-12T14:35:40.886Z</time></trkpt><trkpt lat="42.811582453660954" lon="12.213444152821072"><ele>769.0</ele><time>2026-04-12T14:35:41.886Z</time></trkpt><trkpt lat="42.811657536586395" lon="12.213266291397689"><ele>768.0</ele><time>2026-04-12T14:35:42.886Z</time></trkpt><trkpt lat="42.81173418687518" lon="12.213087753800302"><ele>766.75</ele><time>2026-04-12T14:35:43.886Z</time></trkpt><trkpt lat="42.81177670166337" lon="12.212918528328174"><ele>765.5</ele><time>2026-04-12T14:35:44.886Z</time></trkpt><trkpt lat="42.81177983837276" lon="12.212737690027323"><ele>764.25</ele><time>2026-04-12T14:35:45.886Z</time></trkpt><trkpt lat="42.811745403927425" lon="12.212569683900641"><ele>763.0</ele><time>2026-04-12T14:35:46.886Z</time></trkpt><trkpt lat="42.81167915662549" lon="12.212421788461866"><ele>762.2</ele><time>2026-04-12T14:35:47.886Z</time></trkpt><trkpt lat="42.811591331039345" lon="12.212305838566188"><ele>761.4</ele><time>2026-04-12T14:35:48.886Z</time></trkpt><trkpt lat="42.81151664324553" lon="12.2121972918907"><ele>760.6</ele><time>2026-04-12T14:35:49.886Z</time></trkpt><trkpt lat="42.811445438615934" lon="12.21211699757104"><ele>759.8000000000001</ele><time>2026-04-12T14:35:50.886Z</time></trkpt><trkpt lat="42.81136858806006" lon="12.212042557701677"><ele>759.0</ele><time>2026-04-12T14:35:51.886Z</time></trkpt><trkpt lat="42.811268611573716" lon="12.21197667468982"><ele>759.0</ele><time>2026-04-12T14:35:52.886Z</time></trkpt><trkpt lat="42.81116100764958" lon="12.211900198327433"><ele>759.0</ele><time>2026-04-12T14:35:53.886Z</time></trkpt><trkpt lat="42.811031841022555" lon="12.211865030269024"><ele>759.0</ele><time>2026-04-12T14:35:54.886Z</time></trkpt><trkpt lat="42.81088581864916" lon="12.211864992144049"><ele>759.0</ele><time>2026-04-12T14:35:55.886Z</time></trkpt><trkpt lat="42.81073742696431" lon="12.211926796405812"><ele>760.3333333333334</ele><time>2026-04-12T14:35:56.886Z</time></trkpt><trkpt lat="42.81058407464919" lon="12.21196360671678"><ele>761.6666666666667</ele><time>2026-04-12T14:35:57.886Z</time></trkpt><trkpt lat="42.81042147795243" lon="12.211977936184308"><ele>763.0</ele><time>2026-04-12T14:35:58.886Z</time></trkpt><trkpt lat="42.810262888888204" lon="12.211980214473112"><ele>761.6666666666667</ele><time>2026-04-12T14:35:59.886Z</time></trkpt><trkpt lat="42.81009935687209" lon="12.211967982103928"><ele>760.3333333333334</ele><time>2026-04-12T14:36:00.886Z</time></trkpt><trkpt lat="42.80994153365865" lon="12.211939984217587"><ele>759.0</ele><time>2026-04-12T14:36:01.886Z</time></trkpt><trkpt lat="42.809791515961" lon="12.211881502890202"><ele>759.0</ele><time>2026-04-12T14:36:02.885Z</time></trkpt><trkpt lat="42.809643541949775" lon="12.211808572298684"><ele>759.0</ele><time>2026-04-12T14:36:03.885Z</time></trkpt><trkpt lat="42.80951761441157" lon="12.21174278904175"><ele>759.0</ele><time>2026-04-12T14:36:04.885Z</time></trkpt><trkpt lat="42.809410051247795" lon="12.211691692131968"><ele>759.0</ele><time>2026-04-12T14:36:05.885Z</time></trkpt><trkpt lat="42.80930000692742" lon="12.211638664761571"><ele>758.25</ele><time>2026-04-12T14:36:06.885Z</time></trkpt><trkpt lat="42.80920041234427" lon="12.211592752383678"><ele>757.5</ele><time>2026-04-12T14:36:07.885Z</time></trkpt><trkpt lat="42.80909140501777" lon="12.211546186150327"><ele>756.75</ele><time>2026-04-12T14:36:08.885Z</time></trkpt><trkpt lat="42.80897746233666" lon="12.211496945108387"><ele>756.0</ele><time>2026-04-12T14:36:09.885Z</time></trkpt><trkpt lat="42.80884180669664" lon="12.211437772191166"><ele>754.3333333333334</ele><time>2026-04-12T14:36:10.885Z</time></trkpt><trkpt lat="42.80869353231899" lon="12.211365251432442"><ele>752.6666666666667</ele><time>2026-04-12T14:36:11.885Z</time></trkpt><trkpt lat="42.80855429688169" lon="12.211286201805944"><ele>751.0</ele><time>2026-04-12T14:36:12.885Z</time></trkpt><trkpt lat="42.80840957049849" lon="12.21119136958116"><ele>749.0</ele><time>2026-04-12T14:36:13.885Z</time></trkpt><trkpt lat="42.80826983395692" lon="12.211088949948111"><ele>747.0</ele><time>2026-04-12T14:36:14.885Z</time></trkpt><trkpt lat="42.80814040314098" lon="12.210989772709933"><ele>745.0</ele><time>2026-04-12T14:36:15.885Z</time></trkpt><trkpt lat="42.80802328432501" lon="12.210897092316598"><ele>743.0</ele><time>2026-04-12T14:36:16.885Z</time></trkpt><trkpt lat="42.807929704859795" lon="12.210816676621542"><ele>743.0</ele><time>2026-04-12T14:36:17.885Z</time></trkpt><trkpt lat="42.80785162608838" lon="12.210732695737207"><ele>743.0</ele><time>2026-04-12T14:36:18.885Z</time></trkpt><trkpt lat="42.80778870948871" lon="12.21062245481515"><ele>743.0</ele><time>2026-04-12T14:36:19.885Z</time></trkpt><trkpt lat="42.80773961014092" lon="12.210485336498612"><ele>743.0</ele><time>2026-04-12T14:36:20.885Z</time></trkpt><trkpt lat="42.80770292116866" lon="12.210342792846582"><ele>743.0</ele><time>2026-04-12T14:36:21.885Z</time></trkpt><trkpt lat="42.807662203295564" lon="12.210204301400722"><ele>741.8</ele><time>2026-04-12T14:36:22.885Z</time></trkpt><trkpt lat="42.80761927618358" lon="12.21005733917555"><ele>740.5999999999999</ele><time>2026-04-12T14:36:23.885Z</time></trkpt><trkpt lat="42.80757894719744" lon="12.209908113777786"><ele>739.4000000000001</ele><time>2026-04-12T14:36:24.885Z</time></trkpt><trkpt lat="42.80753942961091" lon="12.209771968814639"><ele>738.2</ele><time>2026-04-12T14:36:25.885Z</time></trkpt><trkpt lat="42.80751228822961" lon="12.209645381454418"><ele>737.0</ele><time>2026-04-12T14:36:26.884Z</time></trkpt><trkpt lat="42.80749851071006" lon="12.209494747707998"><ele>736.2</ele><time>2026-04-12T14:36:27.884Z</time></trkpt><trkpt lat="42.807493542295504" lon="12.209357601318775"><ele>735.4000000000001</ele><time>2026-04-12T14:36:28.884Z</time></trkpt><trkpt lat="42.807496313088095" lon="12.209230351461962"><ele>734.5999999999999</ele><time>2026-04-12T14:36:29.884Z</time></trkpt><trkpt lat="42.80750981958223" lon="12.209102175888878"><ele>733.8</ele><time>2026-04-12T14:36:30.884Z</time></trkpt><trkpt lat="42.80753189291089" lon="12.208954974061518"><ele>733.0</ele><time>2026-04-12T14:36:31.884Z</time></trkpt><trkpt lat="42.80756318669403" lon="12.208816616177733"><ele>731.0</ele><time>2026-04-12T14:36:32.884Z</time></trkpt><trkpt lat="42.80758263335288" lon="12.208683629030524"><ele>729.0</ele><time>2026-04-12T14:36:33.884Z</time></trkpt><trkpt lat="42.807579280094295" lon="12.20854440180895"><ele>727.0</ele><time>2026-04-12T14:36:34.884Z</time></trkpt><trkpt lat="42.80755465688589" lon="12.208422883782477"><ele>725.0</ele><time>2026-04-12T14:36:35.884Z</time></trkpt><trkpt lat="42.80754016626762" lon="12.208271749978497"><ele>723.0</ele><time>2026-04-12T14:36:36.884Z</time></trkpt><trkpt lat="42.80751475206475" lon="12.208135926989055"><ele>720.5999999999999</ele><time>2026-04-12T14:36:37.884Z</time></trkpt><trkpt lat="42.80748734995372" lon="12.208023986247378"><ele>718.1999999999999</ele><time>2026-04-12T14:36:38.884Z</time></trkpt><trkpt lat="42.80744991365466" lon="12.207922545830176"><ele>715.8</ele><time>2026-04-12T14:36:39.884Z</time></trkpt><trkpt lat="42.80737748530386" lon="12.207825589061068"><ele>713.4</ele><time>2026-04-12T14:36:40.884Z</time></trkpt><trkpt lat="42.80729748781062" lon="12.207761161184566"><ele>711.0</ele><time>2026-04-12T14:36:41.884Z</time></trkpt><trkpt lat="42.80718975171108" lon="12.207687038830676"><ele>711.0</ele><time>2026-04-12T14:36:42.884Z</time></trkpt><trkpt lat="42.80709832889426" lon="12.207618533072216"><ele>711.0</ele><time>2026-04-12T14:36:43.884Z</time></trkpt><trkpt lat="42.80701188931634" lon="12.207569729673514"><ele>711.0</ele><time>2026-04-12T14:36:44.886Z</time></trkpt><trkpt lat="42.80696147831701" lon="12.207471021265565"><ele>711.0</ele><time>2026-04-12T14:36:45.886Z</time></trkpt><trkpt lat="42.80692918636195" lon="12.20735644435561"><ele>711.0</ele><time>2026-04-12T14:36:46.886Z</time></trkpt><trkpt lat="42.80693235146084" lon="12.207216947201328"><ele>708.8</ele><time>2026-04-12T14:36:47.886Z</time></trkpt><trkpt lat="42.80692267481655" lon="12.207070607419947"><ele>706.5999999999999</ele><time>2026-04-12T14:36:48.886Z</time></trkpt><trkpt lat="42.80693623578141" lon="12.206935414298444"><ele>704.4</ele><time>2026-04-12T14:36:49.886Z</time></trkpt><trkpt lat="42.80696866126252" lon="12.20682203010305"><ele>702.2</ele><time>2026-04-12T14:36:50.886Z</time></trkpt><trkpt lat="42.80702768086496" lon="12.206717057623385"><ele>700.0</ele><time>2026-04-12T14:36:51.886Z</time></trkpt><trkpt lat="42.80710724683518" lon="12.206631651011788"><ele>700.0</ele><time>2026-04-12T14:36:52.886Z</time></trkpt><trkpt lat="42.80720205551421" lon="12.206552411887381"><ele>700.0</ele><time>2026-04-12T14:36:53.885Z</time></trkpt><trkpt lat="42.80730762318703" lon="12.206484003033943"><ele>700.0</ele><time>2026-04-12T14:36:54.885Z</time></trkpt><trkpt lat="42.80740431649943" lon="12.206408534381168"><ele>700.0</ele><time>2026-04-12T14:36:55.885Z</time></trkpt><trkpt lat="42.80748047062842" lon="12.206336863595556"><ele>700.0</ele><time>2026-04-12T14:36:56.886Z</time></trkpt><trkpt lat="42.80753966411718" lon="12.206250766659373"><ele>698.8333333333334</ele><time>2026-04-12T14:36:57.886Z</time></trkpt><trkpt lat="42.807570539289664" lon="12.206149949940816"><ele>697.6666666666667</ele><time>2026-04-12T14:36:58.886Z</time></trkpt><trkpt lat="42.80756696208819" lon="12.206043742847546"><ele>696.5</ele><time>2026-04-12T14:36:59.886Z</time></trkpt><trkpt lat="42.80754334683673" lon="12.205931754290559"><ele>695.3333333333334</ele><time>2026-04-12T14:37:00.886Z</time></trkpt><trkpt lat="42.80747116175187" lon="12.20586334739526"><ele>694.1666666666666</ele><time>2026-04-12T14:37:01.886Z</time></trkpt><trkpt lat="42.80738221304056" lon="12.20585793207593"><ele>693.0</ele><time>2026-04-12T14:37:02.886Z</time></trkpt><trkpt lat="42.80728769665957" lon="12.205921750707974"><ele>693.0</ele><time>2026-04-12T14:37:03.886Z</time></trkpt><trkpt lat="42.80719880724616" lon="12.205981908466896"><ele>693.0</ele><time>2026-04-12T14:37:04.885Z</time></trkpt><trkpt lat="42.807120913746616" lon="12.20603721607564"><ele>693.0</ele><time>2026-04-12T14:37:05.885Z</time></trkpt><trkpt lat="42.807054101247765" lon="12.206091616466509"><ele>693.0</ele><time>2026-04-12T14:37:06.885Z</time></trkpt><trkpt lat="42.80699053601572" lon="12.206086618188046"><ele>693.0</ele><time>2026-04-12T14:37:07.885Z</time></trkpt><trkpt lat="42.8069108752713" lon="12.20597746148834"><ele>693.0</ele><time>2026-04-12T14:37:09.885Z</time></trkpt><trkpt lat="42.80693779384475" lon="12.205819058917703"><ele>693.0</ele><time>2026-04-12T14:37:11.885Z</time></trkpt><trkpt lat="42.807003881857725" lon="12.205745044318332"><ele>693.0</ele><time>2026-04-12T14:37:12.885Z</time></trkpt><trkpt lat="42.80708976264478" lon="12.205669653101383"><ele>693.0</ele><time>2026-04-12T14:37:13.885Z</time></trkpt><trkpt lat="42.807185042978915" lon="12.205582336739358"><ele>693.0</ele><time>2026-04-12T14:37:14.885Z</time></trkpt><trkpt lat="42.807287551088905" lon="12.205506171777998"><ele>693.0</ele><time>2026-04-12T14:37:15.885Z</time></trkpt><trkpt lat="42.8073798119391" lon="12.205457007226682"><ele>691.0</ele><time>2026-04-12T14:37:16.885Z</time></trkpt><trkpt lat="42.80747003293004" lon="12.205432440494066"><ele>689.0</ele><time>2026-04-12T14:37:17.885Z</time></trkpt><trkpt lat="42.80754868739647" lon="12.205427529907388"><ele>687.0</ele><time>2026-04-12T14:37:18.885Z</time></trkpt><trkpt lat="42.8076117160732" lon="12.205419943897933"><ele>685.0</ele><time>2026-04-12T14:37:19.885Z</time></trkpt><trkpt lat="42.80767617658776" lon="12.20541103817198"><ele>683.0</ele><time>2026-04-12T14:37:20.885Z</time></trkpt><trkpt lat="42.807758529699086" lon="12.205304525987186"><ele>681.0</ele><time>2026-04-12T14:37:22.885Z</time></trkpt><trkpt lat="42.8077555098471" lon="12.20520410933341"><ele>681.0</ele><time>2026-04-12T14:37:23.885Z</time></trkpt><trkpt lat="42.80772462436509" lon="12.205118116206378"><ele>681.0</ele><time>2026-04-12T14:37:24.885Z</time></trkpt><trkpt lat="42.80765728667486" lon="12.205055703994054"><ele>681.0</ele><time>2026-04-12T14:37:25.885Z</time></trkpt><trkpt lat="42.807581266549754" lon="12.205008219320725"><ele>681.0</ele><time>2026-04-12T14:37:26.885Z</time></trkpt><trkpt lat="42.807501171517345" lon="12.204960815947143"><ele>681.0</ele><time>2026-04-12T14:37:27.885Z</time></trkpt><trkpt lat="42.80742655864463" lon="12.20491799001877"><ele>681.0</ele><time>2026-04-12T14:37:28.884Z</time></trkpt><trkpt lat="42.8073506106451" lon="12.204870222232245"><ele>681.0</ele><time>2026-04-12T14:37:29.884Z</time></trkpt><trkpt lat="42.80726510810176" lon="12.204837115487376"><ele>681.0</ele><time>2026-04-12T14:37:30.884Z</time></trkpt><trkpt lat="42.807200802359525" lon="12.204782844749664"><ele>681.0</ele><time>2026-04-12T14:37:31.884Z</time></trkpt><trkpt lat="42.807139403779026" lon="12.204740656574026"><ele>681.0</ele><time>2026-04-12T14:37:32.884Z</time></trkpt><trkpt lat="42.807050716179745" lon="12.204635050392989"><ele>681.0</ele><time>2026-04-12T14:37:34.884Z</time></trkpt><trkpt lat="42.807049295512705" lon="12.204467621139424"><ele>679.3333333333334</ele><time>2026-04-12T14:37:36.884Z</time></trkpt><trkpt lat="42.80708086192678" lon="12.204386847559627"><ele>677.6666666666666</ele><time>2026-04-12T14:37:37.884Z</time></trkpt><trkpt lat="42.80713790563366" lon="12.204323239036322"><ele>676.0</ele><time>2026-04-12T14:37:38.884Z</time></trkpt><trkpt lat="42.80722534961547" lon="12.204270325597609"><ele>674.3333333333333</ele><time>2026-04-12T14:37:39.884Z</time></trkpt><trkpt lat="42.80731905778373" lon="12.20422379610237"><ele>672.6666666666666</ele><time>2026-04-12T14:37:40.884Z</time></trkpt><trkpt lat="42.80741014801429" lon="12.204174306451582"><ele>671.0</ele><time>2026-04-12T14:37:41.884Z</time></trkpt><trkpt lat="42.80751105506652" lon="12.204130229379299"><ele>671.0</ele><time>2026-04-12T14:37:42.884Z</time></trkpt><trkpt lat="42.807617823295246" lon="12.20407755232498"><ele>671.0</ele><time>2026-04-12T14:37:43.884Z</time></trkpt><trkpt lat="42.80772536518916" lon="12.204025379917267"><ele>671.0</ele><time>2026-04-12T14:37:44.884Z</time></trkpt><trkpt lat="42.80782795867651" lon="12.203974572123963"><ele>671.0</ele><time>2026-04-12T14:37:45.884Z</time></trkpt><trkpt lat="42.80792579080004" lon="12.203916394332019"><ele>671.0</ele><time>2026-04-12T14:37:46.884Z</time></trkpt><trkpt lat="42.80802207929807" lon="12.203842038064764"><ele>667.75</ele><time>2026-04-12T14:37:47.884Z</time></trkpt><trkpt lat="42.80811122831225" lon="12.203753418394102"><ele>664.5</ele><time>2026-04-12T14:37:48.884Z</time></trkpt><trkpt lat="42.80820527044213" lon="12.203668329724236"><ele>661.25</ele><time>2026-04-12T14:37:49.884Z</time></trkpt><trkpt lat="42.80826769987498" lon="12.203538271871027"><ele>658.0</ele><time>2026-04-12T14:37:50.884Z</time></trkpt><trkpt lat="42.80833196264491" lon="12.203411087067584"><ele>658.0</ele><time>2026-04-12T14:37:51.884Z</time></trkpt><trkpt lat="42.8083895062306" lon="12.203278047594683"><ele>658.0</ele><time>2026-04-12T14:37:52.883Z</time></trkpt><trkpt lat="42.80845182813394" lon="12.203143838288552"><ele>658.0</ele><time>2026-04-12T14:37:53.883Z</time></trkpt><trkpt lat="42.80850175490889" lon="12.2030122419192"><ele>658.0</ele><time>2026-04-12T14:37:54.883Z</time></trkpt><trkpt lat="42.80854527699889" lon="12.202878524520026"><ele>658.0</ele><time>2026-04-12T14:37:55.883Z</time></trkpt><trkpt lat="42.80857633312932" lon="12.20274811013122"><ele>651.8</ele><time>2026-04-12T14:37:56.883Z</time></trkpt><trkpt lat="42.80859195501018" lon="12.202613269248408"><ele>645.5999999999999</ele><time>2026-04-12T14:37:57.883Z</time></trkpt><trkpt lat="42.808591296437235" lon="12.202488973283657"><ele>639.4000000000001</ele><time>2026-04-12T14:37:58.883Z</time></trkpt><trkpt lat="42.808575373299526" lon="12.202362964592893"><ele>633.2</ele><time>2026-04-12T14:37:59.883Z</time></trkpt><trkpt lat="42.808543612046535" lon="12.202258864371478"><ele>627.0</ele><time>2026-04-12T14:38:00.883Z</time></trkpt><trkpt lat="42.80851438631737" lon="12.20215309928177"><ele>630.0</ele><time>2026-04-12T14:38:01.883Z</time></trkpt><trkpt lat="42.80845316969097" lon="12.202065368866327"><ele>633.0</ele><time>2026-04-12T14:38:02.883Z</time></trkpt><trkpt lat="42.80837352234395" lon="12.202009965206344"><ele>636.0</ele><time>2026-04-12T14:38:03.883Z</time></trkpt><trkpt lat="42.808292324213895" lon="12.201984382493832"><ele>639.0</ele><time>2026-04-12T14:38:04.883Z</time></trkpt><trkpt lat="42.80821935581869" lon="12.20190076362501"><ele>642.0</ele><time>2026-04-12T14:38:05.883Z</time></trkpt><trkpt lat="42.80814905456495" lon="12.20179638978828"><ele>642.0</ele><time>2026-04-12T14:38:06.883Z</time></trkpt><trkpt lat="42.808081567317494" lon="12.201689582066383"><ele>642.0</ele><time>2026-04-12T14:38:07.883Z</time></trkpt><trkpt lat="42.80801801948964" lon="12.201572774512632"><ele>642.0</ele><time>2026-04-12T14:38:08.883Z</time></trkpt><trkpt lat="42.80795512091517" lon="12.201441170889694"><ele>642.0</ele><time>2026-04-12T14:38:09.883Z</time></trkpt><trkpt lat="42.8078712581982" lon="12.201340071726937"><ele>642.0</ele><time>2026-04-12T14:38:10.883Z</time></trkpt><trkpt lat="42.80777472830378" lon="12.201251997740892"><ele>639.8000000000001</ele><time>2026-04-12T14:38:11.883Z</time></trkpt><trkpt lat="42.80766648660796" lon="12.201176451700809"><ele>637.6</ele><time>2026-04-12T14:38:12.883Z</time></trkpt><trkpt lat="42.80756465692358" lon="12.201123768271849"><ele>635.4000000000001</ele><time>2026-04-12T14:38:13.883Z</time></trkpt><trkpt lat="42.80747397536855" lon="12.201081858578448"><ele>633.2</ele><time>2026-04-12T14:38:14.883Z</time></trkpt><trkpt lat="42.80739155549389" lon="12.201030497376145"><ele>631.0</ele><time>2026-04-12T14:38:15.882Z</time></trkpt><trkpt lat="42.807321264149536" lon="12.200961477493475"><ele>631.0</ele><time>2026-04-12T14:38:16.882Z</time></trkpt><trkpt lat="42.8072951258265" lon="12.20086071804729"><ele>631.0</ele><time>2026-04-12T14:38:17.882Z</time></trkpt><trkpt lat="42.80728507639062" lon="12.200730153587173"><ele>631.0</ele><time>2026-04-12T14:38:18.882Z</time></trkpt><trkpt lat="42.807288556861835" lon="12.200604498546301"><ele>631.0</ele><time>2026-04-12T14:38:19.882Z</time></trkpt><trkpt lat="42.80730195169215" lon="12.200479960206469"><ele>631.0</ele><time>2026-04-12T14:38:20.882Z</time></trkpt><trkpt lat="42.80731061564692" lon="12.200370311470289"><ele>631.0</ele><time>2026-04-12T14:38:21.882Z</time></trkpt><trkpt lat="42.80731318686399" lon="12.200264775610425"><ele>630.2</ele><time>2026-04-12T14:38:22.882Z</time></trkpt><trkpt lat="42.807328340189564" lon="12.200136881002507"><ele>629.4000000000001</ele><time>2026-04-12T14:38:23.882Z</time></trkpt><trkpt lat="42.807350470861294" lon="12.200009451674616"><ele>628.6</ele><time>2026-04-12T14:38:24.882Z</time></trkpt><trkpt lat="42.80737673114252" lon="12.199883122001674"><ele>627.8000000000001</ele><time>2026-04-12T14:38:25.882Z</time></trkpt><trkpt lat="42.80739426954634" lon="12.199724781963578"><ele>627.0</ele><time>2026-04-12T14:38:26.882Z</time></trkpt><trkpt lat="42.807407118839556" lon="12.199564662423183"><ele>626.6</ele><time>2026-04-12T14:38:27.882Z</time></trkpt><trkpt lat="42.80740383991393" lon="12.199407817213011"><ele>626.2</ele><time>2026-04-12T14:38:28.882Z</time></trkpt><trkpt lat="42.80739678982882" lon="12.199252968909246"><ele>625.8</ele><time>2026-04-12T14:38:29.882Z</time></trkpt><trkpt lat="42.80738810020434" lon="12.199100952926392"><ele>625.4</ele><time>2026-04-12T14:38:30.882Z</time></trkpt><trkpt lat="42.80739102580427" lon="12.198954322901265"><ele>625.0</ele><time>2026-04-12T14:38:31.882Z</time></trkpt><trkpt lat="42.8073825216488" lon="12.198794174569379"><ele>624.5</ele><time>2026-04-12T14:38:32.882Z</time></trkpt><trkpt lat="42.80737257667338" lon="12.198652732570338"><ele>624.0</ele><time>2026-04-12T14:38:33.882Z</time></trkpt><trkpt lat="42.807355401127296" lon="12.198490447856086"><ele>623.5</ele><time>2026-04-12T14:38:34.882Z</time></trkpt><trkpt lat="42.80731678605531" lon="12.198284048292653"><ele>623.0</ele><time>2026-04-12T14:38:35.882Z</time></trkpt><trkpt lat="42.8072652622392" lon="12.19812811087316"><ele>622.75</ele><time>2026-04-12T14:38:36.882Z</time></trkpt><trkpt lat="42.80721978533545" lon="12.197972916070112"><ele>622.5</ele><time>2026-04-12T14:38:37.882Z</time></trkpt><trkpt lat="42.80719777929241" lon="12.197815241944713"><ele>622.25</ele><time>2026-04-12T14:38:38.882Z</time></trkpt><trkpt lat="42.80716040177711" lon="12.197673085445428"><ele>622.0</ele><time>2026-04-12T14:38:39.881Z</time></trkpt><trkpt lat="42.80711482087194" lon="12.197538020447666"><ele>622.0</ele><time>2026-04-12T14:38:40.881Z</time></trkpt><trkpt lat="42.807077002369596" lon="12.197408545034358"><ele>622.0</ele><time>2026-04-12T14:38:41.881Z</time></trkpt><trkpt lat="42.80704458609262" lon="12.197280823765256"><ele>622.0</ele><time>2026-04-12T14:38:42.881Z</time></trkpt><trkpt lat="42.80702406042892" lon="12.197159540176639"><ele>622.0</ele><time>2026-04-12T14:38:43.881Z</time></trkpt><trkpt lat="42.80702836671995" lon="12.197052476937607"><ele>622.0</ele><time>2026-04-12T14:38:44.881Z</time></trkpt><trkpt lat="42.807067150334596" lon="12.196962943538097"><ele>622.0</ele><time>2026-04-12T14:38:45.881Z</time></trkpt><trkpt lat="42.80714141130529" lon="12.196883130271518"><ele>620.25</ele><time>2026-04-12T14:38:46.881Z</time></trkpt><trkpt lat="42.807235050448696" lon="12.196833136789481"><ele>618.5</ele><time>2026-04-12T14:38:47.881Z</time></trkpt><trkpt lat="42.807342276060204" lon="12.196809954623362"><ele>616.75</ele><time>2026-04-12T14:38:48.881Z</time></trkpt><trkpt lat="42.807460418957625" lon="12.196796933684942"><ele>615.0</ele><time>2026-04-12T14:38:49.881Z</time></trkpt><trkpt lat="42.80758756515512" lon="12.196782179287952"><ele>615.2</ele><time>2026-04-12T14:38:50.884Z</time></trkpt><trkpt lat="42.80771253587679" lon="12.196768328053025"><ele>615.4</ele><time>2026-04-12T14:38:51.883Z</time></trkpt><trkpt lat="42.80782946295011" lon="12.196766179688318"><ele>615.6</ele><time>2026-04-12T14:38:52.883Z</time></trkpt><trkpt lat="42.80793275015916" lon="12.196739202440597"><ele>615.8</ele><time>2026-04-12T14:38:53.883Z</time></trkpt><trkpt lat="42.80802137940211" lon="12.196695293593896"><ele>616.0</ele><time>2026-04-12T14:38:54.883Z</time></trkpt><trkpt lat="42.80809353834988" lon="12.196610513939815"><ele>616.0</ele><time>2026-04-12T14:38:55.883Z</time></trkpt><trkpt lat="42.808134190122" lon="12.196505160182875"><ele>616.0</ele><time>2026-04-12T14:38:56.883Z</time></trkpt><trkpt lat="42.808168197952256" lon="12.19638206468121"><ele>616.0</ele><time>2026-04-12T14:38:57.883Z</time></trkpt><trkpt lat="42.808155242956886" lon="12.196231101266635"><ele>616.0</ele><time>2026-04-12T14:38:58.883Z</time></trkpt><trkpt lat="42.808097736297206" lon="12.196086181931495"><ele>616.0</ele><time>2026-04-12T14:38:59.883Z</time></trkpt><trkpt lat="42.80800546433646" lon="12.19598546515109"><ele>614.0</ele><time>2026-04-12T14:39:00.883Z</time></trkpt><trkpt lat="42.80792444989719" lon="12.195854646681418"><ele>612.0</ele><time>2026-04-12T14:39:01.883Z</time></trkpt><trkpt lat="42.8078087386173" lon="12.195743896968446"><ele>610.0</ele><time>2026-04-12T14:39:02.883Z</time></trkpt><trkpt lat="42.80770810936776" lon="12.19560357697494"><ele>608.0</ele><time>2026-04-12T14:39:03.883Z</time></trkpt><trkpt lat="42.807598915723744" lon="12.195463279909006"><ele>605.6666666666666</ele><time>2026-04-12T14:39:04.883Z</time></trkpt><trkpt lat="42.80748793488639" lon="12.195319516649512"><ele>603.3333333333334</ele><time>2026-04-12T14:39:05.883Z</time></trkpt><trkpt lat="42.80736952121085" lon="12.195159829715314"><ele>601.0</ele><time>2026-04-12T14:39:06.883Z</time></trkpt><trkpt lat="42.80726066621417" lon="12.195016393097614"><ele>601.0</ele><time>2026-04-12T14:39:07.882Z</time></trkpt><trkpt lat="42.80716196582948" lon="12.194865491383164"><ele>601.0</ele><time>2026-04-12T14:39:08.882Z</time></trkpt><trkpt lat="42.807085447370156" lon="12.194693074395174"><ele>601.0</ele><time>2026-04-12T14:39:09.882Z</time></trkpt><trkpt lat="42.80703309732836" lon="12.194517478875385"><ele>601.0</ele><time>2026-04-12T14:39:10.882Z</time></trkpt><trkpt lat="42.80699736397829" lon="12.194331723050524"><ele>600.25</ele><time>2026-04-12T14:39:11.882Z</time></trkpt><trkpt lat="42.80696817687869" lon="12.194135554590371"><ele>599.5</ele><time>2026-04-12T14:39:12.882Z</time></trkpt><trkpt lat="42.80693525977226" lon="12.193932842762697"><ele>598.75</ele><time>2026-04-12T14:39:13.882Z</time></trkpt><trkpt lat="42.80690758447602" lon="12.19373172567386"><ele>598.0</ele><time>2026-04-12T14:39:14.882Z</time></trkpt><trkpt lat="42.80688707625398" lon="12.193542939366731"><ele>598.75</ele><time>2026-04-12T14:39:15.882Z</time></trkpt><trkpt lat="42.80685806268077" lon="12.193381004159534"><ele>599.5</ele><time>2026-04-12T14:39:16.882Z</time></trkpt><trkpt lat="42.80680923586577" lon="12.193238728402712"><ele>600.25</ele><time>2026-04-12T14:39:17.882Z</time></trkpt><trkpt lat="42.806739110721885" lon="12.193116463559104"><ele>601.0</ele><time>2026-04-12T14:39:18.882Z</time></trkpt><trkpt lat="42.80663834039783" lon="12.193029337737254"><ele>602.25</ele><time>2026-04-12T14:39:19.882Z</time></trkpt><trkpt lat="42.8065214112138" lon="12.192968591850459"><ele>603.5</ele><time>2026-04-12T14:39:20.882Z</time></trkpt><trkpt lat="42.80640100234111" lon="12.192893323355591"><ele>604.75</ele><time>2026-04-12T14:39:21.882Z</time></trkpt><trkpt lat="42.806294230681985" lon="12.192792564366309"><ele>606.0</ele><time>2026-04-12T14:39:22.882Z</time></trkpt><trkpt lat="42.806169642494254" lon="12.19266119478222"><ele>606.0</ele><time>2026-04-12T14:39:23.882Z</time></trkpt><trkpt lat="42.806060609627366" lon="12.19255175933306"><ele>606.0</ele><time>2026-04-12T14:39:24.882Z</time></trkpt><trkpt lat="42.8059450805527" lon="12.192455906671844"><ele>606.0</ele><time>2026-04-12T14:39:25.882Z</time></trkpt><trkpt lat="42.80584252742819" lon="12.192346687982232"><ele>606.0</ele><time>2026-04-12T14:39:26.882Z</time></trkpt><trkpt lat="42.80574478302806" lon="12.19222473233209"><ele>604.6</ele><time>2026-04-12T14:39:27.882Z</time></trkpt><trkpt lat="42.80568918321091" lon="12.192107504038063"><ele>603.2</ele><time>2026-04-12T14:39:28.882Z</time></trkpt><trkpt lat="42.80566185644754" lon="12.192004936701993"><ele>601.8</ele><time>2026-04-12T14:39:29.882Z</time></trkpt><trkpt lat="42.80566743154142" lon="12.191885834794403"><ele>600.4</ele><time>2026-04-12T14:39:30.881Z</time></trkpt><trkpt lat="42.80569312766849" lon="12.191750474373222"><ele>599.0</ele><time>2026-04-12T14:39:31.881Z</time></trkpt><trkpt lat="42.80575212922576" lon="12.191602453133466"><ele>598.25</ele><time>2026-04-12T14:39:32.881Z</time></trkpt><trkpt lat="42.805763964029424" lon="12.19142057087869"><ele>597.5</ele><time>2026-04-12T14:39:33.881Z</time></trkpt><trkpt lat="42.80574629412858" lon="12.191252685870781"><ele>596.75</ele><time>2026-04-12T14:39:34.881Z</time></trkpt><trkpt lat="42.80570865006514" lon="12.191070807479509"><ele>596.0</ele><time>2026-04-12T14:39:35.881Z</time></trkpt><trkpt lat="42.80566947134664" lon="12.190886666742028"><ele>596.0</ele><time>2026-04-12T14:39:36.881Z</time></trkpt><trkpt lat="42.805632059256425" lon="12.190687061663194"><ele>596.0</ele><time>2026-04-12T14:39:37.881Z</time></trkpt><trkpt lat="42.80560262436806" lon="12.190465895161358"><ele>596.0</ele><time>2026-04-12T14:39:38.881Z</time></trkpt><trkpt lat="42.80554842469187" lon="12.190245871024443"><ele>593.6666666666666</ele><time>2026-04-12T14:39:39.881Z</time></trkpt><trkpt lat="42.805471941058386" lon="12.190038818051105"><ele>591.3333333333334</ele><time>2026-04-12T14:39:40.881Z</time></trkpt><trkpt lat="42.80540383824051" lon="12.189817065282586"><ele>589.0</ele><time>2026-04-12T14:39:41.881Z</time></trkpt><trkpt lat="42.8053511371788" lon="12.189594753680847"><ele>587.3333333333334</ele><time>2026-04-12T14:39:42.881Z</time></trkpt><trkpt lat="42.805282873367105" lon="12.189380807321864"><ele>585.6666666666666</ele><time>2026-04-12T14:39:43.881Z</time></trkpt><trkpt lat="42.80521438613974" lon="12.189166160764898"><ele>584.0</ele><time>2026-04-12T14:39:44.881Z</time></trkpt><trkpt lat="42.805148005806544" lon="12.188958117448667"><ele>584.0</ele><time>2026-04-12T14:39:45.881Z</time></trkpt><trkpt lat="42.80508796984916" lon="12.188767158069206"><ele>584.0</ele><time>2026-04-12T14:39:46.881Z</time></trkpt><trkpt lat="42.805039790739535" lon="12.188595749125607"><ele>584.0</ele><time>2026-04-12T14:39:47.881Z</time></trkpt><trkpt lat="42.805001080314696" lon="12.188432172766868"><ele>584.0</ele><time>2026-04-12T14:39:48.881Z</time></trkpt><trkpt lat="42.805000459219684" lon="12.18824934487485"><ele>584.0</ele><time>2026-04-12T14:39:49.881Z</time></trkpt><trkpt lat="42.80501325909211" lon="12.188068146656835"><ele>584.0</ele><time>2026-04-12T14:39:50.881Z</time></trkpt><trkpt lat="42.80503492913087" lon="12.187870535902816"><ele>584.0</ele><time>2026-04-12T14:39:51.881Z</time></trkpt><trkpt lat="42.80505599046721" lon="12.187668075298822"><ele>584.0</ele><time>2026-04-12T14:39:52.881Z</time></trkpt><trkpt lat="42.805080116250906" lon="12.187466235807031"><ele>584.25</ele><time>2026-04-12T14:39:53.881Z</time></trkpt><trkpt lat="42.80509972351544" lon="12.187263474055289"><ele>584.5</ele><time>2026-04-12T14:39:54.88Z</time></trkpt><trkpt lat="42.805112770458955" lon="12.187069706917052"><ele>584.75</ele><time>2026-04-12T14:39:55.88Z</time></trkpt><trkpt lat="42.805119835690235" lon="12.1868694835753"><ele>585.0</ele><time>2026-04-12T14:39:56.88Z</time></trkpt><trkpt lat="42.8051096221318" lon="12.186657864934569"><ele>582.6666666666666</ele><time>2026-04-12T14:39:57.88Z</time></trkpt><trkpt lat="42.80508044486234" lon="12.18644295448999"><ele>580.3333333333333</ele><time>2026-04-12T14:39:58.88Z</time></trkpt><trkpt lat="42.805044396446505" lon="12.186227292960792"><ele>578.0</ele><time>2026-04-12T14:39:59.88Z</time></trkpt><trkpt lat="42.8049995573862" lon="12.186008133735537"><ele>578.0</ele><time>2026-04-12T14:40:00.88Z</time></trkpt><trkpt lat="42.80495629723226" lon="12.185782426353196"><ele>578.0</ele><time>2026-04-12T14:40:01.88Z</time></trkpt><trkpt lat="42.804919222058466" lon="12.185547936328854"><ele>578.0</ele><time>2026-04-12T14:40:02.88Z</time></trkpt><trkpt lat="42.80488062272622" lon="12.18530937958848"><ele>575.3333333333333</ele><time>2026-04-12T14:40:03.88Z</time></trkpt><trkpt lat="42.80483890294696" lon="12.185067959105504"><ele>572.6666666666666</ele><time>2026-04-12T14:40:04.88Z</time></trkpt><trkpt lat="42.80479713854582" lon="12.184818362569446"><ele>570.0</ele><time>2026-04-12T14:40:05.88Z</time></trkpt><trkpt lat="42.80475837628727" lon="12.184583973641764"><ele>568.3333333333334</ele><time>2026-04-12T14:40:06.88Z</time></trkpt><trkpt lat="42.80471682470929" lon="12.184356377036059"><ele>566.6666666666667</ele><time>2026-04-12T14:40:07.88Z</time></trkpt><trkpt lat="42.80467703906713" lon="12.184121316879626"><ele>565.0</ele><time>2026-04-12T14:40:08.88Z</time></trkpt><trkpt lat="42.80463880244084" lon="12.183888640609757"><ele>563.25</ele><time>2026-04-12T14:40:09.88Z</time></trkpt><trkpt lat="42.804607727236075" lon="12.18366173782199"><ele>561.5</ele><time>2026-04-12T14:40:10.88Z</time></trkpt><trkpt lat="42.804585991923474" lon="12.183466181386496"><ele>559.75</ele><time>2026-04-12T14:40:11.88Z</time></trkpt><trkpt lat="42.804585270581434" lon="12.183294483051315"><ele>558.0</ele><time>2026-04-12T14:40:12.88Z</time></trkpt><trkpt lat="42.80460616753596" lon="12.183142793129775"><ele>558.0</ele><time>2026-04-12T14:40:13.88Z</time></trkpt><trkpt lat="42.8046610818048" lon="12.183004224175145"><ele>558.0</ele><time>2026-04-12T14:40:14.88Z</time></trkpt><trkpt lat="42.804747567290406" lon="12.182887798493592"><ele>558.0</ele><time>2026-04-12T14:40:15.88Z</time></trkpt><trkpt lat="42.80482923097183" lon="12.18275787602753"><ele>558.0</ele><time>2026-04-12T14:40:16.88Z</time></trkpt><trkpt lat="42.804900638277154" lon="12.182633211735801"><ele>558.0</ele><time>2026-04-12T14:40:17.879Z</time></trkpt><trkpt lat="42.804948708009675" lon="12.182494921211507"><ele>558.0</ele><time>2026-04-12T14:40:18.879Z</time></trkpt><trkpt lat="42.804965707522896" lon="12.182330487630711"><ele>558.0</ele><time>2026-04-12T14:40:19.879Z</time></trkpt><trkpt lat="42.80496535632049" lon="12.182158031965509"><ele>558.0</ele><time>2026-04-12T14:40:20.879Z</time></trkpt><trkpt lat="42.80496176867729" lon="12.18198343643769"><ele>557.75</ele><time>2026-04-12T14:40:21.879Z</time></trkpt><trkpt lat="42.804978873158575" lon="12.181810027543934"><ele>557.5</ele><time>2026-04-12T14:40:22.879Z</time></trkpt><trkpt lat="42.805017104282655" lon="12.181639805459927"><ele>557.25</ele><time>2026-04-12T14:40:23.879Z</time></trkpt><trkpt lat="42.80506608631389" lon="12.181475763438392"><ele>557.0</ele><time>2026-04-12T14:40:24.879Z</time></trkpt><trkpt lat="42.80511401095716" lon="12.181317033566037"><ele>557.0</ele><time>2026-04-12T14:40:25.879Z</time></trkpt><trkpt lat="42.805145102731366" lon="12.181156976681018"><ele>557.0</ele><time>2026-04-12T14:40:26.879Z</time></trkpt><trkpt lat="42.80514526656568" lon="12.180987866751304"><ele>557.0</ele><time>2026-04-12T14:40:27.879Z</time></trkpt><trkpt lat="42.80511602350631" lon="12.180817492998315"><ele>557.0</ele><time>2026-04-12T14:40:28.879Z</time></trkpt><trkpt lat="42.8050775268243" lon="12.18063596663928"><ele>557.5</ele><time>2026-04-12T14:40:29.879Z</time></trkpt><trkpt lat="42.80504163623606" lon="12.180442071353381"><ele>558.0</ele><time>2026-04-12T14:40:30.879Z</time></trkpt><trkpt lat="42.805018145177826" lon="12.180253361638796"><ele>558.5</ele><time>2026-04-12T14:40:31.879Z</time></trkpt><trkpt lat="42.805014736342464" lon="12.180072058153169"><ele>559.0</ele><time>2026-04-12T14:40:32.879Z</time></trkpt><trkpt lat="42.805016008261006" lon="12.179905724051267"><ele>558.0</ele><time>2026-04-12T14:40:33.879Z</time></trkpt><trkpt lat="42.804998472598946" lon="12.179768494437793"><ele>557.0</ele><time>2026-04-12T14:40:34.879Z</time></trkpt><trkpt lat="42.80495536045534" lon="12.17965225974451"><ele>556.0</ele><time>2026-04-12T14:40:35.879Z</time></trkpt><trkpt lat="42.804888483887694" lon="12.17955225011476"><ele>555.0</ele><time>2026-04-12T14:40:36.879Z</time></trkpt><trkpt lat="42.80479930758868" lon="12.179467358177412"><ele>554.0</ele><time>2026-04-12T14:40:37.879Z</time></trkpt><trkpt lat="42.80470235678177" lon="12.179387451551829"><ele>554.0</ele><time>2026-04-12T14:40:38.879Z</time></trkpt><trkpt lat="42.80460796944735" lon="12.179282594450077"><ele>554.0</ele><time>2026-04-12T14:40:39.879Z</time></trkpt><trkpt lat="42.804528041109236" lon="12.179171227663694"><ele>554.0</ele><time>2026-04-12T14:40:40.878Z</time></trkpt><trkpt lat="42.80446272297328" lon="12.179064986623208"><ele>554.0</ele><time>2026-04-12T14:40:41.878Z</time></trkpt><trkpt lat="42.804416719536974" lon="12.178964082664217"><ele>554.0</ele><time>2026-04-12T14:40:42.878Z</time></trkpt><trkpt lat="42.80440137159112" lon="12.17887168705033"><ele>554.8333333333333</ele><time>2026-04-12T14:40:43.878Z</time></trkpt><trkpt lat="42.80442842114468" lon="12.178733421689083"><ele>555.6666666666666</ele><time>2026-04-12T14:40:45.878Z</time></trkpt><trkpt lat="42.804494755872824" lon="12.17866024934144"><ele>556.5</ele><time>2026-04-12T14:40:47.878Z</time></trkpt><trkpt lat="42.80460536522332" lon="12.178590286521365"><ele>557.3333333333334</ele><time>2026-04-12T14:40:49.878Z</time></trkpt><trkpt lat="42.80467085327457" lon="12.178560004752155"><ele>558.1666666666667</ele><time>2026-04-12T14:40:50.878Z</time></trkpt><trkpt lat="42.80473702779081" lon="12.178539070995635"><ele>559.0</ele><time>2026-04-12T14:40:51.878Z</time></trkpt><trkpt lat="42.8048150723892" lon="12.178503945817267"><ele>559.0</ele><time>2026-04-12T14:40:52.878Z</time></trkpt><trkpt lat="42.80491177025487" lon="12.178459760332977"><ele>559.0</ele><time>2026-04-12T14:40:53.878Z</time></trkpt><trkpt lat="42.80501533124001" lon="12.178411528512163"><ele>559.0</ele><time>2026-04-12T14:40:54.878Z</time></trkpt><trkpt lat="42.805126842287386" lon="12.178359594081194"><ele>559.0</ele><time>2026-04-12T14:40:55.878Z</time></trkpt><trkpt lat="42.805241299295126" lon="12.17830628762056"><ele>557.5</ele><time>2026-04-12T14:40:56.881Z</time></trkpt><trkpt lat="42.80535248611991" lon="12.178232857433743"><ele>556.0</ele><time>2026-04-12T14:40:57.881Z</time></trkpt><trkpt lat="42.80547160761978" lon="12.178177735376618"><ele>554.5</ele><time>2026-04-12T14:40:58.881Z</time></trkpt><trkpt lat="42.80557851217071" lon="12.178122193554179"><ele>553.0</ele><time>2026-04-12T14:40:59.881Z</time></trkpt><trkpt lat="42.80565919620269" lon="12.178014041977358"><ele>553.0</ele><time>2026-04-12T14:41:00.881Z</time></trkpt><trkpt lat="42.805679639620216" lon="12.177867323593597"><ele>553.0</ele><time>2026-04-12T14:41:01.881Z</time></trkpt><trkpt lat="42.805665823578" lon="12.177722458209454"><ele>553.0</ele><time>2026-04-12T14:41:02.881Z</time></trkpt><trkpt lat="42.805642077330226" lon="12.177583685938236"><ele>553.0</ele><time>2026-04-12T14:41:03.88Z</time></trkpt><trkpt lat="42.805619062821464" lon="12.177431506592846"><ele>553.0</ele><time>2026-04-12T14:41:04.88Z</time></trkpt><trkpt lat="42.80560260054773" lon="12.17726349574267"><ele>554.4</ele><time>2026-04-12T14:41:05.88Z</time></trkpt><trkpt lat="42.80559354279769" lon="12.177085392916174"><ele>555.8</ele><time>2026-04-12T14:41:06.88Z</time></trkpt><trkpt lat="42.80560179713755" lon="12.176908713200943"><ele>557.2</ele><time>2026-04-12T14:41:07.88Z</time></trkpt><trkpt lat="42.80562402231188" lon="12.176786277805606"><ele>558.6</ele><time>2026-04-12T14:41:08.881Z</time></trkpt><trkpt lat="42.80565739540778" lon="12.176666984321189"><ele>560.0</ele><time>2026-04-12T14:41:09.88Z</time></trkpt><trkpt lat="42.80569286879064" lon="12.17651987570382"><ele>561.6666666666666</ele><time>2026-04-12T14:41:10.88Z</time></trkpt><trkpt lat="42.80577644802681" lon="12.17644945108969"><ele>563.3333333333333</ele><time>2026-04-12T14:41:11.88Z</time></trkpt><trkpt lat="42.805872406798" lon="12.176440843217696"><ele>565.0</ele><time>2026-04-12T14:41:12.88Z</time></trkpt><trkpt lat="42.80594850840689" lon="12.176475533675875"><ele>566.6666666666666</ele><time>2026-04-12T14:41:13.88Z</time></trkpt><trkpt lat="42.806030480448946" lon="12.176520438578635"><ele>568.3333333333334</ele><time>2026-04-12T14:41:14.88Z</time></trkpt><trkpt lat="42.8061081304325" lon="12.17656704303935"><ele>570.0</ele><time>2026-04-12T14:41:15.88Z</time></trkpt><trkpt lat="42.80619342088908" lon="12.176608709828095"><ele>564.6</ele><time>2026-04-12T14:41:16.88Z</time></trkpt><trkpt lat="42.80628665754077" lon="12.176583496324458"><ele>559.2</ele><time>2026-04-12T14:41:17.88Z</time></trkpt><trkpt lat="42.806362604568434" lon="12.176510894659708"><ele>553.8</ele><time>2026-04-12T14:41:18.88Z</time></trkpt><trkpt lat="42.80643115143398" lon="12.176414758486043"><ele>548.4</ele><time>2026-04-12T14:41:19.88Z</time></trkpt><trkpt lat="42.80645356490818" lon="12.176258440726203"><ele>543.0</ele><time>2026-04-12T14:41:20.88Z</time></trkpt><trkpt lat="42.80645648048063" lon="12.176093759027781"><ele>543.0</ele><time>2026-04-12T14:41:21.88Z</time></trkpt><trkpt lat="42.80645028198443" lon="12.175937890654355"><ele>543.0</ele><time>2026-04-12T14:41:22.88Z</time></trkpt><trkpt lat="42.80642758757215" lon="12.175782439903466"><ele>543.0</ele><time>2026-04-12T14:41:23.88Z</time></trkpt><trkpt lat="42.80637951266376" lon="12.175627124770608"><ele>543.0</ele><time>2026-04-12T14:41:24.88Z</time></trkpt><trkpt lat="42.80630688240965" lon="12.175484702643315"><ele>539.0</ele><time>2026-04-12T14:41:25.88Z</time></trkpt><trkpt lat="42.80621255831117" lon="12.175339914237886"><ele>535.0</ele><time>2026-04-12T14:41:26.879Z</time></trkpt><trkpt lat="42.80609903580533" lon="12.175202383860253"><ele>531.0</ele><time>2026-04-12T14:41:27.879Z</time></trkpt><trkpt lat="42.80596997238229" lon="12.175071681778169"><ele>533.6666666666666</ele><time>2026-04-12T14:41:28.879Z</time></trkpt><trkpt lat="42.805839999117204" lon="12.17494921711118"><ele>536.3333333333333</ele><time>2026-04-12T14:41:29.879Z</time></trkpt><trkpt lat="42.80571443214429" lon="12.174836062820749"><ele>539.0</ele><time>2026-04-12T14:41:30.879Z</time></trkpt><trkpt lat="42.805589606508825" lon="12.174730203129409"><ele>539.0</ele><time>2026-04-12T14:41:31.879Z</time></trkpt><trkpt lat="42.80546140972588" lon="12.174632318273568"><ele>539.0</ele><time>2026-04-12T14:41:32.879Z</time></trkpt><trkpt lat="42.805339033904076" lon="12.174533394910002"><ele>539.0</ele><time>2026-04-12T14:41:33.879Z</time></trkpt><trkpt lat="42.80522590144177" lon="12.174454661724909"><ele>539.0</ele><time>2026-04-12T14:41:34.879Z</time></trkpt><trkpt lat="42.80513978972115" lon="12.174354035076831"><ele>540.75</ele><time>2026-04-12T14:41:35.879Z</time></trkpt><trkpt lat="42.80507740355514" lon="12.174224578657716"><ele>542.5</ele><time>2026-04-12T14:41:36.879Z</time></trkpt><trkpt lat="42.80504290424978" lon="12.174073787869352"><ele>544.25</ele><time>2026-04-12T14:41:37.879Z</time></trkpt><trkpt lat="42.80503390420351" lon="12.173912043950038"><ele>546.0</ele><time>2026-04-12T14:41:38.879Z</time></trkpt><trkpt lat="42.80503083909075" lon="12.17375674730681"><ele>546.0</ele><time>2026-04-12T14:41:39.879Z</time></trkpt><trkpt lat="42.80503320904892" lon="12.173600973598445"><ele>546.0</ele><time>2026-04-12T14:41:40.879Z</time></trkpt><trkpt lat="42.80503133066054" lon="12.173441632441786"><ele>546.0</ele><time>2026-04-12T14:41:41.879Z</time></trkpt><trkpt lat="42.80502243348681" lon="12.173280949797386"><ele>546.0</ele><time>2026-04-12T14:41:42.879Z</time></trkpt><trkpt lat="42.805005857465765" lon="12.17311383540366"><ele>544.5</ele><time>2026-04-12T14:41:43.879Z</time></trkpt><trkpt lat="42.80497289488422" lon="12.172946738980409"><ele>543.0</ele><time>2026-04-12T14:41:44.879Z</time></trkpt><trkpt lat="42.80492938517854" lon="12.172775942170114"><ele>541.5</ele><time>2026-04-12T14:41:45.879Z</time></trkpt><trkpt lat="42.804869196894494" lon="12.172602041198807"><ele>540.0</ele><time>2026-04-12T14:41:46.879Z</time></trkpt><trkpt lat="42.804797675903664" lon="12.172427002514981"><ele>540.75</ele><time>2026-04-12T14:41:47.879Z</time></trkpt><trkpt lat="42.80473209386437" lon="12.17226000753078"><ele>541.5</ele><time>2026-04-12T14:41:48.879Z</time></trkpt><trkpt lat="42.80467112541493" lon="12.17209222817635"><ele>542.25</ele><time>2026-04-12T14:41:49.879Z</time></trkpt><trkpt lat="42.80461796509985" lon="12.171925361086728"><ele>543.0</ele><time>2026-04-12T14:41:50.878Z</time></trkpt><trkpt lat="42.80457261090217" lon="12.171743506774554"><ele>543.0</ele><time>2026-04-12T14:41:51.878Z</time></trkpt><trkpt lat="42.80453254132769" lon="12.171552897040979"><ele>543.0</ele><time>2026-04-12T14:41:52.878Z</time></trkpt><trkpt lat="42.80448895102563" lon="12.171359297621702"><ele>543.0</ele><time>2026-04-12T14:41:53.878Z</time></trkpt><trkpt lat="42.80444111269224" lon="12.171174433137798"><ele>543.0</ele><time>2026-04-12T14:41:54.878Z</time></trkpt><trkpt lat="42.80440460345482" lon="12.170986016087786"><ele>543.75</ele><time>2026-04-12T14:41:55.878Z</time></trkpt><trkpt lat="42.80434607018013" lon="12.170807574697276"><ele>544.5</ele><time>2026-04-12T14:41:56.878Z</time></trkpt><trkpt lat="42.80428331087361" lon="12.170627131928384"><ele>545.25</ele><time>2026-04-12T14:41:57.878Z</time></trkpt><trkpt lat="42.80422471066068" lon="12.170449890628799"><ele>546.0</ele><time>2026-04-12T14:41:58.878Z</time></trkpt><trkpt lat="42.80416714697747" lon="12.170276057834686"><ele>541.0</ele><time>2026-04-12T14:41:59.878Z</time></trkpt><trkpt lat="42.804115169008654" lon="12.170104452657093"><ele>536.0</ele><time>2026-04-12T14:42:00.878Z</time></trkpt><trkpt lat="42.80405918201503" lon="12.16992889391159"><ele>531.0</ele><time>2026-04-12T14:42:01.878Z</time></trkpt><trkpt lat="42.80399975029335" lon="12.169750127381468"><ele>526.0</ele><time>2026-04-12T14:42:02.878Z</time></trkpt><trkpt lat="42.80394066728565" lon="12.169565861948016"><ele>525.5</ele><time>2026-04-12T14:42:03.878Z</time></trkpt><trkpt lat="42.80388172237678" lon="12.169385005532561"><ele>525.0</ele><time>2026-04-12T14:42:04.878Z</time></trkpt><trkpt lat="42.80382368654515" lon="12.169209969787122"><ele>524.5</ele><time>2026-04-12T14:42:05.878Z</time></trkpt><trkpt lat="42.80376720797178" lon="12.169036271740557"><ele>524.0</ele><time>2026-04-12T14:42:06.878Z</time></trkpt><trkpt lat="42.8037117516294" lon="12.16886378749229"><ele>523.25</ele><time>2026-04-12T14:42:07.878Z</time></trkpt><trkpt lat="42.80365503395787" lon="12.16868869173275"><ele>522.5</ele><time>2026-04-12T14:42:08.878Z</time></trkpt><trkpt lat="42.80359946631688" lon="12.16850952431689"><ele>521.75</ele><time>2026-04-12T14:42:09.878Z</time></trkpt><trkpt lat="42.80354090421583" lon="12.16832765154988"><ele>521.0</ele><time>2026-04-12T14:42:10.878Z</time></trkpt><trkpt lat="42.803478108225896" lon="12.168145988191672"><ele>517.25</ele><time>2026-04-12T14:42:11.878Z</time></trkpt><trkpt lat="42.803410177173674" lon="12.167979262569586"><ele>513.5</ele><time>2026-04-12T14:42:12.878Z</time></trkpt><trkpt lat="42.803329851450286" lon="12.167816680785728"><ele>509.75</ele><time>2026-04-12T14:42:13.878Z</time></trkpt><trkpt lat="42.803236743861895" lon="12.167673878460397"><ele>506.0</ele><time>2026-04-12T14:42:14.877Z</time></trkpt><trkpt lat="42.80313827202856" lon="12.167528665805053"><ele>506.0</ele><time>2026-04-12T14:42:15.877Z</time></trkpt><trkpt lat="42.80305744265007" lon="12.167376278721314"><ele>506.0</ele><time>2026-04-12T14:42:16.877Z</time></trkpt><trkpt lat="42.802968903064716" lon="12.167236448387959"><ele>506.0</ele><time>2026-04-12T14:42:17.877Z</time></trkpt><trkpt lat="42.802879890995" lon="12.167099516573622"><ele>506.0</ele><time>2026-04-12T14:42:18.877Z</time></trkpt><trkpt lat="42.802793229367744" lon="12.166966520276198"><ele>505.0</ele><time>2026-04-12T14:42:19.877Z</time></trkpt><trkpt lat="42.80270930450402" lon="12.166831515144246"><ele>504.0</ele><time>2026-04-12T14:42:20.877Z</time></trkpt><trkpt lat="42.802641987238715" lon="12.166687155071033"><ele>503.0</ele><time>2026-04-12T14:42:21.877Z</time></trkpt><trkpt lat="42.80259772953617" lon="12.166535615467927"><ele>502.0</ele><time>2026-04-12T14:42:22.877Z</time></trkpt><trkpt lat="42.802571098058486" lon="12.166389070816248"><ele>500.6</ele><time>2026-04-12T14:42:23.877Z</time></trkpt><trkpt lat="42.80253594301314" lon="12.166253054721324"><ele>499.20000000000005</ele><time>2026-04-12T14:42:24.877Z</time></trkpt><trkpt lat="42.80252318853382" lon="12.166123745176453"><ele>497.8</ele><time>2026-04-12T14:42:25.877Z</time></trkpt><trkpt lat="42.80252066218244" lon="12.166002924180926"><ele>496.4</ele><time>2026-04-12T14:42:26.877Z</time></trkpt><trkpt lat="42.80251501270343" lon="12.165888159600511"><ele>495.0</ele><time>2026-04-12T14:42:27.877Z</time></trkpt><trkpt lat="42.802508409347155" lon="12.165781059394902"><ele>494.3333333333333</ele><time>2026-04-12T14:42:28.877Z</time></trkpt><trkpt lat="42.802503115245905" lon="12.16568056976742"><ele>493.66666666666663</ele><time>2026-04-12T14:42:29.877Z</time></trkpt><trkpt lat="42.802496448480504" lon="12.165572686525998"><ele>493.0</ele><time>2026-04-12T14:42:30.877Z</time></trkpt><trkpt lat="42.802515788262816" lon="12.165462554770173"><ele>492.3333333333333</ele><time>2026-04-12T14:42:31.877Z</time></trkpt><trkpt lat="42.80251326813264" lon="12.165344995387498"><ele>491.66666666666663</ele><time>2026-04-12T14:42:32.877Z</time></trkpt><trkpt lat="42.80253394956986" lon="12.165226081739831"><ele>491.0</ele><time>2026-04-12T14:42:33.877Z</time></trkpt><trkpt lat="42.802560469630215" lon="12.1650980293772"><ele>491.0</ele><time>2026-04-12T14:42:34.877Z</time></trkpt><trkpt lat="42.80258396903427" lon="12.164958469554863"><ele>491.0</ele><time>2026-04-12T14:42:35.877Z</time></trkpt><trkpt lat="42.80260672128338" lon="12.164813274349783"><ele>491.0</ele><time>2026-04-12T14:42:36.877Z</time></trkpt><trkpt lat="42.80263315749878" lon="12.164664940873946"><ele>491.0</ele><time>2026-04-12T14:42:37.877Z</time></trkpt><trkpt lat="42.80266236986785" lon="12.164511350102712"><ele>491.0</ele><time>2026-04-12T14:42:38.876Z</time></trkpt><trkpt lat="42.802691070767644" lon="12.164349056245918"><ele>489.0</ele><time>2026-04-12T14:42:39.876Z</time></trkpt><trkpt lat="42.80271876446655" lon="12.164182163214392"><ele>487.0</ele><time>2026-04-12T14:42:40.876Z</time></trkpt><trkpt lat="42.80274652810586" lon="12.164021256402838"><ele>485.0</ele><time>2026-04-12T14:42:41.876Z</time></trkpt><trkpt lat="42.802771882952506" lon="12.163849492853975"><ele>483.0</ele><time>2026-04-12T14:42:42.876Z</time></trkpt><trkpt lat="42.80278733589141" lon="12.163679592095345"><ele>482.75</ele><time>2026-04-12T14:42:43.876Z</time></trkpt><trkpt lat="42.80277246536928" lon="12.163506884583601"><ele>482.5</ele><time>2026-04-12T14:42:44.876Z</time></trkpt><trkpt lat="42.80272733524097" lon="12.163329392144677"><ele>482.25</ele><time>2026-04-12T14:42:45.876Z</time></trkpt><trkpt lat="42.802663135872045" lon="12.163164356794173"><ele>482.0</ele><time>2026-04-12T14:42:46.876Z</time></trkpt><trkpt lat="42.802598711772134" lon="12.162994776491832"><ele>482.25</ele><time>2026-04-12T14:42:47.876Z</time></trkpt><trkpt lat="42.802535893750616" lon="12.162824262439665"><ele>482.5</ele><time>2026-04-12T14:42:48.876Z</time></trkpt><trkpt lat="42.8024813856329" lon="12.162642100848212"><ele>482.75</ele><time>2026-04-12T14:42:49.876Z</time></trkpt><trkpt lat="42.80240403610498" lon="12.16248813471709"><ele>483.0</ele><time>2026-04-12T14:42:50.876Z</time></trkpt><trkpt lat="42.80234356794845" lon="12.162327019434954"><ele>483.0</ele><time>2026-04-12T14:42:51.876Z</time></trkpt><trkpt lat="42.80227913933416" lon="12.162171184250807"><ele>483.0</ele><time>2026-04-12T14:42:52.876Z</time></trkpt><trkpt lat="42.80221713766171" lon="12.16201905644504"><ele>483.0</ele><time>2026-04-12T14:42:53.876Z</time></trkpt><trkpt lat="42.80216867936426" lon="12.161860686814995"><ele>483.0</ele><time>2026-04-12T14:42:54.876Z</time></trkpt><trkpt lat="42.802105644646495" lon="12.161705534696955"><ele>483.0</ele><time>2026-04-12T14:42:55.876Z</time></trkpt><trkpt lat="42.80204864504781" lon="12.161542928706197"><ele>483.0</ele><time>2026-04-12T14:42:56.876Z</time></trkpt><trkpt lat="42.80199618546587" lon="12.161383066056397"><ele>483.0</ele><time>2026-04-12T14:42:57.876Z</time></trkpt><trkpt lat="42.80193375209006" lon="12.161222652199568"><ele>483.0</ele><time>2026-04-12T14:42:58.876Z</time></trkpt><trkpt lat="42.80187069917841" lon="12.16105916589859"><ele>483.5</ele><time>2026-04-12T14:42:59.876Z</time></trkpt><trkpt lat="42.80180291825273" lon="12.160886273498166"><ele>484.0</ele><time>2026-04-12T14:43:00.876Z</time></trkpt><trkpt lat="42.801741906438764" lon="12.160727633718642"><ele>484.5</ele><time>2026-04-12T14:43:01.876Z</time></trkpt><trkpt lat="42.801683911431084" lon="12.160574102017495"><ele>485.0</ele><time>2026-04-12T14:43:02.878Z</time></trkpt><trkpt lat="42.80162641876815" lon="12.160428236996792"><ele>484.0</ele><time>2026-04-12T14:43:03.878Z</time></trkpt><trkpt lat="42.80156674895358" lon="12.160280193593827"><ele>483.0</ele><time>2026-04-12T14:43:04.878Z</time></trkpt><trkpt lat="42.801506065945055" lon="12.160143905590177"><ele>482.0</ele><time>2026-04-12T14:43:05.878Z</time></trkpt><trkpt lat="42.80144272660848" lon="12.160000433081695"><ele>481.0</ele><time>2026-04-12T14:43:06.878Z</time></trkpt><trkpt lat="42.801388453312335" lon="12.15986338415446"><ele>480.20000000000005</ele><time>2026-04-12T14:43:07.878Z</time></trkpt><trkpt lat="42.801340235570514" lon="12.159727469114111"><ele>479.40000000000003</ele><time>2026-04-12T14:43:08.878Z</time></trkpt><trkpt lat="42.80129325960696" lon="12.159596098690105"><ele>478.6</ele><time>2026-04-12T14:43:09.878Z</time></trkpt><trkpt lat="42.80124873100142" lon="12.159466429463532"><ele>477.8</ele><time>2026-04-12T14:43:10.878Z</time></trkpt><trkpt lat="42.80120133297308" lon="12.159344615005796"><ele>477.0</ele><time>2026-04-12T14:43:11.878Z</time></trkpt><trkpt lat="42.801158826251644" lon="12.159232885121353"><ele>477.0</ele><time>2026-04-12T14:43:12.878Z</time></trkpt><trkpt lat="42.801124084924986" lon="12.159144128605854"><ele>477.00000000000006</ele><time>2026-04-12T14:43:13.878Z</time></trkpt><trkpt lat="42.801073183517246" lon="12.15902164566336"><ele>477.00000000000006</ele><time>2026-04-12T14:43:15.878Z</time></trkpt><trkpt lat="42.80101309947404" lon="12.158870168762789"><ele>477.0</ele><time>2026-04-12T14:43:17.878Z</time></trkpt><trkpt lat="42.800945093097155" lon="12.158710498215218"><ele>477.0</ele><time>2026-04-12T14:43:19.877Z</time></trkpt><trkpt lat="42.80091322098571" lon="12.158625043255586"><ele>478.8</ele><time>2026-04-12T14:43:20.877Z</time></trkpt><trkpt lat="42.8008711033927" lon="12.158527431495639"><ele>480.6</ele><time>2026-04-12T14:43:21.877Z</time></trkpt><trkpt lat="42.80082629164769" lon="12.158415863209022"><ele>482.40000000000003</ele><time>2026-04-12T14:43:22.877Z</time></trkpt><trkpt lat="42.800776625193656" lon="12.158295209316721"><ele>484.20000000000005</ele><time>2026-04-12T14:43:23.877Z</time></trkpt><trkpt lat="42.800721689848764" lon="12.158153257686902"><ele>486.0</ele><time>2026-04-12T14:43:24.877Z</time></trkpt><trkpt lat="42.800670936718724" lon="12.158010927505574"><ele>486.75</ele><time>2026-04-12T14:43:25.877Z</time></trkpt><trkpt lat="42.800609819832005" lon="12.157862216475761"><ele>487.5</ele><time>2026-04-12T14:43:26.877Z</time></trkpt><trkpt lat="42.800547971639034" lon="12.157708377962027"><ele>488.25</ele><time>2026-04-12T14:43:27.877Z</time></trkpt><trkpt lat="42.80047921368496" lon="12.157547562998415"><ele>489.0</ele><time>2026-04-12T14:43:28.877Z</time></trkpt><trkpt lat="42.800413894823485" lon="12.157385582959966"><ele>490.0</ele><time>2026-04-12T14:43:29.877Z</time></trkpt><trkpt lat="42.8003548784668" lon="12.157236778906244"><ele>491.0</ele><time>2026-04-12T14:43:30.877Z</time></trkpt><trkpt lat="42.80030395266814" lon="12.157092915491669"><ele>492.0</ele><time>2026-04-12T14:43:31.877Z</time></trkpt><trkpt lat="42.80022949677318" lon="12.156978580355107"><ele>493.0</ele><time>2026-04-12T14:43:32.877Z</time></trkpt><trkpt lat="42.800148388790284" lon="12.156891229115853"><ele>493.0</ele><time>2026-04-12T14:43:33.877Z</time></trkpt><trkpt lat="42.80004957058764" lon="12.1568276793123"><ele>493.0</ele><time>2026-04-12T14:43:34.877Z</time></trkpt><trkpt lat="42.799942858103506" lon="12.156786547758296"><ele>493.0</ele><time>2026-04-12T14:43:35.877Z</time></trkpt><trkpt lat="42.79983109422686" lon="12.156744365608663"><ele>493.0</ele><time>2026-04-12T14:43:36.877Z</time></trkpt><trkpt lat="42.79971296656018" lon="12.156705101629724"><ele>493.0</ele><time>2026-04-12T14:43:37.877Z</time></trkpt><trkpt lat="42.79958020861467" lon="12.156662969950283"><ele>493.0</ele><time>2026-04-12T14:43:38.877Z</time></trkpt><trkpt lat="42.79945749465517" lon="12.156624025773944"><ele>493.0</ele><time>2026-04-12T14:43:39.877Z</time></trkpt><trkpt lat="42.79932636081398" lon="12.156582409510353"><ele>493.0</ele><time>2026-04-12T14:43:40.877Z</time></trkpt><trkpt lat="42.799208095541175" lon="12.156544877168546"><ele>491.0</ele><time>2026-04-12T14:43:41.876Z</time></trkpt><trkpt lat="42.79909268052874" lon="12.156508249382481"><ele>488.99999999999994</ele><time>2026-04-12T14:43:42.876Z</time></trkpt><trkpt lat="42.79898053631624" lon="12.156490666977874"><ele>486.99999999999994</ele><time>2026-04-12T14:43:43.876Z</time></trkpt><trkpt lat="42.79887589202068" lon="12.156460672482268"><ele>485.0</ele><time>2026-04-12T14:43:44.876Z</time></trkpt><trkpt lat="42.798772818927695" lon="12.156413656531996"><ele>483.0</ele><time>2026-04-12T14:43:45.876Z</time></trkpt><trkpt lat="42.79866262790063" lon="12.156392582291037"><ele>483.0</ele><time>2026-04-12T14:43:46.876Z</time></trkpt><trkpt lat="42.798549590303" lon="12.156382501191063"><ele>483.0</ele><time>2026-04-12T14:43:47.876Z</time></trkpt><trkpt lat="42.79843527831347" lon="12.156392152279368"><ele>483.0</ele><time>2026-04-12T14:43:48.876Z</time></trkpt><trkpt lat="42.79832460689101" lon="12.156368387429156"><ele>483.0</ele><time>2026-04-12T14:43:49.876Z</time></trkpt><trkpt lat="42.7982131532779" lon="12.156347180349707"><ele>483.2</ele><time>2026-04-12T14:43:50.876Z</time></trkpt><trkpt lat="42.79809965761967" lon="12.156325773271936"><ele>483.4</ele><time>2026-04-12T14:43:51.876Z</time></trkpt><trkpt lat="42.79799051785639" lon="12.15630980951973"><ele>483.59999999999997</ele><time>2026-04-12T14:43:52.876Z</time></trkpt><trkpt lat="42.7978860406787" lon="12.156264873095523"><ele>483.79999999999995</ele><time>2026-04-12T14:43:53.876Z</time></trkpt><trkpt lat="42.79777147492406" lon="12.156254610879065"><ele>484.0</ele><time>2026-04-12T14:43:54.876Z</time></trkpt><trkpt lat="42.79765738153904" lon="12.156223095143945"><ele>484.0</ele><time>2026-04-12T14:43:55.876Z</time></trkpt><trkpt lat="42.797549411630904" lon="12.156202397416736"><ele>484.0</ele><time>2026-04-12T14:43:56.876Z</time></trkpt><trkpt lat="42.79743670332183" lon="12.156185966633107"><ele>484.0</ele><time>2026-04-12T14:43:57.876Z</time></trkpt><trkpt lat="42.797326661026624" lon="12.156152964624768"><ele>484.0</ele><time>2026-04-12T14:43:58.876Z</time></trkpt><trkpt lat="42.797211829555046" lon="12.156154386383584"><ele>484.0</ele><time>2026-04-12T14:43:59.876Z</time></trkpt><trkpt lat="42.79709956455438" lon="12.156151458765027"><ele>484.0</ele><time>2026-04-12T14:44:00.876Z</time></trkpt><trkpt lat="42.79698712550441" lon="12.156152772646088"><ele>484.0</ele><time>2026-04-12T14:44:01.876Z</time></trkpt><trkpt lat="42.79686816699182" lon="12.15616922063327"><ele>484.0</ele><time>2026-04-12T14:44:02.876Z</time></trkpt><trkpt lat="42.796751781838005" lon="12.15620948322682"><ele>483.75</ele><time>2026-04-12T14:44:03.876Z</time></trkpt><trkpt lat="42.796635935281145" lon="12.156262242698489"><ele>483.5</ele><time>2026-04-12T14:44:04.876Z</time></trkpt><trkpt lat="42.79651982906465" lon="12.156314146541835"><ele>483.25</ele><time>2026-04-12T14:44:05.875Z</time></trkpt><trkpt lat="42.796400949124035" lon="12.156362409809741"><ele>483.0</ele><time>2026-04-12T14:44:06.875Z</time></trkpt><trkpt lat="42.79628142227345" lon="12.156417002182618"><ele>483.0</ele><time>2026-04-12T14:44:07.875Z</time></trkpt><trkpt lat="42.79615811246048" lon="12.156465894226752"><ele>483.0</ele><time>2026-04-12T14:44:08.875Z</time></trkpt><trkpt lat="42.796038063259644" lon="12.156520875364677"><ele>483.0</ele><time>2026-04-12T14:44:09.875Z</time></trkpt><trkpt lat="42.79591607189445" lon="12.156555811350662"><ele>483.0</ele><time>2026-04-12T14:44:10.875Z</time></trkpt><trkpt lat="42.795788546476196" lon="12.156573524889534"><ele>481.75</ele><time>2026-04-12T14:44:11.875Z</time></trkpt><trkpt lat="42.79565603342309" lon="12.156565181219294"><ele>480.5</ele><time>2026-04-12T14:44:12.875Z</time></trkpt><trkpt lat="42.795523393286516" lon="12.156545982088158"><ele>479.25</ele><time>2026-04-12T14:44:13.875Z</time></trkpt><trkpt lat="42.79538546141961" lon="12.156522200147219"><ele>478.0</ele><time>2026-04-12T14:44:14.875Z</time></trkpt><trkpt lat="42.79525879758603" lon="12.156478301157051"><ele>477.5</ele><time>2026-04-12T14:44:15.875Z</time></trkpt><trkpt lat="42.7951280630975" lon="12.156445536036538"><ele>477.0</ele><time>2026-04-12T14:44:16.875Z</time></trkpt><trkpt lat="42.795001564724394" lon="12.156425149979096"><ele>476.5</ele><time>2026-04-12T14:44:17.875Z</time></trkpt><trkpt lat="42.794883323772034" lon="12.156364550039715"><ele>476.0</ele><time>2026-04-12T14:44:18.875Z</time></trkpt><trkpt lat="42.79476340408836" lon="12.156296298849933"><ele>476.0</ele><time>2026-04-12T14:44:19.875Z</time></trkpt><trkpt lat="42.79464628967676" lon="12.156211241963215"><ele>476.0</ele><time>2026-04-12T14:44:20.875Z</time></trkpt><trkpt lat="42.79453439503948" lon="12.156114419629512"><ele>476.0</ele><time>2026-04-12T14:44:21.875Z</time></trkpt><trkpt lat="42.794419962390016" lon="12.15600874120963"><ele>476.0</ele><time>2026-04-12T14:44:22.875Z</time></trkpt><trkpt lat="42.79430552886782" lon="12.1559011397922"><ele>475.25</ele><time>2026-04-12T14:44:23.875Z</time></trkpt><trkpt lat="42.79419679856373" lon="12.155792505793983"><ele>474.5</ele><time>2026-04-12T14:44:24.875Z</time></trkpt><trkpt lat="42.79408783568661" lon="12.155689072399019"><ele>473.75</ele><time>2026-04-12T14:44:25.875Z</time></trkpt><trkpt lat="42.79398435549505" lon="12.15558074133715"><ele>473.0</ele><time>2026-04-12T14:44:26.875Z</time></trkpt><trkpt lat="42.79388101500086" lon="12.155478473061732"><ele>473.0</ele><time>2026-04-12T14:44:27.875Z</time></trkpt><trkpt lat="42.79378061401663" lon="12.155383455857063"><ele>473.0</ele><time>2026-04-12T14:44:28.875Z</time></trkpt><trkpt lat="42.79369219316152" lon="12.15527815865383"><ele>473.0</ele><time>2026-04-12T14:44:29.874Z</time></trkpt><trkpt lat="42.79359492787678" lon="12.155196372103193"><ele>473.0</ele><time>2026-04-12T14:44:30.874Z</time></trkpt><trkpt lat="42.793508405149346" lon="12.15510691127422"><ele>473.2</ele><time>2026-04-12T14:44:31.874Z</time></trkpt><trkpt lat="42.7934249669407" lon="12.155019231015084"><ele>473.4</ele><time>2026-04-12T14:44:32.874Z</time></trkpt><trkpt lat="42.793346652695554" lon="12.154928568349463"><ele>473.59999999999997</ele><time>2026-04-12T14:44:33.874Z</time></trkpt><trkpt lat="42.79326150279277" lon="12.154819510620918"><ele>473.79999999999995</ele><time>2026-04-12T14:44:34.874Z</time></trkpt><trkpt lat="42.793193311766544" lon="12.154707277232577"><ele>474.0</ele><time>2026-04-12T14:44:35.874Z</time></trkpt><trkpt lat="42.79313782363499" lon="12.1545811797842"><ele>474.0</ele><time>2026-04-12T14:44:36.874Z</time></trkpt><trkpt lat="42.79308953902905" lon="12.154454640192931"><ele>474.0</ele><time>2026-04-12T14:44:37.874Z</time></trkpt><trkpt lat="42.79305204747675" lon="12.154315511837448"><ele>474.0</ele><time>2026-04-12T14:44:38.874Z</time></trkpt><trkpt lat="42.79296666736234" lon="12.15420916478588"><ele>474.0</ele><time>2026-04-12T14:44:39.874Z</time></trkpt><trkpt lat="42.792881644210226" lon="12.154094180339342"><ele>474.0</ele><time>2026-04-12T14:44:40.874Z</time></trkpt><trkpt lat="42.79277993909388" lon="12.154010738646777"><ele>473.0</ele><time>2026-04-12T14:44:41.874Z</time></trkpt><trkpt lat="42.792665162257094" lon="12.153924924398138"><ele>472.0</ele><time>2026-04-12T14:44:42.874Z</time></trkpt><trkpt lat="42.79254946439972" lon="12.15384246639503"><ele>471.0</ele><time>2026-04-12T14:44:43.874Z</time></trkpt><trkpt lat="42.79242537618722" lon="12.153760564009717"><ele>470.0</ele><time>2026-04-12T14:44:44.874Z</time></trkpt><trkpt lat="42.79229491908951" lon="12.153682240419787"><ele>470.0</ele><time>2026-04-12T14:44:45.874Z</time></trkpt><trkpt lat="42.792163116326584" lon="12.153592851700681"><ele>470.0</ele><time>2026-04-12T14:44:46.874Z</time></trkpt><trkpt lat="42.792033629934686" lon="12.153476256803168"><ele>470.0</ele><time>2026-04-12T14:44:47.874Z</time></trkpt><trkpt lat="42.79188959031841" lon="12.153380796430515"><ele>469.66666666666663</ele><time>2026-04-12T14:44:48.874Z</time></trkpt><trkpt lat="42.79174471195085" lon="12.153281883799801"><ele>469.33333333333337</ele><time>2026-04-12T14:44:49.874Z</time></trkpt><trkpt lat="42.79160533743824" lon="12.153192103749474"><ele>469.0</ele><time>2026-04-12T14:44:50.874Z</time></trkpt><trkpt lat="42.79146856444543" lon="12.153100068724479"><ele>469.0</ele><time>2026-04-12T14:44:51.874Z</time></trkpt><trkpt lat="42.79132752392237" lon="12.153002979942485"><ele>469.0</ele><time>2026-04-12T14:44:52.873Z</time></trkpt><trkpt lat="42.791179079991636" lon="12.152891423874852"><ele>469.0</ele><time>2026-04-12T14:44:53.873Z</time></trkpt><trkpt lat="42.79103524539425" lon="12.15277664342505"><ele>469.6666666666667</ele><time>2026-04-12T14:44:54.873Z</time></trkpt><trkpt lat="42.790897160124146" lon="12.152656978042604"><ele>470.33333333333337</ele><time>2026-04-12T14:44:55.873Z</time></trkpt><trkpt lat="42.790768347455895" lon="12.152547008573887"><ele>471.0</ele><time>2026-04-12T14:44:56.873Z</time></trkpt><trkpt lat="42.790636557886394" lon="12.152441938617137"><ele>470.25</ele><time>2026-04-12T14:44:57.873Z</time></trkpt><trkpt lat="42.79049463449272" lon="12.152369804146172"><ele>469.5</ele><time>2026-04-12T14:44:58.873Z</time></trkpt><trkpt lat="42.79034955102291" lon="12.152337671348885"><ele>468.75</ele><time>2026-04-12T14:44:59.873Z</time></trkpt><trkpt lat="42.79019972487734" lon="12.152334761847955"><ele>468.0</ele><time>2026-04-12T14:45:00.873Z</time></trkpt><trkpt lat="42.790051203115" lon="12.152344690711395"><ele>468.0</ele><time>2026-04-12T14:45:01.873Z</time></trkpt><trkpt lat="42.789906593743126" lon="12.152353820581567"><ele>468.0</ele><time>2026-04-12T14:45:02.873Z</time></trkpt><trkpt lat="42.7897644547891" lon="12.152363926895848"><ele>468.0</ele><time>2026-04-12T14:45:03.873Z</time></trkpt><trkpt lat="42.78962613658218" lon="12.152361315953726"><ele>468.0</ele><time>2026-04-12T14:45:04.873Z</time></trkpt><trkpt lat="42.78949119008486" lon="12.152334591431126"><ele>468.0</ele><time>2026-04-12T14:45:05.873Z</time></trkpt><trkpt lat="42.789355768358334" lon="12.152296879176612"><ele>468.0</ele><time>2026-04-12T14:45:06.873Z</time></trkpt><trkpt lat="42.78922604449136" lon="12.15225449463364"><ele>468.0</ele><time>2026-04-12T14:45:07.873Z</time></trkpt><trkpt lat="42.789099337336" lon="12.15220028709571"><ele>468.0</ele><time>2026-04-12T14:45:08.875Z</time></trkpt><trkpt lat="42.78897827226176" lon="12.15214825947765"><ele>467.75</ele><time>2026-04-12T14:45:09.875Z</time></trkpt><trkpt lat="42.78884896725769" lon="12.152104302941149"><ele>467.5</ele><time>2026-04-12T14:45:10.875Z</time></trkpt><trkpt lat="42.7887152388539" lon="12.152065048013"><ele>467.25</ele><time>2026-04-12T14:45:11.875Z</time></trkpt><trkpt lat="42.78858596920164" lon="12.152024495095931"><ele>467.0</ele><time>2026-04-12T14:45:12.876Z</time></trkpt><trkpt lat="42.78846006938222" lon="12.1519803149226"><ele>465.0</ele><time>2026-04-12T14:45:13.876Z</time></trkpt><trkpt lat="42.78833622902515" lon="12.151934067764206"><ele>463.0</ele><time>2026-04-12T14:45:14.875Z</time></trkpt><trkpt lat="42.78820996275486" lon="12.151890488393407"><ele>461.0</ele><time>2026-04-12T14:45:15.875Z</time></trkpt><trkpt lat="42.788085434962284" lon="12.151847074933261"><ele>459.0</ele><time>2026-04-12T14:45:16.875Z</time></trkpt><trkpt lat="42.787960322268056" lon="12.151799891898756"><ele>459.0</ele><time>2026-04-12T14:45:17.875Z</time></trkpt><trkpt lat="42.78783910830725" lon="12.151747437002955"><ele>459.0</ele><time>2026-04-12T14:45:18.875Z</time></trkpt><trkpt lat="42.78772538721508" lon="12.151676317613141"><ele>459.0</ele><time>2026-04-12T14:45:19.875Z</time></trkpt><trkpt lat="42.78761323185243" lon="12.151603227510455"><ele>459.0</ele><time>2026-04-12T14:45:20.875Z</time></trkpt><trkpt lat="42.787512589016956" lon="12.151506861849192"><ele>457.5</ele><time>2026-04-12T14:45:21.875Z</time></trkpt><trkpt lat="42.78742143189009" lon="12.151387395461795"><ele>456.0</ele><time>2026-04-12T14:45:22.875Z</time></trkpt><trkpt lat="42.787345544500084" lon="12.151256732757574"><ele>454.5</ele><time>2026-04-12T14:45:23.875Z</time></trkpt><trkpt lat="42.78728008750649" lon="12.151118306461832"><ele>453.0</ele><time>2026-04-12T14:45:24.875Z</time></trkpt><trkpt lat="42.7872237525042" lon="12.150955130322808"><ele>453.0</ele><time>2026-04-12T14:45:25.875Z</time></trkpt><trkpt lat="42.787182703886764" lon="12.150782648653028"><ele>453.0</ele><time>2026-04-12T14:45:26.875Z</time></trkpt><trkpt lat="42.78714657228082" lon="12.150607037236304"><ele>453.0</ele><time>2026-04-12T14:45:27.874Z</time></trkpt><trkpt lat="42.787114565769656" lon="12.150430800292888"><ele>453.0</ele><time>2026-04-12T14:45:28.874Z</time></trkpt><trkpt lat="42.78708229683395" lon="12.15025645773319"><ele>451.0</ele><time>2026-04-12T14:45:29.874Z</time></trkpt><trkpt lat="42.787046017425624" lon="12.150083261412412"><ele>449.0</ele><time>2026-04-12T14:45:30.874Z</time></trkpt><trkpt lat="42.78700462970906" lon="12.149912393953958"><ele>447.0</ele><time>2026-04-12T14:45:31.874Z</time></trkpt><trkpt lat="42.78695655781466" lon="12.149744776599713"><ele>445.0</ele><time>2026-04-12T14:45:32.874Z</time></trkpt><trkpt lat="42.786897268428056" lon="12.149585250512743"><ele>445.5</ele><time>2026-04-12T14:45:33.874Z</time></trkpt><trkpt lat="42.78682748509591" lon="12.149431586328099"><ele>446.0</ele><time>2026-04-12T14:45:34.874Z</time></trkpt><trkpt lat="42.786745501357274" lon="12.149293827158337"><ele>446.5</ele><time>2026-04-12T14:45:35.874Z</time></trkpt><trkpt lat="42.78665152197166" lon="12.149171726945841"><ele>447.0</ele><time>2026-04-12T14:45:36.874Z</time></trkpt><trkpt lat="42.78655213471333" lon="12.149063624439876"><ele>444.25</ele><time>2026-04-12T14:45:37.874Z</time></trkpt><trkpt lat="42.786436965194916" lon="12.14898612221068"><ele>441.5</ele><time>2026-04-12T14:45:38.874Z</time></trkpt><trkpt lat="42.786315001181116" lon="12.148922372310201"><ele>438.75</ele><time>2026-04-12T14:45:39.874Z</time></trkpt><trkpt lat="42.786186260202385" lon="12.148878704245314"><ele>436.0</ele><time>2026-04-12T14:45:40.874Z</time></trkpt><trkpt lat="42.78606171861667" lon="12.148839817618917"><ele>436.75</ele><time>2026-04-12T14:45:41.874Z</time></trkpt><trkpt lat="42.78594420203882" lon="12.148788856507108"><ele>437.5</ele><time>2026-04-12T14:45:42.874Z</time></trkpt><trkpt lat="42.785825980449786" lon="12.148718329730292"><ele>438.25</ele><time>2026-04-12T14:45:43.874Z</time></trkpt><trkpt lat="42.785715332903294" lon="12.148633931347934"><ele>439.0</ele><time>2026-04-12T14:45:44.874Z</time></trkpt><trkpt lat="42.78560371531038" lon="12.148547744546127"><ele>439.0</ele><time>2026-04-12T14:45:45.874Z</time></trkpt><trkpt lat="42.78550552187011" lon="12.148444039928854"><ele>439.0</ele><time>2026-04-12T14:45:46.874Z</time></trkpt><trkpt lat="42.78542577770158" lon="12.148349220786999"><ele>439.0</ele><time>2026-04-12T14:45:47.874Z</time></trkpt><trkpt lat="42.78536953865179" lon="12.148226322932967"><ele>439.0</ele><time>2026-04-12T14:45:48.874Z</time></trkpt><trkpt lat="42.78534114930721" lon="12.148085872925702"><ele>439.0</ele><time>2026-04-12T14:45:49.874Z</time></trkpt><trkpt lat="42.78532563657326" lon="12.14794208756446"><ele>437.4</ele><time>2026-04-12T14:45:50.873Z</time></trkpt><trkpt lat="42.78529625641125" lon="12.147817889020608"><ele>435.79999999999995</ele><time>2026-04-12T14:45:51.873Z</time></trkpt><trkpt lat="42.78522944824573" lon="12.147701019299067"><ele>434.20000000000005</ele><time>2026-04-12T14:45:52.873Z</time></trkpt><trkpt lat="42.78513562904835" lon="12.147610685527296"><ele>432.6</ele><time>2026-04-12T14:45:53.873Z</time></trkpt><trkpt lat="42.785026081614504" lon="12.147561609461007"><ele>431.0</ele><time>2026-04-12T14:45:54.873Z</time></trkpt><trkpt lat="42.78491261813051" lon="12.147495683204044"><ele>431.0</ele><time>2026-04-12T14:45:55.873Z</time></trkpt><trkpt lat="42.784789344094634" lon="12.147456550392079"><ele>431.0</ele><time>2026-04-12T14:45:56.873Z</time></trkpt><trkpt lat="42.784676359427415" lon="12.147441172923221"><ele>431.0</ele><time>2026-04-12T14:45:57.873Z</time></trkpt><trkpt lat="42.78457262510409" lon="12.14738077173819"><ele>431.0</ele><time>2026-04-12T14:45:58.873Z</time></trkpt><trkpt lat="42.784468081942954" lon="12.147291520857774"><ele>429.0</ele><time>2026-04-12T14:45:59.873Z</time></trkpt><trkpt lat="42.78438522085478" lon="12.14718296077719"><ele>427.0</ele><time>2026-04-12T14:46:00.873Z</time></trkpt><trkpt lat="42.78433311245006" lon="12.14706804839444"><ele>425.0</ele><time>2026-04-12T14:46:01.873Z</time></trkpt><trkpt lat="42.78432027670106" lon="12.146949484374213"><ele>423.0</ele><time>2026-04-12T14:46:02.873Z</time></trkpt><trkpt lat="42.78435385975983" lon="12.146830984290132"><ele>421.0</ele><time>2026-04-12T14:46:03.873Z</time></trkpt><trkpt lat="42.784423775715915" lon="12.14674226596043"><ele>420.6</ele><time>2026-04-12T14:46:04.873Z</time></trkpt><trkpt lat="42.78451086712197" lon="12.14670247170545"><ele>420.20000000000005</ele><time>2026-04-12T14:46:05.873Z</time></trkpt><trkpt lat="42.784610298353314" lon="12.14672393319828"><ele>419.79999999999995</ele><time>2026-04-12T14:46:06.873Z</time></trkpt><trkpt lat="42.784694834228944" lon="12.146782624190084"><ele>419.4</ele><time>2026-04-12T14:46:07.873Z</time></trkpt><trkpt lat="42.784778540030835" lon="12.146868951543718"><ele>419.0</ele><time>2026-04-12T14:46:08.873Z</time></trkpt><trkpt lat="42.7848521189009" lon="12.146984474705157"><ele>419.0</ele><time>2026-04-12T14:46:09.873Z</time></trkpt><trkpt lat="42.78495096349263" lon="12.147075602238345"><ele>419.0</ele><time>2026-04-12T14:46:10.873Z</time></trkpt><trkpt lat="42.78505680515953" lon="12.147132883089926"><ele>419.0</ele><time>2026-04-12T14:46:11.873Z</time></trkpt><trkpt lat="42.78517352767946" lon="12.147132712962597"><ele>419.0</ele><time>2026-04-12T14:46:12.873Z</time></trkpt><trkpt lat="42.78527745680561" lon="12.147061675948885"><ele>417.79999999999995</ele><time>2026-04-12T14:46:13.873Z</time></trkpt><trkpt lat="42.785354147141526" lon="12.146955261600457"><ele>416.59999999999997</ele><time>2026-04-12T14:46:14.872Z</time></trkpt><trkpt lat="42.785373020162325" lon="12.146806986972026"><ele>415.4</ele><time>2026-04-12T14:46:15.872Z</time></trkpt><trkpt lat="42.785375241209834" lon="12.146660895436812"><ele>414.2</ele><time>2026-04-12T14:46:16.872Z</time></trkpt><trkpt lat="42.78534055703572" lon="12.146525205363245"><ele>413.0</ele><time>2026-04-12T14:46:17.872Z</time></trkpt><trkpt lat="42.78528013958099" lon="12.146378531093843"><ele>412.5</ele><time>2026-04-12T14:46:18.872Z</time></trkpt><trkpt lat="42.7852117416258" lon="12.146231001330127"><ele>412.0</ele><time>2026-04-12T14:46:19.872Z</time></trkpt><trkpt lat="42.78515929315748" lon="12.14604655883589"><ele>411.5</ele><time>2026-04-12T14:46:20.872Z</time></trkpt><trkpt lat="42.78508823643969" lon="12.145859927226116"><ele>411.0</ele><time>2026-04-12T14:46:21.872Z</time></trkpt><trkpt lat="42.785012158024706" lon="12.145667095299862"><ele>407.0</ele><time>2026-04-12T14:46:22.872Z</time></trkpt><trkpt lat="42.78493351617657" lon="12.145471888405547"><ele>403.0</ele><time>2026-04-12T14:46:23.872Z</time></trkpt><trkpt lat="42.78485779506379" lon="12.145273596753919"><ele>399.0</ele><time>2026-04-12T14:46:24.872Z</time></trkpt><trkpt lat="42.78478664741501" lon="12.14508133013574"><ele>399.0</ele><time>2026-04-12T14:46:25.872Z</time></trkpt><trkpt lat="42.78471293628133" lon="12.14489183228143"><ele>399.0</ele><time>2026-04-12T14:46:26.872Z</time></trkpt><trkpt lat="42.78463654061694" lon="12.144694366305076"><ele>399.0</ele><time>2026-04-12T14:46:27.872Z</time></trkpt><trkpt lat="42.78456343873525" lon="12.144500310428542"><ele>395.66666666666663</ele><time>2026-04-12T14:46:28.872Z</time></trkpt><trkpt lat="42.78449060486261" lon="12.144311038717852"><ele>392.3333333333333</ele><time>2026-04-12T14:46:29.872Z</time></trkpt><trkpt lat="42.78441459109099" lon="12.14412386189308"><ele>389.0</ele><time>2026-04-12T14:46:30.872Z</time></trkpt><trkpt lat="42.78433511276944" lon="12.143934642170947"><ele>389.0</ele><time>2026-04-12T14:46:31.872Z</time></trkpt><trkpt lat="42.784250739180784" lon="12.143750903858573"><ele>389.0</ele><time>2026-04-12T14:46:32.872Z</time></trkpt><trkpt lat="42.78415657237499" lon="12.143582491136442"><ele>389.0</ele><time>2026-04-12T14:46:33.872Z</time></trkpt><trkpt lat="42.78405799540987" lon="12.14342277456724"><ele>389.0</ele><time>2026-04-12T14:46:34.872Z</time></trkpt><trkpt lat="42.783958838042686" lon="12.14327488012693"><ele>389.0</ele><time>2026-04-12T14:46:35.872Z</time></trkpt><trkpt lat="42.78385681653784" lon="12.143147554643487"><ele>389.0</ele><time>2026-04-12T14:46:36.872Z</time></trkpt><trkpt lat="42.78373864454709" lon="12.143046980714137"><ele>389.0</ele><time>2026-04-12T14:46:37.872Z</time></trkpt><trkpt lat="42.78362264160458" lon="12.142978728429268"><ele>387.25</ele><time>2026-04-12T14:46:38.871Z</time></trkpt><trkpt lat="42.78349723938603" lon="12.142910544767565"><ele>385.5</ele><time>2026-04-12T14:46:39.871Z</time></trkpt><trkpt lat="42.7833790001467" lon="12.142834635947368"><ele>383.75</ele><time>2026-04-12T14:46:40.871Z</time></trkpt><trkpt lat="42.78328050900349" lon="12.142735020427503"><ele>382.0</ele><time>2026-04-12T14:46:41.871Z</time></trkpt><trkpt lat="42.78318368525677" lon="12.142612956591996"><ele>382.0</ele><time>2026-04-12T14:46:42.871Z</time></trkpt><trkpt lat="42.783062793216665" lon="12.142492357681313"><ele>382.0</ele><time>2026-04-12T14:46:43.871Z</time></trkpt><trkpt lat="42.78293026074778" lon="12.142425738575609"><ele>382.0</ele><time>2026-04-12T14:46:44.871Z</time></trkpt><trkpt lat="42.782795213634735" lon="12.14239653978564"><ele>382.0</ele><time>2026-04-12T14:46:45.871Z</time></trkpt><trkpt lat="42.782645792431836" lon="12.14240876877057"><ele>382.0</ele><time>2026-04-12T14:46:46.871Z</time></trkpt><trkpt lat="42.78248955210506" lon="12.142439231256347"><ele>382.0</ele><time>2026-04-12T14:46:47.871Z</time></trkpt><trkpt lat="42.78234771277835" lon="12.142471931594713"><ele>382.0</ele><time>2026-04-12T14:46:48.871Z</time></trkpt><trkpt lat="42.78220652064056" lon="12.142487628440765"><ele>382.0</ele><time>2026-04-12T14:46:49.871Z</time></trkpt><trkpt lat="42.782071224066094" lon="12.142488271380076"><ele>382.0</ele><time>2026-04-12T14:46:50.871Z</time></trkpt><trkpt lat="42.781931509900446" lon="12.14249037120522"><ele>382.0</ele><time>2026-04-12T14:46:51.871Z</time></trkpt><trkpt lat="42.78179383087148" lon="12.142416307556843"><ele>382.0</ele><time>2026-04-12T14:46:52.871Z</time></trkpt><trkpt lat="42.78166525892625" lon="12.142333933130812"><ele>382.0</ele><time>2026-04-12T14:46:53.871Z</time></trkpt><trkpt lat="42.78155398332522" lon="12.142225739939263"><ele>377.75</ele><time>2026-04-12T14:46:54.871Z</time></trkpt><trkpt lat="42.78143795141752" lon="12.142135759274744"><ele>373.5</ele><time>2026-04-12T14:46:55.871Z</time></trkpt><trkpt lat="42.781341618471856" lon="12.141997273181913"><ele>369.25</ele><time>2026-04-12T14:46:56.871Z</time></trkpt><trkpt lat="42.7812658844454" lon="12.141841374220755"><ele>365.0</ele><time>2026-04-12T14:46:57.871Z</time></trkpt><trkpt lat="42.78120785696148" lon="12.141672804807046"><ele>364.25</ele><time>2026-04-12T14:46:58.871Z</time></trkpt><trkpt lat="42.781152235681" lon="12.14150796674153"><ele>363.5</ele><time>2026-04-12T14:46:59.871Z</time></trkpt><trkpt lat="42.78110641866592" lon="12.141336188454684"><ele>362.75</ele><time>2026-04-12T14:47:00.871Z</time></trkpt><trkpt lat="42.78102825975884" lon="12.141178737543235"><ele>362.0</ele><time>2026-04-12T14:47:01.87Z</time></trkpt><trkpt lat="42.7809291931098" lon="12.141046796133146"><ele>362.0</ele><time>2026-04-12T14:47:02.87Z</time></trkpt><trkpt lat="42.78081148856281" lon="12.14095578153588"><ele>362.0</ele><time>2026-04-12T14:47:03.87Z</time></trkpt><trkpt lat="42.780719295643046" lon="12.140829427568958"><ele>362.0</ele><time>2026-04-12T14:47:04.87Z</time></trkpt><trkpt lat="42.78063859569103" lon="12.140715367357092"><ele>362.0</ele><time>2026-04-12T14:47:05.87Z</time></trkpt><trkpt lat="42.78057596874702" lon="12.140589409732433"><ele>359.6</ele><time>2026-04-12T14:47:06.87Z</time></trkpt><trkpt lat="42.780516366206236" lon="12.14046083215115"><ele>357.20000000000005</ele><time>2026-04-12T14:47:07.87Z</time></trkpt><trkpt lat="42.78045957283975" lon="12.140340780354208"><ele>354.8</ele><time>2026-04-12T14:47:08.87Z</time></trkpt><trkpt lat="42.78038388221654" lon="12.140219290417676"><ele>352.4</ele><time>2026-04-12T14:47:09.87Z</time></trkpt><trkpt lat="42.78033448883288" lon="12.140092471435564"><ele>350.0</ele><time>2026-04-12T14:47:10.87Z</time></trkpt><trkpt lat="42.78028051421803" lon="12.139963470754095"><ele>350.4</ele><time>2026-04-12T14:47:11.87Z</time></trkpt><trkpt lat="42.780226467603256" lon="12.139836293359634"><ele>350.8</ele><time>2026-04-12T14:47:12.87Z</time></trkpt><trkpt lat="42.7801724179362" lon="12.139715234610131"><ele>351.20000000000005</ele><time>2026-04-12T14:47:13.87Z</time></trkpt><trkpt lat="42.780111349958176" lon="12.13958728397983"><ele>351.6</ele><time>2026-04-12T14:47:14.873Z</time></trkpt><trkpt lat="42.78004540001716" lon="12.139453249630458"><ele>352.0</ele><time>2026-04-12T14:47:15.873Z</time></trkpt><trkpt lat="42.779989124318725" lon="12.139313729670047"><ele>352.0</ele><time>2026-04-12T14:47:16.873Z</time></trkpt><trkpt lat="42.77995423754479" lon="12.139160248482186"><ele>352.0</ele><time>2026-04-12T14:47:17.873Z</time></trkpt><trkpt lat="42.77994509407093" lon="12.139000789439248"><ele>352.0</ele><time>2026-04-12T14:47:18.873Z</time></trkpt><trkpt lat="42.779935380384565" lon="12.138847529440218"><ele>352.0</ele><time>2026-04-12T14:47:19.873Z</time></trkpt><trkpt lat="42.77992084008034" lon="12.138685939243091"><ele>349.75</ele><time>2026-04-12T14:47:20.873Z</time></trkpt><trkpt lat="42.77990954510357" lon="12.138512221367163"><ele>347.5</ele><time>2026-04-12T14:47:21.872Z</time></trkpt><trkpt lat="42.77986445985596" lon="12.138337183215244"><ele>345.25</ele><time>2026-04-12T14:47:22.872Z</time></trkpt><trkpt lat="42.77981226924768" lon="12.138169159561059"><ele>343.0</ele><time>2026-04-12T14:47:23.873Z</time></trkpt><trkpt lat="42.77975917115655" lon="12.138014452606742"><ele>342.75</ele><time>2026-04-12T14:47:24.872Z</time></trkpt><trkpt lat="42.77970367567613" lon="12.137871313151791"><ele>342.5</ele><time>2026-04-12T14:47:25.872Z</time></trkpt><trkpt lat="42.779629507526394" lon="12.137735044595745"><ele>342.25</ele><time>2026-04-12T14:47:26.872Z</time></trkpt><trkpt lat="42.779542372794936" lon="12.137618362797156"><ele>342.0</ele><time>2026-04-12T14:47:27.872Z</time></trkpt><trkpt lat="42.77942969830143" lon="12.137527785786155"><ele>342.25</ele><time>2026-04-12T14:47:28.8Z</time></trkpt><trkpt lat="42.77931189760069" lon="12.13743824660037"><ele>342.5</ele><time>2026-04-12T14:47:29.8Z</time></trkpt><trkpt lat="42.77918834522199" lon="12.137343773918797"><ele>342.75</ele><time>2026-04-12T14:47:30.8Z</time></trkpt><trkpt lat="42.77907194604" lon="12.137248462431353"><ele>343.0</ele><time>2026-04-12T14:47:31.8Z</time></trkpt><trkpt lat="42.778966048341715" lon="12.13713875018216"><ele>343.0</ele><time>2026-04-12T14:47:32.8Z</time></trkpt><trkpt lat="42.77887331974284" lon="12.137013108148134"><ele>343.0</ele><time>2026-04-12T14:47:33.8Z</time></trkpt><trkpt lat="42.778786685671754" lon="12.13689227296733"><ele>343.0</ele><time>2026-04-12T14:47:34.8Z</time></trkpt><trkpt lat="42.778697476741826" lon="12.136782762051894"><ele>343.0</ele><time>2026-04-12T14:47:35.8Z</time></trkpt><trkpt lat="42.7785837744825" lon="12.136721256501472"><ele>340.5</ele><time>2026-04-12T14:47:36.8Z</time></trkpt><trkpt lat="42.77846127524354" lon="12.136704091458945"><ele>338.0</ele><time>2026-04-12T14:47:37.8Z</time></trkpt><trkpt lat="42.77834178762933" lon="12.136724278618399"><ele>335.5</ele><time>2026-04-12T14:47:38.8Z</time></trkpt><trkpt lat="42.77823794813317" lon="12.136807754657893"><ele>333.0</ele><time>2026-04-12T14:47:39.8Z</time></trkpt><trkpt lat="42.77813569945391" lon="12.13689149446427"><ele>333.0</ele><time>2026-04-12T14:47:40.8Z</time></trkpt><trkpt lat="42.77804882777057" lon="12.137018313284548"><ele>333.0</ele><time>2026-04-12T14:47:41.8Z</time></trkpt><trkpt lat="42.7779638197387" lon="12.137149535917871"><ele>333.0</ele><time>2026-04-12T14:47:42.8Z</time></trkpt><trkpt lat="42.77787916269862" lon="12.137287002068458"><ele>333.0</ele><time>2026-04-12T14:47:43.8Z</time></trkpt><trkpt lat="42.777798071779756" lon="12.137423236267812"><ele>333.25</ele><time>2026-04-12T14:47:44.8Z</time></trkpt><trkpt lat="42.777709873349565" lon="12.137549858979144"><ele>333.5</ele><time>2026-04-12T14:47:45.8Z</time></trkpt><trkpt lat="42.777618226187194" lon="12.13765965112631"><ele>333.75</ele><time>2026-04-12T14:47:46.8Z</time></trkpt><trkpt lat="42.77752165424343" lon="12.137739805951743"><ele>334.0</ele><time>2026-04-12T14:47:47.8Z</time></trkpt><trkpt lat="42.77741228194065" lon="12.13776602978237"><ele>331.79999999999995</ele><time>2026-04-12T14:47:48.8Z</time></trkpt><trkpt lat="42.77730004858677" lon="12.137741652277692"><ele>329.59999999999997</ele><time>2026-04-12T14:47:49.8Z</time></trkpt><trkpt lat="42.777191909821234" lon="12.13771269322838"><ele>327.4</ele><time>2026-04-12T14:47:50.8Z</time></trkpt><trkpt lat="42.777085882633365" lon="12.13768784662531"><ele>325.2</ele><time>2026-04-12T14:47:51.8Z</time></trkpt><trkpt lat="42.77698269192416" lon="12.137661665179147"><ele>323.0</ele><time>2026-04-12T14:47:52.8Z</time></trkpt><trkpt lat="42.77688385484689" lon="12.137629937365562"><ele>321.79999999999995</ele><time>2026-04-12T14:47:53.8Z</time></trkpt><trkpt lat="42.776786221369186" lon="12.137598283637502"><ele>320.59999999999997</ele><time>2026-04-12T14:47:54.799Z</time></trkpt><trkpt lat="42.77668854383574" lon="12.137573277152304"><ele>319.4</ele><time>2026-04-12T14:47:55.799Z</time></trkpt><trkpt lat="42.7765922614483" lon="12.13755498237568"><ele>318.2</ele><time>2026-04-12T14:47:56.799Z</time></trkpt><trkpt lat="42.77649481328708" lon="12.137536656802611"><ele>317.0</ele><time>2026-04-12T14:47:57.799Z</time></trkpt><trkpt lat="42.77640045444308" lon="12.137522212656593"><ele>317.0</ele><time>2026-04-12T14:47:58.799Z</time></trkpt><trkpt lat="42.77630390985833" lon="12.13750829569031"><ele>317.0</ele><time>2026-04-12T14:47:59.799Z</time></trkpt><trkpt lat="42.776206028685294" lon="12.137494776412778"><ele>317.0</ele><time>2026-04-12T14:48:00.799Z</time></trkpt><trkpt lat="42.77610707406987" lon="12.137488358641196"><ele>317.0</ele><time>2026-04-12T14:48:01.799Z</time></trkpt><trkpt lat="42.77601265223996" lon="12.137488265768622"><ele>317.0</ele><time>2026-04-12T14:48:02.799Z</time></trkpt><trkpt lat="42.7759253498318" lon="12.137492293117138"><ele>316.8</ele><time>2026-04-12T14:48:03.799Z</time></trkpt><trkpt lat="42.775841027641206" lon="12.137491336235785"><ele>316.6</ele><time>2026-04-12T14:48:04.799Z</time></trkpt><trkpt lat="42.77576718151262" lon="12.137466613047637"><ele>316.40000000000003</ele><time>2026-04-12T14:48:05.799Z</time></trkpt><trkpt lat="42.77567343371916" lon="12.137416759216373"><ele>316.2</ele><time>2026-04-12T14:48:07.799Z</time></trkpt><trkpt lat="42.77558819837685" lon="12.137355998142503"><ele>316.0</ele><time>2026-04-12T14:48:09.799Z</time></trkpt><trkpt lat="42.775478065119394" lon="12.137317617306389"><ele>315.40000000000003</ele><time>2026-04-12T14:48:11.799Z</time></trkpt><trkpt lat="42.775373866541756" lon="12.1373017676574"><ele>314.8</ele><time>2026-04-12T14:48:13.799Z</time></trkpt><trkpt lat="42.77524356055174" lon="12.1373061809062"><ele>314.20000000000005</ele><time>2026-04-12T14:48:15.799Z</time></trkpt><trkpt lat="42.77518031559953" lon="12.137294458111153"><ele>313.6</ele><time>2026-04-12T14:48:16.798Z</time></trkpt><trkpt lat="42.775107303835746" lon="12.137291988888752"><ele>313.0</ele><time>2026-04-12T14:48:17.798Z</time></trkpt><trkpt lat="42.77502480974854" lon="12.1373034531455"><ele>313.0</ele><time>2026-04-12T14:48:18.798Z</time></trkpt><trkpt lat="42.77494446177633" lon="12.137300765185753"><ele>313.0</ele><time>2026-04-12T14:48:19.798Z</time></trkpt><trkpt lat="42.77485618663022" lon="12.137289501312358"><ele>313.0</ele><time>2026-04-12T14:48:20.798Z</time></trkpt><trkpt lat="42.77476689780923" lon="12.137297314970148"><ele>313.0</ele><time>2026-04-12T14:48:21.798Z</time></trkpt><trkpt lat="42.774681046068395" lon="12.137288084272441"><ele>313.0</ele><time>2026-04-12T14:48:22.798Z</time></trkpt><trkpt lat="42.77459656245442" lon="12.137276346708433"><ele>313.0</ele><time>2026-04-12T14:48:23.798Z</time></trkpt><trkpt lat="42.77451702371032" lon="12.13725500351405"><ele>313.0</ele><time>2026-04-12T14:48:24.798Z</time></trkpt><trkpt lat="42.77444103966786" lon="12.137214516002711"><ele>313.0</ele><time>2026-04-12T14:48:25.798Z</time></trkpt><trkpt lat="42.774377071720785" lon="12.137143731321167"><ele>313.0</ele><time>2026-04-12T14:48:26.798Z</time></trkpt><trkpt lat="42.77430367916759" lon="12.137090187065565"><ele>313.0</ele><time>2026-04-12T14:48:27.798Z</time></trkpt><trkpt lat="42.77422871505896" lon="12.137035496274406"><ele>313.0</ele><time>2026-04-12T14:48:28.798Z</time></trkpt><trkpt lat="42.77414883631005" lon="12.136977301617605"><ele>313.0</ele><time>2026-04-12T14:48:29.798Z</time></trkpt><trkpt lat="42.77406371079562" lon="12.136917412854066"><ele>312.3333333333333</ele><time>2026-04-12T14:48:30.798Z</time></trkpt><trkpt lat="42.77397914229388" lon="12.13685977138474"><ele>311.66666666666663</ele><time>2026-04-12T14:48:31.798Z</time></trkpt><trkpt lat="42.773894147610044" lon="12.136798780883481"><ele>311.0</ele><time>2026-04-12T14:48:32.798Z</time></trkpt><trkpt lat="42.77381200114716" lon="12.136738969743863"><ele>310.3333333333333</ele><time>2026-04-12T14:48:33.798Z</time></trkpt><trkpt lat="42.77373946838063" lon="12.13668828751624"><ele>309.6666666666667</ele><time>2026-04-12T14:48:34.798Z</time></trkpt><trkpt lat="42.773664870551414" lon="12.13663861180914"><ele>309.0</ele><time>2026-04-12T14:48:35.797Z</time></trkpt><trkpt lat="42.77358596631499" lon="12.136604209976111"><ele>308.6666666666667</ele><time>2026-04-12T14:48:36.797Z</time></trkpt><trkpt lat="42.77351381215262" lon="12.136548664019955"><ele>308.3333333333333</ele><time>2026-04-12T14:48:37.797Z</time></trkpt><trkpt lat="42.77344055946305" lon="12.136498806949561"><ele>308.0</ele><time>2026-04-12T14:48:38.797Z</time></trkpt><trkpt lat="42.7733729472985" lon="12.136433946934039"><ele>307.66666666666663</ele><time>2026-04-12T14:48:39.797Z</time></trkpt><trkpt lat="42.77331676704495" lon="12.136362997874414"><ele>307.3333333333333</ele><time>2026-04-12T14:48:40.797Z</time></trkpt><trkpt lat="42.77327421130477" lon="12.13627932150081"><ele>307.0</ele><time>2026-04-12T14:48:41.797Z</time></trkpt><trkpt lat="42.773232434134094" lon="12.136198978454727"><ele>306.99999999999994</ele><time>2026-04-12T14:48:42.797Z</time></trkpt><trkpt lat="42.77319373335906" lon="12.136121017534483"><ele>307.0</ele><time>2026-04-12T14:48:43.797Z</time></trkpt><trkpt lat="42.773142123728924" lon="12.136056080902677"><ele>307.0</ele><time>2026-04-12T14:48:44.797Z</time></trkpt><trkpt lat="42.773102250672906" lon="12.135983283844759"><ele>307.0</ele><time>2026-04-12T14:48:45.797Z</time></trkpt><trkpt lat="42.7730691901982" lon="12.135898976517026"><ele>307.0</ele><time>2026-04-12T14:48:46.797Z</time></trkpt><trkpt lat="42.77300960448139" lon="12.135847310064515"><ele>306.99999999999994</ele><time>2026-04-12T14:48:47.797Z</time></trkpt><trkpt lat="42.7729598182658" lon="12.135784854240423"><ele>307.0</ele><time>2026-04-12T14:48:48.797Z</time></trkpt><trkpt lat="42.77291249937729" lon="12.135726598499593"><ele>306.66666666666663</ele><time>2026-04-12T14:48:49.797Z</time></trkpt><trkpt lat="42.77285828562769" lon="12.135671958381293"><ele>306.3333333333333</ele><time>2026-04-12T14:48:50.797Z</time></trkpt><trkpt lat="42.77274996605476" lon="12.135558636538793"><ele>306.0</ele><time>2026-04-12T14:48:52.797Z</time></trkpt><trkpt lat="42.772692938935606" lon="12.135519941501052"><ele>305.6666666666667</ele><time>2026-04-12T14:48:53.796Z</time></trkpt><trkpt lat="42.77263272704122" lon="12.135473994378136"><ele>305.33333333333337</ele><time>2026-04-12T14:48:54.796Z</time></trkpt><trkpt lat="42.77256826260173" lon="12.135433091242927"><ele>305.0</ele><time>2026-04-12T14:48:55.796Z</time></trkpt><trkpt lat="42.77250125352144" lon="12.135394962108977"><ele>305.0</ele><time>2026-04-12T14:48:56.796Z</time></trkpt><trkpt lat="42.772445512886925" lon="12.135320136016064"><ele>305.0</ele><time>2026-04-12T14:48:57.796Z</time></trkpt><trkpt lat="42.772378115546914" lon="12.135267718355486"><ele>305.0</ele><time>2026-04-12T14:48:58.796Z</time></trkpt><trkpt lat="42.772306855678984" lon="12.13520822228689"><ele>305.0</ele><time>2026-04-12T14:48:59.796Z</time></trkpt><trkpt lat="42.77224393411934" lon="12.135150382804698"><ele>305.0</ele><time>2026-04-12T14:49:00.796Z</time></trkpt><trkpt lat="42.77217706434603" lon="12.135104594992917"><ele>305.0</ele><time>2026-04-12T14:49:01.796Z</time></trkpt><trkpt lat="42.77211116825436" lon="12.135075914993147"><ele>305.0</ele><time>2026-04-12T14:49:02.796Z</time></trkpt><trkpt lat="42.77204311115129" lon="12.135044041695721"><ele>305.0</ele><time>2026-04-12T14:49:03.796Z</time></trkpt><trkpt lat="42.77196903222797" lon="12.135022125713189"><ele>305.0</ele><time>2026-04-12T14:49:04.796Z</time></trkpt><trkpt lat="42.77189074857381" lon="12.134996293620645"><ele>305.0</ele><time>2026-04-12T14:49:05.796Z</time></trkpt><trkpt lat="42.7718003223021" lon="12.134987055307164"><ele>305.0</ele><time>2026-04-12T14:49:06.796Z</time></trkpt><trkpt lat="42.77171273935662" lon="12.134969031903347"><ele>305.0</ele><time>2026-04-12T14:49:07.796Z</time></trkpt><trkpt lat="42.77163049704381" lon="12.134928466959824"><ele>304.6</ele><time>2026-04-12T14:49:08.796Z</time></trkpt><trkpt lat="42.77153851653767" lon="12.134895591142774"><ele>304.2</ele><time>2026-04-12T14:49:09.796Z</time></trkpt><trkpt lat="42.77143415210133" lon="12.134870596755393"><ele>303.8</ele><time>2026-04-12T14:49:10.796Z</time></trkpt><trkpt lat="42.77133568464366" lon="12.134851160427205"><ele>303.4</ele><time>2026-04-12T14:49:11.796Z</time></trkpt><trkpt lat="42.771234682592016" lon="12.134824525969341"><ele>303.0</ele><time>2026-04-12T14:49:12.795Z</time></trkpt><trkpt lat="42.771129680952654" lon="12.134795055799295"><ele>302.2</ele><time>2026-04-12T14:49:13.795Z</time></trkpt><trkpt lat="42.77102377742847" lon="12.134763528629609"><ele>301.4</ele><time>2026-04-12T14:49:14.795Z</time></trkpt><trkpt lat="42.77092040556393" lon="12.134737155316547"><ele>300.59999999999997</ele><time>2026-04-12T14:49:15.795Z</time></trkpt><trkpt lat="42.77081683885068" lon="12.134699288727118"><ele>299.8</ele><time>2026-04-12T14:49:16.795Z</time></trkpt><trkpt lat="42.770713049435344" lon="12.134662121032731"><ele>299.0</ele><time>2026-04-12T14:49:17.795Z</time></trkpt><trkpt lat="42.770604588654756" lon="12.134619018460508"><ele>299.0</ele><time>2026-04-12T14:49:18.795Z</time></trkpt><trkpt lat="42.770498753291584" lon="12.134569885886352"><ele>299.0</ele><time>2026-04-12T14:49:19.795Z</time></trkpt><trkpt lat="42.770398464136846" lon="12.134518528827138"><ele>299.0</ele><time>2026-04-12T14:49:20.798Z</time></trkpt><trkpt lat="42.77029590505447" lon="12.134471294710945"><ele>299.0</ele><time>2026-04-12T14:49:21.797Z</time></trkpt><trkpt lat="42.77019280272315" lon="12.134425698337097"><ele>299.0</ele><time>2026-04-12T14:49:22.797Z</time></trkpt><trkpt lat="42.770089404514614" lon="12.134375501729407"><ele>298.2</ele><time>2026-04-12T14:49:23.797Z</time></trkpt><trkpt lat="42.76998897261829" lon="12.134325076076417"><ele>297.4</ele><time>2026-04-12T14:49:24.798Z</time></trkpt><trkpt lat="42.76989375527413" lon="12.134274582949459"><ele>296.6</ele><time>2026-04-12T14:49:25.798Z</time></trkpt><trkpt lat="42.76980658051573" lon="12.134230635382645"><ele>295.8</ele><time>2026-04-12T14:49:26.797Z</time></trkpt><trkpt lat="42.76972446936182" lon="12.134190704293632"><ele>295.0</ele><time>2026-04-12T14:49:27.797Z</time></trkpt><trkpt lat="42.769642893729056" lon="12.134143887014933"><ele>295.0</ele><time>2026-04-12T14:49:28.797Z</time></trkpt><trkpt lat="42.76956689928042" lon="12.134081048062969"><ele>295.0</ele><time>2026-04-12T14:49:29.798Z</time></trkpt><trkpt lat="42.7694946301884" lon="12.13401333115895"><ele>295.0</ele><time>2026-04-12T14:49:30.797Z</time></trkpt><trkpt lat="42.769430702526755" lon="12.133931214531826"><ele>295.0</ele><time>2026-04-12T14:49:31.797Z</time></trkpt><trkpt lat="42.7693527674163" lon="12.133828274899292"><ele>295.0</ele><time>2026-04-12T14:49:32.797Z</time></trkpt><trkpt lat="42.7692851505731" lon="12.133730963416589"><ele>293.8</ele><time>2026-04-12T14:49:33.797Z</time></trkpt><trkpt lat="42.76921137315367" lon="12.133642774642443"><ele>292.6</ele><time>2026-04-12T14:49:34.797Z</time></trkpt><trkpt lat="42.76913857258064" lon="12.133558052982044"><ele>291.4</ele><time>2026-04-12T14:49:35.797Z</time></trkpt><trkpt lat="42.769063449769725" lon="12.1334572591071"><ele>290.2</ele><time>2026-04-12T14:49:36.797Z</time></trkpt><trkpt lat="42.76899443207486" lon="12.133359121977241"><ele>289.0</ele><time>2026-04-12T14:49:37.797Z</time></trkpt><trkpt lat="42.768928343306364" lon="12.133283617865683"><ele>289.0</ele><time>2026-04-12T14:49:38.797Z</time></trkpt><trkpt lat="42.76885763058137" lon="12.133230387949382"><ele>289.0</ele><time>2026-04-12T14:49:39.797Z</time></trkpt><trkpt lat="42.768776913460336" lon="12.133225438985322"><ele>289.0</ele><time>2026-04-12T14:49:40.796Z</time></trkpt><trkpt lat="42.76869286154183" lon="12.13319368135795"><ele>289.0</ele><time>2026-04-12T14:49:41.796Z</time></trkpt><trkpt lat="42.76860288190322" lon="12.13319323586542"><ele>289.0</ele><time>2026-04-12T14:49:42.796Z</time></trkpt><trkpt lat="42.768538125229675" lon="12.13314341903116"><ele>289.0</ele><time>2026-04-12T14:49:43.796Z</time></trkpt><trkpt lat="42.76854368741752" lon="12.133008297222238"><ele>286.4</ele><time>2026-04-12T14:49:45.796Z</time></trkpt><trkpt lat="42.76860238715257" lon="12.132960297681949"><ele>283.79999999999995</ele><time>2026-04-12T14:49:46.796Z</time></trkpt><trkpt lat="42.76868401080164" lon="12.132925902128544"><ele>281.20000000000005</ele><time>2026-04-12T14:49:47.796Z</time></trkpt><trkpt lat="42.76877558578002" lon="12.132914075629202"><ele>278.6</ele><time>2026-04-12T14:49:48.796Z</time></trkpt><trkpt lat="42.76887470234422" lon="12.132933374143347"><ele>276.0</ele><time>2026-04-12T14:49:49.796Z</time></trkpt><trkpt lat="42.76897791515952" lon="12.132969615923393"><ele>276.0</ele><time>2026-04-12T14:49:50.796Z</time></trkpt><trkpt lat="42.76908190783887" lon="12.13300364925836"><ele>276.0</ele><time>2026-04-12T14:49:51.796Z</time></trkpt><trkpt lat="42.76918671074069" lon="12.133036958424263"><ele>276.0</ele><time>2026-04-12T14:49:52.796Z</time></trkpt><trkpt lat="42.76928765599396" lon="12.133064469186472"><ele>276.0</ele><time>2026-04-12T14:49:53.796Z</time></trkpt><trkpt lat="42.76939479877353" lon="12.133101092880114"><ele>276.0</ele><time>2026-04-12T14:49:54.796Z</time></trkpt><trkpt lat="42.76949672925545" lon="12.133129680170093"><ele>275.3333333333333</ele><time>2026-04-12T14:49:55.796Z</time></trkpt><trkpt lat="42.769592417979275" lon="12.133145244753594"><ele>274.6666666666667</ele><time>2026-04-12T14:49:56.796Z</time></trkpt><trkpt lat="42.76968485030238" lon="12.13313124455655"><ele>274.0</ele><time>2026-04-12T14:49:57.796Z</time></trkpt><trkpt lat="42.76976281090067" lon="12.133081572601567"><ele>273.33333333333337</ele><time>2026-04-12T14:49:58.795Z</time></trkpt><trkpt lat="42.769840993511174" lon="12.133032880625134"><ele>272.6666666666667</ele><time>2026-04-12T14:49:59.795Z</time></trkpt><trkpt lat="42.76990521771901" lon="12.132963457762626"><ele>272.0</ele><time>2026-04-12T14:50:00.795Z</time></trkpt><trkpt lat="42.76995966238921" lon="12.13288387100767"><ele>271.99999999999994</ele><time>2026-04-12T14:50:01.795Z</time></trkpt><trkpt lat="42.77000680967233" lon="12.132816842802944"><ele>272.0</ele><time>2026-04-12T14:50:02.795Z</time></trkpt><trkpt lat="42.77005099598679" lon="12.132747819820882"><ele>272.0</ele><time>2026-04-12T14:50:03.795Z</time></trkpt><trkpt lat="42.77009598490847" lon="12.132678805551544"><ele>272.0</ele><time>2026-04-12T14:50:04.795Z</time></trkpt><trkpt lat="42.77013836080758" lon="12.132606150286955"><ele>272.0</ele><time>2026-04-12T14:50:05.795Z</time></trkpt><trkpt lat="42.77017740029993" lon="12.132534112166544"><ele>271.99999999999994</ele><time>2026-04-12T14:50:06.795Z</time></trkpt><trkpt lat="42.7702223943566" lon="12.13246482799058"><ele>272.0</ele><time>2026-04-12T14:50:07.795Z</time></trkpt><trkpt lat="42.77027084869653" lon="12.13239985393723"><ele>270.0</ele><time>2026-04-12T14:50:08.795Z</time></trkpt><trkpt lat="42.77033433123498" lon="12.132337085466135"><ele>268.0</ele><time>2026-04-12T14:50:09.795Z</time></trkpt><trkpt lat="42.77041713130564" lon="12.132274458020422"><ele>266.0</ele><time>2026-04-12T14:50:10.795Z</time></trkpt><trkpt lat="42.770509850618886" lon="12.132205430467119"><ele>264.0</ele><time>2026-04-12T14:50:11.795Z</time></trkpt><trkpt lat="42.77061265336858" lon="12.132155535582779"><ele>262.0</ele><time>2026-04-12T14:50:12.795Z</time></trkpt><trkpt lat="42.77072300251942" lon="12.132066748335195"><ele>262.0</ele><time>2026-04-12T14:50:13.795Z</time></trkpt><trkpt lat="42.77083244400393" lon="12.131970553821631"><ele>262.0</ele><time>2026-04-12T14:50:14.795Z</time></trkpt><trkpt lat="42.770941429922054" lon="12.13187565729975"><ele>262.0</ele><time>2026-04-12T14:50:15.795Z</time></trkpt><trkpt lat="42.771047103138216" lon="12.13178347481749"><ele>262.0</ele><time>2026-04-12T14:50:16.795Z</time></trkpt><trkpt lat="42.77114759640214" lon="12.131695724408535"><ele>261.0</ele><time>2026-04-12T14:50:17.794Z</time></trkpt><trkpt lat="42.77123288869218" lon="12.131608575905457"><ele>260.0</ele><time>2026-04-12T14:50:18.794Z</time></trkpt><trkpt lat="42.77131392015476" lon="12.131538128304822"><ele>259.0</ele><time>2026-04-12T14:50:19.794Z</time></trkpt><trkpt lat="42.7713550159718" lon="12.131407037015068"><ele>258.0</ele><time>2026-04-12T14:50:20.794Z</time></trkpt><trkpt lat="42.77133301936528" lon="12.13125718145188"><ele>257.0</ele><time>2026-04-12T14:50:21.794Z</time></trkpt><trkpt lat="42.77126656305481" lon="12.131139389955221"><ele>257.0</ele><time>2026-04-12T14:50:22.794Z</time></trkpt><trkpt lat="42.771146066630145" lon="12.131107109094552"><ele>257.0</ele><time>2026-04-12T14:50:23.794Z</time></trkpt><trkpt lat="42.771043534793684" lon="12.131089516329467"><ele>257.0</ele><time>2026-04-12T14:50:24.794Z</time></trkpt><trkpt lat="42.77094296452449" lon="12.131088779309136"><ele>257.0</ele><time>2026-04-12T14:50:25.794Z</time></trkpt><trkpt lat="42.770849228180744" lon="12.131054263587314"><ele>257.0</ele><time>2026-04-12T14:50:26.794Z</time></trkpt><trkpt lat="42.77075381002697" lon="12.1310416127059"><ele>256.33333333333337</ele><time>2026-04-12T14:50:27.794Z</time></trkpt><trkpt lat="42.77065501721413" lon="12.13102733054698"><ele>255.66666666666669</ele><time>2026-04-12T14:50:28.794Z</time></trkpt><trkpt lat="42.77055814259757" lon="12.131011627147663"><ele>255.0</ele><time>2026-04-12T14:50:29.794Z</time></trkpt><trkpt lat="42.7704705930073" lon="12.130996568600889"><ele>254.33333333333331</ele><time>2026-04-12T14:50:30.794Z</time></trkpt><trkpt lat="42.770396002190466" lon="12.130981642648015"><ele>253.66666666666666</ele><time>2026-04-12T14:50:31.794Z</time></trkpt><trkpt lat="42.770326588762984" lon="12.130964605181642"><ele>253.0</ele><time>2026-04-12T14:50:32.794Z</time></trkpt><trkpt lat="42.7702517011426" lon="12.130960509977994"><ele>252.33333333333331</ele><time>2026-04-12T14:50:33.794Z</time></trkpt><trkpt lat="42.77018806476773" lon="12.13090248467323"><ele>251.66666666666666</ele><time>2026-04-12T14:50:34.794Z</time></trkpt><trkpt lat="42.7701268065106" lon="12.130857920185436"><ele>251.0</ele><time>2026-04-12T14:50:35.793Z</time></trkpt><trkpt lat="42.770056693126335" lon="12.130812707159924"><ele>250.33333333333331</ele><time>2026-04-12T14:50:36.793Z</time></trkpt><trkpt lat="42.76998752632606" lon="12.130771652381657"><ele>249.66666666666666</ele><time>2026-04-12T14:50:37.793Z</time></trkpt><trkpt lat="42.76991932844188" lon="12.130737298026066"><ele>249.0</ele><time>2026-04-12T14:50:38.793Z</time></trkpt><trkpt lat="42.769825099713266" lon="12.13075429184963"><ele>249.0</ele><time>2026-04-12T14:50:39.793Z</time></trkpt><trkpt lat="42.76974537256966" lon="12.130829043714629"><ele>249.0</ele><time>2026-04-12T14:50:40.793Z</time></trkpt><trkpt lat="42.76969641045757" lon="12.130930779910756"><ele>249.0</ele><time>2026-04-12T14:50:41.793Z</time></trkpt><trkpt lat="42.76963006149926" lon="12.13098552785909"><ele>249.0</ele><time>2026-04-12T14:50:42.793Z</time></trkpt><trkpt lat="42.76956698741034" lon="12.131028259816254"><ele>249.0</ele><time>2026-04-12T14:50:43.793Z</time></trkpt><trkpt lat="42.76949455645023" lon="12.131026188445173"><ele>249.0</ele><time>2026-04-12T14:50:44.793Z</time></trkpt><trkpt lat="42.76941076828673" lon="12.130999242715022"><ele>247.75</ele><time>2026-04-12T14:50:45.793Z</time></trkpt><trkpt lat="42.76931264392628" lon="12.130958619195793"><ele>246.5</ele><time>2026-04-12T14:50:46.793Z</time></trkpt><trkpt lat="42.76920376476357" lon="12.130909331007171"><ele>245.25</ele><time>2026-04-12T14:50:47.793Z</time></trkpt><trkpt lat="42.76907951433087" lon="12.130852501861593"><ele>244.0</ele><time>2026-04-12T14:50:48.793Z</time></trkpt><trkpt lat="42.768947515818155" lon="12.130794360330363"><ele>244.0</ele><time>2026-04-12T14:50:49.793Z</time></trkpt><trkpt lat="42.76880892787862" lon="12.130758185871152"><ele>244.0</ele><time>2026-04-12T14:50:50.793Z</time></trkpt><trkpt lat="42.76867513274997" lon="12.130696310652857"><ele>244.0</ele><time>2026-04-12T14:50:51.793Z</time></trkpt><trkpt lat="42.768532828633454" lon="12.130630901205745"><ele>244.0</ele><time>2026-04-12T14:50:52.793Z</time></trkpt><trkpt lat="42.76840015476647" lon="12.130548584884473"><ele>240.75</ele><time>2026-04-12T14:50:53.792Z</time></trkpt><trkpt lat="42.768261092781394" lon="12.130502823593854"><ele>237.5</ele><time>2026-04-12T14:50:54.792Z</time></trkpt><trkpt lat="42.76812153593946" lon="12.130483247012522"><ele>234.25</ele><time>2026-04-12T14:50:55.792Z</time></trkpt><trkpt lat="42.767987910336906" lon="12.13047415958115"><ele>231.0</ele><time>2026-04-12T14:50:56.792Z</time></trkpt><trkpt lat="42.76786499740824" lon="12.13045745622409"><ele>231.0</ele><time>2026-04-12T14:50:57.792Z</time></trkpt><trkpt lat="42.7677444287403" lon="12.130411541537356"><ele>231.0</ele><time>2026-04-12T14:50:58.792Z</time></trkpt><trkpt lat="42.767635801155144" lon="12.130310510911045"><ele>231.0</ele><time>2026-04-12T14:50:59.792Z</time></trkpt><trkpt lat="42.76752106147933" lon="12.130206188429042"><ele>231.0</ele><time>2026-04-12T14:51:00.792Z</time></trkpt><trkpt lat="42.76741126373494" lon="12.130104154149072"><ele>231.0</ele><time>2026-04-12T14:51:01.792Z</time></trkpt><trkpt lat="42.76729765782142" lon="12.129994060025242"><ele>231.0</ele><time>2026-04-12T14:51:02.792Z</time></trkpt><trkpt lat="42.76717700394811" lon="12.129878818119844"><ele>231.0</ele><time>2026-04-12T14:51:03.792Z</time></trkpt><trkpt lat="42.767060083998096" lon="12.129772007039199"><ele>231.0</ele><time>2026-04-12T14:51:04.792Z</time></trkpt><trkpt lat="42.766943623198266" lon="12.129666221659276"><ele>227.75</ele><time>2026-04-12T14:51:05.792Z</time></trkpt><trkpt lat="42.76683100233876" lon="12.129555809533745"><ele>224.5</ele><time>2026-04-12T14:51:06.792Z</time></trkpt><trkpt lat="42.766703102634686" lon="12.129457544626481"><ele>221.25</ele><time>2026-04-12T14:51:07.792Z</time></trkpt><trkpt lat="42.76658819302884" lon="12.129342479566732"><ele>218.0</ele><time>2026-04-12T14:51:08.792Z</time></trkpt><trkpt lat="42.76646958379322" lon="12.129236624180173"><ele>218.0</ele><time>2026-04-12T14:51:09.792Z</time></trkpt><trkpt lat="42.76634407791788" lon="12.129137692515487"><ele>218.0</ele><time>2026-04-12T14:51:10.792Z</time></trkpt><trkpt lat="42.76621021517049" lon="12.129052707288432"><ele>218.0</ele><time>2026-04-12T14:51:11.792Z</time></trkpt><trkpt lat="42.766071592292775" lon="12.128980038605484"><ele>218.0</ele><time>2026-04-12T14:51:12.791Z</time></trkpt><trkpt lat="42.76592815538022" lon="12.128936312398423"><ele>214.75</ele><time>2026-04-12T14:51:13.791Z</time></trkpt><trkpt lat="42.76578730093076" lon="12.128870966328517"><ele>211.5</ele><time>2026-04-12T14:51:14.791Z</time></trkpt><trkpt lat="42.76564816188729" lon="12.128818166907438"><ele>208.25</ele><time>2026-04-12T14:51:15.791Z</time></trkpt><trkpt lat="42.76551851464384" lon="12.12876346288067"><ele>205.0</ele><time>2026-04-12T14:51:16.791Z</time></trkpt><trkpt lat="42.76538782580896" lon="12.128696765334624"><ele>205.0</ele><time>2026-04-12T14:51:17.791Z</time></trkpt><trkpt lat="42.765267484343916" lon="12.128630937220077"><ele>205.0</ele><time>2026-04-12T14:51:18.791Z</time></trkpt><trkpt lat="42.76514533740191" lon="12.12856417041116"><ele>205.0</ele><time>2026-04-12T14:51:19.791Z</time></trkpt><trkpt lat="42.76502681348822" lon="12.128503889505174"><ele>205.0</ele><time>2026-04-12T14:51:20.791Z</time></trkpt><trkpt lat="42.76490293060322" lon="12.128439694072107"><ele>205.5</ele><time>2026-04-12T14:51:21.791Z</time></trkpt><trkpt lat="42.76477755879189" lon="12.128375592130592"><ele>206.0</ele><time>2026-04-12T14:51:22.791Z</time></trkpt><trkpt lat="42.76464981850006" lon="12.128313031013555"><ele>206.5</ele><time>2026-04-12T14:51:23.791Z</time></trkpt><trkpt lat="42.764519879613495" lon="12.128287268643327"><ele>207.0</ele><time>2026-04-12T14:51:24.791Z</time></trkpt><trkpt lat="42.76439348808169" lon="12.128258781833887"><ele>207.25</ele><time>2026-04-12T14:51:25.791Z</time></trkpt><trkpt lat="42.764262611105096" lon="12.12825198704869"><ele>207.5</ele><time>2026-04-12T14:51:26.794Z</time></trkpt><trkpt lat="42.764132415055826" lon="12.128269766777466"><ele>207.75</ele><time>2026-04-12T14:51:27.794Z</time></trkpt><trkpt lat="42.76400296472769" lon="12.128291170187788"><ele>208.0</ele><time>2026-04-12T14:51:28.794Z</time></trkpt><trkpt lat="42.76387379847085" lon="12.12830691946359"><ele>208.0</ele><time>2026-04-12T14:51:29.793Z</time></trkpt><trkpt lat="42.76375675900222" lon="12.128320994189705"><ele>208.0</ele><time>2026-04-12T14:51:30.793Z</time></trkpt><trkpt lat="42.763667528045616" lon="12.128323644837398"><ele>208.0</ele><time>2026-04-12T14:51:31.793Z</time></trkpt><trkpt lat="42.763572916253885" lon="12.12824249733461"><ele>208.0</ele><time>2026-04-12T14:51:33.793Z</time></trkpt><trkpt lat="42.76356856921302" lon="12.128152611674079"><ele>208.0</ele><time>2026-04-12T14:51:34.793Z</time></trkpt><trkpt lat="42.76360987641583" lon="12.128079336979278"><ele>204.0</ele><time>2026-04-12T14:51:35.793Z</time></trkpt><trkpt lat="42.763690885465756" lon="12.128058459464611"><ele>200.0</ele><time>2026-04-12T14:51:36.793Z</time></trkpt><trkpt lat="42.7637902584853" lon="12.12804269662953"><ele>196.0</ele><time>2026-04-12T14:51:37.793Z</time></trkpt><trkpt lat="42.763897161687744" lon="12.128008057567289"><ele>192.0</ele><time>2026-04-12T14:51:38.793Z</time></trkpt><trkpt lat="42.76403659486438" lon="12.127986441771345"><ele>188.0</ele><time>2026-04-12T14:51:39.793Z</time></trkpt><trkpt lat="42.76419533391446" lon="12.127959697964018"><ele>187.66666666666666</ele><time>2026-04-12T14:51:40.793Z</time></trkpt><trkpt lat="42.76436820628559" lon="12.127939378277718"><ele>187.33333333333334</ele><time>2026-04-12T14:51:41.793Z</time></trkpt><trkpt lat="42.76453870334378" lon="12.127930461426665"><ele>187.0</ele><time>2026-04-12T14:51:42.793Z</time></trkpt><trkpt lat="42.764704149333184" lon="12.127917263766802"><ele>187.0</ele><time>2026-04-12T14:51:43.793Z</time></trkpt><trkpt lat="42.76486638467842" lon="12.12790929566221"><ele>187.0</ele><time>2026-04-12T14:51:44.793Z</time></trkpt><trkpt lat="42.76502675884087" lon="12.127897139193042"><ele>187.0</ele><time>2026-04-12T14:51:45.793Z</time></trkpt><trkpt lat="42.765177926842725" lon="12.127889361847133"><ele>187.0</ele><time>2026-04-12T14:51:46.793Z</time></trkpt><trkpt lat="42.765320745213565" lon="12.127871395961087"><ele>187.0</ele><time>2026-04-12T14:51:47.793Z</time></trkpt><trkpt lat="42.765459135598846" lon="12.127881118615926"><ele>187.0</ele><time>2026-04-12T14:51:48.793Z</time></trkpt><trkpt lat="42.76559084447095" lon="12.127926740766622"><ele>187.0</ele><time>2026-04-12T14:51:49.793Z</time></trkpt><trkpt lat="42.76571131860082" lon="12.127985781653566"><ele>187.0</ele><time>2026-04-12T14:51:50.793Z</time></trkpt><trkpt lat="42.76581481965431" lon="12.128028570480623"><ele>187.0</ele><time>2026-04-12T14:51:51.792Z</time></trkpt><trkpt lat="42.76589986105794" lon="12.128074083670121"><ele>187.0</ele><time>2026-04-12T14:51:52.792Z</time></trkpt><trkpt lat="42.7659807543391" lon="12.12806045926696"><ele>187.0</ele><time>2026-04-12T14:51:53.792Z</time></trkpt><trkpt lat="42.76605412215044" lon="12.127958434130557"><ele>187.0</ele><time>2026-04-12T14:51:54.792Z</time></trkpt><trkpt lat="42.76606889148995" lon="12.127834196040117"><ele>187.0</ele><time>2026-04-12T14:51:55.792Z</time></trkpt><trkpt lat="42.76601456098017" lon="12.127733573868317"><ele>187.0</ele><time>2026-04-12T14:51:56.792Z</time></trkpt><trkpt lat="42.76591660112185" lon="12.127690528863148"><ele>187.0</ele><time>2026-04-12T14:51:57.792Z</time></trkpt><trkpt lat="42.765819340206846" lon="12.12764140332845"><ele>187.0</ele><time>2026-04-12T14:51:58.792Z</time></trkpt><trkpt lat="42.765704862942854" lon="12.127587816205272"><ele>187.0</ele><time>2026-04-12T14:51:59.792Z</time></trkpt><trkpt lat="42.76557950642808" lon="12.127507957097487"><ele>187.0</ele><time>2026-04-12T14:52:00.792Z</time></trkpt><trkpt lat="42.76544123747856" lon="12.127442709380729"><ele>187.0</ele><time>2026-04-12T14:52:01.792Z</time></trkpt><trkpt lat="42.76529131605769" lon="12.12737485125738"><ele>187.0</ele><time>2026-04-12T14:52:02.792Z</time></trkpt><trkpt lat="42.76514987903584" lon="12.127310976096485"><ele>180.0</ele><time>2026-04-12T14:52:03.792Z</time></trkpt><trkpt lat="42.765000499807854" lon="12.12724191564748"><ele>173.0</ele><time>2026-04-12T14:52:04.792Z</time></trkpt><trkpt lat="42.76485540232713" lon="12.127177201260432"><ele>166.0</ele><time>2026-04-12T14:52:05.792Z</time></trkpt><trkpt lat="42.76471339761118" lon="12.127112099501158"><ele>166.0</ele><time>2026-04-12T14:52:06.792Z</time></trkpt><trkpt lat="42.76455874230678" lon="12.127055562777054"><ele>166.0</ele><time>2026-04-12T14:52:07.792Z</time></trkpt><trkpt lat="42.764419664658" lon="12.12692448014416"><ele>166.0</ele><time>2026-04-12T14:52:08.792Z</time></trkpt><trkpt lat="42.76426816147173" lon="12.126799989026145"><ele>167.0</ele><time>2026-04-12T14:52:09.791Z</time></trkpt><trkpt lat="42.76412045370503" lon="12.126677834868914"><ele>168.0</ele><time>2026-04-12T14:52:10.791Z</time></trkpt><trkpt lat="42.76397170139298" lon="12.126554531360386"><ele>169.0</ele><time>2026-04-12T14:52:11.791Z</time></trkpt><trkpt lat="42.76382526653066" lon="12.126432566295897"><ele>165.66666666666669</ele><time>2026-04-12T14:52:12.791Z</time></trkpt><trkpt lat="42.76368891880813" lon="12.126317620533284"><ele>162.33333333333334</ele><time>2026-04-12T14:52:13.791Z</time></trkpt><trkpt lat="42.76354437738252" lon="12.126195745474671"><ele>159.0</ele><time>2026-04-12T14:52:14.791Z</time></trkpt><trkpt lat="42.763417838784534" lon="12.126092169284403"><ele>159.0</ele><time>2026-04-12T14:52:15.791Z</time></trkpt><trkpt lat="42.763293014130575" lon="12.125985905683955"><ele>159.0</ele><time>2026-04-12T14:52:16.791Z</time></trkpt><trkpt lat="42.763172411542" lon="12.12589457056219"><ele>159.0</ele><time>2026-04-12T14:52:17.791Z</time></trkpt><trkpt lat="42.76303482681673" lon="12.125854320447537"><ele>159.0</ele><time>2026-04-12T14:52:18.791Z</time></trkpt><trkpt lat="42.762901756862775" lon="12.125828163335092"><ele>159.0</ele><time>2026-04-12T14:52:19.791Z</time></trkpt><trkpt lat="42.76276513759175" lon="12.12583244552258"><ele>159.0</ele><time>2026-04-12T14:52:20.791Z</time></trkpt><trkpt lat="42.76263281869526" lon="12.12584023760252"><ele>159.0</ele><time>2026-04-12T14:52:21.791Z</time></trkpt><trkpt lat="42.76249485886265" lon="12.125835649927172"><ele>159.0</ele><time>2026-04-12T14:52:22.791Z</time></trkpt><trkpt lat="42.762351531133675" lon="12.125840860937071"><ele>159.25</ele><time>2026-04-12T14:52:23.791Z</time></trkpt><trkpt lat="42.76220792423177" lon="12.125841300985252"><ele>159.5</ele><time>2026-04-12T14:52:24.791Z</time></trkpt><trkpt lat="42.76206515761528" lon="12.125844618625118"><ele>159.75</ele><time>2026-04-12T14:52:25.791Z</time></trkpt><trkpt lat="42.76192253319331" lon="12.125845936568622"><ele>160.0</ele><time>2026-04-12T14:52:26.791Z</time></trkpt><trkpt lat="42.7617790677014" lon="12.125844100385317"><ele>157.75</ele><time>2026-04-12T14:52:27.791Z</time></trkpt><trkpt lat="42.761637285778356" lon="12.1258503380514"><ele>155.5</ele><time>2026-04-12T14:52:28.79Z</time></trkpt><trkpt lat="42.76149280621574" lon="12.125848499575776"><ele>153.25</ele><time>2026-04-12T14:52:29.79Z</time></trkpt><trkpt lat="42.761350756509266" lon="12.125848940287113"><ele>151.0</ele><time>2026-04-12T14:52:30.79Z</time></trkpt><trkpt lat="42.76121006540439" lon="12.12585467996367"><ele>151.0</ele><time>2026-04-12T14:52:31.79Z</time></trkpt><trkpt lat="42.76106423166214" lon="12.125841134830777"><ele>151.0</ele><time>2026-04-12T14:52:32.79Z</time></trkpt><trkpt lat="42.76092017022409" lon="12.125866679129508"><ele>151.0</ele><time>2026-04-12T14:52:33.79Z</time></trkpt><trkpt lat="42.76078263048484" lon="12.125847075337408"><ele>151.0</ele><time>2026-04-12T14:52:34.79Z</time></trkpt><trkpt lat="42.76064628939395" lon="12.125870346574311"><ele>150.0</ele><time>2026-04-12T14:52:35.79Z</time></trkpt><trkpt lat="42.76050678461188" lon="12.125870623652421"><ele>149.0</ele><time>2026-04-12T14:52:36.79Z</time></trkpt><trkpt lat="42.76036828820172" lon="12.125873961274783"><ele>148.0</ele><time>2026-04-12T14:52:37.79Z</time></trkpt><trkpt lat="42.76022647840404" lon="12.125881412177645"><ele>147.0</ele><time>2026-04-12T14:52:38.79Z</time></trkpt><trkpt lat="42.76008558737853" lon="12.125889377621643"><ele>146.0</ele><time>2026-04-12T14:52:39.79Z</time></trkpt><trkpt lat="42.759943973409804" lon="12.125893407519559"><ele>145.0</ele><time>2026-04-12T14:52:40.79Z</time></trkpt><trkpt lat="42.759803388951134" lon="12.125895449331056"><ele>144.0</ele><time>2026-04-12T14:52:41.79Z</time></trkpt><trkpt lat="42.759661511578955" lon="12.125894991694874"><ele>143.0</ele><time>2026-04-12T14:52:42.79Z</time></trkpt><trkpt lat="42.75953143042438" lon="12.125903122876501"><ele>143.0</ele><time>2026-04-12T14:52:43.79Z</time></trkpt><trkpt lat="42.75940111612186" lon="12.125908424085122"><ele>143.0</ele><time>2026-04-12T14:52:44.79Z</time></trkpt><trkpt lat="42.759274488715164" lon="12.125910936433542"><ele>143.0</ele><time>2026-04-12T14:52:45.79Z</time></trkpt><trkpt lat="42.75915000054054" lon="12.125915035577808"><ele>143.0</ele><time>2026-04-12T14:52:46.789Z</time></trkpt><trkpt lat="42.75903345274821" lon="12.125897213402537"><ele>142.20000000000002</ele><time>2026-04-12T14:52:47.789Z</time></trkpt><trkpt lat="42.7589197400986" lon="12.12592188551896"><ele>141.4</ele><time>2026-04-12T14:52:48.789Z</time></trkpt><trkpt lat="42.75881507378191" lon="12.125924856058266"><ele>140.60000000000002</ele><time>2026-04-12T14:52:49.789Z</time></trkpt><trkpt lat="42.75871801479367" lon="12.125925016958284"><ele>139.8</ele><time>2026-04-12T14:52:50.789Z</time></trkpt><trkpt lat="42.75862293469293" lon="12.12592778304065"><ele>139.0</ele><time>2026-04-12T14:52:51.789Z</time></trkpt><trkpt lat="42.758534682089504" lon="12.125932926244989"><ele>139.5</ele><time>2026-04-12T14:52:52.789Z</time></trkpt><trkpt lat="42.75845191671954" lon="12.125939322651332"><ele>140.0</ele><time>2026-04-12T14:52:53.789Z</time></trkpt><trkpt lat="42.758370938133126" lon="12.125940112500729"><ele>140.5</ele><time>2026-04-12T14:52:54.789Z</time></trkpt><trkpt lat="42.75829769182267" lon="12.125931247221937"><ele>141.0</ele><time>2026-04-12T14:52:55.789Z</time></trkpt><trkpt lat="42.758230851340954" lon="12.125903514679674"><ele>141.5</ele><time>2026-04-12T14:52:56.789Z</time></trkpt><trkpt lat="42.758172576763776" lon="12.125836812495088"><ele>142.0</ele><time>2026-04-12T14:52:57.789Z</time></trkpt><trkpt lat="42.758101991515296" lon="12.125761062713629"><ele>141.0</ele><time>2026-04-12T14:52:58.789Z</time></trkpt><trkpt lat="42.75802929041109" lon="12.125681518683855"><ele>140.0</ele><time>2026-04-12T14:52:59.789Z</time></trkpt><trkpt lat="42.75794832369412" lon="12.125621103383068"><ele>139.0</ele><time>2026-04-12T14:53:00.789Z</time></trkpt><trkpt lat="42.757878048553884" lon="12.125537380109968"><ele>138.0</ele><time>2026-04-12T14:53:01.789Z</time></trkpt><trkpt lat="42.75780337934145" lon="12.125469205284013"><ele>137.0</ele><time>2026-04-12T14:53:02.789Z</time></trkpt><trkpt lat="42.7577250736313" lon="12.125427101016934"><ele>137.83333333333331</ele><time>2026-04-12T14:53:03.789Z</time></trkpt><trkpt lat="42.75765858053163" lon="12.125388205485079"><ele>138.66666666666666</ele><time>2026-04-12T14:53:04.788Z</time></trkpt><trkpt lat="42.757591130985574" lon="12.125331081647298"><ele>139.5</ele><time>2026-04-12T14:53:05.788Z</time></trkpt><trkpt lat="42.75751177222522" lon="12.125298240668199"><ele>140.33333333333334</ele><time>2026-04-12T14:53:06.788Z</time></trkpt><trkpt lat="42.7574389139748" lon="12.12527025896279"><ele>141.16666666666669</ele><time>2026-04-12T14:53:07.788Z</time></trkpt><trkpt lat="42.7573662667442" lon="12.12524463813425"><ele>142.0</ele><time>2026-04-12T14:53:08.788Z</time></trkpt><trkpt lat="42.75729131650428" lon="12.125220893300153"><ele>142.0</ele><time>2026-04-12T14:53:09.788Z</time></trkpt><trkpt lat="42.75721797645707" lon="12.125198641139578"><ele>142.0</ele><time>2026-04-12T14:53:10.788Z</time></trkpt><trkpt lat="42.757155770065296" lon="12.12518021676387"><ele>142.0</ele><time>2026-04-12T14:53:11.788Z</time></trkpt><trkpt lat="42.757082020207555" lon="12.125181415978284"><ele>142.0</ele><time>2026-04-12T14:53:12.788Z</time></trkpt><trkpt lat="42.75700709679545" lon="12.125151145471499"><ele>142.0</ele><time>2026-04-12T14:53:13.788Z</time></trkpt><trkpt lat="42.756926854765304" lon="12.1251282679757"><ele>142.0</ele><time>2026-04-12T14:53:14.788Z</time></trkpt><trkpt lat="42.756833787861034" lon="12.125100198413515"><ele>142.4</ele><time>2026-04-12T14:53:15.788Z</time></trkpt><trkpt lat="42.756740136848755" lon="12.125067062703705"><ele>142.79999999999998</ele><time>2026-04-12T14:53:16.788Z</time></trkpt><trkpt lat="42.756645039181144" lon="12.125017018229867"><ele>143.2</ele><time>2026-04-12T14:53:17.788Z</time></trkpt><trkpt lat="42.75654498829744" lon="12.124940085884495"><ele>143.6</ele><time>2026-04-12T14:53:18.788Z</time></trkpt><trkpt lat="42.75644516679922" lon="12.124853990677192"><ele>144.0</ele><time>2026-04-12T14:53:19.788Z</time></trkpt><trkpt lat="42.75634960073071" lon="12.124737665093704"><ele>144.0</ele><time>2026-04-12T14:53:20.788Z</time></trkpt><trkpt lat="42.756254820583585" lon="12.124607750266444"><ele>144.0</ele><time>2026-04-12T14:53:21.788Z</time></trkpt><trkpt lat="42.756150037805504" lon="12.124486311772316"><ele>144.0</ele><time>2026-04-12T14:53:22.788Z</time></trkpt><trkpt lat="42.756049324476095" lon="12.124364734266356"><ele>144.0</ele><time>2026-04-12T14:53:23.787Z</time></trkpt><trkpt lat="42.755961084509224" lon="12.12422258912816"><ele>144.25</ele><time>2026-04-12T14:53:24.787Z</time></trkpt><trkpt lat="42.75586179791648" lon="12.124095408427921"><ele>144.5</ele><time>2026-04-12T14:53:25.787Z</time></trkpt><trkpt lat="42.75574848576915" lon="12.123985283206364"><ele>144.75</ele><time>2026-04-12T14:53:26.787Z</time></trkpt><trkpt lat="42.75564384094549" lon="12.123859356333476"><ele>145.0</ele><time>2026-04-12T14:53:27.787Z</time></trkpt><trkpt lat="42.75553958177396" lon="12.123729193367993"><ele>145.0</ele><time>2026-04-12T14:53:28.787Z</time></trkpt><trkpt lat="42.75543074027345" lon="12.12359298248542"><ele>145.0</ele><time>2026-04-12T14:53:29.787Z</time></trkpt><trkpt lat="42.75530786139337" lon="12.123445317565855"><ele>145.0</ele><time>2026-04-12T14:53:30.787Z</time></trkpt><trkpt lat="42.755187811214405" lon="12.12330357391914"><ele>146.0</ele><time>2026-04-12T14:53:31.787Z</time></trkpt><trkpt lat="42.75507729177532" lon="12.123180093169543"><ele>147.0</ele><time>2026-04-12T14:53:32.789Z</time></trkpt><trkpt lat="42.75497285165238" lon="12.123050747850824"><ele>148.0</ele><time>2026-04-12T14:53:33.789Z</time></trkpt><trkpt lat="42.7548828062784" lon="12.122930755426717"><ele>149.0</ele><time>2026-04-12T14:53:34.789Z</time></trkpt><trkpt lat="42.754800836041575" lon="12.122812679062045"><ele>149.0</ele><time>2026-04-12T14:53:35.789Z</time></trkpt><trkpt lat="42.75473302757996" lon="12.122681808940555"><ele>149.0</ele><time>2026-04-12T14:53:36.789Z</time></trkpt><trkpt lat="42.754663798569105" lon="12.122532381160783"><ele>149.0</ele><time>2026-04-12T14:53:37.789Z</time></trkpt><trkpt lat="42.7546048375575" lon="12.122370055999612"><ele>149.0</ele><time>2026-04-12T14:53:38.789Z</time></trkpt><trkpt lat="42.75454949665176" lon="12.12221016750684"><ele>148.5</ele><time>2026-04-12T14:53:39.789Z</time></trkpt><trkpt lat="42.754499779447656" lon="12.12204356218052"><ele>148.0</ele><time>2026-04-12T14:53:40.789Z</time></trkpt><trkpt lat="42.75445338518076" lon="12.121867462346254"><ele>147.5</ele><time>2026-04-12T14:53:41.789Z</time></trkpt><trkpt lat="42.754396700982596" lon="12.121702186390708"><ele>147.0</ele><time>2026-04-12T14:53:42.789Z</time></trkpt><trkpt lat="42.75432305182641" lon="12.121548494408268"><ele>150.25</ele><time>2026-04-12T14:53:43.789Z</time></trkpt><trkpt lat="42.754230263097774" lon="12.121412513768242"><ele>153.5</ele><time>2026-04-12T14:53:44.789Z</time></trkpt><trkpt lat="42.754130286572284" lon="12.121315189495089"><ele>156.75</ele><time>2026-04-12T14:53:45.789Z</time></trkpt><trkpt lat="42.75402699348339" lon="12.121223043670907"><ele>160.0</ele><time>2026-04-12T14:53:46.789Z</time></trkpt><trkpt lat="42.75390169557556" lon="12.121159273056268"><ele>160.0</ele><time>2026-04-12T14:53:47.788Z</time></trkpt><trkpt lat="42.75379616842761" lon="12.121132620149433"><ele>160.0</ele><time>2026-04-12T14:53:48.788Z</time></trkpt><trkpt lat="42.75373163619047" lon="12.121122515220117"><ele>160.0</ele><time>2026-04-12T14:53:49.788Z</time></trkpt><trkpt lat="42.75363963320927" lon="12.121135104583473"><ele>160.0</ele><time>2026-04-12T14:53:52.788Z</time></trkpt><trkpt lat="42.753576067174826" lon="12.121153466801259"><ele>160.0</ele><time>2026-04-12T14:54:30.786Z</time></trkpt><trkpt lat="42.753513279557026" lon="12.121166867290787"><ele>160.0</ele><time>2026-04-12T14:55:37.782Z</time></trkpt><trkpt lat="42.753469682805246" lon="12.121058931597405"><ele>160.0</ele><time>2026-04-12T14:58:48.775Z</time></trkpt><trkpt lat="42.753467971525524" lon="12.120945308051569"><ele>160.0</ele><time>2026-04-12T14:58:49.775Z</time></trkpt><trkpt lat="42.753495727939985" lon="12.120835030826957"><ele>160.0</ele><time>2026-04-12T14:58:50.775Z</time></trkpt><trkpt lat="42.75354728079969" lon="12.120762618457487"><ele>160.0</ele><time>2026-04-12T14:58:51.775Z</time></trkpt><trkpt lat="42.75363175203775" lon="12.12070784274177"><ele>160.0</ele><time>2026-04-12T14:58:52.775Z</time></trkpt><trkpt lat="42.753729545272215" lon="12.120682642101878"><ele>160.0</ele><time>2026-04-12T14:58:53.775Z</time></trkpt><trkpt lat="42.75384222279391" lon="12.12066763634422"><ele>160.0</ele><time>2026-04-12T14:58:54.774Z</time></trkpt><trkpt lat="42.753980580908795" lon="12.120678356808398"><ele>160.0</ele><time>2026-04-12T14:58:55.774Z</time></trkpt><trkpt lat="42.754134622249126" lon="12.120713006078153"><ele>160.0</ele><time>2026-04-12T14:58:56.774Z</time></trkpt><trkpt lat="42.75428316206369" lon="12.12078009263883"><ele>158.25</ele><time>2026-04-12T14:58:57.774Z</time></trkpt><trkpt lat="42.75441437900243" lon="12.120827220002546"><ele>156.5</ele><time>2026-04-12T14:58:58.774Z</time></trkpt><trkpt lat="42.75453917342805" lon="12.120857687428003"><ele>154.75</ele><time>2026-04-12T14:58:59.774Z</time></trkpt><trkpt lat="42.75465161087197" lon="12.120868762511938"><ele>153.0</ele><time>2026-04-12T14:59:00.774Z</time></trkpt><trkpt lat="42.754785482810675" lon="12.12084673337036"><ele>153.0</ele><time>2026-04-12T14:59:01.774Z</time></trkpt><trkpt lat="42.75490732399188" lon="12.120775598429322"><ele>153.0</ele><time>2026-04-12T14:59:02.774Z</time></trkpt><trkpt lat="42.75501116674993" lon="12.120665070151066"><ele>153.0</ele><time>2026-04-12T14:59:03.774Z</time></trkpt><trkpt lat="42.7551139017389" lon="12.120523255770019"><ele>153.0</ele><time>2026-04-12T14:59:04.774Z</time></trkpt><trkpt lat="42.75519633710475" lon="12.120358737237769"><ele>153.0</ele><time>2026-04-12T14:59:05.774Z</time></trkpt><trkpt lat="42.75528988390024" lon="12.120195812298453"><ele>153.0</ele><time>2026-04-12T14:59:06.774Z</time></trkpt><trkpt lat="42.755383478105486" lon="12.120030590731748"><ele>153.0</ele><time>2026-04-12T14:59:07.774Z</time></trkpt><trkpt lat="42.75546656999031" lon="12.119876848943132"><ele>153.0</ele><time>2026-04-12T14:59:08.774Z</time></trkpt><trkpt lat="42.75554875979081" lon="12.119727139144151"><ele>153.0</ele><time>2026-04-12T14:59:09.774Z</time></trkpt><trkpt lat="42.75563616728091" lon="12.119571669584671"><ele>153.0</ele><time>2026-04-12T14:59:10.774Z</time></trkpt><trkpt lat="42.7557278061746" lon="12.119417586254707"><ele>153.0</ele><time>2026-04-12T14:59:11.774Z</time></trkpt><trkpt lat="42.75582151197509" lon="12.119257869711806"><ele>153.0</ele><time>2026-04-12T14:59:12.773Z</time></trkpt><trkpt lat="42.755912254871944" lon="12.119097925461798"><ele>152.25</ele><time>2026-04-12T14:59:13.773Z</time></trkpt><trkpt lat="42.756008046850575" lon="12.118930608917244"><ele>151.5</ele><time>2026-04-12T14:59:14.773Z</time></trkpt><trkpt lat="42.756099692958884" lon="12.118770402824529"><ele>150.75</ele><time>2026-04-12T14:59:15.773Z</time></trkpt><trkpt lat="42.756190044930214" lon="12.118618334412178"><ele>150.0</ele><time>2026-04-12T14:59:16.773Z</time></trkpt><trkpt lat="42.75627996447176" lon="12.118470690736356"><ele>150.0</ele><time>2026-04-12T14:59:17.773Z</time></trkpt><trkpt lat="42.75635542301212" lon="12.11833173818452"><ele>150.0</ele><time>2026-04-12T14:59:18.773Z</time></trkpt><trkpt lat="42.75644599853647" lon="12.118178797469303"><ele>150.0</ele><time>2026-04-12T14:59:19.773Z</time></trkpt><trkpt lat="42.756540369996536" lon="12.118039590494456"><ele>150.0</ele><time>2026-04-12T14:59:20.773Z</time></trkpt><trkpt lat="42.75663768932509" lon="12.117895434486298"><ele>150.0</ele><time>2026-04-12T14:59:21.773Z</time></trkpt><trkpt lat="42.756742051032305" lon="12.117759326618561"><ele>150.0</ele><time>2026-04-12T14:59:22.773Z</time></trkpt><trkpt lat="42.7568503151757" lon="12.1176260943374"><ele>150.0</ele><time>2026-04-12T14:59:23.773Z</time></trkpt><trkpt lat="42.75696640960856" lon="12.117492117157559"><ele>150.0</ele><time>2026-04-12T14:59:24.773Z</time></trkpt><trkpt lat="42.75709237303777" lon="12.117356067364062"><ele>150.0</ele><time>2026-04-12T14:59:25.773Z</time></trkpt><trkpt lat="42.75722991209861" lon="12.117220930050602"><ele>150.0</ele><time>2026-04-12T14:59:26.773Z</time></trkpt><trkpt lat="42.75737536296734" lon="12.117098889605495"><ele>150.0</ele><time>2026-04-12T14:59:27.773Z</time></trkpt><trkpt lat="42.757523884879845" lon="12.116973301764231"><ele>150.0</ele><time>2026-04-12T14:59:28.773Z</time></trkpt><trkpt lat="42.757670099921185" lon="12.116841923192066"><ele>150.0</ele><time>2026-04-12T14:59:29.773Z</time></trkpt><trkpt lat="42.75781704048294" lon="12.116714191809027"><ele>150.0</ele><time>2026-04-12T14:59:30.772Z</time></trkpt><trkpt lat="42.75796595401608" lon="12.116578913305734"><ele>149.0</ele><time>2026-04-12T14:59:31.772Z</time></trkpt><trkpt lat="42.758110952170746" lon="12.116440117678193"><ele>148.0</ele><time>2026-04-12T14:59:32.772Z</time></trkpt><trkpt lat="42.758251479417204" lon="12.11630354700452"><ele>147.0</ele><time>2026-04-12T14:59:33.772Z</time></trkpt><trkpt lat="42.758391706920925" lon="12.11617051301543"><ele>146.0</ele><time>2026-04-12T14:59:34.772Z</time></trkpt><trkpt lat="42.758542697027885" lon="12.116031361529227"><ele>145.0</ele><time>2026-04-12T14:59:35.772Z</time></trkpt><trkpt lat="42.75869626251099" lon="12.115894427828099"><ele>144.0</ele><time>2026-04-12T14:59:36.772Z</time></trkpt><trkpt lat="42.75884899087795" lon="12.11575511682482"><ele>145.0</ele><time>2026-04-12T14:59:37.772Z</time></trkpt><trkpt lat="42.75900827241082" lon="12.115607240900891"><ele>146.0</ele><time>2026-04-12T14:59:38.772Z</time></trkpt><trkpt lat="42.75917094042368" lon="12.115461013644172"><ele>147.0</ele><time>2026-04-12T14:59:39.772Z</time></trkpt><trkpt lat="42.75933424208655" lon="12.11531021344589"><ele>147.33333333333334</ele><time>2026-04-12T14:59:40.772Z</time></trkpt><trkpt lat="42.759499594958214" lon="12.115157334012503"><ele>147.66666666666669</ele><time>2026-04-12T14:59:41.772Z</time></trkpt><trkpt lat="42.75966730832247" lon="12.115000114641239"><ele>148.0</ele><time>2026-04-12T14:59:42.772Z</time></trkpt><trkpt lat="42.75983748345819" lon="12.114846416495444"><ele>148.0</ele><time>2026-04-12T14:59:43.772Z</time></trkpt><trkpt lat="42.76000591131074" lon="12.11469251014917"><ele>148.0</ele><time>2026-04-12T14:59:44.772Z</time></trkpt><trkpt lat="42.76016614565737" lon="12.11454593349829"><ele>148.0</ele><time>2026-04-12T14:59:45.772Z</time></trkpt><trkpt lat="42.76032454830847" lon="12.11440373030818"><ele>148.66666666666669</ele><time>2026-04-12T14:59:46.772Z</time></trkpt><trkpt lat="42.760478495542834" lon="12.114266268480954"><ele>149.33333333333334</ele><time>2026-04-12T14:59:47.772Z</time></trkpt><trkpt lat="42.76062609793922" lon="12.114132561296875"><ele>150.0</ele><time>2026-04-12T14:59:48.771Z</time></trkpt><trkpt lat="42.76076777142686" lon="12.114004261647006"><ele>150.0</ele><time>2026-04-12T14:59:49.771Z</time></trkpt><trkpt lat="42.76090253947522" lon="12.11388735993992"><ele>150.0</ele><time>2026-04-12T14:59:50.773Z</time></trkpt><trkpt lat="42.76102199286999" lon="12.113785074403214"><ele>150.0</ele><time>2026-04-12T14:59:51.773Z</time></trkpt><trkpt lat="42.76111838265291" lon="12.11370159003086"><ele>150.0</ele><time>2026-04-12T14:59:52.772Z</time></trkpt><trkpt lat="42.76120888507683" lon="12.113631433392044"><ele>149.25</ele><time>2026-04-12T14:59:53.773Z</time></trkpt><trkpt lat="42.7612987357514" lon="12.113559328600756"><ele>148.5</ele><time>2026-04-12T14:59:54.773Z</time></trkpt><trkpt lat="42.76139222657152" lon="12.113484440426399"><ele>147.75</ele><time>2026-04-12T14:59:55.772Z</time></trkpt><trkpt lat="42.76150108769408" lon="12.113412384145294"><ele>147.0</ele><time>2026-04-12T14:59:56.773Z</time></trkpt><trkpt lat="42.76161558813438" lon="12.113337349823011"><ele>147.0</ele><time>2026-04-12T14:59:57.772Z</time></trkpt><trkpt lat="42.76174199110932" lon="12.113250112274342"><ele>147.0</ele><time>2026-04-12T14:59:58.772Z</time></trkpt><trkpt lat="42.76187782214706" lon="12.113151002643662"><ele>147.0</ele><time>2026-04-12T14:59:59.772Z</time></trkpt><trkpt lat="42.762024034799616" lon="12.11304406469366"><ele>148.0</ele><time>2026-04-12T15:00:00.773Z</time></trkpt><trkpt lat="42.76218387103167" lon="12.112939026832304"><ele>149.0</ele><time>2026-04-12T15:00:01.773Z</time></trkpt><trkpt lat="42.76235094539915" lon="12.112834604102297"><ele>150.0</ele><time>2026-04-12T15:00:02.773Z</time></trkpt><trkpt lat="42.76252137991164" lon="12.112739242873856"><ele>150.0</ele><time>2026-04-12T15:00:03.773Z</time></trkpt><trkpt lat="42.76268749339569" lon="12.112655481587273"><ele>150.0</ele><time>2026-04-12T15:00:04.773Z</time></trkpt><trkpt lat="42.762845776001825" lon="12.112574320977139"><ele>150.0</ele><time>2026-04-12T15:00:05.772Z</time></trkpt><trkpt lat="42.76300392962" lon="12.11249086902883"><ele>150.0</ele><time>2026-04-12T15:00:06.772Z</time></trkpt><trkpt lat="42.76316327596844" lon="12.112409571957114"><ele>150.0</ele><time>2026-04-12T15:00:07.772Z</time></trkpt><trkpt lat="42.76332750689957" lon="12.112325024381931"><ele>150.0</ele><time>2026-04-12T15:00:08.772Z</time></trkpt><trkpt lat="42.76349964009817" lon="12.112239675909965"><ele>149.66666666666666</ele><time>2026-04-12T15:00:09.772Z</time></trkpt><trkpt lat="42.763674623873065" lon="12.112157036376521"><ele>149.33333333333331</ele><time>2026-04-12T15:00:10.772Z</time></trkpt><trkpt lat="42.76385179525224" lon="12.112074733072037"><ele>149.0</ele><time>2026-04-12T15:00:11.772Z</time></trkpt><trkpt lat="42.764029068261195" lon="12.11199155714235"><ele>149.0</ele><time>2026-04-12T15:00:12.772Z</time></trkpt><trkpt lat="42.76420891298662" lon="12.111913889581432"><ele>149.0</ele><time>2026-04-12T15:00:13.772Z</time></trkpt><trkpt lat="42.764389379478594" lon="12.111845470451062"><ele>149.0</ele><time>2026-04-12T15:00:14.772Z</time></trkpt><trkpt lat="42.76456782696806" lon="12.111785258194475"><ele>148.66666666666666</ele><time>2026-04-12T15:00:15.772Z</time></trkpt><trkpt lat="42.76474614579718" lon="12.111735227137693"><ele>148.33333333333334</ele><time>2026-04-12T15:00:16.772Z</time></trkpt><trkpt lat="42.76492491676152" lon="12.111695731799571"><ele>148.0</ele><time>2026-04-12T15:00:17.772Z</time></trkpt><trkpt lat="42.76510918220895" lon="12.111671611308267"><ele>148.33333333333334</ele><time>2026-04-12T15:00:18.772Z</time></trkpt><trkpt lat="42.765284604928546" lon="12.111651547811482"><ele>148.66666666666666</ele><time>2026-04-12T15:00:19.772Z</time></trkpt><trkpt lat="42.765457817377495" lon="12.111629928199326"><ele>149.0</ele><time>2026-04-12T15:00:20.772Z</time></trkpt><trkpt lat="42.7656400346026" lon="12.111606830288718"><ele>149.0</ele><time>2026-04-12T15:00:21.772Z</time></trkpt><trkpt lat="42.765829177212375" lon="12.1115965936274"><ele>149.0</ele><time>2026-04-12T15:00:22.772Z</time></trkpt><trkpt lat="42.76601297066935" lon="12.111582371124598"><ele>149.0</ele><time>2026-04-12T15:00:23.771Z</time></trkpt><trkpt lat="42.766188594162784" lon="12.111572722534385"><ele>149.66666666666666</ele><time>2026-04-12T15:00:24.771Z</time></trkpt><trkpt lat="42.766352082624685" lon="12.111566259058407"><ele>150.33333333333334</ele><time>2026-04-12T15:00:25.771Z</time></trkpt><trkpt lat="42.7665180722067" lon="12.111563532854127"><ele>151.0</ele><time>2026-04-12T15:00:26.771Z</time></trkpt><trkpt lat="42.76667302815432" lon="12.111565601166644"><ele>150.25</ele><time>2026-04-12T15:00:27.771Z</time></trkpt><trkpt lat="42.766823108445756" lon="12.111574478473953"><ele>149.5</ele><time>2026-04-12T15:00:28.771Z</time></trkpt><trkpt lat="42.76696784460155" lon="12.111586969742579"><ele>148.75</ele><time>2026-04-12T15:00:29.771Z</time></trkpt><trkpt lat="42.76709994265127" lon="12.111605527697767"><ele>148.0</ele><time>2026-04-12T15:00:30.771Z</time></trkpt><trkpt lat="42.767224385586495" lon="12.111639102978991"><ele>148.0</ele><time>2026-04-12T15:00:31.771Z</time></trkpt><trkpt lat="42.76734238105667" lon="12.111693592274854"><ele>148.0</ele><time>2026-04-12T15:00:32.771Z</time></trkpt><trkpt lat="42.76746848713986" lon="12.111766438645247"><ele>148.0</ele><time>2026-04-12T15:00:33.771Z</time></trkpt><trkpt lat="42.767593419837844" lon="12.111859230623548"><ele>148.0</ele><time>2026-04-12T15:00:34.771Z</time></trkpt><trkpt lat="42.76770045170424" lon="12.111989499751857"><ele>150.0</ele><time>2026-04-12T15:00:35.771Z</time></trkpt><trkpt lat="42.76779212314942" lon="12.112137613462036"><ele>152.0</ele><time>2026-04-12T15:00:36.771Z</time></trkpt><trkpt lat="42.767876791357956" lon="12.112308056685288"><ele>154.0</ele><time>2026-04-12T15:00:37.771Z</time></trkpt><trkpt lat="42.76796702253656" lon="12.112478199586121"><ele>156.0</ele><time>2026-04-12T15:00:38.771Z</time></trkpt><trkpt lat="42.76804948656315" lon="12.112654652612353"><ele>156.0</ele><time>2026-04-12T15:00:39.771Z</time></trkpt><trkpt lat="42.768157002468286" lon="12.112802391582067"><ele>156.0</ele><time>2026-04-12T15:00:40.771Z</time></trkpt><trkpt lat="42.76828359867757" lon="12.112919271079889"><ele>156.0</ele><time>2026-04-12T15:00:41.771Z</time></trkpt><trkpt lat="42.768433870927154" lon="12.113000001396285"><ele>157.66666666666666</ele><time>2026-04-12T15:00:42.77Z</time></trkpt><trkpt lat="42.76858459315995" lon="12.113053740964272"><ele>159.33333333333331</ele><time>2026-04-12T15:00:43.77Z</time></trkpt><trkpt lat="42.76873223738158" lon="12.113088386832075"><ele>161.0</ele><time>2026-04-12T15:00:44.77Z</time></trkpt><trkpt lat="42.76888119516486" lon="12.113102877956175"><ele>161.0</ele><time>2026-04-12T15:00:45.77Z</time></trkpt><trkpt lat="42.769031869989924" lon="12.113055197416882"><ele>161.0</ele><time>2026-04-12T15:00:46.77Z</time></trkpt><trkpt lat="42.76917974541174" lon="12.112999374367282"><ele>161.0</ele><time>2026-04-12T15:00:47.77Z</time></trkpt><trkpt lat="42.76931977294724" lon="12.112904250464148"><ele>157.33333333333331</ele><time>2026-04-12T15:00:48.77Z</time></trkpt><trkpt lat="42.76945212953643" lon="12.112772610635078"><ele>153.66666666666666</ele><time>2026-04-12T15:00:49.77Z</time></trkpt><trkpt lat="42.76959972316436" lon="12.112648356072206"><ele>150.0</ele><time>2026-04-12T15:00:50.77Z</time></trkpt><trkpt lat="42.76973241845195" lon="12.112496058298074"><ele>155.66666666666666</ele><time>2026-04-12T15:00:51.77Z</time></trkpt><trkpt lat="42.76986387809205" lon="12.112329052734673"><ele>161.33333333333331</ele><time>2026-04-12T15:00:52.77Z</time></trkpt><trkpt lat="42.76998116305829" lon="12.112160638666593"><ele>167.0</ele><time>2026-04-12T15:00:53.77Z</time></trkpt><trkpt lat="42.77009509860239" lon="12.111989907517888"><ele>162.66666666666666</ele><time>2026-04-12T15:00:54.77Z</time></trkpt><trkpt lat="42.77021535286226" lon="12.111849460634483"><ele>158.33333333333334</ele><time>2026-04-12T15:00:55.77Z</time></trkpt><trkpt lat="42.77035771359774" lon="12.111740949549878"><ele>154.0</ele><time>2026-04-12T15:00:56.77Z</time></trkpt><trkpt lat="42.77051631417564" lon="12.111661730236635"><ele>154.0</ele><time>2026-04-12T15:00:57.77Z</time></trkpt><trkpt lat="42.77068646380059" lon="12.1116020157048"><ele>154.0</ele><time>2026-04-12T15:00:58.77Z</time></trkpt><trkpt lat="42.770858639406455" lon="12.111545771673159"><ele>154.0</ele><time>2026-04-12T15:00:59.77Z</time></trkpt><trkpt lat="42.77102792973538" lon="12.111494146330225"><ele>156.66666666666669</ele><time>2026-04-12T15:01:00.769Z</time></trkpt><trkpt lat="42.771202754949734" lon="12.111440833019802"><ele>159.33333333333334</ele><time>2026-04-12T15:01:01.769Z</time></trkpt><trkpt lat="42.77136840769826" lon="12.111388442533547"><ele>162.0</ele><time>2026-04-12T15:01:02.769Z</time></trkpt><trkpt lat="42.77152738239947" lon="12.11133835566837"><ele>162.0</ele><time>2026-04-12T15:01:03.769Z</time></trkpt><trkpt lat="42.77166552921532" lon="12.111295178185845"><ele>162.0</ele><time>2026-04-12T15:01:04.769Z</time></trkpt><trkpt lat="42.77178446301591" lon="12.111261523437149"><ele>162.0</ele><time>2026-04-12T15:01:05.769Z</time></trkpt><trkpt lat="42.77188832196522" lon="12.11122814773064"><ele>162.0</ele><time>2026-04-12T15:01:06.769Z</time></trkpt><trkpt lat="42.77198787347987" lon="12.111271858529099"><ele>161.0</ele><time>2026-04-12T15:01:07.769Z</time></trkpt><trkpt lat="42.77205746738427" lon="12.11134930128969"><ele>160.0</ele><time>2026-04-12T15:01:08.769Z</time></trkpt><trkpt lat="42.772103812133054" lon="12.111455653899341"><ele>159.0</ele><time>2026-04-12T15:01:09.769Z</time></trkpt><trkpt lat="42.772136682323776" lon="12.111569024314175"><ele>158.0</ele><time>2026-04-12T15:01:10.769Z</time></trkpt><trkpt lat="42.772154142201096" lon="12.111689519225441"><ele>157.0</ele><time>2026-04-12T15:01:11.769Z</time></trkpt><trkpt lat="42.772134384833" lon="12.111824566552597"><ele>156.0</ele><time>2026-04-12T15:01:12.769Z</time></trkpt><trkpt lat="42.77207430705168" lon="12.111941719040502"><ele>155.0</ele><time>2026-04-12T15:01:13.769Z</time></trkpt><trkpt lat="42.77197731015502" lon="12.112035703672385"><ele>154.0</ele><time>2026-04-12T15:01:14.769Z</time></trkpt><trkpt lat="42.7718646811706" lon="12.112115949117943"><ele>153.0</ele><time>2026-04-12T15:01:15.769Z</time></trkpt><trkpt lat="42.77173850927763" lon="12.11219665689423"><ele>152.0</ele><time>2026-04-12T15:01:16.769Z</time></trkpt><trkpt lat="42.771604414169175" lon="12.11227913280688"><ele>151.0</ele><time>2026-04-12T15:01:17.769Z</time></trkpt><trkpt lat="42.77146145864382" lon="12.112366052579489"><ele>150.0</ele><time>2026-04-12T15:01:18.768Z</time></trkpt><trkpt lat="42.77131785789872" lon="12.112458177314961"><ele>150.5</ele><time>2026-04-12T15:01:19.768Z</time></trkpt><trkpt lat="42.771181181126096" lon="12.112545021939972"><ele>151.0</ele><time>2026-04-12T15:01:20.768Z</time></trkpt><trkpt lat="42.77104904593367" lon="12.112634963582986"><ele>151.5</ele><time>2026-04-12T15:01:21.768Z</time></trkpt><trkpt lat="42.77092939885299" lon="12.112732774833681"><ele>152.0</ele><time>2026-04-12T15:01:22.768Z</time></trkpt><trkpt lat="42.77082442606428" lon="12.112841840688603"><ele>152.0</ele><time>2026-04-12T15:01:23.768Z</time></trkpt><trkpt lat="42.77074279742465" lon="12.112974829544047"><ele>152.0</ele><time>2026-04-12T15:01:24.768Z</time></trkpt><trkpt lat="42.77068360520899" lon="12.113146397909127"><ele>152.0</ele><time>2026-04-12T15:01:25.768Z</time></trkpt><trkpt lat="42.770663588937836" lon="12.113329361917504"><ele>152.0</ele><time>2026-04-12T15:01:26.768Z</time></trkpt><trkpt lat="42.770659739424346" lon="12.1135111725336"><ele>155.0</ele><time>2026-04-12T15:01:27.768Z</time></trkpt><trkpt lat="42.77069861499673" lon="12.113683771689777"><ele>158.0</ele><time>2026-04-12T15:01:28.768Z</time></trkpt><trkpt lat="42.77077920870121" lon="12.113824264607855"><ele>161.0</ele><time>2026-04-12T15:01:29.768Z</time></trkpt><trkpt lat="42.77089668067558" lon="12.113898932803265"><ele>164.0</ele><time>2026-04-12T15:01:30.768Z</time></trkpt><trkpt lat="42.77102327475601" lon="12.113970772701418"><ele>167.75</ele><time>2026-04-12T15:01:31.768Z</time></trkpt><trkpt lat="42.77115405251769" lon="12.114031032148063"><ele>171.5</ele><time>2026-04-12T15:01:32.768Z</time></trkpt><trkpt lat="42.7712829611981" lon="12.114120203877597"><ele>175.25</ele><time>2026-04-12T15:01:33.768Z</time></trkpt><trkpt lat="42.77138955589156" lon="12.114250842862218"><ele>179.0</ele><time>2026-04-12T15:01:34.768Z</time></trkpt><trkpt lat="42.77148110196694" lon="12.114391564689367"><ele>179.0</ele><time>2026-04-12T15:01:35.768Z</time></trkpt><trkpt lat="42.7715760683532" lon="12.11452373613093"><ele>179.0</ele><time>2026-04-12T15:01:36.768Z</time></trkpt><trkpt lat="42.7716882195341" lon="12.114628005718842"><ele>179.0</ele><time>2026-04-12T15:01:37.767Z</time></trkpt><trkpt lat="42.77181103229024" lon="12.11468732947828"><ele>179.0</ele><time>2026-04-12T15:01:38.767Z</time></trkpt><trkpt lat="42.771920917578555" lon="12.114710795934133"><ele>180.25</ele><time>2026-04-12T15:01:39.767Z</time></trkpt><trkpt lat="42.77202361013771" lon="12.114697548218018"><ele>181.5</ele><time>2026-04-12T15:01:40.767Z</time></trkpt><trkpt lat="42.77210550971763" lon="12.114585632511782"><ele>182.75</ele><time>2026-04-12T15:01:41.767Z</time></trkpt><trkpt lat="42.77218414915367" lon="12.114476997568985"><ele>184.0</ele><time>2026-04-12T15:01:42.767Z</time></trkpt><trkpt lat="42.77226722288095" lon="12.114335811516598"><ele>184.0</ele><time>2026-04-12T15:01:43.767Z</time></trkpt><trkpt lat="42.772379462469075" lon="12.114208257391912"><ele>184.0</ele><time>2026-04-12T15:01:44.767Z</time></trkpt><trkpt lat="42.77252465574496" lon="12.114098430404256"><ele>184.0</ele><time>2026-04-12T15:01:45.767Z</time></trkpt><trkpt lat="42.772691596505844" lon="12.114017183521424"><ele>188.0</ele><time>2026-04-12T15:01:46.767Z</time></trkpt><trkpt lat="42.77288448171447" lon="12.113960196577308"><ele>192.0</ele><time>2026-04-12T15:01:47.767Z</time></trkpt><trkpt lat="42.77308169117788" lon="12.113914267788303"><ele>196.0</ele><time>2026-04-12T15:01:48.767Z</time></trkpt><trkpt lat="42.77329002015384" lon="12.113882833966917"><ele>196.0</ele><time>2026-04-12T15:01:49.767Z</time></trkpt><trkpt lat="42.77349941722378" lon="12.113849690396595"><ele>196.0</ele><time>2026-04-12T15:01:50.767Z</time></trkpt><trkpt lat="42.77370399997174" lon="12.113784193651423"><ele>196.0</ele><time>2026-04-12T15:01:51.767Z</time></trkpt><trkpt lat="42.77391178453844" lon="12.113691271791144"><ele>197.0</ele><time>2026-04-12T15:01:52.767Z</time></trkpt><trkpt lat="42.774117166744645" lon="12.113593560057772"><ele>198.0</ele><time>2026-04-12T15:01:53.767Z</time></trkpt><trkpt lat="42.774318554214" lon="12.11351067986382"><ele>199.0</ele><time>2026-04-12T15:01:54.767Z</time></trkpt><trkpt lat="42.77451536921981" lon="12.113455661773573"><ele>201.0</ele><time>2026-04-12T15:01:55.766Z</time></trkpt><trkpt lat="42.774707999939466" lon="12.113449837606707"><ele>203.0</ele><time>2026-04-12T15:01:56.768Z</time></trkpt><trkpt lat="42.77489475638746" lon="12.113453166270839"><ele>205.0</ele><time>2026-04-12T15:01:57.767Z</time></trkpt><trkpt lat="42.7750630172337" lon="12.11347599209569"><ele>206.75</ele><time>2026-04-12T15:01:58.767Z</time></trkpt><trkpt lat="42.77521917459497" lon="12.113490270267228"><ele>208.5</ele><time>2026-04-12T15:01:59.767Z</time></trkpt><trkpt lat="42.775371846476375" lon="12.113476194957567"><ele>210.25</ele><time>2026-04-12T15:02:00.767Z</time></trkpt><trkpt lat="42.77550601090313" lon="12.11343082503328"><ele>212.0</ele><time>2026-04-12T15:02:01.767Z</time></trkpt><trkpt lat="42.7756208513664" lon="12.113336708718577"><ele>210.5</ele><time>2026-04-12T15:02:02.767Z</time></trkpt><trkpt lat="42.775706347401304" lon="12.113196702242833"><ele>209.0</ele><time>2026-04-12T15:02:03.767Z</time></trkpt><trkpt lat="42.77579045491809" lon="12.113055377863487"><ele>207.5</ele><time>2026-04-12T15:02:04.767Z</time></trkpt><trkpt lat="42.775886706885444" lon="12.112933690413701"><ele>206.0</ele><time>2026-04-12T15:02:05.766Z</time></trkpt><trkpt lat="42.776005728526656" lon="12.112860280258289"><ele>207.0</ele><time>2026-04-12T15:02:06.767Z</time></trkpt><trkpt lat="42.776143270848536" lon="12.112841536702518"><ele>208.0</ele><time>2026-04-12T15:02:07.767Z</time></trkpt><trkpt lat="42.77629330317139" lon="12.112841992874808"><ele>209.0</ele><time>2026-04-12T15:02:08.766Z</time></trkpt><trkpt lat="42.776453824056006" lon="12.112843732760929"><ele>210.0</ele><time>2026-04-12T15:02:09.766Z</time></trkpt><trkpt lat="42.77661012261126" lon="12.1128476443293"><ele>210.0</ele><time>2026-04-12T15:02:10.766Z</time></trkpt><trkpt lat="42.77675687387831" lon="12.112840522659669"><ele>210.0</ele><time>2026-04-12T15:02:11.766Z</time></trkpt><trkpt lat="42.77690002906634" lon="12.112900253053004"><ele>210.0</ele><time>2026-04-12T15:02:12.766Z</time></trkpt><trkpt lat="42.777033785380624" lon="12.113003562266647"><ele>212.66666666666669</ele><time>2026-04-12T15:02:13.766Z</time></trkpt><trkpt lat="42.77715788382882" lon="12.113137352753624"><ele>215.33333333333334</ele><time>2026-04-12T15:02:14.766Z</time></trkpt><trkpt lat="42.777266702959764" lon="12.113284787127197"><ele>218.0</ele><time>2026-04-12T15:02:15.766Z</time></trkpt><trkpt lat="42.77735065919286" lon="12.113451815243707"><ele>220.0</ele><time>2026-04-12T15:02:16.766Z</time></trkpt><trkpt lat="42.7773997051197" lon="12.113628571955507"><ele>222.0</ele><time>2026-04-12T15:02:17.766Z</time></trkpt><trkpt lat="42.77741543001531" lon="12.113815245253969"><ele>224.0</ele><time>2026-04-12T15:02:18.766Z</time></trkpt><trkpt lat="42.77740931582169" lon="12.113999937023742"><ele>226.0</ele><time>2026-04-12T15:02:19.766Z</time></trkpt><trkpt lat="42.77735912845796" lon="12.114178143804436"><ele>226.5</ele><time>2026-04-12T15:02:20.766Z</time></trkpt><trkpt lat="42.77733441084097" lon="12.114350373639308"><ele>227.0</ele><time>2026-04-12T15:02:21.766Z</time></trkpt><trkpt lat="42.7773081371745" lon="12.11451113614824"><ele>227.5</ele><time>2026-04-12T15:02:22.766Z</time></trkpt><trkpt lat="42.77731854589518" lon="12.11467469246348"><ele>228.0</ele><time>2026-04-12T15:02:23.766Z</time></trkpt><trkpt lat="42.777365108448" lon="12.114831514313803"><ele>228.75</ele><time>2026-04-12T15:02:24.766Z</time></trkpt><trkpt lat="42.77744021295382" lon="12.11497987086044"><ele>229.5</ele><time>2026-04-12T15:02:25.766Z</time></trkpt><trkpt lat="42.777536696031305" lon="12.115113902158166"><ele>230.25</ele><time>2026-04-12T15:02:26.765Z</time></trkpt><trkpt lat="42.777644887482474" lon="12.115235843406836"><ele>231.0</ele><time>2026-04-12T15:02:27.765Z</time></trkpt><trkpt lat="42.77776532485238" lon="12.115347919306833"><ele>235.33333333333331</ele><time>2026-04-12T15:02:28.765Z</time></trkpt><trkpt lat="42.77789697079662" lon="12.115442319217841"><ele>239.66666666666666</ele><time>2026-04-12T15:02:29.765Z</time></trkpt><trkpt lat="42.778041570720745" lon="12.11551429575167"><ele>244.0</ele><time>2026-04-12T15:02:30.765Z</time></trkpt><trkpt lat="42.77819721485995" lon="12.115572484506563"><ele>244.0</ele><time>2026-04-12T15:02:31.765Z</time></trkpt><trkpt lat="42.778361127658954" lon="12.115622609147843"><ele>244.0</ele><time>2026-04-12T15:02:32.765Z</time></trkpt><trkpt lat="42.77852106863855" lon="12.115663129395196"><ele>244.0</ele><time>2026-04-12T15:02:33.765Z</time></trkpt><trkpt lat="42.77867796697192" lon="12.115688019659403"><ele>247.66666666666666</ele><time>2026-04-12T15:02:34.765Z</time></trkpt><trkpt lat="42.778835260108494" lon="12.115679998037807"><ele>251.33333333333331</ele><time>2026-04-12T15:02:35.765Z</time></trkpt><trkpt lat="42.77898435544297" lon="12.11564622565157"><ele>255.0</ele><time>2026-04-12T15:02:36.765Z</time></trkpt><trkpt lat="42.77914964453796" lon="12.115614936600839"><ele>255.0</ele><time>2026-04-12T15:02:37.765Z</time></trkpt><trkpt lat="42.779333495630354" lon="12.115540712100731"><ele>255.0</ele><time>2026-04-12T15:02:38.765Z</time></trkpt><trkpt lat="42.77950261680118" lon="12.115436176047464"><ele>255.0</ele><time>2026-04-12T15:02:39.765Z</time></trkpt><trkpt lat="42.779649725104434" lon="12.11529172866776"><ele>255.0</ele><time>2026-04-12T15:02:40.765Z</time></trkpt><trkpt lat="42.77979797293576" lon="12.115178326999963"><ele>255.0</ele><time>2026-04-12T15:02:41.765Z</time></trkpt><trkpt lat="42.77994418204953" lon="12.115078292566983"><ele>255.0</ele><time>2026-04-12T15:02:42.766Z</time></trkpt><trkpt lat="42.78010119427242" lon="12.115024594187945"><ele>256.3333333333333</ele><time>2026-04-12T15:02:43.767Z</time></trkpt><trkpt lat="42.7802538722999" lon="12.114968337745662"><ele>257.66666666666663</ele><time>2026-04-12T15:02:44.768Z</time></trkpt><trkpt lat="42.780395968569266" lon="12.114918897013645"><ele>259.0</ele><time>2026-04-12T15:02:45.769Z</time></trkpt><trkpt lat="42.78053945374568" lon="12.114882628353056"><ele>259.0</ele><time>2026-04-12T15:02:46.769Z</time></trkpt><trkpt lat="42.78068921692039" lon="12.114886717748433"><ele>259.0</ele><time>2026-04-12T15:02:47.77Z</time></trkpt><trkpt lat="42.78086004237703" lon="12.114909052361565"><ele>259.0</ele><time>2026-04-12T15:02:48.771Z</time></trkpt><trkpt lat="42.78102042600607" lon="12.114932154472978"><ele>262.66666666666663</ele><time>2026-04-12T15:02:49.771Z</time></trkpt><trkpt lat="42.78117997119241" lon="12.114955135887795"><ele>266.3333333333333</ele><time>2026-04-12T15:02:50.772Z</time></trkpt><trkpt lat="42.781336565866326" lon="12.11498988974659"><ele>270.0</ele><time>2026-04-12T15:02:51.772Z</time></trkpt><trkpt lat="42.78149907918457" lon="12.115043595528277"><ele>270.0</ele><time>2026-04-12T15:02:52.773Z</time></trkpt><trkpt lat="42.78164469818902" lon="12.115171099450217"><ele>270.0</ele><time>2026-04-12T15:02:53.773Z</time></trkpt><trkpt lat="42.78178712815486" lon="12.11529538170383"><ele>270.0</ele><time>2026-04-12T15:02:54.774Z</time></trkpt><trkpt lat="42.781926556215765" lon="12.115399347226722"><ele>271.75</ele><time>2026-04-12T15:02:55.774Z</time></trkpt><trkpt lat="42.78204378268462" lon="12.115518430988589"><ele>273.5</ele><time>2026-04-12T15:02:56.775Z</time></trkpt><trkpt lat="42.782152212921055" lon="12.115622983535538"><ele>275.25</ele><time>2026-04-12T15:02:57.775Z</time></trkpt><trkpt lat="42.782251236773284" lon="12.115700383928463"><ele>277.0</ele><time>2026-04-12T15:02:58.775Z</time></trkpt><trkpt lat="42.782324712082904" lon="12.115747189769731"><ele>277.66666666666663</ele><time>2026-04-12T15:02:59.776Z</time></trkpt><trkpt lat="42.782398703999164" lon="12.115693214742848"><ele>278.3333333333333</ele><time>2026-04-12T15:03:00.776Z</time></trkpt><trkpt lat="42.78246580075112" lon="12.11565763052066"><ele>279.0</ele><time>2026-04-12T15:03:01.776Z</time></trkpt><trkpt lat="42.78246667465891" lon="12.115528026344592"><ele>279.6666666666667</ele><time>2026-04-12T15:03:02.776Z</time></trkpt><trkpt lat="42.78247757283366" lon="12.115408987484004"><ele>280.33333333333337</ele><time>2026-04-12T15:03:03.777Z</time></trkpt><trkpt lat="42.78247154043048" lon="12.115273637318031"><ele>281.0</ele><time>2026-04-12T15:03:04.777Z</time></trkpt><trkpt lat="42.782462519483346" lon="12.115120713363813"><ele>281.0</ele><time>2026-04-12T15:03:05.777Z</time></trkpt><trkpt lat="42.78245595266337" lon="12.114959197697896"><ele>281.0</ele><time>2026-04-12T15:03:06.777Z</time></trkpt><trkpt lat="42.78245595266133" lon="12.11478882299352"><ele>281.0</ele><time>2026-04-12T15:03:07.777Z</time></trkpt><trkpt lat="42.782487070079945" lon="12.114623956940964"><ele>281.0</ele><time>2026-04-12T15:03:08.777Z</time></trkpt><trkpt lat="42.78252875678773" lon="12.114457514072067"><ele>281.0</ele><time>2026-04-12T15:03:09.778Z</time></trkpt><trkpt lat="42.782578226638634" lon="12.11427341583975"><ele>281.0</ele><time>2026-04-12T15:03:10.778Z</time></trkpt><trkpt lat="42.78266582675157" lon="12.114103020266562"><ele>281.0</ele><time>2026-04-12T15:03:11.778Z</time></trkpt><trkpt lat="42.78276609134679" lon="12.113936034292049"><ele>281.0</ele><time>2026-04-12T15:03:12.778Z</time></trkpt><trkpt lat="42.78287961362474" lon="12.113768550401383"><ele>281.0</ele><time>2026-04-12T15:03:13.778Z</time></trkpt><trkpt lat="42.78299681396066" lon="12.113599834589763"><ele>281.0</ele><time>2026-04-12T15:03:14.778Z</time></trkpt><trkpt lat="42.783107596899626" lon="12.113432433303078"><ele>281.0</ele><time>2026-04-12T15:03:15.778Z</time></trkpt><trkpt lat="42.78320362268583" lon="12.113243960173717"><ele>281.0</ele><time>2026-04-12T15:03:16.778Z</time></trkpt><trkpt lat="42.78328216681331" lon="12.113038272594"><ele>281.0</ele><time>2026-04-12T15:03:17.778Z</time></trkpt><trkpt lat="42.78335619417993" lon="12.112831511232832"><ele>280.25</ele><time>2026-04-12T15:03:18.778Z</time></trkpt><trkpt lat="42.78341718313996" lon="12.112641675562367"><ele>279.5</ele><time>2026-04-12T15:03:19.778Z</time></trkpt><trkpt lat="42.78347002360154" lon="12.11246089227556"><ele>278.75</ele><time>2026-04-12T15:03:20.778Z</time></trkpt><trkpt lat="42.78352295182728" lon="12.11229165294491"><ele>278.0</ele><time>2026-04-12T15:03:21.778Z</time></trkpt><trkpt lat="42.783593063758005" lon="12.11213305001941"><ele>281.25</ele><time>2026-04-12T15:03:22.778Z</time></trkpt><trkpt lat="42.78367070200439" lon="12.111992258759614"><ele>284.5</ele><time>2026-04-12T15:03:23.779Z</time></trkpt><trkpt lat="42.78374670375241" lon="12.11186322617639"><ele>287.75</ele><time>2026-04-12T15:03:24.779Z</time></trkpt><trkpt lat="42.78382394553835" lon="12.11174542306975"><ele>291.0</ele><time>2026-04-12T15:03:25.779Z</time></trkpt><trkpt lat="42.78390092229542" lon="12.11163611184637"><ele>290.25</ele><time>2026-04-12T15:03:26.779Z</time></trkpt><trkpt lat="42.783971513932606" lon="12.111523432783443"><ele>289.5</ele><time>2026-04-12T15:03:27.779Z</time></trkpt><trkpt lat="42.78403569229485" lon="12.11139735605544"><ele>288.75</ele><time>2026-04-12T15:03:28.779Z</time></trkpt><trkpt lat="42.78408957396235" lon="12.111259193179313"><ele>288.0</ele><time>2026-04-12T15:03:29.779Z</time></trkpt><trkpt lat="42.784125616006044" lon="12.1111108119134"><ele>288.0</ele><time>2026-04-12T15:03:30.779Z</time></trkpt><trkpt lat="42.78413553044326" lon="12.110943249092088"><ele>288.0</ele><time>2026-04-12T15:03:31.779Z</time></trkpt><trkpt lat="42.78413624834632" lon="12.11076435513629"><ele>288.0</ele><time>2026-04-12T15:03:32.779Z</time></trkpt><trkpt lat="42.784139951996906" lon="12.110580283976061"><ele>288.0</ele><time>2026-04-12T15:03:33.779Z</time></trkpt><trkpt lat="42.78415489512731" lon="12.11039263103583"><ele>288.0</ele><time>2026-04-12T15:03:34.779Z</time></trkpt><trkpt lat="42.78416914452351" lon="12.110197688364872"><ele>288.0</ele><time>2026-04-12T15:03:35.778Z</time></trkpt><trkpt lat="42.78418098275836" lon="12.109994135851435"><ele>288.0</ele><time>2026-04-12T15:03:36.778Z</time></trkpt><trkpt lat="42.784195182621964" lon="12.109781414456572"><ele>288.6666666666667</ele><time>2026-04-12T15:03:37.778Z</time></trkpt><trkpt lat="42.78421297741694" lon="12.109566139178387"><ele>289.33333333333337</ele><time>2026-04-12T15:03:38.778Z</time></trkpt><trkpt lat="42.7842306930863" lon="12.109357258432931"><ele>290.0</ele><time>2026-04-12T15:03:39.778Z</time></trkpt><trkpt lat="42.784243700691384" lon="12.109156771507756"><ele>289.25</ele><time>2026-04-12T15:03:40.778Z</time></trkpt><trkpt lat="42.784253286604" lon="12.108971050031231"><ele>288.5</ele><time>2026-04-12T15:03:41.778Z</time></trkpt><trkpt lat="42.784266022653895" lon="12.108800483710555"><ele>287.75</ele><time>2026-04-12T15:03:42.778Z</time></trkpt><trkpt lat="42.78428621308047" lon="12.108643456150391"><ele>287.0</ele><time>2026-04-12T15:03:43.778Z</time></trkpt><trkpt lat="42.78432160059744" lon="12.108505523049011"><ele>289.0</ele><time>2026-04-12T15:03:44.778Z</time></trkpt><trkpt lat="42.78438986656102" lon="12.108401303532133"><ele>291.0</ele><time>2026-04-12T15:03:45.778Z</time></trkpt><trkpt lat="42.784474088592845" lon="12.108353872242247"><ele>293.0</ele><time>2026-04-12T15:03:46.778Z</time></trkpt><trkpt lat="42.784572586001346" lon="12.108345033148904"><ele>295.0</ele><time>2026-04-12T15:03:47.778Z</time></trkpt><trkpt lat="42.784686526603856" lon="12.108346790513618"><ele>297.0</ele><time>2026-04-12T15:03:48.778Z</time></trkpt><trkpt lat="42.784820516347324" lon="12.108337893409418"><ele>297.0</ele><time>2026-04-12T15:03:49.778Z</time></trkpt><trkpt lat="42.784969342886114" lon="12.108332806729097"><ele>297.0</ele><time>2026-04-12T15:03:50.778Z</time></trkpt><trkpt lat="42.78511898918907" lon="12.108317810487266"><ele>297.0</ele><time>2026-04-12T15:03:51.778Z</time></trkpt><trkpt lat="42.785269059614805" lon="12.108299087017457"><ele>297.0</ele><time>2026-04-12T15:03:52.778Z</time></trkpt><trkpt lat="42.785417077738714" lon="12.108279949556742"><ele>297.0</ele><time>2026-04-12T15:03:53.778Z</time></trkpt><trkpt lat="42.78556033068313" lon="12.108277404690119"><ele>297.0</ele><time>2026-04-12T15:03:54.778Z</time></trkpt><trkpt lat="42.78569790941368" lon="12.108232003588764"><ele>297.0</ele><time>2026-04-12T15:03:55.778Z</time></trkpt><trkpt lat="42.78583384123589" lon="12.10816527179479"><ele>297.0</ele><time>2026-04-12T15:03:56.778Z</time></trkpt><trkpt lat="42.78595051166004" lon="12.10806830813478"><ele>297.0</ele><time>2026-04-12T15:03:57.778Z</time></trkpt><trkpt lat="42.786063127447335" lon="12.108006618941673"><ele>297.0</ele><time>2026-04-12T15:03:58.778Z</time></trkpt><trkpt lat="42.78615463697946" lon="12.107923357767303"><ele>297.0</ele><time>2026-04-12T15:03:59.778Z</time></trkpt><trkpt lat="42.786231960830854" lon="12.107817551778961"><ele>303.5</ele><time>2026-04-12T15:04:00.778Z</time></trkpt><trkpt lat="42.78625969825485" lon="12.10764610532176"><ele>310.0</ele><time>2026-04-12T15:04:01.778Z</time></trkpt><trkpt lat="42.78625618232792" lon="12.107474734192456"><ele>316.5</ele><time>2026-04-12T15:04:02.779Z</time></trkpt><trkpt lat="42.78626162063515" lon="12.10729687454205"><ele>323.0</ele><time>2026-04-12T15:04:03.779Z</time></trkpt><trkpt lat="42.78626721321153" lon="12.1071077456462"><ele>323.5</ele><time>2026-04-12T15:04:04.779Z</time></trkpt><trkpt lat="42.78627458735613" lon="12.106925058594465"><ele>324.0</ele><time>2026-04-12T15:04:05.779Z</time></trkpt><trkpt lat="42.78628967608772" lon="12.106755865136124"><ele>324.5</ele><time>2026-04-12T15:04:06.779Z</time></trkpt><trkpt lat="42.786276200540925" lon="12.1065734970451"><ele>325.0</ele><time>2026-04-12T15:04:07.779Z</time></trkpt><trkpt lat="42.78623353624474" lon="12.106397188649739"><ele>325.0</ele><time>2026-04-12T15:04:08.779Z</time></trkpt><trkpt lat="42.786157619491235" lon="12.106246479611944"><ele>325.0</ele><time>2026-04-12T15:04:09.779Z</time></trkpt><trkpt lat="42.78608672113331" lon="12.106097528688151"><ele>325.0</ele><time>2026-04-12T15:04:10.779Z</time></trkpt><trkpt lat="42.78602880654787" lon="12.105952282392533"><ele>325.0</ele><time>2026-04-12T15:04:11.778Z</time></trkpt><trkpt lat="42.78598202606435" lon="12.105817728999043"><ele>322.0</ele><time>2026-04-12T15:04:12.779Z</time></trkpt><trkpt lat="42.78596105616964" lon="12.105690998615023"><ele>319.0</ele><time>2026-04-12T15:04:13.779Z</time></trkpt><trkpt lat="42.78598113668723" lon="12.105574211455366"><ele>316.0</ele><time>2026-04-12T15:04:14.779Z</time></trkpt><trkpt lat="42.78603148218543" lon="12.105490475211361"><ele>313.0</ele><time>2026-04-12T15:04:15.778Z</time></trkpt><trkpt lat="42.786113076922426" lon="12.105431388765815"><ele>310.0</ele><time>2026-04-12T15:04:16.778Z</time></trkpt><trkpt lat="42.78619728859711" lon="12.10544278009161"><ele>307.0</ele><time>2026-04-12T15:04:17.778Z</time></trkpt><trkpt lat="42.78627913545395" lon="12.105439084740937"><ele>307.0</ele><time>2026-04-12T15:04:18.778Z</time></trkpt><trkpt lat="42.78638256832375" lon="12.105459061435539"><ele>307.0</ele><time>2026-04-12T15:04:19.778Z</time></trkpt><trkpt lat="42.786502232250555" lon="12.105476535766805"><ele>307.0</ele><time>2026-04-12T15:04:20.778Z</time></trkpt><trkpt lat="42.78663088136294" lon="12.105444895667887"><ele>307.0</ele><time>2026-04-12T15:04:21.778Z</time></trkpt><trkpt lat="42.78676521591861" lon="12.105460310348352"><ele>307.5</ele><time>2026-04-12T15:04:22.778Z</time></trkpt><trkpt lat="42.786897958281415" lon="12.105513883378341"><ele>308.0</ele><time>2026-04-12T15:04:23.778Z</time></trkpt><trkpt lat="42.787012849505906" lon="12.10562237978767"><ele>308.5</ele><time>2026-04-12T15:04:24.778Z</time></trkpt><trkpt lat="42.7871372034965" lon="12.105738588317857"><ele>309.0</ele><time>2026-04-12T15:04:25.778Z</time></trkpt><trkpt lat="42.787264713343305" lon="12.105849739874357"><ele>315.3333333333333</ele><time>2026-04-12T15:04:26.778Z</time></trkpt><trkpt lat="42.78741349669149" lon="12.10591477219022"><ele>321.66666666666663</ele><time>2026-04-12T15:04:27.778Z</time></trkpt><trkpt lat="42.787561811381835" lon="12.105964987676561"><ele>328.0</ele><time>2026-04-12T15:04:28.777Z</time></trkpt><trkpt lat="42.78770646427512" lon="12.106004282837272"><ele>332.25</ele><time>2026-04-12T15:04:29.777Z</time></trkpt><trkpt lat="42.78783328322318" lon="12.106059230247569"><ele>336.5</ele><time>2026-04-12T15:04:30.777Z</time></trkpt><trkpt lat="42.787958283232236" lon="12.106091301910975"><ele>340.75</ele><time>2026-04-12T15:04:31.777Z</time></trkpt><trkpt lat="42.78807262886254" lon="12.106114313830636"><ele>345.0</ele><time>2026-04-12T15:04:32.777Z</time></trkpt><trkpt lat="42.78818149415859" lon="12.106097662432875"><ele>345.0</ele><time>2026-04-12T15:04:33.777Z</time></trkpt><trkpt lat="42.78828264933253" lon="12.106026797012015"><ele>345.0</ele><time>2026-04-12T15:04:34.777Z</time></trkpt><trkpt lat="42.78833871541092" lon="12.105897572913234"><ele>345.0</ele><time>2026-04-12T15:04:35.777Z</time></trkpt><trkpt lat="42.78837407816395" lon="12.105746855009315"><ele>345.0</ele><time>2026-04-12T15:04:36.777Z</time></trkpt><trkpt lat="42.78837196615413" lon="12.105588601127087"><ele>343.25</ele><time>2026-04-12T15:04:37.777Z</time></trkpt><trkpt lat="42.78835515519087" lon="12.10540313088565"><ele>341.5</ele><time>2026-04-12T15:04:38.777Z</time></trkpt><trkpt lat="42.788347548590345" lon="12.105218536176292"><ele>339.75</ele><time>2026-04-12T15:04:39.777Z</time></trkpt><trkpt lat="42.78835287066773" lon="12.105050114058107"><ele>338.0</ele><time>2026-04-12T15:04:40.777Z</time></trkpt><trkpt lat="42.78840195975669" lon="12.10490570514368"><ele>339.4</ele><time>2026-04-12T15:04:41.777Z</time></trkpt><trkpt lat="42.78846769026834" lon="12.104809441550326"><ele>340.79999999999995</ele><time>2026-04-12T15:04:42.777Z</time></trkpt><trkpt lat="42.788558674528694" lon="12.104748149705845"><ele>342.2</ele><time>2026-04-12T15:04:43.777Z</time></trkpt><trkpt lat="42.78865958884369" lon="12.104703089556416"><ele>343.6</ele><time>2026-04-12T15:04:44.777Z</time></trkpt><trkpt lat="42.78876772705139" lon="12.104661377015672"><ele>345.0</ele><time>2026-04-12T15:04:45.777Z</time></trkpt><trkpt lat="42.78889001361293" lon="12.104628167466007"><ele>345.0</ele><time>2026-04-12T15:04:46.777Z</time></trkpt><trkpt lat="42.78902626025727" lon="12.104610166725642"><ele>345.0</ele><time>2026-04-12T15:04:47.777Z</time></trkpt><trkpt lat="42.789157494082495" lon="12.10460329622624"><ele>345.0</ele><time>2026-04-12T15:04:48.776Z</time></trkpt><trkpt lat="42.78927734935021" lon="12.104615596444539"><ele>345.0</ele><time>2026-04-12T15:04:49.776Z</time></trkpt><trkpt lat="42.78937962258818" lon="12.104649218486939"><ele>351.5</ele><time>2026-04-12T15:04:50.776Z</time></trkpt><trkpt lat="42.78948641871468" lon="12.104645547254291"><ele>358.0</ele><time>2026-04-12T15:04:51.776Z</time></trkpt><trkpt lat="42.789575527705175" lon="12.104576011099736"><ele>364.5</ele><time>2026-04-12T15:04:52.776Z</time></trkpt><trkpt lat="42.789635331189444" lon="12.104429323358044"><ele>371.0</ele><time>2026-04-12T15:04:53.776Z</time></trkpt><trkpt lat="42.78963816076479" lon="12.104261939826415"><ele>371.0</ele><time>2026-04-12T15:04:54.776Z</time></trkpt><trkpt lat="42.789622751616584" lon="12.104111064967869"><ele>371.0</ele><time>2026-04-12T15:04:55.776Z</time></trkpt><trkpt lat="42.78960711152668" lon="12.103960667578352"><ele>371.0</ele><time>2026-04-12T15:04:56.776Z</time></trkpt><trkpt lat="42.78961216183229" lon="12.10383383554553"><ele>371.0</ele><time>2026-04-12T15:04:57.776Z</time></trkpt><trkpt lat="42.789652189732934" lon="12.103728492099064"><ele>371.0</ele><time>2026-04-12T15:04:58.776Z</time></trkpt><trkpt lat="42.78972118526312" lon="12.103642387619582"><ele>370.5</ele><time>2026-04-12T15:04:59.776Z</time></trkpt><trkpt lat="42.789807998535586" lon="12.103571772218967"><ele>370.0</ele><time>2026-04-12T15:05:00.776Z</time></trkpt><trkpt lat="42.78993002508846" lon="12.103512321421"><ele>369.5</ele><time>2026-04-12T15:05:01.776Z</time></trkpt><trkpt lat="42.790077636742566" lon="12.103496886015847"><ele>369.0</ele><time>2026-04-12T15:05:02.776Z</time></trkpt><trkpt lat="42.790233670004326" lon="12.10349507559633"><ele>369.0</ele><time>2026-04-12T15:05:03.776Z</time></trkpt><trkpt lat="42.79039256481116" lon="12.103499862543776"><ele>369.0</ele><time>2026-04-12T15:05:04.776Z</time></trkpt><trkpt lat="42.79055474068171" lon="12.103450633028704"><ele>369.0</ele><time>2026-04-12T15:05:05.776Z</time></trkpt><trkpt lat="42.79071043249093" lon="12.10336958510729"><ele>369.0</ele><time>2026-04-12T15:05:06.776Z</time></trkpt><trkpt lat="42.79084794922988" lon="12.10328866302216"><ele>369.0</ele><time>2026-04-12T15:05:07.775Z</time></trkpt><trkpt lat="42.79098087089389" lon="12.103204552442582"><ele>369.0</ele><time>2026-04-12T15:05:08.775Z</time></trkpt><trkpt lat="42.79111530880445" lon="12.103193958219366"><ele>369.0</ele><time>2026-04-12T15:05:09.775Z</time></trkpt><trkpt lat="42.791237200719195" lon="12.103232135810607"><ele>370.25</ele><time>2026-04-12T15:05:10.775Z</time></trkpt><trkpt lat="42.791337917526675" lon="12.103317568455942"><ele>371.5</ele><time>2026-04-12T15:05:11.775Z</time></trkpt><trkpt lat="42.79140319253834" lon="12.103467108470651"><ele>372.75</ele><time>2026-04-12T15:05:12.775Z</time></trkpt><trkpt lat="42.79148209527112" lon="12.103615759336568"><ele>374.0</ele><time>2026-04-12T15:05:13.775Z</time></trkpt><trkpt lat="42.79156779727565" lon="12.103752060722409"><ele>374.0</ele><time>2026-04-12T15:05:14.775Z</time></trkpt><trkpt lat="42.79163645776409" lon="12.103888964934153"><ele>374.0</ele><time>2026-04-12T15:05:15.775Z</time></trkpt><trkpt lat="42.791709424939754" lon="12.10399757115769"><ele>374.0</ele><time>2026-04-12T15:05:16.775Z</time></trkpt><trkpt lat="42.79180177765714" lon="12.104069496968094"><ele>374.0</ele><time>2026-04-12T15:05:17.775Z</time></trkpt><trkpt lat="42.79190758081056" lon="12.104100684308364"><ele>374.0</ele><time>2026-04-12T15:05:18.775Z</time></trkpt><trkpt lat="42.79201852323301" lon="12.104097513170963"><ele>378.0</ele><time>2026-04-12T15:05:19.775Z</time></trkpt><trkpt lat="42.79212138816346" lon="12.104018270920546"><ele>382.0</ele><time>2026-04-12T15:05:20.775Z</time></trkpt><trkpt lat="42.79217583019993" lon="12.103879358096453"><ele>386.0</ele><time>2026-04-12T15:05:21.775Z</time></trkpt><trkpt lat="42.79221766713" lon="12.103719868887234"><ele>390.0</ele><time>2026-04-12T15:05:22.775Z</time></trkpt><trkpt lat="42.79226611976609" lon="12.103558445933553"><ele>390.0</ele><time>2026-04-12T15:05:23.775Z</time></trkpt><trkpt lat="42.79231785020984" lon="12.103387392070369"><ele>390.0</ele><time>2026-04-12T15:05:24.775Z</time></trkpt><trkpt lat="42.79237886450257" lon="12.103212139810065"><ele>390.0</ele><time>2026-04-12T15:05:25.775Z</time></trkpt><trkpt lat="42.792464599312545" lon="12.103034815454173"><ele>390.0</ele><time>2026-04-12T15:05:26.775Z</time></trkpt><trkpt lat="42.792573958634975" lon="12.102875218782994"><ele>391.5</ele><time>2026-04-12T15:05:27.774Z</time></trkpt><trkpt lat="42.79266020232526" lon="12.102710899658295"><ele>393.0</ele><time>2026-04-12T15:05:28.774Z</time></trkpt><trkpt lat="42.79271553117307" lon="12.10253634598702"><ele>394.5</ele><time>2026-04-12T15:05:29.774Z</time></trkpt><trkpt lat="42.79277451747976" lon="12.102377683092595"><ele>396.0</ele><time>2026-04-12T15:05:30.774Z</time></trkpt><trkpt lat="42.79284359967474" lon="12.102255361843694"><ele>391.8</ele><time>2026-04-12T15:05:31.774Z</time></trkpt><trkpt lat="42.7929475100312" lon="12.102227719866265"><ele>387.6</ele><time>2026-04-12T15:05:32.774Z</time></trkpt><trkpt lat="42.793044641157685" lon="12.10223021737886"><ele>383.4</ele><time>2026-04-12T15:05:33.774Z</time></trkpt><trkpt lat="42.79315000857688" lon="12.102250265974781"><ele>379.2</ele><time>2026-04-12T15:05:34.774Z</time></trkpt><trkpt lat="42.79327055074254" lon="12.102280326795253"><ele>375.0</ele><time>2026-04-12T15:05:35.774Z</time></trkpt><trkpt lat="42.79340259043199" lon="12.102336521849725"><ele>376.0</ele><time>2026-04-12T15:05:36.774Z</time></trkpt><trkpt lat="42.79355062252122" lon="12.102407355951724"><ele>377.0</ele><time>2026-04-12T15:05:37.774Z</time></trkpt><trkpt lat="42.79370101049321" lon="12.102498654996369"><ele>378.0</ele><time>2026-04-12T15:05:38.774Z</time></trkpt><trkpt lat="42.793860358212314" lon="12.102592885411086"><ele>382.66666666666663</ele><time>2026-04-12T15:05:39.774Z</time></trkpt><trkpt lat="42.794026471380356" lon="12.102688845285838"><ele>387.3333333333333</ele><time>2026-04-12T15:05:40.774Z</time></trkpt><trkpt lat="42.79417293893504" lon="12.102786094161319"><ele>392.0</ele><time>2026-04-12T15:05:41.774Z</time></trkpt><trkpt lat="42.794313244758804" lon="12.102876927669518"><ele>393.5</ele><time>2026-04-12T15:05:42.774Z</time></trkpt><trkpt lat="42.79444594313966" lon="12.102971737938992"><ele>395.0</ele><time>2026-04-12T15:05:43.774Z</time></trkpt><trkpt lat="42.794571802970054" lon="12.103041546729822"><ele>396.5</ele><time>2026-04-12T15:05:44.774Z</time></trkpt><trkpt lat="42.794686038221414" lon="12.103071466039605"><ele>398.0</ele><time>2026-04-12T15:05:45.774Z</time></trkpt><trkpt lat="42.79479458267095" lon="12.103033731288042"><ele>398.0</ele><time>2026-04-12T15:05:46.773Z</time></trkpt><trkpt lat="42.79490225056572" lon="12.102961331151622"><ele>398.0</ele><time>2026-04-12T15:05:47.773Z</time></trkpt><trkpt lat="42.79497679978469" lon="12.10282127955377"><ele>398.0</ele><time>2026-04-12T15:05:48.773Z</time></trkpt><trkpt lat="42.79502169056945" lon="12.102643935579563"><ele>398.0</ele><time>2026-04-12T15:05:49.773Z</time></trkpt><trkpt lat="42.79505198733557" lon="12.102466318221337"><ele>397.59999999999997</ele><time>2026-04-12T15:05:50.773Z</time></trkpt><trkpt lat="42.79508231879383" lon="12.102301702840508"><ele>397.2</ele><time>2026-04-12T15:05:51.773Z</time></trkpt><trkpt lat="42.795119758588115" lon="12.102173086269849"><ele>396.8</ele><time>2026-04-12T15:05:52.773Z</time></trkpt><trkpt lat="42.79518138819932" lon="12.102079551216175"><ele>396.4</ele><time>2026-04-12T15:05:53.773Z</time></trkpt><trkpt lat="42.795263939181034" lon="12.102016865060207"><ele>396.0</ele><time>2026-04-12T15:05:54.773Z</time></trkpt><trkpt lat="42.795372826049096" lon="12.102027392004768"><ele>396.0</ele><time>2026-04-12T15:05:55.773Z</time></trkpt><trkpt lat="42.79550161579667" lon="12.102060710355033"><ele>396.0</ele><time>2026-04-12T15:05:56.773Z</time></trkpt><trkpt lat="42.79563818143694" lon="12.102099082283754"><ele>396.0</ele><time>2026-04-12T15:05:57.773Z</time></trkpt><trkpt lat="42.795788222656405" lon="12.102098582768642"><ele>396.0</ele><time>2026-04-12T15:05:58.773Z</time></trkpt><trkpt lat="42.79593450820628" lon="12.102043096299811"><ele>398.66666666666663</ele><time>2026-04-12T15:05:59.773Z</time></trkpt><trkpt lat="42.79607627024863" lon="12.101938083133266"><ele>401.3333333333333</ele><time>2026-04-12T15:06:00.773Z</time></trkpt><trkpt lat="42.79622624270536" lon="12.101837517286356"><ele>404.0</ele><time>2026-04-12T15:06:01.773Z</time></trkpt><trkpt lat="42.79637229955992" lon="12.10175312191659"><ele>404.0</ele><time>2026-04-12T15:06:02.773Z</time></trkpt><trkpt lat="42.79650800852666" lon="12.101660520365314"><ele>404.0</ele><time>2026-04-12T15:06:03.773Z</time></trkpt><trkpt lat="42.79662958335137" lon="12.101531360157967"><ele>404.0</ele><time>2026-04-12T15:06:04.773Z</time></trkpt><trkpt lat="42.79672858520395" lon="12.101366846384478"><ele>403.66666666666663</ele><time>2026-04-12T15:06:05.772Z</time></trkpt><trkpt lat="42.79681214814753" lon="12.101182231940097"><ele>403.33333333333337</ele><time>2026-04-12T15:06:06.772Z</time></trkpt><trkpt lat="42.79689429341496" lon="12.100990073000666"><ele>403.0</ele><time>2026-04-12T15:06:07.772Z</time></trkpt><trkpt lat="42.79698695971737" lon="12.100802499244793"><ele>402.6666666666667</ele><time>2026-04-12T15:06:08.774Z</time></trkpt><trkpt lat="42.79709387635752" lon="12.10062437868083"><ele>402.33333333333337</ele><time>2026-04-12T15:06:09.774Z</time></trkpt><trkpt lat="42.79721265357067" lon="12.100459895186331"><ele>402.0</ele><time>2026-04-12T15:06:10.774Z</time></trkpt><trkpt lat="42.797347894310484" lon="12.10031630457255"><ele>402.0</ele><time>2026-04-12T15:06:11.774Z</time></trkpt><trkpt lat="42.79747217387593" lon="12.100162154924764"><ele>402.0</ele><time>2026-04-12T15:06:12.774Z</time></trkpt><trkpt lat="42.7975825212579" lon="12.09999645549239"><ele>402.0</ele><time>2026-04-12T15:06:13.774Z</time></trkpt><trkpt lat="42.797704190652446" lon="12.099848022307132"><ele>402.33333333333337</ele><time>2026-04-12T15:06:14.774Z</time></trkpt><trkpt lat="42.79782390852096" lon="12.09970058722122"><ele>402.6666666666667</ele><time>2026-04-12T15:06:15.774Z</time></trkpt><trkpt lat="42.797944297124886" lon="12.099557282350295"><ele>403.0</ele><time>2026-04-12T15:06:16.774Z</time></trkpt><trkpt lat="42.798057256788084" lon="12.09941149753691"><ele>403.0</ele><time>2026-04-12T15:06:17.773Z</time></trkpt><trkpt lat="42.79816858501688" lon="12.099264129310987"><ele>403.0</ele><time>2026-04-12T15:06:18.774Z</time></trkpt><trkpt lat="42.79829045552127" lon="12.099139410509746"><ele>403.0</ele><time>2026-04-12T15:06:19.774Z</time></trkpt><trkpt lat="42.79840005780075" lon="12.09899954476073"><ele>404.75</ele><time>2026-04-12T15:06:20.773Z</time></trkpt><trkpt lat="42.79850810982905" lon="12.09886165829604"><ele>406.5</ele><time>2026-04-12T15:06:21.774Z</time></trkpt><trkpt lat="42.79861088019" lon="12.098727718264072"><ele>408.25</ele><time>2026-04-12T15:06:22.773Z</time></trkpt><trkpt lat="42.79871191875241" lon="12.098587114082438"><ele>410.0</ele><time>2026-04-12T15:06:23.773Z</time></trkpt><trkpt lat="42.798814352105936" lon="12.098436566689092"><ele>410.0</ele><time>2026-04-12T15:06:24.773Z</time></trkpt><trkpt lat="42.79891499727593" lon="12.098268301380404"><ele>410.0</ele><time>2026-04-12T15:06:25.773Z</time></trkpt><trkpt lat="42.79901589979352" lon="12.098084243709893"><ele>410.0</ele><time>2026-04-12T15:06:26.773Z</time></trkpt><trkpt lat="42.79910804176018" lon="12.097897630711781"><ele>410.66666666666663</ele><time>2026-04-12T15:06:27.773Z</time></trkpt><trkpt lat="42.79917620796941" lon="12.097700746056997"><ele>411.33333333333337</ele><time>2026-04-12T15:06:28.773Z</time></trkpt><trkpt lat="42.7992571835425" lon="12.097516950468913"><ele>412.0</ele><time>2026-04-12T15:06:29.773Z</time></trkpt><trkpt lat="42.79932723346853" lon="12.097333227097353"><ele>412.5</ele><time>2026-04-12T15:06:30.773Z</time></trkpt><trkpt lat="42.7993792537782" lon="12.097143843088494"><ele>413.0</ele><time>2026-04-12T15:06:31.773Z</time></trkpt><trkpt lat="42.79943967624981" lon="12.096963372147423"><ele>413.5</ele><time>2026-04-12T15:06:32.773Z</time></trkpt><trkpt lat="42.79948529973213" lon="12.096773619405477"><ele>414.0</ele><time>2026-04-12T15:06:33.773Z</time></trkpt><trkpt lat="42.79952819967884" lon="12.09658156293584"><ele>414.66666666666663</ele><time>2026-04-12T15:06:34.773Z</time></trkpt><trkpt lat="42.79957275355626" lon="12.096379298885907"><ele>415.3333333333333</ele><time>2026-04-12T15:06:35.773Z</time></trkpt><trkpt lat="42.79961755535332" lon="12.096173202346787"><ele>416.0</ele><time>2026-04-12T15:06:36.773Z</time></trkpt><trkpt lat="42.7996665528261" lon="12.095947755604934"><ele>416.66666666666663</ele><time>2026-04-12T15:06:37.773Z</time></trkpt><trkpt lat="42.7997141479234" lon="12.095726979037543"><ele>417.33333333333337</ele><time>2026-04-12T15:06:38.773Z</time></trkpt><trkpt lat="42.799762504249806" lon="12.09550267129557"><ele>418.0</ele><time>2026-04-12T15:06:39.773Z</time></trkpt><trkpt lat="42.79979720329438" lon="12.095266385140098"><ele>418.0</ele><time>2026-04-12T15:06:40.773Z</time></trkpt><trkpt lat="42.79984798747967" lon="12.095044627974932"><ele>418.0</ele><time>2026-04-12T15:06:41.773Z</time></trkpt><trkpt lat="42.79989593775227" lon="12.094822202072567"><ele>418.0</ele><time>2026-04-12T15:06:42.772Z</time></trkpt><trkpt lat="42.79994914428388" lon="12.094601535401068"><ele>418.33333333333337</ele><time>2026-04-12T15:06:43.772Z</time></trkpt><trkpt lat="42.800004091655914" lon="12.094390632886936"><ele>418.66666666666663</ele><time>2026-04-12T15:06:44.772Z</time></trkpt><trkpt lat="42.800058084136566" lon="12.094188457211319"><ele>419.0</ele><time>2026-04-12T15:06:45.772Z</time></trkpt><trkpt lat="42.800118122370584" lon="12.093998434608622"><ele>422.0</ele><time>2026-04-12T15:06:46.772Z</time></trkpt><trkpt lat="42.800186148564904" lon="12.093811354068931"><ele>425.0</ele><time>2026-04-12T15:06:47.772Z</time></trkpt><trkpt lat="42.80025850179095" lon="12.093632817398781"><ele>428.0</ele><time>2026-04-12T15:06:48.772Z</time></trkpt><trkpt lat="42.80035090153401" lon="12.093472458351773"><ele>428.0</ele><time>2026-04-12T15:06:49.772Z</time></trkpt><trkpt lat="42.80044191274503" lon="12.093299019161197"><ele>428.0</ele><time>2026-04-12T15:06:50.772Z</time></trkpt><trkpt lat="42.800532885722305" lon="12.093115359182136"><ele>428.0</ele><time>2026-04-12T15:06:51.772Z</time></trkpt><trkpt lat="42.800644708102034" lon="12.092952797175883"><ele>429.0</ele><time>2026-04-12T15:06:52.772Z</time></trkpt><trkpt lat="42.80076278238658" lon="12.092806486346344"><ele>430.0</ele><time>2026-04-12T15:06:53.772Z</time></trkpt><trkpt lat="42.800887750846606" lon="12.092656876544984"><ele>431.0</ele><time>2026-04-12T15:06:54.772Z</time></trkpt><trkpt lat="42.80101392068018" lon="12.09250464926828"><ele>430.3333333333333</ele><time>2026-04-12T15:06:55.772Z</time></trkpt><trkpt lat="42.80114833386295" lon="12.092357107369265"><ele>429.66666666666663</ele><time>2026-04-12T15:06:56.772Z</time></trkpt><trkpt lat="42.8012806794354" lon="12.092214111911533"><ele>429.0</ele><time>2026-04-12T15:06:57.772Z</time></trkpt><trkpt lat="42.80141315899186" lon="12.092069166643233"><ele>429.0</ele><time>2026-04-12T15:06:58.772Z</time></trkpt><trkpt lat="42.801542180616345" lon="12.091919304292524"><ele>429.0</ele><time>2026-04-12T15:06:59.772Z</time></trkpt><trkpt lat="42.80166991017607" lon="12.091768338579984"><ele>429.0</ele><time>2026-04-12T15:07:00.772Z</time></trkpt><trkpt lat="42.801802265089904" lon="12.091621116234121"><ele>430.66666666666663</ele><time>2026-04-12T15:07:01.771Z</time></trkpt><trkpt lat="42.801938205955445" lon="12.091478018044759"><ele>432.3333333333333</ele><time>2026-04-12T15:07:02.771Z</time></trkpt><trkpt lat="42.802073225282655" lon="12.091329315569288"><ele>434.0</ele><time>2026-04-12T15:07:03.771Z</time></trkpt><trkpt lat="42.80220423319385" lon="12.091175947252212"><ele>434.0</ele><time>2026-04-12T15:07:04.771Z</time></trkpt><trkpt lat="42.80232705025359" lon="12.091031572637092"><ele>434.0</ele><time>2026-04-12T15:07:05.771Z</time></trkpt><trkpt lat="42.80244851293733" lon="12.090887026240091"><ele>434.0</ele><time>2026-04-12T15:07:06.771Z</time></trkpt><trkpt lat="42.80256449646172" lon="12.090728636666684"><ele>433.66666666666663</ele><time>2026-04-12T15:07:07.771Z</time></trkpt><trkpt lat="42.80266828693788" lon="12.090547675734134"><ele>433.33333333333337</ele><time>2026-04-12T15:07:08.771Z</time></trkpt><trkpt lat="42.802758287059696" lon="12.090348984522814"><ele>433.0</ele><time>2026-04-12T15:07:09.771Z</time></trkpt><trkpt lat="42.80285333534566" lon="12.090147469798824"><ele>433.0</ele><time>2026-04-12T15:07:10.771Z</time></trkpt><trkpt lat="42.80292470769273" lon="12.089925735223257"><ele>433.0</ele><time>2026-04-12T15:07:11.771Z</time></trkpt><trkpt lat="42.80301114493449" lon="12.089698795143551"><ele>433.0</ele><time>2026-04-12T15:07:12.771Z</time></trkpt><trkpt lat="42.80309699912284" lon="12.089471847158896"><ele>433.6666666666667</ele><time>2026-04-12T15:07:13.771Z</time></trkpt><trkpt lat="42.803182382305124" lon="12.089250842938414"><ele>434.33333333333337</ele><time>2026-04-12T15:07:14.771Z</time></trkpt><trkpt lat="42.803271736352976" lon="12.089033482596772"><ele>435.0</ele><time>2026-04-12T15:07:15.771Z</time></trkpt><trkpt lat="42.803356357523214" lon="12.088823194973704"><ele>435.0</ele><time>2026-04-12T15:07:16.771Z</time></trkpt><trkpt lat="42.80343741081894" lon="12.08861382571395"><ele>435.0</ele><time>2026-04-12T15:07:17.771Z</time></trkpt><trkpt lat="42.803513364428085" lon="12.088404166647189"><ele>435.0</ele><time>2026-04-12T15:07:18.771Z</time></trkpt><trkpt lat="42.803588839902176" lon="12.088201870050206"><ele>437.0</ele><time>2026-04-12T15:07:19.771Z</time></trkpt><trkpt lat="42.80366810409102" lon="12.088008512410696"><ele>439.0</ele><time>2026-04-12T15:07:20.77Z</time></trkpt><trkpt lat="42.80375764751389" lon="12.087829460533662"><ele>441.0</ele><time>2026-04-12T15:07:21.77Z</time></trkpt><trkpt lat="42.80386230347281" lon="12.0876495642202"><ele>441.0</ele><time>2026-04-12T15:07:22.77Z</time></trkpt><trkpt lat="42.803973247347194" lon="12.08747390216724"><ele>441.0</ele><time>2026-04-12T15:07:23.77Z</time></trkpt><trkpt lat="42.80404740970729" lon="12.087246170104942"><ele>441.0</ele><time>2026-04-12T15:07:24.77Z</time></trkpt><trkpt lat="42.804121533538584" lon="12.087028072754354"><ele>439.66666666666663</ele><time>2026-04-12T15:07:25.77Z</time></trkpt><trkpt lat="42.80418936776439" lon="12.086809321313805"><ele>438.3333333333333</ele><time>2026-04-12T15:07:26.77Z</time></trkpt><trkpt lat="42.80426400737305" lon="12.086592934029179"><ele>437.0</ele><time>2026-04-12T15:07:27.77Z</time></trkpt><trkpt lat="42.80435213826991" lon="12.08637917891478"><ele>440.3333333333333</ele><time>2026-04-12T15:07:28.77Z</time></trkpt><trkpt lat="42.804453364023416" lon="12.086173435185499"><ele>443.66666666666663</ele><time>2026-04-12T15:07:29.77Z</time></trkpt><trkpt lat="42.80456131523045" lon="12.085958012607774"><ele>447.0</ele><time>2026-04-12T15:07:30.77Z</time></trkpt><trkpt lat="42.804669034025906" lon="12.085730322876882"><ele>447.0</ele><time>2026-04-12T15:07:31.77Z</time></trkpt><trkpt lat="42.80476148032736" lon="12.08550398620554"><ele>447.0</ele><time>2026-04-12T15:07:32.77Z</time></trkpt><trkpt lat="42.80486285364545" lon="12.085284430756662"><ele>447.0</ele><time>2026-04-12T15:07:33.77Z</time></trkpt><trkpt lat="42.80498252628944" lon="12.085079512829486"><ele>446.33333333333337</ele><time>2026-04-12T15:07:34.77Z</time></trkpt><trkpt lat="42.80511682528584" lon="12.084894194721462"><ele>445.6666666666667</ele><time>2026-04-12T15:07:35.77Z</time></trkpt><trkpt lat="42.805240609850756" lon="12.084731370382118"><ele>445.0</ele><time>2026-04-12T15:07:36.77Z</time></trkpt><trkpt lat="42.80537244726864" lon="12.08458376142458"><ele>445.0</ele><time>2026-04-12T15:07:37.77Z</time></trkpt><trkpt lat="42.80552463221057" lon="12.084445045226209"><ele>445.0</ele><time>2026-04-12T15:07:38.77Z</time></trkpt><trkpt lat="42.80568744380071" lon="12.084311404477637"><ele>445.0</ele><time>2026-04-12T15:07:39.77Z</time></trkpt><trkpt lat="42.80585298792019" lon="12.084174868352836"><ele>446.33333333333337</ele><time>2026-04-12T15:07:40.769Z</time></trkpt><trkpt lat="42.8060242539108" lon="12.084035071813009"><ele>447.66666666666663</ele><time>2026-04-12T15:07:41.769Z</time></trkpt><trkpt lat="42.80619221680885" lon="12.083897613394557"><ele>449.0</ele><time>2026-04-12T15:07:42.769Z</time></trkpt><trkpt lat="42.80635871079666" lon="12.083755371281558"><ele>449.0</ele><time>2026-04-12T15:07:43.769Z</time></trkpt><trkpt lat="42.80652602091614" lon="12.083614022998512"><ele>449.0</ele><time>2026-04-12T15:07:44.769Z</time></trkpt><trkpt lat="42.80669300820689" lon="12.083472209482563"><ele>449.0</ele><time>2026-04-12T15:07:45.769Z</time></trkpt><trkpt lat="42.806861660188964" lon="12.08333096493879"><ele>450.0</ele><time>2026-04-12T15:07:46.769Z</time></trkpt><trkpt lat="42.80702273187893" lon="12.083193353727623"><ele>451.0</ele><time>2026-04-12T15:07:47.769Z</time></trkpt><trkpt lat="42.80717844970938" lon="12.083064822276766"><ele>452.0</ele><time>2026-04-12T15:07:48.769Z</time></trkpt><trkpt lat="42.80733490321334" lon="12.082941439005861"><ele>452.0</ele><time>2026-04-12T15:07:49.769Z</time></trkpt><trkpt lat="42.807487645415094" lon="12.082819510828632"><ele>452.0</ele><time>2026-04-12T15:07:50.769Z</time></trkpt><trkpt lat="42.8076369853343" lon="12.082697764853721"><ele>452.0</ele><time>2026-04-12T15:07:51.769Z</time></trkpt><trkpt lat="42.80778205929305" lon="12.082570529480591"><ele>452.3333333333333</ele><time>2026-04-12T15:07:52.769Z</time></trkpt><trkpt lat="42.80791466883053" lon="12.082427535545591"><ele>452.66666666666663</ele><time>2026-04-12T15:07:53.769Z</time></trkpt><trkpt lat="42.808027060129334" lon="12.082259534711824"><ele>453.0</ele><time>2026-04-12T15:07:54.769Z</time></trkpt><trkpt lat="42.80812315048545" lon="12.08207470908571"><ele>453.0</ele><time>2026-04-12T15:07:55.769Z</time></trkpt><trkpt lat="42.808216596779154" lon="12.081887507292423"><ele>453.0</ele><time>2026-04-12T15:07:56.769Z</time></trkpt><trkpt lat="42.80830663278555" lon="12.081700298350265"><ele>453.0</ele><time>2026-04-12T15:07:57.769Z</time></trkpt><trkpt lat="42.8083951944066" lon="12.081517706237005"><ele>453.0</ele><time>2026-04-12T15:07:58.769Z</time></trkpt><trkpt lat="42.80848454117768" lon="12.081331253766828"><ele>453.0</ele><time>2026-04-12T15:07:59.768Z</time></trkpt><trkpt lat="42.808578057895055" lon="12.081143866277214"><ele>453.0</ele><time>2026-04-12T15:08:00.768Z</time></trkpt><trkpt lat="42.80866759126331" lon="12.08096139904541"><ele>453.0</ele><time>2026-04-12T15:08:01.768Z</time></trkpt><trkpt lat="42.80875586151111" lon="12.080778890391159"><ele>453.0</ele><time>2026-04-12T15:08:02.768Z</time></trkpt><trkpt lat="42.80884623784873" lon="12.080593808233763"><ele>453.0</ele><time>2026-04-12T15:08:03.768Z</time></trkpt><trkpt lat="42.80893656359591" lon="12.080409044107865"><ele>451.33333333333337</ele><time>2026-04-12T15:08:04.768Z</time></trkpt><trkpt lat="42.80902695880492" lon="12.080225248090537"><ele>449.6666666666667</ele><time>2026-04-12T15:08:05.768Z</time></trkpt><trkpt lat="42.80911652347955" lon="12.080043199581842"><ele>448.0</ele><time>2026-04-12T15:08:06.768Z</time></trkpt><trkpt lat="42.8092087081222" lon="12.079859678755769"><ele>447.6666666666667</ele><time>2026-04-12T15:08:07.768Z</time></trkpt><trkpt lat="42.80930121606497" lon="12.079682072533599"><ele>447.33333333333337</ele><time>2026-04-12T15:08:08.768Z</time></trkpt><trkpt lat="42.8093913160598" lon="12.07951607670311"><ele>447.0</ele><time>2026-04-12T15:08:09.768Z</time></trkpt><trkpt lat="42.80948699325588" lon="12.079360898907504"><ele>445.25</ele><time>2026-04-12T15:08:10.768Z</time></trkpt><trkpt lat="42.80959317310977" lon="12.079221197908645"><ele>443.5</ele><time>2026-04-12T15:08:11.768Z</time></trkpt><trkpt lat="42.80969724742478" lon="12.079096926657908"><ele>441.75</ele><time>2026-04-12T15:08:12.768Z</time></trkpt><trkpt lat="42.80978543809024" lon="12.078987456106077"><ele>440.0</ele><time>2026-04-12T15:08:13.768Z</time></trkpt><trkpt lat="42.80985690849369" lon="12.078884562108119"><ele>439.57142857142856</ele><time>2026-04-12T15:08:14.769Z</time></trkpt><trkpt lat="42.80991255057574" lon="12.07879650022387"><ele>439.1428571428571</ele><time>2026-04-12T15:08:15.769Z</time></trkpt><trkpt lat="42.80996178810617" lon="12.078722262093827"><ele>438.71428571428567</ele><time>2026-04-12T15:08:16.769Z</time></trkpt><trkpt lat="42.81000416029391" lon="12.078654405147269"><ele>438.2857142857143</ele><time>2026-04-12T15:08:17.768Z</time></trkpt><trkpt lat="42.81005374585125" lon="12.078581415515119"><ele>437.8571428571429</ele><time>2026-04-12T15:08:18.769Z</time></trkpt><trkpt lat="42.81010035844187" lon="12.078511964969595"><ele>437.4285714285714</ele><time>2026-04-12T15:08:19.769Z</time></trkpt><trkpt lat="42.81014525527007" lon="12.078443452942011"><ele>437.0</ele><time>2026-04-12T15:08:20.769Z</time></trkpt><trkpt lat="42.81019953399198" lon="12.078362445459092"><ele>437.0</ele><time>2026-04-12T15:08:21.769Z</time></trkpt><trkpt lat="42.81027298381886" lon="12.078288971055972"><ele>437.00000000000006</ele><time>2026-04-12T15:08:22.769Z</time></trkpt><trkpt lat="42.81034547089349" lon="12.078186673687494"><ele>437.00000000000006</ele><time>2026-04-12T15:08:23.768Z</time></trkpt><trkpt lat="42.81042737195862" lon="12.078071342179944"><ele>437.0</ele><time>2026-04-12T15:08:24.768Z</time></trkpt><trkpt lat="42.81050728452637" lon="12.07793169662415"><ele>437.0</ele><time>2026-04-12T15:08:25.768Z</time></trkpt><trkpt lat="42.81060690461325" lon="12.077807798148436"><ele>437.0</ele><time>2026-04-12T15:08:26.769Z</time></trkpt><trkpt lat="42.81071439435156" lon="12.077713939211339"><ele>437.0</ele><time>2026-04-12T15:08:27.768Z</time></trkpt><trkpt lat="42.810829990890674" lon="12.077655712809785"><ele>437.0</ele><time>2026-04-12T15:08:28.768Z</time></trkpt><trkpt lat="42.81095761494504" lon="12.077649286070267"><ele>437.0</ele><time>2026-04-12T15:08:29.768Z</time></trkpt><trkpt lat="42.8110904098187" lon="12.07768141431694"><ele>436.66666666666663</ele><time>2026-04-12T15:08:30.768Z</time></trkpt><trkpt lat="42.81123137091924" lon="12.077756042089804"><ele>436.33333333333337</ele><time>2026-04-12T15:08:31.768Z</time></trkpt><trkpt lat="42.81138375242415" lon="12.077848846670896"><ele>436.0</ele><time>2026-04-12T15:08:32.768Z</time></trkpt><trkpt lat="42.81154430347321" lon="12.077933896394862"><ele>436.0</ele><time>2026-04-12T15:08:33.768Z</time></trkpt><trkpt lat="42.81170777419818" lon="12.078018201579932"><ele>436.0</ele><time>2026-04-12T15:08:34.768Z</time></trkpt><trkpt lat="42.811868061752875" lon="12.078105153962515"><ele>436.0</ele><time>2026-04-12T15:08:35.768Z</time></trkpt><trkpt lat="42.812030826326236" lon="12.078198513606553"><ele>437.33333333333337</ele><time>2026-04-12T15:08:36.768Z</time></trkpt><trkpt lat="42.81219225506877" lon="12.07829173419458"><ele>438.66666666666663</ele><time>2026-04-12T15:08:37.767Z</time></trkpt><trkpt lat="42.812357018751094" lon="12.078382652538108"><ele>440.0</ele><time>2026-04-12T15:08:38.767Z</time></trkpt><trkpt lat="42.81252485746495" lon="12.078474604158679"><ele>440.0</ele><time>2026-04-12T15:08:39.767Z</time></trkpt><trkpt lat="42.81269689647191" lon="12.078565421739848"><ele>440.0</ele><time>2026-04-12T15:08:40.767Z</time></trkpt><trkpt lat="42.81286956861046" lon="12.078663530019448"><ele>440.0</ele><time>2026-04-12T15:08:41.767Z</time></trkpt><trkpt lat="42.81304726183372" lon="12.07876717372582"><ele>440.0</ele><time>2026-04-12T15:08:42.767Z</time></trkpt><trkpt lat="42.81322609952472" lon="12.078875313365662"><ele>440.0</ele><time>2026-04-12T15:08:43.767Z</time></trkpt><trkpt lat="42.81341656681636" lon="12.078981629133668"><ele>440.0</ele><time>2026-04-12T15:08:44.767Z</time></trkpt><trkpt lat="42.81359850038326" lon="12.079085263456498"><ele>442.0</ele><time>2026-04-12T15:08:45.767Z</time></trkpt><trkpt lat="42.81377751232355" lon="12.079189974958908"><ele>444.0</ele><time>2026-04-12T15:08:46.767Z</time></trkpt><trkpt lat="42.81395553001403" lon="12.07928958077471"><ele>446.0</ele><time>2026-04-12T15:08:47.767Z</time></trkpt><trkpt lat="42.814129936954465" lon="12.079390784910325"><ele>446.0</ele><time>2026-04-12T15:08:48.767Z</time></trkpt><trkpt lat="42.81430024326955" lon="12.079491771225806"><ele>446.0</ele><time>2026-04-12T15:08:49.767Z</time></trkpt><trkpt lat="42.81447216456058" lon="12.079589894327423"><ele>446.0</ele><time>2026-04-12T15:08:50.767Z</time></trkpt><trkpt lat="42.81464557143327" lon="12.079673707940934"><ele>445.66666666666663</ele><time>2026-04-12T15:08:51.767Z</time></trkpt><trkpt lat="42.814820140030356" lon="12.079730638189108"><ele>445.33333333333337</ele><time>2026-04-12T15:08:52.767Z</time></trkpt><trkpt lat="42.8150003315512" lon="12.079743834704379"><ele>445.0</ele><time>2026-04-12T15:08:53.767Z</time></trkpt><trkpt lat="42.81518207171466" lon="12.079735050606805"><ele>447.0</ele><time>2026-04-12T15:08:54.767Z</time></trkpt><trkpt lat="42.81536499211555" lon="12.079705751231483"><ele>449.0</ele><time>2026-04-12T15:08:55.767Z</time></trkpt><trkpt lat="42.81554289737564" lon="12.079664128431311"><ele>451.0</ele><time>2026-04-12T15:08:56.766Z</time></trkpt><trkpt lat="42.815711295920345" lon="12.079629901312737"><ele>451.0</ele><time>2026-04-12T15:08:57.766Z</time></trkpt><trkpt lat="42.81586790507074" lon="12.07959252347702"><ele>451.0</ele><time>2026-04-12T15:08:58.766Z</time></trkpt><trkpt lat="42.816002423846285" lon="12.079526444123061"><ele>451.0</ele><time>2026-04-12T15:08:59.766Z</time></trkpt><trkpt lat="42.8161164762014" lon="12.079425496766978"><ele>451.0</ele><time>2026-04-12T15:09:00.766Z</time></trkpt><trkpt lat="42.81620875015328" lon="12.079289695818913"><ele>453.5</ele><time>2026-04-12T15:09:01.766Z</time></trkpt><trkpt lat="42.81627800073709" lon="12.079123500048318"><ele>456.0</ele><time>2026-04-12T15:09:02.766Z</time></trkpt><trkpt lat="42.816317004401824" lon="12.078938395721966"><ele>458.5</ele><time>2026-04-12T15:09:03.766Z</time></trkpt><trkpt lat="42.81634452413241" lon="12.07876504986824"><ele>461.0</ele><time>2026-04-12T15:09:04.766Z</time></trkpt><trkpt lat="42.81638951387534" lon="12.078616130667822"><ele>461.0</ele><time>2026-04-12T15:09:05.766Z</time></trkpt><trkpt lat="42.81646047089406" lon="12.078488507368679"><ele>461.0</ele><time>2026-04-12T15:09:06.766Z</time></trkpt><trkpt lat="42.81655642971853" lon="12.078396850973936"><ele>461.0</ele><time>2026-04-12T15:09:07.766Z</time></trkpt><trkpt lat="42.8166678550575" lon="12.078368174098692"><ele>461.0</ele><time>2026-04-12T15:09:08.766Z</time></trkpt><trkpt lat="42.816783853121606" lon="12.078392254134407"><ele>461.0</ele><time>2026-04-12T15:09:09.766Z</time></trkpt><trkpt lat="42.8168929093465" lon="12.078466551502936"><ele>461.0</ele><time>2026-04-12T15:09:10.766Z</time></trkpt><trkpt lat="42.81698928238857" lon="12.078583437198928"><ele>461.0</ele><time>2026-04-12T15:09:11.766Z</time></trkpt><trkpt lat="42.81708125795735" lon="12.078736759429221"><ele>461.0</ele><time>2026-04-12T15:09:12.766Z</time></trkpt><trkpt lat="42.81717298729629" lon="12.07891898328768"><ele>464.0</ele><time>2026-04-12T15:09:13.766Z</time></trkpt><trkpt lat="42.81725805459687" lon="12.079110733198009"><ele>467.0</ele><time>2026-04-12T15:09:14.766Z</time></trkpt><trkpt lat="42.817342520739786" lon="12.07932612375203"><ele>470.0</ele><time>2026-04-12T15:09:15.766Z</time></trkpt><trkpt lat="42.81743658180216" lon="12.079536570542183"><ele>470.0</ele><time>2026-04-12T15:09:16.765Z</time></trkpt><trkpt lat="42.817552140573795" lon="12.079710186073617"><ele>470.0</ele><time>2026-04-12T15:09:17.765Z</time></trkpt><trkpt lat="42.817671410236535" lon="12.079853073734967"><ele>470.0</ele><time>2026-04-12T15:09:18.765Z</time></trkpt><trkpt lat="42.817815165718706" lon="12.07995695163163"><ele>471.66666666666663</ele><time>2026-04-12T15:09:19.765Z</time></trkpt><trkpt lat="42.817984759863776" lon="12.0800200429843"><ele>473.33333333333337</ele><time>2026-04-12T15:09:20.765Z</time></trkpt><trkpt lat="42.81815141439432" lon="12.080086827219873"><ele>475.0</ele><time>2026-04-12T15:09:21.765Z</time></trkpt><trkpt lat="42.81831906413452" lon="12.080192463895443"><ele>475.0</ele><time>2026-04-12T15:09:22.765Z</time></trkpt><trkpt lat="42.81848272917282" lon="12.080325397864858"><ele>475.0</ele><time>2026-04-12T15:09:23.765Z</time></trkpt><trkpt lat="42.8186443302735" lon="12.080446916485627"><ele>475.0</ele><time>2026-04-12T15:09:24.765Z</time></trkpt><trkpt lat="42.81880874154071" lon="12.080565271778317"><ele>473.6666666666667</ele><time>2026-04-12T15:09:25.765Z</time></trkpt><trkpt lat="42.81898117175794" lon="12.080662714291794"><ele>472.33333333333337</ele><time>2026-04-12T15:09:26.765Z</time></trkpt><trkpt lat="42.81915781824859" lon="12.08072349295865"><ele>471.0</ele><time>2026-04-12T15:09:27.765Z</time></trkpt><trkpt lat="42.81934626580099" lon="12.080771172173865"><ele>474.0</ele><time>2026-04-12T15:09:28.765Z</time></trkpt><trkpt lat="42.81954026682232" lon="12.080823060125292"><ele>477.0</ele><time>2026-04-12T15:09:29.765Z</time></trkpt><trkpt lat="42.81973426268833" lon="12.080877670685298"><ele>480.0</ele><time>2026-04-12T15:09:30.765Z</time></trkpt><trkpt lat="42.81992924948303" lon="12.080940613835894"><ele>480.0</ele><time>2026-04-12T15:09:31.765Z</time></trkpt><trkpt lat="42.820122605505034" lon="12.081005532810476"><ele>480.0</ele><time>2026-04-12T15:09:32.765Z</time></trkpt><trkpt lat="42.82031710644164" lon="12.081065864152755"><ele>480.0</ele><time>2026-04-12T15:09:33.765Z</time></trkpt><trkpt lat="42.820514844550466" lon="12.081109601449782"><ele>481.0</ele><time>2026-04-12T15:09:34.765Z</time></trkpt><trkpt lat="42.82070367666164" lon="12.0811278691127"><ele>482.0</ele><time>2026-04-12T15:09:35.764Z</time></trkpt><trkpt lat="42.82088334096446" lon="12.081146652562792"><ele>483.0</ele><time>2026-04-12T15:09:36.764Z</time></trkpt><trkpt lat="42.821049897108416" lon="12.081192350561489"><ele>486.0</ele><time>2026-04-12T15:09:37.764Z</time></trkpt><trkpt lat="42.82119323019541" lon="12.081265489584593"><ele>489.0</ele><time>2026-04-12T15:09:38.764Z</time></trkpt><trkpt lat="42.821310993589215" lon="12.081373976473378"><ele>492.0</ele><time>2026-04-12T15:09:39.764Z</time></trkpt><trkpt lat="42.82139208800368" lon="12.081517877494312"><ele>495.0</ele><time>2026-04-12T15:09:40.764Z</time></trkpt><trkpt lat="42.82143694376538" lon="12.081677687163051"><ele>496.25</ele><time>2026-04-12T15:09:41.764Z</time></trkpt><trkpt lat="42.82147876547365" lon="12.081859812126359"><ele>497.5</ele><time>2026-04-12T15:09:42.764Z</time></trkpt><trkpt lat="42.82154660594851" lon="12.082040588134952"><ele>498.75</ele><time>2026-04-12T15:09:43.764Z</time></trkpt><trkpt lat="42.821623946519075" lon="12.08222041232973"><ele>500.0</ele><time>2026-04-12T15:09:44.764Z</time></trkpt><trkpt lat="42.82168535546612" lon="12.082419953285243"><ele>500.3333333333333</ele><time>2026-04-12T15:09:45.764Z</time></trkpt><trkpt lat="42.821727703154686" lon="12.082635502750808"><ele>500.66666666666663</ele><time>2026-04-12T15:09:46.764Z</time></trkpt><trkpt lat="42.82175709324724" lon="12.082845819160832"><ele>501.0</ele><time>2026-04-12T15:09:47.764Z</time></trkpt><trkpt lat="42.821837850742774" lon="12.083018146388667"><ele>505.25</ele><time>2026-04-12T15:09:48.764Z</time></trkpt><trkpt lat="42.82192978071798" lon="12.083180225113543"><ele>509.5</ele><time>2026-04-12T15:09:49.764Z</time></trkpt><trkpt lat="42.822021711955394" lon="12.083337785561934"><ele>513.75</ele><time>2026-04-12T15:09:50.764Z</time></trkpt><trkpt lat="42.822083748305154" lon="12.08351421771768"><ele>518.0</ele><time>2026-04-12T15:09:51.764Z</time></trkpt><trkpt lat="42.82211889422785" lon="12.083701311516085"><ele>518.0</ele><time>2026-04-12T15:09:52.764Z</time></trkpt><trkpt lat="42.822143696973555" lon="12.08387085673412"><ele>518.0</ele><time>2026-04-12T15:09:53.764Z</time></trkpt><trkpt lat="42.822184409562524" lon="12.08399097367715"><ele>518.0</ele><time>2026-04-12T15:09:54.763Z</time></trkpt><trkpt lat="42.82224481452652" lon="12.084061338910704"><ele>518.0</ele><time>2026-04-12T15:09:55.763Z</time></trkpt><trkpt lat="42.82231685144796" lon="12.08409255162141"><ele>518.0</ele><time>2026-04-12T15:09:56.763Z</time></trkpt><trkpt lat="42.822394607704425" lon="12.084083052536126"><ele>518.0</ele><time>2026-04-12T15:09:57.763Z</time></trkpt><trkpt lat="42.822472590052385" lon="12.084050862347082"><ele>518.0</ele><time>2026-04-12T15:09:58.763Z</time></trkpt><trkpt lat="42.822562975737085" lon="12.084020726749069"><ele>518.0</ele><time>2026-04-12T15:09:59.763Z</time></trkpt><trkpt lat="42.822667138585025" lon="12.083989470309277"><ele>518.0</ele><time>2026-04-12T15:10:00.763Z</time></trkpt><trkpt lat="42.82278726405228" lon="12.083964304589449"><ele>518.0</ele><time>2026-04-12T15:10:01.763Z</time></trkpt><trkpt lat="42.82291647588783" lon="12.08393638035585"><ele>521.5</ele><time>2026-04-12T15:10:02.763Z</time></trkpt><trkpt lat="42.82305735297354" lon="12.083898170142916"><ele>525.0</ele><time>2026-04-12T15:10:03.763Z</time></trkpt><trkpt lat="42.82320003976111" lon="12.08386195888854"><ele>528.5</ele><time>2026-04-12T15:10:04.763Z</time></trkpt><trkpt lat="42.823352226018294" lon="12.08386567464377"><ele>532.0</ele><time>2026-04-12T15:10:05.763Z</time></trkpt><trkpt lat="42.82350782350371" lon="12.083862377879477"><ele>532.3333333333334</ele><time>2026-04-12T15:10:06.763Z</time></trkpt><trkpt lat="42.82366766866779" lon="12.083860022882558"><ele>532.6666666666666</ele><time>2026-04-12T15:10:07.763Z</time></trkpt><trkpt lat="42.823824048455705" lon="12.083844050167782"><ele>533.0</ele><time>2026-04-12T15:10:08.763Z</time></trkpt><trkpt lat="42.823989031437975" lon="12.083805241376943"><ele>533.0</ele><time>2026-04-12T15:10:09.763Z</time></trkpt><trkpt lat="42.82416674746495" lon="12.08375945890663"><ele>533.0</ele><time>2026-04-12T15:10:10.763Z</time></trkpt><trkpt lat="42.82433083418457" lon="12.083710669049186"><ele>533.0</ele><time>2026-04-12T15:10:11.763Z</time></trkpt><trkpt lat="42.82449339285591" lon="12.08365699702674"><ele>534.25</ele><time>2026-04-12T15:10:12.763Z</time></trkpt><trkpt lat="42.82464947458632" lon="12.083605600087644"><ele>535.5</ele><time>2026-04-12T15:10:13.763Z</time></trkpt><trkpt lat="42.82479213738534" lon="12.083564650889018"><ele>536.75</ele><time>2026-04-12T15:10:14.762Z</time></trkpt><trkpt lat="42.82492689089149" lon="12.083538243390985"><ele>538.0</ele><time>2026-04-12T15:10:15.762Z</time></trkpt><trkpt lat="42.825048839250606" lon="12.083536623996203"><ele>539.0</ele><time>2026-04-12T15:10:16.762Z</time></trkpt><trkpt lat="42.82515894400901" lon="12.083526609194099"><ele>540.0</ele><time>2026-04-12T15:10:17.762Z</time></trkpt><trkpt lat="42.82526446220468" lon="12.083553478619534"><ele>541.0</ele><time>2026-04-12T15:10:18.762Z</time></trkpt><trkpt lat="42.82536032995233" lon="12.08360203172765"><ele>542.0</ele><time>2026-04-12T15:10:19.762Z</time></trkpt><trkpt lat="42.82544313263346" lon="12.083691557837216"><ele>543.0</ele><time>2026-04-12T15:10:20.764Z</time></trkpt><trkpt lat="42.82549536262996" lon="12.083812943762798"><ele>543.0</ele><time>2026-04-12T15:10:21.764Z</time></trkpt><trkpt lat="42.825518561491805" lon="12.083945489609812"><ele>543.0</ele><time>2026-04-12T15:10:22.764Z</time></trkpt><trkpt lat="42.82554131419267" lon="12.084073110319395"><ele>543.0</ele><time>2026-04-12T15:10:23.764Z</time></trkpt><trkpt lat="42.825585114755334" lon="12.084179595786917"><ele>543.0</ele><time>2026-04-12T15:10:24.764Z</time></trkpt><trkpt lat="42.82564202913453" lon="12.084247709890798"><ele>543.0</ele><time>2026-04-12T15:10:25.764Z</time></trkpt><trkpt lat="42.82576324679033" lon="12.084271450687533"><ele>543.0</ele><time>2026-04-12T15:10:27.764Z</time></trkpt><trkpt lat="42.82582363627928" lon="12.084230019187702"><ele>543.0</ele><time>2026-04-12T15:10:28.764Z</time></trkpt><trkpt lat="42.825886732221335" lon="12.084180365712957"><ele>543.0</ele><time>2026-04-12T15:10:29.764Z</time></trkpt><trkpt lat="42.8259389408897" lon="12.084065774984204"><ele>543.0</ele><time>2026-04-12T15:10:30.764Z</time></trkpt><trkpt lat="42.82599669951536" lon="12.083932491072739"><ele>543.0</ele><time>2026-04-12T15:10:31.764Z</time></trkpt><trkpt lat="42.82606287983639" lon="12.083768053232566"><ele>542.8</ele><time>2026-04-12T15:10:32.763Z</time></trkpt><trkpt lat="42.82612651013308" lon="12.083621175771405"><ele>542.5999999999999</ele><time>2026-04-12T15:10:33.764Z</time></trkpt><trkpt lat="42.82617340079809" lon="12.083478870306118"><ele>542.4000000000001</ele><time>2026-04-12T15:10:34.764Z</time></trkpt><trkpt lat="42.82623505582956" lon="12.083367379884649"><ele>542.2</ele><time>2026-04-12T15:10:35.764Z</time></trkpt><trkpt lat="42.82630465766686" lon="12.083279679240773"><ele>542.0</ele><time>2026-04-12T15:10:36.764Z</time></trkpt><trkpt lat="42.82638521393667" lon="12.083210969303963"><ele>541.25</ele><time>2026-04-12T15:10:37.764Z</time></trkpt><trkpt lat="42.82648781598331" lon="12.083155618908924"><ele>540.5</ele><time>2026-04-12T15:10:38.764Z</time></trkpt><trkpt lat="42.826605676549846" lon="12.083114259443722"><ele>539.75</ele><time>2026-04-12T15:10:39.764Z</time></trkpt><trkpt lat="42.82673115945241" lon="12.083092044450407"><ele>539.0</ele><time>2026-04-12T15:10:40.764Z</time></trkpt><trkpt lat="42.82685341735358" lon="12.083065266541263"><ele>537.75</ele><time>2026-04-12T15:10:41.764Z</time></trkpt><trkpt lat="42.82697582132484" lon="12.083013777220899"><ele>536.5</ele><time>2026-04-12T15:10:42.764Z</time></trkpt><trkpt lat="42.827089850004356" lon="12.082933711271306"><ele>535.25</ele><time>2026-04-12T15:10:43.763Z</time></trkpt><trkpt lat="42.82719692397876" lon="12.082845610602433"><ele>534.0</ele><time>2026-04-12T15:10:44.763Z</time></trkpt><trkpt lat="42.827264949484324" lon="12.082694678613056"><ele>534.0</ele><time>2026-04-12T15:10:45.763Z</time></trkpt><trkpt lat="42.827275079032454" lon="12.082527351149446"><ele>534.0</ele><time>2026-04-12T15:10:46.763Z</time></trkpt><trkpt lat="42.82727209481808" lon="12.082355069913385"><ele>534.0</ele><time>2026-04-12T15:10:47.763Z</time></trkpt><trkpt lat="42.82726983865577" lon="12.082179157604378"><ele>534.0</ele><time>2026-04-12T15:10:48.763Z</time></trkpt><trkpt lat="42.82726544582222" lon="12.08200212839283"><ele>533.75</ele><time>2026-04-12T15:10:49.763Z</time></trkpt><trkpt lat="42.82726109623387" lon="12.081820908245621"><ele>533.5</ele><time>2026-04-12T15:10:50.763Z</time></trkpt><trkpt lat="42.82723391333897" lon="12.08163846662534"><ele>533.25</ele><time>2026-04-12T15:10:51.763Z</time></trkpt><trkpt lat="42.827227320527925" lon="12.081452047670245"><ele>533.0</ele><time>2026-04-12T15:10:52.763Z</time></trkpt><trkpt lat="42.82721929337618" lon="12.08126595152671"><ele>533.0</ele><time>2026-04-12T15:10:53.763Z</time></trkpt><trkpt lat="42.827211923261636" lon="12.081079753548906"><ele>533.0</ele><time>2026-04-12T15:10:54.763Z</time></trkpt><trkpt lat="42.82723374729574" lon="12.080883942967613"><ele>533.0</ele><time>2026-04-12T15:10:55.763Z</time></trkpt><trkpt lat="42.827203184581236" lon="12.080684849075558"><ele>533.0</ele><time>2026-04-12T15:10:56.763Z</time></trkpt><trkpt lat="42.827144953104046" lon="12.080492242639567"><ele>535.3333333333333</ele><time>2026-04-12T15:10:57.763Z</time></trkpt><trkpt lat="42.827069621838355" lon="12.080315729760017"><ele>537.6666666666666</ele><time>2026-04-12T15:10:58.763Z</time></trkpt><trkpt lat="42.82697248354527" lon="12.080155382786625"><ele>540.0</ele><time>2026-04-12T15:10:59.763Z</time></trkpt><trkpt lat="42.826859879712636" lon="12.080014746162865"><ele>539.3333333333334</ele><time>2026-04-12T15:11:00.763Z</time></trkpt><trkpt lat="42.82673155948212" lon="12.0798931598879"><ele>538.6666666666667</ele><time>2026-04-12T15:11:01.763Z</time></trkpt><trkpt lat="42.82658963119323" lon="12.079779857201894"><ele>538.0</ele><time>2026-04-12T15:11:02.762Z</time></trkpt><trkpt lat="42.82644702919829" lon="12.079692810186133"><ele>538.0</ele><time>2026-04-12T15:11:03.762Z</time></trkpt><trkpt lat="42.82632013150719" lon="12.079581010452376"><ele>538.0</ele><time>2026-04-12T15:11:04.762Z</time></trkpt><trkpt lat="42.82621533323929" lon="12.079432400623116"><ele>538.0</ele><time>2026-04-12T15:11:05.762Z</time></trkpt><trkpt lat="42.82611266895761" lon="12.079267632314224"><ele>538.0</ele><time>2026-04-12T15:11:06.762Z</time></trkpt><trkpt lat="42.8259991098599" lon="12.079106912798444"><ele>538.0</ele><time>2026-04-12T15:11:07.762Z</time></trkpt><trkpt lat="42.82589470083094" lon="12.078939224746714"><ele>538.0</ele><time>2026-04-12T15:11:08.762Z</time></trkpt><trkpt lat="42.82579228440798" lon="12.078775782658486"><ele>536.5</ele><time>2026-04-12T15:11:09.762Z</time></trkpt><trkpt lat="42.825699182708206" lon="12.078621275144036"><ele>535.0</ele><time>2026-04-12T15:11:10.762Z</time></trkpt><trkpt lat="42.82562316058883" lon="12.078474028875354"><ele>533.5</ele><time>2026-04-12T15:11:11.762Z</time></trkpt><trkpt lat="42.82557831781856" lon="12.078311647129514"><ele>532.0</ele><time>2026-04-12T15:11:12.762Z</time></trkpt><trkpt lat="42.825570058465786" lon="12.07814246307084"><ele>532.0</ele><time>2026-04-12T15:11:13.762Z</time></trkpt><trkpt lat="42.8256196767135" lon="12.077977980621382"><ele>532.0</ele><time>2026-04-12T15:11:14.762Z</time></trkpt><trkpt lat="42.82566660843502" lon="12.077790942452793"><ele>532.0</ele><time>2026-04-12T15:11:15.762Z</time></trkpt><trkpt lat="42.825679898613906" lon="12.07758353578435"><ele>532.0</ele><time>2026-04-12T15:11:16.762Z</time></trkpt><trkpt lat="42.82567282446705" lon="12.07736937868083"><ele>532.0</ele><time>2026-04-12T15:11:17.762Z</time></trkpt><trkpt lat="42.82564295651263" lon="12.077149183078857"><ele>532.0</ele><time>2026-04-12T15:11:18.762Z</time></trkpt><trkpt lat="42.8256242178345" lon="12.0769214116019"><ele>532.0</ele><time>2026-04-12T15:11:19.762Z</time></trkpt><trkpt lat="42.825606880959796" lon="12.076689931312954"><ele>531.6666666666667</ele><time>2026-04-12T15:11:20.762Z</time></trkpt><trkpt lat="42.825583960208995" lon="12.076457089007636"><ele>531.3333333333334</ele><time>2026-04-12T15:11:21.762Z</time></trkpt><trkpt lat="42.82556561567543" lon="12.07622838267615"><ele>531.0</ele><time>2026-04-12T15:11:22.761Z</time></trkpt><trkpt lat="42.82553870303082" lon="12.076013503459176"><ele>531.0</ele><time>2026-04-12T15:11:23.761Z</time></trkpt><trkpt lat="42.825513631006544" lon="12.075806276095527"><ele>531.0</ele><time>2026-04-12T15:11:24.761Z</time></trkpt><trkpt lat="42.82550341917741" lon="12.075607996964811"><ele>531.0</ele><time>2026-04-12T15:11:25.761Z</time></trkpt><trkpt lat="42.82552061156163" lon="12.075402067834059"><ele>529.5</ele><time>2026-04-12T15:11:26.761Z</time></trkpt><trkpt lat="42.825525821332576" lon="12.075203182677166"><ele>528.0</ele><time>2026-04-12T15:11:27.761Z</time></trkpt><trkpt lat="42.825533939625245" lon="12.075017487000656"><ele>526.5</ele><time>2026-04-12T15:11:28.761Z</time></trkpt><trkpt lat="42.82554779054978" lon="12.074861722164822"><ele>525.0</ele><time>2026-04-12T15:11:29.761Z</time></trkpt><trkpt lat="42.825576610798336" lon="12.07473203906448"><ele>523.4</ele><time>2026-04-12T15:11:30.761Z</time></trkpt><trkpt lat="42.82562791506576" lon="12.074620198659046"><ele>521.8</ele><time>2026-04-12T15:11:31.761Z</time></trkpt><trkpt lat="42.82570548662686" lon="12.074523422302418"><ele>520.2</ele><time>2026-04-12T15:11:32.761Z</time></trkpt><trkpt lat="42.8258089253605" lon="12.07444711142888"><ele>518.6</ele><time>2026-04-12T15:11:33.761Z</time></trkpt><trkpt lat="42.82592781084805" lon="12.074378631026976"><ele>517.0</ele><time>2026-04-12T15:11:34.761Z</time></trkpt><trkpt lat="42.82605147365869" lon="12.074312326952846"><ele>517.0</ele><time>2026-04-12T15:11:35.761Z</time></trkpt><trkpt lat="42.826181181717864" lon="12.074239422339824"><ele>517.0</ele><time>2026-04-12T15:11:36.761Z</time></trkpt><trkpt lat="42.82631087284499" lon="12.074153273407303"><ele>517.0</ele><time>2026-04-12T15:11:37.761Z</time></trkpt><trkpt lat="42.82645568641724" lon="12.074064292272856"><ele>517.0</ele><time>2026-04-12T15:11:38.761Z</time></trkpt><trkpt lat="42.82658628491897" lon="12.073935473186085"><ele>513.6666666666667</ele><time>2026-04-12T15:11:39.761Z</time></trkpt><trkpt lat="42.82670405805937" lon="12.073785445377986"><ele>510.33333333333337</ele><time>2026-04-12T15:11:40.761Z</time></trkpt><trkpt lat="42.82679196698658" lon="12.073606370655405"><ele>507.0</ele><time>2026-04-12T15:11:41.76Z</time></trkpt><trkpt lat="42.826882799169155" lon="12.07344776402235"><ele>507.0</ele><time>2026-04-12T15:11:42.76Z</time></trkpt><trkpt lat="42.826985741603565" lon="12.07331613710137"><ele>507.0</ele><time>2026-04-12T15:11:43.76Z</time></trkpt><trkpt lat="42.827114407234156" lon="12.07322657279332"><ele>507.0</ele><time>2026-04-12T15:11:44.76Z</time></trkpt><trkpt lat="42.8272591984788" lon="12.073225300144218"><ele>507.0</ele><time>2026-04-12T15:11:45.76Z</time></trkpt><trkpt lat="42.82740975891406" lon="12.073212527169941"><ele>503.33333333333337</ele><time>2026-04-12T15:11:46.76Z</time></trkpt><trkpt lat="42.82756811406819" lon="12.073178538844841"><ele>499.6666666666667</ele><time>2026-04-12T15:11:47.76Z</time></trkpt><trkpt lat="42.82772575558979" lon="12.073101572763413"><ele>496.0</ele><time>2026-04-12T15:11:48.76Z</time></trkpt><trkpt lat="42.82787130776422" lon="12.072993263616402"><ele>496.0</ele><time>2026-04-12T15:11:49.76Z</time></trkpt><trkpt lat="42.82800286910797" lon="12.072867198503085"><ele>496.0</ele><time>2026-04-12T15:11:50.76Z</time></trkpt><trkpt lat="42.828132019753276" lon="12.072713468465437"><ele>496.0</ele><time>2026-04-12T15:11:51.76Z</time></trkpt><trkpt lat="42.82823910871627" lon="12.072519696929065"><ele>495.6666666666667</ele><time>2026-04-12T15:11:52.76Z</time></trkpt><trkpt lat="42.828331667709755" lon="12.072335091243561"><ele>495.33333333333337</ele><time>2026-04-12T15:11:53.76Z</time></trkpt><trkpt lat="42.8284419955471" lon="12.072177514732045"><ele>495.0</ele><time>2026-04-12T15:11:54.76Z</time></trkpt><trkpt lat="42.82855676827349" lon="12.07205609407095"><ele>495.0</ele><time>2026-04-12T15:11:55.76Z</time></trkpt><trkpt lat="42.82866655660918" lon="12.071950659042791"><ele>495.0</ele><time>2026-04-12T15:11:56.76Z</time></trkpt><trkpt lat="42.828759366341636" lon="12.071841885951194"><ele>495.0</ele><time>2026-04-12T15:11:57.76Z</time></trkpt><trkpt lat="42.82882161029353" lon="12.071705965164117"><ele>495.0</ele><time>2026-04-12T15:11:58.76Z</time></trkpt><trkpt lat="42.82883186053977" lon="12.071542699347779"><ele>494.25</ele><time>2026-04-12T15:11:59.76Z</time></trkpt><trkpt lat="42.828757847195" lon="12.071407606844964"><ele>493.5</ele><time>2026-04-12T15:12:00.759Z</time></trkpt><trkpt lat="42.828668144827304" lon="12.071296431517915"><ele>492.75</ele><time>2026-04-12T15:12:01.759Z</time></trkpt><trkpt lat="42.828552743819515" lon="12.071185216862116"><ele>492.0</ele><time>2026-04-12T15:12:02.759Z</time></trkpt><trkpt lat="42.82843455529778" lon="12.071044947585323"><ele>487.0</ele><time>2026-04-12T15:12:03.759Z</time></trkpt><trkpt lat="42.828361691007984" lon="12.07085715756369"><ele>482.0</ele><time>2026-04-12T15:12:04.759Z</time></trkpt><trkpt lat="42.82829644780255" lon="12.070658051522077"><ele>477.0</ele><time>2026-04-12T15:12:05.759Z</time></trkpt><trkpt lat="42.82823782315771" lon="12.070458775754137"><ele>477.0</ele><time>2026-04-12T15:12:06.759Z</time></trkpt><trkpt lat="42.828203164876236" lon="12.070252575066059"><ele>477.0</ele><time>2026-04-12T15:12:07.759Z</time></trkpt><trkpt lat="42.82819251086362" lon="12.070042557315338"><ele>477.0</ele><time>2026-04-12T15:12:08.759Z</time></trkpt><trkpt lat="42.82819071220777" lon="12.069828458829873"><ele>476.25</ele><time>2026-04-12T15:12:09.759Z</time></trkpt><trkpt lat="42.828193042949195" lon="12.06962822271018"><ele>475.5</ele><time>2026-04-12T15:12:10.759Z</time></trkpt><trkpt lat="42.82818419476686" lon="12.069441933336142"><ele>474.75</ele><time>2026-04-12T15:12:11.759Z</time></trkpt><trkpt lat="42.828147719373845" lon="12.069259846920474"><ele>474.0</ele><time>2026-04-12T15:12:12.759Z</time></trkpt><trkpt lat="42.8280661812326" lon="12.069106702836553"><ele>472.2</ele><time>2026-04-12T15:12:13.759Z</time></trkpt><trkpt lat="42.82800293630652" lon="12.068973128128901"><ele>470.4</ele><time>2026-04-12T15:12:14.759Z</time></trkpt><trkpt lat="42.82795140810035" lon="12.068851333750946"><ele>468.6</ele><time>2026-04-12T15:12:15.759Z</time></trkpt><trkpt lat="42.827920671065286" lon="12.068733094070192"><ele>466.8</ele><time>2026-04-12T15:12:16.759Z</time></trkpt><trkpt lat="42.82792146586808" lon="12.068627883869125"><ele>465.0</ele><time>2026-04-12T15:12:17.759Z</time></trkpt><trkpt lat="42.827962663271315" lon="12.068525888597835"><ele>465.0</ele><time>2026-04-12T15:12:18.759Z</time></trkpt><trkpt lat="42.82804103338978" lon="12.068449528222171"><ele>465.0</ele><time>2026-04-12T15:12:19.759Z</time></trkpt><trkpt lat="42.82814124437048" lon="12.068402261570023"><ele>465.0</ele><time>2026-04-12T15:12:20.758Z</time></trkpt><trkpt lat="42.82824722542188" lon="12.068361463128932"><ele>465.0</ele><time>2026-04-12T15:12:21.758Z</time></trkpt><trkpt lat="42.82836787613773" lon="12.068340086456722"><ele>465.0</ele><time>2026-04-12T15:12:22.758Z</time></trkpt><trkpt lat="42.82848488807618" lon="12.068350226994886"><ele>463.4</ele><time>2026-04-12T15:12:23.758Z</time></trkpt><trkpt lat="42.82859739309038" lon="12.068394580907938"><ele>461.8</ele><time>2026-04-12T15:12:24.758Z</time></trkpt><trkpt lat="42.82869872726822" lon="12.068456866652717"><ele>460.20000000000005</ele><time>2026-04-12T15:12:25.758Z</time></trkpt><trkpt lat="42.828781469093755" lon="12.06854079268048"><ele>458.6</ele><time>2026-04-12T15:12:26.759Z</time></trkpt><trkpt lat="42.82886535928288" lon="12.068627728542353"><ele>457.0</ele><time>2026-04-12T15:12:27.76Z</time></trkpt><trkpt lat="42.82895210300886" lon="12.068682948886234"><ele>457.0</ele><time>2026-04-12T15:12:28.76Z</time></trkpt><trkpt lat="42.8290411279014" lon="12.068708175260504"><ele>457.00000000000006</ele><time>2026-04-12T15:12:29.759Z</time></trkpt><trkpt lat="42.82913441451193" lon="12.068722347524313"><ele>457.00000000000006</ele><time>2026-04-12T15:12:30.76Z</time></trkpt><trkpt lat="42.829232697919096" lon="12.068734002165543"><ele>457.0</ele><time>2026-04-12T15:12:31.76Z</time></trkpt><trkpt lat="42.8293301177831" lon="12.068724202540965"><ele>457.0</ele><time>2026-04-12T15:12:32.759Z</time></trkpt><trkpt lat="42.82942298662397" lon="12.068700590148307"><ele>457.20000000000005</ele><time>2026-04-12T15:12:33.76Z</time></trkpt><trkpt lat="42.829515008314246" lon="12.068660941432999"><ele>457.40000000000003</ele><time>2026-04-12T15:12:34.76Z</time></trkpt><trkpt lat="42.82960411007405" lon="12.068602382311493"><ele>457.59999999999997</ele><time>2026-04-12T15:12:35.759Z</time></trkpt><trkpt lat="42.82969390265005" lon="12.068531604431241"><ele>457.79999999999995</ele><time>2026-04-12T15:12:36.759Z</time></trkpt><trkpt lat="42.829781441037134" lon="12.068461229113314"><ele>458.0</ele><time>2026-04-12T15:12:37.759Z</time></trkpt><trkpt lat="42.82986977086615" lon="12.068391406903373"><ele>458.0</ele><time>2026-04-12T15:12:38.759Z</time></trkpt><trkpt lat="42.82995804776578" lon="12.068323323769627"><ele>457.99999999999994</ele><time>2026-04-12T15:12:39.759Z</time></trkpt><trkpt lat="42.83004038281372" lon="12.068252117827704"><ele>457.99999999999994</ele><time>2026-04-12T15:12:40.759Z</time></trkpt><trkpt lat="42.83012566558813" lon="12.068185094734181"><ele>458.0</ele><time>2026-04-12T15:12:41.759Z</time></trkpt><trkpt lat="42.83021178479621" lon="12.068121751314788"><ele>458.0</ele><time>2026-04-12T15:12:42.759Z</time></trkpt><trkpt lat="42.83029678309458" lon="12.068055547116353"><ele>457.2</ele><time>2026-04-12T15:12:43.759Z</time></trkpt><trkpt lat="42.83037913474181" lon="12.067990585333794"><ele>456.4</ele><time>2026-04-12T15:12:44.759Z</time></trkpt><trkpt lat="42.83046041572532" lon="12.06792492613816"><ele>455.59999999999997</ele><time>2026-04-12T15:12:45.759Z</time></trkpt><trkpt lat="42.830542759598146" lon="12.06785436892265"><ele>454.79999999999995</ele><time>2026-04-12T15:12:46.759Z</time></trkpt><trkpt lat="42.83062085045275" lon="12.067785878310206"><ele>454.0</ele><time>2026-04-12T15:12:47.759Z</time></trkpt><trkpt lat="42.83070128265649" lon="12.067720420045761"><ele>454.0</ele><time>2026-04-12T15:12:48.759Z</time></trkpt><trkpt lat="42.83078205187236" lon="12.067654969581419"><ele>454.0</ele><time>2026-04-12T15:12:49.759Z</time></trkpt><trkpt lat="42.830863031765574" lon="12.067591158124854"><ele>454.0</ele><time>2026-04-12T15:12:50.759Z</time></trkpt><trkpt lat="42.83094165298788" lon="12.06752360524867"><ele>454.0</ele><time>2026-04-12T15:12:51.759Z</time></trkpt><trkpt lat="42.83102228469936" lon="12.06745448938143"><ele>454.0</ele><time>2026-04-12T15:12:52.759Z</time></trkpt><trkpt lat="42.83110474682608" lon="12.0673894037148"><ele>452.83333333333337</ele><time>2026-04-12T15:12:53.759Z</time></trkpt><trkpt lat="42.831184054716296" lon="12.067328939122266"><ele>451.6666666666667</ele><time>2026-04-12T15:12:54.759Z</time></trkpt><trkpt lat="42.831265006111025" lon="12.067273912763152"><ele>450.5</ele><time>2026-04-12T15:12:55.759Z</time></trkpt><trkpt lat="42.83134164716689" lon="12.067222135984522"><ele>449.33333333333337</ele><time>2026-04-12T15:12:56.759Z</time></trkpt><trkpt lat="42.8314165644586" lon="12.067165023367103"><ele>448.1666666666667</ele><time>2026-04-12T15:12:57.759Z</time></trkpt><trkpt lat="42.831489495932026" lon="12.067105541785136"><ele>447.0</ele><time>2026-04-12T15:12:58.758Z</time></trkpt><trkpt lat="42.83156128971903" lon="12.0670430417016"><ele>447.0</ele><time>2026-04-12T15:12:59.758Z</time></trkpt><trkpt lat="42.83163426318495" lon="12.066981620748054"><ele>447.0</ele><time>2026-04-12T15:13:00.758Z</time></trkpt><trkpt lat="42.831705655032806" lon="12.066925513697827"><ele>447.0</ele><time>2026-04-12T15:13:01.758Z</time></trkpt><trkpt lat="42.83177504595009" lon="12.066872159027037"><ele>447.0</ele><time>2026-04-12T15:13:02.758Z</time></trkpt><trkpt lat="42.83184119529871" lon="12.066818272768899"><ele>447.0</ele><time>2026-04-12T15:13:03.758Z</time></trkpt><trkpt lat="42.83190967080908" lon="12.066767117492603"><ele>447.0</ele><time>2026-04-12T15:13:04.758Z</time></trkpt><trkpt lat="42.831979356900355" lon="12.066718200432993"><ele>446.2857142857143</ele><time>2026-04-12T15:13:05.758Z</time></trkpt><trkpt lat="42.832048747714815" lon="12.066673153560634"><ele>445.57142857142856</ele><time>2026-04-12T15:13:06.758Z</time></trkpt><trkpt lat="42.8321234527602" lon="12.066648510683832"><ele>444.8571428571429</ele><time>2026-04-12T15:13:07.758Z</time></trkpt><trkpt lat="42.83219464832239" lon="12.066631427580297"><ele>444.1428571428571</ele><time>2026-04-12T15:13:08.758Z</time></trkpt><trkpt lat="42.832263366888675" lon="12.066618261751666"><ele>443.42857142857144</ele><time>2026-04-12T15:13:09.758Z</time></trkpt><trkpt lat="42.83233314379326" lon="12.066604782025507"><ele>442.7142857142857</ele><time>2026-04-12T15:13:10.758Z</time></trkpt><trkpt lat="42.8324024954728" lon="12.066593952488716"><ele>442.0</ele><time>2026-04-12T15:13:11.758Z</time></trkpt><trkpt lat="42.83247272241572" lon="12.066580416814366"><ele>440.42857142857144</ele><time>2026-04-12T15:13:12.758Z</time></trkpt><trkpt lat="42.832541345761484" lon="12.06655022580136"><ele>438.8571428571429</ele><time>2026-04-12T15:13:13.758Z</time></trkpt><trkpt lat="42.83260529295317" lon="12.066560137631107"><ele>437.28571428571433</ele><time>2026-04-12T15:13:14.758Z</time></trkpt><trkpt lat="42.83267095458886" lon="12.066548715950727"><ele>435.7142857142857</ele><time>2026-04-12T15:13:15.758Z</time></trkpt><trkpt lat="42.83274438946039" lon="12.066535942137909"><ele>434.1428571428571</ele><time>2026-04-12T15:13:16.758Z</time></trkpt><trkpt lat="42.83281621562246" lon="12.066523448231976"><ele>432.5714285714286</ele><time>2026-04-12T15:13:17.757Z</time></trkpt><trkpt lat="42.83289125592129" lon="12.066510379478089"><ele>431.0</ele><time>2026-04-12T15:13:18.757Z</time></trkpt><trkpt lat="42.83295673861203" lon="12.066498979281633"><ele>431.0</ele><time>2026-04-12T15:13:19.757Z</time></trkpt><trkpt lat="42.83302120213531" lon="12.066487254575094"><ele>431.0</ele><time>2026-04-12T15:13:20.757Z</time></trkpt><trkpt lat="42.83308374263614" lon="12.066474830705758"><ele>431.0</ele><time>2026-04-12T15:13:21.757Z</time></trkpt><trkpt lat="42.83314703314172" lon="12.06646225784906"><ele>431.0</ele><time>2026-04-12T15:13:22.757Z</time></trkpt><trkpt lat="42.83321899481004" lon="12.06644809804358"><ele>431.0</ele><time>2026-04-12T15:13:23.757Z</time></trkpt><trkpt lat="42.83329417418165" lon="12.06643330989404"><ele>431.0</ele><time>2026-04-12T15:13:24.757Z</time></trkpt><trkpt lat="42.83336588959947" lon="12.06641920312058"><ele>431.0</ele><time>2026-04-12T15:13:25.757Z</time></trkpt><trkpt lat="42.833438946306615" lon="12.066404832520762"><ele>429.8571428571429</ele><time>2026-04-12T15:13:26.757Z</time></trkpt><trkpt lat="42.83351052683951" lon="12.066390752279148"><ele>428.71428571428567</ele><time>2026-04-12T15:13:27.757Z</time></trkpt><trkpt lat="42.83358079407163" lon="12.066376932070904"><ele>427.57142857142856</ele><time>2026-04-12T15:13:28.757Z</time></trkpt><trkpt lat="42.83365383245156" lon="12.066362564915492"><ele>426.42857142857144</ele><time>2026-04-12T15:13:29.757Z</time></trkpt><trkpt lat="42.833727443435826" lon="12.06635080590207"><ele>425.28571428571433</ele><time>2026-04-12T15:13:30.757Z</time></trkpt><trkpt lat="42.83380051296542" lon="12.06633979359283"><ele>424.1428571428571</ele><time>2026-04-12T15:13:31.757Z</time></trkpt><trkpt lat="42.83387398386467" lon="12.066331531088624"><ele>423.0</ele><time>2026-04-12T15:13:32.757Z</time></trkpt><trkpt lat="42.83394688511963" lon="12.06632876975763"><ele>423.0</ele><time>2026-04-12T15:13:33.757Z</time></trkpt><trkpt lat="42.83402145867321" lon="12.066326805266337"><ele>423.0</ele><time>2026-04-12T15:13:34.757Z</time></trkpt><trkpt lat="42.834098337866095" lon="12.066316688544374"><ele>423.0</ele><time>2026-04-12T15:13:35.757Z</time></trkpt><trkpt lat="42.83416224878656" lon="12.066300433386619"><ele>423.0</ele><time>2026-04-12T15:13:36.757Z</time></trkpt><trkpt lat="42.83427831187322" lon="12.066293702124911"><ele>423.0</ele><time>2026-04-12T15:13:38.756Z</time></trkpt><trkpt lat="42.834367328690256" lon="12.06625971039765"><ele>423.0</ele><time>2026-04-12T15:13:40.756Z</time></trkpt><trkpt lat="42.83444318132907" lon="12.066194594060493"><ele>424.1666666666667</ele><time>2026-04-12T15:13:42.756Z</time></trkpt><trkpt lat="42.83452715560529" lon="12.066105099875573"><ele>425.33333333333337</ele><time>2026-04-12T15:13:44.756Z</time></trkpt><trkpt lat="42.83456485181838" lon="12.066024702386386"><ele>426.5</ele><time>2026-04-12T15:13:45.756Z</time></trkpt><trkpt lat="42.83459730713795" lon="12.065920872497564"><ele>427.6666666666667</ele><time>2026-04-12T15:13:46.756Z</time></trkpt><trkpt lat="42.83463584898899" lon="12.065812757959659"><ele>428.83333333333337</ele><time>2026-04-12T15:13:47.756Z</time></trkpt><trkpt lat="42.83468101142203" lon="12.065702614904922"><ele>430.0</ele><time>2026-04-12T15:13:48.756Z</time></trkpt><trkpt lat="42.83473817854566" lon="12.065608750420319"><ele>426.0</ele><time>2026-04-12T15:13:49.756Z</time></trkpt><trkpt lat="42.834807561038836" lon="12.065541237880794"><ele>422.0</ele><time>2026-04-12T15:13:50.756Z</time></trkpt><trkpt lat="42.834903345444694" lon="12.065517953928492"><ele>418.0</ele><time>2026-04-12T15:13:51.756Z</time></trkpt><trkpt lat="42.83499884445452" lon="12.065520504773405"><ele>414.0</ele><time>2026-04-12T15:13:52.756Z</time></trkpt><trkpt lat="42.835087182413076" lon="12.065526580384045"><ele>410.0</ele><time>2026-04-12T15:13:53.756Z</time></trkpt><trkpt lat="42.83517974443411" lon="12.065521121589438"><ele>410.0</ele><time>2026-04-12T15:13:54.756Z</time></trkpt><trkpt lat="42.835275584469656" lon="12.065512151967074"><ele>410.0</ele><time>2026-04-12T15:13:55.756Z</time></trkpt><trkpt lat="42.83537333152106" lon="12.0655022308321"><ele>410.0</ele><time>2026-04-12T15:13:56.755Z</time></trkpt><trkpt lat="42.83546976934111" lon="12.065496042100877"><ele>410.0</ele><time>2026-04-12T15:13:57.755Z</time></trkpt><trkpt lat="42.83556237624352" lon="12.065488320402205"><ele>410.0</ele><time>2026-04-12T15:13:58.755Z</time></trkpt><trkpt lat="42.83565523063526" lon="12.065479053511098"><ele>410.0</ele><time>2026-04-12T15:13:59.755Z</time></trkpt><trkpt lat="42.83574417635671" lon="12.065477177009075"><ele>410.0</ele><time>2026-04-12T15:14:00.755Z</time></trkpt><trkpt lat="42.83583304589213" lon="12.065473467916638"><ele>410.0</ele><time>2026-04-12T15:14:01.755Z</time></trkpt><trkpt lat="42.83592232820102" lon="12.065465237161288"><ele>410.0</ele><time>2026-04-12T15:14:02.755Z</time></trkpt><trkpt lat="42.83602106540544" lon="12.065466857315949"><ele>410.0</ele><time>2026-04-12T15:14:03.755Z</time></trkpt><trkpt lat="42.83611815025275" lon="12.065469899988086"><ele>410.6</ele><time>2026-04-12T15:14:04.755Z</time></trkpt><trkpt lat="42.836211357892374" lon="12.065466106421818"><ele>411.2</ele><time>2026-04-12T15:14:05.755Z</time></trkpt><trkpt lat="42.83630191621787" lon="12.06547430595428"><ele>411.79999999999995</ele><time>2026-04-12T15:14:06.755Z</time></trkpt><trkpt lat="42.836396592928665" lon="12.065485316850207"><ele>412.4</ele><time>2026-04-12T15:14:07.755Z</time></trkpt><trkpt lat="42.83649314461349" lon="12.065494432666398"><ele>413.0</ele><time>2026-04-12T15:14:08.755Z</time></trkpt><trkpt lat="42.83659098479387" lon="12.065515947354951"><ele>413.0</ele><time>2026-04-12T15:14:09.755Z</time></trkpt><trkpt lat="42.836682346330434" lon="12.065540948411083"><ele>413.0</ele><time>2026-04-12T15:14:10.755Z</time></trkpt><trkpt lat="42.83677077452815" lon="12.065570779172786"><ele>413.0</ele><time>2026-04-12T15:14:11.755Z</time></trkpt><trkpt lat="42.83685786321852" lon="12.065604817683289"><ele>413.0</ele><time>2026-04-12T15:14:12.755Z</time></trkpt><trkpt lat="42.83694703009844" lon="12.065625275646289"><ele>413.0</ele><time>2026-04-12T15:14:13.755Z</time></trkpt><trkpt lat="42.837040750372616" lon="12.06566406642328"><ele>412.99999999999994</ele><time>2026-04-12T15:14:14.755Z</time></trkpt><trkpt lat="42.837132791684965" lon="12.065703965440497"><ele>413.0</ele><time>2026-04-12T15:14:15.754Z</time></trkpt><trkpt lat="42.837216563972554" lon="12.065722648981813"><ele>413.0</ele><time>2026-04-12T15:14:16.754Z</time></trkpt><trkpt lat="42.837301926525576" lon="12.06573786538999"><ele>413.0</ele><time>2026-04-12T15:14:17.754Z</time></trkpt><trkpt lat="42.837390764523654" lon="12.065737565979706"><ele>412.99999999999994</ele><time>2026-04-12T15:14:18.754Z</time></trkpt><trkpt lat="42.83747697025308" lon="12.065758771132078"><ele>413.0</ele><time>2026-04-12T15:14:19.754Z</time></trkpt><trkpt lat="42.837558649299915" lon="12.06577482867898"><ele>413.0</ele><time>2026-04-12T15:14:20.754Z</time></trkpt><trkpt lat="42.837635286396086" lon="12.06576214501496"><ele>413.0</ele><time>2026-04-12T15:14:21.754Z</time></trkpt><trkpt lat="42.837709035745306" lon="12.065761341781267"><ele>413.0</ele><time>2026-04-12T15:14:22.754Z</time></trkpt><trkpt lat="42.8377708765019" lon="12.065779594626337"><ele>413.0</ele><time>2026-04-12T15:14:23.754Z</time></trkpt><trkpt lat="42.837835813998176" lon="12.065783155589077"><ele>413.0</ele><time>2026-04-12T15:14:24.754Z</time></trkpt><trkpt lat="42.83789766890771" lon="12.065762712696094"><ele>413.0</ele><time>2026-04-12T15:14:25.754Z</time></trkpt><trkpt lat="42.83797334165202" lon="12.065764176249969"><ele>413.0</ele><time>2026-04-12T15:14:27.754Z</time></trkpt><trkpt lat="42.83804718572592" lon="12.065721410148319"><ele>413.2</ele><time>2026-04-12T15:17:09.747Z</time></trkpt><trkpt lat="42.83811756927401" lon="12.065715501647677"><ele>413.4</ele><time>2026-04-12T15:17:12.747Z</time></trkpt><trkpt lat="42.838215897913685" lon="12.065735267996113"><ele>413.59999999999997</ele><time>2026-04-12T15:17:15.747Z</time></trkpt><trkpt lat="42.838322951225585" lon="12.065751788047114"><ele>413.79999999999995</ele><time>2026-04-12T15:17:17.747Z</time></trkpt><trkpt lat="42.83843848894015" lon="12.065846239967733"><ele>414.0</ele><time>2026-04-12T15:17:19.747Z</time></trkpt><trkpt lat="42.83850244559203" lon="12.0659192160336"><ele>416.6</ele><time>2026-04-12T15:17:20.747Z</time></trkpt><trkpt lat="42.83856736746062" lon="12.066003350418354"><ele>419.2</ele><time>2026-04-12T15:17:21.747Z</time></trkpt><trkpt lat="42.83862605530834" lon="12.066096290006943"><ele>421.80000000000007</ele><time>2026-04-12T15:17:22.747Z</time></trkpt><trkpt lat="42.83869130855173" lon="12.06619529971913"><ele>424.40000000000003</ele><time>2026-04-12T15:17:23.747Z</time></trkpt><trkpt lat="42.83875380424248" lon="12.066292916537787"><ele>427.0</ele><time>2026-04-12T15:17:24.747Z</time></trkpt><trkpt lat="42.838816733702274" lon="12.066389912724004"><ele>427.0</ele><time>2026-04-12T15:17:25.746Z</time></trkpt><trkpt lat="42.83887046661709" lon="12.066497589625218"><ele>427.00000000000006</ele><time>2026-04-12T15:17:26.746Z</time></trkpt><trkpt lat="42.838953836866914" lon="12.066575185905231"><ele>427.00000000000006</ele><time>2026-04-12T15:17:27.746Z</time></trkpt><trkpt lat="42.839052550374795" lon="12.066602033199755"><ele>427.0</ele><time>2026-04-12T15:17:28.746Z</time></trkpt><trkpt lat="42.83915048972255" lon="12.066580577745794"><ele>427.0</ele><time>2026-04-12T15:17:29.746Z</time></trkpt><trkpt lat="42.83923691955069" lon="12.066492675510768"><ele>427.0</ele><time>2026-04-12T15:17:30.746Z</time></trkpt><trkpt lat="42.839290386554204" lon="12.066389347104558"><ele>427.00000000000006</ele><time>2026-04-12T15:17:31.746Z</time></trkpt><trkpt lat="42.83933472211548" lon="12.066263919034"><ele>427.00000000000006</ele><time>2026-04-12T15:17:32.746Z</time></trkpt><trkpt lat="42.839365105577215" lon="12.066121734465439"><ele>427.0</ele><time>2026-04-12T15:17:33.746Z</time></trkpt><trkpt lat="42.839373245033045" lon="12.06596811003276"><ele>427.0</ele><time>2026-04-12T15:17:34.746Z</time></trkpt><trkpt lat="42.83933606003812" lon="12.065811142694402"><ele>426.0</ele><time>2026-04-12T15:17:35.746Z</time></trkpt><trkpt lat="42.83931662304913" lon="12.065649759023408"><ele>425.00000000000006</ele><time>2026-04-12T15:17:36.746Z</time></trkpt><trkpt lat="42.8392719798318" lon="12.065506106885106"><ele>424.0</ele><time>2026-04-12T15:17:37.746Z</time></trkpt><trkpt lat="42.83925787386218" lon="12.0653653440949"><ele>423.0</ele><time>2026-04-12T15:17:38.746Z</time></trkpt><trkpt lat="42.83927892493072" lon="12.065236834100467"><ele>422.0</ele><time>2026-04-12T15:17:39.746Z</time></trkpt><trkpt lat="42.839321849510405" lon="12.06513074218878"><ele>424.20000000000005</ele><time>2026-04-12T15:17:40.746Z</time></trkpt><trkpt lat="42.83938191824571" lon="12.065041035604704"><ele>426.4</ele><time>2026-04-12T15:17:41.746Z</time></trkpt><trkpt lat="42.83947291225792" lon="12.064965532864845"><ele>428.59999999999997</ele><time>2026-04-12T15:17:42.746Z</time></trkpt><trkpt lat="42.839582394391755" lon="12.064919050013552"><ele>430.79999999999995</ele><time>2026-04-12T15:17:43.746Z</time></trkpt><trkpt lat="42.839685375512374" lon="12.064907195809587"><ele>433.0</ele><time>2026-04-12T15:17:44.746Z</time></trkpt><trkpt lat="42.83978967980398" lon="12.064954055798427"><ele>433.0</ele><time>2026-04-12T15:17:45.745Z</time></trkpt><trkpt lat="42.83989455440296" lon="12.065032437628933"><ele>433.0</ele><time>2026-04-12T15:17:46.745Z</time></trkpt><trkpt lat="42.83998035068308" lon="12.065147291970469"><ele>433.0</ele><time>2026-04-12T15:17:47.745Z</time></trkpt><trkpt lat="42.84007562566155" lon="12.065263094125404"><ele>433.0</ele><time>2026-04-12T15:17:48.745Z</time></trkpt><trkpt lat="42.840174904728464" lon="12.065381130876975"><ele>433.5</ele><time>2026-04-12T15:17:49.745Z</time></trkpt><trkpt lat="42.84029817889222" lon="12.065496723315976"><ele>434.0</ele><time>2026-04-12T15:17:50.745Z</time></trkpt><trkpt lat="42.84039572394229" lon="12.065615397643551"><ele>434.5</ele><time>2026-04-12T15:17:51.745Z</time></trkpt><trkpt lat="42.84049347414005" lon="12.065718271677113"><ele>435.0</ele><time>2026-04-12T15:17:52.745Z</time></trkpt><trkpt lat="42.84059408535864" lon="12.065794491463095"><ele>435.75</ele><time>2026-04-12T15:17:53.745Z</time></trkpt><trkpt lat="42.84070438827221" lon="12.065835004090511"><ele>436.5</ele><time>2026-04-12T15:17:54.745Z</time></trkpt><trkpt lat="42.84082806000259" lon="12.065839131636096"><ele>437.25</ele><time>2026-04-12T15:17:55.745Z</time></trkpt><trkpt lat="42.84096141763185" lon="12.065811303301167"><ele>438.0</ele><time>2026-04-12T15:17:56.745Z</time></trkpt><trkpt lat="42.84110458309578" lon="12.065775664439517"><ele>438.0</ele><time>2026-04-12T15:17:57.745Z</time></trkpt><trkpt lat="42.84125471740389" lon="12.065743000975518"><ele>438.0</ele><time>2026-04-12T15:17:58.745Z</time></trkpt><trkpt lat="42.84141243040868" lon="12.065699546589713"><ele>438.0</ele><time>2026-04-12T15:17:59.745Z</time></trkpt><trkpt lat="42.84156865472003" lon="12.065654369216562"><ele>438.0</ele><time>2026-04-12T15:18:00.745Z</time></trkpt><trkpt lat="42.84171619096946" lon="12.065609855292303"><ele>438.0</ele><time>2026-04-12T15:18:01.745Z</time></trkpt><trkpt lat="42.84185618115435" lon="12.065560821563636"><ele>438.0</ele><time>2026-04-12T15:18:02.745Z</time></trkpt><trkpt lat="42.84198462404747" lon="12.065535348644982"><ele>438.0</ele><time>2026-04-12T15:18:03.745Z</time></trkpt><trkpt lat="42.84209389535738" lon="12.065488911809112"><ele>438.0</ele><time>2026-04-12T15:18:04.744Z</time></trkpt><trkpt lat="42.84219911367014" lon="12.065426723430475"><ele>438.0</ele><time>2026-04-12T15:18:05.744Z</time></trkpt><trkpt lat="42.842302313486584" lon="12.065364631368464"><ele>438.0</ele><time>2026-04-12T15:18:06.744Z</time></trkpt><trkpt lat="42.842410323702765" lon="12.06530064951055"><ele>438.0</ele><time>2026-04-12T15:18:07.744Z</time></trkpt><trkpt lat="42.84252163692377" lon="12.065235287171962"><ele>438.0</ele><time>2026-04-12T15:18:08.744Z</time></trkpt><trkpt lat="42.842631258245326" lon="12.06517783841954"><ele>437.99999999999994</ele><time>2026-04-12T15:18:09.744Z</time></trkpt><trkpt lat="42.842737070103524" lon="12.065125129104523"><ele>437.99999999999994</ele><time>2026-04-12T15:18:10.744Z</time></trkpt><trkpt lat="42.84284204866748" lon="12.065079200245203"><ele>438.0</ele><time>2026-04-12T15:18:11.744Z</time></trkpt><trkpt lat="42.8429456168405" lon="12.06503843711654"><ele>438.0</ele><time>2026-04-12T15:18:12.744Z</time></trkpt><trkpt lat="42.843044896356" lon="12.06500467028848"><ele>438.0</ele><time>2026-04-12T15:18:13.744Z</time></trkpt><trkpt lat="42.843143046704846" lon="12.064975204726947"><ele>437.99999999999994</ele><time>2026-04-12T15:18:14.744Z</time></trkpt><trkpt lat="42.843237103565905" lon="12.064954406784596"><ele>437.99999999999994</ele><time>2026-04-12T15:18:15.744Z</time></trkpt><trkpt lat="42.84333180293048" lon="12.064937382547836"><ele>438.0</ele><time>2026-04-12T15:18:16.744Z</time></trkpt><trkpt lat="42.843427082784736" lon="12.064926276863838"><ele>438.0</ele><time>2026-04-12T15:18:17.744Z</time></trkpt><trkpt lat="42.84352296934317" lon="12.064922976060117"><ele>439.0</ele><time>2026-04-12T15:18:18.744Z</time></trkpt><trkpt lat="42.84362227583151" lon="12.06491960958809"><ele>439.99999999999994</ele><time>2026-04-12T15:18:19.744Z</time></trkpt><trkpt lat="42.84371500909591" lon="12.064938366969196"><ele>440.99999999999994</ele><time>2026-04-12T15:18:20.744Z</time></trkpt><trkpt lat="42.84381758090691" lon="12.064955499129027"><ele>442.0</ele><time>2026-04-12T15:18:21.744Z</time></trkpt><trkpt lat="42.84392515301169" lon="12.064975018701592"><ele>443.0</ele><time>2026-04-12T15:18:22.744Z</time></trkpt><trkpt lat="42.844042754449084" lon="12.064995960081436"><ele>443.0</ele><time>2026-04-12T15:18:23.743Z</time></trkpt><trkpt lat="42.84415517125503" lon="12.065011062724732"><ele>443.0</ele><time>2026-04-12T15:18:24.743Z</time></trkpt><trkpt lat="42.844277432466846" lon="12.065019011596814"><ele>443.0</ele><time>2026-04-12T15:18:25.743Z</time></trkpt><trkpt lat="42.84438936575284" lon="12.065008737281348"><ele>443.0</ele><time>2026-04-12T15:18:26.743Z</time></trkpt><trkpt lat="42.844498423332794" lon="12.064994926929936"><ele>443.5</ele><time>2026-04-12T15:18:27.743Z</time></trkpt><trkpt lat="42.844614128356675" lon="12.064978241547744"><ele>444.0</ele><time>2026-04-12T15:18:28.743Z</time></trkpt><trkpt lat="42.84473339638814" lon="12.064961042312111"><ele>444.5</ele><time>2026-04-12T15:18:29.743Z</time></trkpt><trkpt lat="42.84485161171562" lon="12.06493081165846"><ele>445.0</ele><time>2026-04-12T15:18:30.743Z</time></trkpt><trkpt lat="42.844970567565596" lon="12.06493508872087"><ele>445.0</ele><time>2026-04-12T15:18:31.743Z</time></trkpt><trkpt lat="42.845090738662" lon="12.064941259849022"><ele>445.0</ele><time>2026-04-12T15:18:32.743Z</time></trkpt><trkpt lat="42.84521547259612" lon="12.064951678526498"><ele>445.0</ele><time>2026-04-12T15:18:33.743Z</time></trkpt><trkpt lat="42.845346976302274" lon="12.064966088620654"><ele>445.0</ele><time>2026-04-12T15:18:34.743Z</time></trkpt><trkpt lat="42.84547563848984" lon="12.064996757483518"><ele>447.75</ele><time>2026-04-12T15:18:35.743Z</time></trkpt><trkpt lat="42.845604269702875" lon="12.0650301677197"><ele>450.5</ele><time>2026-04-12T15:18:36.743Z</time></trkpt><trkpt lat="42.84573529427123" lon="12.06506975087174"><ele>453.25</ele><time>2026-04-12T15:18:37.743Z</time></trkpt><trkpt lat="42.845864001354165" lon="12.065127382120455"><ele>456.0</ele><time>2026-04-12T15:18:38.743Z</time></trkpt><trkpt lat="42.84598815258501" lon="12.065203005344053"><ele>458.75</ele><time>2026-04-12T15:18:39.743Z</time></trkpt><trkpt lat="42.84610850131343" lon="12.065290017155561"><ele>461.5</ele><time>2026-04-12T15:18:40.743Z</time></trkpt><trkpt lat="42.84622720478564" lon="12.065385665920674"><ele>464.25</ele><time>2026-04-12T15:18:41.743Z</time></trkpt><trkpt lat="42.84634086974975" lon="12.065492463270377"><ele>467.0</ele><time>2026-04-12T15:18:42.743Z</time></trkpt><trkpt lat="42.84644625449976" lon="12.065597950819537"><ele>467.0</ele><time>2026-04-12T15:18:43.742Z</time></trkpt><trkpt lat="42.84655199672485" lon="12.065706557759155"><ele>467.0</ele><time>2026-04-12T15:18:44.744Z</time></trkpt><trkpt lat="42.84665260691505" lon="12.065812924505591"><ele>467.0</ele><time>2026-04-12T15:18:45.744Z</time></trkpt><trkpt lat="42.84674457459467" lon="12.065922664618517"><ele>467.0</ele><time>2026-04-12T15:18:46.744Z</time></trkpt><trkpt lat="42.84683031185049" lon="12.066031382358846"><ele>465.75</ele><time>2026-04-12T15:18:47.744Z</time></trkpt><trkpt lat="42.84691138817861" lon="12.066151071834234"><ele>464.5</ele><time>2026-04-12T15:18:48.744Z</time></trkpt><trkpt lat="42.84698670524556" lon="12.06626769155222"><ele>463.25</ele><time>2026-04-12T15:18:49.744Z</time></trkpt><trkpt lat="42.84705214540703" lon="12.066396704364939"><ele>462.0</ele><time>2026-04-12T15:18:50.744Z</time></trkpt><trkpt lat="42.84711795932259" lon="12.066527060387811"><ele>462.0</ele><time>2026-04-12T15:18:51.743Z</time></trkpt><trkpt lat="42.847173900689974" lon="12.06665899219242"><ele>462.0</ele><time>2026-04-12T15:18:52.743Z</time></trkpt><trkpt lat="42.84722625761207" lon="12.066793338415122"><ele>462.0</ele><time>2026-04-12T15:18:53.743Z</time></trkpt><trkpt lat="42.847282371178956" lon="12.066923180065146"><ele>462.0</ele><time>2026-04-12T15:18:54.743Z</time></trkpt><trkpt lat="42.847350060202814" lon="12.067051720337973"><ele>462.0</ele><time>2026-04-12T15:18:55.743Z</time></trkpt><trkpt lat="42.84742142018624" lon="12.06716909270485"><ele>462.0</ele><time>2026-04-12T15:18:56.744Z</time></trkpt><trkpt lat="42.847497574813325" lon="12.067282636156715"><ele>462.0</ele><time>2026-04-12T15:18:57.744Z</time></trkpt><trkpt lat="42.84758578660025" lon="12.067394287889723"><ele>462.0</ele><time>2026-04-12T15:18:58.744Z</time></trkpt><trkpt lat="42.84767238309717" lon="12.067490899515477"><ele>463.5</ele><time>2026-04-12T15:18:59.744Z</time></trkpt><trkpt lat="42.84776846833333" lon="12.067582080153597"><ele>465.0</ele><time>2026-04-12T15:19:00.744Z</time></trkpt><trkpt lat="42.84786490461934" lon="12.06766505593822"><ele>466.5</ele><time>2026-04-12T15:19:01.744Z</time></trkpt><trkpt lat="42.847972058559456" lon="12.067735328854594"><ele>468.0</ele><time>2026-04-12T15:19:02.743Z</time></trkpt><trkpt lat="42.848084798825106" lon="12.067790667321496"><ele>468.0</ele><time>2026-04-12T15:19:03.743Z</time></trkpt><trkpt lat="42.84820715349172" lon="12.067829596383797"><ele>468.0</ele><time>2026-04-12T15:19:04.743Z</time></trkpt><trkpt lat="42.84833608672046" lon="12.067859491748449"><ele>468.0</ele><time>2026-04-12T15:19:05.743Z</time></trkpt><trkpt lat="42.84847641200131" lon="12.067898396166429"><ele>468.0</ele><time>2026-04-12T15:19:06.743Z</time></trkpt><trkpt lat="42.84861552869117" lon="12.06793641436676"><ele>468.5</ele><time>2026-04-12T15:19:07.743Z</time></trkpt><trkpt lat="42.84875980933834" lon="12.06796375588862"><ele>469.0</ele><time>2026-04-12T15:19:08.743Z</time></trkpt><trkpt lat="42.84890058215874" lon="12.067975784772512"><ele>469.5</ele><time>2026-04-12T15:19:09.743Z</time></trkpt><trkpt lat="42.84903972189265" lon="12.06796304837477"><ele>470.0</ele><time>2026-04-12T15:19:10.743Z</time></trkpt><trkpt lat="42.84917625458199" lon="12.067924144313588"><ele>468.75</ele><time>2026-04-12T15:19:11.743Z</time></trkpt><trkpt lat="42.8493138553085" lon="12.067880966645005"><ele>467.5</ele><time>2026-04-12T15:19:12.743Z</time></trkpt><trkpt lat="42.84944904083385" lon="12.067853643795582"><ele>466.25</ele><time>2026-04-12T15:19:13.743Z</time></trkpt><trkpt lat="42.84958564475589" lon="12.067850233274882"><ele>465.0</ele><time>2026-04-12T15:19:14.743Z</time></trkpt><trkpt lat="42.84971041177896" lon="12.067871398495651"><ele>465.0</ele><time>2026-04-12T15:19:15.743Z</time></trkpt><trkpt lat="42.849834261669386" lon="12.06789542730816"><ele>465.0</ele><time>2026-04-12T15:19:16.743Z</time></trkpt><trkpt lat="42.84998537949719" lon="12.067932265926176"><ele>465.0</ele><time>2026-04-12T15:19:17.743Z</time></trkpt><trkpt lat="42.850111624845994" lon="12.067961236561118"><ele>465.0</ele><time>2026-04-12T15:19:18.743Z</time></trkpt><trkpt lat="42.85023840374953" lon="12.067986429640246"><ele>463.0</ele><time>2026-04-12T15:19:19.743Z</time></trkpt><trkpt lat="42.850367877574534" lon="12.068030342960164"><ele>461.0</ele><time>2026-04-12T15:19:20.743Z</time></trkpt><trkpt lat="42.85049507619779" lon="12.068050327525"><ele>459.0</ele><time>2026-04-12T15:19:21.743Z</time></trkpt><trkpt lat="42.85062443177117" lon="12.068050339999921"><ele>457.0</ele><time>2026-04-12T15:19:22.742Z</time></trkpt><trkpt lat="42.850751658364" lon="12.068026560618703"><ele>457.0</ele><time>2026-04-12T15:19:23.742Z</time></trkpt><trkpt lat="42.85085774707485" lon="12.067940163603037"><ele>457.0</ele><time>2026-04-12T15:19:24.742Z</time></trkpt><trkpt lat="42.85095903892886" lon="12.067854638326393"><ele>457.0</ele><time>2026-04-12T15:19:25.742Z</time></trkpt><trkpt lat="42.8510562915254" lon="12.067742976365478"><ele>457.0</ele><time>2026-04-12T15:19:26.742Z</time></trkpt><trkpt lat="42.851148289303794" lon="12.067614760813834"><ele>457.5</ele><time>2026-04-12T15:19:27.742Z</time></trkpt><trkpt lat="42.85124981539708" lon="12.067490167759733"><ele>458.0</ele><time>2026-04-12T15:19:28.742Z</time></trkpt><trkpt lat="42.851370156297826" lon="12.067398771557965"><ele>458.5</ele><time>2026-04-12T15:19:29.742Z</time></trkpt><trkpt lat="42.851505868475805" lon="12.067347134654883"><ele>459.0</ele><time>2026-04-12T15:19:30.742Z</time></trkpt><trkpt lat="42.85165823208962" lon="12.067318184197703"><ele>457.66666666666663</ele><time>2026-04-12T15:19:31.742Z</time></trkpt><trkpt lat="42.851815680209775" lon="12.067314350010632"><ele>456.3333333333333</ele><time>2026-04-12T15:19:32.742Z</time></trkpt><trkpt lat="42.85196458894747" lon="12.067306886986422"><ele>455.0</ele><time>2026-04-12T15:19:33.742Z</time></trkpt><trkpt lat="42.85210709816116" lon="12.06727672193072"><ele>455.0</ele><time>2026-04-12T15:19:34.742Z</time></trkpt><trkpt lat="42.85223363905654" lon="12.067205227275748"><ele>455.0</ele><time>2026-04-12T15:19:35.742Z</time></trkpt><trkpt lat="42.85232841616044" lon="12.067088578871555"><ele>455.0</ele><time>2026-04-12T15:19:36.742Z</time></trkpt><trkpt lat="42.85237363628514" lon="12.066943739828098"><ele>455.0</ele><time>2026-04-12T15:19:37.742Z</time></trkpt><trkpt lat="42.85239072109922" lon="12.066759735897929"><ele>453.75</ele><time>2026-04-12T15:19:38.742Z</time></trkpt><trkpt lat="42.8523755838479" lon="12.066572653375776"><ele>452.5</ele><time>2026-04-12T15:19:39.742Z</time></trkpt><trkpt lat="42.852353557607444" lon="12.066379699940468"><ele>451.25</ele><time>2026-04-12T15:19:40.742Z</time></trkpt><trkpt lat="42.85232162277398" lon="12.066183776634091"><ele>450.0</ele><time>2026-04-12T15:19:41.741Z</time></trkpt><trkpt lat="42.85229092352989" lon="12.065984160152086"><ele>450.0</ele><time>2026-04-12T15:19:42.741Z</time></trkpt><trkpt lat="42.85227115892783" lon="12.06578602437453"><ele>450.0</ele><time>2026-04-12T15:19:43.741Z</time></trkpt><trkpt lat="42.852271723253175" lon="12.065585783861193"><ele>450.0</ele><time>2026-04-12T15:19:44.741Z</time></trkpt><trkpt lat="42.85229599073509" lon="12.06538155992498"><ele>450.0</ele><time>2026-04-12T15:19:45.741Z</time></trkpt><trkpt lat="42.85234432484694" lon="12.065189005432467"><ele>449.25</ele><time>2026-04-12T15:19:46.741Z</time></trkpt><trkpt lat="42.852414484174325" lon="12.065009595869894"><ele>448.5</ele><time>2026-04-12T15:19:47.741Z</time></trkpt><trkpt lat="42.85250526045168" lon="12.064855007675995"><ele>447.75</ele><time>2026-04-12T15:19:48.741Z</time></trkpt><trkpt lat="42.8526194331914" lon="12.064722665229077"><ele>447.0</ele><time>2026-04-12T15:19:49.741Z</time></trkpt><trkpt lat="42.85275769301525" lon="12.064617792359376"><ele>445.33333333333337</ele><time>2026-04-12T15:19:50.741Z</time></trkpt><trkpt lat="42.852916079362274" lon="12.064541018481865"><ele>443.6666666666667</ele><time>2026-04-12T15:19:51.741Z</time></trkpt><trkpt lat="42.853079899803156" lon="12.064494138659029"><ele>442.0</ele><time>2026-04-12T15:19:52.741Z</time></trkpt><trkpt lat="42.85324532248985" lon="12.06447512226714"><ele>442.0</ele><time>2026-04-12T15:19:53.741Z</time></trkpt><trkpt lat="42.85341058860548" lon="12.064467060798853"><ele>442.0</ele><time>2026-04-12T15:19:54.741Z</time></trkpt><trkpt lat="42.853573669488505" lon="12.064460856155915"><ele>442.0</ele><time>2026-04-12T15:19:55.741Z</time></trkpt><trkpt lat="42.85373713888537" lon="12.064445087713528"><ele>439.6666666666667</ele><time>2026-04-12T15:19:56.741Z</time></trkpt><trkpt lat="42.853893455586196" lon="12.064404404526636"><ele>437.33333333333337</ele><time>2026-04-12T15:19:57.741Z</time></trkpt><trkpt lat="42.854042199473895" lon="12.064331971156758"><ele>435.0</ele><time>2026-04-12T15:19:58.741Z</time></trkpt><trkpt lat="42.85417973942605" lon="12.064222513176205"><ele>435.0</ele><time>2026-04-12T15:19:59.741Z</time></trkpt><trkpt lat="42.85429822482191" lon="12.064078358130987"><ele>435.0</ele><time>2026-04-12T15:20:00.74Z</time></trkpt><trkpt lat="42.85440244042184" lon="12.06392083503642"><ele>435.0</ele><time>2026-04-12T15:20:01.74Z</time></trkpt><trkpt lat="42.85449254488763" lon="12.063754739139496"><ele>435.0</ele><time>2026-04-12T15:20:02.74Z</time></trkpt><trkpt lat="42.85456763386336" lon="12.06358124855449"><ele>435.0</ele><time>2026-04-12T15:20:03.74Z</time></trkpt><trkpt lat="42.85462065120088" lon="12.063408029093615"><ele>435.0</ele><time>2026-04-12T15:20:04.74Z</time></trkpt><trkpt lat="42.854651613670946" lon="12.063240714045575"><ele>435.0</ele><time>2026-04-12T15:20:05.74Z</time></trkpt><trkpt lat="42.85465153625342" lon="12.06307725581607"><ele>434.0</ele><time>2026-04-12T15:20:06.74Z</time></trkpt><trkpt lat="42.85460737639204" lon="12.062933127144824"><ele>433.0</ele><time>2026-04-12T15:20:07.74Z</time></trkpt><trkpt lat="42.85452759095612" lon="12.06281952679787"><ele>432.0</ele><time>2026-04-12T15:20:08.74Z</time></trkpt><trkpt lat="42.8544178667603" lon="12.06273068298889"><ele>431.0</ele><time>2026-04-12T15:20:09.74Z</time></trkpt><trkpt lat="42.854286689790015" lon="12.062646508431628"><ele>431.0</ele><time>2026-04-12T15:20:10.74Z</time></trkpt><trkpt lat="42.85414217459877" lon="12.06254338256533"><ele>431.0</ele><time>2026-04-12T15:20:11.74Z</time></trkpt><trkpt lat="42.85399624364771" lon="12.062425656326528"><ele>431.0</ele><time>2026-04-12T15:20:12.74Z</time></trkpt><trkpt lat="42.85385323593614" lon="12.062304831453412"><ele>434.3333333333333</ele><time>2026-04-12T15:20:13.74Z</time></trkpt><trkpt lat="42.85371649764285" lon="12.06217780225551"><ele>437.66666666666663</ele><time>2026-04-12T15:20:14.74Z</time></trkpt><trkpt lat="42.85359391076615" lon="12.06202778234424"><ele>441.0</ele><time>2026-04-12T15:20:15.74Z</time></trkpt><trkpt lat="42.85347611086619" lon="12.061870698873282"><ele>433.66666666666663</ele><time>2026-04-12T15:20:16.74Z</time></trkpt><trkpt lat="42.853363760205276" lon="12.061686379937965"><ele>426.3333333333333</ele><time>2026-04-12T15:20:17.74Z</time></trkpt><trkpt lat="42.85326718016864" lon="12.06149375107776"><ele>419.0</ele><time>2026-04-12T15:20:18.74Z</time></trkpt><trkpt lat="42.85318207085662" lon="12.061299114552941"><ele>418.25</ele><time>2026-04-12T15:20:19.74Z</time></trkpt><trkpt lat="42.853118796856855" lon="12.061112502229001"><ele>417.5</ele><time>2026-04-12T15:20:20.739Z</time></trkpt><trkpt lat="42.85308014145452" lon="12.060952782643376"><ele>416.75</ele><time>2026-04-12T15:20:21.739Z</time></trkpt><trkpt lat="42.8530700692634" lon="12.060780856669753"><ele>416.0</ele><time>2026-04-12T15:20:22.739Z</time></trkpt><trkpt lat="42.85309728013834" lon="12.06061863013808"><ele>415.5</ele><time>2026-04-12T15:20:23.739Z</time></trkpt><trkpt lat="42.853166089993806" lon="12.060481956895808"><ele>415.0</ele><time>2026-04-12T15:20:24.739Z</time></trkpt><trkpt lat="42.853258066050564" lon="12.060372748819072"><ele>414.5</ele><time>2026-04-12T15:20:25.739Z</time></trkpt><trkpt lat="42.85336851338488" lon="12.06027752493985"><ele>414.0</ele><time>2026-04-12T15:20:26.739Z</time></trkpt><trkpt lat="42.853484503300436" lon="12.060191225018405"><ele>414.0</ele><time>2026-04-12T15:20:27.739Z</time></trkpt><trkpt lat="42.853610447656045" lon="12.0601352724194"><ele>414.0</ele><time>2026-04-12T15:20:28.739Z</time></trkpt><trkpt lat="42.85373958221627" lon="12.060101621996374"><ele>414.0</ele><time>2026-04-12T15:20:29.739Z</time></trkpt><trkpt lat="42.85384783335411" lon="12.060061971467919"><ele>414.0</ele><time>2026-04-12T15:20:30.739Z</time></trkpt><trkpt lat="42.85395283831932" lon="12.05998972630999"><ele>411.25</ele><time>2026-04-12T15:20:31.739Z</time></trkpt><trkpt lat="42.85402220179048" lon="12.05984882641534"><ele>408.5</ele><time>2026-04-12T15:20:32.739Z</time></trkpt><trkpt lat="42.85405098256158" lon="12.05967381083788"><ele>405.75</ele><time>2026-04-12T15:20:33.739Z</time></trkpt><trkpt lat="42.85404834728732" lon="12.059487985115238"><ele>403.0</ele><time>2026-04-12T15:20:34.739Z</time></trkpt><trkpt lat="42.85400377384351" lon="12.05930324439191"><ele>399.6666666666667</ele><time>2026-04-12T15:20:35.739Z</time></trkpt><trkpt lat="42.8539833613932" lon="12.059105722349571"><ele>396.33333333333337</ele><time>2026-04-12T15:20:36.739Z</time></trkpt><trkpt lat="42.853946619565235" lon="12.05889953987901"><ele>393.0</ele><time>2026-04-12T15:20:37.739Z</time></trkpt><trkpt lat="42.85391952216686" lon="12.058690553761291"><ele>393.0</ele><time>2026-04-12T15:20:38.739Z</time></trkpt><trkpt lat="42.853903291699226" lon="12.058482187419479"><ele>393.0</ele><time>2026-04-12T15:20:39.738Z</time></trkpt><trkpt lat="42.853901053353425" lon="12.05828560960049"><ele>393.0</ele><time>2026-04-12T15:20:40.738Z</time></trkpt><trkpt lat="42.85392135406948" lon="12.058117069329205"><ele>393.0</ele><time>2026-04-12T15:20:41.738Z</time></trkpt><trkpt lat="42.853970171887006" lon="12.057942941189944"><ele>389.75</ele><time>2026-04-12T15:20:42.738Z</time></trkpt><trkpt lat="42.854071822439785" lon="12.057813204561988"><ele>386.5</ele><time>2026-04-12T15:20:43.738Z</time></trkpt><trkpt lat="42.854185084677205" lon="12.05773947690708"><ele>383.25</ele><time>2026-04-12T15:20:44.738Z</time></trkpt><trkpt lat="42.854309693264604" lon="12.057712565712293"><ele>380.0</ele><time>2026-04-12T15:20:45.738Z</time></trkpt><trkpt lat="42.854433426216865" lon="12.057736734136107"><ele>380.0</ele><time>2026-04-12T15:20:46.738Z</time></trkpt><trkpt lat="42.85458465068629" lon="12.05779522550176"><ele>380.0</ele><time>2026-04-12T15:20:47.738Z</time></trkpt><trkpt lat="42.8547317385478" lon="12.057849622844982"><ele>380.0</ele><time>2026-04-12T15:20:48.738Z</time></trkpt><trkpt lat="42.85489908706843" lon="12.057811741425787"><ele>380.0</ele><time>2026-04-12T15:20:49.738Z</time></trkpt><trkpt lat="42.85506572312302" lon="12.05777196749551"><ele>380.0</ele><time>2026-04-12T15:20:50.739Z</time></trkpt><trkpt lat="42.855238187005305" lon="12.05775770045604"><ele>380.0</ele><time>2026-04-12T15:20:51.739Z</time></trkpt><trkpt lat="42.85539668939442" lon="12.05769787544367"><ele>379.5</ele><time>2026-04-12T15:20:52.739Z</time></trkpt><trkpt lat="42.85555720752746" lon="12.057677180750074"><ele>379.0</ele><time>2026-04-12T15:20:53.739Z</time></trkpt><trkpt lat="42.855695192593245" lon="12.057623237846633"><ele>378.5</ele><time>2026-04-12T15:20:54.738Z</time></trkpt><trkpt lat="42.85581590769633" lon="12.057558988958293"><ele>378.0</ele><time>2026-04-12T15:20:55.738Z</time></trkpt><trkpt lat="42.85592128735751" lon="12.057469328697756"><ele>373.25</ele><time>2026-04-12T15:20:56.739Z</time></trkpt><trkpt lat="42.85600402493252" lon="12.057346150487298"><ele>368.5</ele><time>2026-04-12T15:20:57.739Z</time></trkpt><trkpt lat="42.85603751577809" lon="12.05717674055075"><ele>363.75</ele><time>2026-04-12T15:20:58.739Z</time></trkpt><trkpt lat="42.8560164847451" lon="12.057004875173769"><ele>359.0</ele><time>2026-04-12T15:20:59.739Z</time></trkpt><trkpt lat="42.85597020349995" lon="12.05683945235518"><ele>360.75</ele><time>2026-04-12T15:21:00.738Z</time></trkpt><trkpt lat="42.85588028172542" lon="12.056697377158955"><ele>362.5</ele><time>2026-04-12T15:21:01.738Z</time></trkpt><trkpt lat="42.85575825542546" lon="12.056590870808936"><ele>364.25</ele><time>2026-04-12T15:21:02.739Z</time></trkpt><trkpt lat="42.855610335962666" lon="12.056521031547476"><ele>366.0</ele><time>2026-04-12T15:21:03.738Z</time></trkpt><trkpt lat="42.85544899745751" lon="12.056468144457423"><ele>366.0</ele><time>2026-04-12T15:21:04.738Z</time></trkpt><trkpt lat="42.8552957437805" lon="12.05635470398736"><ele>366.0</ele><time>2026-04-12T15:21:05.738Z</time></trkpt><trkpt lat="42.855142574734856" lon="12.056250994396617"><ele>366.0</ele><time>2026-04-12T15:21:06.738Z</time></trkpt><trkpt lat="42.85499036000879" lon="12.05616941526643"><ele>367.0</ele><time>2026-04-12T15:21:07.738Z</time></trkpt><trkpt lat="42.85485912828537" lon="12.056045121390419"><ele>368.0</ele><time>2026-04-12T15:21:08.738Z</time></trkpt><trkpt lat="42.854736297579365" lon="12.055894682192644"><ele>369.0</ele><time>2026-04-12T15:21:09.738Z</time></trkpt><trkpt lat="42.854644557033566" lon="12.055720560639104"><ele>369.25</ele><time>2026-04-12T15:21:10.738Z</time></trkpt><trkpt lat="42.854550372929396" lon="12.055561978440156"><ele>369.5</ele><time>2026-04-12T15:21:11.738Z</time></trkpt><trkpt lat="42.8544736186918" lon="12.055419326606865"><ele>369.75</ele><time>2026-04-12T15:21:12.738Z</time></trkpt><trkpt lat="42.85444129598532" lon="12.055249838251493"><ele>370.0</ele><time>2026-04-12T15:21:13.738Z</time></trkpt><trkpt lat="42.85445109170375" lon="12.055076162127051"><ele>369.0</ele><time>2026-04-12T15:21:14.737Z</time></trkpt><trkpt lat="42.85450113520464" lon="12.054909783563728"><ele>368.0</ele><time>2026-04-12T15:21:15.737Z</time></trkpt><trkpt lat="42.85456370023486" lon="12.054744118424187"><ele>367.0</ele><time>2026-04-12T15:21:16.737Z</time></trkpt><trkpt lat="42.85461537146241" lon="12.054582562393293"><ele>366.0</ele><time>2026-04-12T15:21:17.737Z</time></trkpt><trkpt lat="42.854631886220766" lon="12.054393727074814"><ele>366.0</ele><time>2026-04-12T15:21:18.737Z</time></trkpt><trkpt lat="42.85460394691339" lon="12.054196047811091"><ele>366.0</ele><time>2026-04-12T15:21:19.737Z</time></trkpt><trkpt lat="42.85455030216664" lon="12.054001617830915"><ele>366.0</ele><time>2026-04-12T15:21:20.737Z</time></trkpt><trkpt lat="42.85447201532702" lon="12.053815855055905"><ele>365.0</ele><time>2026-04-12T15:21:21.737Z</time></trkpt><trkpt lat="42.85437260082696" lon="12.053671324995097"><ele>364.0</ele><time>2026-04-12T15:21:22.737Z</time></trkpt><trkpt lat="42.85426248402152" lon="12.053549735654665"><ele>363.0</ele><time>2026-04-12T15:21:23.737Z</time></trkpt><trkpt lat="42.854169828483656" lon="12.05343225030178"><ele>362.0</ele><time>2026-04-12T15:21:24.737Z</time></trkpt><trkpt lat="42.854111529363145" lon="12.053316995287755"><ele>360.20000000000005</ele><time>2026-04-12T15:21:25.737Z</time></trkpt><trkpt lat="42.854102639061516" lon="12.053188948900825"><ele>358.4</ele><time>2026-04-12T15:21:26.737Z</time></trkpt><trkpt lat="42.85414177544415" lon="12.053070259507411"><ele>356.6</ele><time>2026-04-12T15:21:27.737Z</time></trkpt><trkpt lat="42.85422464028542" lon="12.052983276216661"><ele>354.79999999999995</ele><time>2026-04-12T15:21:28.737Z</time></trkpt><trkpt lat="42.85433385246873" lon="12.052936698010255"><ele>353.0</ele><time>2026-04-12T15:21:29.737Z</time></trkpt><trkpt lat="42.85446397161366" lon="12.052909840086782"><ele>352.33333333333337</ele><time>2026-04-12T15:21:30.737Z</time></trkpt><trkpt lat="42.854622192210165" lon="12.052874146931813"><ele>351.6666666666667</ele><time>2026-04-12T15:21:31.737Z</time></trkpt><trkpt lat="42.854790120479485" lon="12.05280860213051"><ele>351.0</ele><time>2026-04-12T15:21:32.737Z</time></trkpt><trkpt lat="42.85494152298825" lon="12.052719604778773"><ele>351.0</ele><time>2026-04-12T15:21:33.736Z</time></trkpt><trkpt lat="42.85508145503229" lon="12.052629490655326"><ele>351.0</ele><time>2026-04-12T15:21:34.736Z</time></trkpt><trkpt lat="42.85520845576695" lon="12.052516061284415"><ele>351.0</ele><time>2026-04-12T15:21:35.736Z</time></trkpt><trkpt lat="42.855331059151766" lon="12.052447629184668"><ele>351.0</ele><time>2026-04-12T15:21:36.736Z</time></trkpt><trkpt lat="42.85544151399519" lon="12.052424856185487"><ele>349.6</ele><time>2026-04-12T15:21:37.736Z</time></trkpt><trkpt lat="42.85553315374922" lon="12.052476565358642"><ele>348.20000000000005</ele><time>2026-04-12T15:21:38.736Z</time></trkpt><trkpt lat="42.855577513744436" lon="12.052591324493582"><ele>346.79999999999995</ele><time>2026-04-12T15:21:39.736Z</time></trkpt><trkpt lat="42.85557555800265" lon="12.052729160983896"><ele>345.4</ele><time>2026-04-12T15:21:40.736Z</time></trkpt><trkpt lat="42.8555615285379" lon="12.052874595902365"><ele>344.0</ele><time>2026-04-12T15:21:41.736Z</time></trkpt><trkpt lat="42.855543953231" lon="12.053020898449972"><ele>344.0</ele><time>2026-04-12T15:21:42.736Z</time></trkpt><trkpt lat="42.8555247983291" lon="12.053168236805046"><ele>344.0</ele><time>2026-04-12T15:21:43.736Z</time></trkpt><trkpt lat="42.85554710907108" lon="12.053319166296344"><ele>344.0</ele><time>2026-04-12T15:21:44.736Z</time></trkpt><trkpt lat="42.85562567137466" lon="12.053454955715104"><ele>344.0</ele><time>2026-04-12T15:21:45.736Z</time></trkpt><trkpt lat="42.855747864847" lon="12.053524275565406"><ele>344.0</ele><time>2026-04-12T15:21:46.736Z</time></trkpt><trkpt lat="42.855869678330116" lon="12.05350507080639"><ele>344.0</ele><time>2026-04-12T15:21:47.736Z</time></trkpt><trkpt lat="42.85599334775827" lon="12.053443620648236"><ele>344.0</ele><time>2026-04-12T15:21:48.736Z</time></trkpt><trkpt lat="42.85611948733344" lon="12.053364289840795"><ele>344.0</ele><time>2026-04-12T15:21:49.736Z</time></trkpt><trkpt lat="42.85625247581693" lon="12.053285145092035"><ele>336.6666666666667</ele><time>2026-04-12T15:21:50.736Z</time></trkpt><trkpt lat="42.85640009661631" lon="12.053214921031014"><ele>329.3333333333333</ele><time>2026-04-12T15:21:51.736Z</time></trkpt><trkpt lat="42.85655596604539" lon="12.053177009670437"><ele>322.0</ele><time>2026-04-12T15:21:52.735Z</time></trkpt><trkpt lat="42.85672095841727" lon="12.053150232041668"><ele>321.3333333333333</ele><time>2026-04-12T15:21:53.735Z</time></trkpt><trkpt lat="42.856895601320545" lon="12.053158941697886"><ele>320.6666666666667</ele><time>2026-04-12T15:21:54.735Z</time></trkpt><trkpt lat="42.85706576814554" lon="12.053143473502884"><ele>320.0</ele><time>2026-04-12T15:21:55.735Z</time></trkpt><trkpt lat="42.85722432689207" lon="12.053084883082356"><ele>320.0</ele><time>2026-04-12T15:21:56.735Z</time></trkpt><trkpt lat="42.85737747700273" lon="12.052982213962704"><ele>320.0</ele><time>2026-04-12T15:21:57.735Z</time></trkpt><trkpt lat="42.85753142428052" lon="12.05284753861159"><ele>320.0</ele><time>2026-04-12T15:21:58.735Z</time></trkpt><trkpt lat="42.857689305811746" lon="12.05264898187292"><ele>320.6666666666667</ele><time>2026-04-12T15:21:59.735Z</time></trkpt><trkpt lat="42.85784427554804" lon="12.05247461857648"><ele>321.3333333333333</ele><time>2026-04-12T15:22:00.735Z</time></trkpt><trkpt lat="42.857994819026885" lon="12.052348063580087"><ele>322.0</ele><time>2026-04-12T15:22:01.735Z</time></trkpt><trkpt lat="42.85814949853014" lon="12.05223058935589"><ele>319.0</ele><time>2026-04-12T15:22:02.735Z</time></trkpt><trkpt lat="42.85831685150383" lon="12.052162996136525"><ele>316.0</ele><time>2026-04-12T15:22:03.735Z</time></trkpt><trkpt lat="42.858492421422326" lon="12.052117444439014"><ele>313.0</ele><time>2026-04-12T15:22:04.735Z</time></trkpt><trkpt lat="42.85866907651183" lon="12.05209649165429"><ele>313.0</ele><time>2026-04-12T15:22:05.735Z</time></trkpt><trkpt lat="42.85884305664598" lon="12.052060678248523"><ele>313.0</ele><time>2026-04-12T15:22:06.735Z</time></trkpt><trkpt lat="42.859015316225786" lon="12.05199700503164"><ele>313.0</ele><time>2026-04-12T15:22:07.735Z</time></trkpt><trkpt lat="42.85918640404683" lon="12.051914760922356"><ele>311.5</ele><time>2026-04-12T15:22:08.735Z</time></trkpt><trkpt lat="42.85934872967713" lon="12.051839912061451"><ele>310.0</ele><time>2026-04-12T15:22:09.735Z</time></trkpt><trkpt lat="42.859481859234016" lon="12.05177734080406"><ele>308.5</ele><time>2026-04-12T15:22:10.735Z</time></trkpt><trkpt lat="42.859585496822184" lon="12.051711729051322"><ele>307.0</ele><time>2026-04-12T15:22:11.735Z</time></trkpt><trkpt lat="42.859656616377556" lon="12.05162746599787"><ele>306.0</ele><time>2026-04-12T15:22:12.734Z</time></trkpt><trkpt lat="42.85968182361719" lon="12.051523347595973"><ele>305.0</ele><time>2026-04-12T15:22:13.734Z</time></trkpt><trkpt lat="42.85965758086624" lon="12.051418957522424"><ele>304.0</ele><time>2026-04-12T15:22:14.734Z</time></trkpt><trkpt lat="42.85959980476966" lon="12.051362296469375"><ele>303.0</ele><time>2026-04-12T15:22:15.734Z</time></trkpt><trkpt lat="42.8595230412418" lon="12.05135232830735"><ele>302.0</ele><time>2026-04-12T15:22:16.734Z</time></trkpt><trkpt lat="42.85941610985088" lon="12.051360801667176"><ele>301.0</ele><time>2026-04-12T15:22:17.734Z</time></trkpt><trkpt lat="42.85929765171576" lon="12.051356566953249"><ele>300.3333333333333</ele><time>2026-04-12T15:22:18.734Z</time></trkpt><trkpt lat="42.85916185753491" lon="12.051331373757991"><ele>299.6666666666667</ele><time>2026-04-12T15:22:19.734Z</time></trkpt><trkpt lat="42.85900752790538" lon="12.0512512682102"><ele>299.0</ele><time>2026-04-12T15:22:20.734Z</time></trkpt><trkpt lat="42.85884958066531" lon="12.051169235376062"><ele>299.0</ele><time>2026-04-12T15:22:21.734Z</time></trkpt><trkpt lat="42.85869076928854" lon="12.051089271482828"><ele>299.0</ele><time>2026-04-12T15:22:22.734Z</time></trkpt><trkpt lat="42.858549432013454" lon="12.050995365422317"><ele>299.0</ele><time>2026-04-12T15:22:23.734Z</time></trkpt><trkpt lat="42.858420260052426" lon="12.050930163013732"><ele>298.75</ele><time>2026-04-12T15:22:24.734Z</time></trkpt><trkpt lat="42.85829904854426" lon="12.050911679004926"><ele>298.5</ele><time>2026-04-12T15:22:25.734Z</time></trkpt><trkpt lat="42.85818220338354" lon="12.050954734481385"><ele>298.25</ele><time>2026-04-12T15:22:26.734Z</time></trkpt><trkpt lat="42.85808286597318" lon="12.051045300843933"><ele>298.0</ele><time>2026-04-12T15:22:27.734Z</time></trkpt><trkpt lat="42.858003984975376" lon="12.051183376342454"><ele>298.0</ele><time>2026-04-12T15:22:28.734Z</time></trkpt><trkpt lat="42.857929702965656" lon="12.051327890241764"><ele>298.0</ele><time>2026-04-12T15:22:29.734Z</time></trkpt><trkpt lat="42.857836520615564" lon="12.051439566336992"><ele>298.0</ele><time>2026-04-12T15:22:30.734Z</time></trkpt><trkpt lat="42.857738755958934" lon="12.051496735777095"><ele>298.0</ele><time>2026-04-12T15:22:31.733Z</time></trkpt><trkpt lat="42.857655500275534" lon="12.051501743840683"><ele>298.0</ele><time>2026-04-12T15:22:32.733Z</time></trkpt><trkpt lat="42.8575987681514" lon="12.051450146941727"><ele>298.0</ele><time>2026-04-12T15:22:33.733Z</time></trkpt><trkpt lat="42.85757830665859" lon="12.05135087205467"><ele>298.0</ele><time>2026-04-12T15:22:34.733Z</time></trkpt><trkpt lat="42.8576139576434" lon="12.051243670482826"><ele>298.0</ele><time>2026-04-12T15:22:35.733Z</time></trkpt><trkpt lat="42.85770005488544" lon="12.05116158181234"><ele>298.0</ele><time>2026-04-12T15:22:36.733Z</time></trkpt><trkpt lat="42.85778815530823" lon="12.051054428736911"><ele>298.0</ele><time>2026-04-12T15:22:37.733Z</time></trkpt><trkpt lat="42.85787074130602" lon="12.050945919248486"><ele>298.0</ele><time>2026-04-12T15:22:38.733Z</time></trkpt><trkpt lat="42.85795143268937" lon="12.050843728144214"><ele>298.0</ele><time>2026-04-12T15:22:39.733Z</time></trkpt><trkpt lat="42.85803434524573" lon="12.050742489067812"><ele>298.0</ele><time>2026-04-12T15:22:40.733Z</time></trkpt><trkpt lat="42.85812273272989" lon="12.050646649909904"><ele>298.0</ele><time>2026-04-12T15:22:41.733Z</time></trkpt><trkpt lat="42.85821946109126" lon="12.050563961253733"><ele>298.0</ele><time>2026-04-12T15:22:42.733Z</time></trkpt><trkpt lat="42.85833228625692" lon="12.050504952573554"><ele>294.0</ele><time>2026-04-12T15:22:43.733Z</time></trkpt><trkpt lat="42.858462478974886" lon="12.05046598504834"><ele>290.0</ele><time>2026-04-12T15:22:44.733Z</time></trkpt><trkpt lat="42.858599202088406" lon="12.050435496731685"><ele>286.0</ele><time>2026-04-12T15:22:45.733Z</time></trkpt><trkpt lat="42.85872746557568" lon="12.05040112077688"><ele>282.0</ele><time>2026-04-12T15:22:46.733Z</time></trkpt><trkpt lat="42.85886594398064" lon="12.050345892517939"><ele>282.0</ele><time>2026-04-12T15:22:47.733Z</time></trkpt><trkpt lat="42.859001503134344" lon="12.05028833503707"><ele>282.0</ele><time>2026-04-12T15:22:48.733Z</time></trkpt><trkpt lat="42.859137680451525" lon="12.050248345116497"><ele>282.0</ele><time>2026-04-12T15:22:49.733Z</time></trkpt><trkpt lat="42.8592748631268" lon="12.050231589217555"><ele>282.0</ele><time>2026-04-12T15:22:50.732Z</time></trkpt><trkpt lat="42.85941459329805" lon="12.050216741208775"><ele>281.5</ele><time>2026-04-12T15:22:51.732Z</time></trkpt><trkpt lat="42.85954567771951" lon="12.050201319845167"><ele>281.0</ele><time>2026-04-12T15:22:52.732Z</time></trkpt><trkpt lat="42.85966877507681" lon="12.0501889450349"><ele>280.5</ele><time>2026-04-12T15:22:53.732Z</time></trkpt><trkpt lat="42.85978965370188" lon="12.050195962201665"><ele>280.0</ele><time>2026-04-12T15:22:54.732Z</time></trkpt><trkpt lat="42.85991541041188" lon="12.050157300866504"><ele>280.0</ele><time>2026-04-12T15:22:55.732Z</time></trkpt><trkpt lat="42.86003260228509" lon="12.050093040500292"><ele>280.0</ele><time>2026-04-12T15:22:56.734Z</time></trkpt><trkpt lat="42.86013479726334" lon="12.049998323807348"><ele>280.0</ele><time>2026-04-12T15:22:57.734Z</time></trkpt><trkpt lat="42.86024666299905" lon="12.049942131500192"><ele>280.0</ele><time>2026-04-12T15:22:58.734Z</time></trkpt><trkpt lat="42.86035086530661" lon="12.049865683423615"><ele>275.8</ele><time>2026-04-12T15:22:59.734Z</time></trkpt><trkpt lat="42.860459563151274" lon="12.049797940448713"><ele>271.6</ele><time>2026-04-12T15:23:00.734Z</time></trkpt><trkpt lat="42.86056190047648" lon="12.049755786383017"><ele>267.4</ele><time>2026-04-12T15:23:01.733Z</time></trkpt><trkpt lat="42.8606667087771" lon="12.04975440962393"><ele>263.2</ele><time>2026-04-12T15:23:02.734Z</time></trkpt><trkpt lat="42.86077243938361" lon="12.049786971422387"><ele>259.0</ele><time>2026-04-12T15:23:03.734Z</time></trkpt><trkpt lat="42.86088140207651" lon="12.049855822073477"><ele>260.0</ele><time>2026-04-12T15:23:04.734Z</time></trkpt><trkpt lat="42.86101413857891" lon="12.049937269014238"><ele>261.0</ele><time>2026-04-12T15:23:05.733Z</time></trkpt><trkpt lat="42.861190755101596" lon="12.050016059545998"><ele>262.0</ele><time>2026-04-12T15:23:06.734Z</time></trkpt><trkpt lat="42.86137810926512" lon="12.050058775734396"><ele>262.0</ele><time>2026-04-12T15:23:07.734Z</time></trkpt><trkpt lat="42.86156946044141" lon="12.050125876504085"><ele>262.0</ele><time>2026-04-12T15:23:08.733Z</time></trkpt><trkpt lat="42.86176856098932" lon="12.050217629294337"><ele>262.0</ele><time>2026-04-12T15:23:09.733Z</time></trkpt><trkpt lat="42.86196082858922" lon="12.050307202274029"><ele>258.3333333333333</ele><time>2026-04-12T15:23:10.733Z</time></trkpt><trkpt lat="42.862151741677785" lon="12.050387029394573"><ele>254.66666666666669</ele><time>2026-04-12T15:23:11.733Z</time></trkpt><trkpt lat="42.862330258525965" lon="12.050457035912114"><ele>251.0</ele><time>2026-04-12T15:23:12.733Z</time></trkpt><trkpt lat="42.86248521870743" lon="12.05051912195635"><ele>251.0</ele><time>2026-04-12T15:23:13.733Z</time></trkpt><trkpt lat="42.862604872954684" lon="12.050579221623698"><ele>251.0</ele><time>2026-04-12T15:23:14.733Z</time></trkpt><trkpt lat="42.86270397233233" lon="12.05064823713954"><ele>251.0</ele><time>2026-04-12T15:23:15.733Z</time></trkpt><trkpt lat="42.862757402996984" lon="12.050797196039635"><ele>251.0</ele><time>2026-04-12T15:23:16.733Z</time></trkpt><trkpt lat="42.862801395163096" lon="12.051004260817406"><ele>249.33333333333334</ele><time>2026-04-12T15:23:17.733Z</time></trkpt><trkpt lat="42.862818732522165" lon="12.051212370598051"><ele>247.66666666666669</ele><time>2026-04-12T15:23:18.733Z</time></trkpt><trkpt lat="42.86286475754357" lon="12.05141118386729"><ele>246.0</ele><time>2026-04-12T15:23:19.733Z</time></trkpt><trkpt lat="42.86295273119071" lon="12.051589677927684"><ele>247.0</ele><time>2026-04-12T15:23:20.733Z</time></trkpt><trkpt lat="42.86307060999555" lon="12.051686194756723"><ele>248.0</ele><time>2026-04-12T15:23:21.733Z</time></trkpt><trkpt lat="42.863178768458866" lon="12.051760949555248"><ele>249.0</ele><time>2026-04-12T15:23:22.733Z</time></trkpt><trkpt lat="42.8633104623885" lon="12.051755474105613"><ele>250.0</ele><time>2026-04-12T15:23:23.732Z</time></trkpt><trkpt lat="42.86346740003027" lon="12.051706701119894"><ele>248.66666666666666</ele><time>2026-04-12T15:23:24.732Z</time></trkpt><trkpt lat="42.86363045996912" lon="12.051619989398432"><ele>247.33333333333331</ele><time>2026-04-12T15:23:25.732Z</time></trkpt><trkpt lat="42.86378410169736" lon="12.051512386636045"><ele>246.0</ele><time>2026-04-12T15:23:26.732Z</time></trkpt><trkpt lat="42.86393738471466" lon="12.051359975784349"><ele>246.0</ele><time>2026-04-12T15:23:27.732Z</time></trkpt><trkpt lat="42.864090915554335" lon="12.051152805978727"><ele>246.0</ele><time>2026-04-12T15:23:28.732Z</time></trkpt><trkpt lat="42.864234133140684" lon="12.05095047880619"><ele>246.0</ele><time>2026-04-12T15:23:29.732Z</time></trkpt><trkpt lat="42.86436737711219" lon="12.050760133517795"><ele>244.33333333333331</ele><time>2026-04-12T15:23:30.732Z</time></trkpt><trkpt lat="42.86450080388839" lon="12.050569526983343"><ele>242.66666666666666</ele><time>2026-04-12T15:23:31.732Z</time></trkpt><trkpt lat="42.8646315588434" lon="12.050382737273683"><ele>241.0</ele><time>2026-04-12T15:23:32.732Z</time></trkpt><trkpt lat="42.864766931465404" lon="12.050189350221203"><ele>241.0</ele><time>2026-04-12T15:23:33.732Z</time></trkpt><trkpt lat="42.864881526575054" lon="12.049960662032218"><ele>241.0</ele><time>2026-04-12T15:23:34.732Z</time></trkpt><trkpt lat="42.865033376460865" lon="12.049779652999346"><ele>241.0</ele><time>2026-04-12T15:23:35.732Z</time></trkpt><trkpt lat="42.86518956203259" lon="12.049608896820255"><ele>239.66666666666666</ele><time>2026-04-12T15:23:36.732Z</time></trkpt><trkpt lat="42.86535014333575" lon="12.049443337994632"><ele>238.33333333333331</ele><time>2026-04-12T15:23:37.732Z</time></trkpt><trkpt lat="42.8655118335795" lon="12.04927612104594"><ele>237.0</ele><time>2026-04-12T15:23:38.732Z</time></trkpt><trkpt lat="42.86568549589722" lon="12.049137031155482"><ele>236.66666666666669</ele><time>2026-04-12T15:23:39.732Z</time></trkpt><trkpt lat="42.86585649731617" lon="12.048972128000534"><ele>236.33333333333334</ele><time>2026-04-12T15:23:40.732Z</time></trkpt><trkpt lat="42.866034177924845" lon="12.048814710440887"><ele>236.0</ele><time>2026-04-12T15:23:41.732Z</time></trkpt><trkpt lat="42.8662163591575" lon="12.048664744138257"><ele>235.66666666666669</ele><time>2026-04-12T15:23:42.732Z</time></trkpt><trkpt lat="42.86639785509939" lon="12.048521043070583"><ele>235.33333333333331</ele><time>2026-04-12T15:23:43.731Z</time></trkpt><trkpt lat="42.866567906246395" lon="12.048385153006379"><ele>235.0</ele><time>2026-04-12T15:23:44.731Z</time></trkpt><trkpt lat="42.86675424632821" lon="12.048232242975027"><ele>235.33333333333331</ele><time>2026-04-12T15:23:45.731Z</time></trkpt><trkpt lat="42.86692505648392" lon="12.048057562409829"><ele>235.66666666666669</ele><time>2026-04-12T15:23:46.731Z</time></trkpt><trkpt lat="42.867102234249884" lon="12.047901331431211"><ele>236.0</ele><time>2026-04-12T15:23:47.731Z</time></trkpt><trkpt lat="42.86727251263163" lon="12.047736748663523"><ele>236.0</ele><time>2026-04-12T15:23:48.731Z</time></trkpt><trkpt lat="42.86743766153409" lon="12.04757443094609"><ele>236.0</ele><time>2026-04-12T15:23:49.731Z</time></trkpt><trkpt lat="42.867604717788076" lon="12.047410359172822"><ele>236.0</ele><time>2026-04-12T15:23:50.731Z</time></trkpt><trkpt lat="42.86777398839478" lon="12.047246069632925"><ele>236.0</ele><time>2026-04-12T15:23:51.731Z</time></trkpt><trkpt lat="42.867941062872056" lon="12.04707416852722"><ele>236.0</ele><time>2026-04-12T15:23:52.731Z</time></trkpt><trkpt lat="42.868101120668264" lon="12.046901919435905"><ele>236.0</ele><time>2026-04-12T15:23:53.731Z</time></trkpt><trkpt lat="42.86825512823205" lon="12.046742081058746"><ele>235.66666666666669</ele><time>2026-04-12T15:23:54.731Z</time></trkpt><trkpt lat="42.868401537824454" lon="12.0465962703878"><ele>235.33333333333331</ele><time>2026-04-12T15:23:55.731Z</time></trkpt><trkpt lat="42.86853968680493" lon="12.046457854294232"><ele>235.0</ele><time>2026-04-12T15:23:56.731Z</time></trkpt><trkpt lat="42.868669378721656" lon="12.04631232342009"><ele>235.0</ele><time>2026-04-12T15:23:57.731Z</time></trkpt><trkpt lat="42.8687828010383" lon="12.046151605084695"><ele>235.0</ele><time>2026-04-12T15:23:58.731Z</time></trkpt><trkpt lat="42.86887991117667" lon="12.045969277204096"><ele>235.0</ele><time>2026-04-12T15:23:59.731Z</time></trkpt><trkpt lat="42.86895733438846" lon="12.04576756738762"><ele>235.0</ele><time>2026-04-12T15:24:00.731Z</time></trkpt><trkpt lat="42.869016827957545" lon="12.045545875499112"><ele>235.0</ele><time>2026-04-12T15:24:01.731Z</time></trkpt><trkpt lat="42.869067103302854" lon="12.04530823440031"><ele>235.0</ele><time>2026-04-12T15:24:02.73Z</time></trkpt><trkpt lat="42.86911610469935" lon="12.045069189470258"><ele>235.0</ele><time>2026-04-12T15:24:03.73Z</time></trkpt><trkpt lat="42.86917601501383" lon="12.044827558794118"><ele>235.0</ele><time>2026-04-12T15:24:04.73Z</time></trkpt><trkpt lat="42.86923367268297" lon="12.044597596099596"><ele>235.0</ele><time>2026-04-12T15:24:05.73Z</time></trkpt><trkpt lat="42.86928053062836" lon="12.044382806520659"><ele>235.0</ele><time>2026-04-12T15:24:06.73Z</time></trkpt><trkpt lat="42.869331123048354" lon="12.044176108291122"><ele>235.0</ele><time>2026-04-12T15:24:07.73Z</time></trkpt><trkpt lat="42.869383897802216" lon="12.04397714939525"><ele>235.0</ele><time>2026-04-12T15:24:08.73Z</time></trkpt><trkpt lat="42.86945075134025" lon="12.043775827249933"><ele>235.33333333333331</ele><time>2026-04-12T15:24:09.73Z</time></trkpt><trkpt lat="42.8695317243939" lon="12.043588394922738"><ele>235.66666666666669</ele><time>2026-04-12T15:24:10.73Z</time></trkpt><trkpt lat="42.86961583223335" lon="12.043411219999506"><ele>236.0</ele><time>2026-04-12T15:24:11.73Z</time></trkpt><trkpt lat="42.86970812912848" lon="12.043249355812947"><ele>237.0</ele><time>2026-04-12T15:24:12.73Z</time></trkpt><trkpt lat="42.86981311305051" lon="12.043100291726057"><ele>238.0</ele><time>2026-04-12T15:24:13.73Z</time></trkpt><trkpt lat="42.86992856616115" lon="12.042960669958784"><ele>239.0</ele><time>2026-04-12T15:24:14.73Z</time></trkpt><trkpt lat="42.870050683386005" lon="12.042828542998844"><ele>238.66666666666669</ele><time>2026-04-12T15:24:15.73Z</time></trkpt><trkpt lat="42.87018102579108" lon="12.042706217089593"><ele>238.33333333333331</ele><time>2026-04-12T15:24:16.73Z</time></trkpt><trkpt lat="42.87031756963879" lon="12.042584913013847"><ele>238.0</ele><time>2026-04-12T15:24:17.73Z</time></trkpt><trkpt lat="42.870456683337196" lon="12.04246366595843"><ele>237.66666666666666</ele><time>2026-04-12T15:24:18.73Z</time></trkpt><trkpt lat="42.87060024759383" lon="12.042352420222883"><ele>237.33333333333331</ele><time>2026-04-12T15:24:19.73Z</time></trkpt><trkpt lat="42.87074827353881" lon="12.04225888110292"><ele>237.0</ele><time>2026-04-12T15:24:20.73Z</time></trkpt><trkpt lat="42.870891471457035" lon="12.042184909541863"><ele>237.25</ele><time>2026-04-12T15:24:21.729Z</time></trkpt><trkpt lat="42.871035064142184" lon="12.04213420577953"><ele>237.5</ele><time>2026-04-12T15:24:22.729Z</time></trkpt><trkpt lat="42.8711798218542" lon="12.042100555387423"><ele>237.75</ele><time>2026-04-12T15:24:23.729Z</time></trkpt><trkpt lat="42.87132670145368" lon="12.042086494221167"><ele>238.0</ele><time>2026-04-12T15:24:24.729Z</time></trkpt><trkpt lat="42.871464040782094" lon="12.04208245572548"><ele>238.0</ele><time>2026-04-12T15:24:25.729Z</time></trkpt><trkpt lat="42.87159322082966" lon="12.042092781646296"><ele>238.0</ele><time>2026-04-12T15:24:26.729Z</time></trkpt><trkpt lat="42.87171925087056" lon="12.042104936961637"><ele>238.0</ele><time>2026-04-12T15:24:27.729Z</time></trkpt><trkpt lat="42.87184241495945" lon="12.042115180805526"><ele>238.0</ele><time>2026-04-12T15:24:28.729Z</time></trkpt><trkpt lat="42.871958802525995" lon="12.042122915324633"><ele>238.25</ele><time>2026-04-12T15:24:29.729Z</time></trkpt><trkpt lat="42.87207480195552" lon="12.042132252420565"><ele>238.5</ele><time>2026-04-12T15:24:30.729Z</time></trkpt><trkpt lat="42.87219306428" lon="12.04214166875332"><ele>238.75</ele><time>2026-04-12T15:24:31.729Z</time></trkpt><trkpt lat="42.87230624750856" lon="12.04215395150446"><ele>239.0</ele><time>2026-04-12T15:24:32.729Z</time></trkpt><trkpt lat="42.87242189722107" lon="12.042165267828466"><ele>239.0</ele><time>2026-04-12T15:24:33.729Z</time></trkpt><trkpt lat="42.872538626226" lon="12.042174831019862"><ele>239.0</ele><time>2026-04-12T15:24:34.729Z</time></trkpt><trkpt lat="42.872658578318756" lon="12.042186682127044"><ele>239.0</ele><time>2026-04-12T15:24:35.729Z</time></trkpt><trkpt lat="42.87277831124653" lon="12.042196065925259"><ele>239.0</ele><time>2026-04-12T15:24:36.729Z</time></trkpt><trkpt lat="42.87289465046258" lon="12.042202583275273"><ele>239.25</ele><time>2026-04-12T15:24:37.729Z</time></trkpt><trkpt lat="42.873012582320534" lon="12.042210075997637"><ele>239.5</ele><time>2026-04-12T15:24:38.729Z</time></trkpt><trkpt lat="42.87313104677289" lon="12.042219818910224"><ele>239.75</ele><time>2026-04-12T15:24:39.729Z</time></trkpt><trkpt lat="42.873247492527575" lon="12.042248109728224"><ele>240.0</ele><time>2026-04-12T15:24:40.729Z</time></trkpt><trkpt lat="42.873361301496" lon="12.04225863442142"><ele>240.0</ele><time>2026-04-12T15:24:41.728Z</time></trkpt><trkpt lat="42.873479124131315" lon="12.042269530284136"><ele>240.0</ele><time>2026-04-12T15:24:42.728Z</time></trkpt><trkpt lat="42.87359732776721" lon="12.042280461381337"><ele>240.0</ele><time>2026-04-12T15:24:43.728Z</time></trkpt><trkpt lat="42.87371428202743" lon="12.042291415737834"><ele>240.0</ele><time>2026-04-12T15:24:44.728Z</time></trkpt><trkpt lat="42.873829589138836" lon="12.042302255384461"><ele>240.0</ele><time>2026-04-12T15:24:45.728Z</time></trkpt><trkpt lat="42.87394288544233" lon="12.042292378195175"><ele>240.0</ele><time>2026-04-12T15:24:46.728Z</time></trkpt><trkpt lat="42.874062706359055" lon="12.042305500867837"><ele>240.0</ele><time>2026-04-12T15:24:47.728Z</time></trkpt><trkpt lat="42.87417880956798" lon="12.042336018054762"><ele>240.0</ele><time>2026-04-12T15:24:48.728Z</time></trkpt><trkpt lat="42.87429854420842" lon="12.042346191242222"><ele>240.0</ele><time>2026-04-12T15:24:49.728Z</time></trkpt><trkpt lat="42.87441805357956" lon="12.04234568022976"><ele>240.0</ele><time>2026-04-12T15:24:50.728Z</time></trkpt><trkpt lat="42.87453547481723" lon="12.042373900818824"><ele>240.0</ele><time>2026-04-12T15:24:51.728Z</time></trkpt><trkpt lat="42.874649438430986" lon="12.042412620130975"><ele>240.0</ele><time>2026-04-12T15:24:52.728Z</time></trkpt><trkpt lat="42.87476046057025" lon="12.04244658908582"><ele>240.5</ele><time>2026-04-12T15:24:53.728Z</time></trkpt><trkpt lat="42.87487212669177" lon="12.042490237553114"><ele>241.0</ele><time>2026-04-12T15:24:54.728Z</time></trkpt><trkpt lat="42.874986296582776" lon="12.042547290036804"><ele>241.5</ele><time>2026-04-12T15:24:55.728Z</time></trkpt><trkpt lat="42.8750968506155" lon="12.042612468790445"><ele>242.0</ele><time>2026-04-12T15:24:56.728Z</time></trkpt><trkpt lat="42.8752046212741" lon="12.042680869123185"><ele>242.25</ele><time>2026-04-12T15:24:57.728Z</time></trkpt><trkpt lat="42.875314091167716" lon="12.042751982239682"><ele>242.5</ele><time>2026-04-12T15:24:58.728Z</time></trkpt><trkpt lat="42.87542873734731" lon="12.042824610509749"><ele>242.75</ele><time>2026-04-12T15:24:59.728Z</time></trkpt><trkpt lat="42.87554041110604" lon="12.042898518525972"><ele>243.0</ele><time>2026-04-12T15:25:00.727Z</time></trkpt><trkpt lat="42.875646181140915" lon="12.042969443884719"><ele>243.0</ele><time>2026-04-12T15:25:01.727Z</time></trkpt><trkpt lat="42.875756211735876" lon="12.043040230825756"><ele>243.0</ele><time>2026-04-12T15:25:02.73Z</time></trkpt><trkpt lat="42.87586406541093" lon="12.043112858350446"><ele>243.0</ele><time>2026-04-12T15:25:03.73Z</time></trkpt><trkpt lat="42.875968644304464" lon="12.043181466429102"><ele>243.0</ele><time>2026-04-12T15:25:04.73Z</time></trkpt><trkpt lat="42.87607172503012" lon="12.043254692225867"><ele>242.8</ele><time>2026-04-12T15:25:05.73Z</time></trkpt><trkpt lat="42.876177369888744" lon="12.043317085488429"><ele>242.60000000000002</ele><time>2026-04-12T15:25:06.73Z</time></trkpt><trkpt lat="42.876271807239" lon="12.043381411452623"><ele>242.39999999999998</ele><time>2026-04-12T15:25:07.73Z</time></trkpt><trkpt lat="42.87635988724585" lon="12.043443700689975"><ele>242.2</ele><time>2026-04-12T15:25:08.73Z</time></trkpt><trkpt lat="42.876447151098" lon="12.043500088104764"><ele>242.0</ele><time>2026-04-12T15:25:09.729Z</time></trkpt><trkpt lat="42.8765230068702" lon="12.043573527920115"><ele>242.00000000000003</ele><time>2026-04-12T15:25:10.729Z</time></trkpt><trkpt lat="42.87658075457928" lon="12.043651325612062"><ele>242.0</ele><time>2026-04-12T15:25:11.73Z</time></trkpt><trkpt lat="42.87662913188618" lon="12.043739383195907"><ele>242.0</ele><time>2026-04-12T15:25:12.729Z</time></trkpt><trkpt lat="42.87669143919488" lon="12.043809206258121"><ele>242.0</ele><time>2026-04-12T15:25:13.729Z</time></trkpt><trkpt lat="42.87676042302985" lon="12.043833741136083"><ele>242.00000000000003</ele><time>2026-04-12T15:25:14.729Z</time></trkpt><trkpt lat="42.87682446458448" lon="12.043812680374728"><ele>242.0</ele><time>2026-04-12T15:25:15.729Z</time></trkpt><trkpt lat="42.876869078633824" lon="12.043676993085985"><ele>241.8</ele><time>2026-04-12T15:25:17.729Z</time></trkpt><trkpt lat="42.876855584778944" lon="12.043502075351446"><ele>241.6</ele><time>2026-04-12T15:25:19.729Z</time></trkpt><trkpt lat="42.87686706797336" lon="12.04340073483916"><ele>241.40000000000003</ele><time>2026-04-12T15:25:20.729Z</time></trkpt><trkpt lat="42.87689532089159" lon="12.043284060646455"><ele>241.20000000000002</ele><time>2026-04-12T15:25:21.729Z</time></trkpt><trkpt lat="42.87695560332599" lon="12.043157876568701"><ele>241.0</ele><time>2026-04-12T15:25:22.729Z</time></trkpt><trkpt lat="42.87700879923605" lon="12.043003707759881"><ele>240.5</ele><time>2026-04-12T15:25:23.729Z</time></trkpt><trkpt lat="42.87706428833937" lon="12.042833107805063"><ele>240.0</ele><time>2026-04-12T15:25:24.729Z</time></trkpt><trkpt lat="42.877122890868705" lon="12.042647540593979"><ele>239.5</ele><time>2026-04-12T15:25:25.729Z</time></trkpt><trkpt lat="42.8771589570324" lon="12.042436945835417"><ele>239.0</ele><time>2026-04-12T15:25:26.729Z</time></trkpt><trkpt lat="42.877193023322626" lon="12.042235397675254"><ele>239.0</ele><time>2026-04-12T15:25:27.729Z</time></trkpt><trkpt lat="42.8772209339258" lon="12.042042842016839"><ele>239.0</ele><time>2026-04-12T15:25:28.729Z</time></trkpt><trkpt lat="42.87723509372162" lon="12.041849642207943"><ele>239.0</ele><time>2026-04-12T15:25:29.729Z</time></trkpt><trkpt lat="42.87722875179386" lon="12.041653390935103"><ele>239.0</ele><time>2026-04-12T15:25:30.729Z</time></trkpt><trkpt lat="42.8772131228626" lon="12.041456254578792"><ele>238.5</ele><time>2026-04-12T15:25:31.729Z</time></trkpt><trkpt lat="42.877197454023005" lon="12.041257902781187"><ele>238.0</ele><time>2026-04-12T15:25:32.728Z</time></trkpt><trkpt lat="42.87718011681792" lon="12.041076695420537"><ele>237.5</ele><time>2026-04-12T15:25:33.728Z</time></trkpt><trkpt lat="42.877161993633024" lon="12.040903742631217"><ele>237.0</ele><time>2026-04-12T15:25:34.728Z</time></trkpt><trkpt lat="42.87714890259129" lon="12.04073008278485"><ele>236.75</ele><time>2026-04-12T15:25:35.728Z</time></trkpt><trkpt lat="42.877136716562205" lon="12.040547401788894"><ele>236.5</ele><time>2026-04-12T15:25:36.728Z</time></trkpt><trkpt lat="42.87712167107219" lon="12.040360644507478"><ele>236.25</ele><time>2026-04-12T15:25:37.728Z</time></trkpt><trkpt lat="42.87710365756891" lon="12.040172376414791"><ele>236.0</ele><time>2026-04-12T15:25:38.728Z</time></trkpt><trkpt lat="42.87708761423395" lon="12.03998369150793"><ele>235.75</ele><time>2026-04-12T15:25:39.728Z</time></trkpt><trkpt lat="42.877078058980324" lon="12.039799194387166"><ele>235.5</ele><time>2026-04-12T15:25:40.728Z</time></trkpt><trkpt lat="42.87706334631437" lon="12.039612575244906"><ele>235.25</ele><time>2026-04-12T15:25:41.728Z</time></trkpt><trkpt lat="42.8770461108479" lon="12.039425560488413"><ele>235.0</ele><time>2026-04-12T15:25:42.728Z</time></trkpt><trkpt lat="42.877026799025835" lon="12.039236430817146"><ele>235.25</ele><time>2026-04-12T15:25:43.728Z</time></trkpt><trkpt lat="42.877008318935175" lon="12.03904632722882"><ele>235.5</ele><time>2026-04-12T15:25:44.728Z</time></trkpt><trkpt lat="42.876991451956165" lon="12.038855248676583"><ele>235.75</ele><time>2026-04-12T15:25:45.728Z</time></trkpt><trkpt lat="42.876975765032334" lon="12.038664572940771"><ele>236.0</ele><time>2026-04-12T15:25:46.728Z</time></trkpt><trkpt lat="42.87695995127674" lon="12.038473618310093"><ele>236.0</ele><time>2026-04-12T15:25:47.728Z</time></trkpt><trkpt lat="42.87694193155492" lon="12.038286727419717"><ele>236.0</ele><time>2026-04-12T15:25:48.728Z</time></trkpt><trkpt lat="42.87692416730229" lon="12.038102551605508"><ele>236.0</ele><time>2026-04-12T15:25:49.728Z</time></trkpt><trkpt lat="42.87690903678605" lon="12.037919327696933"><ele>236.0</ele><time>2026-04-12T15:25:50.728Z</time></trkpt><trkpt lat="42.87689347467498" lon="12.037737729013578"><ele>236.0</ele><time>2026-04-12T15:25:51.728Z</time></trkpt><trkpt lat="42.87687729369676" lon="12.037552940938532"><ele>236.0</ele><time>2026-04-12T15:25:52.727Z</time></trkpt><trkpt lat="42.87685992292481" lon="12.037370318553364"><ele>236.0</ele><time>2026-04-12T15:25:53.727Z</time></trkpt><trkpt lat="42.876841886257495" lon="12.037185362068053"><ele>236.0</ele><time>2026-04-12T15:25:54.727Z</time></trkpt><trkpt lat="42.876824890147866" lon="12.036998078247693"><ele>236.0</ele><time>2026-04-12T15:25:55.727Z</time></trkpt><trkpt lat="42.8768121326141" lon="12.036807529031476"><ele>236.0</ele><time>2026-04-12T15:25:56.727Z</time></trkpt><trkpt lat="42.87679500477097" lon="12.03661087050162"><ele>236.0</ele><time>2026-04-12T15:25:57.727Z</time></trkpt><trkpt lat="42.876779608157555" lon="12.03640740567593"><ele>236.0</ele><time>2026-04-12T15:25:58.727Z</time></trkpt><trkpt lat="42.87676398904222" lon="12.036196940740748"><ele>236.0</ele><time>2026-04-12T15:25:59.727Z</time></trkpt><trkpt lat="42.87674434205247" lon="12.035981300399266"><ele>236.0</ele><time>2026-04-12T15:26:00.727Z</time></trkpt><trkpt lat="42.87672637445707" lon="12.03576461579228"><ele>236.0</ele><time>2026-04-12T15:26:01.727Z</time></trkpt><trkpt lat="42.876707585436655" lon="12.035544202567685"><ele>236.0</ele><time>2026-04-12T15:26:02.727Z</time></trkpt><trkpt lat="42.876688716191524" lon="12.03532352849601"><ele>236.0</ele><time>2026-04-12T15:26:03.727Z</time></trkpt><trkpt lat="42.876668668482644" lon="12.035103707204152"><ele>236.0</ele><time>2026-04-12T15:26:04.727Z</time></trkpt><trkpt lat="42.87664777448486" lon="12.034885612083558"><ele>236.0</ele><time>2026-04-12T15:26:05.727Z</time></trkpt><trkpt lat="42.87662919175957" lon="12.034673299048938"><ele>236.0</ele><time>2026-04-12T15:26:06.727Z</time></trkpt><trkpt lat="42.87661163533388" lon="12.034461662483423"><ele>236.0</ele><time>2026-04-12T15:26:07.727Z</time></trkpt><trkpt lat="42.87659347299409" lon="12.03424946625809"><ele>236.0</ele><time>2026-04-12T15:26:08.727Z</time></trkpt><trkpt lat="42.876578899473216" lon="12.034037369488072"><ele>236.0</ele><time>2026-04-12T15:26:09.727Z</time></trkpt><trkpt lat="42.8765635089523" lon="12.033833547170577"><ele>236.0</ele><time>2026-04-12T15:26:10.727Z</time></trkpt><trkpt lat="42.876547776531446" lon="12.033629813121195"><ele>236.0</ele><time>2026-04-12T15:26:11.726Z</time></trkpt><trkpt lat="42.876530223719804" lon="12.03342637724786"><ele>236.0</ele><time>2026-04-12T15:26:12.726Z</time></trkpt><trkpt lat="42.87651386603921" lon="12.033219529633284"><ele>236.0</ele><time>2026-04-12T15:26:13.726Z</time></trkpt><trkpt lat="42.876498132785194" lon="12.033007152785148"><ele>236.33333333333334</ele><time>2026-04-12T15:26:14.726Z</time></trkpt><trkpt lat="42.876477770318" lon="12.03279448355095"><ele>236.66666666666669</ele><time>2026-04-12T15:26:15.726Z</time></trkpt><trkpt lat="42.8764536347245" lon="12.032582576318127"><ele>237.0</ele><time>2026-04-12T15:26:16.726Z</time></trkpt><trkpt lat="42.87643380664299" lon="12.032365774798228"><ele>237.0</ele><time>2026-04-12T15:26:17.726Z</time></trkpt><trkpt lat="42.87641297607648" lon="12.032138098863538"><ele>237.0</ele><time>2026-04-12T15:26:18.726Z</time></trkpt><trkpt lat="42.87639319324338" lon="12.031901693905317"><ele>237.0</ele><time>2026-04-12T15:26:19.726Z</time></trkpt><trkpt lat="42.876371688859884" lon="12.031662285567235"><ele>237.0</ele><time>2026-04-12T15:26:20.726Z</time></trkpt><trkpt lat="42.876351507584005" lon="12.031421216871347"><ele>237.0</ele><time>2026-04-12T15:26:21.726Z</time></trkpt><trkpt lat="42.87632894834516" lon="12.031171859975226"><ele>237.0</ele><time>2026-04-12T15:26:22.726Z</time></trkpt><trkpt lat="42.876306406269734" lon="12.030913614149089"><ele>237.0</ele><time>2026-04-12T15:26:23.726Z</time></trkpt><trkpt lat="42.876283934051166" lon="12.030652238027487"><ele>237.0</ele><time>2026-04-12T15:26:24.726Z</time></trkpt><trkpt lat="42.876260638104" lon="12.030386090195591"><ele>237.0</ele><time>2026-04-12T15:26:25.726Z</time></trkpt><trkpt lat="42.876235380296606" lon="12.030112172914974"><ele>237.33333333333331</ele><time>2026-04-12T15:26:26.726Z</time></trkpt><trkpt lat="42.87620806776862" lon="12.029835893227625"><ele>237.66666666666666</ele><time>2026-04-12T15:26:27.726Z</time></trkpt><trkpt lat="42.87618478290616" lon="12.029557674249364"><ele>238.0</ele><time>2026-04-12T15:26:28.726Z</time></trkpt><trkpt lat="42.87616249969631" lon="12.029276851350037"><ele>238.0</ele><time>2026-04-12T15:26:29.726Z</time></trkpt><trkpt lat="42.87613920403761" lon="12.028993616038596"><ele>238.0</ele><time>2026-04-12T15:26:30.725Z</time></trkpt><trkpt lat="42.876116328964265" lon="12.02870906660074"><ele>238.0</ele><time>2026-04-12T15:26:31.725Z</time></trkpt><trkpt lat="42.87609003925778" lon="12.028415111324573"><ele>238.0</ele><time>2026-04-12T15:26:32.725Z</time></trkpt><trkpt lat="42.87606470574367" lon="12.028105285184635"><ele>238.0</ele><time>2026-04-12T15:26:33.725Z</time></trkpt><trkpt lat="42.87604456242701" lon="12.027770928762186"><ele>237.5</ele><time>2026-04-12T15:26:34.725Z</time></trkpt><trkpt lat="42.87600515745365" lon="12.027427056861686"><ele>237.0</ele><time>2026-04-12T15:26:35.725Z</time></trkpt><trkpt lat="42.87596742152151" lon="12.02708518361783"><ele>237.0</ele><time>2026-04-12T15:26:36.725Z</time></trkpt><trkpt lat="42.87595501616575" lon="12.02676043630669"><ele>237.0</ele><time>2026-04-12T15:26:37.725Z</time></trkpt><trkpt lat="42.87592822370165" lon="12.026440431509329"><ele>238.0</ele><time>2026-04-12T15:26:38.725Z</time></trkpt><trkpt lat="42.875901147436295" lon="12.026123511268072"><ele>239.0</ele><time>2026-04-12T15:26:39.725Z</time></trkpt><trkpt lat="42.87591561601482" lon="12.0263407714756"><ele>240.0</ele><time>2026-04-12T15:26:40.725Z</time></trkpt><trkpt lat="42.875896498911146" lon="12.026125811426665"><ele>240.0</ele><time>2026-04-12T15:26:41.725Z</time></trkpt><trkpt lat="42.87587759538233" lon="12.025920520064107"><ele>240.0</ele><time>2026-04-12T15:26:42.725Z</time></trkpt><trkpt lat="42.875859687509305" lon="12.02573090574276"><ele>240.0</ele><time>2026-04-12T15:26:43.725Z</time></trkpt><trkpt lat="42.87583784683618" lon="12.025550209890534"><ele>240.0</ele><time>2026-04-12T15:26:44.725Z</time></trkpt><trkpt lat="42.8758151756947" lon="12.02536334398003"><ele>240.0</ele><time>2026-04-12T15:26:45.725Z</time></trkpt><trkpt lat="42.87578729225799" lon="12.02516959476706"><ele>240.0</ele><time>2026-04-12T15:26:46.725Z</time></trkpt><trkpt lat="42.87573936563204" lon="12.024974647362841"><ele>240.0</ele><time>2026-04-12T15:26:47.725Z</time></trkpt><trkpt lat="42.875690647639686" lon="12.024770511694069"><ele>239.33333333333331</ele><time>2026-04-12T15:26:48.725Z</time></trkpt><trkpt lat="42.875637323474244" lon="12.024563432833377"><ele>238.66666666666666</ele><time>2026-04-12T15:26:49.724Z</time></trkpt><trkpt lat="42.87557557630198" lon="12.02435601388267"><ele>238.0</ele><time>2026-04-12T15:26:50.724Z</time></trkpt><trkpt lat="42.87551084535615" lon="12.024159320399875"><ele>238.25</ele><time>2026-04-12T15:26:51.724Z</time></trkpt><trkpt lat="42.875451319783785" lon="12.023971926497461"><ele>238.5</ele><time>2026-04-12T15:26:52.724Z</time></trkpt><trkpt lat="42.87539893237119" lon="12.023787048651007"><ele>238.75</ele><time>2026-04-12T15:26:53.724Z</time></trkpt><trkpt lat="42.87534912316902" lon="12.023603718932897"><ele>239.0</ele><time>2026-04-12T15:26:54.724Z</time></trkpt><trkpt lat="42.875297982048565" lon="12.023427577799172"><ele>239.25</ele><time>2026-04-12T15:26:55.724Z</time></trkpt><trkpt lat="42.875245017439354" lon="12.023253766790532"><ele>239.5</ele><time>2026-04-12T15:26:56.724Z</time></trkpt><trkpt lat="42.87519187288295" lon="12.023081755966595"><ele>239.75</ele><time>2026-04-12T15:26:57.724Z</time></trkpt><trkpt lat="42.87514327858081" lon="12.022911075452342"><ele>240.0</ele><time>2026-04-12T15:26:58.724Z</time></trkpt><trkpt lat="42.875093450728656" lon="12.0227504788753"><ele>240.25</ele><time>2026-04-12T15:26:59.724Z</time></trkpt><trkpt lat="42.87504401805399" lon="12.022594942924991"><ele>240.5</ele><time>2026-04-12T15:27:00.724Z</time></trkpt><trkpt lat="42.87499551977907" lon="12.022447697919882"><ele>240.75</ele><time>2026-04-12T15:27:01.724Z</time></trkpt><trkpt lat="42.87495039908864" lon="12.02229093757027"><ele>241.0</ele><time>2026-04-12T15:27:02.724Z</time></trkpt><trkpt lat="42.874899361858304" lon="12.022135788182121"><ele>241.0</ele><time>2026-04-12T15:27:03.724Z</time></trkpt><trkpt lat="42.874851549120194" lon="12.021973674775467"><ele>241.0</ele><time>2026-04-12T15:27:04.724Z</time></trkpt><trkpt lat="42.87480632867896" lon="12.021814259377797"><ele>241.0</ele><time>2026-04-12T15:27:05.724Z</time></trkpt><trkpt lat="42.874753812352346" lon="12.021658255946374"><ele>241.0</ele><time>2026-04-12T15:27:06.724Z</time></trkpt><trkpt lat="42.87472177436365" lon="12.021488321254479"><ele>240.5</ele><time>2026-04-12T15:27:07.724Z</time></trkpt><trkpt lat="42.87467419741641" lon="12.021324586256174"><ele>240.0</ele><time>2026-04-12T15:27:08.725Z</time></trkpt><trkpt lat="42.87462689176443" lon="12.021162809457433"><ele>239.5</ele><time>2026-04-12T15:27:09.725Z</time></trkpt><trkpt lat="42.87457789833755" lon="12.020995260621943"><ele>239.0</ele><time>2026-04-12T15:27:10.725Z</time></trkpt><trkpt lat="42.87452036014612" lon="12.020835664835305"><ele>238.75</ele><time>2026-04-12T15:27:11.725Z</time></trkpt><trkpt lat="42.87447229003933" lon="12.020667862642922"><ele>238.5</ele><time>2026-04-12T15:27:12.725Z</time></trkpt><trkpt lat="42.8744244285629" lon="12.02049425547524"><ele>238.25</ele><time>2026-04-12T15:27:13.725Z</time></trkpt><trkpt lat="42.8743682042958" lon="12.02032109292944"><ele>238.0</ele><time>2026-04-12T15:27:14.724Z</time></trkpt><trkpt lat="42.8743174968906" lon="12.020142855925258"><ele>239.5</ele><time>2026-04-12T15:27:15.725Z</time></trkpt><trkpt lat="42.87426429874598" lon="12.019968075709212"><ele>241.0</ele><time>2026-04-12T15:27:16.725Z</time></trkpt><trkpt lat="42.87421074323644" lon="12.019792119417597"><ele>242.5</ele><time>2026-04-12T15:27:17.724Z</time></trkpt><trkpt lat="42.87415831329122" lon="12.01962074490165"><ele>244.0</ele><time>2026-04-12T15:27:18.725Z</time></trkpt><trkpt lat="42.874126225563806" lon="12.019453709010374"><ele>244.0</ele><time>2026-04-12T15:27:19.724Z</time></trkpt><trkpt lat="42.87408125661717" lon="12.019300212502777"><ele>244.0</ele><time>2026-04-12T15:27:20.725Z</time></trkpt><trkpt lat="42.87403505344914" lon="12.019140067155437"><ele>244.0</ele><time>2026-04-12T15:27:21.725Z</time></trkpt><trkpt lat="42.87398776488915" lon="12.018979488493477"><ele>244.0</ele><time>2026-04-12T15:27:22.725Z</time></trkpt><trkpt lat="42.87393899637624" lon="12.018811604942819"><ele>244.0</ele><time>2026-04-12T15:27:23.725Z</time></trkpt><trkpt lat="42.873891411150154" lon="12.018646038024322"><ele>244.0</ele><time>2026-04-12T15:27:24.725Z</time></trkpt><trkpt lat="42.87382903684068" lon="12.018488237431079"><ele>244.0</ele><time>2026-04-12T15:27:25.725Z</time></trkpt><trkpt lat="42.8737861756445" lon="12.018319777641587"><ele>244.0</ele><time>2026-04-12T15:27:26.725Z</time></trkpt><trkpt lat="42.87372552799999" lon="12.018142923631926"><ele>244.0</ele><time>2026-04-12T15:27:27.725Z</time></trkpt><trkpt lat="42.87367816426735" lon="12.017961356499036"><ele>244.0</ele><time>2026-04-12T15:27:28.725Z</time></trkpt><trkpt lat="42.87361987655241" lon="12.017814755933347"><ele>244.0</ele><time>2026-04-12T15:27:29.725Z</time></trkpt><trkpt lat="42.87357162379877" lon="12.017668242329194"><ele>244.0</ele><time>2026-04-12T15:27:30.725Z</time></trkpt><trkpt lat="42.87351778927131" lon="12.017551381346944"><ele>244.6</ele><time>2026-04-12T15:27:31.724Z</time></trkpt><trkpt lat="42.87345671227917" lon="12.01744563125687"><ele>245.2</ele><time>2026-04-12T15:27:32.724Z</time></trkpt><trkpt lat="42.87339212998106" lon="12.017334834749901"><ele>245.79999999999998</ele><time>2026-04-12T15:27:33.724Z</time></trkpt><trkpt lat="42.873325644505286" lon="12.017245233120427"><ele>246.39999999999998</ele><time>2026-04-12T15:27:34.724Z</time></trkpt><trkpt lat="42.8732547914148" lon="12.01714816069479"><ele>247.0</ele><time>2026-04-12T15:27:35.724Z</time></trkpt><trkpt lat="42.87318532914407" lon="12.017052224458661"><ele>247.2</ele><time>2026-04-12T15:27:36.724Z</time></trkpt><trkpt lat="42.87310937961957" lon="12.01698258506835"><ele>247.39999999999998</ele><time>2026-04-12T15:27:37.724Z</time></trkpt><trkpt lat="42.87303993448144" lon="12.016913586217223"><ele>247.60000000000002</ele><time>2026-04-12T15:27:38.724Z</time></trkpt><trkpt lat="42.872959696605605" lon="12.01684221307475"><ele>247.8</ele><time>2026-04-12T15:27:39.724Z</time></trkpt><trkpt lat="42.87287950608801" lon="12.016779563562713"><ele>248.0</ele><time>2026-04-12T15:27:40.724Z</time></trkpt><trkpt lat="42.87279885384105" lon="12.016720547720405"><ele>248.00000000000003</ele><time>2026-04-12T15:27:41.724Z</time></trkpt><trkpt lat="42.87273034292155" lon="12.016669384568049"><ele>248.0</ele><time>2026-04-12T15:27:42.724Z</time></trkpt><trkpt lat="42.87266788797383" lon="12.016627351490822"><ele>248.0</ele><time>2026-04-12T15:27:44.724Z</time></trkpt><trkpt lat="42.872579342779666" lon="12.016581504508375"><ele>248.0</ele><time>2026-04-12T15:27:46.724Z</time></trkpt><trkpt lat="42.87251674131486" lon="12.016546796958593"><ele>248.00000000000003</ele><time>2026-04-12T15:27:47.724Z</time></trkpt><trkpt lat="42.87244553811048" lon="12.01651402293242"><ele>248.0</ele><time>2026-04-12T15:27:48.724Z</time></trkpt><trkpt lat="42.87236889237284" lon="12.016477994144742"><ele>249.8</ele><time>2026-04-12T15:27:49.724Z</time></trkpt><trkpt lat="42.87228722671163" lon="12.016446590075335"><ele>251.60000000000002</ele><time>2026-04-12T15:27:50.723Z</time></trkpt><trkpt lat="42.872201495084" lon="12.016402777378774"><ele>253.39999999999998</ele><time>2026-04-12T15:27:51.723Z</time></trkpt><trkpt lat="42.872114255532395" lon="12.016352532236992"><ele>255.2</ele><time>2026-04-12T15:27:52.723Z</time></trkpt><trkpt lat="42.872022468230604" lon="12.016303882780145"><ele>257.0</ele><time>2026-04-12T15:27:53.723Z</time></trkpt><trkpt lat="42.87192444368188" lon="12.016257922007805"><ele>257.0</ele><time>2026-04-12T15:27:54.723Z</time></trkpt><trkpt lat="42.871822438979756" lon="12.016207911800388"><ele>257.0</ele><time>2026-04-12T15:27:55.723Z</time></trkpt><trkpt lat="42.8717201970571" lon="12.0161442727379"><ele>257.0</ele><time>2026-04-12T15:27:56.723Z</time></trkpt><trkpt lat="42.87160640139721" lon="12.016086424484833"><ele>257.0</ele><time>2026-04-12T15:27:57.723Z</time></trkpt><trkpt lat="42.871492910074565" lon="12.016028730938212"><ele>258.0</ele><time>2026-04-12T15:27:58.723Z</time></trkpt><trkpt lat="42.87138277498338" lon="12.015972873274022"><ele>259.0</ele><time>2026-04-12T15:27:59.723Z</time></trkpt><trkpt lat="42.87126778352979" lon="12.015916176263728"><ele>260.0</ele><time>2026-04-12T15:28:00.723Z</time></trkpt><trkpt lat="42.871146713722666" lon="12.015856482315804"><ele>261.0</ele><time>2026-04-12T15:28:01.723Z</time></trkpt><trkpt lat="42.871022160523125" lon="12.015795070845622"><ele>264.25</ele><time>2026-04-12T15:28:02.723Z</time></trkpt><trkpt lat="42.87090011706602" lon="12.015735118388365"><ele>267.5</ele><time>2026-04-12T15:28:03.723Z</time></trkpt><trkpt lat="42.87077553426402" lon="12.01567488666594"><ele>270.75</ele><time>2026-04-12T15:28:04.723Z</time></trkpt><trkpt lat="42.8706416008117" lon="12.015633892229792"><ele>274.0</ele><time>2026-04-12T15:28:05.723Z</time></trkpt><trkpt lat="42.87052094658325" lon="12.015551801834347"><ele>274.0</ele><time>2026-04-12T15:28:06.723Z</time></trkpt><trkpt lat="42.87039622225869" lon="12.015491501699595"><ele>274.0</ele><time>2026-04-12T15:28:07.723Z</time></trkpt><trkpt lat="42.870268095719695" lon="12.015451041506068"><ele>274.0</ele><time>2026-04-12T15:28:08.723Z</time></trkpt><trkpt lat="42.870146404779824" lon="12.015388971170589"><ele>274.0</ele><time>2026-04-12T15:28:09.722Z</time></trkpt><trkpt lat="42.870023462936004" lon="12.015328686857167"><ele>274.5</ele><time>2026-04-12T15:28:10.722Z</time></trkpt><trkpt lat="42.869903686854116" lon="12.01524385505107"><ele>275.0</ele><time>2026-04-12T15:28:11.722Z</time></trkpt><trkpt lat="42.86978081392067" lon="12.015182360069275"><ele>275.5</ele><time>2026-04-12T15:28:12.722Z</time></trkpt><trkpt lat="42.86965811934438" lon="12.015122115337908"><ele>276.0</ele><time>2026-04-12T15:28:13.722Z</time></trkpt><trkpt lat="42.869538472147575" lon="12.015062673663486"><ele>276.0</ele><time>2026-04-12T15:28:14.722Z</time></trkpt><trkpt lat="42.86941543115973" lon="12.014995017934295"><ele>276.0</ele><time>2026-04-12T15:28:15.722Z</time></trkpt><trkpt lat="42.86929743937264" lon="12.01492558157134"><ele>276.0</ele><time>2026-04-12T15:28:16.722Z</time></trkpt><trkpt lat="42.86918759392013" lon="12.014842481231403"><ele>276.0</ele><time>2026-04-12T15:28:17.722Z</time></trkpt><trkpt lat="42.86909716365138" lon="12.014731200323302"><ele>279.5</ele><time>2026-04-12T15:28:18.722Z</time></trkpt><trkpt lat="42.869024267704255" lon="12.014596942447298"><ele>283.0</ele><time>2026-04-12T15:28:19.722Z</time></trkpt><trkpt lat="42.868953833251325" lon="12.014438328473666"><ele>286.5</ele><time>2026-04-12T15:28:20.722Z</time></trkpt><trkpt lat="42.8688833970368" lon="12.014271845203044"><ele>290.0</ele><time>2026-04-12T15:28:21.722Z</time></trkpt><trkpt lat="42.868810971201846" lon="12.014103183485108"><ele>290.75</ele><time>2026-04-12T15:28:22.722Z</time></trkpt><trkpt lat="42.86873249682191" lon="12.013943061559544"><ele>291.5</ele><time>2026-04-12T15:28:23.722Z</time></trkpt><trkpt lat="42.86866572912155" lon="12.013783840645361"><ele>292.25</ele><time>2026-04-12T15:28:24.722Z</time></trkpt><trkpt lat="42.86859787241728" lon="12.013637096313115"><ele>293.0</ele><time>2026-04-12T15:28:25.722Z</time></trkpt><trkpt lat="42.86851860489075" lon="12.013503445997163"><ele>292.25</ele><time>2026-04-12T15:28:26.722Z</time></trkpt><trkpt lat="42.86842079112177" lon="12.013380820736948"><ele>291.5</ele><time>2026-04-12T15:28:27.722Z</time></trkpt><trkpt lat="42.8683260069458" lon="12.013254317338594"><ele>290.75</ele><time>2026-04-12T15:28:28.722Z</time></trkpt><trkpt lat="42.868237809161144" lon="12.01312783912693"><ele>290.0</ele><time>2026-04-12T15:28:29.721Z</time></trkpt><trkpt lat="42.86817653940904" lon="12.012972885116199"><ele>290.0</ele><time>2026-04-12T15:28:30.721Z</time></trkpt><trkpt lat="42.86812851052203" lon="12.0128153533233"><ele>290.0</ele><time>2026-04-12T15:28:31.721Z</time></trkpt><trkpt lat="42.86810937573241" lon="12.012646456569792"><ele>290.0</ele><time>2026-04-12T15:28:32.721Z</time></trkpt><trkpt lat="42.86813109998776" lon="12.012474149142703"><ele>290.0</ele><time>2026-04-12T15:28:33.721Z</time></trkpt><trkpt lat="42.86813855237588" lon="12.012306545505272"><ele>290.0</ele><time>2026-04-12T15:28:34.721Z</time></trkpt><trkpt lat="42.86812195257628" lon="12.01212191424968"><ele>290.0</ele><time>2026-04-12T15:28:35.721Z</time></trkpt><trkpt lat="42.86812247975757" lon="12.011940128891473"><ele>290.0</ele><time>2026-04-12T15:28:36.721Z</time></trkpt><trkpt lat="42.868103689146274" lon="12.011778362330773"><ele>290.0</ele><time>2026-04-12T15:28:37.721Z</time></trkpt><trkpt lat="42.86808208231954" lon="12.011625273929425"><ele>289.0</ele><time>2026-04-12T15:28:38.721Z</time></trkpt><trkpt lat="42.8680780445436" lon="12.011474459143756"><ele>288.0</ele><time>2026-04-12T15:28:39.721Z</time></trkpt><trkpt lat="42.86803787227416" lon="12.011327168543398"><ele>287.0</ele><time>2026-04-12T15:28:40.721Z</time></trkpt><trkpt lat="42.86800286018233" lon="12.011179756662356"><ele>286.0</ele><time>2026-04-12T15:28:41.721Z</time></trkpt><trkpt lat="42.86795265503993" lon="12.01104889302432"><ele>285.0</ele><time>2026-04-12T15:28:42.721Z</time></trkpt><trkpt lat="42.86787125135027" lon="12.010951230457891"><ele>285.0</ele><time>2026-04-12T15:28:43.721Z</time></trkpt><trkpt lat="42.86775684590757" lon="12.010903227963096"><ele>285.0</ele><time>2026-04-12T15:28:44.721Z</time></trkpt><trkpt lat="42.86764613376934" lon="12.010902607331701"><ele>285.0</ele><time>2026-04-12T15:28:45.721Z</time></trkpt><trkpt lat="42.8675366647929" lon="12.010904361530256"><ele>285.0</ele><time>2026-04-12T15:28:46.721Z</time></trkpt><trkpt lat="42.86743005406172" lon="12.010973507287302"><ele>287.25</ele><time>2026-04-12T15:28:47.721Z</time></trkpt><trkpt lat="42.86732821533838" lon="12.011040418049863"><ele>289.5</ele><time>2026-04-12T15:28:48.72Z</time></trkpt><trkpt lat="42.86723118134773" lon="12.011131745412543"><ele>291.75</ele><time>2026-04-12T15:28:49.72Z</time></trkpt><trkpt lat="42.86713668894871" lon="12.011233541016225"><ele>294.0</ele><time>2026-04-12T15:28:50.72Z</time></trkpt><trkpt lat="42.86704098235095" lon="12.011341317987752"><ele>294.0</ele><time>2026-04-12T15:28:51.72Z</time></trkpt><trkpt lat="42.866925693517466" lon="12.011419041450276"><ele>294.0</ele><time>2026-04-12T15:28:52.72Z</time></trkpt><trkpt lat="42.866819134496765" lon="12.011469708969697"><ele>294.0</ele><time>2026-04-12T15:28:53.72Z</time></trkpt><trkpt lat="42.866715289552374" lon="12.011491519472578"><ele>294.0</ele><time>2026-04-12T15:28:54.72Z</time></trkpt><trkpt lat="42.86661147341671" lon="12.011513246781968"><ele>293.0</ele><time>2026-04-12T15:28:55.72Z</time></trkpt><trkpt lat="42.86651578913821" lon="12.01154932442023"><ele>292.0</ele><time>2026-04-12T15:28:56.72Z</time></trkpt><trkpt lat="42.86642223942096" lon="12.011559151433353"><ele>291.0</ele><time>2026-04-12T15:28:57.72Z</time></trkpt><trkpt lat="42.86633848083395" lon="12.011570939566965"><ele>290.0</ele><time>2026-04-12T15:28:58.72Z</time></trkpt><trkpt lat="42.86625625526502" lon="12.011586255487893"><ele>289.0</ele><time>2026-04-12T15:28:59.72Z</time></trkpt><trkpt lat="42.86617779057534" lon="12.011601432075743"><ele>288.0</ele><time>2026-04-12T15:29:00.72Z</time></trkpt><trkpt lat="42.86610021466017" lon="12.011618751685083"><ele>288.0</ele><time>2026-04-12T15:29:01.72Z</time></trkpt><trkpt lat="42.86602068431325" lon="12.011630252213447"><ele>288.0</ele><time>2026-04-12T15:29:02.72Z</time></trkpt><trkpt lat="42.8659333689892" lon="12.011653197154283"><ele>288.0</ele><time>2026-04-12T15:29:03.72Z</time></trkpt><trkpt lat="42.86584648759267" lon="12.011665227885285"><ele>288.0</ele><time>2026-04-12T15:29:04.72Z</time></trkpt><trkpt lat="42.86575640685286" lon="12.011683629727228"><ele>288.0</ele><time>2026-04-12T15:29:05.72Z</time></trkpt><trkpt lat="42.86566161922052" lon="12.011706678441104"><ele>288.0</ele><time>2026-04-12T15:29:06.72Z</time></trkpt><trkpt lat="42.86556593631733" lon="12.011736480421767"><ele>294.25</ele><time>2026-04-12T15:29:07.719Z</time></trkpt><trkpt lat="42.865470465246425" lon="12.01178521141391"><ele>300.5</ele><time>2026-04-12T15:29:08.719Z</time></trkpt><trkpt lat="42.86537086215624" lon="12.011852636203553"><ele>306.75</ele><time>2026-04-12T15:29:09.719Z</time></trkpt><trkpt lat="42.8652498078263" lon="12.011892601611429"><ele>313.0</ele><time>2026-04-12T15:29:10.719Z</time></trkpt><trkpt lat="42.86512912438599" lon="12.011927784384126"><ele>314.75</ele><time>2026-04-12T15:29:11.719Z</time></trkpt><trkpt lat="42.865011508834364" lon="12.011958377698145"><ele>316.5</ele><time>2026-04-12T15:29:12.719Z</time></trkpt><trkpt lat="42.864904094171514" lon="12.011986364743462"><ele>318.25</ele><time>2026-04-12T15:29:13.719Z</time></trkpt><trkpt lat="42.86479708376214" lon="12.012021409318724"><ele>320.0</ele><time>2026-04-12T15:29:14.721Z</time></trkpt><trkpt lat="42.8646893005428" lon="12.012062316796872"><ele>320.0</ele><time>2026-04-12T15:29:15.721Z</time></trkpt><trkpt lat="42.86457896341949" lon="12.012091560281045"><ele>320.0</ele><time>2026-04-12T15:29:16.72Z</time></trkpt><trkpt lat="42.8644656812601" lon="12.012108086591818"><ele>320.0</ele><time>2026-04-12T15:29:17.72Z</time></trkpt><trkpt lat="42.86435488488169" lon="12.012115046781542"><ele>320.0</ele><time>2026-04-12T15:29:18.72Z</time></trkpt><trkpt lat="42.86424746372572" lon="12.0121127909264"><ele>320.0</ele><time>2026-04-12T15:29:19.72Z</time></trkpt><trkpt lat="42.86413448830643" lon="12.012098413144036"><ele>321.2</ele><time>2026-04-12T15:29:20.72Z</time></trkpt><trkpt lat="42.864025263786715" lon="12.012070993733069"><ele>322.4</ele><time>2026-04-12T15:29:21.72Z</time></trkpt><trkpt lat="42.86392932313287" lon="12.012042775207483"><ele>323.6</ele><time>2026-04-12T15:29:22.72Z</time></trkpt><trkpt lat="42.86384423328987" lon="12.011991380983678"><ele>324.8</ele><time>2026-04-12T15:29:23.72Z</time></trkpt><trkpt lat="42.86376940620691" lon="12.01193285111235"><ele>326.0</ele><time>2026-04-12T15:29:24.72Z</time></trkpt><trkpt lat="42.86370629382026" lon="12.011884498302347"><ele>326.0</ele><time>2026-04-12T15:29:25.72Z</time></trkpt><trkpt lat="42.863598532933345" lon="12.011837109842821"><ele>326.0</ele><time>2026-04-12T15:29:27.72Z</time></trkpt><trkpt lat="42.863508147669535" lon="12.011858333725204"><ele>326.0</ele><time>2026-04-12T15:29:29.72Z</time></trkpt><trkpt lat="42.86342540607964" lon="12.011941082274754"><ele>326.0</ele><time>2026-04-12T15:29:31.72Z</time></trkpt><trkpt lat="42.863328164631554" lon="12.011862643000649"><ele>326.0</ele><time>2026-04-12T15:29:32.72Z</time></trkpt><trkpt lat="42.86324996826232" lon="12.01183648031239"><ele>327.33333333333337</ele><time>2026-04-12T15:29:33.72Z</time></trkpt><trkpt lat="42.86317128491352" lon="12.011812814069279"><ele>328.6666666666667</ele><time>2026-04-12T15:29:34.72Z</time></trkpt><trkpt lat="42.86309266616721" lon="12.011780128806098"><ele>330.0</ele><time>2026-04-12T15:29:35.72Z</time></trkpt><trkpt lat="42.86300924617373" lon="12.011740342863668"><ele>331.3333333333333</ele><time>2026-04-12T15:29:36.72Z</time></trkpt><trkpt lat="42.862923339330955" lon="12.011694421874793"><ele>332.66666666666663</ele><time>2026-04-12T15:29:37.72Z</time></trkpt><trkpt lat="42.86283278442349" lon="12.011643899229485"><ele>334.0</ele><time>2026-04-12T15:29:38.72Z</time></trkpt><trkpt lat="42.862727600641314" lon="12.011582211649127"><ele>333.5</ele><time>2026-04-12T15:29:39.72Z</time></trkpt><trkpt lat="42.862625680148994" lon="12.011473496170288"><ele>333.0</ele><time>2026-04-12T15:29:40.72Z</time></trkpt><trkpt lat="42.86250793673608" lon="12.011394540987343"><ele>332.5</ele><time>2026-04-12T15:29:41.72Z</time></trkpt><trkpt lat="42.86241706706559" lon="12.011281242313142"><ele>332.0</ele><time>2026-04-12T15:29:42.72Z</time></trkpt><trkpt lat="42.86232660908262" lon="12.0111419261093"><ele>332.0</ele><time>2026-04-12T15:29:43.719Z</time></trkpt><trkpt lat="42.86222632134956" lon="12.01099066340232"><ele>332.0</ele><time>2026-04-12T15:29:44.719Z</time></trkpt><trkpt lat="42.86212642564692" lon="12.010847961625242"><ele>332.0</ele><time>2026-04-12T15:29:45.719Z</time></trkpt><trkpt lat="42.86203855697253" lon="12.010711912420144"><ele>332.0</ele><time>2026-04-12T15:29:46.719Z</time></trkpt><trkpt lat="42.86196073871468" lon="12.010588503434379"><ele>331.6</ele><time>2026-04-12T15:29:47.719Z</time></trkpt><trkpt lat="42.861886134842464" lon="12.01047996401779"><ele>331.20000000000005</ele><time>2026-04-12T15:29:48.719Z</time></trkpt><trkpt lat="42.86181559073402" lon="12.010398795070243"><ele>330.8</ele><time>2026-04-12T15:29:49.719Z</time></trkpt><trkpt lat="42.86174646175731" lon="12.01035072540652"><ele>330.4</ele><time>2026-04-12T15:29:50.719Z</time></trkpt><trkpt lat="42.861645409557354" lon="12.010324095746672"><ele>330.0</ele><time>2026-04-12T15:29:52.719Z</time></trkpt><trkpt lat="42.861558300883715" lon="12.01036921950499"><ele>333.8</ele><time>2026-04-12T15:29:55.719Z</time></trkpt><trkpt lat="42.86153273805855" lon="12.010536757008708"><ele>337.6</ele><time>2026-04-12T15:29:57.719Z</time></trkpt><trkpt lat="42.86152179909068" lon="12.010641419695306"><ele>341.4</ele><time>2026-04-12T15:29:58.719Z</time></trkpt><trkpt lat="42.86154016297703" lon="12.010763203381739"><ele>345.2</ele><time>2026-04-12T15:29:59.719Z</time></trkpt><trkpt lat="42.86159285444317" lon="12.010876485328671"><ele>349.0</ele><time>2026-04-12T15:30:00.719Z</time></trkpt><trkpt lat="42.861652785790184" lon="12.010988272846953"><ele>350.5</ele><time>2026-04-12T15:30:01.719Z</time></trkpt><trkpt lat="42.86172530369799" lon="12.011123537567522"><ele>352.0</ele><time>2026-04-12T15:30:02.719Z</time></trkpt><trkpt lat="42.86180369446064" lon="12.011272173506386"><ele>353.5</ele><time>2026-04-12T15:30:03.718Z</time></trkpt><trkpt lat="42.861879574634145" lon="12.011418229753708"><ele>355.0</ele><time>2026-04-12T15:30:04.718Z</time></trkpt><trkpt lat="42.86195721290662" lon="12.011559144066037"><ele>353.6</ele><time>2026-04-12T15:30:05.718Z</time></trkpt><trkpt lat="42.862026302616115" lon="12.01167215210017"><ele>352.2</ele><time>2026-04-12T15:30:06.718Z</time></trkpt><trkpt lat="42.86208756589379" lon="12.011774160958847"><ele>350.79999999999995</ele><time>2026-04-12T15:30:07.718Z</time></trkpt><trkpt lat="42.86213145918988" lon="12.011848446043059"><ele>349.4</ele><time>2026-04-12T15:30:08.718Z</time></trkpt><trkpt lat="42.86219129723916" lon="12.01197688201527"><ele>348.0</ele><time>2026-04-12T15:30:10.718Z</time></trkpt><trkpt lat="42.862221100161385" lon="12.01206212237157"><ele>348.0</ele><time>2026-04-12T15:30:13.718Z</time></trkpt><trkpt lat="42.8621786114087" lon="12.011994484127264"><ele>348.0</ele><time>2026-04-12T15:30:22.717Z</time></trkpt><trkpt lat="42.86214514432458" lon="12.011911176335653"><ele>348.0</ele><time>2026-04-12T15:30:23.717Z</time></trkpt><trkpt lat="42.862091842354445" lon="12.011817545124366"><ele>348.0</ele><time>2026-04-12T15:30:24.717Z</time></trkpt><trkpt lat="42.86205073703774" lon="12.01174797874235"><ele>348.0</ele><time>2026-04-12T15:30:25.717Z</time></trkpt><trkpt lat="42.86200632852393" lon="12.011674906070507"><ele>348.0</ele><time>2026-04-12T15:30:26.717Z</time></trkpt><trkpt lat="42.86173755220953" lon="12.011779245794344"><ele>349.4</ele><time>2026-04-12T15:30:27.717Z</time></trkpt><trkpt lat="42.8616462454969" lon="12.011708594548708"><ele>350.79999999999995</ele><time>2026-04-12T15:30:28.717Z</time></trkpt><trkpt lat="42.86156113440826" lon="12.011659014016999"><ele>352.2</ele><time>2026-04-12T15:30:29.717Z</time></trkpt><trkpt lat="42.86147692922435" lon="12.01163435483932"><ele>353.6</ele><time>2026-04-12T15:30:30.717Z</time></trkpt><trkpt lat="42.861380658806944" lon="12.011598725674505"><ele>355.0</ele><time>2026-04-12T15:30:31.717Z</time></trkpt><trkpt lat="42.86128268175543" lon="12.011571528607673"><ele>355.0</ele><time>2026-04-12T15:30:32.717Z</time></trkpt><trkpt lat="42.86118019715795" lon="12.011548117296813"><ele>355.0</ele><time>2026-04-12T15:30:33.717Z</time></trkpt><trkpt lat="42.86108671222438" lon="12.011520747701006"><ele>355.0</ele><time>2026-04-12T15:30:34.717Z</time></trkpt><trkpt lat="42.86099514935409" lon="12.01148301668998"><ele>355.0</ele><time>2026-04-12T15:30:35.717Z</time></trkpt><trkpt lat="42.86090684856062" lon="12.011438531212756"><ele>355.0</ele><time>2026-04-12T15:30:36.717Z</time></trkpt><trkpt lat="42.86083549312121" lon="12.011393104755696"><ele>360.0</ele><time>2026-04-12T15:30:37.717Z</time></trkpt><trkpt lat="42.86077635507926" lon="12.011350503037285"><ele>365.0</ele><time>2026-04-12T15:30:38.717Z</time></trkpt><trkpt lat="42.86068592934297" lon="12.011226526732456"><ele>370.0</ele><time>2026-04-12T15:30:40.717Z</time></trkpt><trkpt lat="42.860643531715894" lon="12.011131871743011"><ele>375.0</ele><time>2026-04-12T15:30:41.716Z</time></trkpt><trkpt lat="42.86059131809452" lon="12.011012138761194"><ele>380.0</ele><time>2026-04-12T15:30:42.716Z</time></trkpt><trkpt lat="42.860540264615125" lon="12.01087511080393"><ele>379.5</ele><time>2026-04-12T15:30:43.716Z</time></trkpt><trkpt lat="42.86050642095575" lon="12.010717974483386"><ele>379.0</ele><time>2026-04-12T15:30:44.716Z</time></trkpt><trkpt lat="42.86048074963231" lon="12.010543560951561"><ele>378.5</ele><time>2026-04-12T15:30:45.716Z</time></trkpt><trkpt lat="42.86043112133607" lon="12.010378629013166"><ele>378.0</ele><time>2026-04-12T15:30:46.716Z</time></trkpt><trkpt lat="42.86040117972333" lon="12.01022101717979"><ele>378.0</ele><time>2026-04-12T15:30:47.716Z</time></trkpt><trkpt lat="42.86036191336589" lon="12.010068575030223"><ele>378.0</ele><time>2026-04-12T15:30:48.716Z</time></trkpt><trkpt lat="42.86031521332976" lon="12.009917662420177"><ele>378.0</ele><time>2026-04-12T15:30:49.716Z</time></trkpt><trkpt lat="42.86026016897584" lon="12.009764485840877"><ele>378.0</ele><time>2026-04-12T15:30:50.716Z</time></trkpt><trkpt lat="42.860206853977274" lon="12.009604138514247"><ele>378.75</ele><time>2026-04-12T15:30:51.716Z</time></trkpt><trkpt lat="42.86015641626018" lon="12.009445079726174"><ele>379.5</ele><time>2026-04-12T15:30:52.716Z</time></trkpt><trkpt lat="42.8601028349105" lon="12.009283649177041"><ele>380.25</ele><time>2026-04-12T15:30:53.716Z</time></trkpt><trkpt lat="42.860052973113746" lon="12.009119561446333"><ele>381.0</ele><time>2026-04-12T15:30:54.716Z</time></trkpt><trkpt lat="42.86000306737503" lon="12.008949876800573"><ele>381.0</ele><time>2026-04-12T15:30:55.716Z</time></trkpt><trkpt lat="42.859952641714365" lon="12.008791621944999"><ele>381.0</ele><time>2026-04-12T15:30:56.716Z</time></trkpt><trkpt lat="42.85989922470781" lon="12.008652832310247"><ele>381.0</ele><time>2026-04-12T15:30:57.716Z</time></trkpt><trkpt lat="42.85984543857267" lon="12.008506647901308"><ele>381.0</ele><time>2026-04-12T15:30:58.716Z</time></trkpt><trkpt lat="42.859747640563505" lon="12.008406856140436"><ele>376.25</ele><time>2026-04-12T15:30:59.716Z</time></trkpt><trkpt lat="42.859645575546615" lon="12.00831108877641"><ele>371.5</ele><time>2026-04-12T15:31:00.716Z</time></trkpt><trkpt lat="42.859539708924146" lon="12.008218742540409"><ele>366.75</ele><time>2026-04-12T15:31:01.715Z</time></trkpt><trkpt lat="42.859441966913195" lon="12.008106128460412"><ele>362.0</ele><time>2026-04-12T15:31:02.715Z</time></trkpt><trkpt lat="42.859386849580275" lon="12.007961871515988"><ele>362.0</ele><time>2026-04-12T15:31:03.715Z</time></trkpt><trkpt lat="42.8593366153782" lon="12.007809703077186"><ele>362.0</ele><time>2026-04-12T15:31:04.715Z</time></trkpt><trkpt lat="42.85928522639149" lon="12.007645765623444"><ele>362.0</ele><time>2026-04-12T15:31:05.715Z</time></trkpt><trkpt lat="42.85923839889704" lon="12.007473873421779"><ele>362.0</ele><time>2026-04-12T15:31:06.715Z</time></trkpt><trkpt lat="42.85920065012293" lon="12.007295762857131"><ele>365.5</ele><time>2026-04-12T15:31:07.715Z</time></trkpt><trkpt lat="42.85918873209341" lon="12.007126254495848"><ele>369.0</ele><time>2026-04-12T15:31:08.715Z</time></trkpt><trkpt lat="42.85918938652485" lon="12.006954676730274"><ele>372.5</ele><time>2026-04-12T15:31:09.715Z</time></trkpt><trkpt lat="42.85919911959276" lon="12.0067824026411"><ele>376.0</ele><time>2026-04-12T15:31:10.715Z</time></trkpt><trkpt lat="42.85921135090509" lon="12.006610931708119"><ele>376.0</ele><time>2026-04-12T15:31:11.715Z</time></trkpt><trkpt lat="42.85920875704695" lon="12.006442543566857"><ele>376.0</ele><time>2026-04-12T15:31:12.715Z</time></trkpt><trkpt lat="42.859231921381024" lon="12.006290483915343"><ele>376.0</ele><time>2026-04-12T15:31:13.715Z</time></trkpt><trkpt lat="42.85926219268198" lon="12.006170403249262"><ele>376.0</ele><time>2026-04-12T15:31:14.715Z</time></trkpt><trkpt lat="42.85931736141619" lon="12.006077094165525"><ele>376.0</ele><time>2026-04-12T15:31:15.715Z</time></trkpt><trkpt lat="42.85940030367515" lon="12.006031639557538"><ele>376.8</ele><time>2026-04-12T15:31:16.715Z</time></trkpt><trkpt lat="42.85948948010439" lon="12.005990022955814"><ele>377.6</ele><time>2026-04-12T15:31:17.715Z</time></trkpt><trkpt lat="42.85959102083699" lon="12.00594150932829"><ele>378.4</ele><time>2026-04-12T15:31:18.715Z</time></trkpt><trkpt lat="42.859695327872444" lon="12.005890616163121"><ele>379.2</ele><time>2026-04-12T15:31:19.715Z</time></trkpt><trkpt lat="42.85979312251961" lon="12.005828850194543"><ele>380.0</ele><time>2026-04-12T15:31:20.716Z</time></trkpt><trkpt lat="42.859883031452995" lon="12.005732923884345"><ele>380.8</ele><time>2026-04-12T15:31:21.716Z</time></trkpt><trkpt lat="42.85993893871819" lon="12.005604641803332"><ele>381.6</ele><time>2026-04-12T15:31:22.716Z</time></trkpt><trkpt lat="42.85997498891897" lon="12.005474179211385"><ele>382.4</ele><time>2026-04-12T15:31:23.716Z</time></trkpt><trkpt lat="42.860010475508034" lon="12.005339843251187"><ele>383.2</ele><time>2026-04-12T15:31:24.716Z</time></trkpt><trkpt lat="42.86004650843968" lon="12.00520503911697"><ele>384.0</ele><time>2026-04-12T15:31:25.716Z</time></trkpt><trkpt lat="42.860084116391306" lon="12.005073344601595"><ele>383.2</ele><time>2026-04-12T15:31:26.716Z</time></trkpt><trkpt lat="42.860126244463835" lon="12.004944134447188"><ele>382.4</ele><time>2026-04-12T15:31:27.715Z</time></trkpt><trkpt lat="42.86017108300522" lon="12.004821525352229"><ele>381.6</ele><time>2026-04-12T15:31:28.715Z</time></trkpt><trkpt lat="42.860221677304025" lon="12.004701506697545"><ele>380.8</ele><time>2026-04-12T15:31:29.716Z</time></trkpt><trkpt lat="42.86027512657239" lon="12.00458632694173"><ele>380.0</ele><time>2026-04-12T15:31:30.716Z</time></trkpt><trkpt lat="42.860336952404175" lon="12.004471135745423"><ele>380.0</ele><time>2026-04-12T15:31:31.716Z</time></trkpt><trkpt lat="42.86041029679132" lon="12.004358955090689"><ele>380.0</ele><time>2026-04-12T15:31:32.716Z</time></trkpt><trkpt lat="42.8604933868228" lon="12.004241049533599"><ele>380.0</ele><time>2026-04-12T15:31:33.716Z</time></trkpt><trkpt lat="42.86057608924123" lon="12.00411760886269"><ele>380.0</ele><time>2026-04-12T15:31:34.716Z</time></trkpt><trkpt lat="42.86065351273813" lon="12.003995462480216"><ele>378.5</ele><time>2026-04-12T15:31:35.716Z</time></trkpt><trkpt lat="42.86072804038221" lon="12.003877884778284"><ele>377.0</ele><time>2026-04-12T15:31:36.716Z</time></trkpt><trkpt lat="42.86080239369924" lon="12.00376165470112"><ele>375.5</ele><time>2026-04-12T15:31:37.716Z</time></trkpt><trkpt lat="42.86088252265739" lon="12.003658624437374"><ele>374.0</ele><time>2026-04-12T15:31:38.716Z</time></trkpt><trkpt lat="42.86097851389306" lon="12.00357572155952"><ele>374.0</ele><time>2026-04-12T15:31:39.716Z</time></trkpt><trkpt lat="42.86108847592994" lon="12.003505643330852"><ele>374.0</ele><time>2026-04-12T15:31:40.716Z</time></trkpt><trkpt lat="42.86120882396939" lon="12.003425913883156"><ele>374.0</ele><time>2026-04-12T15:31:41.716Z</time></trkpt><trkpt lat="42.861315509453014" lon="12.003311862763468"><ele>374.0</ele><time>2026-04-12T15:31:42.715Z</time></trkpt><trkpt lat="42.86140367579479" lon="12.00316549766035"><ele>372.79999999999995</ele><time>2026-04-12T15:31:43.715Z</time></trkpt><trkpt lat="42.861493633761754" lon="12.003047459803712"><ele>371.59999999999997</ele><time>2026-04-12T15:31:44.715Z</time></trkpt><trkpt lat="42.86158288628387" lon="12.002936739763934"><ele>370.4</ele><time>2026-04-12T15:31:45.715Z</time></trkpt><trkpt lat="42.861656382951786" lon="12.002835396228756"><ele>369.2</ele><time>2026-04-12T15:31:46.715Z</time></trkpt><trkpt lat="42.8617187753544" lon="12.002747942320548"><ele>368.0</ele><time>2026-04-12T15:31:47.715Z</time></trkpt><trkpt lat="42.86176271788615" lon="12.002654822656375"><ele>367.0</ele><time>2026-04-12T15:31:49.715Z</time></trkpt><trkpt lat="42.86179070826021" lon="12.00250830388937"><ele>366.0</ele><time>2026-04-12T15:32:33.713Z</time></trkpt><trkpt lat="42.861783654307736" lon="12.002415888693692"><ele>365.0</ele><time>2026-04-12T15:32:34.713Z</time></trkpt><trkpt lat="42.861764386053984" lon="12.00230176317949"><ele>364.0</ele><time>2026-04-12T15:32:35.713Z</time></trkpt><trkpt lat="42.861729681668976" lon="12.002176079817438"><ele>363.0</ele><time>2026-04-12T15:32:36.713Z</time></trkpt><trkpt lat="42.86167879851604" lon="12.002028865599506"><ele>363.0</ele><time>2026-04-12T15:32:37.713Z</time></trkpt><trkpt lat="42.86162171384356" lon="12.00186869860905"><ele>363.0</ele><time>2026-04-12T15:32:38.713Z</time></trkpt><trkpt lat="42.86156132041043" lon="12.00170014539256"><ele>363.0</ele><time>2026-04-12T15:32:39.713Z</time></trkpt><trkpt lat="42.86150642832216" lon="12.00153364063755"><ele>363.0</ele><time>2026-04-12T15:32:40.712Z</time></trkpt><trkpt lat="42.86145340514367" lon="12.001385108432771"><ele>362.0</ele><time>2026-04-12T15:32:41.712Z</time></trkpt><trkpt lat="42.861424655653586" lon="12.001225406420975"><ele>361.0</ele><time>2026-04-12T15:32:42.712Z</time></trkpt><trkpt lat="42.86141791489079" lon="12.001049649313986"><ele>360.0</ele><time>2026-04-12T15:32:43.712Z</time></trkpt><trkpt lat="42.861428398868235" lon="12.000853171496981"><ele>359.0</ele><time>2026-04-12T15:32:44.712Z</time></trkpt><trkpt lat="42.86144403491955" lon="12.000653830992661"><ele>355.0</ele><time>2026-04-12T15:32:45.712Z</time></trkpt><trkpt lat="42.86145495957084" lon="12.000451823162964"><ele>351.0</ele><time>2026-04-12T15:32:46.712Z</time></trkpt><trkpt lat="42.86147215147355" lon="12.00024174875619"><ele>347.0</ele><time>2026-04-12T15:32:47.712Z</time></trkpt><trkpt lat="42.8614874101985" lon="12.000014814839016"><ele>347.0</ele><time>2026-04-12T15:32:48.712Z</time></trkpt><trkpt lat="42.8614942045643" lon="11.999784509408192"><ele>347.0</ele><time>2026-04-12T15:32:49.712Z</time></trkpt><trkpt lat="42.861497016541364" lon="11.999554999817246"><ele>347.0</ele><time>2026-04-12T15:32:50.712Z</time></trkpt><trkpt lat="42.8615031256094" lon="11.999325517691743"><ele>344.6666666666667</ele><time>2026-04-12T15:32:51.712Z</time></trkpt><trkpt lat="42.861512972912585" lon="11.999093008785204"><ele>342.3333333333333</ele><time>2026-04-12T15:32:52.712Z</time></trkpt><trkpt lat="42.86152486018445" lon="11.998871015526372"><ele>340.0</ele><time>2026-04-12T15:32:53.712Z</time></trkpt><trkpt lat="42.86154001285599" lon="11.998652499802738"><ele>340.0</ele><time>2026-04-12T15:32:54.712Z</time></trkpt><trkpt lat="42.861568259833184" lon="11.99844830089094"><ele>340.0</ele><time>2026-04-12T15:32:55.712Z</time></trkpt><trkpt lat="42.86161209009665" lon="11.99825588203722"><ele>340.0</ele><time>2026-04-12T15:32:56.712Z</time></trkpt><trkpt lat="42.86167752921317" lon="11.99807880416716"><ele>340.0</ele><time>2026-04-12T15:32:57.712Z</time></trkpt><trkpt lat="42.86176535300639" lon="11.99792167853706"><ele>341.75</ele><time>2026-04-12T15:32:58.712Z</time></trkpt><trkpt lat="42.86186378538233" lon="11.997766682390361"><ele>343.5</ele><time>2026-04-12T15:32:59.711Z</time></trkpt><trkpt lat="42.86196236549246" lon="11.997605601307258"><ele>345.25</ele><time>2026-04-12T15:33:00.711Z</time></trkpt><trkpt lat="42.862051996310996" lon="11.997452988287584"><ele>347.0</ele><time>2026-04-12T15:33:01.711Z</time></trkpt><trkpt lat="42.86212820740461" lon="11.99730303470727"><ele>347.0</ele><time>2026-04-12T15:33:02.711Z</time></trkpt><trkpt lat="42.86218722030381" lon="11.99714619831047"><ele>347.0</ele><time>2026-04-12T15:33:03.711Z</time></trkpt><trkpt lat="42.86223632968096" lon="11.996992979999385"><ele>347.0</ele><time>2026-04-12T15:33:04.711Z</time></trkpt><trkpt lat="42.86222114665737" lon="11.99681807093464"><ele>347.0</ele><time>2026-04-12T15:33:05.711Z</time></trkpt><trkpt lat="42.86220596811196" lon="11.996638572720068"><ele>350.0</ele><time>2026-04-12T15:33:06.711Z</time></trkpt><trkpt lat="42.86220733785935" lon="11.996433094955576"><ele>353.0</ele><time>2026-04-12T15:33:07.711Z</time></trkpt><trkpt lat="42.86219048515734" lon="11.996213250300606"><ele>356.0</ele><time>2026-04-12T15:33:08.711Z</time></trkpt><trkpt lat="42.86217193726009" lon="11.995978703860073"><ele>359.0</ele><time>2026-04-12T15:33:09.711Z</time></trkpt><trkpt lat="42.86215878589696" lon="11.995766052707353"><ele>362.0</ele><time>2026-04-12T15:33:10.711Z</time></trkpt><trkpt lat="42.86215041935269" lon="11.995569455022837"><ele>365.0</ele><time>2026-04-12T15:33:11.711Z</time></trkpt><trkpt lat="42.862123014451804" lon="11.995355373464832"><ele>365.0</ele><time>2026-04-12T15:33:12.711Z</time></trkpt><trkpt lat="42.862066532445716" lon="11.995147434649713"><ele>365.0</ele><time>2026-04-12T15:33:13.711Z</time></trkpt><trkpt lat="42.861987120566994" lon="11.994952159451024"><ele>365.0</ele><time>2026-04-12T15:33:14.711Z</time></trkpt><trkpt lat="42.861892812060205" lon="11.994766150195122"><ele>364.0</ele><time>2026-04-12T15:33:15.711Z</time></trkpt><trkpt lat="42.861794084472585" lon="11.994569272134578"><ele>363.0</ele><time>2026-04-12T15:33:16.711Z</time></trkpt><trkpt lat="42.861697647543515" lon="11.99437263483086"><ele>362.0</ele><time>2026-04-12T15:33:17.711Z</time></trkpt><trkpt lat="42.86160429905589" lon="11.994179283477441"><ele>362.0</ele><time>2026-04-12T15:33:18.71Z</time></trkpt><trkpt lat="42.861522611122645" lon="11.994006855349571"><ele>362.0</ele><time>2026-04-12T15:33:19.71Z</time></trkpt><trkpt lat="42.86144877871029" lon="11.993851008991646"><ele>362.0</ele><time>2026-04-12T15:33:20.71Z</time></trkpt><trkpt lat="42.861371712071595" lon="11.993700200376683"><ele>362.0</ele><time>2026-04-12T15:33:21.71Z</time></trkpt><trkpt lat="42.86128878361202" lon="11.993577138276397"><ele>362.0</ele><time>2026-04-12T15:33:22.71Z</time></trkpt><trkpt lat="42.86122649660748" lon="11.993449976023143"><ele>362.0</ele><time>2026-04-12T15:33:23.71Z</time></trkpt><trkpt lat="42.86116728159212" lon="11.993332180114532"><ele>362.0</ele><time>2026-04-12T15:33:24.71Z</time></trkpt><trkpt lat="42.86114349773052" lon="11.993224446656212"><ele>362.0</ele><time>2026-04-12T15:33:25.71Z</time></trkpt><trkpt lat="42.86111155991448" lon="11.993042253994078"><ele>362.0</ele><time>2026-04-12T15:33:27.712Z</time></trkpt><trkpt lat="42.86108635246488" lon="11.992915104288011"><ele>361.5</ele><time>2026-04-12T15:33:28.712Z</time></trkpt><trkpt lat="42.86108679719869" lon="11.992755298837785"><ele>361.0</ele><time>2026-04-12T15:33:29.712Z</time></trkpt><trkpt lat="42.86108394851166" lon="11.992574010626557"><ele>360.5</ele><time>2026-04-12T15:33:30.712Z</time></trkpt><trkpt lat="42.861079697541" lon="11.99238085630366"><ele>360.0</ele><time>2026-04-12T15:33:31.711Z</time></trkpt><trkpt lat="42.86107258366576" lon="11.992175379927827"><ele>356.25</ele><time>2026-04-12T15:33:32.712Z</time></trkpt><trkpt lat="42.86105957157928" lon="11.991975615853177"><ele>352.5</ele><time>2026-04-12T15:33:33.795Z</time></trkpt><trkpt lat="42.86104022030667" lon="11.991794189879831"><ele>348.75</ele><time>2026-04-12T15:33:34.795Z</time></trkpt><trkpt lat="42.86101779924825" lon="11.991620528244251"><ele>345.0</ele><time>2026-04-12T15:33:35.794Z</time></trkpt><trkpt lat="42.86099231599275" lon="11.99146129613258"><ele>343.25</ele><time>2026-04-12T15:33:36.795Z</time></trkpt><trkpt lat="42.86096064666825" lon="11.99131276700013"><ele>341.5</ele><time>2026-04-12T15:33:37.796Z</time></trkpt><trkpt lat="42.86092078598176" lon="11.991168563507536"><ele>339.75</ele><time>2026-04-12T15:33:38.795Z</time></trkpt><trkpt lat="42.860879507372076" lon="11.991019355236643"><ele>338.0</ele><time>2026-04-12T15:33:39.796Z</time></trkpt><trkpt lat="42.860841863530794" lon="11.990874384652798"><ele>343.5</ele><time>2026-04-12T15:33:40.796Z</time></trkpt><trkpt lat="42.860805922222546" lon="11.990726207364375"><ele>349.0</ele><time>2026-04-12T15:33:41.796Z</time></trkpt><trkpt lat="42.86076767254576" lon="11.990581543227298"><ele>354.5</ele><time>2026-04-12T15:33:42.796Z</time></trkpt><trkpt lat="42.8607241893934" lon="11.990434098122602"><ele>360.0</ele><time>2026-04-12T15:33:43.796Z</time></trkpt><trkpt lat="42.86068701384" lon="11.990273851378467"><ele>360.0</ele><time>2026-04-12T15:33:44.796Z</time></trkpt><trkpt lat="42.86061839539352" lon="11.990126368823818"><ele>360.0</ele><time>2026-04-12T15:33:45.797Z</time></trkpt><trkpt lat="42.86053138291688" lon="11.98999795391192"><ele>360.0</ele><time>2026-04-12T15:33:46.797Z</time></trkpt><trkpt lat="42.86043877292092" lon="11.98988564480949"><ele>360.0</ele><time>2026-04-12T15:33:47.797Z</time></trkpt><trkpt lat="42.86033576411733" lon="11.989788216597493"><ele>359.25</ele><time>2026-04-12T15:33:48.797Z</time></trkpt><trkpt lat="42.86025318830783" lon="11.989659731216998"><ele>358.5</ele><time>2026-04-12T15:33:49.797Z</time></trkpt><trkpt lat="42.86018523382966" lon="11.989520220851695"><ele>357.75</ele><time>2026-04-12T15:33:50.797Z</time></trkpt><trkpt lat="42.86015279601064" lon="11.989369881052399"><ele>357.0</ele><time>2026-04-12T15:33:51.797Z</time></trkpt><trkpt lat="42.86015505464808" lon="11.989215727212514"><ele>356.75</ele><time>2026-04-12T15:33:52.797Z</time></trkpt><trkpt lat="42.86012490319987" lon="11.989069094267936"><ele>356.5</ele><time>2026-04-12T15:33:53.797Z</time></trkpt><trkpt lat="42.860115850957385" lon="11.988906771333008"><ele>356.25</ele><time>2026-04-12T15:33:54.797Z</time></trkpt><trkpt lat="42.86005424276255" lon="11.988775451211893"><ele>356.0</ele><time>2026-04-12T15:33:55.797Z</time></trkpt><trkpt lat="42.85999262951219" lon="11.988643952122816"><ele>356.0</ele><time>2026-04-12T15:33:56.797Z</time></trkpt><trkpt lat="42.85992931428511" lon="11.988514972864202"><ele>356.0</ele><time>2026-04-12T15:33:57.797Z</time></trkpt><trkpt lat="42.85986524290982" lon="11.988383282870332"><ele>356.0</ele><time>2026-04-12T15:33:58.797Z</time></trkpt><trkpt lat="42.859755653334865" lon="11.988289167199351"><ele>356.0</ele><time>2026-04-12T15:33:59.797Z</time></trkpt><trkpt lat="42.85963944719162" lon="11.98825421384908"><ele>356.20000000000005</ele><time>2026-04-12T15:34:00.797Z</time></trkpt><trkpt lat="42.85952758416451" lon="11.98820196186925"><ele>356.40000000000003</ele><time>2026-04-12T15:34:01.797Z</time></trkpt><trkpt lat="42.85944974631104" lon="11.988110736882012"><ele>356.6</ele><time>2026-04-12T15:34:02.797Z</time></trkpt><trkpt lat="42.859381920591254" lon="11.988018361623418"><ele>356.8</ele><time>2026-04-12T15:34:03.797Z</time></trkpt><trkpt lat="42.85931018773202" lon="11.987906115944966"><ele>357.0</ele><time>2026-04-12T15:34:04.797Z</time></trkpt><trkpt lat="42.85923562656197" lon="11.98780222107937"><ele>357.0</ele><time>2026-04-12T15:34:05.797Z</time></trkpt><trkpt lat="42.85915612081998" lon="11.987724997276363"><ele>357.0</ele><time>2026-04-12T15:34:06.797Z</time></trkpt><trkpt lat="42.85906838737263" lon="11.987675648230802"><ele>357.0</ele><time>2026-04-12T15:34:07.797Z</time></trkpt><trkpt lat="42.85896852338052" lon="11.987643987987354"><ele>357.0</ele><time>2026-04-12T15:34:08.797Z</time></trkpt><trkpt lat="42.858860154524905" lon="11.987658282753697"><ele>357.0</ele><time>2026-04-12T15:34:09.797Z</time></trkpt><trkpt lat="42.85875703424806" lon="11.987623950198358"><ele>357.0</ele><time>2026-04-12T15:34:10.797Z</time></trkpt><trkpt lat="42.858659357980905" lon="11.987544544649143"><ele>357.0</ele><time>2026-04-12T15:34:11.797Z</time></trkpt><trkpt lat="42.858585945406574" lon="11.987423064388302"><ele>357.0</ele><time>2026-04-12T15:34:12.797Z</time></trkpt><trkpt lat="42.85853023674988" lon="11.987276887989282"><ele>357.0</ele><time>2026-04-12T15:34:13.797Z</time></trkpt><trkpt lat="42.858480728817796" lon="11.9871069078276"><ele>354.5</ele><time>2026-04-12T15:34:14.797Z</time></trkpt><trkpt lat="42.858429863186835" lon="11.986919882164853"><ele>352.0</ele><time>2026-04-12T15:34:15.797Z</time></trkpt><trkpt lat="42.8583737212878" lon="11.98673053721976"><ele>349.5</ele><time>2026-04-12T15:34:16.797Z</time></trkpt><trkpt lat="42.85831633971343" lon="11.986547880068377"><ele>347.0</ele><time>2026-04-12T15:34:17.797Z</time></trkpt><trkpt lat="42.85826691426163" lon="11.986373886781392"><ele>343.25</ele><time>2026-04-12T15:34:18.797Z</time></trkpt><trkpt lat="42.85822342566761" lon="11.986220655681056"><ele>339.5</ele><time>2026-04-12T15:34:19.797Z</time></trkpt><trkpt lat="42.858195418136326" lon="11.986063886109589"><ele>335.75</ele><time>2026-04-12T15:34:20.797Z</time></trkpt><trkpt lat="42.85818941205375" lon="11.985905411169078"><ele>332.0</ele><time>2026-04-12T15:34:21.797Z</time></trkpt><trkpt lat="42.85821065801184" lon="11.985745554181774"><ele>329.5</ele><time>2026-04-12T15:34:22.797Z</time></trkpt><trkpt lat="42.85824692285573" lon="11.985579963808602"><ele>327.0</ele><time>2026-04-12T15:34:23.797Z</time></trkpt><trkpt lat="42.85829252239614" lon="11.985406871197444"><ele>324.5</ele><time>2026-04-12T15:34:24.797Z</time></trkpt><trkpt lat="42.85833475938134" lon="11.985232331857494"><ele>322.0</ele><time>2026-04-12T15:34:25.797Z</time></trkpt><trkpt lat="42.85836379966779" lon="11.98505783300371"><ele>320.5</ele><time>2026-04-12T15:34:26.797Z</time></trkpt><trkpt lat="42.858389094074006" lon="11.984887440273049"><ele>319.0</ele><time>2026-04-12T15:34:27.796Z</time></trkpt><trkpt lat="42.858365609162526" lon="11.984724889912382"><ele>317.5</ele><time>2026-04-12T15:34:28.796Z</time></trkpt><trkpt lat="42.858339029411354" lon="11.984558382900676"><ele>316.0</ele><time>2026-04-12T15:34:29.796Z</time></trkpt><trkpt lat="42.858295670929344" lon="11.984389140206321"><ele>316.0</ele><time>2026-04-12T15:34:30.796Z</time></trkpt><trkpt lat="42.85823234558412" lon="11.984209943801234"><ele>316.0</ele><time>2026-04-12T15:34:31.796Z</time></trkpt><trkpt lat="42.8581590406005" lon="11.984036113575758"><ele>316.0</ele><time>2026-04-12T15:34:32.796Z</time></trkpt><trkpt lat="42.85809575250663" lon="11.983842876283122"><ele>316.0</ele><time>2026-04-12T15:34:33.796Z</time></trkpt><trkpt lat="42.85800839036792" lon="11.983675795032049"><ele>316.75</ele><time>2026-04-12T15:34:34.796Z</time></trkpt><trkpt lat="42.857954080015055" lon="11.983513955777122"><ele>317.5</ele><time>2026-04-12T15:34:35.796Z</time></trkpt><trkpt lat="42.85792000212586" lon="11.983360516925988"><ele>318.25</ele><time>2026-04-12T15:34:36.796Z</time></trkpt><trkpt lat="42.85790294047604" lon="11.983215601332322"><ele>319.0</ele><time>2026-04-12T15:34:37.796Z</time></trkpt><trkpt lat="42.857929019536165" lon="11.983066740787232"><ele>320.0</ele><time>2026-04-12T15:34:38.796Z</time></trkpt><trkpt lat="42.85797858264694" lon="11.982908449434614"><ele>321.0</ele><time>2026-04-12T15:34:39.796Z</time></trkpt><trkpt lat="42.858021770038384" lon="11.982739849016548"><ele>322.0</ele><time>2026-04-12T15:34:40.796Z</time></trkpt><trkpt lat="42.85803588523905" lon="11.98256066889641"><ele>323.0</ele><time>2026-04-12T15:34:41.796Z</time></trkpt><trkpt lat="42.8580331445254" lon="11.982374343506404"><ele>325.25</ele><time>2026-04-12T15:34:42.796Z</time></trkpt><trkpt lat="42.858038039239844" lon="11.982186334486416"><ele>327.5</ele><time>2026-04-12T15:34:43.796Z</time></trkpt><trkpt lat="42.858073480599266" lon="11.98199728542353"><ele>329.75</ele><time>2026-04-12T15:34:44.796Z</time></trkpt><trkpt lat="42.85813898228664" lon="11.981807462246826"><ele>332.0</ele><time>2026-04-12T15:34:45.796Z</time></trkpt><trkpt lat="42.85820387318864" lon="11.981635352741353"><ele>334.0</ele><time>2026-04-12T15:34:46.796Z</time></trkpt><trkpt lat="42.858256923141425" lon="11.981482852479548"><ele>336.0</ele><time>2026-04-12T15:34:47.796Z</time></trkpt><trkpt lat="42.8583204750702" lon="11.98133882165217"><ele>338.0</ele><time>2026-04-12T15:34:48.796Z</time></trkpt><trkpt lat="42.858391776590935" lon="11.981208480996127"><ele>340.0</ele><time>2026-04-12T15:34:49.796Z</time></trkpt><trkpt lat="42.85846225166329" lon="11.981088301452095"><ele>340.0</ele><time>2026-04-12T15:34:50.796Z</time></trkpt><trkpt lat="42.85853337686152" lon="11.98094705924438"><ele>340.0</ele><time>2026-04-12T15:34:51.796Z</time></trkpt><trkpt lat="42.85859823287272" lon="11.98078449767986"><ele>340.0</ele><time>2026-04-12T15:34:52.796Z</time></trkpt><trkpt lat="42.858667750843644" lon="11.980617257649087"><ele>340.0</ele><time>2026-04-12T15:34:53.796Z</time></trkpt><trkpt lat="42.85872493976915" lon="11.980436491622726"><ele>340.0</ele><time>2026-04-12T15:34:54.796Z</time></trkpt><trkpt lat="42.85875863368774" lon="11.980241198612013"><ele>340.0</ele><time>2026-04-12T15:34:55.796Z</time></trkpt><trkpt lat="42.85876814819146" lon="11.980042019508492"><ele>340.0</ele><time>2026-04-12T15:34:56.795Z</time></trkpt><trkpt lat="42.858762105225374" lon="11.979850241971233"><ele>340.0</ele><time>2026-04-12T15:34:57.795Z</time></trkpt><trkpt lat="42.85875333369667" lon="11.9796705031693"><ele>339.5</ele><time>2026-04-12T15:34:58.795Z</time></trkpt><trkpt lat="42.85876098964006" lon="11.979504934478152"><ele>339.0</ele><time>2026-04-12T15:34:59.795Z</time></trkpt><trkpt lat="42.85879629172194" lon="11.97934135329844"><ele>338.5</ele><time>2026-04-12T15:35:00.795Z</time></trkpt><trkpt lat="42.85884019775461" lon="11.979170582729738"><ele>338.0</ele><time>2026-04-12T15:35:01.795Z</time></trkpt><trkpt lat="42.85889627534381" lon="11.978992483314853"><ele>338.0</ele><time>2026-04-12T15:35:02.795Z</time></trkpt><trkpt lat="42.8589535364195" lon="11.978814168444574"><ele>338.0</ele><time>2026-04-12T15:35:03.795Z</time></trkpt><trkpt lat="42.85902284065683" lon="11.978631631618113"><ele>338.0</ele><time>2026-04-12T15:35:04.795Z</time></trkpt><trkpt lat="42.859095980557896" lon="11.978448371606044"><ele>338.0</ele><time>2026-04-12T15:35:05.795Z</time></trkpt><trkpt lat="42.8591817700145" lon="11.978262121992582"><ele>338.33333333333337</ele><time>2026-04-12T15:35:06.795Z</time></trkpt><trkpt lat="42.859269102006024" lon="11.978078681451928"><ele>338.6666666666667</ele><time>2026-04-12T15:35:07.795Z</time></trkpt><trkpt lat="42.85936102595528" lon="11.977893299456232"><ele>339.0</ele><time>2026-04-12T15:35:08.795Z</time></trkpt><trkpt lat="42.85945402487368" lon="11.977713082775596"><ele>340.0</ele><time>2026-04-12T15:35:09.795Z</time></trkpt><trkpt lat="42.85955413718059" lon="11.977530655290625"><ele>341.0</ele><time>2026-04-12T15:35:10.795Z</time></trkpt><trkpt lat="42.85964454976303" lon="11.977356186583595"><ele>342.0</ele><time>2026-04-12T15:35:11.795Z</time></trkpt><trkpt lat="42.8597205011781" lon="11.977199345934594"><ele>342.0</ele><time>2026-04-12T15:35:12.795Z</time></trkpt><trkpt lat="42.85978999606692" lon="11.97705184209648"><ele>342.0</ele><time>2026-04-12T15:35:13.795Z</time></trkpt><trkpt lat="42.85987612281386" lon="11.97693683364117"><ele>342.0</ele><time>2026-04-12T15:35:14.795Z</time></trkpt><trkpt lat="42.8599524374139" lon="11.97681762581496"><ele>342.0</ele><time>2026-04-12T15:35:15.795Z</time></trkpt><trkpt lat="42.860031545689914" lon="11.976720385620435"><ele>342.8</ele><time>2026-04-12T15:35:16.795Z</time></trkpt><trkpt lat="42.860115329492075" lon="11.976652016197384"><ele>343.6</ele><time>2026-04-12T15:35:17.795Z</time></trkpt><trkpt lat="42.86019022946194" lon="11.976568240749058"><ele>344.40000000000003</ele><time>2026-04-12T15:35:18.795Z</time></trkpt><trkpt lat="42.86027832754295" lon="11.976499842759456"><ele>345.20000000000005</ele><time>2026-04-12T15:35:19.795Z</time></trkpt><trkpt lat="42.860366850712374" lon="11.976440631133105"><ele>346.0</ele><time>2026-04-12T15:35:20.795Z</time></trkpt><trkpt lat="42.86045747381967" lon="11.976377726045728"><ele>346.0</ele><time>2026-04-12T15:35:21.795Z</time></trkpt><trkpt lat="42.860548325657135" lon="11.976316909784689"><ele>346.0</ele><time>2026-04-12T15:35:22.795Z</time></trkpt><trkpt lat="42.86065169090998" lon="11.976243616724087"><ele>346.0</ele><time>2026-04-12T15:35:23.794Z</time></trkpt><trkpt lat="42.86076756304318" lon="11.976180946589091"><ele>346.0</ele><time>2026-04-12T15:35:24.794Z</time></trkpt><trkpt lat="42.8608985504922" lon="11.976129899663164"><ele>344.5</ele><time>2026-04-12T15:35:25.794Z</time></trkpt><trkpt lat="42.861033596896085" lon="11.976074248910663"><ele>343.0</ele><time>2026-04-12T15:35:26.794Z</time></trkpt><trkpt lat="42.86117418042826" lon="11.976010002352337"><ele>341.5</ele><time>2026-04-12T15:35:27.794Z</time></trkpt><trkpt lat="42.86131087725716" lon="11.97595585619823"><ele>340.0</ele><time>2026-04-12T15:35:28.794Z</time></trkpt><trkpt lat="42.86143738387546" lon="11.975907169189"><ele>342.2</ele><time>2026-04-12T15:35:29.794Z</time></trkpt><trkpt lat="42.861558286073965" lon="11.975845876555075"><ele>344.4</ele><time>2026-04-12T15:35:30.794Z</time></trkpt><trkpt lat="42.861662939422736" lon="11.9757713343977"><ele>346.6</ele><time>2026-04-12T15:35:31.794Z</time></trkpt><trkpt lat="42.86174752012204" lon="11.975678017421075"><ele>348.8</ele><time>2026-04-12T15:35:32.796Z</time></trkpt><trkpt lat="42.861794052984045" lon="11.975586587020853"><ele>351.0</ele><time>2026-04-12T15:35:33.796Z</time></trkpt><trkpt lat="42.86181288285162" lon="11.975474591476077"><ele>351.0</ele><time>2026-04-12T15:35:34.796Z</time></trkpt><trkpt lat="42.86180886193572" lon="11.975364697098009"><ele>351.0</ele><time>2026-04-12T15:35:35.796Z</time></trkpt><trkpt lat="42.86180206783026" lon="11.97524219927744"><ele>351.0</ele><time>2026-04-12T15:35:36.796Z</time></trkpt><trkpt lat="42.861748581357446" lon="11.975115031718225"><ele>351.0</ele><time>2026-04-12T15:35:37.796Z</time></trkpt><trkpt lat="42.861667978551836" lon="11.975003726248907"><ele>351.0</ele><time>2026-04-12T15:35:38.796Z</time></trkpt><trkpt lat="42.86157970988302" lon="11.974871832397524"><ele>353.5</ele><time>2026-04-12T15:35:39.795Z</time></trkpt><trkpt lat="42.861490049365855" lon="11.974729062225265"><ele>356.0</ele><time>2026-04-12T15:35:40.795Z</time></trkpt><trkpt lat="42.86137227276874" lon="11.974614108585111"><ele>358.5</ele><time>2026-04-12T15:35:41.795Z</time></trkpt><trkpt lat="42.86124861457867" lon="11.974498856502379"><ele>361.0</ele><time>2026-04-12T15:35:42.795Z</time></trkpt><trkpt lat="42.86112475955505" lon="11.974395555602367"><ele>361.0</ele><time>2026-04-12T15:35:43.795Z</time></trkpt><trkpt lat="42.8610198166081" lon="11.974278744753189"><ele>361.0</ele><time>2026-04-12T15:35:44.795Z</time></trkpt><trkpt lat="42.86091796884064" lon="11.974166679775767"><ele>361.0</ele><time>2026-04-12T15:35:45.795Z</time></trkpt><trkpt lat="42.86083533726149" lon="11.97405224557759"><ele>361.0</ele><time>2026-04-12T15:35:46.795Z</time></trkpt><trkpt lat="42.86076332691825" lon="11.9739097878141"><ele>361.5</ele><time>2026-04-12T15:35:47.795Z</time></trkpt><trkpt lat="42.86071157076102" lon="11.97375841964853"><ele>362.0</ele><time>2026-04-12T15:35:48.795Z</time></trkpt><trkpt lat="42.86067089651456" lon="11.973597121201198"><ele>362.5</ele><time>2026-04-12T15:35:49.795Z</time></trkpt><trkpt lat="42.86063101116963" lon="11.973419916002493"><ele>363.0</ele><time>2026-04-12T15:35:50.795Z</time></trkpt><trkpt lat="42.86059149937362" lon="11.973233891448912"><ele>363.3333333333333</ele><time>2026-04-12T15:35:51.795Z</time></trkpt><trkpt lat="42.86054120556576" lon="11.973045568252232"><ele>363.66666666666663</ele><time>2026-04-12T15:35:52.795Z</time></trkpt><trkpt lat="42.860483604062004" lon="11.972849875857957"><ele>364.0</ele><time>2026-04-12T15:35:53.795Z</time></trkpt><trkpt lat="42.86042507899527" lon="11.972647294228468"><ele>363.5</ele><time>2026-04-12T15:35:54.795Z</time></trkpt><trkpt lat="42.8603705843634" lon="11.972449115663991"><ele>363.0</ele><time>2026-04-12T15:35:55.795Z</time></trkpt><trkpt lat="42.86031679869164" lon="11.972262083371609"><ele>362.5</ele><time>2026-04-12T15:35:56.795Z</time></trkpt><trkpt lat="42.860261902916996" lon="11.972080808544053"><ele>362.0</ele><time>2026-04-12T15:35:57.795Z</time></trkpt><trkpt lat="42.86020222187744" lon="11.971903489711703"><ele>362.0</ele><time>2026-04-12T15:35:58.795Z</time></trkpt><trkpt lat="42.86014101575446" lon="11.971724884931323"><ele>362.0</ele><time>2026-04-12T15:35:59.795Z</time></trkpt><trkpt lat="42.86008554841009" lon="11.971554010735913"><ele>362.0</ele><time>2026-04-12T15:36:00.795Z</time></trkpt><trkpt lat="42.860051033749556" lon="11.971392366309471"><ele>362.0</ele><time>2026-04-12T15:36:01.795Z</time></trkpt><trkpt lat="42.86003661638089" lon="11.97123315583873"><ele>362.5</ele><time>2026-04-12T15:36:02.795Z</time></trkpt><trkpt lat="42.86004065135674" lon="11.971067102683504"><ele>363.0</ele><time>2026-04-12T15:36:03.795Z</time></trkpt><trkpt lat="42.86005048767302" lon="11.970880218886649"><ele>363.5</ele><time>2026-04-12T15:36:04.795Z</time></trkpt><trkpt lat="42.860056722181696" lon="11.970678472189933"><ele>364.0</ele><time>2026-04-12T15:36:05.795Z</time></trkpt><trkpt lat="42.860060019828744" lon="11.97047854841901"><ele>364.75</ele><time>2026-04-12T15:36:06.795Z</time></trkpt><trkpt lat="42.860064645822405" lon="11.970283426525025"><ele>365.5</ele><time>2026-04-12T15:36:07.795Z</time></trkpt><trkpt lat="42.860071532923335" lon="11.970105762040646"><ele>366.25</ele><time>2026-04-12T15:36:08.795Z</time></trkpt><trkpt lat="42.86007271939919" lon="11.969926041150275"><ele>367.0</ele><time>2026-04-12T15:36:09.795Z</time></trkpt><trkpt lat="42.860063200969556" lon="11.969750891348477"><ele>367.75</ele><time>2026-04-12T15:36:10.795Z</time></trkpt><trkpt lat="42.86004670899807" lon="11.96957468334475"><ele>368.5</ele><time>2026-04-12T15:36:11.795Z</time></trkpt><trkpt lat="42.86002276155417" lon="11.96939550540769"><ele>369.25</ele><time>2026-04-12T15:36:12.794Z</time></trkpt><trkpt lat="42.85998843356044" lon="11.9692175122164"><ele>370.0</ele><time>2026-04-12T15:36:13.794Z</time></trkpt><trkpt lat="42.859936366831825" lon="11.969055576413131"><ele>371.0</ele><time>2026-04-12T15:36:14.794Z</time></trkpt><trkpt lat="42.85987152019353" lon="11.968918739540152"><ele>372.0</ele><time>2026-04-12T15:36:15.794Z</time></trkpt><trkpt lat="42.85981239645753" lon="11.968780643499876"><ele>373.0</ele><time>2026-04-12T15:36:16.794Z</time></trkpt><trkpt lat="42.85976553508127" lon="11.96863284690944"><ele>374.0</ele><time>2026-04-12T15:36:17.794Z</time></trkpt><trkpt lat="42.859717933179276" lon="11.968485104673707"><ele>374.5</ele><time>2026-04-12T15:36:18.794Z</time></trkpt><trkpt lat="42.85968454926401" lon="11.968328517360673"><ele>375.0</ele><time>2026-04-12T15:36:19.794Z</time></trkpt><trkpt lat="42.859675511293084" lon="11.968158992673352"><ele>375.5</ele><time>2026-04-12T15:36:20.794Z</time></trkpt><trkpt lat="42.85966806152073" lon="11.967987357298913"><ele>376.0</ele><time>2026-04-12T15:36:21.794Z</time></trkpt><trkpt lat="42.859648227274484" lon="11.967808594800536"><ele>376.0</ele><time>2026-04-12T15:36:22.794Z</time></trkpt><trkpt lat="42.85960608672419" lon="11.96763443906091"><ele>376.0</ele><time>2026-04-12T15:36:23.794Z</time></trkpt><trkpt lat="42.85954442993214" lon="11.967476285030076"><ele>376.0</ele><time>2026-04-12T15:36:24.794Z</time></trkpt><trkpt lat="42.85947812662412" lon="11.967323390914133"><ele>376.0</ele><time>2026-04-12T15:36:25.794Z</time></trkpt><trkpt lat="42.85939656155155" lon="11.967181437686735"><ele>373.5</ele><time>2026-04-12T15:36:26.794Z</time></trkpt><trkpt lat="42.85931355157105" lon="11.967032954649811"><ele>371.0</ele><time>2026-04-12T15:36:27.794Z</time></trkpt><trkpt lat="42.859226664300294" lon="11.96687366573007"><ele>368.5</ele><time>2026-04-12T15:36:28.794Z</time></trkpt><trkpt lat="42.85913388423628" lon="11.96671026740589"><ele>366.0</ele><time>2026-04-12T15:36:29.794Z</time></trkpt><trkpt lat="42.85904104970382" lon="11.966539154788052"><ele>366.0</ele><time>2026-04-12T15:36:30.794Z</time></trkpt><trkpt lat="42.85894727257912" lon="11.966371506846249"><ele>366.0</ele><time>2026-04-12T15:36:31.794Z</time></trkpt><trkpt lat="42.858855979106465" lon="11.966198017955126"><ele>366.0</ele><time>2026-04-12T15:36:32.794Z</time></trkpt><trkpt lat="42.85876805147647" lon="11.966036878704449"><ele>366.0</ele><time>2026-04-12T15:36:33.794Z</time></trkpt><trkpt lat="42.85867976873716" lon="11.965884650914669"><ele>366.0</ele><time>2026-04-12T15:36:34.794Z</time></trkpt><trkpt lat="42.858580992058805" lon="11.965714774342224"><ele>366.0</ele><time>2026-04-12T15:36:35.794Z</time></trkpt><trkpt lat="42.858493009591534" lon="11.96555016339118"><ele>366.25</ele><time>2026-04-12T15:36:36.794Z</time></trkpt><trkpt lat="42.85840794092894" lon="11.965392167388401"><ele>366.5</ele><time>2026-04-12T15:36:37.794Z</time></trkpt><trkpt lat="42.85833042784099" lon="11.965241303543177"><ele>366.75</ele><time>2026-04-12T15:36:38.794Z</time></trkpt><trkpt lat="42.858260251771696" lon="11.965104540121944"><ele>367.0</ele><time>2026-04-12T15:36:39.793Z</time></trkpt><trkpt lat="42.85818476668198" lon="11.964971064946372"><ele>368.5</ele><time>2026-04-12T15:36:40.793Z</time></trkpt><trkpt lat="42.85809392895868" lon="11.964837272377535"><ele>370.0</ele><time>2026-04-12T15:36:41.793Z</time></trkpt><trkpt lat="42.857997827609324" lon="11.964703401339095"><ele>371.5</ele><time>2026-04-12T15:36:42.793Z</time></trkpt><trkpt lat="42.85788753603331" lon="11.964578703415407"><ele>373.0</ele><time>2026-04-12T15:36:43.793Z</time></trkpt><trkpt lat="42.85775559239032" lon="11.964437388222583"><ele>373.0</ele><time>2026-04-12T15:36:44.793Z</time></trkpt><trkpt lat="42.85762936360844" lon="11.964305752443968"><ele>373.0</ele><time>2026-04-12T15:36:45.793Z</time></trkpt><trkpt lat="42.857501191659814" lon="11.964176190004805"><ele>373.0</ele><time>2026-04-12T15:36:46.793Z</time></trkpt><trkpt lat="42.857380508733264" lon="11.964020881132962"><ele>373.66666666666663</ele><time>2026-04-12T15:36:47.793Z</time></trkpt><trkpt lat="42.857238984888944" lon="11.963894437190524"><ele>374.3333333333333</ele><time>2026-04-12T15:36:48.793Z</time></trkpt><trkpt lat="42.85710233333859" lon="11.963746648447955"><ele>375.0</ele><time>2026-04-12T15:36:49.793Z</time></trkpt><trkpt lat="42.85697046926184" lon="11.963600169729922"><ele>375.0</ele><time>2026-04-12T15:36:50.793Z</time></trkpt><trkpt lat="42.8568355757785" lon="11.963448108303993"><ele>375.0</ele><time>2026-04-12T15:36:51.793Z</time></trkpt><trkpt lat="42.8566955027596" lon="11.963295793010204"><ele>375.0</ele><time>2026-04-12T15:36:52.793Z</time></trkpt><trkpt lat="42.85655389533198" lon="11.963142924384327"><ele>376.3333333333333</ele><time>2026-04-12T15:36:53.793Z</time></trkpt><trkpt lat="42.8564120779872" lon="11.962992717508826"><ele>377.66666666666663</ele><time>2026-04-12T15:36:54.793Z</time></trkpt><trkpt lat="42.85626692432549" lon="11.96283997283935"><ele>379.0</ele><time>2026-04-12T15:36:55.793Z</time></trkpt><trkpt lat="42.85613048786017" lon="11.962696633174435"><ele>379.0</ele><time>2026-04-12T15:36:56.793Z</time></trkpt><trkpt lat="42.8560108130274" lon="11.96255239015777"><ele>379.0</ele><time>2026-04-12T15:36:57.793Z</time></trkpt><trkpt lat="42.8559064057326" lon="11.962431414144772"><ele>379.0</ele><time>2026-04-12T15:36:58.793Z</time></trkpt><trkpt lat="42.85581807778957" lon="11.962318565856012"><ele>379.0</ele><time>2026-04-12T15:36:59.793Z</time></trkpt><trkpt lat="42.85574348571835" lon="11.962193927043835"><ele>382.2</ele><time>2026-04-12T15:37:00.793Z</time></trkpt><trkpt lat="42.85566067269251" lon="11.962096647011874"><ele>385.4</ele><time>2026-04-12T15:37:01.793Z</time></trkpt><trkpt lat="42.85556067344892" lon="11.96205419637734"><ele>388.6</ele><time>2026-04-12T15:37:02.793Z</time></trkpt><trkpt lat="42.85548435993771" lon="11.962020921325015"><ele>391.8</ele><time>2026-04-12T15:37:03.793Z</time></trkpt><trkpt lat="42.85538700446406" lon="11.962006345380969"><ele>395.0</ele><time>2026-04-12T15:37:04.793Z</time></trkpt><trkpt lat="42.85528805463875" lon="11.962020384692671"><ele>395.0</ele><time>2026-04-12T15:37:05.792Z</time></trkpt><trkpt lat="42.85517819142601" lon="11.962052403301616"><ele>395.0</ele><time>2026-04-12T15:37:06.792Z</time></trkpt><trkpt lat="42.85504475604866" lon="11.96209937453828"><ele>395.0</ele><time>2026-04-12T15:37:07.792Z</time></trkpt><trkpt lat="42.854889433626475" lon="11.962136946172654"><ele>395.0</ele><time>2026-04-12T15:37:08.792Z</time></trkpt><trkpt lat="42.854740306892765" lon="11.962151924947506"><ele>397.0</ele><time>2026-04-12T15:37:09.792Z</time></trkpt><trkpt lat="42.85460270066838" lon="11.96216156711773"><ele>399.0</ele><time>2026-04-12T15:37:10.792Z</time></trkpt><trkpt lat="42.85447939086963" lon="11.96214955284864"><ele>401.0</ele><time>2026-04-12T15:37:11.792Z</time></trkpt><trkpt lat="42.85436432004763" lon="11.962184835399373"><ele>403.0</ele><time>2026-04-12T15:37:12.792Z</time></trkpt><trkpt lat="42.85425230887628" lon="11.96223181620155"><ele>404.0</ele><time>2026-04-12T15:37:13.792Z</time></trkpt><trkpt lat="42.854136464866" lon="11.96228851697648"><ele>405.0</ele><time>2026-04-12T15:37:14.792Z</time></trkpt><trkpt lat="42.854014444544035" lon="11.962360247735232"><ele>406.0</ele><time>2026-04-12T15:37:15.792Z</time></trkpt><trkpt lat="42.85388267474927" lon="11.962438983033355"><ele>407.0</ele><time>2026-04-12T15:37:16.792Z</time></trkpt><trkpt lat="42.853744699363666" lon="11.962523882183852"><ele>408.66666666666663</ele><time>2026-04-12T15:37:17.792Z</time></trkpt><trkpt lat="42.853603573438434" lon="11.962584182166491"><ele>410.33333333333337</ele><time>2026-04-12T15:37:18.792Z</time></trkpt><trkpt lat="42.85345757675569" lon="11.962668639865157"><ele>412.0</ele><time>2026-04-12T15:37:19.792Z</time></trkpt><trkpt lat="42.85332165080854" lon="11.962767863161728"><ele>412.0</ele><time>2026-04-12T15:37:20.792Z</time></trkpt><trkpt lat="42.85318078478751" lon="11.962844272556454"><ele>412.0</ele><time>2026-04-12T15:37:21.792Z</time></trkpt><trkpt lat="42.85304465794784" lon="11.962919439808902"><ele>412.0</ele><time>2026-04-12T15:37:22.792Z</time></trkpt><trkpt lat="42.852926140687856" lon="11.962992215551479"><ele>412.0</ele><time>2026-04-12T15:37:23.792Z</time></trkpt><trkpt lat="42.85282041501347" lon="11.963060144399847"><ele>412.0</ele><time>2026-04-12T15:37:24.792Z</time></trkpt><trkpt lat="42.85271755301778" lon="11.963118049354511"><ele>412.0</ele><time>2026-04-12T15:37:25.792Z</time></trkpt><trkpt lat="42.852631920425665" lon="11.963162602053016"><ele>412.0</ele><time>2026-04-12T15:37:26.792Z</time></trkpt><trkpt lat="42.852557911725114" lon="11.963205621627171"><ele>412.0</ele><time>2026-04-12T15:37:27.792Z</time></trkpt><trkpt lat="42.85248560317486" lon="11.963263239208965"><ele>412.0</ele><time>2026-04-12T15:37:28.792Z</time></trkpt><trkpt lat="42.852410538169494" lon="11.963334541107802"><ele>411.6</ele><time>2026-04-12T15:37:29.792Z</time></trkpt><trkpt lat="42.85232633145713" lon="11.963401951313532"><ele>411.20000000000005</ele><time>2026-04-12T15:37:30.792Z</time></trkpt><trkpt lat="42.85227222425072" lon="11.963498965718639"><ele>410.8</ele><time>2026-04-12T15:37:31.792Z</time></trkpt><trkpt lat="42.852188024984365" lon="11.963588084056326"><ele>410.4</ele><time>2026-04-12T15:37:33.791Z</time></trkpt><trkpt lat="42.85212178768462" lon="11.963616801756508"><ele>410.0</ele><time>2026-04-12T15:37:37.791Z</time></trkpt><trkpt lat="42.85206060048135" lon="11.963465663731307"><ele>411.6</ele><time>2026-04-12T15:37:39.793Z</time></trkpt><trkpt lat="42.852045049580276" lon="11.96335103878789"><ele>413.2</ele><time>2026-04-12T15:37:40.793Z</time></trkpt><trkpt lat="42.85202320364702" lon="11.963219173660859"><ele>414.79999999999995</ele><time>2026-04-12T15:37:41.793Z</time></trkpt><trkpt lat="42.85201638653775" lon="11.9630522852654"><ele>416.4</ele><time>2026-04-12T15:37:42.793Z</time></trkpt><trkpt lat="42.85201255679392" lon="11.962875377785563"><ele>418.0</ele><time>2026-04-12T15:37:43.793Z</time></trkpt><trkpt lat="42.85200609649393" lon="11.962693347742434"><ele>419.25</ele><time>2026-04-12T15:37:44.792Z</time></trkpt><trkpt lat="42.851993533560616" lon="11.962531170022558"><ele>420.5</ele><time>2026-04-12T15:37:45.792Z</time></trkpt><trkpt lat="42.85196943213797" lon="11.962367116997365"><ele>421.75</ele><time>2026-04-12T15:37:46.792Z</time></trkpt><trkpt lat="42.85194058925501" lon="11.962194122219593"><ele>423.0</ele><time>2026-04-12T15:37:47.792Z</time></trkpt><trkpt lat="42.85190700750758" lon="11.96200701508407"><ele>423.0</ele><time>2026-04-12T15:37:48.793Z</time></trkpt><trkpt lat="42.8518754721355" lon="11.9618338541983"><ele>423.0</ele><time>2026-04-12T15:37:49.793Z</time></trkpt><trkpt lat="42.85185537648392" lon="11.961660640286754"><ele>423.0</ele><time>2026-04-12T15:37:50.793Z</time></trkpt><trkpt lat="42.8518457532547" lon="11.961484082022894"><ele>423.0</ele><time>2026-04-12T15:37:51.792Z</time></trkpt><trkpt lat="42.85184715203218" lon="11.961296262263325"><ele>421.5</ele><time>2026-04-12T15:37:52.792Z</time></trkpt><trkpt lat="42.85185721776298" lon="11.961107995036363"><ele>420.0</ele><time>2026-04-12T15:37:53.792Z</time></trkpt><trkpt lat="42.85187730007154" lon="11.960925856352288"><ele>418.5</ele><time>2026-04-12T15:37:54.792Z</time></trkpt><trkpt lat="42.851910755749664" lon="11.960755577397316"><ele>417.0</ele><time>2026-04-12T15:37:55.792Z</time></trkpt><trkpt lat="42.85194786042904" lon="11.960604685974841"><ele>417.0</ele><time>2026-04-12T15:37:56.792Z</time></trkpt><trkpt lat="42.85198694521035" lon="11.960461448227603"><ele>417.0</ele><time>2026-04-12T15:37:57.792Z</time></trkpt><trkpt lat="42.85201594524377" lon="11.96033642430645"><ele>417.0</ele><time>2026-04-12T15:37:58.792Z</time></trkpt><trkpt lat="42.852013988162184" lon="11.96021249859942"><ele>417.0</ele><time>2026-04-12T15:37:59.792Z</time></trkpt><trkpt lat="42.851983159304865" lon="11.960076217754647"><ele>417.0</ele><time>2026-04-12T15:38:00.792Z</time></trkpt><trkpt lat="42.851919034776486" lon="11.95994141214868"><ele>416.75</ele><time>2026-04-12T15:38:01.792Z</time></trkpt><trkpt lat="42.85186581029043" lon="11.959786799699767"><ele>416.5</ele><time>2026-04-12T15:38:02.792Z</time></trkpt><trkpt lat="42.8517944975206" lon="11.959624600088157"><ele>416.25</ele><time>2026-04-12T15:38:03.792Z</time></trkpt><trkpt lat="42.85170411839463" lon="11.959459878285998"><ele>416.0</ele><time>2026-04-12T15:38:04.792Z</time></trkpt><trkpt lat="42.85164664006386" lon="11.959272164918259"><ele>415.3333333333333</ele><time>2026-04-12T15:38:05.792Z</time></trkpt><trkpt lat="42.851571498027575" lon="11.95908653772017"><ele>414.66666666666663</ele><time>2026-04-12T15:38:06.792Z</time></trkpt><trkpt lat="42.85147935617705" lon="11.958902199567794"><ele>414.0</ele><time>2026-04-12T15:38:07.792Z</time></trkpt><trkpt lat="42.8514116636327" lon="11.958708500668017"><ele>414.0</ele><time>2026-04-12T15:38:08.791Z</time></trkpt><trkpt lat="42.85134907515702" lon="11.958527581496162"><ele>414.0</ele><time>2026-04-12T15:38:09.791Z</time></trkpt><trkpt lat="42.85127772305052" lon="11.95831211995188"><ele>414.0</ele><time>2026-04-12T15:38:10.791Z</time></trkpt><trkpt lat="42.85122919413863" lon="11.95812219795745"><ele>414.0</ele><time>2026-04-12T15:38:11.791Z</time></trkpt><trkpt lat="42.85118760937936" lon="11.957947419433374"><ele>414.0</ele><time>2026-04-12T15:38:12.791Z</time></trkpt><trkpt lat="42.85115460459994" lon="11.95777677442267"><ele>414.0</ele><time>2026-04-12T15:38:13.791Z</time></trkpt><trkpt lat="42.85112896754569" lon="11.957605829804775"><ele>414.0</ele><time>2026-04-12T15:38:14.791Z</time></trkpt><trkpt lat="42.85110724889896" lon="11.957427814912405"><ele>413.5</ele><time>2026-04-12T15:38:15.791Z</time></trkpt><trkpt lat="42.85109342152929" lon="11.957252053191626"><ele>413.0</ele><time>2026-04-12T15:38:16.791Z</time></trkpt><trkpt lat="42.851075798465224" lon="11.95707672398903"><ele>412.5</ele><time>2026-04-12T15:38:17.791Z</time></trkpt><trkpt lat="42.851045913398494" lon="11.95689746257136"><ele>412.0</ele><time>2026-04-12T15:38:18.791Z</time></trkpt><trkpt lat="42.85099856579126" lon="11.956728000345688"><ele>411.0</ele><time>2026-04-12T15:38:19.791Z</time></trkpt><trkpt lat="42.85093772242648" lon="11.956556929142248"><ele>410.0</ele><time>2026-04-12T15:38:20.791Z</time></trkpt><trkpt lat="42.850869867397186" lon="11.956399622477448"><ele>409.0</ele><time>2026-04-12T15:38:21.791Z</time></trkpt><trkpt lat="42.85080922686124" lon="11.956264388268973"><ele>408.0</ele><time>2026-04-12T15:38:22.791Z</time></trkpt><trkpt lat="42.85076708275015" lon="11.956148454794292"><ele>408.0</ele><time>2026-04-12T15:38:23.791Z</time></trkpt><trkpt lat="42.85072647988134" lon="11.956027245176054"><ele>408.0</ele><time>2026-04-12T15:38:24.791Z</time></trkpt><trkpt lat="42.85068650120941" lon="11.955898957480722"><ele>408.0</ele><time>2026-04-12T15:38:25.791Z</time></trkpt><trkpt lat="42.850644807187145" lon="11.955768054386068"><ele>408.0</ele><time>2026-04-12T15:38:26.791Z</time></trkpt><trkpt lat="42.85061865812411" lon="11.955620444030144"><ele>408.0</ele><time>2026-04-12T15:38:27.791Z</time></trkpt><trkpt lat="42.850611143919465" lon="11.95549928554906"><ele>408.0</ele><time>2026-04-12T15:38:28.791Z</time></trkpt><trkpt lat="42.85061890235201" lon="11.955413736647673"><ele>408.0</ele><time>2026-04-12T15:38:29.791Z</time></trkpt><trkpt lat="42.85065270775184" lon="11.955313105201665"><ele>408.0</ele><time>2026-04-12T15:38:33.791Z</time></trkpt><trkpt lat="42.850650019415674" lon="11.95522335516668"><ele>408.0</ele><time>2026-04-12T15:38:46.79Z</time></trkpt><trkpt lat="42.85055245685881" lon="11.95514618550786"><ele>408.0</ele><time>2026-04-12T15:38:48.79Z</time></trkpt><trkpt lat="42.85047806722834" lon="11.95508273260958"><ele>408.0</ele><time>2026-04-12T15:38:49.79Z</time></trkpt><trkpt lat="42.850415915137354" lon="11.954965493476207"><ele>408.5</ele><time>2026-04-12T15:38:50.79Z</time></trkpt><trkpt lat="42.850369084592835" lon="11.954813588598906"><ele>409.0</ele><time>2026-04-12T15:38:51.79Z</time></trkpt><trkpt lat="42.850362833504015" lon="11.954665406240293"><ele>409.5</ele><time>2026-04-12T15:38:52.79Z</time></trkpt><trkpt lat="42.85041204207795" lon="11.954519664529814"><ele>410.0</ele><time>2026-04-12T15:38:53.79Z</time></trkpt><trkpt lat="42.850435906858024" lon="11.954370660649376"><ele>410.5</ele><time>2026-04-12T15:38:54.79Z</time></trkpt><trkpt lat="42.85043852465058" lon="11.954193101885137"><ele>411.0</ele><time>2026-04-12T15:38:55.79Z</time></trkpt><trkpt lat="42.85039021844245" lon="11.954024812839638"><ele>411.5</ele><time>2026-04-12T15:38:56.79Z</time></trkpt><trkpt lat="42.850320785773356" lon="11.953888666054327"><ele>412.0</ele><time>2026-04-12T15:38:57.79Z</time></trkpt><trkpt lat="42.850223846136" lon="11.953808014459057"><ele>412.0</ele><time>2026-04-12T15:38:58.79Z</time></trkpt><trkpt lat="42.85014073745544" lon="11.953741288613475"><ele>412.0</ele><time>2026-04-12T15:38:59.79Z</time></trkpt><trkpt lat="42.85005432732559" lon="11.953694542507243"><ele>412.0</ele><time>2026-04-12T15:39:00.79Z</time></trkpt><trkpt lat="42.84996585949222" lon="11.953648294665047"><ele>412.0</ele><time>2026-04-12T15:39:01.789Z</time></trkpt><trkpt lat="42.84989560855838" lon="11.953533764463323"><ele>412.0</ele><time>2026-04-12T15:39:02.789Z</time></trkpt><trkpt lat="42.849819023230886" lon="11.953422693876162"><ele>415.75</ele><time>2026-04-12T15:39:03.789Z</time></trkpt><trkpt lat="42.84976647418896" lon="11.95326016200664"><ele>419.5</ele><time>2026-04-12T15:39:04.789Z</time></trkpt><trkpt lat="42.84971519104563" lon="11.95308380078219"><ele>423.25</ele><time>2026-04-12T15:39:05.789Z</time></trkpt><trkpt lat="42.849656992209475" lon="11.952913313043167"><ele>427.0</ele><time>2026-04-12T15:39:06.789Z</time></trkpt><trkpt lat="42.849572542485966" lon="11.952768341078288"><ele>427.0</ele><time>2026-04-12T15:39:07.789Z</time></trkpt><trkpt lat="42.849478034384184" lon="11.952636427830313"><ele>427.0</ele><time>2026-04-12T15:39:08.789Z</time></trkpt><trkpt lat="42.849395656952865" lon="11.95253269818978"><ele>427.0</ele><time>2026-04-12T15:39:09.789Z</time></trkpt><trkpt lat="42.849303516834865" lon="11.952404009032486"><ele>427.0</ele><time>2026-04-12T15:39:10.789Z</time></trkpt><trkpt lat="42.84925250755782" lon="11.952266844771467"><ele>428.0</ele><time>2026-04-12T15:39:11.789Z</time></trkpt><trkpt lat="42.849202564304356" lon="11.952141244776993"><ele>429.0</ele><time>2026-04-12T15:39:12.789Z</time></trkpt><trkpt lat="42.84919396956184" lon="11.951959568024996"><ele>430.0</ele><time>2026-04-12T15:39:13.789Z</time></trkpt><trkpt lat="42.84921956440369" lon="11.951788902428191"><ele>431.0</ele><time>2026-04-12T15:39:14.789Z</time></trkpt><trkpt lat="42.84927778238938" lon="11.951623695443933"><ele>432.25</ele><time>2026-04-12T15:39:15.789Z</time></trkpt><trkpt lat="42.84937172287807" lon="11.951493284217038"><ele>433.5</ele><time>2026-04-12T15:39:16.789Z</time></trkpt><trkpt lat="42.84945710288472" lon="11.951349692788954"><ele>434.75</ele><time>2026-04-12T15:39:17.789Z</time></trkpt><trkpt lat="42.84954571446808" lon="11.951234627519938"><ele>436.0</ele><time>2026-04-12T15:39:18.789Z</time></trkpt><trkpt lat="42.84961282511706" lon="11.951113860701888"><ele>436.0</ele><time>2026-04-12T15:39:19.789Z</time></trkpt><trkpt lat="42.84965319200863" lon="11.950984266107248"><ele>436.0</ele><time>2026-04-12T15:39:20.789Z</time></trkpt><trkpt lat="42.84966858637705" lon="11.950841054414036"><ele>436.0</ele><time>2026-04-12T15:39:21.789Z</time></trkpt><trkpt lat="42.849660915754384" lon="11.950699431261866"><ele>436.0</ele><time>2026-04-12T15:39:22.789Z</time></trkpt><trkpt lat="42.84963518844751" lon="11.950573941943565"><ele>436.0</ele><time>2026-04-12T15:39:23.789Z</time></trkpt><trkpt lat="42.84960074813172" lon="11.950451411736177"><ele>437.0</ele><time>2026-04-12T15:39:24.789Z</time></trkpt><trkpt lat="42.84958188733943" lon="11.95031717849759"><ele>438.0</ele><time>2026-04-12T15:39:25.789Z</time></trkpt><trkpt lat="42.849599300220426" lon="11.950184453717368"><ele>439.0</ele><time>2026-04-12T15:39:26.789Z</time></trkpt><trkpt lat="42.84965176295162" lon="11.950046987984445"><ele>440.0</ele><time>2026-04-12T15:39:27.789Z</time></trkpt><trkpt lat="42.84974402004869" lon="11.949938205190229"><ele>441.0</ele><time>2026-04-12T15:39:28.788Z</time></trkpt><trkpt lat="42.849843894404735" lon="11.949796044822996"><ele>439.33333333333337</ele><time>2026-04-12T15:39:29.788Z</time></trkpt><trkpt lat="42.849948128656045" lon="11.94963106673738"><ele>437.6666666666667</ele><time>2026-04-12T15:39:30.788Z</time></trkpt><trkpt lat="42.850060860657635" lon="11.949478579319365"><ele>436.0</ele><time>2026-04-12T15:39:31.788Z</time></trkpt><trkpt lat="42.85016494983149" lon="11.949328494724796"><ele>438.5</ele><time>2026-04-12T15:39:32.788Z</time></trkpt><trkpt lat="42.85026480115812" lon="11.949182791645924"><ele>441.0</ele><time>2026-04-12T15:39:33.788Z</time></trkpt><trkpt lat="42.85037061495251" lon="11.949055233510705"><ele>443.5</ele><time>2026-04-12T15:39:34.788Z</time></trkpt><trkpt lat="42.85045671547169" lon="11.948928867617148"><ele>446.0</ele><time>2026-04-12T15:39:35.788Z</time></trkpt><trkpt lat="42.85051077988599" lon="11.948819878226198"><ele>445.99999999999994</ele><time>2026-04-12T15:39:36.788Z</time></trkpt><trkpt lat="42.85053221293237" lon="11.948713360374363"><ele>446.0</ele><time>2026-04-12T15:39:37.788Z</time></trkpt><trkpt lat="42.85052432856628" lon="11.948615680234997"><ele>446.0</ele><time>2026-04-12T15:39:38.788Z</time></trkpt><trkpt lat="42.850435384126435" lon="11.948513472615137"><ele>446.0</ele><time>2026-04-12T15:39:40.788Z</time></trkpt><trkpt lat="42.85036647756133" lon="11.948517578792437"><ele>445.99999999999994</ele><time>2026-04-12T15:39:41.788Z</time></trkpt><trkpt lat="42.8502906764835" lon="11.94856361031825"><ele>446.0</ele><time>2026-04-12T15:39:42.788Z</time></trkpt><trkpt lat="42.85019221781668" lon="11.948601386963835"><ele>450.75</ele><time>2026-04-12T15:39:43.79Z</time></trkpt><trkpt lat="42.85008145707167" lon="11.9486727951146"><ele>455.5</ele><time>2026-04-12T15:39:44.791Z</time></trkpt><trkpt lat="42.84995039444428" lon="11.94875629952519"><ele>460.25</ele><time>2026-04-12T15:39:45.791Z</time></trkpt><trkpt lat="42.84981267938843" lon="11.948866799146444"><ele>465.0</ele><time>2026-04-12T15:39:46.79Z</time></trkpt><trkpt lat="42.84968471070491" lon="11.94891740272664"><ele>465.0</ele><time>2026-04-12T15:39:47.79Z</time></trkpt><trkpt lat="42.84960159404159" lon="11.948978665625352"><ele>465.0</ele><time>2026-04-12T15:39:48.79Z</time></trkpt><trkpt lat="42.849497889461965" lon="11.949038265004177"><ele>465.0</ele><time>2026-04-12T15:39:49.791Z</time></trkpt><trkpt lat="42.84935319998978" lon="11.949095964251098"><ele>465.0</ele><time>2026-04-12T15:39:50.79Z</time></trkpt><trkpt lat="42.84921291666553" lon="11.949181301790302"><ele>464.25</ele><time>2026-04-12T15:39:51.79Z</time></trkpt><trkpt lat="42.84910207479314" lon="11.949268280982807"><ele>463.5</ele><time>2026-04-12T15:39:52.79Z</time></trkpt><trkpt lat="42.84900782791168" lon="11.949369891451136"><ele>462.75</ele><time>2026-04-12T15:39:53.79Z</time></trkpt><trkpt lat="42.848911374248736" lon="11.949472676256152"><ele>462.0</ele><time>2026-04-12T15:39:54.79Z</time></trkpt><trkpt lat="42.84880097492268" lon="11.949554897097673"><ele>462.0</ele><time>2026-04-12T15:39:55.79Z</time></trkpt><trkpt lat="42.84865798502536" lon="11.949627905229747"><ele>462.0</ele><time>2026-04-12T15:39:56.79Z</time></trkpt><trkpt lat="42.84858542233092" lon="11.949653022830871"><ele>462.0</ele><time>2026-04-12T15:39:57.79Z</time></trkpt><trkpt lat="42.848406014220124" lon="11.94974613959771"><ele>462.0</ele><time>2026-04-12T15:39:58.79Z</time></trkpt><trkpt lat="42.848270738606246" lon="11.949831092614449"><ele>464.40000000000003</ele><time>2026-04-12T15:39:59.79Z</time></trkpt><trkpt lat="42.848165231072386" lon="11.94987611727937"><ele>466.80000000000007</ele><time>2026-04-12T15:40:00.79Z</time></trkpt><trkpt lat="42.84809044537787" lon="11.949880381891484"><ele>469.2</ele><time>2026-04-12T15:40:01.79Z</time></trkpt><trkpt lat="42.84801586211099" lon="11.94975507936906"><ele>471.6</ele><time>2026-04-12T15:40:03.79Z</time></trkpt><trkpt lat="42.84802466719408" lon="11.94964841456662"><ele>474.0</ele><time>2026-04-12T15:40:04.79Z</time></trkpt><trkpt lat="42.84806865307716" lon="11.94954831573158"><ele>474.0</ele><time>2026-04-12T15:40:05.79Z</time></trkpt><trkpt lat="42.848145600852405" lon="11.949453817389823"><ele>474.0</ele><time>2026-04-12T15:40:06.79Z</time></trkpt><trkpt lat="42.848243006012865" lon="11.949355037172921"><ele>474.0</ele><time>2026-04-12T15:40:07.79Z</time></trkpt><trkpt lat="42.84833490166151" lon="11.94923273239829"><ele>474.0</ele><time>2026-04-12T15:40:08.79Z</time></trkpt><trkpt lat="42.848405896281136" lon="11.949098068630919"><ele>474.6</ele><time>2026-04-12T15:40:09.79Z</time></trkpt><trkpt lat="42.84846071565829" lon="11.948964172715643"><ele>475.2</ele><time>2026-04-12T15:40:10.79Z</time></trkpt><trkpt lat="42.848502016463414" lon="11.948835727270257"><ele>475.80000000000007</ele><time>2026-04-12T15:40:11.79Z</time></trkpt><trkpt lat="42.84851279344481" lon="11.948703392593531"><ele>476.40000000000003</ele><time>2026-04-12T15:40:12.79Z</time></trkpt><trkpt lat="42.8484985974619" lon="11.948572510402832"><ele>477.0</ele><time>2026-04-12T15:40:13.79Z</time></trkpt><trkpt lat="42.84846586755025" lon="11.94844045350957"><ele>480.5</ele><time>2026-04-12T15:40:14.79Z</time></trkpt><trkpt lat="42.84840058690786" lon="11.948314640804359"><ele>484.0</ele><time>2026-04-12T15:40:15.79Z</time></trkpt><trkpt lat="42.84832557042829" lon="11.94820000839967"><ele>487.5</ele><time>2026-04-12T15:40:16.79Z</time></trkpt><trkpt lat="42.84823581996235" lon="11.948077006196723"><ele>491.0</ele><time>2026-04-12T15:40:17.79Z</time></trkpt><trkpt lat="42.84815603079831" lon="11.947930654459892"><ele>491.0</ele><time>2026-04-12T15:40:18.79Z</time></trkpt><trkpt lat="42.848107193944536" lon="11.947761558698838"><ele>491.0</ele><time>2026-04-12T15:40:19.79Z</time></trkpt><trkpt lat="42.84805693823705" lon="11.94758784865171"><ele>491.0</ele><time>2026-04-12T15:40:20.79Z</time></trkpt><trkpt lat="42.84801176601506" lon="11.947389915274226"><ele>491.0</ele><time>2026-04-12T15:40:21.789Z</time></trkpt><trkpt lat="42.84798336433789" lon="11.947172284769008"><ele>496.0</ele><time>2026-04-12T15:40:22.789Z</time></trkpt><trkpt lat="42.84797070873747" lon="11.946966671101233"><ele>501.0</ele><time>2026-04-12T15:40:23.789Z</time></trkpt><trkpt lat="42.84796180288818" lon="11.946752555324176"><ele>506.0</ele><time>2026-04-12T15:40:24.789Z</time></trkpt><trkpt lat="42.84792952410964" lon="11.946557064225317"><ele>508.25</ele><time>2026-04-12T15:40:25.789Z</time></trkpt><trkpt lat="42.847895464686125" lon="11.946360618894538"><ele>510.5</ele><time>2026-04-12T15:40:26.789Z</time></trkpt><trkpt lat="42.84782787026885" lon="11.946187193693483"><ele>512.75</ele><time>2026-04-12T15:40:27.789Z</time></trkpt><trkpt lat="42.847737075033386" lon="11.946017038819038"><ele>515.0</ele><time>2026-04-12T15:40:28.789Z</time></trkpt><trkpt lat="42.84764038136853" lon="11.945827039207508"><ele>512.3333333333333</ele><time>2026-04-12T15:40:29.789Z</time></trkpt><trkpt lat="42.84754608049573" lon="11.945639286675972"><ele>509.66666666666663</ele><time>2026-04-12T15:40:30.789Z</time></trkpt><trkpt lat="42.84745601523278" lon="11.945454458255202"><ele>507.0</ele><time>2026-04-12T15:40:31.789Z</time></trkpt><trkpt lat="42.84739919638915" lon="11.945263508121963"><ele>507.0</ele><time>2026-04-12T15:40:32.789Z</time></trkpt><trkpt lat="42.847352111940154" lon="11.945064904013385"><ele>507.0</ele><time>2026-04-12T15:40:33.789Z</time></trkpt><trkpt lat="42.84731408786042" lon="11.944864674325604"><ele>507.0</ele><time>2026-04-12T15:40:34.789Z</time></trkpt><trkpt lat="42.84727363149591" lon="11.944648171022205"><ele>511.33333333333337</ele><time>2026-04-12T15:40:35.789Z</time></trkpt><trkpt lat="42.84722185437839" lon="11.944405744244639"><ele>515.6666666666667</ele><time>2026-04-12T15:40:36.789Z</time></trkpt><trkpt lat="42.84715942815388" lon="11.944153109062134"><ele>520.0</ele><time>2026-04-12T15:40:37.789Z</time></trkpt><trkpt lat="42.84710079891721" lon="11.943926776157356"><ele>522.5</ele><time>2026-04-12T15:40:38.789Z</time></trkpt><trkpt lat="42.84705179460745" lon="11.943742953746328"><ele>525.0</ele><time>2026-04-12T15:40:39.789Z</time></trkpt><trkpt lat="42.84700362174625" lon="11.943562249497573"><ele>527.5</ele><time>2026-04-12T15:40:40.789Z</time></trkpt><trkpt lat="42.84696242248099" lon="11.94338593985629"><ele>530.0</ele><time>2026-04-12T15:40:41.789Z</time></trkpt><trkpt lat="42.84692124389213" lon="11.943199971452062"><ele>528.25</ele><time>2026-04-12T15:40:42.789Z</time></trkpt><trkpt lat="42.84687675494505" lon="11.94302953906558"><ele>526.5</ele><time>2026-04-12T15:40:43.789Z</time></trkpt><trkpt lat="42.8468240218909" lon="11.942894000045097"><ele>524.75</ele><time>2026-04-12T15:40:44.789Z</time></trkpt><trkpt lat="42.84675801082414" lon="11.942790307300179"><ele>523.0</ele><time>2026-04-12T15:40:45.789Z</time></trkpt><trkpt lat="42.84665390886364" lon="11.942743001689127"><ele>523.0</ele><time>2026-04-12T15:40:46.789Z</time></trkpt><trkpt lat="42.84655851619609" lon="11.942745074912056"><ele>523.0</ele><time>2026-04-12T15:40:47.789Z</time></trkpt><trkpt lat="42.846478461693394" lon="11.942804230578764"><ele>523.0</ele><time>2026-04-12T15:40:48.788Z</time></trkpt><trkpt lat="42.84640832164109" lon="11.942874912426108"><ele>523.0</ele><time>2026-04-12T15:40:49.788Z</time></trkpt><trkpt lat="42.8463467618685" lon="11.942964874462437"><ele>523.0</ele><time>2026-04-12T15:40:50.788Z</time></trkpt><trkpt lat="42.84628404783553" lon="11.943053160739211"><ele>523.0</ele><time>2026-04-12T15:40:51.788Z</time></trkpt><trkpt lat="42.84620662093565" lon="11.943131345916019"><ele>523.0</ele><time>2026-04-12T15:40:52.788Z</time></trkpt><trkpt lat="42.846117232669634" lon="11.943189183369798"><ele>523.0</ele><time>2026-04-12T15:40:53.788Z</time></trkpt><trkpt lat="42.8460191593024" lon="11.943192037659966"><ele>523.0</ele><time>2026-04-12T15:40:54.788Z</time></trkpt><trkpt lat="42.84592378509888" lon="11.943137393683415"><ele>523.0</ele><time>2026-04-12T15:40:55.788Z</time></trkpt><trkpt lat="42.84586329807996" lon="11.943045439743136"><ele>522.1999999999999</ele><time>2026-04-12T15:40:56.788Z</time></trkpt><trkpt lat="42.84580346777362" lon="11.942950139020686"><ele>521.4</ele><time>2026-04-12T15:40:57.788Z</time></trkpt><trkpt lat="42.845754642987416" lon="11.942859822298178"><ele>520.5999999999999</ele><time>2026-04-12T15:40:58.788Z</time></trkpt><trkpt lat="42.84570616900409" lon="11.942746403901019"><ele>519.8</ele><time>2026-04-12T15:40:59.788Z</time></trkpt><trkpt lat="42.845655093006734" lon="11.94262668800168"><ele>519.0</ele><time>2026-04-12T15:41:00.788Z</time></trkpt><trkpt lat="42.84560810702191" lon="11.942501253451116"><ele>523.0</ele><time>2026-04-12T15:41:01.788Z</time></trkpt><trkpt lat="42.84556180371651" lon="11.94237765405596"><ele>527.0</ele><time>2026-04-12T15:41:02.788Z</time></trkpt><trkpt lat="42.8455140616021" lon="11.942250214142632"><ele>531.0</ele><time>2026-04-12T15:41:03.788Z</time></trkpt><trkpt lat="42.8454529111579" lon="11.942134266705738"><ele>535.0</ele><time>2026-04-12T15:41:04.788Z</time></trkpt><trkpt lat="42.84540600924825" lon="11.942003467347723"><ele>539.0</ele><time>2026-04-12T15:41:05.788Z</time></trkpt><trkpt lat="42.84535622838918" lon="11.941869320452112"><ele>539.0</ele><time>2026-04-12T15:41:06.788Z</time></trkpt><trkpt lat="42.84530218851918" lon="11.941732039519305"><ele>539.0</ele><time>2026-04-12T15:41:07.788Z</time></trkpt><trkpt lat="42.845264533300494" lon="11.941587561588637"><ele>539.0</ele><time>2026-04-12T15:41:08.788Z</time></trkpt><trkpt lat="42.84521723894169" lon="11.941453228688937"><ele>539.0</ele><time>2026-04-12T15:41:09.788Z</time></trkpt><trkpt lat="42.84516986398759" lon="11.941311663652993"><ele>539.6</ele><time>2026-04-12T15:41:10.788Z</time></trkpt><trkpt lat="42.84513097578438" lon="11.941170721823795"><ele>540.2</ele><time>2026-04-12T15:41:11.788Z</time></trkpt><trkpt lat="42.845102406456206" lon="11.941036790345152"><ele>540.8000000000001</ele><time>2026-04-12T15:41:12.788Z</time></trkpt><trkpt lat="42.845073487730645" lon="11.940888814358594"><ele>541.4</ele><time>2026-04-12T15:41:13.788Z</time></trkpt><trkpt lat="42.84505246046768" lon="11.940736991087578"><ele>542.0</ele><time>2026-04-12T15:41:14.788Z</time></trkpt><trkpt lat="42.84502978996371" lon="11.940570682789259"><ele>542.0</ele><time>2026-04-12T15:41:15.787Z</time></trkpt><trkpt lat="42.84500436365341" lon="11.94039613771266"><ele>542.0</ele><time>2026-04-12T15:41:16.787Z</time></trkpt><trkpt lat="42.844970250888124" lon="11.940227105747681"><ele>542.0</ele><time>2026-04-12T15:41:17.787Z</time></trkpt><trkpt lat="42.84493166378396" lon="11.940056010083515"><ele>542.0</ele><time>2026-04-12T15:41:18.787Z</time></trkpt><trkpt lat="42.844892899303495" lon="11.939884881315635"><ele>543.25</ele><time>2026-04-12T15:41:19.787Z</time></trkpt><trkpt lat="42.844848709319095" lon="11.939695068655386"><ele>544.5</ele><time>2026-04-12T15:41:20.787Z</time></trkpt><trkpt lat="42.84480284025943" lon="11.939516620891826"><ele>545.75</ele><time>2026-04-12T15:41:21.787Z</time></trkpt><trkpt lat="42.844754336950814" lon="11.939342272054215"><ele>547.0</ele><time>2026-04-12T15:41:22.787Z</time></trkpt><trkpt lat="42.8447035874661" lon="11.939172110696312"><ele>549.75</ele><time>2026-04-12T15:41:23.787Z</time></trkpt><trkpt lat="42.84462566533963" lon="11.939001459592493"><ele>552.5</ele><time>2026-04-12T15:41:24.787Z</time></trkpt><trkpt lat="42.844521911083454" lon="11.938843843927902"><ele>555.25</ele><time>2026-04-12T15:41:25.787Z</time></trkpt><trkpt lat="42.84441900375322" lon="11.938708939430972"><ele>558.0</ele><time>2026-04-12T15:41:26.787Z</time></trkpt><trkpt lat="42.84431479130883" lon="11.938576110216045"><ele>556.0</ele><time>2026-04-12T15:41:27.787Z</time></trkpt><trkpt lat="42.844208404833104" lon="11.938442485458157"><ele>554.0</ele><time>2026-04-12T15:41:28.787Z</time></trkpt><trkpt lat="42.844097926452804" lon="11.938303721004303"><ele>552.0</ele><time>2026-04-12T15:41:29.787Z</time></trkpt><trkpt lat="42.84399239216484" lon="11.938171166544379"><ele>550.0</ele><time>2026-04-12T15:41:30.787Z</time></trkpt><trkpt lat="42.84389467096165" lon="11.938048425607677"><ele>550.0</ele><time>2026-04-12T15:41:31.787Z</time></trkpt><trkpt lat="42.84381541602039" lon="11.93794795382519"><ele>550.0</ele><time>2026-04-12T15:41:32.787Z</time></trkpt><trkpt lat="42.84373998860978" lon="11.937850341667263"><ele>550.0</ele><time>2026-04-12T15:41:33.787Z</time></trkpt><trkpt lat="42.8436636385897" lon="11.937751629391277"><ele>550.0</ele><time>2026-04-12T15:41:34.787Z</time></trkpt><trkpt lat="42.843588138539374" lon="11.937654015889384"><ele>550.0</ele><time>2026-04-12T15:41:35.787Z</time></trkpt><trkpt lat="42.84349201973645" lon="11.937531748823341"><ele>549.5</ele><time>2026-04-12T15:41:36.787Z</time></trkpt><trkpt lat="42.84339283345938" lon="11.937411224554532"><ele>549.0</ele><time>2026-04-12T15:41:37.787Z</time></trkpt><trkpt lat="42.84329962434464" lon="11.937289789563835"><ele>548.5</ele><time>2026-04-12T15:41:38.787Z</time></trkpt><trkpt lat="42.84321375555116" lon="11.937166118518759"><ele>548.0</ele><time>2026-04-12T15:41:39.787Z</time></trkpt><trkpt lat="42.843129932546574" lon="11.937039352549025"><ele>548.0</ele><time>2026-04-12T15:41:40.787Z</time></trkpt><trkpt lat="42.84308377358609" lon="11.93687425986655"><ele>548.0</ele><time>2026-04-12T15:41:41.786Z</time></trkpt><trkpt lat="42.84306242315911" lon="11.936703911155972"><ele>548.0</ele><time>2026-04-12T15:41:42.786Z</time></trkpt><trkpt lat="42.843057682339655" lon="11.936531165404553"><ele>548.0</ele><time>2026-04-12T15:41:43.786Z</time></trkpt><trkpt lat="42.84308819610051" lon="11.936367809374516"><ele>550.0</ele><time>2026-04-12T15:41:44.786Z</time></trkpt><trkpt lat="42.84312121899466" lon="11.936209397715974"><ele>552.0</ele><time>2026-04-12T15:41:45.786Z</time></trkpt><trkpt lat="42.843158766507294" lon="11.936051452410391"><ele>554.0</ele><time>2026-04-12T15:41:46.786Z</time></trkpt><trkpt lat="42.84320854622639" lon="11.935862329231508"><ele>556.0</ele><time>2026-04-12T15:41:47.786Z</time></trkpt><trkpt lat="42.84326206992476" lon="11.935660279458"><ele>558.3333333333334</ele><time>2026-04-12T15:41:48.786Z</time></trkpt><trkpt lat="42.84331427154264" lon="11.935453058927877"><ele>560.6666666666666</ele><time>2026-04-12T15:41:49.787Z</time></trkpt><trkpt lat="42.84336478061695" lon="11.93524548333459"><ele>563.0</ele><time>2026-04-12T15:41:50.788Z</time></trkpt><trkpt lat="42.84341259707057" lon="11.935032283235062"><ele>564.0</ele><time>2026-04-12T15:41:51.788Z</time></trkpt><trkpt lat="42.8434279906435" lon="11.93481242058204"><ele>565.0</ele><time>2026-04-12T15:41:52.788Z</time></trkpt><trkpt lat="42.84345286527117" lon="11.934602337486059"><ele>566.0</ele><time>2026-04-12T15:41:53.788Z</time></trkpt><trkpt lat="42.84346085486474" lon="11.934401601050997"><ele>566.75</ele><time>2026-04-12T15:41:54.788Z</time></trkpt><trkpt lat="42.84345588477701" lon="11.934210606637354"><ele>567.5</ele><time>2026-04-12T15:41:55.787Z</time></trkpt><trkpt lat="42.843437088932944" lon="11.934028646893362"><ele>568.25</ele><time>2026-04-12T15:41:56.788Z</time></trkpt><trkpt lat="42.84339596056043" lon="11.933846297846902"><ele>569.0</ele><time>2026-04-12T15:41:57.788Z</time></trkpt><trkpt lat="42.84333534174518" lon="11.933669429810134"><ele>569.0</ele><time>2026-04-12T15:41:58.788Z</time></trkpt><trkpt lat="42.843254976333185" lon="11.933492992679462"><ele>569.0</ele><time>2026-04-12T15:41:59.788Z</time></trkpt><trkpt lat="42.843187979727844" lon="11.93330802968516"><ele>569.0</ele><time>2026-04-12T15:42:00.788Z</time></trkpt><trkpt lat="42.843154367560494" lon="11.933113418700902"><ele>570.5</ele><time>2026-04-12T15:42:01.788Z</time></trkpt><trkpt lat="42.84311431083151" lon="11.93292035192854"><ele>572.0</ele><time>2026-04-12T15:42:02.787Z</time></trkpt><trkpt lat="42.84307156755766" lon="11.93273413279208"><ele>573.5</ele><time>2026-04-12T15:42:03.787Z</time></trkpt><trkpt lat="42.843008262144224" lon="11.932549664917907"><ele>575.0</ele><time>2026-04-12T15:42:04.787Z</time></trkpt><trkpt lat="42.84290235827705" lon="11.932398216819465"><ele>574.0</ele><time>2026-04-12T15:42:05.787Z</time></trkpt><trkpt lat="42.842806089450406" lon="11.932242407578935"><ele>573.0</ele><time>2026-04-12T15:42:06.787Z</time></trkpt><trkpt lat="42.84271532432124" lon="11.93210963975379"><ele>572.0</ele><time>2026-04-12T15:42:07.787Z</time></trkpt><trkpt lat="42.8426415894011" lon="11.931978364929822"><ele>571.0</ele><time>2026-04-12T15:42:08.787Z</time></trkpt><trkpt lat="42.84258744568794" lon="11.931825490048968"><ele>574.0</ele><time>2026-04-12T15:42:09.787Z</time></trkpt><trkpt lat="42.84255015951347" lon="11.931666031302518"><ele>577.0</ele><time>2026-04-12T15:42:10.787Z</time></trkpt><trkpt lat="42.84251062801163" lon="11.931485393528423"><ele>580.0</ele><time>2026-04-12T15:42:11.787Z</time></trkpt><trkpt lat="42.842508601762844" lon="11.931300195431723"><ele>583.0</ele><time>2026-04-12T15:42:12.787Z</time></trkpt><trkpt lat="42.842504669176925" lon="11.931108231306155"><ele>583.0</ele><time>2026-04-12T15:42:13.787Z</time></trkpt><trkpt lat="42.84250868859845" lon="11.930934597369614"><ele>583.0</ele><time>2026-04-12T15:42:14.787Z</time></trkpt><trkpt lat="42.84250353549988" lon="11.930788220603096"><ele>583.0</ele><time>2026-04-12T15:42:15.787Z</time></trkpt><trkpt lat="42.84251682417552" lon="11.93067667329403"><ele>583.0</ele><time>2026-04-12T15:42:16.787Z</time></trkpt><trkpt lat="42.84252866245072" lon="11.930564173732856"><ele>583.0</ele><time>2026-04-12T15:42:19.787Z</time></trkpt><trkpt lat="42.84255177969403" lon="11.930406962480973"><ele>585.3333333333334</ele><time>2026-04-12T15:42:21.787Z</time></trkpt><trkpt lat="42.84256670050685" lon="11.930198911964847"><ele>587.6666666666666</ele><time>2026-04-12T15:42:22.787Z</time></trkpt><trkpt lat="42.8425838179756" lon="11.929952172582446"><ele>590.0</ele><time>2026-04-12T15:42:23.787Z</time></trkpt><trkpt lat="42.84259332416315" lon="11.929697648380836"><ele>591.6666666666666</ele><time>2026-04-12T15:42:24.787Z</time></trkpt><trkpt lat="42.84258491591749" lon="11.929444226978253"><ele>593.3333333333334</ele><time>2026-04-12T15:42:25.786Z</time></trkpt><trkpt lat="42.84256499600151" lon="11.929222250510083"><ele>595.0</ele><time>2026-04-12T15:42:26.786Z</time></trkpt><trkpt lat="42.84257676921117" lon="11.929037676045391"><ele>595.75</ele><time>2026-04-12T15:42:27.786Z</time></trkpt><trkpt lat="42.84258573435554" lon="11.928872938758028"><ele>596.5</ele><time>2026-04-12T15:42:28.786Z</time></trkpt><trkpt lat="42.842658167420936" lon="11.928731056063297"><ele>597.25</ele><time>2026-04-12T15:42:29.786Z</time></trkpt><trkpt lat="42.842716730008775" lon="11.92855427376983"><ele>598.0</ele><time>2026-04-12T15:42:30.786Z</time></trkpt><trkpt lat="42.842784352822434" lon="11.928378438788084"><ele>598.3333333333334</ele><time>2026-04-12T15:42:31.786Z</time></trkpt><trkpt lat="42.84282672382314" lon="11.928186008897876"><ele>598.6666666666666</ele><time>2026-04-12T15:42:32.786Z</time></trkpt><trkpt lat="42.84284022888631" lon="11.927977347302601"><ele>599.0</ele><time>2026-04-12T15:42:33.786Z</time></trkpt><trkpt lat="42.84283213945905" lon="11.927766168442231"><ele>599.3333333333333</ele><time>2026-04-12T15:42:34.786Z</time></trkpt><trkpt lat="42.84280697974177" lon="11.92755564248752"><ele>599.6666666666666</ele><time>2026-04-12T15:42:35.786Z</time></trkpt><trkpt lat="42.84276654793818" lon="11.927344907249028"><ele>600.0</ele><time>2026-04-12T15:42:36.786Z</time></trkpt><trkpt lat="42.842739826959125" lon="11.927143795080614"><ele>600.0</ele><time>2026-04-12T15:42:37.786Z</time></trkpt><trkpt lat="42.842712044537144" lon="11.926925392959882"><ele>600.0</ele><time>2026-04-12T15:42:38.786Z</time></trkpt><trkpt lat="42.84267385094111" lon="11.926708047829111"><ele>600.0</ele><time>2026-04-12T15:42:39.786Z</time></trkpt><trkpt lat="42.842633685184055" lon="11.926506070914282"><ele>603.75</ele><time>2026-04-12T15:42:40.786Z</time></trkpt><trkpt lat="42.842589008414905" lon="11.9263170285027"><ele>607.5</ele><time>2026-04-12T15:42:41.786Z</time></trkpt><trkpt lat="42.84253346871557" lon="11.926116552386569"><ele>611.25</ele><time>2026-04-12T15:42:42.786Z</time></trkpt><trkpt lat="42.84248809118069" lon="11.925932827189305"><ele>615.0</ele><time>2026-04-12T15:42:43.786Z</time></trkpt><trkpt lat="42.84244654006868" lon="11.925733307970587"><ele>615.3333333333334</ele><time>2026-04-12T15:42:44.786Z</time></trkpt><trkpt lat="42.84244078980849" lon="11.925519528621694"><ele>615.6666666666667</ele><time>2026-04-12T15:42:45.786Z</time></trkpt><trkpt lat="42.842451810763386" lon="11.925308342515443"><ele>616.0</ele><time>2026-04-12T15:42:46.786Z</time></trkpt><trkpt lat="42.84246220144514" lon="11.925085292985774"><ele>616.0</ele><time>2026-04-12T15:42:47.786Z</time></trkpt><trkpt lat="42.84248638040511" lon="11.924851500304639"><ele>616.0</ele><time>2026-04-12T15:42:48.786Z</time></trkpt><trkpt lat="42.842503685708884" lon="11.92461877913644"><ele>616.0</ele><time>2026-04-12T15:42:49.786Z</time></trkpt><trkpt lat="42.84251104975541" lon="11.924399607020652"><ele>615.3333333333334</ele><time>2026-04-12T15:42:50.786Z</time></trkpt><trkpt lat="42.8425470226828" lon="11.924167970720408"><ele>614.6666666666666</ele><time>2026-04-12T15:42:51.785Z</time></trkpt><trkpt lat="42.842552459970676" lon="11.923926301496481"><ele>614.0</ele><time>2026-04-12T15:42:52.785Z</time></trkpt><trkpt lat="42.84253677264483" lon="11.923684501055707"><ele>614.0</ele><time>2026-04-12T15:42:53.785Z</time></trkpt><trkpt lat="42.84250786870047" lon="11.923428589919022"><ele>614.0</ele><time>2026-04-12T15:42:54.785Z</time></trkpt><trkpt lat="42.842465836449776" lon="11.923175871630947"><ele>614.0</ele><time>2026-04-12T15:42:55.785Z</time></trkpt><trkpt lat="42.842439901058526" lon="11.922933432380567"><ele>613.3333333333333</ele><time>2026-04-12T15:42:56.785Z</time></trkpt><trkpt lat="42.84241467342007" lon="11.922704692897524"><ele>612.6666666666666</ele><time>2026-04-12T15:42:57.785Z</time></trkpt><trkpt lat="42.84241638309695" lon="11.922485973248724"><ele>612.0</ele><time>2026-04-12T15:42:58.785Z</time></trkpt><trkpt lat="42.842417404174896" lon="11.922293567665095"><ele>612.0</ele><time>2026-04-12T15:42:59.785Z</time></trkpt><trkpt lat="42.84244134644583" lon="11.922110354497137"><ele>612.0</ele><time>2026-04-12T15:43:00.785Z</time></trkpt><trkpt lat="42.8424958389262" lon="11.921968557709691"><ele>612.0</ele><time>2026-04-12T15:43:01.785Z</time></trkpt><trkpt lat="42.84256999109781" lon="11.92182390047091"><ele>612.0</ele><time>2026-04-12T15:43:02.785Z</time></trkpt><trkpt lat="42.842653296697975" lon="11.921678726668015"><ele>612.0</ele><time>2026-04-12T15:43:03.785Z</time></trkpt><trkpt lat="42.84271331667616" lon="11.921513969556255"><ele>612.0</ele><time>2026-04-12T15:43:04.785Z</time></trkpt><trkpt lat="42.8427226042359" lon="11.921343624543777"><ele>612.0</ele><time>2026-04-12T15:43:05.785Z</time></trkpt><trkpt lat="42.84270630076525" lon="11.921197856102136"><ele>612.0</ele><time>2026-04-12T15:43:06.785Z</time></trkpt><trkpt lat="42.84263020185786" lon="11.9210610893128"><ele>614.0</ele><time>2026-04-12T15:43:07.785Z</time></trkpt><trkpt lat="42.84254380900063" lon="11.920958229334325"><ele>616.0</ele><time>2026-04-12T15:43:08.785Z</time></trkpt><trkpt lat="42.84243333233487" lon="11.920875132763426"><ele>618.0</ele><time>2026-04-12T15:43:09.785Z</time></trkpt><trkpt lat="42.842325432974" lon="11.920798537177602"><ele>620.0</ele><time>2026-04-12T15:43:10.785Z</time></trkpt><trkpt lat="42.842229188667346" lon="11.920686204065237"><ele>621.6666666666666</ele><time>2026-04-12T15:43:11.785Z</time></trkpt><trkpt lat="42.84210517902362" lon="11.92057175554769"><ele>623.3333333333334</ele><time>2026-04-12T15:43:12.785Z</time></trkpt><trkpt lat="42.84195978949781" lon="11.920427909718292"><ele>625.0</ele><time>2026-04-12T15:43:13.785Z</time></trkpt><trkpt lat="42.84177041455327" lon="11.920267067642786"><ele>625.0</ele><time>2026-04-12T15:43:14.785Z</time></trkpt><trkpt lat="42.8415764405299" lon="11.920066986737767"><ele>625.0</ele><time>2026-04-12T15:43:15.785Z</time></trkpt><trkpt lat="42.84134865500337" lon="11.919847166097387"><ele>630.0</ele><time>2026-04-12T15:43:16.785Z</time></trkpt><trkpt lat="42.84113679823482" lon="11.919613431332156"><ele>635.0</ele><time>2026-04-12T15:43:17.785Z</time></trkpt><trkpt lat="42.84093769937916" lon="11.919416281677295"><ele>635.0</ele><time>2026-04-12T15:43:18.784Z</time></trkpt><trkpt lat="42.840760423715054" lon="11.919241343523716"><ele>635.0</ele><time>2026-04-12T15:43:19.784Z</time></trkpt><trkpt lat="42.84060288938142" lon="11.919085887108418"><ele>635.0</ele><time>2026-04-12T15:43:20.784Z</time></trkpt><trkpt lat="42.84045822599834" lon="11.918943131544014"><ele>637.75</ele><time>2026-04-12T15:43:21.784Z</time></trkpt><trkpt lat="42.84032414802418" lon="11.918818730287626"><ele>640.5</ele><time>2026-04-12T15:43:22.784Z</time></trkpt><trkpt lat="42.84020101753619" lon="11.91872264176414"><ele>643.25</ele><time>2026-04-12T15:43:23.784Z</time></trkpt><trkpt lat="42.84008385555654" lon="11.918667558154208"><ele>646.0</ele><time>2026-04-12T15:43:24.784Z</time></trkpt><trkpt lat="42.83997311291766" lon="11.918607648261954"><ele>646.0</ele><time>2026-04-12T15:43:25.784Z</time></trkpt><trkpt lat="42.83987475897118" lon="11.918541842974289"><ele>646.0</ele><time>2026-04-12T15:43:26.784Z</time></trkpt><trkpt lat="42.83979739452318" lon="11.918478585534379"><ele>646.0</ele><time>2026-04-12T15:43:27.784Z</time></trkpt><trkpt lat="42.83974180457853" lon="11.918397234768523"><ele>646.0</ele><time>2026-04-12T15:43:28.784Z</time></trkpt><trkpt lat="42.83971183795169" lon="11.918295344076727"><ele>646.0</ele><time>2026-04-12T15:43:29.784Z</time></trkpt><trkpt lat="42.83970227522017" lon="11.91813914714673"><ele>650.5</ele><time>2026-04-12T15:43:30.784Z</time></trkpt><trkpt lat="42.839696982398266" lon="11.917964517345212"><ele>655.0</ele><time>2026-04-12T15:43:31.784Z</time></trkpt><trkpt lat="42.83969015736856" lon="11.917758416040181"><ele>659.5</ele><time>2026-04-12T15:43:32.784Z</time></trkpt><trkpt lat="42.839668029338156" lon="11.91755211711791"><ele>664.0</ele><time>2026-04-12T15:43:33.784Z</time></trkpt><trkpt lat="42.839628086675106" lon="11.917369587420028"><ele>661.75</ele><time>2026-04-12T15:43:34.784Z</time></trkpt><trkpt lat="42.83955915268436" lon="11.917191107327625"><ele>659.5</ele><time>2026-04-12T15:43:35.784Z</time></trkpt><trkpt lat="42.83947279140957" lon="11.917042608986316"><ele>657.25</ele><time>2026-04-12T15:43:36.784Z</time></trkpt><trkpt lat="42.83937227064464" lon="11.916914724096543"><ele>655.0</ele><time>2026-04-12T15:43:37.784Z</time></trkpt><trkpt lat="42.83924419394049" lon="11.916823745701315"><ele>655.0</ele><time>2026-04-12T15:43:38.784Z</time></trkpt><trkpt lat="42.83911095769963" lon="11.916767233463627"><ele>655.0</ele><time>2026-04-12T15:43:39.784Z</time></trkpt><trkpt lat="42.83897635331673" lon="11.91671664052734"><ele>655.0</ele><time>2026-04-12T15:43:40.784Z</time></trkpt><trkpt lat="42.838838040906275" lon="11.91669032069769"><ele>655.0</ele><time>2026-04-12T15:43:41.784Z</time></trkpt><trkpt lat="42.83870063070958" lon="11.916650729282026"><ele>657.25</ele><time>2026-04-12T15:43:42.784Z</time></trkpt><trkpt lat="42.83857505982587" lon="11.91660435813315"><ele>659.5</ele><time>2026-04-12T15:43:43.784Z</time></trkpt><trkpt lat="42.83847393385621" lon="11.916513656819054"><ele>661.75</ele><time>2026-04-12T15:43:44.784Z</time></trkpt><trkpt lat="42.8383945824237" lon="11.916430699291894"><ele>664.0</ele><time>2026-04-12T15:43:45.783Z</time></trkpt><trkpt lat="42.838321518974276" lon="11.916326874365142"><ele>664.0</ele><time>2026-04-12T15:43:46.783Z</time></trkpt><trkpt lat="42.838241458567765" lon="11.916188569811606"><ele>664.0</ele><time>2026-04-12T15:43:47.783Z</time></trkpt><trkpt lat="42.83815111382238" lon="11.91603041230101"><ele>664.0</ele><time>2026-04-12T15:43:48.783Z</time></trkpt><trkpt lat="42.83803332260417" lon="11.915858196703107"><ele>664.0</ele><time>2026-04-12T15:43:49.783Z</time></trkpt><trkpt lat="42.83792148054741" lon="11.915686745794266"><ele>664.3333333333334</ele><time>2026-04-12T15:43:50.783Z</time></trkpt><trkpt lat="42.837799013329196" lon="11.915542661910317"><ele>664.6666666666666</ele><time>2026-04-12T15:43:51.783Z</time></trkpt><trkpt lat="42.83766647568455" lon="11.915441919476223"><ele>665.0</ele><time>2026-04-12T15:43:52.783Z</time></trkpt><trkpt lat="42.837531542066294" lon="11.915389594503665"><ele>665.0</ele><time>2026-04-12T15:43:53.783Z</time></trkpt><trkpt lat="42.83737571134057" lon="11.915333563954537"><ele>665.0</ele><time>2026-04-12T15:43:54.783Z</time></trkpt><trkpt lat="42.83720450535729" lon="11.915283865025357"><ele>665.0</ele><time>2026-04-12T15:43:55.786Z</time></trkpt><trkpt lat="42.83703107386458" lon="11.915233530174982"><ele>665.0</ele><time>2026-04-12T15:43:56.785Z</time></trkpt><trkpt lat="42.83685119127071" lon="11.91521227783449"><ele>665.0</ele><time>2026-04-12T15:43:57.785Z</time></trkpt><trkpt lat="42.836663511659204" lon="11.915202844504469"><ele>665.0</ele><time>2026-04-12T15:43:58.786Z</time></trkpt><trkpt lat="42.83645478435887" lon="11.915206723685747"><ele>665.3333333333333</ele><time>2026-04-12T15:43:59.785Z</time></trkpt><trkpt lat="42.83624040870082" lon="11.915246978499473"><ele>665.6666666666666</ele><time>2026-04-12T15:44:00.785Z</time></trkpt><trkpt lat="42.83603078839014" lon="11.915272375924058"><ele>666.0</ele><time>2026-04-12T15:44:01.786Z</time></trkpt><trkpt lat="42.83583648199992" lon="11.915287518282032"><ele>668.0</ele><time>2026-04-12T15:44:02.786Z</time></trkpt><trkpt lat="42.83565889320295" lon="11.91529753139612"><ele>670.0</ele><time>2026-04-12T15:44:03.786Z</time></trkpt><trkpt lat="42.835494411070776" lon="11.915291250297226"><ele>672.0</ele><time>2026-04-12T15:44:04.785Z</time></trkpt><trkpt lat="42.835352213060794" lon="11.915250739632151"><ele>672.0</ele><time>2026-04-12T15:44:05.785Z</time></trkpt><trkpt lat="42.83522171642482" lon="11.915193987837398"><ele>672.0</ele><time>2026-04-12T15:44:06.785Z</time></trkpt><trkpt lat="42.83508650082433" lon="11.915134491446484"><ele>672.0</ele><time>2026-04-12T15:44:07.785Z</time></trkpt><trkpt lat="42.83497218181346" lon="11.915021518685492"><ele>672.0</ele><time>2026-04-12T15:44:08.785Z</time></trkpt><trkpt lat="42.8348820986265" lon="11.914873760820274"><ele>674.5</ele><time>2026-04-12T15:44:09.785Z</time></trkpt><trkpt lat="42.834796752084785" lon="11.91473177408214"><ele>677.0</ele><time>2026-04-12T15:44:10.785Z</time></trkpt><trkpt lat="42.83470179494245" lon="11.914615644984751"><ele>679.5</ele><time>2026-04-12T15:44:11.785Z</time></trkpt><trkpt lat="42.83461357971738" lon="11.914467582931552"><ele>682.0</ele><time>2026-04-12T15:44:12.785Z</time></trkpt><trkpt lat="42.83451157153299" lon="11.914297020341168"><ele>680.3333333333334</ele><time>2026-04-12T15:44:13.785Z</time></trkpt><trkpt lat="42.83440382041571" lon="11.91411462119585"><ele>678.6666666666666</ele><time>2026-04-12T15:44:14.785Z</time></trkpt><trkpt lat="42.83430197912047" lon="11.91390882057241"><ele>677.0</ele><time>2026-04-12T15:44:15.785Z</time></trkpt><trkpt lat="42.8341871733117" lon="11.913700630565547"><ele>677.0</ele><time>2026-04-12T15:44:16.785Z</time></trkpt><trkpt lat="42.83408423225198" lon="11.913513957233219"><ele>677.0</ele><time>2026-04-12T15:44:17.785Z</time></trkpt><trkpt lat="42.83398718650183" lon="11.91333075778909"><ele>677.0</ele><time>2026-04-12T15:44:18.785Z</time></trkpt><trkpt lat="42.83389072642166" lon="11.913150912996493"><ele>677.0</ele><time>2026-04-12T15:44:19.785Z</time></trkpt><trkpt lat="42.83378929178402" lon="11.913000888117544"><ele>677.0</ele><time>2026-04-12T15:44:20.784Z</time></trkpt><trkpt lat="42.83367531368271" lon="11.912894709978415"><ele>677.0</ele><time>2026-04-12T15:44:21.784Z</time></trkpt><trkpt lat="42.833545673169056" lon="11.912819277355908"><ele>677.0</ele><time>2026-04-12T15:44:22.784Z</time></trkpt><trkpt lat="42.83341851155742" lon="11.9127167323921"><ele>677.0</ele><time>2026-04-12T15:44:23.784Z</time></trkpt><trkpt lat="42.83328624959974" lon="11.912629179371637"><ele>677.0</ele><time>2026-04-12T15:44:24.784Z</time></trkpt><trkpt lat="42.83314804551785" lon="11.912536405481442"><ele>677.0</ele><time>2026-04-12T15:44:25.784Z</time></trkpt><trkpt lat="42.83301610448593" lon="11.912442367849282"><ele>680.25</ele><time>2026-04-12T15:44:26.784Z</time></trkpt><trkpt lat="42.832894310267946" lon="11.91234859364174"><ele>683.5</ele><time>2026-04-12T15:44:27.784Z</time></trkpt><trkpt lat="42.83279153204309" lon="11.912234452966796"><ele>686.75</ele><time>2026-04-12T15:44:28.784Z</time></trkpt><trkpt lat="42.83270855223111" lon="11.912104265722647"><ele>690.0</ele><time>2026-04-12T15:44:29.784Z</time></trkpt><trkpt lat="42.83266368901427" lon="11.911944616244575"><ele>689.75</ele><time>2026-04-12T15:44:30.784Z</time></trkpt><trkpt lat="42.832614326907276" lon="11.911763253732992"><ele>689.5</ele><time>2026-04-12T15:44:31.784Z</time></trkpt><trkpt lat="42.83255612651814" lon="11.91158259008551"><ele>689.25</ele><time>2026-04-12T15:44:32.784Z</time></trkpt><trkpt lat="42.8324839550425" lon="11.911403984387729"><ele>689.0</ele><time>2026-04-12T15:44:33.784Z</time></trkpt><trkpt lat="42.832413627654724" lon="11.911245776951837"><ele>689.0</ele><time>2026-04-12T15:44:34.784Z</time></trkpt><trkpt lat="42.8323368784531" lon="11.911104443427039"><ele>689.0</ele><time>2026-04-12T15:44:35.784Z</time></trkpt><trkpt lat="42.83228920357536" lon="11.910980580261384"><ele>689.0</ele><time>2026-04-12T15:44:36.784Z</time></trkpt><trkpt lat="42.83222242019844" lon="11.91090438919017"><ele>689.0</ele><time>2026-04-12T15:44:37.784Z</time></trkpt><trkpt lat="42.8321445836285" lon="11.910887228637879"><ele>689.0</ele><time>2026-04-12T15:44:38.784Z</time></trkpt><trkpt lat="42.8320687426175" lon="11.910914210943394"><ele>689.0</ele><time>2026-04-12T15:44:39.784Z</time></trkpt><trkpt lat="42.8320087085303" lon="11.910998757416257"><ele>689.0</ele><time>2026-04-12T15:44:40.784Z</time></trkpt><trkpt lat="42.83194793449509" lon="11.91108819698246"><ele>689.0</ele><time>2026-04-12T15:44:41.784Z</time></trkpt><trkpt lat="42.831885905950806" lon="11.911192684490967"><ele>689.0</ele><time>2026-04-12T15:44:42.784Z</time></trkpt><trkpt lat="42.83180939325553" lon="11.911283010232825"><ele>689.0</ele><time>2026-04-12T15:44:43.784Z</time></trkpt><trkpt lat="42.83172517504115" lon="11.911348066190074"><ele>688.6</ele><time>2026-04-12T15:44:44.784Z</time></trkpt><trkpt lat="42.831625223813596" lon="11.911373485866967"><ele>688.2</ele><time>2026-04-12T15:44:45.784Z</time></trkpt><trkpt lat="42.83152092690747" lon="11.911370424478347"><ele>687.8000000000001</ele><time>2026-04-12T15:44:46.783Z</time></trkpt><trkpt lat="42.83142440316466" lon="11.911308387182299"><ele>687.4000000000001</ele><time>2026-04-12T15:44:47.783Z</time></trkpt><trkpt lat="42.83132804666064" lon="11.911243429148128"><ele>687.0</ele><time>2026-04-12T15:44:48.783Z</time></trkpt><trkpt lat="42.8312350575113" lon="11.911157097028964"><ele>687.0</ele><time>2026-04-12T15:44:49.783Z</time></trkpt><trkpt lat="42.83115022034409" lon="11.911049418761891"><ele>687.0</ele><time>2026-04-12T15:44:50.783Z</time></trkpt><trkpt lat="42.83108310963672" lon="11.91092422378372"><ele>687.0</ele><time>2026-04-12T15:44:51.783Z</time></trkpt><trkpt lat="42.831035143227" lon="11.91078862098311"><ele>687.0</ele><time>2026-04-12T15:44:52.783Z</time></trkpt><trkpt lat="42.831000873636064" lon="11.910645360635089"><ele>688.5</ele><time>2026-04-12T15:44:53.783Z</time></trkpt><trkpt lat="42.83098503019696" lon="11.910492080567057"><ele>690.0</ele><time>2026-04-12T15:44:54.783Z</time></trkpt><trkpt lat="42.830957911028" lon="11.9102930617628"><ele>691.5</ele><time>2026-04-12T15:44:55.783Z</time></trkpt><trkpt lat="42.8309146004428" lon="11.910086150589851"><ele>693.0</ele><time>2026-04-12T15:44:56.783Z</time></trkpt><trkpt lat="42.83084287210084" lon="11.909893307856269"><ele>694.3333333333334</ele><time>2026-04-12T15:44:57.783Z</time></trkpt><trkpt lat="42.830754458401415" lon="11.909722877386075"><ele>695.6666666666667</ele><time>2026-04-12T15:44:58.783Z</time></trkpt><trkpt lat="42.83066113125176" lon="11.90955955219833"><ele>697.0</ele><time>2026-04-12T15:44:59.783Z</time></trkpt><trkpt lat="42.83056149944237" lon="11.90940319268804"><ele>697.0</ele><time>2026-04-12T15:45:00.783Z</time></trkpt><trkpt lat="42.83045332361694" lon="11.909246084010405"><ele>697.0</ele><time>2026-04-12T15:45:01.783Z</time></trkpt><trkpt lat="42.830327221274935" lon="11.909101715636105"><ele>697.0</ele><time>2026-04-12T15:45:02.783Z</time></trkpt><trkpt lat="42.83019709769188" lon="11.908981511412103"><ele>697.0</ele><time>2026-04-12T15:45:03.783Z</time></trkpt><trkpt lat="42.83005847088606" lon="11.908886074128015"><ele>697.0</ele><time>2026-04-12T15:45:04.783Z</time></trkpt><trkpt lat="42.829920172925654" lon="11.908831003868594"><ele>697.0</ele><time>2026-04-12T15:45:05.783Z</time></trkpt><trkpt lat="42.82977403714319" lon="11.90884597075017"><ele>697.0</ele><time>2026-04-12T15:45:06.783Z</time></trkpt><trkpt lat="42.829663818911875" lon="11.908867222708128"><ele>697.0</ele><time>2026-04-12T15:45:07.783Z</time></trkpt><trkpt lat="42.82954568922034" lon="11.908874189231295"><ele>697.0</ele><time>2026-04-12T15:45:08.783Z</time></trkpt><trkpt lat="42.82945382146651" lon="11.908834233246285"><ele>697.0</ele><time>2026-04-12T15:45:09.783Z</time></trkpt><trkpt lat="42.82936527273621" lon="11.908766810237907"><ele>697.0</ele><time>2026-04-12T15:45:10.783Z</time></trkpt><trkpt lat="42.8292561778333" lon="11.908679013173037"><ele>697.0</ele><time>2026-04-12T15:45:11.783Z</time></trkpt><trkpt lat="42.82914490887515" lon="11.908577201674804"><ele>697.0</ele><time>2026-04-12T15:45:12.783Z</time></trkpt><trkpt lat="42.82905678117501" lon="11.908470003018124"><ele>697.0</ele><time>2026-04-12T15:45:13.782Z</time></trkpt><trkpt lat="42.829010033755935" lon="11.908361916271673"><ele>697.0</ele><time>2026-04-12T15:45:14.782Z</time></trkpt><trkpt lat="42.82897890435952" lon="11.908252614223246"><ele>697.0</ele><time>2026-04-12T15:45:15.782Z</time></trkpt><trkpt lat="42.82897050838315" lon="11.908134501787991"><ele>697.0</ele><time>2026-04-12T15:45:16.782Z</time></trkpt><trkpt lat="42.82896986147175" lon="11.907998176690368"><ele>699.8</ele><time>2026-04-12T15:45:17.782Z</time></trkpt><trkpt lat="42.82894894215676" lon="11.907852498339748"><ele>702.6</ele><time>2026-04-12T15:45:18.782Z</time></trkpt><trkpt lat="42.82890703152425" lon="11.907732944734764"><ele>705.4</ele><time>2026-04-12T15:45:19.782Z</time></trkpt><trkpt lat="42.82883230633338" lon="11.907639644646395"><ele>708.1999999999999</ele><time>2026-04-12T15:45:20.782Z</time></trkpt><trkpt lat="42.8287182044142" lon="11.90758884761149"><ele>711.0</ele><time>2026-04-12T15:45:21.782Z</time></trkpt><trkpt lat="42.82860549711009" lon="11.907593417749903"><ele>711.0</ele><time>2026-04-12T15:45:22.782Z</time></trkpt><trkpt lat="42.82849037465038" lon="11.907609388221761"><ele>711.0</ele><time>2026-04-12T15:45:23.782Z</time></trkpt><trkpt lat="42.82838003027617" lon="11.90762068011441"><ele>711.0</ele><time>2026-04-12T15:45:24.782Z</time></trkpt><trkpt lat="42.82829212206357" lon="11.907609507400629"><ele>711.0</ele><time>2026-04-12T15:45:25.782Z</time></trkpt><trkpt lat="42.82822270229971" lon="11.907564391460836"><ele>711.0</ele><time>2026-04-12T15:45:26.782Z</time></trkpt><trkpt lat="42.82816922343643" lon="11.907474460090059"><ele>712.0</ele><time>2026-04-12T15:45:27.782Z</time></trkpt><trkpt lat="42.82809446773764" lon="11.907330957066355"><ele>713.0</ele><time>2026-04-12T15:45:28.782Z</time></trkpt><trkpt lat="42.82801535226054" lon="11.90720491181703"><ele>714.0</ele><time>2026-04-12T15:45:29.782Z</time></trkpt><trkpt lat="42.82792079404768" lon="11.907087018662159"><ele>715.0</ele><time>2026-04-12T15:45:30.782Z</time></trkpt><trkpt lat="42.82780172060644" lon="11.906976686311621"><ele>715.0</ele><time>2026-04-12T15:45:31.782Z</time></trkpt><trkpt lat="42.82768558384612" lon="11.906874563083983"><ele>715.0</ele><time>2026-04-12T15:45:32.782Z</time></trkpt><trkpt lat="42.82757014987735" lon="11.906779445932763"><ele>715.0</ele><time>2026-04-12T15:45:33.782Z</time></trkpt><trkpt lat="42.827445535653915" lon="11.906710226258957"><ele>715.0</ele><time>2026-04-12T15:45:34.782Z</time></trkpt><trkpt lat="42.82731490821739" lon="11.906711616500871"><ele>712.25</ele><time>2026-04-12T15:45:35.782Z</time></trkpt><trkpt lat="42.82719710882524" lon="11.90675339582161"><ele>709.5</ele><time>2026-04-12T15:45:36.782Z</time></trkpt><trkpt lat="42.827090665673246" lon="11.906802141207956"><ele>706.75</ele><time>2026-04-12T15:45:37.782Z</time></trkpt><trkpt lat="42.82698966321818" lon="11.906833872425588"><ele>704.0</ele><time>2026-04-12T15:45:38.782Z</time></trkpt><trkpt lat="42.82687463199395" lon="11.906836581118059"><ele>703.0</ele><time>2026-04-12T15:45:39.782Z</time></trkpt><trkpt lat="42.826771182178774" lon="11.906785451366993"><ele>702.0</ele><time>2026-04-12T15:45:40.781Z</time></trkpt><trkpt lat="42.826652660578254" lon="11.90672581840952"><ele>701.0</ele><time>2026-04-12T15:45:41.781Z</time></trkpt><trkpt lat="42.82652381107665" lon="11.906666774949459"><ele>700.0</ele><time>2026-04-12T15:45:42.781Z</time></trkpt><trkpt lat="42.82638421379863" lon="11.906621269368948"><ele>703.0</ele><time>2026-04-12T15:45:43.781Z</time></trkpt><trkpt lat="42.826251586099396" lon="11.906599325709285"><ele>706.0</ele><time>2026-04-12T15:45:44.781Z</time></trkpt><trkpt lat="42.82612561395952" lon="11.906578346544336"><ele>709.0</ele><time>2026-04-12T15:45:45.781Z</time></trkpt><trkpt lat="42.82600673714454" lon="11.906582629557755"><ele>712.0</ele><time>2026-04-12T15:45:46.781Z</time></trkpt><trkpt lat="42.8258979592841" lon="11.9065473445996"><ele>712.0</ele><time>2026-04-12T15:45:47.781Z</time></trkpt><trkpt lat="42.82567696646395" lon="11.906507661082014"><ele>712.0</ele><time>2026-04-12T15:45:49.781Z</time></trkpt><trkpt lat="42.825581136602516" lon="11.906512253968106"><ele>712.0</ele><time>2026-04-12T15:45:50.781Z</time></trkpt><trkpt lat="42.82549834462005" lon="11.906527378728638"><ele>712.0</ele><time>2026-04-12T15:45:51.781Z</time></trkpt><trkpt lat="42.82543119142665" lon="11.906535724844595"><ele>712.0</ele><time>2026-04-12T15:45:52.781Z</time></trkpt><trkpt lat="42.825355698416146" lon="11.906523808378603"><ele>712.0</ele><time>2026-04-12T15:45:54.781Z</time></trkpt><trkpt lat="42.82525438922267" lon="11.906364014966208"><ele>712.0</ele><time>2026-04-12T15:45:58.781Z</time></trkpt><trkpt lat="42.82518545787169" lon="11.906189965130539"><ele>712.0</ele><time>2026-04-12T15:46:00.783Z</time></trkpt><trkpt lat="42.825126987424255" lon="11.906079665624624"><ele>712.25</ele><time>2026-04-12T15:46:01.783Z</time></trkpt><trkpt lat="42.82505846438957" lon="11.905970055825161"><ele>712.5</ele><time>2026-04-12T15:46:02.783Z</time></trkpt><trkpt lat="42.82497881588835" lon="11.905855510696165"><ele>712.75</ele><time>2026-04-12T15:46:03.783Z</time></trkpt><trkpt lat="42.82487532361568" lon="11.905733935203328"><ele>713.0</ele><time>2026-04-12T15:46:04.783Z</time></trkpt><trkpt lat="42.82475086558304" lon="11.905619299307878"><ele>712.0</ele><time>2026-04-12T15:46:05.783Z</time></trkpt><trkpt lat="42.82462024908871" lon="11.905526246809053"><ele>711.0</ele><time>2026-04-12T15:46:06.783Z</time></trkpt><trkpt lat="42.82449314560987" lon="11.905452883831792"><ele>710.0</ele><time>2026-04-12T15:46:07.783Z</time></trkpt><trkpt lat="42.82436580686001" lon="11.905395264568176"><ele>709.0</ele><time>2026-04-12T15:46:08.783Z</time></trkpt><trkpt lat="42.82423011582639" lon="11.905363759178194"><ele>709.0</ele><time>2026-04-12T15:46:09.783Z</time></trkpt><trkpt lat="42.82408846291895" lon="11.905349295854206"><ele>709.0</ele><time>2026-04-12T15:46:10.783Z</time></trkpt><trkpt lat="42.82395093048313" lon="11.905349632020151"><ele>709.0</ele><time>2026-04-12T15:46:11.783Z</time></trkpt><trkpt lat="42.82381392100866" lon="11.905338262715397"><ele>709.0</ele><time>2026-04-12T15:46:12.783Z</time></trkpt><trkpt lat="42.823679806881934" lon="11.905313558629702"><ele>709.0</ele><time>2026-04-12T15:46:13.783Z</time></trkpt><trkpt lat="42.8235452502388" lon="11.90527017662822"><ele>709.0</ele><time>2026-04-12T15:46:14.783Z</time></trkpt><trkpt lat="42.823421965744956" lon="11.905211470022328"><ele>709.0</ele><time>2026-04-12T15:46:15.782Z</time></trkpt><trkpt lat="42.82330891389953" lon="11.905144122893796"><ele>709.0</ele><time>2026-04-12T15:46:16.782Z</time></trkpt><trkpt lat="42.8231974048368" lon="11.905075527567012"><ele>707.5</ele><time>2026-04-12T15:46:17.782Z</time></trkpt><trkpt lat="42.82310096278186" lon="11.905004090190065"><ele>706.0</ele><time>2026-04-12T15:46:18.782Z</time></trkpt><trkpt lat="42.82300455216044" lon="11.90490383773158"><ele>704.5</ele><time>2026-04-12T15:46:19.782Z</time></trkpt><trkpt lat="42.82292867468314" lon="11.904786645289352"><ele>703.0</ele><time>2026-04-12T15:46:20.782Z</time></trkpt><trkpt lat="42.82286454525018" lon="11.904648936648663"><ele>703.0</ele><time>2026-04-12T15:46:21.782Z</time></trkpt><trkpt lat="42.822813353641244" lon="11.904447816624101"><ele>703.0</ele><time>2026-04-12T15:46:22.782Z</time></trkpt><trkpt lat="42.82278953778386" lon="11.904261212560842"><ele>703.0</ele><time>2026-04-12T15:46:23.782Z</time></trkpt><trkpt lat="42.82276376126661" lon="11.904086119976341"><ele>703.0</ele><time>2026-04-12T15:46:24.782Z</time></trkpt><trkpt lat="42.82272185952022" lon="11.903927172068347"><ele>704.0</ele><time>2026-04-12T15:46:25.782Z</time></trkpt><trkpt lat="42.8226579663053" lon="11.90376490864228"><ele>705.0</ele><time>2026-04-12T15:46:26.782Z</time></trkpt><trkpt lat="42.822567681523125" lon="11.903602839939305"><ele>706.0</ele><time>2026-04-12T15:46:27.782Z</time></trkpt><trkpt lat="42.82247249292242" lon="11.903437143476996"><ele>707.0</ele><time>2026-04-12T15:46:28.782Z</time></trkpt><trkpt lat="42.8223759224231" lon="11.90328088609796"><ele>703.6666666666666</ele><time>2026-04-12T15:46:29.782Z</time></trkpt><trkpt lat="42.822266774055656" lon="11.903114828144146"><ele>700.3333333333334</ele><time>2026-04-12T15:46:30.782Z</time></trkpt><trkpt lat="42.8221391195178" lon="11.90295727532147"><ele>697.0</ele><time>2026-04-12T15:46:31.782Z</time></trkpt><trkpt lat="42.821993586729704" lon="11.902849028775808"><ele>697.0</ele><time>2026-04-12T15:46:32.782Z</time></trkpt><trkpt lat="42.82183632933035" lon="11.90278469883734"><ele>697.0</ele><time>2026-04-12T15:46:33.782Z</time></trkpt><trkpt lat="42.82167809116532" lon="11.90274094361669"><ele>697.0</ele><time>2026-04-12T15:46:34.782Z</time></trkpt><trkpt lat="42.82152886749923" lon="11.902706561834203"><ele>695.75</ele><time>2026-04-12T15:46:35.782Z</time></trkpt><trkpt lat="42.821392900683435" lon="11.902649024113947"><ele>694.5</ele><time>2026-04-12T15:46:36.782Z</time></trkpt><trkpt lat="42.821265009875646" lon="11.902571578051555"><ele>693.25</ele><time>2026-04-12T15:46:37.782Z</time></trkpt><trkpt lat="42.82113913524554" lon="11.902470422778128"><ele>692.0</ele><time>2026-04-12T15:46:38.782Z</time></trkpt><trkpt lat="42.82100659722949" lon="11.902340027958568"><ele>693.6666666666666</ele><time>2026-04-12T15:46:39.782Z</time></trkpt><trkpt lat="42.8208790514763" lon="11.902178816623266"><ele>695.3333333333334</ele><time>2026-04-12T15:46:40.782Z</time></trkpt><trkpt lat="42.820755247178376" lon="11.90199004522612"><ele>697.0</ele><time>2026-04-12T15:46:41.782Z</time></trkpt><trkpt lat="42.820640619580296" lon="11.901797809418444"><ele>692.6666666666667</ele><time>2026-04-12T15:46:42.781Z</time></trkpt><trkpt lat="42.82052839296038" lon="11.901604703563967"><ele>688.3333333333334</ele><time>2026-04-12T15:46:43.781Z</time></trkpt><trkpt lat="42.82041466629214" lon="11.901399842296696"><ele>684.0</ele><time>2026-04-12T15:46:44.781Z</time></trkpt><trkpt lat="42.82031095771739" lon="11.901194449342212"><ele>684.0</ele><time>2026-04-12T15:46:45.781Z</time></trkpt><trkpt lat="42.820219764546046" lon="11.900982043057633"><ele>684.0</ele><time>2026-04-12T15:46:46.781Z</time></trkpt><trkpt lat="42.82013034582553" lon="11.900753806982781"><ele>684.0</ele><time>2026-04-12T15:46:47.781Z</time></trkpt><trkpt lat="42.8200527865563" lon="11.90054969824198"><ele>684.0</ele><time>2026-04-12T15:46:48.781Z</time></trkpt><trkpt lat="42.81996953040804" lon="11.900328941233187"><ele>684.0</ele><time>2026-04-12T15:46:49.781Z</time></trkpt><trkpt lat="42.819886639285365" lon="11.900107513358085"><ele>684.0</ele><time>2026-04-12T15:46:50.781Z</time></trkpt><trkpt lat="42.8198066625202" lon="11.899887142543427"><ele>684.0</ele><time>2026-04-12T15:46:51.781Z</time></trkpt><trkpt lat="42.81973719308703" lon="11.899674768238635"><ele>684.0</ele><time>2026-04-12T15:46:52.781Z</time></trkpt><trkpt lat="42.81967696686287" lon="11.89946174252833"><ele>684.0</ele><time>2026-04-12T15:46:53.781Z</time></trkpt><trkpt lat="42.81962293906824" lon="11.899247935545073"><ele>683.25</ele><time>2026-04-12T15:46:54.781Z</time></trkpt><trkpt lat="42.81957220633041" lon="11.899039464511137"><ele>682.5</ele><time>2026-04-12T15:46:55.781Z</time></trkpt><trkpt lat="42.8195293637019" lon="11.898862416442112"><ele>681.75</ele><time>2026-04-12T15:46:56.781Z</time></trkpt><trkpt lat="42.81948851160391" lon="11.898693594528993"><ele>681.0</ele><time>2026-04-12T15:46:57.781Z</time></trkpt><trkpt lat="42.819449976756104" lon="11.898534263222931"><ele>680.75</ele><time>2026-04-12T15:46:58.781Z</time></trkpt><trkpt lat="42.81941559043017" lon="11.898392035965939"><ele>680.5</ele><time>2026-04-12T15:46:59.781Z</time></trkpt><trkpt lat="42.8193764382139" lon="11.898232636865707"><ele>680.25</ele><time>2026-04-12T15:47:00.781Z</time></trkpt><trkpt lat="42.81933259573897" lon="11.898054702413017"><ele>680.0</ele><time>2026-04-12T15:47:01.781Z</time></trkpt><trkpt lat="42.81928406016397" lon="11.897859077567745"><ele>680.0</ele><time>2026-04-12T15:47:02.781Z</time></trkpt><trkpt lat="42.81923407961589" lon="11.897645660321965"><ele>680.0</ele><time>2026-04-12T15:47:03.781Z</time></trkpt><trkpt lat="42.81918074396176" lon="11.897417917705615"><ele>680.0</ele><time>2026-04-12T15:47:04.781Z</time></trkpt><trkpt lat="42.819125505401" lon="11.897176895036715"><ele>680.3333333333333</ele><time>2026-04-12T15:47:05.781Z</time></trkpt><trkpt lat="42.81906486020327" lon="11.896929741435374"><ele>680.6666666666666</ele><time>2026-04-12T15:47:06.781Z</time></trkpt><trkpt lat="42.81899940155151" lon="11.896676653663599"><ele>681.0</ele><time>2026-04-12T15:47:07.781Z</time></trkpt><trkpt lat="42.81893257240712" lon="11.896435000870618"><ele>679.6666666666666</ele><time>2026-04-12T15:47:08.781Z</time></trkpt><trkpt lat="42.818864091061684" lon="11.896208812869355"><ele>678.3333333333333</ele><time>2026-04-12T15:47:09.78Z</time></trkpt><trkpt lat="42.8187926331703" lon="11.895986450802516"><ele>677.0</ele><time>2026-04-12T15:47:10.78Z</time></trkpt><trkpt lat="42.818727753304486" lon="11.895772369526792"><ele>676.3333333333333</ele><time>2026-04-12T15:47:11.78Z</time></trkpt><trkpt lat="42.8186778535197" lon="11.895566492384853"><ele>675.6666666666666</ele><time>2026-04-12T15:47:12.78Z</time></trkpt><trkpt lat="42.81864940203706" lon="11.89534074672894"><ele>675.0</ele><time>2026-04-12T15:47:13.78Z</time></trkpt><trkpt lat="42.81863720085243" lon="11.895117620230161"><ele>673.6666666666666</ele><time>2026-04-12T15:47:14.78Z</time></trkpt><trkpt lat="42.81862638686945" lon="11.894895074865895"><ele>672.3333333333333</ele><time>2026-04-12T15:47:15.78Z</time></trkpt><trkpt lat="42.818597720528864" lon="11.894668957857087"><ele>671.0</ele><time>2026-04-12T15:47:16.78Z</time></trkpt><trkpt lat="42.81854184940559" lon="11.894465332537763"><ele>671.0</ele><time>2026-04-12T15:47:17.78Z</time></trkpt><trkpt lat="42.81845811084704" lon="11.894280154400516"><ele>671.0</ele><time>2026-04-12T15:47:18.78Z</time></trkpt><trkpt lat="42.818340290297584" lon="11.894137136042605"><ele>671.0</ele><time>2026-04-12T15:47:19.78Z</time></trkpt><trkpt lat="42.81822026013256" lon="11.893998791129638"><ele>671.0</ele><time>2026-04-12T15:47:20.78Z</time></trkpt><trkpt lat="42.81808863838345" lon="11.89385905418415"><ele>671.0</ele><time>2026-04-12T15:47:21.78Z</time></trkpt><trkpt lat="42.81795819793928" lon="11.89369768141871"><ele>671.0</ele><time>2026-04-12T15:47:22.78Z</time></trkpt><trkpt lat="42.817833697086265" lon="11.893518597207947"><ele>672.3333333333333</ele><time>2026-04-12T15:47:23.78Z</time></trkpt><trkpt lat="42.81771082984684" lon="11.893333590170432"><ele>673.6666666666666</ele><time>2026-04-12T15:47:24.78Z</time></trkpt><trkpt lat="42.81759504173948" lon="11.89316436217408"><ele>675.0</ele><time>2026-04-12T15:47:25.78Z</time></trkpt><trkpt lat="42.81748364748257" lon="11.892994041955925"><ele>673.5</ele><time>2026-04-12T15:47:26.78Z</time></trkpt><trkpt lat="42.81738453609635" lon="11.892822612205235"><ele>672.0</ele><time>2026-04-12T15:47:27.78Z</time></trkpt><trkpt lat="42.81730642816826" lon="11.892651217056626"><ele>670.5</ele><time>2026-04-12T15:47:28.78Z</time></trkpt><trkpt lat="42.81724966584121" lon="11.892487289295936"><ele>669.0</ele><time>2026-04-12T15:47:29.78Z</time></trkpt><trkpt lat="42.81721806997564" lon="11.892308498024441"><ele>669.0</ele><time>2026-04-12T15:47:30.78Z</time></trkpt><trkpt lat="42.81725129029475" lon="11.892122348419619"><ele>669.0</ele><time>2026-04-12T15:47:31.78Z</time></trkpt><trkpt lat="42.817302552536574" lon="11.891946489525651"><ele>669.0</ele><time>2026-04-12T15:47:32.78Z</time></trkpt><trkpt lat="42.81734816094953" lon="11.891773748786122"><ele>669.0</ele><time>2026-04-12T15:47:33.78Z</time></trkpt><trkpt lat="42.81741550056386" lon="11.891597413844657"><ele>667.0</ele><time>2026-04-12T15:47:34.78Z</time></trkpt><trkpt lat="42.81742035571474" lon="11.891391194957487"><ele>665.0</ele><time>2026-04-12T15:47:35.779Z</time></trkpt><trkpt lat="42.817404976326" lon="11.89119033288575"><ele>663.0</ele><time>2026-04-12T15:47:36.779Z</time></trkpt><trkpt lat="42.817367870567985" lon="11.891005768490981"><ele>661.0</ele><time>2026-04-12T15:47:37.779Z</time></trkpt><trkpt lat="42.81729934964346" lon="11.890819476207652"><ele>659.75</ele><time>2026-04-12T15:47:38.779Z</time></trkpt><trkpt lat="42.81723463371665" lon="11.890629707461176"><ele>658.5</ele><time>2026-04-12T15:47:39.779Z</time></trkpt><trkpt lat="42.81718927167167" lon="11.890443485562155"><ele>657.25</ele><time>2026-04-12T15:47:40.779Z</time></trkpt><trkpt lat="42.81717325010104" lon="11.890269132268678"><ele>656.0</ele><time>2026-04-12T15:47:41.779Z</time></trkpt><trkpt lat="42.81719469492105" lon="11.890113357798038"><ele>653.5</ele><time>2026-04-12T15:47:42.779Z</time></trkpt><trkpt lat="42.81725601419372" lon="11.889979904409198"><ele>651.0</ele><time>2026-04-12T15:47:43.779Z</time></trkpt><trkpt lat="42.81734636607385" lon="11.88986154881517"><ele>648.5</ele><time>2026-04-12T15:47:44.779Z</time></trkpt><trkpt lat="42.81745543888335" lon="11.889733719799533"><ele>646.0</ele><time>2026-04-12T15:47:45.779Z</time></trkpt><trkpt lat="42.81756990448986" lon="11.88958899208221"><ele>647.0</ele><time>2026-04-12T15:47:46.779Z</time></trkpt><trkpt lat="42.8176830174425" lon="11.889407606162399"><ele>648.0</ele><time>2026-04-12T15:47:47.779Z</time></trkpt><trkpt lat="42.81780057921414" lon="11.889211881016287"><ele>649.0</ele><time>2026-04-12T15:47:48.779Z</time></trkpt><trkpt lat="42.81792425443125" lon="11.889009812292102"><ele>645.3333333333334</ele><time>2026-04-12T15:47:49.779Z</time></trkpt><trkpt lat="42.81805155297641" lon="11.888803686055303"><ele>641.6666666666666</ele><time>2026-04-12T15:47:50.779Z</time></trkpt><trkpt lat="42.818185140478896" lon="11.888588800883102"><ele>638.0</ele><time>2026-04-12T15:47:51.779Z</time></trkpt><trkpt lat="42.81831930132647" lon="11.888377437616027"><ele>638.0</ele><time>2026-04-12T15:47:52.779Z</time></trkpt><trkpt lat="42.818452421067015" lon="11.888158758034663"><ele>638.0</ele><time>2026-04-12T15:47:53.779Z</time></trkpt><trkpt lat="42.818579796766315" lon="11.887940831684555"><ele>638.0</ele><time>2026-04-12T15:47:54.779Z</time></trkpt><trkpt lat="42.81870409827889" lon="11.88772540083459"><ele>636.3333333333333</ele><time>2026-04-12T15:47:55.779Z</time></trkpt><trkpt lat="42.818828232926016" lon="11.887517461793182"><ele>634.6666666666666</ele><time>2026-04-12T15:47:56.779Z</time></trkpt><trkpt lat="42.81894429577243" lon="11.887311596784066"><ele>633.0</ele><time>2026-04-12T15:47:57.779Z</time></trkpt><trkpt lat="42.81905984873647" lon="11.887108987719616"><ele>633.0</ele><time>2026-04-12T15:47:58.779Z</time></trkpt><trkpt lat="42.819170785505726" lon="11.886908510886213"><ele>633.0</ele><time>2026-04-12T15:47:59.779Z</time></trkpt><trkpt lat="42.81928367111967" lon="11.886710847815745"><ele>633.0</ele><time>2026-04-12T15:48:00.779Z</time></trkpt><trkpt lat="42.81939173411263" lon="11.886516736851396"><ele>633.0</ele><time>2026-04-12T15:48:01.779Z</time></trkpt><trkpt lat="42.819499003331245" lon="11.886332017665893"><ele>633.0</ele><time>2026-04-12T15:48:02.778Z</time></trkpt><trkpt lat="42.81960447663509" lon="11.886158234413784"><ele>633.0</ele><time>2026-04-12T15:48:03.778Z</time></trkpt><trkpt lat="42.81970429201701" lon="11.885986957423704"><ele>632.0</ele><time>2026-04-12T15:48:04.778Z</time></trkpt><trkpt lat="42.81980344928542" lon="11.885812934498544"><ele>631.0</ele><time>2026-04-12T15:48:05.778Z</time></trkpt><trkpt lat="42.81991351486423" lon="11.885654821175251"><ele>630.0</ele><time>2026-04-12T15:48:06.781Z</time></trkpt><trkpt lat="42.81998880082679" lon="11.885465247032528"><ele>630.0</ele><time>2026-04-12T15:48:07.781Z</time></trkpt><trkpt lat="42.82004083274167" lon="11.88526365972499"><ele>630.0</ele><time>2026-04-12T15:48:08.781Z</time></trkpt><trkpt lat="42.82005452178501" lon="11.885054831308302"><ele>630.0</ele><time>2026-04-12T15:48:09.78Z</time></trkpt><trkpt lat="42.82007572032054" lon="11.884848588470502"><ele>627.6666666666666</ele><time>2026-04-12T15:48:10.781Z</time></trkpt><trkpt lat="42.82009687794148" lon="11.884641943552593"><ele>625.3333333333333</ele><time>2026-04-12T15:48:11.781Z</time></trkpt><trkpt lat="42.82011425885523" lon="11.884424681578391"><ele>623.0</ele><time>2026-04-12T15:48:12.781Z</time></trkpt><trkpt lat="42.82011837679454" lon="11.884202584721194"><ele>621.6666666666666</ele><time>2026-04-12T15:48:13.78Z</time></trkpt><trkpt lat="42.82010028195599" lon="11.88398355058623"><ele>620.3333333333334</ele><time>2026-04-12T15:48:14.78Z</time></trkpt><trkpt lat="42.82006744965752" lon="11.883765992201589"><ele>619.0</ele><time>2026-04-12T15:48:15.78Z</time></trkpt><trkpt lat="42.82003211502052" lon="11.883572541014207"><ele>618.0</ele><time>2026-04-12T15:48:16.78Z</time></trkpt><trkpt lat="42.820004882616196" lon="11.883400391396762"><ele>617.0</ele><time>2026-04-12T15:48:17.78Z</time></trkpt><trkpt lat="42.81999433952077" lon="11.883237191765291"><ele>616.0</ele><time>2026-04-12T15:48:18.78Z</time></trkpt><trkpt lat="42.820024395439326" lon="11.883085121631112"><ele>615.0</ele><time>2026-04-12T15:48:19.781Z</time></trkpt><trkpt lat="42.82007561363464" lon="11.882962020809053"><ele>617.0</ele><time>2026-04-12T15:48:20.781Z</time></trkpt><trkpt lat="42.82015345513718" lon="11.882842336717935"><ele>619.0</ele><time>2026-04-12T15:48:21.781Z</time></trkpt><trkpt lat="42.82024913859113" lon="11.882714480473776"><ele>621.0</ele><time>2026-04-12T15:48:22.781Z</time></trkpt><trkpt lat="42.82035424775303" lon="11.882573541604428"><ele>623.0</ele><time>2026-04-12T15:48:23.781Z</time></trkpt><trkpt lat="42.82046683480153" lon="11.882424637118737"><ele>623.0</ele><time>2026-04-12T15:48:24.781Z</time></trkpt><trkpt lat="42.8205787376718" lon="11.88227601560517"><ele>623.0</ele><time>2026-04-12T15:48:25.781Z</time></trkpt><trkpt lat="42.82068602021847" lon="11.882131243933916"><ele>623.0</ele><time>2026-04-12T15:48:26.781Z</time></trkpt><trkpt lat="42.820792997384416" lon="11.881989040700029"><ele>623.0</ele><time>2026-04-12T15:48:27.781Z</time></trkpt><trkpt lat="42.82090180526465" lon="11.881848738353527"><ele>623.0</ele><time>2026-04-12T15:48:28.781Z</time></trkpt><trkpt lat="42.821022747372176" lon="11.881722912720475"><ele>623.0</ele><time>2026-04-12T15:48:29.781Z</time></trkpt><trkpt lat="42.82114540423204" lon="11.881605195819967"><ele>624.5</ele><time>2026-04-12T15:48:30.781Z</time></trkpt><trkpt lat="42.821266921117406" lon="11.881512728296594"><ele>626.0</ele><time>2026-04-12T15:48:31.781Z</time></trkpt><trkpt lat="42.82138507463647" lon="11.881432203713143"><ele>627.5</ele><time>2026-04-12T15:48:32.78Z</time></trkpt><trkpt lat="42.821508512128105" lon="11.881348320166836"><ele>629.0</ele><time>2026-04-12T15:48:33.78Z</time></trkpt><trkpt lat="42.82162036251153" lon="11.881237346461328"><ele>629.0</ele><time>2026-04-12T15:48:34.78Z</time></trkpt><trkpt lat="42.82171294827319" lon="11.881105676369707"><ele>629.0</ele><time>2026-04-12T15:48:35.78Z</time></trkpt><trkpt lat="42.821795868612284" lon="11.88095977738341"><ele>629.0</ele><time>2026-04-12T15:48:36.78Z</time></trkpt><trkpt lat="42.82187250095918" lon="11.880808416857555"><ele>629.0</ele><time>2026-04-12T15:48:37.78Z</time></trkpt><trkpt lat="42.821930469175676" lon="11.880634993098223"><ele>626.25</ele><time>2026-04-12T15:48:38.78Z</time></trkpt><trkpt lat="42.82198014914854" lon="11.880473083980622"><ele>623.5</ele><time>2026-04-12T15:48:39.78Z</time></trkpt><trkpt lat="42.82203035265401" lon="11.880324187579273"><ele>620.75</ele><time>2026-04-12T15:48:40.78Z</time></trkpt><trkpt lat="42.82209311109333" lon="11.880205015995223"><ele>618.0</ele><time>2026-04-12T15:48:41.78Z</time></trkpt><trkpt lat="42.82217303935491" lon="11.880094087902249"><ele>614.0</ele><time>2026-04-12T15:48:42.78Z</time></trkpt><trkpt lat="42.822255080020305" lon="11.879995390038696"><ele>610.0</ele><time>2026-04-12T15:48:43.78Z</time></trkpt><trkpt lat="42.82237393808592" lon="11.879964290655442"><ele>606.0</ele><time>2026-04-12T15:48:44.78Z</time></trkpt><trkpt lat="42.822486858063975" lon="11.879906025690666"><ele>602.0</ele><time>2026-04-12T15:48:45.78Z</time></trkpt><trkpt lat="42.82256989164389" lon="11.879787895366835"><ele>602.0</ele><time>2026-04-12T15:48:46.78Z</time></trkpt><trkpt lat="42.8226595984268" lon="11.879693170204233"><ele>602.0</ele><time>2026-04-12T15:48:47.78Z</time></trkpt><trkpt lat="42.822767154506096" lon="11.879634715835254"><ele>602.0</ele><time>2026-04-12T15:48:48.78Z</time></trkpt><trkpt lat="42.822876935765386" lon="11.879577251631929"><ele>602.0</ele><time>2026-04-12T15:48:49.78Z</time></trkpt><trkpt lat="42.82299260747388" lon="11.879524986476449"><ele>602.0</ele><time>2026-04-12T15:48:50.78Z</time></trkpt><trkpt lat="42.82311809838756" lon="11.87947821202196"><ele>602.0</ele><time>2026-04-12T15:48:51.78Z</time></trkpt><trkpt lat="42.82324868011613" lon="11.879430921170062"><ele>602.0</ele><time>2026-04-12T15:48:52.78Z</time></trkpt><trkpt lat="42.82336589568821" lon="11.879389301481494"><ele>602.0</ele><time>2026-04-12T15:48:53.78Z</time></trkpt><trkpt lat="42.82348318549445" lon="11.879351894568376"><ele>601.8000000000001</ele><time>2026-04-12T15:48:54.78Z</time></trkpt><trkpt lat="42.823592445913036" lon="11.879321285344018"><ele>601.6</ele><time>2026-04-12T15:48:55.78Z</time></trkpt><trkpt lat="42.82368583863011" lon="11.879298134817423"><ele>601.4000000000001</ele><time>2026-04-12T15:48:56.78Z</time></trkpt><trkpt lat="42.82376370174487" lon="11.879295339817633"><ele>601.2</ele><time>2026-04-12T15:48:57.78Z</time></trkpt><trkpt lat="42.823861486525" lon="11.87932521805439"><ele>601.0</ele><time>2026-04-12T15:48:59.779Z</time></trkpt><trkpt lat="42.82392124050827" lon="11.879395893825237"><ele>601.0</ele><time>2026-04-12T15:49:01.779Z</time></trkpt><trkpt lat="42.82410491185596" lon="11.879374103572871"><ele>601.0</ele><time>2026-04-12T15:49:03.779Z</time></trkpt><trkpt lat="42.82421060105913" lon="11.87938641754119"><ele>601.0</ele><time>2026-04-12T15:49:04.779Z</time></trkpt><trkpt lat="42.824342706932065" lon="11.879419734051758"><ele>601.0</ele><time>2026-04-12T15:49:05.779Z</time></trkpt><trkpt lat="42.82448419278002" lon="11.879436469258433"><ele>599.75</ele><time>2026-04-12T15:49:06.779Z</time></trkpt><trkpt lat="42.8246307754768" lon="11.87944319043385"><ele>598.5</ele><time>2026-04-12T15:49:07.779Z</time></trkpt><trkpt lat="42.824768015567564" lon="11.879395068948474"><ele>597.25</ele><time>2026-04-12T15:49:08.779Z</time></trkpt><trkpt lat="42.82488496267574" lon="11.879323874025715"><ele>596.0</ele><time>2026-04-12T15:49:09.779Z</time></trkpt><trkpt lat="42.82498720725311" lon="11.879213266217295"><ele>596.0</ele><time>2026-04-12T15:49:10.779Z</time></trkpt><trkpt lat="42.82507490518285" lon="11.879074521372276"><ele>596.0</ele><time>2026-04-12T15:49:11.779Z</time></trkpt><trkpt lat="42.82513804562254" lon="11.878910448037107"><ele>596.0</ele><time>2026-04-12T15:49:12.779Z</time></trkpt><trkpt lat="42.82517999774836" lon="11.878722692456211"><ele>596.0</ele><time>2026-04-12T15:49:13.779Z</time></trkpt><trkpt lat="42.8252058773689" lon="11.878518470751306"><ele>599.0</ele><time>2026-04-12T15:49:14.779Z</time></trkpt><trkpt lat="42.825220263452756" lon="11.878300404309252"><ele>602.0</ele><time>2026-04-12T15:49:15.779Z</time></trkpt><trkpt lat="42.825227969606914" lon="11.878065895576194"><ele>605.0</ele><time>2026-04-12T15:49:16.779Z</time></trkpt><trkpt lat="42.825233351731505" lon="11.877825799958801"><ele>603.6666666666666</ele><time>2026-04-12T15:49:17.779Z</time></trkpt><trkpt lat="42.82521794238824" lon="11.877568832801485"><ele>602.3333333333334</ele><time>2026-04-12T15:49:18.779Z</time></trkpt><trkpt lat="42.82519371288759" lon="11.877302894823313"><ele>601.0</ele><time>2026-04-12T15:49:19.779Z</time></trkpt><trkpt lat="42.82517020836099" lon="11.87703511364445"><ele>601.0</ele><time>2026-04-12T15:49:20.779Z</time></trkpt><trkpt lat="42.82514778731332" lon="11.876775139831722"><ele>601.0</ele><time>2026-04-12T15:49:21.779Z</time></trkpt><trkpt lat="42.82512682454233" lon="11.876521446094529"><ele>601.0</ele><time>2026-04-12T15:49:22.779Z</time></trkpt><trkpt lat="42.82511037385895" lon="11.876292145142806"><ele>594.0</ele><time>2026-04-12T15:49:23.779Z</time></trkpt><trkpt lat="42.825096431127044" lon="11.87609630409025"><ele>587.0</ele><time>2026-04-12T15:49:24.779Z</time></trkpt><trkpt lat="42.82507805813055" lon="11.875936332205383"><ele>580.0</ele><time>2026-04-12T15:49:25.778Z</time></trkpt><trkpt lat="42.82504916637598" lon="11.875802153610993"><ele>573.0</ele><time>2026-04-12T15:49:26.778Z</time></trkpt><trkpt lat="42.824988494031665" lon="11.875684983483728"><ele>573.0</ele><time>2026-04-12T15:49:27.778Z</time></trkpt><trkpt lat="42.824917639964454" lon="11.87557106767461"><ele>573.0</ele><time>2026-04-12T15:49:28.778Z</time></trkpt><trkpt lat="42.82481992648268" lon="11.875472915425437"><ele>573.0</ele><time>2026-04-12T15:49:29.778Z</time></trkpt><trkpt lat="42.824714734044534" lon="11.875373705393152"><ele>573.0</ele><time>2026-04-12T15:49:30.778Z</time></trkpt><trkpt lat="42.82460479988289" lon="11.875267542196568"><ele>573.0</ele><time>2026-04-12T15:49:31.778Z</time></trkpt><trkpt lat="42.824491390794535" lon="11.87516277397335"><ele>573.0</ele><time>2026-04-12T15:49:32.778Z</time></trkpt><trkpt lat="42.824376291413145" lon="11.875052162110439"><ele>573.0</ele><time>2026-04-12T15:49:33.778Z</time></trkpt><trkpt lat="42.824256620153065" lon="11.87495248878663"><ele>573.0</ele><time>2026-04-12T15:49:34.778Z</time></trkpt><trkpt lat="42.824130861476704" lon="11.874863058185852"><ele>573.0</ele><time>2026-04-12T15:49:35.778Z</time></trkpt><trkpt lat="42.82399521187222" lon="11.874804435850482"><ele>573.0</ele><time>2026-04-12T15:49:36.778Z</time></trkpt><trkpt lat="42.82386098311636" lon="11.874733355950543"><ele>573.0</ele><time>2026-04-12T15:49:37.778Z</time></trkpt><trkpt lat="42.82372036060025" lon="11.874656487374565"><ele>573.0</ele><time>2026-04-12T15:49:38.778Z</time></trkpt><trkpt lat="42.823584751328454" lon="11.874588829425432"><ele>573.5</ele><time>2026-04-12T15:49:39.778Z</time></trkpt><trkpt lat="42.823459142595944" lon="11.874521505033215"><ele>574.0</ele><time>2026-04-12T15:49:40.778Z</time></trkpt><trkpt lat="42.823349611337505" lon="11.874431537494708"><ele>574.5</ele><time>2026-04-12T15:49:41.778Z</time></trkpt><trkpt lat="42.823261849533736" lon="11.874321088090444"><ele>575.0</ele><time>2026-04-12T15:49:42.778Z</time></trkpt><trkpt lat="42.82318777053577" lon="11.874189384686192"><ele>575.0</ele><time>2026-04-12T15:49:43.778Z</time></trkpt><trkpt lat="42.82311865972297" lon="11.874039068422169"><ele>575.0</ele><time>2026-04-12T15:49:44.778Z</time></trkpt><trkpt lat="42.823059299402956" lon="11.873907111024147"><ele>575.0</ele><time>2026-04-12T15:49:45.778Z</time></trkpt><trkpt lat="42.823016147282885" lon="11.873791623528568"><ele>575.0</ele><time>2026-04-12T15:49:46.778Z</time></trkpt><trkpt lat="42.82299938235319" lon="11.873679186790868"><ele>575.0</ele><time>2026-04-12T15:49:47.778Z</time></trkpt><trkpt lat="42.822996793927345" lon="11.873544393795147"><ele>576.5</ele><time>2026-04-12T15:49:48.778Z</time></trkpt><trkpt lat="42.82301485458251" lon="11.873406706158269"><ele>578.0</ele><time>2026-04-12T15:49:49.778Z</time></trkpt><trkpt lat="42.82303480488498" lon="11.873249736039412"><ele>579.5</ele><time>2026-04-12T15:49:50.778Z</time></trkpt><trkpt lat="42.82306916541949" lon="11.873089139095558"><ele>581.0</ele><time>2026-04-12T15:49:51.777Z</time></trkpt><trkpt lat="42.82312185446548" lon="11.872947939937744"><ele>581.0</ele><time>2026-04-12T15:49:52.777Z</time></trkpt><trkpt lat="42.823190054233045" lon="11.872806114978378"><ele>581.0</ele><time>2026-04-12T15:49:53.777Z</time></trkpt><trkpt lat="42.823262347542304" lon="11.872685679361386"><ele>581.0</ele><time>2026-04-12T15:49:54.777Z</time></trkpt><trkpt lat="42.82332351458407" lon="11.872559616435714"><ele>581.0</ele><time>2026-04-12T15:49:55.777Z</time></trkpt><trkpt lat="42.82336101793347" lon="11.872425105956912"><ele>583.0</ele><time>2026-04-12T15:49:56.777Z</time></trkpt><trkpt lat="42.823360617123164" lon="11.872291083463569"><ele>585.0</ele><time>2026-04-12T15:49:57.777Z</time></trkpt><trkpt lat="42.82333136309757" lon="11.872171476747928"><ele>587.0</ele><time>2026-04-12T15:49:58.777Z</time></trkpt><trkpt lat="42.82327883230149" lon="11.872062228494226"><ele>589.0</ele><time>2026-04-12T15:49:59.777Z</time></trkpt><trkpt lat="42.82321945989881" lon="11.87195091612465"><ele>591.0</ele><time>2026-04-12T15:50:00.777Z</time></trkpt><trkpt lat="42.82316643264885" lon="11.87184236908743"><ele>590.8</ele><time>2026-04-12T15:50:01.777Z</time></trkpt><trkpt lat="42.82313307977443" lon="11.871718345335657"><ele>590.6</ele><time>2026-04-12T15:50:02.777Z</time></trkpt><trkpt lat="42.82309503671376" lon="11.871601695802568"><ele>590.4</ele><time>2026-04-12T15:50:03.777Z</time></trkpt><trkpt lat="42.823047560985636" lon="11.871499680138777"><ele>590.2</ele><time>2026-04-12T15:50:04.777Z</time></trkpt><trkpt lat="42.82301321347299" lon="11.871381719855458"><ele>590.0</ele><time>2026-04-12T15:50:05.777Z</time></trkpt><trkpt lat="42.82297897506932" lon="11.871262221752625"><ele>590.0</ele><time>2026-04-12T15:50:06.777Z</time></trkpt><trkpt lat="42.822943643307596" lon="11.871141308070047"><ele>590.0</ele><time>2026-04-12T15:50:07.777Z</time></trkpt><trkpt lat="42.82292198081904" lon="11.871014246060474"><ele>590.0</ele><time>2026-04-12T15:50:08.777Z</time></trkpt><trkpt lat="42.822880707857884" lon="11.870899253814496"><ele>590.0</ele><time>2026-04-12T15:50:09.777Z</time></trkpt><trkpt lat="42.82283089761587" lon="11.870787269065367"><ele>590.0</ele><time>2026-04-12T15:50:10.777Z</time></trkpt><trkpt lat="42.82276964738822" lon="11.870684142241434"><ele>587.6</ele><time>2026-04-12T15:50:11.777Z</time></trkpt><trkpt lat="42.822701996746346" lon="11.870589889974108"><ele>585.2</ele><time>2026-04-12T15:50:12.779Z</time></trkpt><trkpt lat="42.822641231006905" lon="11.870497657125828"><ele>582.8</ele><time>2026-04-12T15:50:13.779Z</time></trkpt><trkpt lat="42.82258799674744" lon="11.870401306082845"><ele>580.4</ele><time>2026-04-12T15:50:14.779Z</time></trkpt><trkpt lat="42.8225244970043" lon="11.870308257786053"><ele>578.0</ele><time>2026-04-12T15:50:15.778Z</time></trkpt><trkpt lat="42.82247340027499" lon="11.870195315583187"><ele>581.75</ele><time>2026-04-12T15:50:16.779Z</time></trkpt><trkpt lat="42.82240350314312" lon="11.870072914462531"><ele>585.5</ele><time>2026-04-12T15:50:17.778Z</time></trkpt><trkpt lat="42.82232471992984" lon="11.869952415838814"><ele>589.25</ele><time>2026-04-12T15:50:18.778Z</time></trkpt><trkpt lat="42.822243832159224" lon="11.869842154044235"><ele>593.0</ele><time>2026-04-12T15:50:19.779Z</time></trkpt><trkpt lat="42.822163751950654" lon="11.86973388261116"><ele>593.0</ele><time>2026-04-12T15:50:20.779Z</time></trkpt><trkpt lat="42.82208853301393" lon="11.869621626143202"><ele>593.0</ele><time>2026-04-12T15:50:21.778Z</time></trkpt><trkpt lat="42.822014687888" lon="11.869496843807331"><ele>593.0</ele><time>2026-04-12T15:50:22.779Z</time></trkpt><trkpt lat="42.82194753813977" lon="11.869365338474498"><ele>593.0</ele><time>2026-04-12T15:50:23.779Z</time></trkpt><trkpt lat="42.821882328322914" lon="11.869233059676688"><ele>591.0</ele><time>2026-04-12T15:50:24.778Z</time></trkpt><trkpt lat="42.82182793862215" lon="11.869085188534887"><ele>589.0</ele><time>2026-04-12T15:50:25.779Z</time></trkpt><trkpt lat="42.82176243719093" lon="11.86896134038931"><ele>587.0</ele><time>2026-04-12T15:50:26.779Z</time></trkpt><trkpt lat="42.821683434744195" lon="11.868853475326487"><ele>585.0</ele><time>2026-04-12T15:50:27.779Z</time></trkpt><trkpt lat="42.821579568705644" lon="11.86879602862715"><ele>585.0</ele><time>2026-04-12T15:50:28.779Z</time></trkpt><trkpt lat="42.82146728595346" lon="11.868757553006596"><ele>585.0</ele><time>2026-04-12T15:50:29.779Z</time></trkpt><trkpt lat="42.82134091028013" lon="11.868763801735387"><ele>585.0</ele><time>2026-04-12T15:50:30.779Z</time></trkpt><trkpt lat="42.821204897560214" lon="11.868785276725845"><ele>585.0</ele><time>2026-04-12T15:50:31.779Z</time></trkpt><trkpt lat="42.821063454833435" lon="11.868775223036954"><ele>584.25</ele><time>2026-04-12T15:50:32.779Z</time></trkpt><trkpt lat="42.82092963448855" lon="11.868805928914657"><ele>583.5</ele><time>2026-04-12T15:50:33.779Z</time></trkpt><trkpt lat="42.82079685046618" lon="11.868791269821235"><ele>582.75</ele><time>2026-04-12T15:50:34.778Z</time></trkpt><trkpt lat="42.82067805699866" lon="11.868813702838413"><ele>582.0</ele><time>2026-04-12T15:50:35.778Z</time></trkpt><trkpt lat="42.820566405790046" lon="11.868810554806831"><ele>582.0</ele><time>2026-04-12T15:50:36.778Z</time></trkpt><trkpt lat="42.82046078820214" lon="11.86877464076265"><ele>582.0</ele><time>2026-04-12T15:50:37.778Z</time></trkpt><trkpt lat="42.82038896784671" lon="11.868684894690245"><ele>582.0</ele><time>2026-04-12T15:50:38.778Z</time></trkpt><trkpt lat="42.82034586826409" lon="11.868557659340313"><ele>582.0</ele><time>2026-04-12T15:50:39.778Z</time></trkpt><trkpt lat="42.8203411393433" lon="11.86842108862881"><ele>582.0</ele><time>2026-04-12T15:50:40.778Z</time></trkpt><trkpt lat="42.82034631086898" lon="11.868285930210526"><ele>579.25</ele><time>2026-04-12T15:50:41.778Z</time></trkpt><trkpt lat="42.8203769401139" lon="11.868142429668394"><ele>576.5</ele><time>2026-04-12T15:50:42.778Z</time></trkpt><trkpt lat="42.82041216978121" lon="11.8679976081526"><ele>573.75</ele><time>2026-04-12T15:50:43.778Z</time></trkpt><trkpt lat="42.82043171959274" lon="11.867840044721344"><ele>571.0</ele><time>2026-04-12T15:50:44.778Z</time></trkpt><trkpt lat="42.82043340486153" lon="11.867673330503756"><ele>569.0</ele><time>2026-04-12T15:50:45.778Z</time></trkpt><trkpt lat="42.8204079684029" lon="11.867511545420358"><ele>567.0</ele><time>2026-04-12T15:50:46.778Z</time></trkpt><trkpt lat="42.82036229655131" lon="11.867348520413838"><ele>565.0</ele><time>2026-04-12T15:50:47.778Z</time></trkpt><trkpt lat="42.82029648814625" lon="11.867193891733882"><ele>563.0</ele><time>2026-04-12T15:50:48.778Z</time></trkpt><trkpt lat="42.82020902500295" lon="11.867051932055322"><ele>565.0</ele><time>2026-04-12T15:50:49.778Z</time></trkpt><trkpt lat="42.820107808715896" lon="11.866912918691401"><ele>567.0</ele><time>2026-04-12T15:50:50.778Z</time></trkpt><trkpt lat="42.819993504003264" lon="11.866780095047776"><ele>569.0</ele><time>2026-04-12T15:50:51.778Z</time></trkpt><trkpt lat="42.81985454075132" lon="11.866664098601444"><ele>569.0</ele><time>2026-04-12T15:50:52.778Z</time></trkpt><trkpt lat="42.81970255581612" lon="11.866567633145245"><ele>569.0</ele><time>2026-04-12T15:50:53.778Z</time></trkpt><trkpt lat="42.81954951667688" lon="11.86646040951955"><ele>569.0</ele><time>2026-04-12T15:50:54.778Z</time></trkpt><trkpt lat="42.81938510402529" lon="11.866363038206122"><ele>572.0</ele><time>2026-04-12T15:50:55.778Z</time></trkpt><trkpt lat="42.81921440518104" lon="11.866256276850875"><ele>575.0</ele><time>2026-04-12T15:50:56.778Z</time></trkpt><trkpt lat="42.8190563845835" lon="11.866157355805688"><ele>578.0</ele><time>2026-04-12T15:50:57.778Z</time></trkpt><trkpt lat="42.81890760034227" lon="11.866073859635174"><ele>578.0</ele><time>2026-04-12T15:50:58.778Z</time></trkpt><trkpt lat="42.81876845078777" lon="11.865950797310395"><ele>578.0</ele><time>2026-04-12T15:50:59.778Z</time></trkpt><trkpt lat="42.81866796724919" lon="11.865792421951898"><ele>578.0</ele><time>2026-04-12T15:51:00.778Z</time></trkpt><trkpt lat="42.81856432413641" lon="11.865653439643921"><ele>577.75</ele><time>2026-04-12T15:51:01.777Z</time></trkpt><trkpt lat="42.818461835057825" lon="11.8655207672394"><ele>577.5</ele><time>2026-04-12T15:51:02.777Z</time></trkpt><trkpt lat="42.81833939356876" lon="11.865395540399865"><ele>577.25</ele><time>2026-04-12T15:51:03.777Z</time></trkpt><trkpt lat="42.81820023652645" lon="11.865302576701508"><ele>577.0</ele><time>2026-04-12T15:51:04.777Z</time></trkpt><trkpt lat="42.81806398883989" lon="11.8652153726358"><ele>577.0</ele><time>2026-04-12T15:51:05.777Z</time></trkpt><trkpt lat="42.817936272362516" lon="11.865116769211719"><ele>577.0</ele><time>2026-04-12T15:51:06.777Z</time></trkpt><trkpt lat="42.81783387425177" lon="11.864990199856393"><ele>577.0</ele><time>2026-04-12T15:51:07.777Z</time></trkpt><trkpt lat="42.81772189635912" lon="11.864848204978976"><ele>577.0</ele><time>2026-04-12T15:51:08.777Z</time></trkpt><trkpt lat="42.81760069048003" lon="11.864694062126798"><ele>576.6666666666667</ele><time>2026-04-12T15:51:09.777Z</time></trkpt><trkpt lat="42.81747408305027" lon="11.86453305002473"><ele>576.3333333333334</ele><time>2026-04-12T15:51:10.777Z</time></trkpt><trkpt lat="42.81733150291401" lon="11.864378029208602"><ele>576.0</ele><time>2026-04-12T15:51:11.777Z</time></trkpt><trkpt lat="42.81719657605667" lon="11.8642049416563"><ele>573.3333333333334</ele><time>2026-04-12T15:51:12.777Z</time></trkpt><trkpt lat="42.81707536556478" lon="11.86402598329955"><ele>570.6666666666667</ele><time>2026-04-12T15:51:13.777Z</time></trkpt><trkpt lat="42.816952355872345" lon="11.863869546436069"><ele>568.0</ele><time>2026-04-12T15:51:14.777Z</time></trkpt><trkpt lat="42.81683534781976" lon="11.863720742278224"><ele>569.0</ele><time>2026-04-12T15:51:15.777Z</time></trkpt><trkpt lat="42.816706512269704" lon="11.863586933998802"><ele>570.0</ele><time>2026-04-12T15:51:16.777Z</time></trkpt><trkpt lat="42.816590868444806" lon="11.863434434074009"><ele>571.0</ele><time>2026-04-12T15:51:17.777Z</time></trkpt><trkpt lat="42.81647989324666" lon="11.86329108104822"><ele>571.0</ele><time>2026-04-12T15:51:18.777Z</time></trkpt><trkpt lat="42.8163655148222" lon="11.863149946433495"><ele>571.0</ele><time>2026-04-12T15:51:19.777Z</time></trkpt><trkpt lat="42.81625240095558" lon="11.863004215408738"><ele>571.0</ele><time>2026-04-12T15:51:20.777Z</time></trkpt><trkpt lat="42.81614202300323" lon="11.862862563853845"><ele>571.0</ele><time>2026-04-12T15:51:21.777Z</time></trkpt><trkpt lat="42.81603158110076" lon="11.862720362168234"><ele>571.0</ele><time>2026-04-12T15:51:22.777Z</time></trkpt><trkpt lat="42.815924002943554" lon="11.862574804555583"><ele>571.0</ele><time>2026-04-12T15:51:23.777Z</time></trkpt><trkpt lat="42.81582037339495" lon="11.862433407952453"><ele>570.25</ele><time>2026-04-12T15:51:24.777Z</time></trkpt><trkpt lat="42.81571670743902" lon="11.862290473418145"><ele>569.5</ele><time>2026-04-12T15:51:25.777Z</time></trkpt><trkpt lat="42.81561048292699" lon="11.862150993587626"><ele>568.75</ele><time>2026-04-12T15:51:26.777Z</time></trkpt><trkpt lat="42.8154958809052" lon="11.862020568100487"><ele>568.0</ele><time>2026-04-12T15:51:27.776Z</time></trkpt><trkpt lat="42.8153713647672" lon="11.861910902145892"><ele>568.0</ele><time>2026-04-12T15:51:28.776Z</time></trkpt><trkpt lat="42.815238154700594" lon="11.861820558683595"><ele>568.0</ele><time>2026-04-12T15:51:29.776Z</time></trkpt><trkpt lat="42.815102872944045" lon="11.861737179444145"><ele>568.0</ele><time>2026-04-12T15:51:30.776Z</time></trkpt><trkpt lat="42.81496950586984" lon="11.861656742257514"><ele>568.0</ele><time>2026-04-12T15:51:31.776Z</time></trkpt><trkpt lat="42.81484093118717" lon="11.861572052864117"><ele>566.0</ele><time>2026-04-12T15:51:32.776Z</time></trkpt><trkpt lat="42.81471887116495" lon="11.861483960880955"><ele>564.0</ele><time>2026-04-12T15:51:33.776Z</time></trkpt><trkpt lat="42.81459740664621" lon="11.861392281076558"><ele>562.0</ele><time>2026-04-12T15:51:34.776Z</time></trkpt><trkpt lat="42.814482262742104" lon="11.861299305657608"><ele>560.0</ele><time>2026-04-12T15:51:35.776Z</time></trkpt><trkpt lat="42.81438109532426" lon="11.861192547557806"><ele>558.0</ele><time>2026-04-12T15:51:36.776Z</time></trkpt><trkpt lat="42.81428657897812" lon="11.861062730527035"><ele>556.0</ele><time>2026-04-12T15:51:37.776Z</time></trkpt><trkpt lat="42.814197475338155" lon="11.860906235333113"><ele>554.0</ele><time>2026-04-12T15:51:38.776Z</time></trkpt><trkpt lat="42.81411483626518" lon="11.860729468646735"><ele>552.0</ele><time>2026-04-12T15:51:39.776Z</time></trkpt><trkpt lat="42.81402619781092" lon="11.860547480958676"><ele>552.0</ele><time>2026-04-12T15:51:40.776Z</time></trkpt><trkpt lat="42.81394076542723" lon="11.860358140115377"><ele>552.0</ele><time>2026-04-12T15:51:41.776Z</time></trkpt><trkpt lat="42.813854607894875" lon="11.860171001085163"><ele>552.0</ele><time>2026-04-12T15:51:42.776Z</time></trkpt><trkpt lat="42.81376939293218" lon="11.859985077641252"><ele>553.3333333333334</ele><time>2026-04-12T15:51:43.776Z</time></trkpt><trkpt lat="42.81367750084953" lon="11.85979418664645"><ele>554.6666666666667</ele><time>2026-04-12T15:51:44.776Z</time></trkpt><trkpt lat="42.81358931756962" lon="11.859601602900957"><ele>556.0</ele><time>2026-04-12T15:51:45.776Z</time></trkpt><trkpt lat="42.81349513233089" lon="11.859406455302183"><ele>554.6666666666667</ele><time>2026-04-12T15:51:46.776Z</time></trkpt><trkpt lat="42.81340325102442" lon="11.859213461748658"><ele>553.3333333333334</ele><time>2026-04-12T15:51:47.776Z</time></trkpt><trkpt lat="42.81331035657161" lon="11.859016165122984"><ele>552.0</ele><time>2026-04-12T15:51:48.776Z</time></trkpt><trkpt lat="42.81321882444068" lon="11.858823314386939"><ele>552.0</ele><time>2026-04-12T15:51:49.776Z</time></trkpt><trkpt lat="42.813126780349634" lon="11.858626330039842"><ele>552.0</ele><time>2026-04-12T15:51:50.776Z</time></trkpt><trkpt lat="42.81303333236036" lon="11.858432812562782"><ele>552.0</ele><time>2026-04-12T15:51:51.776Z</time></trkpt><trkpt lat="42.81294290443966" lon="11.858242020142242"><ele>552.0</ele><time>2026-04-12T15:51:52.776Z</time></trkpt><trkpt lat="42.812851475979194" lon="11.858051643236296"><ele>552.0</ele><time>2026-04-12T15:51:53.776Z</time></trkpt><trkpt lat="42.812768557098074" lon="11.85787002046679"><ele>552.0</ele><time>2026-04-12T15:51:54.775Z</time></trkpt><trkpt lat="42.81268719016953" lon="11.857702984637818"><ele>553.75</ele><time>2026-04-12T15:51:55.775Z</time></trkpt><trkpt lat="42.81259968000279" lon="11.857553926871113"><ele>555.5</ele><time>2026-04-12T15:51:56.775Z</time></trkpt><trkpt lat="42.812497928445936" lon="11.857427404942927"><ele>557.25</ele><time>2026-04-12T15:51:57.775Z</time></trkpt><trkpt lat="42.81238194887914" lon="11.857330700983095"><ele>559.0</ele><time>2026-04-12T15:51:58.775Z</time></trkpt><trkpt lat="42.81225039704644" lon="11.857250207137618"><ele>559.0</ele><time>2026-04-12T15:51:59.775Z</time></trkpt><trkpt lat="42.81211165570684" lon="11.857183612866633"><ele>559.0</ele><time>2026-04-12T15:52:00.775Z</time></trkpt><trkpt lat="42.81197408047708" lon="11.857120408746558"><ele>559.0</ele><time>2026-04-12T15:52:01.775Z</time></trkpt><trkpt lat="42.81184579508966" lon="11.857020446204883"><ele>559.0</ele><time>2026-04-12T15:52:02.775Z</time></trkpt><trkpt lat="42.81172419040463" lon="11.856909561118925"><ele>559.3333333333334</ele><time>2026-04-12T15:52:03.775Z</time></trkpt><trkpt lat="42.811604845567764" lon="11.856776867221496"><ele>559.6666666666666</ele><time>2026-04-12T15:52:04.775Z</time></trkpt><trkpt lat="42.811491626685616" lon="11.856624137340575"><ele>560.0</ele><time>2026-04-12T15:52:05.775Z</time></trkpt><trkpt lat="42.81138585355038" lon="11.856479891048"><ele>560.0</ele><time>2026-04-12T15:52:06.775Z</time></trkpt><trkpt lat="42.811275563710005" lon="11.856335021988505"><ele>560.0</ele><time>2026-04-12T15:52:07.775Z</time></trkpt><trkpt lat="42.811150652607466" lon="11.856215135539102"><ele>560.0</ele><time>2026-04-12T15:52:08.775Z</time></trkpt><trkpt lat="42.81102957554077" lon="11.856091742657952"><ele>561.3333333333333</ele><time>2026-04-12T15:52:09.775Z</time></trkpt><trkpt lat="42.810897336973646" lon="11.855976834015625"><ele>562.6666666666666</ele><time>2026-04-12T15:52:10.775Z</time></trkpt><trkpt lat="42.810762262989776" lon="11.855860689460759"><ele>564.0</ele><time>2026-04-12T15:52:11.775Z</time></trkpt><trkpt lat="42.81062260019438" lon="11.855742077777244"><ele>565.6666666666666</ele><time>2026-04-12T15:52:12.775Z</time></trkpt><trkpt lat="42.81048039945703" lon="11.855623210257662"><ele>567.3333333333333</ele><time>2026-04-12T15:52:13.775Z</time></trkpt><trkpt lat="42.810333090387516" lon="11.855499797200434"><ele>569.0</ele><time>2026-04-12T15:52:14.775Z</time></trkpt><trkpt lat="42.810192830178636" lon="11.855387518545639"><ele>569.3333333333333</ele><time>2026-04-12T15:52:15.775Z</time></trkpt><trkpt lat="42.810041157232625" lon="11.855257764251236"><ele>569.6666666666666</ele><time>2026-04-12T15:52:16.775Z</time></trkpt><trkpt lat="42.809892564111216" lon="11.855129456021137"><ele>570.0</ele><time>2026-04-12T15:52:17.775Z</time></trkpt><trkpt lat="42.809745966150565" lon="11.855008310030499"><ele>570.3333333333334</ele><time>2026-04-12T15:52:18.776Z</time></trkpt><trkpt lat="42.80959653030539" lon="11.854883748181885"><ele>570.6666666666667</ele><time>2026-04-12T15:52:19.777Z</time></trkpt><trkpt lat="42.809446163668305" lon="11.854762395521599"><ele>571.0</ele><time>2026-04-12T15:52:20.777Z</time></trkpt><trkpt lat="42.809297318207356" lon="11.854637592712459"><ele>571.0</ele><time>2026-04-12T15:52:21.776Z</time></trkpt><trkpt lat="42.80915662441603" lon="11.854490257584104"><ele>571.0</ele><time>2026-04-12T15:52:22.776Z</time></trkpt><trkpt lat="42.809001859786584" lon="11.854382850117002"><ele>571.0</ele><time>2026-04-12T15:52:23.776Z</time></trkpt><trkpt lat="42.80886017750054" lon="11.854234811502451"><ele>569.3333333333334</ele><time>2026-04-12T15:52:24.777Z</time></trkpt><trkpt lat="42.80868940365319" lon="11.854115213827797"><ele>567.6666666666666</ele><time>2026-04-12T15:52:25.776Z</time></trkpt><trkpt lat="42.80853370971915" lon="11.853980396488225"><ele>566.0</ele><time>2026-04-12T15:52:26.776Z</time></trkpt><trkpt lat="42.8083929071314" lon="11.853841881529826"><ele>565.6666666666666</ele><time>2026-04-12T15:52:27.776Z</time></trkpt><trkpt lat="42.80824893868325" lon="11.853719519882208"><ele>565.3333333333334</ele><time>2026-04-12T15:52:28.776Z</time></trkpt><trkpt lat="42.808099711531575" lon="11.853592688794636"><ele>565.0</ele><time>2026-04-12T15:52:29.776Z</time></trkpt><trkpt lat="42.80795627759761" lon="11.853470783116467"><ele>564.0</ele><time>2026-04-12T15:52:30.776Z</time></trkpt><trkpt lat="42.80781459027026" lon="11.85337520628904"><ele>563.0</ele><time>2026-04-12T15:52:31.777Z</time></trkpt><trkpt lat="42.80767187031646" lon="11.853254500156696"><ele>562.0</ele><time>2026-04-12T15:52:32.777Z</time></trkpt><trkpt lat="42.807526930416" lon="11.853121660774834"><ele>561.3333333333334</ele><time>2026-04-12T15:52:33.777Z</time></trkpt><trkpt lat="42.80741047144932" lon="11.852974988040074"><ele>560.6666666666666</ele><time>2026-04-12T15:52:34.777Z</time></trkpt><trkpt lat="42.80731360381755" lon="11.85281774275517"><ele>560.0</ele><time>2026-04-12T15:52:35.777Z</time></trkpt><trkpt lat="42.80721897490535" lon="11.852647023068696"><ele>563.0</ele><time>2026-04-12T15:52:36.777Z</time></trkpt><trkpt lat="42.80711218719391" lon="11.852454039542373"><ele>566.0</ele><time>2026-04-12T15:52:37.776Z</time></trkpt><trkpt lat="42.80701307873979" lon="11.85227840494883"><ele>569.0</ele><time>2026-04-12T15:52:38.776Z</time></trkpt><trkpt lat="42.80689766349677" lon="11.852124459675021"><ele>572.6666666666666</ele><time>2026-04-12T15:52:39.776Z</time></trkpt><trkpt lat="42.806764013905926" lon="11.852019068925026"><ele>576.3333333333334</ele><time>2026-04-12T15:52:40.776Z</time></trkpt><trkpt lat="42.80662268353954" lon="11.851891201018047"><ele>580.0</ele><time>2026-04-12T15:52:41.776Z</time></trkpt><trkpt lat="42.80647089167677" lon="11.851764209273352"><ele>580.0</ele><time>2026-04-12T15:52:42.776Z</time></trkpt><trkpt lat="42.806327161392915" lon="11.851628352138865"><ele>580.0</ele><time>2026-04-12T15:52:43.776Z</time></trkpt><trkpt lat="42.80619230199037" lon="11.851497885703484"><ele>580.0</ele><time>2026-04-12T15:52:44.776Z</time></trkpt><trkpt lat="42.80606337408054" lon="11.851372294050384"><ele>574.6666666666667</ele><time>2026-04-12T15:52:45.776Z</time></trkpt><trkpt lat="42.805910444041835" lon="11.851285842488865"><ele>569.3333333333334</ele><time>2026-04-12T15:52:46.776Z</time></trkpt><trkpt lat="42.805754206959726" lon="11.851206423008545"><ele>564.0</ele><time>2026-04-12T15:52:47.776Z</time></trkpt><trkpt lat="42.805584728653706" lon="11.851134938107451"><ele>564.0</ele><time>2026-04-12T15:52:48.776Z</time></trkpt><trkpt lat="42.805419506379565" lon="11.851043914405572"><ele>564.0</ele><time>2026-04-12T15:52:49.776Z</time></trkpt><trkpt lat="42.80524427524992" lon="11.850966660495045"><ele>564.0</ele><time>2026-04-12T15:52:50.776Z</time></trkpt><trkpt lat="42.80506344096591" lon="11.850887245725833"><ele>567.3333333333334</ele><time>2026-04-12T15:52:51.776Z</time></trkpt><trkpt lat="42.80488731185908" lon="11.850810245741508"><ele>570.6666666666667</ele><time>2026-04-12T15:52:52.776Z</time></trkpt><trkpt lat="42.804716541401234" lon="11.850737371381106"><ele>574.0</ele><time>2026-04-12T15:52:53.776Z</time></trkpt><trkpt lat="42.80455280940214" lon="11.850667500634257"><ele>574.0</ele><time>2026-04-12T15:52:54.776Z</time></trkpt><trkpt lat="42.80439475725023" lon="11.850599481290635"><ele>574.0</ele><time>2026-04-12T15:52:55.776Z</time></trkpt><trkpt lat="42.804245328620645" lon="11.850529951965683"><ele>574.0</ele><time>2026-04-12T15:52:56.776Z</time></trkpt><trkpt lat="42.80408972396125" lon="11.850461836404909"><ele>571.0</ele><time>2026-04-12T15:52:57.776Z</time></trkpt><trkpt lat="42.803914252101684" lon="11.850430019251112"><ele>568.0</ele><time>2026-04-12T15:52:58.776Z</time></trkpt><trkpt lat="42.8037593800301" lon="11.850455408509577"><ele>565.0</ele><time>2026-04-12T15:52:59.776Z</time></trkpt><trkpt lat="42.803607834733185" lon="11.850501674704553"><ele>564.5</ele><time>2026-04-12T15:53:00.776Z</time></trkpt><trkpt lat="42.80346808411092" lon="11.850552562178672"><ele>564.0</ele><time>2026-04-12T15:53:01.776Z</time></trkpt><trkpt lat="42.80333609805911" lon="11.850599315075993"><ele>563.5</ele><time>2026-04-12T15:53:02.776Z</time></trkpt><trkpt lat="42.80322671274137" lon="11.850614704805347"><ele>563.0</ele><time>2026-04-12T15:53:03.776Z</time></trkpt><trkpt lat="42.80313963939391" lon="11.850596563182737"><ele>563.0</ele><time>2026-04-12T15:53:04.775Z</time></trkpt><trkpt lat="42.803067066849714" lon="11.850530567337097"><ele>563.0</ele><time>2026-04-12T15:53:05.775Z</time></trkpt><trkpt lat="42.80301106015187" lon="11.850445558749925"><ele>563.0</ele><time>2026-04-12T15:53:06.775Z</time></trkpt><trkpt lat="42.802918304586925" lon="11.850345180077591"><ele>563.0</ele><time>2026-04-12T15:53:07.775Z</time></trkpt><trkpt lat="42.80284160358349" lon="11.850188043358425"><ele>563.0</ele><time>2026-04-12T15:53:08.775Z</time></trkpt><trkpt lat="42.802747865796455" lon="11.850015730097148"><ele>562.75</ele><time>2026-04-12T15:53:09.775Z</time></trkpt><trkpt lat="42.80265433112528" lon="11.849856878044276"><ele>562.5</ele><time>2026-04-12T15:53:10.775Z</time></trkpt><trkpt lat="42.8025803418401" lon="11.849681909934809"><ele>562.25</ele><time>2026-04-12T15:53:11.775Z</time></trkpt><trkpt lat="42.80248493705351" lon="11.849537796162362"><ele>562.0</ele><time>2026-04-12T15:53:12.775Z</time></trkpt><trkpt lat="42.80237135273909" lon="11.849418422759921"><ele>562.0</ele><time>2026-04-12T15:53:13.775Z</time></trkpt><trkpt lat="42.80225842921199" lon="11.84929941663107"><ele>562.0</ele><time>2026-04-12T15:53:14.775Z</time></trkpt><trkpt lat="42.80213415994457" lon="11.849209477651897"><ele>562.0</ele><time>2026-04-12T15:53:15.775Z</time></trkpt><trkpt lat="42.80199987985269" lon="11.849121557510129"><ele>562.0</ele><time>2026-04-12T15:53:16.775Z</time></trkpt><trkpt lat="42.801847476694185" lon="11.84906720566171"><ele>562.5</ele><time>2026-04-12T15:53:17.775Z</time></trkpt><trkpt lat="42.80169102109216" lon="11.849032515363648"><ele>563.0</ele><time>2026-04-12T15:53:18.775Z</time></trkpt><trkpt lat="42.80154439807731" lon="11.849021946661829"><ele>563.5</ele><time>2026-04-12T15:53:19.775Z</time></trkpt><trkpt lat="42.801423320290766" lon="11.849026583264346"><ele>564.0</ele><time>2026-04-12T15:53:20.775Z</time></trkpt><trkpt lat="42.80131112916211" lon="11.849059666937913"><ele>564.0</ele><time>2026-04-12T15:53:21.775Z</time></trkpt><trkpt lat="42.801208677369324" lon="11.849116656143185"><ele>564.0</ele><time>2026-04-12T15:53:22.775Z</time></trkpt><trkpt lat="42.80110878207536" lon="11.849209337703051"><ele>564.0</ele><time>2026-04-12T15:53:23.775Z</time></trkpt><trkpt lat="42.800995442227354" lon="11.849295962523726"><ele>564.0</ele><time>2026-04-12T15:53:24.775Z</time></trkpt><trkpt lat="42.80088144494772" lon="11.84941709266848"><ele>559.75</ele><time>2026-04-12T15:53:25.775Z</time></trkpt><trkpt lat="42.80078368249073" lon="11.849516064937776"><ele>555.5</ele><time>2026-04-12T15:53:26.775Z</time></trkpt><trkpt lat="42.80068064648013" lon="11.84961263009717"><ele>551.25</ele><time>2026-04-12T15:53:27.775Z</time></trkpt><trkpt lat="42.800577310566524" lon="11.849707404114948"><ele>547.0</ele><time>2026-04-12T15:53:28.775Z</time></trkpt><trkpt lat="42.800453361827834" lon="11.84971235426569"><ele>547.0</ele><time>2026-04-12T15:53:29.775Z</time></trkpt><trkpt lat="42.80033000332205" lon="11.849718785503837"><ele>547.0</ele><time>2026-04-12T15:53:30.775Z</time></trkpt><trkpt lat="42.800198443717015" lon="11.849720603850203"><ele>547.0</ele><time>2026-04-12T15:53:31.774Z</time></trkpt><trkpt lat="42.80007515327571" lon="11.849728108758596"><ele>547.0</ele><time>2026-04-12T15:53:32.774Z</time></trkpt><trkpt lat="42.79996590924255" lon="11.849764788911498"><ele>547.25</ele><time>2026-04-12T15:53:33.774Z</time></trkpt><trkpt lat="42.79987236255695" lon="11.849850824592806"><ele>547.5</ele><time>2026-04-12T15:53:34.774Z</time></trkpt><trkpt lat="42.79980899901615" lon="11.849971032240491"><ele>547.75</ele><time>2026-04-12T15:53:35.774Z</time></trkpt><trkpt lat="42.799741303726236" lon="11.850105835999043"><ele>548.0</ele><time>2026-04-12T15:53:36.774Z</time></trkpt><trkpt lat="42.79967040154311" lon="11.850256206326168"><ele>544.5</ele><time>2026-04-12T15:53:37.774Z</time></trkpt><trkpt lat="42.799607288960374" lon="11.850405930082104"><ele>541.0</ele><time>2026-04-12T15:53:38.774Z</time></trkpt><trkpt lat="42.7995297344429" lon="11.850533448628656"><ele>537.5</ele><time>2026-04-12T15:53:39.774Z</time></trkpt><trkpt lat="42.79946143711119" lon="11.850687215497171"><ele>534.0</ele><time>2026-04-12T15:53:40.774Z</time></trkpt><trkpt lat="42.79937565603917" lon="11.850810692550422"><ele>535.0</ele><time>2026-04-12T15:53:41.774Z</time></trkpt><trkpt lat="42.79927005539947" lon="11.85093203929969"><ele>536.0</ele><time>2026-04-12T15:53:42.774Z</time></trkpt><trkpt lat="42.79915203690619" lon="11.851018658797527"><ele>537.0</ele><time>2026-04-12T15:53:43.774Z</time></trkpt><trkpt lat="42.79907628355625" lon="11.851151843631081"><ele>538.0</ele><time>2026-04-12T15:53:44.774Z</time></trkpt><trkpt lat="42.79901114503994" lon="11.851274538374149"><ele>536.0</ele><time>2026-04-12T15:53:45.774Z</time></trkpt><trkpt lat="42.79900755841659" lon="11.851436501161192"><ele>534.0</ele><time>2026-04-12T15:53:46.774Z</time></trkpt><trkpt lat="42.79900782468171" lon="11.851609553835582"><ele>532.0</ele><time>2026-04-12T15:53:47.774Z</time></trkpt><trkpt lat="42.799020000666005" lon="11.851798631063762"><ele>530.0</ele><time>2026-04-12T15:53:48.774Z</time></trkpt><trkpt lat="42.79901789400392" lon="11.852010688491468"><ele>527.6666666666666</ele><time>2026-04-12T15:53:49.774Z</time></trkpt><trkpt lat="42.79899929934641" lon="11.852238541553866"><ele>525.3333333333334</ele><time>2026-04-12T15:53:50.774Z</time></trkpt><trkpt lat="42.79896939237446" lon="11.852467290370946"><ele>523.0</ele><time>2026-04-12T15:53:51.774Z</time></trkpt><trkpt lat="42.79892825491693" lon="11.852689063082924"><ele>521.0</ele><time>2026-04-12T15:53:52.774Z</time></trkpt><trkpt lat="42.798887682046505" lon="11.85290983574132"><ele>519.0</ele><time>2026-04-12T15:53:53.774Z</time></trkpt><trkpt lat="42.79885151339908" lon="11.853133804261113"><ele>517.0</ele><time>2026-04-12T15:53:54.774Z</time></trkpt><trkpt lat="42.798822499493305" lon="11.853354148373283"><ele>516.5</ele><time>2026-04-12T15:53:55.774Z</time></trkpt><trkpt lat="42.7987908855041" lon="11.853552420870631"><ele>516.0</ele><time>2026-04-12T15:53:56.774Z</time></trkpt><trkpt lat="42.79875588072903" lon="11.853729170211068"><ele>515.5</ele><time>2026-04-12T15:53:57.773Z</time></trkpt><trkpt lat="42.79870074589723" lon="11.853887769904693"><ele>515.0</ele><time>2026-04-12T15:53:58.773Z</time></trkpt><trkpt lat="42.798628823815974" lon="11.854016711245649"><ele>515.0</ele><time>2026-04-12T15:53:59.773Z</time></trkpt><trkpt lat="42.79854150142082" lon="11.854115305546344"><ele>515.0</ele><time>2026-04-12T15:54:00.773Z</time></trkpt><trkpt lat="42.798435759694556" lon="11.854179332420633"><ele>515.0</ele><time>2026-04-12T15:54:01.773Z</time></trkpt><trkpt lat="42.79832547153772" lon="11.85419480527586"><ele>515.0</ele><time>2026-04-12T15:54:02.773Z</time></trkpt><trkpt lat="42.79821508521961" lon="11.854176486327283"><ele>517.0</ele><time>2026-04-12T15:54:03.773Z</time></trkpt><trkpt lat="42.79810847322792" lon="11.854120887445388"><ele>519.0</ele><time>2026-04-12T15:54:04.773Z</time></trkpt><trkpt lat="42.79799795219853" lon="11.854043818927096"><ele>521.0</ele><time>2026-04-12T15:54:05.773Z</time></trkpt><trkpt lat="42.79787137556016" lon="11.853969744094305"><ele>523.0</ele><time>2026-04-12T15:54:06.773Z</time></trkpt><trkpt lat="42.79773474251803" lon="11.853883737542585"><ele>523.3333333333334</ele><time>2026-04-12T15:54:07.773Z</time></trkpt><trkpt lat="42.79759371453491" lon="11.853796498163767"><ele>523.6666666666666</ele><time>2026-04-12T15:54:08.773Z</time></trkpt><trkpt lat="42.797445830347314" lon="11.853697329196747"><ele>524.0</ele><time>2026-04-12T15:54:09.773Z</time></trkpt><trkpt lat="42.79728525387723" lon="11.853599785301528"><ele>524.0</ele><time>2026-04-12T15:54:10.773Z</time></trkpt><trkpt lat="42.797119057719804" lon="11.853501545380874"><ele>524.0</ele><time>2026-04-12T15:54:11.773Z</time></trkpt><trkpt lat="42.796950399921165" lon="11.853407259396754"><ele>524.0</ele><time>2026-04-12T15:54:12.773Z</time></trkpt><trkpt lat="42.79677567922508" lon="11.853314986347335"><ele>521.0</ele><time>2026-04-12T15:54:13.773Z</time></trkpt><trkpt lat="42.79659527588485" lon="11.853217254601235"><ele>518.0</ele><time>2026-04-12T15:54:14.773Z</time></trkpt><trkpt lat="42.796413080716256" lon="11.853116030969288"><ele>515.0</ele><time>2026-04-12T15:54:15.773Z</time></trkpt><trkpt lat="42.796230043951766" lon="11.85301920164805"><ele>515.0</ele><time>2026-04-12T15:54:16.773Z</time></trkpt><trkpt lat="42.79604769032131" lon="11.852918863031034"><ele>515.0</ele><time>2026-04-12T15:54:17.773Z</time></trkpt><trkpt lat="42.79586701584539" lon="11.852819213098167"><ele>515.0</ele><time>2026-04-12T15:54:18.773Z</time></trkpt><trkpt lat="42.795685613044185" lon="11.852723518079955"><ele>513.0</ele><time>2026-04-12T15:54:19.773Z</time></trkpt><trkpt lat="42.795509919728715" lon="11.85263249878921"><ele>511.0</ele><time>2026-04-12T15:54:20.773Z</time></trkpt><trkpt lat="42.79533719927665" lon="11.852542129891637"><ele>509.0</ele><time>2026-04-12T15:54:21.773Z</time></trkpt><trkpt lat="42.79517206644277" lon="11.852457047398474"><ele>511.66666666666663</ele><time>2026-04-12T15:54:22.773Z</time></trkpt><trkpt lat="42.795009262581004" lon="11.852380138222816"><ele>514.3333333333334</ele><time>2026-04-12T15:54:23.773Z</time></trkpt><trkpt lat="42.79485066104139" lon="11.852307637410847"><ele>517.0</ele><time>2026-04-12T15:54:24.775Z</time></trkpt><trkpt lat="42.794697214417305" lon="11.85222741296658"><ele>517.0</ele><time>2026-04-12T15:54:25.775Z</time></trkpt><trkpt lat="42.79456469216037" lon="11.85214629293889"><ele>517.0</ele><time>2026-04-12T15:54:26.775Z</time></trkpt><trkpt lat="42.794450347167306" lon="11.852048629897073"><ele>517.0</ele><time>2026-04-12T15:54:27.774Z</time></trkpt><trkpt lat="42.79437827864095" lon="11.85191301852782"><ele>517.0</ele><time>2026-04-12T15:54:28.774Z</time></trkpt><trkpt lat="42.79430657897836" lon="11.851778713054692"><ele>514.4</ele><time>2026-04-12T15:54:29.774Z</time></trkpt><trkpt lat="42.7942302879686" lon="11.851661968312106"><ele>511.80000000000007</ele><time>2026-04-12T15:54:30.774Z</time></trkpt><trkpt lat="42.794168986687446" lon="11.851544413219472"><ele>509.2</ele><time>2026-04-12T15:54:31.774Z</time></trkpt><trkpt lat="42.79411640410997" lon="11.851436679300617"><ele>506.6</ele><time>2026-04-12T15:54:32.774Z</time></trkpt><trkpt lat="42.79403449242544" lon="11.85137666576378"><ele>504.0</ele><time>2026-04-12T15:54:33.774Z</time></trkpt><trkpt lat="42.79395141007442" lon="11.851352649537354"><ele>504.0</ele><time>2026-04-12T15:54:34.774Z</time></trkpt><trkpt lat="42.79386365822583" lon="11.851403469811705"><ele>504.0</ele><time>2026-04-12T15:54:35.774Z</time></trkpt><trkpt lat="42.79380029628703" lon="11.851483289997416"><ele>504.0</ele><time>2026-04-12T15:54:36.774Z</time></trkpt><trkpt lat="42.79375502646373" lon="11.851592213364695"><ele>504.0</ele><time>2026-04-12T15:54:37.774Z</time></trkpt><trkpt lat="42.7937168726893" lon="11.851719107188222"><ele>504.0</ele><time>2026-04-12T15:54:38.774Z</time></trkpt><trkpt lat="42.79367469320806" lon="11.851838909090635"><ele>503.2</ele><time>2026-04-12T15:54:39.774Z</time></trkpt><trkpt lat="42.79361523271876" lon="11.851936538462137"><ele>502.4</ele><time>2026-04-12T15:54:40.774Z</time></trkpt><trkpt lat="42.793537817974965" lon="11.852013934355764"><ele>501.6</ele><time>2026-04-12T15:54:41.774Z</time></trkpt><trkpt lat="42.793434880519115" lon="11.852075237628869"><ele>500.8</ele><time>2026-04-12T15:54:42.774Z</time></trkpt><trkpt lat="42.79332047068113" lon="11.8520961133954"><ele>500.0</ele><time>2026-04-12T15:54:43.774Z</time></trkpt><trkpt lat="42.79318145705663" lon="11.852077446742086"><ele>500.0</ele><time>2026-04-12T15:54:44.774Z</time></trkpt><trkpt lat="42.79304555107931" lon="11.852004392095553"><ele>500.0</ele><time>2026-04-12T15:54:45.774Z</time></trkpt><trkpt lat="42.79290029021458" lon="11.85194398562629"><ele>500.0</ele><time>2026-04-12T15:54:46.774Z</time></trkpt><trkpt lat="42.79275609831336" lon="11.851901838857456"><ele>500.0</ele><time>2026-04-12T15:54:47.774Z</time></trkpt><trkpt lat="42.79261902608504" lon="11.851840557174903"><ele>497.0</ele><time>2026-04-12T15:54:48.774Z</time></trkpt><trkpt lat="42.79248437092762" lon="11.851783423315528"><ele>494.0</ele><time>2026-04-12T15:54:49.774Z</time></trkpt><trkpt lat="42.79235081472556" lon="11.85174679946406"><ele>491.0</ele><time>2026-04-12T15:54:50.774Z</time></trkpt><trkpt lat="42.79221166729016" lon="11.851735867395526"><ele>488.0</ele><time>2026-04-12T15:54:51.774Z</time></trkpt><trkpt lat="42.792058060341034" lon="11.851740269665338"><ele>488.0</ele><time>2026-04-12T15:54:52.774Z</time></trkpt><trkpt lat="42.7918937260776" lon="11.851755825720035"><ele>488.0</ele><time>2026-04-12T15:54:53.774Z</time></trkpt><trkpt lat="42.79171826181633" lon="11.851788842149617"><ele>488.0</ele><time>2026-04-12T15:54:54.774Z</time></trkpt><trkpt lat="42.79154127376786" lon="11.85181796783397"><ele>482.3333333333333</ele><time>2026-04-12T15:54:55.774Z</time></trkpt><trkpt lat="42.79136929226878" lon="11.851848993089217"><ele>476.66666666666663</ele><time>2026-04-12T15:54:56.774Z</time></trkpt><trkpt lat="42.791199655328555" lon="11.851884203611489"><ele>471.0</ele><time>2026-04-12T15:54:57.773Z</time></trkpt><trkpt lat="42.7910312136161" lon="11.85192751919828"><ele>469.33333333333337</ele><time>2026-04-12T15:54:58.773Z</time></trkpt><trkpt lat="42.79086147845219" lon="11.85198004227807"><ele>467.6666666666667</ele><time>2026-04-12T15:54:59.773Z</time></trkpt><trkpt lat="42.79069493610966" lon="11.852049406247003"><ele>466.0</ele><time>2026-04-12T15:55:00.773Z</time></trkpt><trkpt lat="42.7905384917565" lon="11.852133553453267"><ele>466.0</ele><time>2026-04-12T15:55:01.773Z</time></trkpt><trkpt lat="42.79038977811501" lon="11.852211721042472"><ele>466.0</ele><time>2026-04-12T15:55:02.773Z</time></trkpt><trkpt lat="42.79023713124465" lon="11.852263680709559"><ele>466.0</ele><time>2026-04-12T15:55:03.773Z</time></trkpt><trkpt lat="42.790079508287114" lon="11.852280535472085"><ele>465.0</ele><time>2026-04-12T15:55:04.773Z</time></trkpt><trkpt lat="42.789920732330664" lon="11.852272612985423"><ele>464.0</ele><time>2026-04-12T15:55:05.773Z</time></trkpt><trkpt lat="42.78976721721735" lon="11.852240344801984"><ele>463.0</ele><time>2026-04-12T15:55:06.773Z</time></trkpt><trkpt lat="42.78961662988086" lon="11.852182661074123"><ele>463.0</ele><time>2026-04-12T15:55:07.773Z</time></trkpt><trkpt lat="42.7894746435019" lon="11.85209137123228"><ele>463.0</ele><time>2026-04-12T15:55:08.773Z</time></trkpt><trkpt lat="42.78933605240668" lon="11.851972828314159"><ele>463.0</ele><time>2026-04-12T15:55:09.773Z</time></trkpt><trkpt lat="42.78919407773453" lon="11.85184625519078"><ele>461.0</ele><time>2026-04-12T15:55:10.773Z</time></trkpt><trkpt lat="42.789041445669646" lon="11.851730486264069"><ele>459.0</ele><time>2026-04-12T15:55:11.773Z</time></trkpt><trkpt lat="42.78887676018118" lon="11.851636720023096"><ele>457.0</ele><time>2026-04-12T15:55:12.773Z</time></trkpt><trkpt lat="42.78870491392236" lon="11.851566584592524"><ele>457.0</ele><time>2026-04-12T15:55:13.773Z</time></trkpt><trkpt lat="42.78854113546749" lon="11.851502778546534"><ele>457.0</ele><time>2026-04-12T15:55:14.773Z</time></trkpt><trkpt lat="42.78839184708488" lon="11.851443467463406"><ele>457.0</ele><time>2026-04-12T15:55:15.773Z</time></trkpt><trkpt lat="42.78825353027536" lon="11.851390001032206"><ele>456.5</ele><time>2026-04-12T15:55:16.773Z</time></trkpt><trkpt lat="42.788120207811545" lon="11.851349893495685"><ele>456.0</ele><time>2026-04-12T15:55:17.773Z</time></trkpt><trkpt lat="42.78798779361657" lon="11.851341156146452"><ele>455.5</ele><time>2026-04-12T15:55:18.773Z</time></trkpt><trkpt lat="42.78787130077775" lon="11.851352541159935"><ele>455.0</ele><time>2026-04-12T15:55:19.773Z</time></trkpt><trkpt lat="42.787776970009226" lon="11.851382420295808"><ele>455.0</ele><time>2026-04-12T15:55:20.773Z</time></trkpt><trkpt lat="42.78770519035805" lon="11.851447910308776"><ele>455.0</ele><time>2026-04-12T15:55:21.773Z</time></trkpt><trkpt lat="42.78766560715203" lon="11.851550220725814"><ele>455.0</ele><time>2026-04-12T15:55:22.773Z</time></trkpt><trkpt lat="42.787644887290725" lon="11.851663242735716"><ele>455.0</ele><time>2026-04-12T15:55:23.773Z</time></trkpt><trkpt lat="42.78768410583545" lon="11.85179462495521"><ele>455.0</ele><time>2026-04-12T15:55:24.772Z</time></trkpt><trkpt lat="42.78776166373464" lon="11.851882265507342"><ele>451.6</ele><time>2026-04-12T15:55:25.772Z</time></trkpt><trkpt lat="42.78784569632685" lon="11.851941230037902"><ele>448.2</ele><time>2026-04-12T15:55:26.772Z</time></trkpt><trkpt lat="42.787939714164104" lon="11.851997859347925"><ele>444.79999999999995</ele><time>2026-04-12T15:55:27.772Z</time></trkpt><trkpt lat="42.78804721227993" lon="11.852029513162263"><ele>441.4</ele><time>2026-04-12T15:55:28.772Z</time></trkpt><trkpt lat="42.788161671589634" lon="11.852056383972961"><ele>438.0</ele><time>2026-04-12T15:55:29.772Z</time></trkpt><trkpt lat="42.78829282879479" lon="11.852069990360064"><ele>438.0</ele><time>2026-04-12T15:55:30.772Z</time></trkpt><trkpt lat="42.78842237189987" lon="11.852120761575735"><ele>438.0</ele><time>2026-04-12T15:55:31.772Z</time></trkpt><trkpt lat="42.78854553125056" lon="11.852178407191975"><ele>438.0</ele><time>2026-04-12T15:55:32.772Z</time></trkpt><trkpt lat="42.78867288737029" lon="11.85225033759998"><ele>438.0</ele><time>2026-04-12T15:55:33.772Z</time></trkpt><trkpt lat="42.78879000059942" lon="11.852340519657849"><ele>435.75</ele><time>2026-04-12T15:55:34.772Z</time></trkpt><trkpt lat="42.78890207388759" lon="11.85245364998428"><ele>433.5</ele><time>2026-04-12T15:55:35.772Z</time></trkpt><trkpt lat="42.78899955258044" lon="11.852590640441461"><ele>431.25</ele><time>2026-04-12T15:55:36.772Z</time></trkpt><trkpt lat="42.78908305457831" lon="11.852743608845715"><ele>429.0</ele><time>2026-04-12T15:55:37.772Z</time></trkpt><trkpt lat="42.78916006220769" lon="11.852910932078798"><ele>429.0</ele><time>2026-04-12T15:55:38.772Z</time></trkpt><trkpt lat="42.789240434741494" lon="11.853049140553223"><ele>429.0</ele><time>2026-04-12T15:55:39.772Z</time></trkpt><trkpt lat="42.7893151165735" lon="11.853188940313713"><ele>429.0</ele><time>2026-04-12T15:55:40.772Z</time></trkpt><trkpt lat="42.78943754471471" lon="11.85327988180001"><ele>429.0</ele><time>2026-04-12T15:55:41.772Z</time></trkpt><trkpt lat="42.789573146269476" lon="11.85334316369137"><ele>425.5</ele><time>2026-04-12T15:55:42.772Z</time></trkpt><trkpt lat="42.78971319192073" lon="11.853393463552216"><ele>422.0</ele><time>2026-04-12T15:55:43.772Z</time></trkpt><trkpt lat="42.789860764025356" lon="11.853441401003534"><ele>418.5</ele><time>2026-04-12T15:55:44.772Z</time></trkpt><trkpt lat="42.790005444214934" lon="11.853488248114788"><ele>415.0</ele><time>2026-04-12T15:55:45.772Z</time></trkpt><trkpt lat="42.79014841293317" lon="11.853534294363083"><ele>415.6666666666667</ele><time>2026-04-12T15:55:46.772Z</time></trkpt><trkpt lat="42.79029288384806" lon="11.853580824399781"><ele>416.33333333333337</ele><time>2026-04-12T15:55:47.772Z</time></trkpt><trkpt lat="42.79044035709542" lon="11.853629894254654"><ele>417.0</ele><time>2026-04-12T15:55:48.772Z</time></trkpt><trkpt lat="42.790591615495046" lon="11.853681256615706"><ele>417.0</ele><time>2026-04-12T15:55:49.772Z</time></trkpt><trkpt lat="42.79074529874698" lon="11.85372984489277"><ele>417.0</ele><time>2026-04-12T15:55:50.771Z</time></trkpt><trkpt lat="42.79089620192397" lon="11.853776639520122"><ele>417.0</ele><time>2026-04-12T15:55:51.771Z</time></trkpt><trkpt lat="42.791041015182685" lon="11.853823167029747"><ele>420.5</ele><time>2026-04-12T15:55:52.771Z</time></trkpt><trkpt lat="42.79115870666029" lon="11.85386624893459"><ele>424.0</ele><time>2026-04-12T15:55:53.771Z</time></trkpt><trkpt lat="42.79127034971259" lon="11.8539204640542"><ele>427.5</ele><time>2026-04-12T15:55:54.771Z</time></trkpt><trkpt lat="42.79137216183858" lon="11.853981278662964"><ele>431.0</ele><time>2026-04-12T15:55:55.771Z</time></trkpt><trkpt lat="42.7914541343478" lon="11.854101069714927"><ele>431.0</ele><time>2026-04-12T15:55:56.771Z</time></trkpt><trkpt lat="42.79153062648866" lon="11.85425797491689"><ele>431.0</ele><time>2026-04-12T15:55:57.771Z</time></trkpt><trkpt lat="42.7915877420585" lon="11.854441845024455"><ele>431.0</ele><time>2026-04-12T15:55:58.771Z</time></trkpt><trkpt lat="42.79165349293396" lon="11.854579802680878"><ele>431.0</ele><time>2026-04-12T15:55:59.771Z</time></trkpt><trkpt lat="42.79172635122815" lon="11.854702134102354"><ele>432.0</ele><time>2026-04-12T15:56:00.771Z</time></trkpt><trkpt lat="42.791833678986755" lon="11.854791132517962"><ele>433.0</ele><time>2026-04-12T15:56:01.771Z</time></trkpt><trkpt lat="42.791956098661835" lon="11.854836555772357"><ele>434.0</ele><time>2026-04-12T15:56:02.771Z</time></trkpt><trkpt lat="42.792065059972266" lon="11.85488005047131"><ele>435.0</ele><time>2026-04-12T15:56:03.771Z</time></trkpt><trkpt lat="42.792163747013475" lon="11.854941488979152"><ele>435.0</ele><time>2026-04-12T15:56:04.771Z</time></trkpt><trkpt lat="42.79224155241008" lon="11.855028961913762"><ele>435.0</ele><time>2026-04-12T15:56:05.771Z</time></trkpt><trkpt lat="42.7923198427283" lon="11.855149749230028"><ele>435.0</ele><time>2026-04-12T15:56:06.771Z</time></trkpt><trkpt lat="42.79238075387544" lon="11.855297222971178"><ele>435.0</ele><time>2026-04-12T15:56:07.771Z</time></trkpt><trkpt lat="42.79242612732239" lon="11.855477695823048"><ele>430.25</ele><time>2026-04-12T15:56:08.771Z</time></trkpt><trkpt lat="42.792460647106466" lon="11.85567722541214"><ele>425.5</ele><time>2026-04-12T15:56:09.771Z</time></trkpt><trkpt lat="42.792488677798346" lon="11.855851472424876"><ele>420.75</ele><time>2026-04-12T15:56:10.771Z</time></trkpt><trkpt lat="42.792513612667086" lon="11.855994570297623"><ele>416.0</ele><time>2026-04-12T15:56:11.771Z</time></trkpt><trkpt lat="42.79253967591545" lon="11.85610033983266"><ele>413.4</ele><time>2026-04-12T15:56:12.771Z</time></trkpt><trkpt lat="42.79247671467116" lon="11.856240375715405"><ele>410.8</ele><time>2026-04-12T15:56:14.771Z</time></trkpt><trkpt lat="42.792398288098255" lon="11.85629076590491"><ele>408.2</ele><time>2026-04-12T15:56:15.771Z</time></trkpt><trkpt lat="42.792319095564174" lon="11.856205587978575"><ele>405.59999999999997</ele><time>2026-04-12T15:56:16.771Z</time></trkpt><trkpt lat="42.79224724966761" lon="11.856128239419837"><ele>403.0</ele><time>2026-04-12T15:56:17.77Z</time></trkpt><trkpt lat="42.792195337128895" lon="11.856002799715778"><ele>406.25</ele><time>2026-04-12T15:56:18.77Z</time></trkpt><trkpt lat="42.79212776529439" lon="11.855864302419556"><ele>409.5</ele><time>2026-04-12T15:56:19.77Z</time></trkpt><trkpt lat="42.792058249453746" lon="11.855711630096543"><ele>412.75</ele><time>2026-04-12T15:56:20.77Z</time></trkpt><trkpt lat="42.79198621733857" lon="11.855555017892483"><ele>416.0</ele><time>2026-04-12T15:56:21.77Z</time></trkpt><trkpt lat="42.791910197806914" lon="11.855414012602688"><ele>413.5</ele><time>2026-04-12T15:56:22.77Z</time></trkpt><trkpt lat="42.79181400551494" lon="11.855289296238395"><ele>411.0</ele><time>2026-04-12T15:56:23.77Z</time></trkpt><trkpt lat="42.79171876748898" lon="11.855160161763663"><ele>408.5</ele><time>2026-04-12T15:56:24.77Z</time></trkpt><trkpt lat="42.79160120144369" lon="11.855088614142424"><ele>406.0</ele><time>2026-04-12T15:56:25.77Z</time></trkpt><trkpt lat="42.791474918732476" lon="11.855027554913013"><ele>406.0</ele><time>2026-04-12T15:56:26.77Z</time></trkpt><trkpt lat="42.791357740049754" lon="11.8549556289126"><ele>406.0</ele><time>2026-04-12T15:56:27.77Z</time></trkpt><trkpt lat="42.791259363582256" lon="11.854839021233785"><ele>406.0</ele><time>2026-04-12T15:56:28.77Z</time></trkpt><trkpt lat="42.791129034142564" lon="11.85474125606562"><ele>406.0</ele><time>2026-04-12T15:56:29.77Z</time></trkpt><trkpt lat="42.79097414534667" lon="11.854680358677905"><ele>401.0</ele><time>2026-04-12T15:56:30.772Z</time></trkpt><trkpt lat="42.7908109499633" lon="11.854665893708157"><ele>396.0</ele><time>2026-04-12T15:56:31.772Z</time></trkpt><trkpt lat="42.79065951346019" lon="11.85463974417068"><ele>391.0</ele><time>2026-04-12T15:56:32.772Z</time></trkpt><trkpt lat="42.790511927927106" lon="11.854620104713481"><ele>391.0</ele><time>2026-04-12T15:56:33.772Z</time></trkpt><trkpt lat="42.79036178495584" lon="11.854581897877871"><ele>391.0</ele><time>2026-04-12T15:56:34.772Z</time></trkpt><trkpt lat="42.790214079527395" lon="11.854544924866262"><ele>391.0</ele><time>2026-04-12T15:56:35.772Z</time></trkpt><trkpt lat="42.79005576653716" lon="11.854543435657883"><ele>389.6666666666667</ele><time>2026-04-12T15:56:36.772Z</time></trkpt><trkpt lat="42.78990162257687" lon="11.854554515983395"><ele>388.33333333333337</ele><time>2026-04-12T15:56:37.772Z</time></trkpt><trkpt lat="42.78974488182353" lon="11.854595437668044"><ele>387.0</ele><time>2026-04-12T15:56:38.772Z</time></trkpt><trkpt lat="42.78959582230842" lon="11.85464916957162"><ele>387.0</ele><time>2026-04-12T15:56:39.772Z</time></trkpt><trkpt lat="42.7894495770047" lon="11.854697405983655"><ele>387.0</ele><time>2026-04-12T15:56:40.772Z</time></trkpt><trkpt lat="42.789313634832055" lon="11.854748091511444"><ele>387.0</ele><time>2026-04-12T15:56:41.772Z</time></trkpt><trkpt lat="42.7891937732424" lon="11.854780436412895"><ele>387.0</ele><time>2026-04-12T15:56:42.772Z</time></trkpt><trkpt lat="42.78907277118424" lon="11.854794423868576"><ele>387.5</ele><time>2026-04-12T15:56:43.772Z</time></trkpt><trkpt lat="42.788964824875166" lon="11.854770519167465"><ele>388.0</ele><time>2026-04-12T15:56:44.772Z</time></trkpt><trkpt lat="42.78886077134455" lon="11.854713352663225"><ele>388.5</ele><time>2026-04-12T15:56:45.772Z</time></trkpt><trkpt lat="42.78875777669208" lon="11.854624119146894"><ele>389.0</ele><time>2026-04-12T15:56:46.772Z</time></trkpt><trkpt lat="42.788632610703196" lon="11.854525285961502"><ele>389.3333333333333</ele><time>2026-04-12T15:56:47.771Z</time></trkpt><trkpt lat="42.78850883007531" lon="11.854385467689744"><ele>389.66666666666663</ele><time>2026-04-12T15:56:48.771Z</time></trkpt><trkpt lat="42.78836414249264" lon="11.854253008929026"><ele>390.0</ele><time>2026-04-12T15:56:49.771Z</time></trkpt><trkpt lat="42.78821259336056" lon="11.85413498825572"><ele>390.0</ele><time>2026-04-12T15:56:50.771Z</time></trkpt><trkpt lat="42.78808413819294" lon="11.854004803475453"><ele>390.0</ele><time>2026-04-12T15:56:51.771Z</time></trkpt><trkpt lat="42.78795654859873" lon="11.853889709946369"><ele>390.0</ele><time>2026-04-12T15:56:52.771Z</time></trkpt><trkpt lat="42.787833068190615" lon="11.85376596753262"><ele>390.0</ele><time>2026-04-12T15:56:53.771Z</time></trkpt><trkpt lat="42.78770998008884" lon="11.853657872865263"><ele>390.0</ele><time>2026-04-12T15:56:54.771Z</time></trkpt><trkpt lat="42.787576942864064" lon="11.853544839151862"><ele>390.0</ele><time>2026-04-12T15:56:55.771Z</time></trkpt><trkpt lat="42.787394168990865" lon="11.853439475745922"><ele>391.33333333333337</ele><time>2026-04-12T15:56:56.771Z</time></trkpt><trkpt lat="42.78723397635427" lon="11.853378688592933"><ele>392.6666666666667</ele><time>2026-04-12T15:56:57.771Z</time></trkpt><trkpt lat="42.787059115606525" lon="11.853322030686916"><ele>394.0</ele><time>2026-04-12T15:56:58.771Z</time></trkpt><trkpt lat="42.78685725231313" lon="11.853255954879934"><ele>388.0</ele><time>2026-04-12T15:56:59.771Z</time></trkpt><trkpt lat="42.78667162411992" lon="11.853194125936598"><ele>382.0</ele><time>2026-04-12T15:57:00.771Z</time></trkpt><trkpt lat="42.78648565851632" lon="11.853132184625132"><ele>376.0</ele><time>2026-04-12T15:57:01.771Z</time></trkpt><trkpt lat="42.78631683546918" lon="11.853075953424026"><ele>376.0</ele><time>2026-04-12T15:57:02.771Z</time></trkpt><trkpt lat="42.78613502933897" lon="11.853015169256816"><ele>376.0</ele><time>2026-04-12T15:57:03.771Z</time></trkpt><trkpt lat="42.78595870058146" lon="11.852962340684456"><ele>376.0</ele><time>2026-04-12T15:57:04.771Z</time></trkpt><trkpt lat="42.785713564241384" lon="11.852894890113772"><ele>373.5</ele><time>2026-04-12T15:57:05.771Z</time></trkpt><trkpt lat="42.78551541783598" lon="11.852903135761633"><ele>371.0</ele><time>2026-04-12T15:57:06.771Z</time></trkpt><trkpt lat="42.78535349842162" lon="11.852917179206832"><ele>368.5</ele><time>2026-04-12T15:57:07.771Z</time></trkpt><trkpt lat="42.78526940463476" lon="11.852889098123336"><ele>366.0</ele><time>2026-04-12T15:57:08.771Z</time></trkpt><trkpt lat="42.7851566282091" lon="11.852845906707204"><ele>362.6666666666667</ele><time>2026-04-12T15:57:09.771Z</time></trkpt><trkpt lat="42.78501647257685" lon="11.852781961256452"><ele>359.33333333333337</ele><time>2026-04-12T15:57:10.771Z</time></trkpt><trkpt lat="42.78487133812433" lon="11.8527197977208"><ele>356.0</ele><time>2026-04-12T15:57:11.771Z</time></trkpt><trkpt lat="42.78470908004766" lon="11.852660665428306"><ele>356.0</ele><time>2026-04-12T15:57:12.771Z</time></trkpt><trkpt lat="42.78454577455253" lon="11.85263058371439"><ele>356.0</ele><time>2026-04-12T15:57:13.771Z</time></trkpt><trkpt lat="42.78438653080606" lon="11.852623793761015"><ele>356.0</ele><time>2026-04-12T15:57:14.77Z</time></trkpt><trkpt lat="42.78423138782746" lon="11.852617076860607"><ele>358.25</ele><time>2026-04-12T15:57:15.77Z</time></trkpt><trkpt lat="42.784099256149595" lon="11.85260835293362"><ele>360.5</ele><time>2026-04-12T15:57:16.77Z</time></trkpt><trkpt lat="42.78398344664935" lon="11.852590287306082"><ele>362.75</ele><time>2026-04-12T15:57:17.77Z</time></trkpt><trkpt lat="42.78389863860527" lon="11.85253134293165"><ele>365.0</ele><time>2026-04-12T15:57:18.77Z</time></trkpt><trkpt lat="42.78380637470207" lon="11.8524604888185"><ele>365.0</ele><time>2026-04-12T15:57:19.77Z</time></trkpt><trkpt lat="42.783717228382386" lon="11.852334478406583"><ele>365.0</ele><time>2026-04-12T15:57:20.77Z</time></trkpt><trkpt lat="42.78361349749442" lon="11.852195099394166"><ele>365.0</ele><time>2026-04-12T15:57:21.77Z</time></trkpt><trkpt lat="42.783496008766065" lon="11.85205852388817"><ele>365.0</ele><time>2026-04-12T15:57:22.77Z</time></trkpt><trkpt lat="42.78337014181376" lon="11.851915244752027"><ele>362.6666666666667</ele><time>2026-04-12T15:57:23.77Z</time></trkpt><trkpt lat="42.78324408723838" lon="11.851763056175498"><ele>360.3333333333333</ele><time>2026-04-12T15:57:24.77Z</time></trkpt><trkpt lat="42.78312110590659" lon="11.851635742272698"><ele>358.0</ele><time>2026-04-12T15:57:25.77Z</time></trkpt><trkpt lat="42.7830132139251" lon="11.851517669845295"><ele>358.0</ele><time>2026-04-12T15:57:26.77Z</time></trkpt><trkpt lat="42.78292059336795" lon="11.851428676696866"><ele>358.0</ele><time>2026-04-12T15:57:27.77Z</time></trkpt><trkpt lat="42.782846097618915" lon="11.851348569693064"><ele>358.0</ele><time>2026-04-12T15:57:28.77Z</time></trkpt><trkpt lat="42.78279862077817" lon="11.851228297539409"><ele>358.0</ele><time>2026-04-12T15:57:29.77Z</time></trkpt><trkpt lat="42.78277942246786" lon="11.851073585759398"><ele>358.0</ele><time>2026-04-12T15:57:30.77Z</time></trkpt><trkpt lat="42.78277387004486" lon="11.850887501345412"><ele>359.0</ele><time>2026-04-12T15:57:31.77Z</time></trkpt><trkpt lat="42.782767519401695" lon="11.850672354242262"><ele>360.0</ele><time>2026-04-12T15:57:32.77Z</time></trkpt><trkpt lat="42.78278287756588" lon="11.850448354624245"><ele>361.0</ele><time>2026-04-12T15:57:33.77Z</time></trkpt><trkpt lat="42.78281258396321" lon="11.8502144670921"><ele>357.66666666666663</ele><time>2026-04-12T15:57:34.77Z</time></trkpt><trkpt lat="42.78285633777522" lon="11.849966096713564"><ele>354.3333333333333</ele><time>2026-04-12T15:57:35.77Z</time></trkpt><trkpt lat="42.78290700423482" lon="11.849731888810354"><ele>351.0</ele><time>2026-04-12T15:57:36.77Z</time></trkpt><trkpt lat="42.782976165438434" lon="11.84950582021153"><ele>347.6666666666667</ele><time>2026-04-12T15:57:37.77Z</time></trkpt><trkpt lat="42.78307119783138" lon="11.849290715615865"><ele>344.33333333333337</ele><time>2026-04-12T15:57:38.77Z</time></trkpt><trkpt lat="42.783193395135356" lon="11.849077884480138"><ele>341.0</ele><time>2026-04-12T15:57:39.77Z</time></trkpt><trkpt lat="42.78331869914128" lon="11.848850505200346"><ele>341.0</ele><time>2026-04-12T15:57:40.77Z</time></trkpt><trkpt lat="42.78344532449733" lon="11.848607283175605"><ele>341.0</ele><time>2026-04-12T15:57:41.769Z</time></trkpt><trkpt lat="42.78357924700885" lon="11.84835901394171"><ele>341.0</ele><time>2026-04-12T15:57:42.769Z</time></trkpt><trkpt lat="42.7837039719805" lon="11.848112594571678"><ele>340.6666666666667</ele><time>2026-04-12T15:57:43.769Z</time></trkpt><trkpt lat="42.78382664336697" lon="11.847879132883502"><ele>340.3333333333333</ele><time>2026-04-12T15:57:44.769Z</time></trkpt><trkpt lat="42.78395432674917" lon="11.847639758480225"><ele>340.0</ele><time>2026-04-12T15:57:45.769Z</time></trkpt><trkpt lat="42.78408435440433" lon="11.847384695063285"><ele>340.0</ele><time>2026-04-12T15:57:46.769Z</time></trkpt><trkpt lat="42.78417446684926" lon="11.847122334057014"><ele>340.0</ele><time>2026-04-12T15:57:47.769Z</time></trkpt><trkpt lat="42.78424474751338" lon="11.846860945166554"><ele>340.0</ele><time>2026-04-12T15:57:48.769Z</time></trkpt><trkpt lat="42.78431337972993" lon="11.84661144235535"><ele>338.6</ele><time>2026-04-12T15:57:49.769Z</time></trkpt><trkpt lat="42.7843346634472" lon="11.846415986806925"><ele>337.2</ele><time>2026-04-12T15:57:50.769Z</time></trkpt><trkpt lat="42.78433003924423" lon="11.846289469235344"><ele>335.79999999999995</ele><time>2026-04-12T15:57:51.769Z</time></trkpt><trkpt lat="42.7842952460134" lon="11.846131300967818"><ele>334.4</ele><time>2026-04-12T15:57:53.769Z</time></trkpt><trkpt lat="42.78422791393236" lon="11.846123063628385"><ele>333.0</ele><time>2026-04-12T15:57:54.769Z</time></trkpt><trkpt lat="42.784097319887465" lon="11.846109394212625"><ele>333.0</ele><time>2026-04-12T15:57:56.769Z</time></trkpt><trkpt lat="42.783990293301855" lon="11.846113631289208"><ele>333.0</ele><time>2026-04-12T15:57:57.769Z</time></trkpt><trkpt lat="42.78387206488268" lon="11.846144631758051"><ele>333.0</ele><time>2026-04-12T15:57:58.769Z</time></trkpt><trkpt lat="42.78373841128364" lon="11.846173250053429"><ele>333.0</ele><time>2026-04-12T15:57:59.769Z</time></trkpt><trkpt lat="42.78358695905226" lon="11.846207540655604"><ele>331.3333333333333</ele><time>2026-04-12T15:58:00.769Z</time></trkpt><trkpt lat="42.783428648594445" lon="11.846268163038474"><ele>329.66666666666663</ele><time>2026-04-12T15:58:01.769Z</time></trkpt><trkpt lat="42.7832659268904" lon="11.846350400496952"><ele>328.0</ele><time>2026-04-12T15:58:02.769Z</time></trkpt><trkpt lat="42.7830949793708" lon="11.84646082304385"><ele>328.0</ele><time>2026-04-12T15:58:03.769Z</time></trkpt><trkpt lat="42.782907996285054" lon="11.846572926068253"><ele>328.0</ele><time>2026-04-12T15:58:04.769Z</time></trkpt><trkpt lat="42.78272858851229" lon="11.846694285160828"><ele>328.0</ele><time>2026-04-12T15:58:05.769Z</time></trkpt><trkpt lat="42.78255094047295" lon="11.846818002062511"><ele>327.0</ele><time>2026-04-12T15:58:06.769Z</time></trkpt><trkpt lat="42.78237959366388" lon="11.846932706849495"><ele>326.0</ele><time>2026-04-12T15:58:07.768Z</time></trkpt><trkpt lat="42.78220689977539" lon="11.847046162887988"><ele>325.0</ele><time>2026-04-12T15:58:08.768Z</time></trkpt><trkpt lat="42.78203978232339" lon="11.847165674234512"><ele>325.0</ele><time>2026-04-12T15:58:09.768Z</time></trkpt><trkpt lat="42.781869068372835" lon="11.847289296440096"><ele>325.0</ele><time>2026-04-12T15:58:10.768Z</time></trkpt><trkpt lat="42.78171047741961" lon="11.8474195277897"><ele>325.0</ele><time>2026-04-12T15:58:11.768Z</time></trkpt><trkpt lat="42.7815487688447" lon="11.84755415026274"><ele>321.3333333333333</ele><time>2026-04-12T15:58:12.768Z</time></trkpt><trkpt lat="42.781392874913735" lon="11.847680561734151"><ele>317.6666666666667</ele><time>2026-04-12T15:58:13.768Z</time></trkpt><trkpt lat="42.78124705746727" lon="11.847797558389082"><ele>314.0</ele><time>2026-04-12T15:58:14.768Z</time></trkpt><trkpt lat="42.781104328368556" lon="11.847902714827363"><ele>315.33333333333337</ele><time>2026-04-12T15:58:15.768Z</time></trkpt><trkpt lat="42.78096822944961" lon="11.848007469464436"><ele>316.6666666666667</ele><time>2026-04-12T15:58:16.768Z</time></trkpt><trkpt lat="42.78084549030941" lon="11.848126622055178"><ele>318.0</ele><time>2026-04-12T15:58:17.768Z</time></trkpt><trkpt lat="42.7807197321374" lon="11.848266990078194"><ele>318.0</ele><time>2026-04-12T15:58:18.768Z</time></trkpt><trkpt lat="42.78059317686324" lon="11.848414876937126"><ele>318.0</ele><time>2026-04-12T15:58:19.768Z</time></trkpt><trkpt lat="42.78047289257143" lon="11.848594577925121"><ele>318.0</ele><time>2026-04-12T15:58:20.768Z</time></trkpt><trkpt lat="42.78035142016653" lon="11.84877030711744"><ele>317.3333333333333</ele><time>2026-04-12T15:58:21.768Z</time></trkpt><trkpt lat="42.780212881533664" lon="11.848949032036394"><ele>316.66666666666663</ele><time>2026-04-12T15:58:22.768Z</time></trkpt><trkpt lat="42.78008308126863" lon="11.849104400691013"><ele>316.0</ele><time>2026-04-12T15:58:23.768Z</time></trkpt><trkpt lat="42.77998662917448" lon="11.849256434267751"><ele>314.5</ele><time>2026-04-12T15:58:24.768Z</time></trkpt><trkpt lat="42.7799019149693" lon="11.849396370351375"><ele>313.0</ele><time>2026-04-12T15:58:25.768Z</time></trkpt><trkpt lat="42.779843897419816" lon="11.849550866091143"><ele>311.5</ele><time>2026-04-12T15:58:26.768Z</time></trkpt><trkpt lat="42.77979835069211" lon="11.849736043803636"><ele>310.0</ele><time>2026-04-12T15:58:27.768Z</time></trkpt><trkpt lat="42.77976914631631" lon="11.849953527661043"><ele>308.3333333333333</ele><time>2026-04-12T15:58:28.768Z</time></trkpt><trkpt lat="42.779763759886826" lon="11.850178816264549"><ele>306.6666666666667</ele><time>2026-04-12T15:58:29.768Z</time></trkpt><trkpt lat="42.77973977199349" lon="11.850407458784312"><ele>305.0</ele><time>2026-04-12T15:58:30.768Z</time></trkpt><trkpt lat="42.77971289685495" lon="11.850608245957938"><ele>305.0</ele><time>2026-04-12T15:58:31.768Z</time></trkpt><trkpt lat="42.779678340220336" lon="11.850793934869326"><ele>305.0</ele><time>2026-04-12T15:58:32.768Z</time></trkpt><trkpt lat="42.77962653202365" lon="11.850969649448688"><ele>305.0</ele><time>2026-04-12T15:58:33.768Z</time></trkpt><trkpt lat="42.779558600264586" lon="11.851141795464313"><ele>305.0</ele><time>2026-04-12T15:58:34.767Z</time></trkpt><trkpt lat="42.77947450393655" lon="11.851300416399521"><ele>305.5</ele><time>2026-04-12T15:58:35.767Z</time></trkpt><trkpt lat="42.77937965776573" lon="11.851446347047014"><ele>306.0</ele><time>2026-04-12T15:58:36.77Z</time></trkpt><trkpt lat="42.77927699804596" lon="11.851578177311803"><ele>306.5</ele><time>2026-04-12T15:58:37.77Z</time></trkpt><trkpt lat="42.77916211141043" lon="11.851703119748997"><ele>307.0</ele><time>2026-04-12T15:58:38.77Z</time></trkpt><trkpt lat="42.77905344518902" lon="11.851811067503938"><ele>303.75</ele><time>2026-04-12T15:58:39.771Z</time></trkpt><trkpt lat="42.77893958483441" lon="11.851911860044446"><ele>300.5</ele><time>2026-04-12T15:58:40.77Z</time></trkpt><trkpt lat="42.778821876114" lon="11.85198771000519"><ele>297.25</ele><time>2026-04-12T15:58:41.77Z</time></trkpt><trkpt lat="42.778701246578066" lon="11.852027836637362"><ele>294.0</ele><time>2026-04-12T15:58:42.77Z</time></trkpt><trkpt lat="42.778563727566784" lon="11.852034271353077"><ele>294.3333333333333</ele><time>2026-04-12T15:58:43.77Z</time></trkpt><trkpt lat="42.778410716078014" lon="11.85201808708816"><ele>294.66666666666663</ele><time>2026-04-12T15:58:44.77Z</time></trkpt><trkpt lat="42.778252802501356" lon="11.85199114681526"><ele>295.0</ele><time>2026-04-12T15:58:45.769Z</time></trkpt><trkpt lat="42.77809272108604" lon="11.851971153964078"><ele>295.0</ele><time>2026-04-12T15:58:46.77Z</time></trkpt><trkpt lat="42.77793653081589" lon="11.85196815459446"><ele>295.0</ele><time>2026-04-12T15:58:47.77Z</time></trkpt><trkpt lat="42.77778937818178" lon="11.851976834163182"><ele>295.0</ele><time>2026-04-12T15:58:48.77Z</time></trkpt><trkpt lat="42.777639675059405" lon="11.852012888072624"><ele>294.66666666666663</ele><time>2026-04-12T15:58:49.77Z</time></trkpt><trkpt lat="42.777493118310254" lon="11.852086428592777"><ele>294.3333333333333</ele><time>2026-04-12T15:58:50.77Z</time></trkpt><trkpt lat="42.777356000198395" lon="11.852165366357928"><ele>294.0</ele><time>2026-04-12T15:58:51.77Z</time></trkpt><trkpt lat="42.77721058048758" lon="11.852224431693676"><ele>294.0</ele><time>2026-04-12T15:58:52.77Z</time></trkpt><trkpt lat="42.7770637577871" lon="11.852256332324295"><ele>294.0</ele><time>2026-04-12T15:58:53.77Z</time></trkpt><trkpt lat="42.776916346617945" lon="11.852259833130816"><ele>294.0</ele><time>2026-04-12T15:58:54.77Z</time></trkpt><trkpt lat="42.77676468668983" lon="11.852242574608834"><ele>294.0</ele><time>2026-04-12T15:58:55.77Z</time></trkpt><trkpt lat="42.7766079798743" lon="11.85220325424219"><ele>293.0</ele><time>2026-04-12T15:58:56.77Z</time></trkpt><trkpt lat="42.776441893967494" lon="11.852157099674262"><ele>292.0</ele><time>2026-04-12T15:58:57.77Z</time></trkpt><trkpt lat="42.776275777818825" lon="11.85211645538691"><ele>291.0</ele><time>2026-04-12T15:58:58.77Z</time></trkpt><trkpt lat="42.776119731665915" lon="11.852083850092317"><ele>289.0</ele><time>2026-04-12T15:58:59.77Z</time></trkpt><trkpt lat="42.775966135142916" lon="11.852041711859886"><ele>287.0</ele><time>2026-04-12T15:59:00.77Z</time></trkpt><trkpt lat="42.775816414381325" lon="11.8520015551826"><ele>285.0</ele><time>2026-04-12T15:59:01.77Z</time></trkpt><trkpt lat="42.7756713938307" lon="11.851962039498826"><ele>285.0</ele><time>2026-04-12T15:59:02.77Z</time></trkpt><trkpt lat="42.77553160959212" lon="11.851921936625407"><ele>285.0</ele><time>2026-04-12T15:59:03.77Z</time></trkpt><trkpt lat="42.77539112269523" lon="11.851890093869404"><ele>285.0</ele><time>2026-04-12T15:59:04.77Z</time></trkpt><trkpt lat="42.77524912235021" lon="11.851868004501567"><ele>285.0</ele><time>2026-04-12T15:59:05.77Z</time></trkpt><trkpt lat="42.775098271542966" lon="11.851861659777287"><ele>283.3333333333333</ele><time>2026-04-12T15:59:06.77Z</time></trkpt><trkpt lat="42.77493514832859" lon="11.851882028542438"><ele>281.66666666666663</ele><time>2026-04-12T15:59:07.769Z</time></trkpt><trkpt lat="42.77476506926815" lon="11.85192431214298"><ele>280.0</ele><time>2026-04-12T15:59:08.769Z</time></trkpt><trkpt lat="42.774593048384844" lon="11.851971032196648"><ele>280.0</ele><time>2026-04-12T15:59:09.769Z</time></trkpt><trkpt lat="42.77441735674915" lon="11.852018885065949"><ele>280.0</ele><time>2026-04-12T15:59:10.769Z</time></trkpt><trkpt lat="42.77423680534608" lon="11.852062330934164"><ele>280.0</ele><time>2026-04-12T15:59:11.769Z</time></trkpt><trkpt lat="42.77406055590633" lon="11.852092867082352"><ele>278.3333333333333</ele><time>2026-04-12T15:59:12.769Z</time></trkpt><trkpt lat="42.773882265149155" lon="11.8521143711879"><ele>276.6666666666667</ele><time>2026-04-12T15:59:13.769Z</time></trkpt><trkpt lat="42.77370448321699" lon="11.852138800900386"><ele>275.0</ele><time>2026-04-12T15:59:14.769Z</time></trkpt><trkpt lat="42.77352952244064" lon="11.85215479973734"><ele>274.0</ele><time>2026-04-12T15:59:15.769Z</time></trkpt><trkpt lat="42.773350355184206" lon="11.85216628648514"><ele>273.0</ele><time>2026-04-12T15:59:16.769Z</time></trkpt><trkpt lat="42.77317299947497" lon="11.852184761198881"><ele>272.0</ele><time>2026-04-12T15:59:17.769Z</time></trkpt><trkpt lat="42.77299913204205" lon="11.852201871172266"><ele>272.0</ele><time>2026-04-12T15:59:18.769Z</time></trkpt><trkpt lat="42.772828740729054" lon="11.852213699085038"><ele>272.0</ele><time>2026-04-12T15:59:19.769Z</time></trkpt><trkpt lat="42.77266107774362" lon="11.852223868101389"><ele>272.0</ele><time>2026-04-12T15:59:20.769Z</time></trkpt><trkpt lat="42.7725073812449" lon="11.852244306660983"><ele>272.0</ele><time>2026-04-12T15:59:21.769Z</time></trkpt><trkpt lat="42.77235965264271" lon="11.852254623005102"><ele>272.0</ele><time>2026-04-12T15:59:22.769Z</time></trkpt><trkpt lat="42.77222133666158" lon="11.85226731166637"><ele>272.0</ele><time>2026-04-12T15:59:23.769Z</time></trkpt><trkpt lat="42.77209326225992" lon="11.852279764677665"><ele>272.0</ele><time>2026-04-12T15:59:24.769Z</time></trkpt><trkpt lat="42.77198300774426" lon="11.852283798446091"><ele>272.0</ele><time>2026-04-12T15:59:25.769Z</time></trkpt><trkpt lat="42.77188659882949" lon="11.852281783819302"><ele>272.0</ele><time>2026-04-12T15:59:26.769Z</time></trkpt><trkpt lat="42.771803727600805" lon="11.852272254294979"><ele>272.0</ele><time>2026-04-12T15:59:27.769Z</time></trkpt><trkpt lat="42.77173518958959" lon="11.85226811339415"><ele>272.0</ele><time>2026-04-12T15:59:28.769Z</time></trkpt><trkpt lat="42.7716661515941" lon="11.852280811368214"><ele>272.0</ele><time>2026-04-12T15:59:30.769Z</time></trkpt><trkpt lat="42.77159994652291" lon="11.852323753707491"><ele>272.0</ele><time>2026-04-12T15:59:33.769Z</time></trkpt><trkpt lat="42.77153142880314" lon="11.852469882346691"><ele>270.8</ele><time>2026-04-12T15:59:35.768Z</time></trkpt><trkpt lat="42.7715050778984" lon="11.852579950398782"><ele>269.6</ele><time>2026-04-12T15:59:36.768Z</time></trkpt><trkpt lat="42.77149023405158" lon="11.852713065409878"><ele>268.40000000000003</ele><time>2026-04-12T15:59:37.768Z</time></trkpt><trkpt lat="42.771468395937596" lon="11.852855724805176"><ele>267.2</ele><time>2026-04-12T15:59:38.768Z</time></trkpt><trkpt lat="42.77144259165953" lon="11.853020689807082"><ele>266.0</ele><time>2026-04-12T15:59:39.768Z</time></trkpt><trkpt lat="42.7714155695573" lon="11.85320983571013"><ele>265.33333333333337</ele><time>2026-04-12T15:59:40.768Z</time></trkpt><trkpt lat="42.771385246994505" lon="11.85342308590461"><ele>264.6666666666667</ele><time>2026-04-12T15:59:41.768Z</time></trkpt><trkpt lat="42.771349116149096" lon="11.853654699695303"><ele>264.0</ele><time>2026-04-12T15:59:42.768Z</time></trkpt><trkpt lat="42.771304815931416" lon="11.853895374164159"><ele>264.0</ele><time>2026-04-12T15:59:43.768Z</time></trkpt><trkpt lat="42.771266877077096" lon="11.854134831690661"><ele>264.0</ele><time>2026-04-12T15:59:44.768Z</time></trkpt><trkpt lat="42.771230696525635" lon="11.85435341952936"><ele>264.0</ele><time>2026-04-12T15:59:45.768Z</time></trkpt><trkpt lat="42.77119007052847" lon="11.854577668254237"><ele>264.3333333333333</ele><time>2026-04-12T15:59:46.768Z</time></trkpt><trkpt lat="42.771125996084464" lon="11.854789844948359"><ele>264.66666666666663</ele><time>2026-04-12T15:59:47.768Z</time></trkpt><trkpt lat="42.77103670523677" lon="11.85499066207688"><ele>265.0</ele><time>2026-04-12T15:59:48.768Z</time></trkpt><trkpt lat="42.7709224771191" lon="11.85516071047537"><ele>263.66666666666663</ele><time>2026-04-12T15:59:49.768Z</time></trkpt><trkpt lat="42.77077947539334" lon="11.855298914088532"><ele>262.3333333333333</ele><time>2026-04-12T15:59:50.768Z</time></trkpt><trkpt lat="42.7706143941632" lon="11.855414709881744"><ele>261.0</ele><time>2026-04-12T15:59:51.768Z</time></trkpt><trkpt lat="42.77043242139094" lon="11.85550698402345"><ele>261.0</ele><time>2026-04-12T15:59:52.768Z</time></trkpt><trkpt lat="42.77023487166131" lon="11.855552079672798"><ele>261.0</ele><time>2026-04-12T15:59:53.768Z</time></trkpt><trkpt lat="42.77004737964401" lon="11.855579651909194"><ele>261.0</ele><time>2026-04-12T15:59:54.768Z</time></trkpt><trkpt lat="42.76986722178481" lon="11.85560531538121"><ele>260.3333333333333</ele><time>2026-04-12T15:59:55.768Z</time></trkpt><trkpt lat="42.76969104785414" lon="11.85563086543249"><ele>259.66666666666663</ele><time>2026-04-12T15:59:56.768Z</time></trkpt><trkpt lat="42.7695153836163" lon="11.8556566273875"><ele>259.0</ele><time>2026-04-12T15:59:57.768Z</time></trkpt><trkpt lat="42.76933945841832" lon="11.855688640741906"><ele>258.66666666666663</ele><time>2026-04-12T15:59:58.768Z</time></trkpt><trkpt lat="42.76916026440918" lon="11.85571857141669"><ele>258.3333333333333</ele><time>2026-04-12T15:59:59.768Z</time></trkpt><trkpt lat="42.76898211188856" lon="11.855750944911334"><ele>258.0</ele><time>2026-04-12T16:00:00.767Z</time></trkpt><trkpt lat="42.76880669426962" lon="11.85578117209177"><ele>258.0</ele><time>2026-04-12T16:00:01.767Z</time></trkpt><trkpt lat="42.76863401983636" lon="11.855809425723"><ele>258.0</ele><time>2026-04-12T16:00:02.767Z</time></trkpt><trkpt lat="42.76846478092543" lon="11.855837665492196"><ele>258.0</ele><time>2026-04-12T16:00:03.767Z</time></trkpt><trkpt lat="42.76829898238976" lon="11.855863088849553"><ele>257.0</ele><time>2026-04-12T16:00:04.767Z</time></trkpt><trkpt lat="42.76813546337472" lon="11.855889660753647"><ele>256.0</ele><time>2026-04-12T16:00:05.767Z</time></trkpt><trkpt lat="42.76797872762384" lon="11.855919636784801"><ele>255.0</ele><time>2026-04-12T16:00:06.767Z</time></trkpt><trkpt lat="42.7678274326091" lon="11.855946123530053"><ele>254.5</ele><time>2026-04-12T16:00:07.767Z</time></trkpt><trkpt lat="42.76767720241723" lon="11.855966736621017"><ele>254.0</ele><time>2026-04-12T16:00:08.767Z</time></trkpt><trkpt lat="42.767529784791385" lon="11.85598799098034"><ele>253.5</ele><time>2026-04-12T16:00:09.767Z</time></trkpt><trkpt lat="42.76738508752881" lon="11.85601254163457"><ele>253.0</ele><time>2026-04-12T16:00:10.767Z</time></trkpt><trkpt lat="42.76724135083759" lon="11.856036838756586"><ele>253.0</ele><time>2026-04-12T16:00:11.767Z</time></trkpt><trkpt lat="42.7671003599381" lon="11.856064010135707"><ele>253.0</ele><time>2026-04-12T16:00:12.767Z</time></trkpt><trkpt lat="42.76695551484226" lon="11.856087522997678"><ele>253.0</ele><time>2026-04-12T16:00:13.767Z</time></trkpt><trkpt lat="42.76680945366373" lon="11.856109853500485"><ele>253.0</ele><time>2026-04-12T16:00:14.767Z</time></trkpt><trkpt lat="42.766661864367876" lon="11.85613183302663"><ele>252.33333333333331</ele><time>2026-04-12T16:00:15.767Z</time></trkpt><trkpt lat="42.76650883691365" lon="11.856160561442268"><ele>251.66666666666669</ele><time>2026-04-12T16:00:16.767Z</time></trkpt><trkpt lat="42.76635396977593" lon="11.856188648755987"><ele>251.0</ele><time>2026-04-12T16:00:17.767Z</time></trkpt><trkpt lat="42.766198080010874" lon="11.856220235428891"><ele>251.0</ele><time>2026-04-12T16:00:18.767Z</time></trkpt><trkpt lat="42.76603749502963" lon="11.856242420142463"><ele>251.0</ele><time>2026-04-12T16:00:19.767Z</time></trkpt><trkpt lat="42.76587392985387" lon="11.856261692687998"><ele>251.0</ele><time>2026-04-12T16:00:20.767Z</time></trkpt><trkpt lat="42.76570734851368" lon="11.856274289969113"><ele>249.66666666666669</ele><time>2026-04-12T16:00:21.767Z</time></trkpt><trkpt lat="42.765540306178764" lon="11.856281672852608"><ele>248.33333333333331</ele><time>2026-04-12T16:00:22.767Z</time></trkpt><trkpt lat="42.76537118712719" lon="11.856283134638716"><ele>247.0</ele><time>2026-04-12T16:00:23.767Z</time></trkpt><trkpt lat="42.765200397301896" lon="11.856281964841422"><ele>247.0</ele><time>2026-04-12T16:00:24.767Z</time></trkpt><trkpt lat="42.76502978698463" lon="11.85628396003427"><ele>247.0</ele><time>2026-04-12T16:00:25.767Z</time></trkpt><trkpt lat="42.76486128577626" lon="11.856283378975704"><ele>247.0</ele><time>2026-04-12T16:00:26.767Z</time></trkpt><trkpt lat="42.76469218816603" lon="11.856280454373728"><ele>247.0</ele><time>2026-04-12T16:00:27.766Z</time></trkpt><trkpt lat="42.764534821969505" lon="11.8562807502488"><ele>247.0</ele><time>2026-04-12T16:00:28.766Z</time></trkpt><trkpt lat="42.764378534615105" lon="11.856277346090241"><ele>247.0</ele><time>2026-04-12T16:00:29.766Z</time></trkpt><trkpt lat="42.76421523431184" lon="11.856275361155287"><ele>246.66666666666666</ele><time>2026-04-12T16:00:30.766Z</time></trkpt><trkpt lat="42.76404868728297" lon="11.85627504223902"><ele>246.33333333333331</ele><time>2026-04-12T16:00:31.766Z</time></trkpt><trkpt lat="42.763873795322155" lon="11.856270239513819"><ele>246.0</ele><time>2026-04-12T16:00:32.766Z</time></trkpt><trkpt lat="42.7636913867751" lon="11.856263377829485"><ele>246.33333333333331</ele><time>2026-04-12T16:00:33.766Z</time></trkpt><trkpt lat="42.76350736290422" lon="11.856268907631568"><ele>246.66666666666666</ele><time>2026-04-12T16:00:34.766Z</time></trkpt><trkpt lat="42.76332574937986" lon="11.856294303276163"><ele>247.0</ele><time>2026-04-12T16:00:35.766Z</time></trkpt><trkpt lat="42.76314522269752" lon="11.856343878656135"><ele>247.0</ele><time>2026-04-12T16:00:36.766Z</time></trkpt><trkpt lat="42.76296861715429" lon="11.856408786036239"><ele>247.0</ele><time>2026-04-12T16:00:37.766Z</time></trkpt><trkpt lat="42.76279885491652" lon="11.856509269202595"><ele>247.0</ele><time>2026-04-12T16:00:38.766Z</time></trkpt><trkpt lat="42.76264107112426" lon="11.856632387143318"><ele>247.33333333333331</ele><time>2026-04-12T16:00:39.766Z</time></trkpt><trkpt lat="42.7624959039022" lon="11.856764270642422"><ele>247.66666666666669</ele><time>2026-04-12T16:00:40.766Z</time></trkpt><trkpt lat="42.76236791538932" lon="11.85691793691297"><ele>248.0</ele><time>2026-04-12T16:00:41.766Z</time></trkpt><trkpt lat="42.7622504706636" lon="11.857085794498397"><ele>248.0</ele><time>2026-04-12T16:00:42.768Z</time></trkpt><trkpt lat="42.76214138838642" lon="11.85726868180977"><ele>248.0</ele><time>2026-04-12T16:00:43.769Z</time></trkpt><trkpt lat="42.76204172754804" lon="11.857474767167602"><ele>248.0</ele><time>2026-04-12T16:00:44.768Z</time></trkpt><trkpt lat="42.76195650654034" lon="11.857703029840463"><ele>249.66666666666669</ele><time>2026-04-12T16:00:45.768Z</time></trkpt><trkpt lat="42.76186455154971" lon="11.857944522184159"><ele>251.33333333333331</ele><time>2026-04-12T16:00:46.768Z</time></trkpt><trkpt lat="42.76176880210468" lon="11.858197226403677"><ele>253.0</ele><time>2026-04-12T16:00:47.768Z</time></trkpt><trkpt lat="42.761685705918566" lon="11.85845685564909"><ele>253.0</ele><time>2026-04-12T16:00:48.768Z</time></trkpt><trkpt lat="42.761613868743325" lon="11.858734619143664"><ele>253.0</ele><time>2026-04-12T16:00:49.767Z</time></trkpt><trkpt lat="42.76154829845234" lon="11.859032305579037"><ele>253.0</ele><time>2026-04-12T16:00:50.767Z</time></trkpt><trkpt lat="42.761486960446454" lon="11.85935253537722"><ele>251.5</ele><time>2026-04-12T16:00:51.768Z</time></trkpt><trkpt lat="42.76142520241895" lon="11.859685271110608"><ele>250.0</ele><time>2026-04-12T16:00:52.768Z</time></trkpt><trkpt lat="42.76135830704571" lon="11.860025350900024"><ele>249.5</ele><time>2026-04-12T16:00:53.768Z</time></trkpt><trkpt lat="42.76129028920688" lon="11.860374483582655"><ele>249.0</ele><time>2026-04-12T16:00:54.767Z</time></trkpt><trkpt lat="42.76122403391483" lon="11.860730795370024"><ele>249.0</ele><time>2026-04-12T16:00:55.768Z</time></trkpt><trkpt lat="42.76116149942513" lon="11.861067790414449"><ele>249.0</ele><time>2026-04-12T16:00:56.768Z</time></trkpt><trkpt lat="42.76109326555758" lon="11.861407863251973"><ele>250.0</ele><time>2026-04-12T16:00:57.768Z</time></trkpt><trkpt lat="42.76102600990983" lon="11.86175456756073"><ele>251.0</ele><time>2026-04-12T16:00:58.768Z</time></trkpt><trkpt lat="42.760964703140786" lon="11.862077889301771"><ele>251.0</ele><time>2026-04-12T16:00:59.768Z</time></trkpt><trkpt lat="42.76090485302919" lon="11.862383180190195"><ele>251.0</ele><time>2026-04-12T16:01:00.768Z</time></trkpt><trkpt lat="42.760849569958765" lon="11.862664537235268"><ele>251.0</ele><time>2026-04-12T16:01:01.768Z</time></trkpt><trkpt lat="42.76078918730849" lon="11.862911072551936"><ele>251.0</ele><time>2026-04-12T16:01:02.768Z</time></trkpt><trkpt lat="42.760710188443035" lon="11.863124266739396"><ele>251.0</ele><time>2026-04-12T16:01:03.768Z</time></trkpt><trkpt lat="42.76060371560459" lon="11.86330098346348"><ele>251.0</ele><time>2026-04-12T16:01:04.768Z</time></trkpt><trkpt lat="42.76047619730517" lon="11.863433239976464"><ele>251.33333333333334</ele><time>2026-04-12T16:01:05.768Z</time></trkpt><trkpt lat="42.760311814371704" lon="11.863528064475458"><ele>251.66666666666669</ele><time>2026-04-12T16:01:06.768Z</time></trkpt><trkpt lat="42.76014802333493" lon="11.863617066279582"><ele>252.0</ele><time>2026-04-12T16:01:07.768Z</time></trkpt><trkpt lat="42.75994439158125" lon="11.863698359178233"><ele>252.0</ele><time>2026-04-12T16:01:08.768Z</time></trkpt><trkpt lat="42.75973457271503" lon="11.863809246630314"><ele>252.0</ele><time>2026-04-12T16:01:09.768Z</time></trkpt><trkpt lat="42.759522844192986" lon="11.86393717993811"><ele>254.5</ele><time>2026-04-12T16:01:10.768Z</time></trkpt><trkpt lat="42.75928180652431" lon="11.86406724408084"><ele>257.0</ele><time>2026-04-12T16:01:11.768Z</time></trkpt><trkpt lat="42.759057669163845" lon="11.864174431534941"><ele>257.0</ele><time>2026-04-12T16:01:12.768Z</time></trkpt><trkpt lat="42.758851393825424" lon="11.864267532684984"><ele>257.0</ele><time>2026-04-12T16:01:13.768Z</time></trkpt><trkpt lat="42.75865760359853" lon="11.8643432404801"><ele>257.0</ele><time>2026-04-12T16:01:14.768Z</time></trkpt><trkpt lat="42.75847308745864" lon="11.864414945150925"><ele>257.0</ele><time>2026-04-12T16:01:15.767Z</time></trkpt><trkpt lat="42.75831144356546" lon="11.864493872632723"><ele>257.0</ele><time>2026-04-12T16:01:16.767Z</time></trkpt><trkpt lat="42.75817647369878" lon="11.86459810952838"><ele>257.0</ele><time>2026-04-12T16:01:17.767Z</time></trkpt><trkpt lat="42.75805866689685" lon="11.86472157720161"><ele>257.0</ele><time>2026-04-12T16:01:18.767Z</time></trkpt><trkpt lat="42.757980979314866" lon="11.864875827550724"><ele>257.0</ele><time>2026-04-12T16:01:19.767Z</time></trkpt><trkpt lat="42.757893736258005" lon="11.86506018017548"><ele>257.0</ele><time>2026-04-12T16:01:20.767Z</time></trkpt><trkpt lat="42.75779959600389" lon="11.865228045396309"><ele>258.5</ele><time>2026-04-12T16:01:21.767Z</time></trkpt><trkpt lat="42.75770454993804" lon="11.865361839188473"><ele>260.0</ele><time>2026-04-12T16:01:22.767Z</time></trkpt><trkpt lat="42.75756898766265" lon="11.865491150587394"><ele>261.5</ele><time>2026-04-12T16:01:23.767Z</time></trkpt><trkpt lat="42.7574306869054" lon="11.865540126816196"><ele>263.0</ele><time>2026-04-12T16:01:24.767Z</time></trkpt><trkpt lat="42.75726578747529" lon="11.86557250591302"><ele>263.0</ele><time>2026-04-12T16:01:25.767Z</time></trkpt><trkpt lat="42.757082484849846" lon="11.865587348909676"><ele>263.0</ele><time>2026-04-12T16:01:26.767Z</time></trkpt><trkpt lat="42.75691242411106" lon="11.86559658323191"><ele>263.0</ele><time>2026-04-12T16:01:27.767Z</time></trkpt><trkpt lat="42.75675513838271" lon="11.865609261254592"><ele>266.33333333333337</ele><time>2026-04-12T16:01:28.767Z</time></trkpt><trkpt lat="42.756598879746164" lon="11.865603926075133"><ele>269.6666666666667</ele><time>2026-04-12T16:01:29.767Z</time></trkpt><trkpt lat="42.75643648419081" lon="11.865590053387914"><ele>273.0</ele><time>2026-04-12T16:01:30.767Z</time></trkpt><trkpt lat="42.75627415062104" lon="11.865571374720892"><ele>273.0</ele><time>2026-04-12T16:01:31.767Z</time></trkpt><trkpt lat="42.75611490117331" lon="11.865562427640874"><ele>273.0</ele><time>2026-04-12T16:01:32.767Z</time></trkpt><trkpt lat="42.75595759652176" lon="11.865551400581394"><ele>273.0</ele><time>2026-04-12T16:01:33.767Z</time></trkpt><trkpt lat="42.7557942188632" lon="11.86553028348175"><ele>274.25</ele><time>2026-04-12T16:01:34.767Z</time></trkpt><trkpt lat="42.75564656880087" lon="11.86552252900065"><ele>275.5</ele><time>2026-04-12T16:01:35.767Z</time></trkpt><trkpt lat="42.75550380306485" lon="11.865510144388224"><ele>276.75</ele><time>2026-04-12T16:01:36.767Z</time></trkpt><trkpt lat="42.75535637165216" lon="11.86550049974431"><ele>278.0</ele><time>2026-04-12T16:01:37.767Z</time></trkpt><trkpt lat="42.75521961636363" lon="11.865510573722144"><ele>280.0</ele><time>2026-04-12T16:01:38.767Z</time></trkpt><trkpt lat="42.7550871977085" lon="11.865531069422115"><ele>282.0</ele><time>2026-04-12T16:01:39.767Z</time></trkpt><trkpt lat="42.75496182583887" lon="11.86554305703099"><ele>284.0</ele><time>2026-04-12T16:01:40.767Z</time></trkpt><trkpt lat="42.75487753444524" lon="11.865553828197594"><ele>286.0</ele><time>2026-04-12T16:01:41.767Z</time></trkpt><trkpt lat="42.75480492089497" lon="11.865568933288262"><ele>288.0</ele><time>2026-04-12T16:01:43.766Z</time></trkpt><trkpt lat="42.754894915333715" lon="11.865546241848365"><ele>288.0</ele><time>2026-04-12T16:01:48.766Z</time></trkpt><trkpt lat="42.75496314650096" lon="11.865544562420148"><ele>288.0</ele><time>2026-04-12T16:01:49.766Z</time></trkpt><trkpt lat="42.7550919647073" lon="11.865539672959052"><ele>288.0</ele><time>2026-04-12T16:01:50.766Z</time></trkpt><trkpt lat="42.75523253478672" lon="11.86552834849256"><ele>288.0</ele><time>2026-04-12T16:01:51.766Z</time></trkpt><trkpt lat="42.75541271560147" lon="11.865528967882074"><ele>284.6666666666667</ele><time>2026-04-12T16:01:52.766Z</time></trkpt><trkpt lat="42.75560347537771" lon="11.865539952602102"><ele>281.33333333333337</ele><time>2026-04-12T16:01:53.766Z</time></trkpt><trkpt lat="42.755793272970394" lon="11.865559258605899"><ele>278.0</ele><time>2026-04-12T16:01:54.766Z</time></trkpt><trkpt lat="42.755986064776216" lon="11.86558268029685"><ele>276.33333333333337</ele><time>2026-04-12T16:01:55.766Z</time></trkpt><trkpt lat="42.75616906941662" lon="11.865606870534195"><ele>274.6666666666667</ele><time>2026-04-12T16:01:56.766Z</time></trkpt><trkpt lat="42.756344397861405" lon="11.865628827317552"><ele>273.0</ele><time>2026-04-12T16:01:57.766Z</time></trkpt><trkpt lat="42.756518128719236" lon="11.865643207169803"><ele>273.0</ele><time>2026-04-12T16:01:58.766Z</time></trkpt><trkpt lat="42.756683373267165" lon="11.86565482760901"><ele>273.0</ele><time>2026-04-12T16:01:59.766Z</time></trkpt><trkpt lat="42.75682085988726" lon="11.865653989606145"><ele>273.0</ele><time>2026-04-12T16:02:00.766Z</time></trkpt><trkpt lat="42.756937134148664" lon="11.865677353653375"><ele>273.0</ele><time>2026-04-12T16:02:01.766Z</time></trkpt><trkpt lat="42.757031124988984" lon="11.865680455336067"><ele>271.0</ele><time>2026-04-12T16:02:02.766Z</time></trkpt><trkpt lat="42.757134038611575" lon="11.865660408330902"><ele>269.0</ele><time>2026-04-12T16:02:04.766Z</time></trkpt><trkpt lat="42.75712508839566" lon="11.86576752251148"><ele>267.0</ele><time>2026-04-12T16:02:08.765Z</time></trkpt><trkpt lat="42.75700571732164" lon="11.86584029072579"><ele>265.0</ele><time>2026-04-12T16:02:10.765Z</time></trkpt><trkpt lat="42.756938312605364" lon="11.86589097797336"><ele>263.0</ele><time>2026-04-12T16:02:11.765Z</time></trkpt><trkpt lat="42.7568743613881" lon="11.86596995473129"><ele>262.0</ele><time>2026-04-12T16:02:12.765Z</time></trkpt><trkpt lat="42.756805690195044" lon="11.866054760434595"><ele>261.0</ele><time>2026-04-12T16:02:13.765Z</time></trkpt><trkpt lat="42.75672626185215" lon="11.866152850714556"><ele>260.0</ele><time>2026-04-12T16:02:14.765Z</time></trkpt><trkpt lat="42.75669441356358" lon="11.866357308945709"><ele>259.0</ele><time>2026-04-12T16:02:15.765Z</time></trkpt><trkpt lat="42.75662077176211" lon="11.866504202509315"><ele>259.0</ele><time>2026-04-12T16:02:16.765Z</time></trkpt><trkpt lat="42.756550498640856" lon="11.866647400345911"><ele>259.0</ele><time>2026-04-12T16:02:17.765Z</time></trkpt><trkpt lat="42.7564808861528" lon="11.866787170746852"><ele>259.0</ele><time>2026-04-12T16:02:18.765Z</time></trkpt><trkpt lat="42.756421690978314" lon="11.866926535060601"><ele>259.0</ele><time>2026-04-12T16:02:19.765Z</time></trkpt><trkpt lat="42.75637525510216" lon="11.867069932384924"><ele>257.25</ele><time>2026-04-12T16:02:20.765Z</time></trkpt><trkpt lat="42.75633529244799" lon="11.867224711141532"><ele>255.5</ele><time>2026-04-12T16:02:21.765Z</time></trkpt><trkpt lat="42.756305376027896" lon="11.867395506639973"><ele>253.75</ele><time>2026-04-12T16:02:22.765Z</time></trkpt><trkpt lat="42.75628249845944" lon="11.867575403246297"><ele>252.0</ele><time>2026-04-12T16:02:23.765Z</time></trkpt><trkpt lat="42.7562708321594" lon="11.867751465752526"><ele>251.0</ele><time>2026-04-12T16:02:24.765Z</time></trkpt><trkpt lat="42.75626231264792" lon="11.867923218410896"><ele>250.0</ele><time>2026-04-12T16:02:25.765Z</time></trkpt><trkpt lat="42.75626621016913" lon="11.86808908400342"><ele>249.0</ele><time>2026-04-12T16:02:26.765Z</time></trkpt><trkpt lat="42.75629211329096" lon="11.868263349768954"><ele>248.0</ele><time>2026-04-12T16:02:27.765Z</time></trkpt><trkpt lat="42.75634260961783" lon="11.868429123678059"><ele>247.8</ele><time>2026-04-12T16:02:28.765Z</time></trkpt><trkpt lat="42.75640330319742" lon="11.868592021855585"><ele>247.60000000000002</ele><time>2026-04-12T16:02:29.765Z</time></trkpt><trkpt lat="42.75646657411202" lon="11.868740382621441"><ele>247.39999999999998</ele><time>2026-04-12T16:02:30.765Z</time></trkpt><trkpt lat="42.75650141111771" lon="11.868877529934636"><ele>247.2</ele><time>2026-04-12T16:02:31.765Z</time></trkpt><trkpt lat="42.75654070151194" lon="11.868976094348858"><ele>247.0</ele><time>2026-04-12T16:02:32.765Z</time></trkpt><trkpt lat="42.75654146110588" lon="11.86906824496552"><ele>247.0</ele><time>2026-04-12T16:02:33.765Z</time></trkpt><trkpt lat="42.75652191164955" lon="11.869211901840066"><ele>247.0</ele><time>2026-04-12T16:02:35.764Z</time></trkpt><trkpt lat="42.75646611440707" lon="11.869343230512778"><ele>247.0</ele><time>2026-04-12T16:02:37.764Z</time></trkpt><trkpt lat="42.75642543598359" lon="11.869426099560094"><ele>247.0</ele><time>2026-04-12T16:02:38.764Z</time></trkpt><trkpt lat="42.75637425018527" lon="11.869515776273301"><ele>247.0</ele><time>2026-04-12T16:02:39.764Z</time></trkpt><trkpt lat="42.75631190414859" lon="11.869611615379178"><ele>246.75</ele><time>2026-04-12T16:02:40.764Z</time></trkpt><trkpt lat="42.7562356789889" lon="11.86972511276491"><ele>246.5</ele><time>2026-04-12T16:02:41.764Z</time></trkpt><trkpt lat="42.75615582597847" lon="11.869845231248386"><ele>246.25</ele><time>2026-04-12T16:02:42.764Z</time></trkpt><trkpt lat="42.756081187975326" lon="11.869986412439877"><ele>246.0</ele><time>2026-04-12T16:02:43.764Z</time></trkpt><trkpt lat="42.75597880013101" lon="11.87013256057312"><ele>248.66666666666669</ele><time>2026-04-12T16:02:44.764Z</time></trkpt><trkpt lat="42.75586510440937" lon="11.870307253762691"><ele>251.33333333333334</ele><time>2026-04-12T16:02:45.764Z</time></trkpt><trkpt lat="42.75574783115583" lon="11.870482895172731"><ele>254.0</ele><time>2026-04-12T16:02:46.764Z</time></trkpt><trkpt lat="42.75563383225276" lon="11.870654346570085"><ele>254.0</ele><time>2026-04-12T16:02:47.764Z</time></trkpt><trkpt lat="42.75552133911194" lon="11.87081869755049"><ele>254.0</ele><time>2026-04-12T16:02:48.766Z</time></trkpt><trkpt lat="42.75542354519467" lon="11.870970621718055"><ele>254.0</ele><time>2026-04-12T16:02:49.766Z</time></trkpt><trkpt lat="42.75534151413278" lon="11.871103747086645"><ele>254.0</ele><time>2026-04-12T16:02:50.766Z</time></trkpt><trkpt lat="42.75526646392622" lon="11.871220383700168"><ele>256.4</ele><time>2026-04-12T16:02:51.766Z</time></trkpt><trkpt lat="42.755194330239085" lon="11.87131012646637"><ele>258.79999999999995</ele><time>2026-04-12T16:02:52.766Z</time></trkpt><trkpt lat="42.75511474357422" lon="11.87134633092076"><ele>261.20000000000005</ele><time>2026-04-12T16:02:53.766Z</time></trkpt><trkpt lat="42.755028771063984" lon="11.871367563208016"><ele>263.6</ele><time>2026-04-12T16:02:54.766Z</time></trkpt><trkpt lat="42.754934500369636" lon="11.871408539838017"><ele>266.0</ele><time>2026-04-12T16:02:55.766Z</time></trkpt><trkpt lat="42.75483235199252" lon="11.871482983836948"><ele>266.0</ele><time>2026-04-12T16:02:56.766Z</time></trkpt><trkpt lat="42.75474029291874" lon="11.871603898205255"><ele>266.0</ele><time>2026-04-12T16:02:57.766Z</time></trkpt><trkpt lat="42.75464113268514" lon="11.87173287762653"><ele>266.0</ele><time>2026-04-12T16:02:58.766Z</time></trkpt><trkpt lat="42.75453615202626" lon="11.871849668874248"><ele>266.0</ele><time>2026-04-12T16:02:59.766Z</time></trkpt><trkpt lat="42.754432601724865" lon="11.871988706427718"><ele>271.0</ele><time>2026-04-12T16:03:00.766Z</time></trkpt><trkpt lat="42.75432205076376" lon="11.87213435153165"><ele>276.0</ele><time>2026-04-12T16:03:01.766Z</time></trkpt><trkpt lat="42.754217107133904" lon="11.872301813586597"><ele>281.0</ele><time>2026-04-12T16:03:02.766Z</time></trkpt><trkpt lat="42.75409586234898" lon="11.872423607071243"><ele>281.0</ele><time>2026-04-12T16:03:03.766Z</time></trkpt><trkpt lat="42.75398513284759" lon="11.872553216727747"><ele>281.0</ele><time>2026-04-12T16:03:04.765Z</time></trkpt><trkpt lat="42.75387932708334" lon="11.872662769260897"><ele>281.0</ele><time>2026-04-12T16:03:05.765Z</time></trkpt><trkpt lat="42.753765410122085" lon="11.872797247709407"><ele>281.0</ele><time>2026-04-12T16:03:06.765Z</time></trkpt><trkpt lat="42.75363060619284" lon="11.872897890184696"><ele>284.0</ele><time>2026-04-12T16:03:07.765Z</time></trkpt><trkpt lat="42.75349717961439" lon="11.87299278897633"><ele>287.0</ele><time>2026-04-12T16:03:08.765Z</time></trkpt><trkpt lat="42.75336080622092" lon="11.873084145923785"><ele>290.0</ele><time>2026-04-12T16:03:09.765Z</time></trkpt><trkpt lat="42.75322887083129" lon="11.873175700547856"><ele>290.0</ele><time>2026-04-12T16:03:10.765Z</time></trkpt><trkpt lat="42.75311198866314" lon="11.87327038142821"><ele>290.0</ele><time>2026-04-12T16:03:11.765Z</time></trkpt><trkpt lat="42.753011841489794" lon="11.87334130658349"><ele>290.0</ele><time>2026-04-12T16:03:12.765Z</time></trkpt><trkpt lat="42.75292409410702" lon="11.87339844558607"><ele>290.0</ele><time>2026-04-12T16:03:13.765Z</time></trkpt><trkpt lat="42.75282586008731" lon="11.87343769612945"><ele>290.0</ele><time>2026-04-12T16:03:14.765Z</time></trkpt><trkpt lat="42.75272266438556" lon="11.873430267246494"><ele>294.0</ele><time>2026-04-12T16:03:15.765Z</time></trkpt><trkpt lat="42.75263057796418" lon="11.873418743302741"><ele>298.0</ele><time>2026-04-12T16:03:16.765Z</time></trkpt><trkpt lat="42.75255132356885" lon="11.87338244819755"><ele>302.0</ele><time>2026-04-12T16:03:17.765Z</time></trkpt><trkpt lat="42.75250310041573" lon="11.873300267026053"><ele>306.0</ele><time>2026-04-12T16:03:18.765Z</time></trkpt><trkpt lat="42.752431388554086" lon="11.8731960829621"><ele>310.0</ele><time>2026-04-12T16:03:19.765Z</time></trkpt><trkpt lat="42.75237400989084" lon="11.87306097508968"><ele>310.0</ele><time>2026-04-12T16:03:20.765Z</time></trkpt><trkpt lat="42.752303789613855" lon="11.872921914869526"><ele>310.0</ele><time>2026-04-12T16:03:21.765Z</time></trkpt><trkpt lat="42.75222181851008" lon="11.872798061446748"><ele>310.0</ele><time>2026-04-12T16:03:22.765Z</time></trkpt><trkpt lat="42.75213352212238" lon="11.87270645316524"><ele>310.0</ele><time>2026-04-12T16:03:23.765Z</time></trkpt><trkpt lat="42.7520418085776" lon="11.872636522335695"><ele>309.8</ele><time>2026-04-12T16:03:24.765Z</time></trkpt><trkpt lat="42.75193327017362" lon="11.872604035584958"><ele>309.6</ele><time>2026-04-12T16:03:25.765Z</time></trkpt><trkpt lat="42.7518343823739" lon="11.872584711971381"><ele>309.4</ele><time>2026-04-12T16:03:26.765Z</time></trkpt><trkpt lat="42.75172855478014" lon="11.872574198321558"><ele>309.2</ele><time>2026-04-12T16:03:27.765Z</time></trkpt><trkpt lat="42.75164013505812" lon="11.872509241858555"><ele>309.0</ele><time>2026-04-12T16:03:28.765Z</time></trkpt><trkpt lat="42.751568579051956" lon="11.872453964326478"><ele>312.3333333333333</ele><time>2026-04-12T16:03:29.765Z</time></trkpt><trkpt lat="42.75150201616682" lon="11.872413571934011"><ele>315.6666666666667</ele><time>2026-04-12T16:03:30.765Z</time></trkpt><trkpt lat="42.75145865286868" lon="11.872347334536581"><ele>319.0</ele><time>2026-04-12T16:03:31.764Z</time></trkpt><trkpt lat="42.75141195636621" lon="11.872189021990202"><ele>322.33333333333337</ele><time>2026-04-12T16:03:33.764Z</time></trkpt><trkpt lat="42.751382954904805" lon="11.87209730560673"><ele>325.6666666666667</ele><time>2026-04-12T16:03:34.764Z</time></trkpt><trkpt lat="42.751351968979314" lon="11.872010209545588"><ele>329.0</ele><time>2026-04-12T16:03:35.764Z</time></trkpt><trkpt lat="42.7512965968738" lon="11.871905235940813"><ele>329.0</ele><time>2026-04-12T16:03:36.764Z</time></trkpt><trkpt lat="42.75120816571359" lon="11.871782022182849"><ele>329.0</ele><time>2026-04-12T16:03:37.764Z</time></trkpt><trkpt lat="42.75110175055636" lon="11.87165603440515"><ele>329.0</ele><time>2026-04-12T16:03:38.764Z</time></trkpt><trkpt lat="42.750983098127314" lon="11.871570390006008"><ele>329.0</ele><time>2026-04-12T16:03:39.764Z</time></trkpt><trkpt lat="42.75086895815904" lon="11.871494039169638"><ele>330.2</ele><time>2026-04-12T16:03:40.764Z</time></trkpt><trkpt lat="42.750768049314445" lon="11.871439188892753"><ele>331.4</ele><time>2026-04-12T16:03:41.764Z</time></trkpt><trkpt lat="42.750677240802794" lon="11.871413515696224"><ele>332.6</ele><time>2026-04-12T16:03:42.764Z</time></trkpt><trkpt lat="42.750573645721346" lon="11.871428342965041"><ele>333.8</ele><time>2026-04-12T16:03:43.764Z</time></trkpt><trkpt lat="42.750465270659866" lon="11.871446563559974"><ele>335.0</ele><time>2026-04-12T16:03:44.764Z</time></trkpt><trkpt lat="42.7503547497277" lon="11.871460924288929"><ele>335.0</ele><time>2026-04-12T16:03:45.764Z</time></trkpt><trkpt lat="42.75024642120256" lon="11.871460014398911"><ele>335.0</ele><time>2026-04-12T16:03:46.764Z</time></trkpt><trkpt lat="42.750141321165266" lon="11.871433519880572"><ele>335.0</ele><time>2026-04-12T16:03:47.764Z</time></trkpt><trkpt lat="42.75003979244194" lon="11.871390653691595"><ele>335.0</ele><time>2026-04-12T16:03:48.764Z</time></trkpt><trkpt lat="42.74997300564085" lon="11.871324994722062"><ele>335.0</ele><time>2026-04-12T16:03:49.764Z</time></trkpt><trkpt lat="42.749934363687565" lon="11.871235653874272"><ele>335.6</ele><time>2026-04-12T16:03:50.764Z</time></trkpt><trkpt lat="42.74992552872939" lon="11.87112838141332"><ele>336.2</ele><time>2026-04-12T16:03:51.764Z</time></trkpt><trkpt lat="42.749903632368124" lon="11.870985871935247"><ele>336.79999999999995</ele><time>2026-04-12T16:03:52.764Z</time></trkpt><trkpt lat="42.74987754913847" lon="11.870850578440328"><ele>337.4</ele><time>2026-04-12T16:03:53.764Z</time></trkpt><trkpt lat="42.74983940632679" lon="11.870731687391242"><ele>338.0</ele><time>2026-04-12T16:03:54.764Z</time></trkpt><trkpt lat="42.74975613551256" lon="11.870647000385432"><ele>338.0</ele><time>2026-04-12T16:03:55.764Z</time></trkpt><trkpt lat="42.74966647143659" lon="11.870572836913507"><ele>338.0</ele><time>2026-04-12T16:03:56.764Z</time></trkpt><trkpt lat="42.7495682852319" lon="11.870521898564494"><ele>338.0</ele><time>2026-04-12T16:03:57.763Z</time></trkpt><trkpt lat="42.749454213481734" lon="11.870442706578451"><ele>338.0</ele><time>2026-04-12T16:03:58.763Z</time></trkpt><trkpt lat="42.74934797415303" lon="11.870380185010852"><ele>340.59999999999997</ele><time>2026-04-12T16:03:59.763Z</time></trkpt><trkpt lat="42.74924885145912" lon="11.87032196322963"><ele>343.2</ele><time>2026-04-12T16:04:00.763Z</time></trkpt><trkpt lat="42.74915718283854" lon="11.87026924551525"><ele>345.8</ele><time>2026-04-12T16:04:01.763Z</time></trkpt><trkpt lat="42.749067700387734" lon="11.870242026439099"><ele>348.4</ele><time>2026-04-12T16:04:02.763Z</time></trkpt><trkpt lat="42.74897814424516" lon="11.870263030067205"><ele>351.0</ele><time>2026-04-12T16:04:03.763Z</time></trkpt><trkpt lat="42.74890578620927" lon="11.870322117456986"><ele>351.0</ele><time>2026-04-12T16:04:04.763Z</time></trkpt><trkpt lat="42.74883316592717" lon="11.870394716060023"><ele>351.0</ele><time>2026-04-12T16:04:05.763Z</time></trkpt><trkpt lat="42.74876031445556" lon="11.870519294670839"><ele>351.0</ele><time>2026-04-12T16:04:06.763Z</time></trkpt><trkpt lat="42.748697846854085" lon="11.8706186439241"><ele>351.0</ele><time>2026-04-12T16:04:07.763Z</time></trkpt><trkpt lat="42.748641457850546" lon="11.870678741825213"><ele>351.0</ele><time>2026-04-12T16:04:08.763Z</time></trkpt><trkpt lat="42.74856084870131" lon="11.870630371591025"><ele>354.0</ele><time>2026-04-12T16:04:10.813Z</time></trkpt><trkpt lat="42.748504439931416" lon="11.870513943737311"><ele>357.0</ele><time>2026-04-12T16:04:12.813Z</time></trkpt><trkpt lat="42.74846915154006" lon="11.870407173866022"><ele>360.0</ele><time>2026-04-12T16:04:13.813Z</time></trkpt><trkpt lat="42.748426870862836" lon="11.87027184566733"><ele>363.0</ele><time>2026-04-12T16:04:14.814Z</time></trkpt><trkpt lat="42.74836759432191" lon="11.870122444692297"><ele>366.0</ele><time>2026-04-12T16:04:15.814Z</time></trkpt><trkpt lat="42.74834615024509" lon="11.869947290815933"><ele>366.0</ele><time>2026-04-12T16:04:16.814Z</time></trkpt><trkpt lat="42.74831566867661" lon="11.869762828713753"><ele>366.0</ele><time>2026-04-12T16:04:17.814Z</time></trkpt><trkpt lat="42.748292894826605" lon="11.869555702859964"><ele>366.0</ele><time>2026-04-12T16:04:18.814Z</time></trkpt><trkpt lat="42.748272687584354" lon="11.86937151553136"><ele>366.0</ele><time>2026-04-12T16:04:19.815Z</time></trkpt><trkpt lat="42.74825388900316" lon="11.86920510039831"><ele>365.20000000000005</ele><time>2026-04-12T16:04:20.815Z</time></trkpt><trkpt lat="42.74822665646271" lon="11.869054085900478"><ele>364.40000000000003</ele><time>2026-04-12T16:04:21.815Z</time></trkpt><trkpt lat="42.74818525516291" lon="11.868925894023823"><ele>363.6</ele><time>2026-04-12T16:04:22.815Z</time></trkpt><trkpt lat="42.748124851265075" lon="11.86879387149235"><ele>362.8</ele><time>2026-04-12T16:04:23.815Z</time></trkpt><trkpt lat="42.74806663270203" lon="11.868681483606494"><ele>362.0</ele><time>2026-04-12T16:04:24.815Z</time></trkpt><trkpt lat="42.74798835401806" lon="11.868585035912314"><ele>362.0</ele><time>2026-04-12T16:04:25.815Z</time></trkpt><trkpt lat="42.74794255565464" lon="11.868501859148804"><ele>362.0</ele><time>2026-04-12T16:04:26.815Z</time></trkpt><trkpt lat="42.74784181064883" lon="11.868448042738587"><ele>362.0</ele><time>2026-04-12T16:04:28.816Z</time></trkpt><trkpt lat="42.74776852044632" lon="11.868462448381626"><ele>362.0</ele><time>2026-04-12T16:04:29.816Z</time></trkpt><trkpt lat="42.747680471847765" lon="11.868521065316466"><ele>362.0</ele><time>2026-04-12T16:04:30.816Z</time></trkpt><trkpt lat="42.74758922723301" lon="11.868589815074339"><ele>365.8</ele><time>2026-04-12T16:04:31.816Z</time></trkpt><trkpt lat="42.74749264715861" lon="11.868660402586789"><ele>369.6</ele><time>2026-04-12T16:04:32.816Z</time></trkpt><trkpt lat="42.74737746171804" lon="11.868719587948071"><ele>373.40000000000003</ele><time>2026-04-12T16:04:33.816Z</time></trkpt><trkpt lat="42.74727033601679" lon="11.868764944609362"><ele>377.20000000000005</ele><time>2026-04-12T16:04:34.816Z</time></trkpt><trkpt lat="42.74717751922875" lon="11.86882163074494"><ele>381.0</ele><time>2026-04-12T16:04:35.816Z</time></trkpt><trkpt lat="42.74708829720802" lon="11.868871751806754"><ele>381.0</ele><time>2026-04-12T16:04:36.816Z</time></trkpt><trkpt lat="42.746999018885376" lon="11.868940098233226"><ele>381.0</ele><time>2026-04-12T16:04:37.816Z</time></trkpt><trkpt lat="42.74691494337555" lon="11.869019871695922"><ele>381.0</ele><time>2026-04-12T16:04:38.816Z</time></trkpt><trkpt lat="42.74682255445712" lon="11.869066157629655"><ele>381.0</ele><time>2026-04-12T16:04:39.816Z</time></trkpt><trkpt lat="42.74672945247865" lon="11.869114770594054"><ele>381.0</ele><time>2026-04-12T16:04:40.816Z</time></trkpt><trkpt lat="42.746635113289905" lon="11.869172324634189"><ele>379.5</ele><time>2026-04-12T16:04:41.816Z</time></trkpt><trkpt lat="42.746529994644774" lon="11.869243350296033"><ele>378.0</ele><time>2026-04-12T16:04:42.816Z</time></trkpt><trkpt lat="42.74643734592245" lon="11.869332107201767"><ele>376.5</ele><time>2026-04-12T16:04:43.816Z</time></trkpt><trkpt lat="42.74634373463131" lon="11.869421179541433"><ele>375.0</ele><time>2026-04-12T16:04:44.816Z</time></trkpt><trkpt lat="42.74625693313868" lon="11.869518969661206"><ele>376.2</ele><time>2026-04-12T16:04:45.816Z</time></trkpt><trkpt lat="42.74616933047087" lon="11.869610839759519"><ele>377.4</ele><time>2026-04-12T16:04:46.816Z</time></trkpt><trkpt lat="42.746071635215834" lon="11.86969921111684"><ele>378.6</ele><time>2026-04-12T16:04:47.816Z</time></trkpt><trkpt lat="42.74597261272902" lon="11.869748844364599"><ele>379.8</ele><time>2026-04-12T16:04:48.816Z</time></trkpt><trkpt lat="42.74588032488134" lon="11.869784348216369"><ele>381.0</ele><time>2026-04-12T16:04:49.816Z</time></trkpt><trkpt lat="42.745763410029156" lon="11.869863868208725"><ele>381.0</ele><time>2026-04-12T16:04:50.816Z</time></trkpt><trkpt lat="42.745629545511704" lon="11.869915672731588"><ele>381.0</ele><time>2026-04-12T16:04:51.816Z</time></trkpt><trkpt lat="42.74549566327134" lon="11.86998536328558"><ele>381.0</ele><time>2026-04-12T16:04:52.816Z</time></trkpt><trkpt lat="42.74535946094356" lon="11.8700685760225"><ele>381.0</ele><time>2026-04-12T16:04:53.816Z</time></trkpt><trkpt lat="42.74521747763549" lon="11.870158898657051"><ele>382.25</ele><time>2026-04-12T16:04:54.819Z</time></trkpt><trkpt lat="42.74505864802273" lon="11.870219307197752"><ele>383.5</ele><time>2026-04-12T16:04:55.818Z</time></trkpt><trkpt lat="42.744927026681275" lon="11.87030192427052"><ele>384.75</ele><time>2026-04-12T16:04:56.818Z</time></trkpt><trkpt lat="42.74481069240279" lon="11.87036912381733"><ele>386.0</ele><time>2026-04-12T16:04:57.819Z</time></trkpt><trkpt lat="42.744702036791374" lon="11.87042877819727"><ele>386.0</ele><time>2026-04-12T16:04:58.818Z</time></trkpt><trkpt lat="42.744594409335384" lon="11.870489454384042"><ele>386.0</ele><time>2026-04-12T16:04:59.818Z</time></trkpt><trkpt lat="42.744478318911185" lon="11.8705641103025"><ele>386.0</ele><time>2026-04-12T16:05:00.819Z</time></trkpt><trkpt lat="42.74435058927105" lon="11.870640503649073"><ele>386.0</ele><time>2026-04-12T16:05:01.819Z</time></trkpt><trkpt lat="42.74422473855987" lon="11.870704860564555"><ele>386.0</ele><time>2026-04-12T16:05:02.819Z</time></trkpt><trkpt lat="42.74409155753195" lon="11.870763929980109"><ele>386.0</ele><time>2026-04-12T16:05:03.819Z</time></trkpt><trkpt lat="42.74395798972824" lon="11.870814848068822"><ele>386.0</ele><time>2026-04-12T16:05:04.819Z</time></trkpt><trkpt lat="42.74381887497033" lon="11.870863634293269"><ele>386.0</ele><time>2026-04-12T16:05:05.819Z</time></trkpt><trkpt lat="42.74369371714531" lon="11.87091244892103"><ele>386.20000000000005</ele><time>2026-04-12T16:05:06.819Z</time></trkpt><trkpt lat="42.74357871858436" lon="11.870967146868834"><ele>386.40000000000003</ele><time>2026-04-12T16:05:07.819Z</time></trkpt><trkpt lat="42.74346890581255" lon="11.871022802493867"><ele>386.6</ele><time>2026-04-12T16:05:08.819Z</time></trkpt><trkpt lat="42.743376701208376" lon="11.871078132531338"><ele>386.8</ele><time>2026-04-12T16:05:09.819Z</time></trkpt><trkpt lat="42.74329514949172" lon="11.871134249139395"><ele>387.0</ele><time>2026-04-12T16:05:10.819Z</time></trkpt><trkpt lat="42.74323130278909" lon="11.871204796278162"><ele>387.0</ele><time>2026-04-12T16:05:11.819Z</time></trkpt><trkpt lat="42.74318305722328" lon="11.87128554033539"><ele>387.0</ele><time>2026-04-12T16:05:12.819Z</time></trkpt><trkpt lat="42.74314687914966" lon="11.871364999397066"><ele>387.0</ele><time>2026-04-12T16:05:13.819Z</time></trkpt><trkpt lat="42.74310788012251" lon="11.871439058306677"><ele>387.0</ele><time>2026-04-12T16:05:14.819Z</time></trkpt><trkpt lat="42.74304374431985" lon="11.871550127845344"><ele>387.0</ele><time>2026-04-12T16:05:16.819Z</time></trkpt><trkpt lat="42.74298665004948" lon="11.871660047499192"><ele>387.0</ele><time>2026-04-12T16:05:18.819Z</time></trkpt><trkpt lat="42.74292440564915" lon="11.87176407318662"><ele>387.5</ele><time>2026-04-12T16:05:20.819Z</time></trkpt><trkpt lat="42.7428625986179" lon="11.871873562569107"><ele>388.0</ele><time>2026-04-12T16:05:22.819Z</time></trkpt><trkpt lat="42.74279882165583" lon="11.871935158747664"><ele>388.5</ele><time>2026-04-12T16:05:24.819Z</time></trkpt><trkpt lat="42.74270762388776" lon="11.871967644722355"><ele>389.0</ele><time>2026-04-12T16:05:26.819Z</time></trkpt><trkpt lat="42.74263880846618" lon="11.871963211322258"><ele>389.5</ele><time>2026-04-12T16:05:27.819Z</time></trkpt><trkpt lat="42.74256477289806" lon="11.87196176393599"><ele>390.0</ele><time>2026-04-12T16:05:28.819Z</time></trkpt><trkpt lat="42.74248936620139" lon="11.871961496598503"><ele>390.0</ele><time>2026-04-12T16:05:29.819Z</time></trkpt><trkpt lat="42.74242209554107" lon="11.871976723387483"><ele>390.0</ele><time>2026-04-12T16:05:30.819Z</time></trkpt><trkpt lat="42.74233179998013" lon="11.871981399665053"><ele>390.0</ele><time>2026-04-12T16:05:32.819Z</time></trkpt><trkpt lat="42.74224124897673" lon="11.871946585625336"><ele>390.0</ele><time>2026-04-12T16:05:34.819Z</time></trkpt><trkpt lat="42.74217748219263" lon="11.8719314357829"><ele>390.0</ele><time>2026-04-12T16:05:37.818Z</time></trkpt><trkpt lat="42.74210956828141" lon="11.87194590309092"><ele>390.0</ele><time>2026-04-12T16:05:41.818Z</time></trkpt><trkpt lat="42.74208220144397" lon="11.872110202339949"><ele>390.0</ele><time>2026-04-12T16:05:42.818Z</time></trkpt><trkpt lat="42.74205849837232" lon="11.872248881414256"><ele>390.0</ele><time>2026-04-12T16:05:43.818Z</time></trkpt><trkpt lat="42.7420296293382" lon="11.87241246430553"><ele>390.0</ele><time>2026-04-12T16:05:44.818Z</time></trkpt><trkpt lat="42.74199738840581" lon="11.872591145716488"><ele>390.0</ele><time>2026-04-12T16:05:45.818Z</time></trkpt><trkpt lat="42.74196190901489" lon="11.872776729365423"><ele>389.66666666666663</ele><time>2026-04-12T16:05:46.818Z</time></trkpt><trkpt lat="42.741928249488105" lon="11.872971618546998"><ele>389.3333333333333</ele><time>2026-04-12T16:05:47.818Z</time></trkpt><trkpt lat="42.741890257865826" lon="11.873171729958026"><ele>389.0</ele><time>2026-04-12T16:05:48.818Z</time></trkpt><trkpt lat="42.74184516037533" lon="11.873370846378508"><ele>390.3333333333333</ele><time>2026-04-12T16:05:49.818Z</time></trkpt><trkpt lat="42.74181306518895" lon="11.873576523625664"><ele>391.66666666666663</ele><time>2026-04-12T16:05:50.818Z</time></trkpt><trkpt lat="42.74178170904714" lon="11.87379028693965"><ele>393.0</ele><time>2026-04-12T16:05:51.818Z</time></trkpt><trkpt lat="42.74174787186971" lon="11.874002417479133"><ele>393.0</ele><time>2026-04-12T16:05:52.818Z</time></trkpt><trkpt lat="42.741712732145835" lon="11.87421431226994"><ele>393.0</ele><time>2026-04-12T16:05:53.818Z</time></trkpt><trkpt lat="42.74167866360093" lon="11.874422105183228"><ele>393.0</ele><time>2026-04-12T16:05:54.818Z</time></trkpt><trkpt lat="42.741642534303196" lon="11.874627960655781"><ele>396.0</ele><time>2026-04-12T16:05:55.818Z</time></trkpt><trkpt lat="42.74160682815" lon="11.87482552098322"><ele>399.0</ele><time>2026-04-12T16:05:56.818Z</time></trkpt><trkpt lat="42.74157937046961" lon="11.875031318673992"><ele>402.0</ele><time>2026-04-12T16:05:57.818Z</time></trkpt><trkpt lat="42.741555444323005" lon="11.875243790183488"><ele>402.5</ele><time>2026-04-12T16:05:58.818Z</time></trkpt><trkpt lat="42.74152455875334" lon="11.875442650882707"><ele>403.0</ele><time>2026-04-12T16:05:59.818Z</time></trkpt><trkpt lat="42.741491430111004" lon="11.875628964433368"><ele>403.5</ele><time>2026-04-12T16:06:00.818Z</time></trkpt><trkpt lat="42.74146033802517" lon="11.875816461393253"><ele>404.0</ele><time>2026-04-12T16:06:01.818Z</time></trkpt><trkpt lat="42.741426833494685" lon="11.87600280738938"><ele>404.0</ele><time>2026-04-12T16:06:02.818Z</time></trkpt><trkpt lat="42.74140508325451" lon="11.876177411946063"><ele>404.0</ele><time>2026-04-12T16:06:03.818Z</time></trkpt><trkpt lat="42.741393622890776" lon="11.876347395917323"><ele>404.0</ele><time>2026-04-12T16:06:04.818Z</time></trkpt><trkpt lat="42.74137069073829" lon="11.876519217514797"><ele>404.0</ele><time>2026-04-12T16:06:05.818Z</time></trkpt><trkpt lat="42.74133782439367" lon="11.876694620363931"><ele>404.75</ele><time>2026-04-12T16:06:06.818Z</time></trkpt><trkpt lat="42.74131065352425" lon="11.87686661381033"><ele>405.5</ele><time>2026-04-12T16:06:07.818Z</time></trkpt><trkpt lat="42.741293834330875" lon="11.877034775714662"><ele>406.25</ele><time>2026-04-12T16:06:08.818Z</time></trkpt><trkpt lat="42.741271488250874" lon="11.877200054637706"><ele>407.0</ele><time>2026-04-12T16:06:09.818Z</time></trkpt><trkpt lat="42.74124036507305" lon="11.877365496149235"><ele>407.0</ele><time>2026-04-12T16:06:10.818Z</time></trkpt><trkpt lat="42.74120874495083" lon="11.877520723210687"><ele>407.0</ele><time>2026-04-12T16:06:11.817Z</time></trkpt><trkpt lat="42.741187917367895" lon="11.877670620395053"><ele>407.0</ele><time>2026-04-12T16:06:12.817Z</time></trkpt><trkpt lat="42.741165371317486" lon="11.877816407389245"><ele>407.0</ele><time>2026-04-12T16:06:13.817Z</time></trkpt><trkpt lat="42.741145681115164" lon="11.877951562910097"><ele>407.0</ele><time>2026-04-12T16:06:14.817Z</time></trkpt><trkpt lat="42.74112668634793" lon="11.878074824653888"><ele>407.40000000000003</ele><time>2026-04-12T16:06:15.817Z</time></trkpt><trkpt lat="42.741098912850006" lon="11.878192882931698"><ele>407.8</ele><time>2026-04-12T16:06:16.817Z</time></trkpt><trkpt lat="42.74107339910331" lon="11.878317468778231"><ele>408.2</ele><time>2026-04-12T16:06:17.817Z</time></trkpt><trkpt lat="42.74104564135961" lon="11.878453772450367"><ele>408.6</ele><time>2026-04-12T16:06:18.817Z</time></trkpt><trkpt lat="42.74101580705777" lon="11.878595179720937"><ele>409.0</ele><time>2026-04-12T16:06:19.817Z</time></trkpt><trkpt lat="42.740980149411484" lon="11.878746551600733"><ele>408.75</ele><time>2026-04-12T16:06:20.817Z</time></trkpt><trkpt lat="42.74093940043608" lon="11.878905792310851"><ele>408.5</ele><time>2026-04-12T16:06:21.817Z</time></trkpt><trkpt lat="42.74089224555299" lon="11.879069230818432"><ele>408.25</ele><time>2026-04-12T16:06:22.817Z</time></trkpt><trkpt lat="42.740828368791895" lon="11.879227525930064"><ele>408.0</ele><time>2026-04-12T16:06:23.817Z</time></trkpt><trkpt lat="42.74075759530227" lon="11.879382371382162"><ele>408.0</ele><time>2026-04-12T16:06:24.817Z</time></trkpt><trkpt lat="42.740679955936805" lon="11.879545449825077"><ele>408.0</ele><time>2026-04-12T16:06:25.817Z</time></trkpt><trkpt lat="42.74060123506227" lon="11.879718816467705"><ele>408.0</ele><time>2026-04-12T16:06:26.817Z</time></trkpt><trkpt lat="42.740520624442134" lon="11.879899871143728"><ele>408.0</ele><time>2026-04-12T16:06:27.817Z</time></trkpt><trkpt lat="42.7404388697439" lon="11.880071346661426"><ele>408.0</ele><time>2026-04-12T16:06:28.817Z</time></trkpt><trkpt lat="42.740357423601615" lon="11.880235349964885"><ele>408.0</ele><time>2026-04-12T16:06:29.817Z</time></trkpt><trkpt lat="42.74026709878712" lon="11.880414466661907"><ele>408.0</ele><time>2026-04-12T16:06:30.817Z</time></trkpt><trkpt lat="42.74018186640437" lon="11.880601683167784"><ele>408.33333333333337</ele><time>2026-04-12T16:06:31.817Z</time></trkpt><trkpt lat="42.74009795975983" lon="11.88080156129727"><ele>408.6666666666667</ele><time>2026-04-12T16:06:32.817Z</time></trkpt><trkpt lat="42.7400041877832" lon="11.881000126373651"><ele>409.0</ele><time>2026-04-12T16:06:33.817Z</time></trkpt><trkpt lat="42.73991244243246" lon="11.881197206495692"><ele>409.33333333333337</ele><time>2026-04-12T16:06:34.817Z</time></trkpt><trkpt lat="42.739812532416884" lon="11.881396706735334"><ele>409.66666666666663</ele><time>2026-04-12T16:06:35.817Z</time></trkpt><trkpt lat="42.73972628432657" lon="11.881585400310449"><ele>410.0</ele><time>2026-04-12T16:06:36.817Z</time></trkpt><trkpt lat="42.739631507815695" lon="11.881764330616303"><ele>411.25</ele><time>2026-04-12T16:06:37.817Z</time></trkpt><trkpt lat="42.739542383489265" lon="11.881922720829467"><ele>412.5</ele><time>2026-04-12T16:06:38.817Z</time></trkpt><trkpt lat="42.73945784828026" lon="11.882069063353425"><ele>413.75</ele><time>2026-04-12T16:06:39.817Z</time></trkpt><trkpt lat="42.739360270499354" lon="11.882207774212036"><ele>415.0</ele><time>2026-04-12T16:06:40.817Z</time></trkpt><trkpt lat="42.73926595287248" lon="11.882343886811896"><ele>415.25</ele><time>2026-04-12T16:06:41.817Z</time></trkpt><trkpt lat="42.73916655828075" lon="11.882474596842789"><ele>415.5</ele><time>2026-04-12T16:06:42.817Z</time></trkpt><trkpt lat="42.73906105252086" lon="11.88260613862027"><ele>415.75</ele><time>2026-04-12T16:06:43.817Z</time></trkpt><trkpt lat="42.73894990083373" lon="11.882741385999854"><ele>416.0</ele><time>2026-04-12T16:06:44.817Z</time></trkpt><trkpt lat="42.738829385199416" lon="11.882888369806272"><ele>418.3333333333333</ele><time>2026-04-12T16:06:45.817Z</time></trkpt><trkpt lat="42.738700161162896" lon="11.883041262941449"><ele>420.66666666666663</ele><time>2026-04-12T16:06:46.816Z</time></trkpt><trkpt lat="42.738560415835224" lon="11.883195937670585"><ele>423.0</ele><time>2026-04-12T16:06:47.816Z</time></trkpt><trkpt lat="42.73841163265203" lon="11.883345318784986"><ele>423.66666666666663</ele><time>2026-04-12T16:06:48.816Z</time></trkpt><trkpt lat="42.73826441862744" lon="11.883482849236184"><ele>424.3333333333333</ele><time>2026-04-12T16:06:49.816Z</time></trkpt><trkpt lat="42.738106176779574" lon="11.883595342107723"><ele>425.0</ele><time>2026-04-12T16:06:50.816Z</time></trkpt><trkpt lat="42.73793591444775" lon="11.883668253794447"><ele>425.0</ele><time>2026-04-12T16:06:51.816Z</time></trkpt><trkpt lat="42.737765725870446" lon="11.883706940576063"><ele>425.0</ele><time>2026-04-12T16:06:52.816Z</time></trkpt><trkpt lat="42.73758429215845" lon="11.883680397604898"><ele>425.0</ele><time>2026-04-12T16:06:53.816Z</time></trkpt><trkpt lat="42.73738655240265" lon="11.883711967502126"><ele>425.0</ele><time>2026-04-12T16:06:54.816Z</time></trkpt><trkpt lat="42.737190872887524" lon="11.883694427005963"><ele>425.0</ele><time>2026-04-12T16:06:55.816Z</time></trkpt><trkpt lat="42.73699192103409" lon="11.883676027739785"><ele>425.0</ele><time>2026-04-12T16:06:56.816Z</time></trkpt><trkpt lat="42.736783638674055" lon="11.883655673290198"><ele>426.66666666666663</ele><time>2026-04-12T16:06:57.816Z</time></trkpt><trkpt lat="42.73657107537921" lon="11.883633032578143"><ele>428.33333333333337</ele><time>2026-04-12T16:06:58.816Z</time></trkpt><trkpt lat="42.73636012080028" lon="11.883614673673593"><ele>430.0</ele><time>2026-04-12T16:06:59.818Z</time></trkpt><trkpt lat="42.73616621719821" lon="11.883606360759359"><ele>431.0</ele><time>2026-04-12T16:07:00.818Z</time></trkpt><trkpt lat="42.73598249626627" lon="11.883603733360436"><ele>432.0</ele><time>2026-04-12T16:07:01.818Z</time></trkpt><trkpt lat="42.73580163413695" lon="11.883611975132418"><ele>433.0</ele><time>2026-04-12T16:07:02.818Z</time></trkpt><trkpt lat="42.73563204338268" lon="11.88363037903541"><ele>433.0</ele><time>2026-04-12T16:07:03.818Z</time></trkpt><trkpt lat="42.735460080415486" lon="11.883657844743865"><ele>433.0</ele><time>2026-04-12T16:07:04.818Z</time></trkpt><trkpt lat="42.735283281323284" lon="11.883706530808356"><ele>433.0</ele><time>2026-04-12T16:07:05.818Z</time></trkpt><trkpt lat="42.73511506420271" lon="11.88376560936634"><ele>432.6666666666667</ele><time>2026-04-12T16:07:06.818Z</time></trkpt><trkpt lat="42.73494943910797" lon="11.883824045685174"><ele>432.33333333333337</ele><time>2026-04-12T16:07:07.818Z</time></trkpt><trkpt lat="42.73478509317962" lon="11.883881525475008"><ele>432.0</ele><time>2026-04-12T16:07:08.818Z</time></trkpt><trkpt lat="42.73461838055461" lon="11.883937107818365"><ele>432.0</ele><time>2026-04-12T16:07:09.818Z</time></trkpt><trkpt lat="42.73444686667283" lon="11.883986532044982"><ele>432.0</ele><time>2026-04-12T16:07:10.818Z</time></trkpt><trkpt lat="42.73427322273157" lon="11.884032952965539"><ele>432.0</ele><time>2026-04-12T16:07:11.818Z</time></trkpt><trkpt lat="42.73410415100075" lon="11.88406232478483"><ele>432.0</ele><time>2026-04-12T16:07:12.818Z</time></trkpt><trkpt lat="42.73393626883913" lon="11.884087071897612"><ele>432.0</ele><time>2026-04-12T16:07:13.818Z</time></trkpt><trkpt lat="42.733769304605154" lon="11.884106852815728"><ele>432.0</ele><time>2026-04-12T16:07:14.818Z</time></trkpt><trkpt lat="42.73360237693931" lon="11.884120567680293"><ele>432.66666666666663</ele><time>2026-04-12T16:07:15.818Z</time></trkpt><trkpt lat="42.73342996714346" lon="11.884135147147425"><ele>433.3333333333333</ele><time>2026-04-12T16:07:16.818Z</time></trkpt><trkpt lat="42.73326002775876" lon="11.884152919044702"><ele>434.0</ele><time>2026-04-12T16:07:17.818Z</time></trkpt><trkpt lat="42.733088826044565" lon="11.884169888454101"><ele>434.0</ele><time>2026-04-12T16:07:18.818Z</time></trkpt><trkpt lat="42.73292197925373" lon="11.88418997380584"><ele>434.0</ele><time>2026-04-12T16:07:19.818Z</time></trkpt><trkpt lat="42.73275012014377" lon="11.884217398487932"><ele>434.0</ele><time>2026-04-12T16:07:20.818Z</time></trkpt><trkpt lat="42.73257543219425" lon="11.884250701706963"><ele>432.66666666666663</ele><time>2026-04-12T16:07:21.818Z</time></trkpt><trkpt lat="42.732397154002676" lon="11.88428634559294"><ele>431.33333333333337</ele><time>2026-04-12T16:07:22.818Z</time></trkpt><trkpt lat="42.73222941334238" lon="11.884321122014482"><ele>430.0</ele><time>2026-04-12T16:07:23.818Z</time></trkpt><trkpt lat="42.7320610361519" lon="11.884333841155001"><ele>430.33333333333337</ele><time>2026-04-12T16:07:24.818Z</time></trkpt><trkpt lat="42.731888973200654" lon="11.884337841645982"><ele>430.66666666666663</ele><time>2026-04-12T16:07:25.818Z</time></trkpt><trkpt lat="42.7317085252608" lon="11.884338746918718"><ele>431.0</ele><time>2026-04-12T16:07:26.818Z</time></trkpt><trkpt lat="42.7315270182091" lon="11.884349994303225"><ele>431.0</ele><time>2026-04-12T16:07:27.818Z</time></trkpt><trkpt lat="42.73134017263307" lon="11.884371452991116"><ele>431.0</ele><time>2026-04-12T16:07:28.818Z</time></trkpt><trkpt lat="42.73115416277075" lon="11.884407240464615"><ele>431.0</ele><time>2026-04-12T16:07:29.817Z</time></trkpt><trkpt lat="42.730971819677755" lon="11.884459491862435"><ele>431.66666666666663</ele><time>2026-04-12T16:07:30.817Z</time></trkpt><trkpt lat="42.73078827341644" lon="11.884517784517508"><ele>432.33333333333337</ele><time>2026-04-12T16:07:31.817Z</time></trkpt><trkpt lat="42.73060489300125" lon="11.884573848033646"><ele>433.0</ele><time>2026-04-12T16:07:32.817Z</time></trkpt><trkpt lat="42.73041978583909" lon="11.884620840151108"><ele>433.0</ele><time>2026-04-12T16:07:33.817Z</time></trkpt><trkpt lat="42.73023328864057" lon="11.88465119234482"><ele>433.0</ele><time>2026-04-12T16:07:34.817Z</time></trkpt><trkpt lat="42.7300464922264" lon="11.88467661482203"><ele>433.0</ele><time>2026-04-12T16:07:35.817Z</time></trkpt><trkpt lat="42.72985780625232" lon="11.884706468579338"><ele>433.6666666666667</ele><time>2026-04-12T16:07:36.817Z</time></trkpt><trkpt lat="42.72966511712755" lon="11.88473467419681"><ele>434.33333333333337</ele><time>2026-04-12T16:07:37.817Z</time></trkpt><trkpt lat="42.7294792829635" lon="11.884814302595803"><ele>435.0</ele><time>2026-04-12T16:07:38.817Z</time></trkpt><trkpt lat="42.729308807002205" lon="11.884942794404521"><ele>435.0</ele><time>2026-04-12T16:07:39.817Z</time></trkpt><trkpt lat="42.72913539281838" lon="11.885074289003676"><ele>435.0</ele><time>2026-04-12T16:07:40.817Z</time></trkpt><trkpt lat="42.72896872354602" lon="11.8852306895465"><ele>435.0</ele><time>2026-04-12T16:07:41.817Z</time></trkpt><trkpt lat="42.72881779757614" lon="11.885410209882735"><ele>435.0</ele><time>2026-04-12T16:07:42.817Z</time></trkpt><trkpt lat="42.728659535536785" lon="11.885582384622849"><ele>435.0</ele><time>2026-04-12T16:07:43.817Z</time></trkpt><trkpt lat="42.72850774746479" lon="11.885767903422868"><ele>435.0</ele><time>2026-04-12T16:07:44.817Z</time></trkpt><trkpt lat="42.72835238481429" lon="11.885955489549668"><ele>434.66666666666663</ele><time>2026-04-12T16:07:45.817Z</time></trkpt><trkpt lat="42.72819439636375" lon="11.88614397156816"><ele>434.3333333333333</ele><time>2026-04-12T16:07:46.817Z</time></trkpt><trkpt lat="42.72803625519976" lon="11.886333710744045"><ele>434.0</ele><time>2026-04-12T16:07:47.817Z</time></trkpt><trkpt lat="42.72787444227981" lon="11.886530750991511"><ele>434.5</ele><time>2026-04-12T16:07:48.817Z</time></trkpt><trkpt lat="42.72771175220846" lon="11.88675463156651"><ele>435.0</ele><time>2026-04-12T16:07:49.817Z</time></trkpt><trkpt lat="42.72753669221224" lon="11.886957115261238"><ele>435.66666666666663</ele><time>2026-04-12T16:07:50.817Z</time></trkpt><trkpt lat="42.727349872928514" lon="11.887129960319248"><ele>436.3333333333333</ele><time>2026-04-12T16:07:51.817Z</time></trkpt><trkpt lat="42.72717472520025" lon="11.887314155239348"><ele>437.0</ele><time>2026-04-12T16:07:52.817Z</time></trkpt><trkpt lat="42.72700965890058" lon="11.88750034558399"><ele>438.3333333333333</ele><time>2026-04-12T16:07:53.817Z</time></trkpt><trkpt lat="42.726868748486304" lon="11.887691263589984"><ele>439.66666666666663</ele><time>2026-04-12T16:07:54.817Z</time></trkpt><trkpt lat="42.72672316278383" lon="11.887867152927042"><ele>441.0</ele><time>2026-04-12T16:07:55.817Z</time></trkpt><trkpt lat="42.72658022500989" lon="11.888046753278447"><ele>441.0</ele><time>2026-04-12T16:07:56.817Z</time></trkpt><trkpt lat="42.72644461301866" lon="11.888225098948174"><ele>441.0</ele><time>2026-04-12T16:07:57.817Z</time></trkpt><trkpt lat="42.72632859198942" lon="11.888393728476599"><ele>441.0</ele><time>2026-04-12T16:07:58.817Z</time></trkpt><trkpt lat="42.726223723768086" lon="11.888562967059901"><ele>441.0</ele><time>2026-04-12T16:07:59.817Z</time></trkpt><trkpt lat="42.72611048717131" lon="11.888737134400085"><ele>441.0</ele><time>2026-04-12T16:08:00.817Z</time></trkpt><trkpt lat="42.725993818177756" lon="11.888917195365394"><ele>441.0</ele><time>2026-04-12T16:08:01.817Z</time></trkpt><trkpt lat="42.72587696233902" lon="11.889096221809584"><ele>441.33333333333337</ele><time>2026-04-12T16:08:02.817Z</time></trkpt><trkpt lat="42.72575404794006" lon="11.889271451739702"><ele>441.6666666666667</ele><time>2026-04-12T16:08:03.817Z</time></trkpt><trkpt lat="42.725641025018675" lon="11.889443473678204"><ele>442.0</ele><time>2026-04-12T16:08:04.816Z</time></trkpt><trkpt lat="42.72552121423858" lon="11.889611053262504"><ele>442.0</ele><time>2026-04-12T16:08:05.816Z</time></trkpt><trkpt lat="42.72538856873675" lon="11.88978062774233"><ele>442.0</ele><time>2026-04-12T16:08:06.816Z</time></trkpt><trkpt lat="42.7252485993046" lon="11.889945570198138"><ele>442.0</ele><time>2026-04-12T16:08:07.816Z</time></trkpt><trkpt lat="42.72510203780125" lon="11.890102447868953"><ele>442.0</ele><time>2026-04-12T16:08:08.816Z</time></trkpt><trkpt lat="42.72495830042374" lon="11.890254738798857"><ele>442.0</ele><time>2026-04-12T16:08:09.816Z</time></trkpt><trkpt lat="42.72480671249981" lon="11.89040007553918"><ele>442.0</ele><time>2026-04-12T16:08:10.816Z</time></trkpt><trkpt lat="42.72464608684212" lon="11.890541465893042"><ele>442.0</ele><time>2026-04-12T16:08:11.816Z</time></trkpt><trkpt lat="42.72447756454598" lon="11.890677503189007"><ele>442.0</ele><time>2026-04-12T16:08:12.816Z</time></trkpt><trkpt lat="42.72430010851655" lon="11.890807034029281"><ele>442.0</ele><time>2026-04-12T16:08:13.816Z</time></trkpt><trkpt lat="42.724111872612006" lon="11.89090726210881"><ele>442.0</ele><time>2026-04-12T16:08:14.816Z</time></trkpt><trkpt lat="42.723937200540846" lon="11.891034246041215"><ele>442.0</ele><time>2026-04-12T16:08:15.816Z</time></trkpt><trkpt lat="42.72374997927982" lon="11.89114296277584"><ele>442.0</ele><time>2026-04-12T16:08:16.816Z</time></trkpt><trkpt lat="42.7235605968032" lon="11.891252775388581"><ele>441.6666666666667</ele><time>2026-04-12T16:08:17.816Z</time></trkpt><trkpt lat="42.723367433227516" lon="11.891358081418748"><ele>441.33333333333337</ele><time>2026-04-12T16:08:18.816Z</time></trkpt><trkpt lat="42.72317741654078" lon="11.891457901696942"><ele>441.0</ele><time>2026-04-12T16:08:19.816Z</time></trkpt><trkpt lat="42.72299528737465" lon="11.891553521972067"><ele>441.0</ele><time>2026-04-12T16:08:20.816Z</time></trkpt><trkpt lat="42.7228168528555" lon="11.891640941650913"><ele>441.0</ele><time>2026-04-12T16:08:21.816Z</time></trkpt><trkpt lat="42.72264188205841" lon="11.891729307882038"><ele>441.0</ele><time>2026-04-12T16:08:22.816Z</time></trkpt><trkpt lat="42.72246898443453" lon="11.891817560109535"><ele>442.33333333333337</ele><time>2026-04-12T16:08:23.816Z</time></trkpt><trkpt lat="42.72230170060574" lon="11.891904351575164"><ele>443.6666666666667</ele><time>2026-04-12T16:08:24.816Z</time></trkpt><trkpt lat="42.72213745251211" lon="11.891990249331933"><ele>445.0</ele><time>2026-04-12T16:08:25.816Z</time></trkpt><trkpt lat="42.72197478677541" lon="11.892076731046819"><ele>445.0</ele><time>2026-04-12T16:08:26.816Z</time></trkpt><trkpt lat="42.721812722723236" lon="11.892161326546036"><ele>445.0</ele><time>2026-04-12T16:08:27.816Z</time></trkpt><trkpt lat="42.72165084695664" lon="11.892246543794304"><ele>445.0</ele><time>2026-04-12T16:08:28.816Z</time></trkpt><trkpt lat="42.72149247167416" lon="11.892332841627026"><ele>445.0</ele><time>2026-04-12T16:08:29.816Z</time></trkpt><trkpt lat="42.72133670492702" lon="11.892417930067323"><ele>445.0</ele><time>2026-04-12T16:08:30.816Z</time></trkpt><trkpt lat="42.72117308479337" lon="11.892499909592619"><ele>445.0</ele><time>2026-04-12T16:08:31.816Z</time></trkpt><trkpt lat="42.721009396631985" lon="11.892584496610226"><ele>446.33333333333337</ele><time>2026-04-12T16:08:32.816Z</time></trkpt><trkpt lat="42.720846760646374" lon="11.892666293160403"><ele>447.66666666666663</ele><time>2026-04-12T16:08:33.816Z</time></trkpt><trkpt lat="42.72069187444032" lon="11.892752132439165"><ele>449.0</ele><time>2026-04-12T16:08:34.816Z</time></trkpt><trkpt lat="42.72053681178455" lon="11.892841804992523"><ele>449.0</ele><time>2026-04-12T16:08:35.816Z</time></trkpt><trkpt lat="42.720384774656985" lon="11.892941119191391"><ele>449.0</ele><time>2026-04-12T16:08:36.816Z</time></trkpt><trkpt lat="42.72023402315875" lon="11.893049731451008"><ele>449.0</ele><time>2026-04-12T16:08:37.816Z</time></trkpt><trkpt lat="42.7200833149908" lon="11.893162699978603"><ele>447.66666666666663</ele><time>2026-04-12T16:08:38.816Z</time></trkpt><trkpt lat="42.71992809926811" lon="11.893275966640024"><ele>446.33333333333337</ele><time>2026-04-12T16:08:39.816Z</time></trkpt><trkpt lat="42.71977339980881" lon="11.893382204670374"><ele>445.0</ele><time>2026-04-12T16:08:40.815Z</time></trkpt><trkpt lat="42.71962313136446" lon="11.893496634956273"><ele>445.0</ele><time>2026-04-12T16:08:41.815Z</time></trkpt><trkpt lat="42.71947320530784" lon="11.893611444021781"><ele>445.0</ele><time>2026-04-12T16:08:42.815Z</time></trkpt><trkpt lat="42.71932220492665" lon="11.893722713024307"><ele>445.0</ele><time>2026-04-12T16:08:43.815Z</time></trkpt><trkpt lat="42.719167771552385" lon="11.893836202928828"><ele>444.6666666666667</ele><time>2026-04-12T16:08:44.815Z</time></trkpt><trkpt lat="42.71900691472709" lon="11.893944129730418"><ele>444.33333333333337</ele><time>2026-04-12T16:08:45.815Z</time></trkpt><trkpt lat="42.71884669813813" lon="11.894039697953012"><ele>444.0</ele><time>2026-04-12T16:08:46.815Z</time></trkpt><trkpt lat="42.71868457115929" lon="11.894117844681924"><ele>444.0</ele><time>2026-04-12T16:08:47.815Z</time></trkpt><trkpt lat="42.71850902595545" lon="11.894183115638388"><ele>444.0</ele><time>2026-04-12T16:08:48.815Z</time></trkpt><trkpt lat="42.71833662338829" lon="11.89424519344697"><ele>444.0</ele><time>2026-04-12T16:08:49.815Z</time></trkpt><trkpt lat="42.71818630518583" lon="11.894309232931992"><ele>444.25</ele><time>2026-04-12T16:08:50.815Z</time></trkpt><trkpt lat="42.71806044320345" lon="11.894374426816157"><ele>444.5</ele><time>2026-04-12T16:08:51.815Z</time></trkpt><trkpt lat="42.71792952308257" lon="11.894431703043683"><ele>444.75</ele><time>2026-04-12T16:08:52.815Z</time></trkpt><trkpt lat="42.7177857806716" lon="11.894486480902241"><ele>445.0</ele><time>2026-04-12T16:08:53.815Z</time></trkpt><trkpt lat="42.71763298855497" lon="11.894547232851547"><ele>445.0</ele><time>2026-04-12T16:08:54.815Z</time></trkpt><trkpt lat="42.71747722571062" lon="11.894611091398005"><ele>445.0</ele><time>2026-04-12T16:08:55.815Z</time></trkpt><trkpt lat="42.71731479479547" lon="11.8946727771444"><ele>445.0</ele><time>2026-04-12T16:08:56.815Z</time></trkpt><trkpt lat="42.717145325310014" lon="11.894741396973764"><ele>445.0</ele><time>2026-04-12T16:08:57.815Z</time></trkpt><trkpt lat="42.71697358301873" lon="11.894811678115243"><ele>445.0</ele><time>2026-04-12T16:08:58.815Z</time></trkpt><trkpt lat="42.71679725211396" lon="11.894883620831775"><ele>445.0</ele><time>2026-04-12T16:08:59.815Z</time></trkpt><trkpt lat="42.71661989289391" lon="11.894954927486554"><ele>445.0</ele><time>2026-04-12T16:09:00.815Z</time></trkpt><trkpt lat="42.716443061645045" lon="11.895027539440306"><ele>445.0</ele><time>2026-04-12T16:09:01.815Z</time></trkpt><trkpt lat="42.716260059281055" lon="11.895104367559277"><ele>445.0</ele><time>2026-04-12T16:09:02.815Z</time></trkpt><trkpt lat="42.716075621830385" lon="11.89518338265948"><ele>445.33333333333337</ele><time>2026-04-12T16:09:03.815Z</time></trkpt><trkpt lat="42.71588796614219" lon="11.89525777248568"><ele>445.66666666666663</ele><time>2026-04-12T16:09:04.815Z</time></trkpt><trkpt lat="42.71570199863899" lon="11.895339213797616"><ele>446.0</ele><time>2026-04-12T16:09:05.818Z</time></trkpt><trkpt lat="42.71551290714473" lon="11.895426061991943"><ele>446.0</ele><time>2026-04-12T16:09:06.817Z</time></trkpt><trkpt lat="42.715321880698056" lon="11.895513757576957"><ele>446.0</ele><time>2026-04-12T16:09:07.817Z</time></trkpt><trkpt lat="42.71513319623836" lon="11.895608635881644"><ele>446.0</ele><time>2026-04-12T16:09:08.817Z</time></trkpt><trkpt lat="42.71494757001654" lon="11.895712162347506"><ele>446.0</ele><time>2026-04-12T16:09:09.817Z</time></trkpt><trkpt lat="42.71476781232686" lon="11.895817773588782"><ele>446.0</ele><time>2026-04-12T16:09:10.817Z</time></trkpt><trkpt lat="42.71459572547556" lon="11.895917452718251"><ele>446.0</ele><time>2026-04-12T16:09:11.818Z</time></trkpt><trkpt lat="42.714420734835436" lon="11.896017356429006"><ele>446.66666666666663</ele><time>2026-04-12T16:09:12.817Z</time></trkpt><trkpt lat="42.71424448908967" lon="11.896120479817624"><ele>447.33333333333337</ele><time>2026-04-12T16:09:13.817Z</time></trkpt><trkpt lat="42.71406641036926" lon="11.896223712973562"><ele>448.0</ele><time>2026-04-12T16:09:14.817Z</time></trkpt><trkpt lat="42.713886686025" lon="11.896332343507215"><ele>448.0</ele><time>2026-04-12T16:09:15.817Z</time></trkpt><trkpt lat="42.71370336734535" lon="11.896435569097273"><ele>448.0</ele><time>2026-04-12T16:09:16.817Z</time></trkpt><trkpt lat="42.71351479376985" lon="11.896542873943845"><ele>448.0</ele><time>2026-04-12T16:09:17.817Z</time></trkpt><trkpt lat="42.713325008944146" lon="11.896647985017427"><ele>447.6666666666667</ele><time>2026-04-12T16:09:18.817Z</time></trkpt><trkpt lat="42.71313881795972" lon="11.896749403469565"><ele>447.33333333333337</ele><time>2026-04-12T16:09:19.817Z</time></trkpt><trkpt lat="42.71294987653959" lon="11.896861507173995"><ele>447.0</ele><time>2026-04-12T16:09:20.817Z</time></trkpt><trkpt lat="42.712756528739796" lon="11.896957636478065"><ele>446.66666666666663</ele><time>2026-04-12T16:09:21.817Z</time></trkpt><trkpt lat="42.712563318328954" lon="11.897063438677511"><ele>446.3333333333333</ele><time>2026-04-12T16:09:22.817Z</time></trkpt><trkpt lat="42.71236875798653" lon="11.89716998171247"><ele>446.0</ele><time>2026-04-12T16:09:23.817Z</time></trkpt><trkpt lat="42.712177156509775" lon="11.897288484145832"><ele>446.0</ele><time>2026-04-12T16:09:24.817Z</time></trkpt><trkpt lat="42.71198650785831" lon="11.897373952186742"><ele>446.0</ele><time>2026-04-12T16:09:25.817Z</time></trkpt><trkpt lat="42.71181000331813" lon="11.897456757824969"><ele>446.0</ele><time>2026-04-12T16:09:26.817Z</time></trkpt><trkpt lat="42.71164959982315" lon="11.897490086771565"><ele>446.0</ele><time>2026-04-12T16:09:27.817Z</time></trkpt><trkpt lat="42.7115056990242" lon="11.89754634433037"><ele>446.0</ele><time>2026-04-12T16:09:28.817Z</time></trkpt><trkpt lat="42.71138289254555" lon="11.897609045699813"><ele>446.0</ele><time>2026-04-12T16:09:29.817Z</time></trkpt><trkpt lat="42.71099565142197" lon="11.897900828729169"><ele>445.66666666666663</ele><time>2026-04-12T16:09:30.817Z</time></trkpt><trkpt lat="42.7107980674325" lon="11.897995297812136"><ele>445.33333333333337</ele><time>2026-04-12T16:09:31.817Z</time></trkpt><trkpt lat="42.710601265660195" lon="11.898089678930216"><ele>445.0</ele><time>2026-04-12T16:09:32.817Z</time></trkpt><trkpt lat="42.7104026437612" lon="11.898175887312073"><ele>445.33333333333337</ele><time>2026-04-12T16:09:33.817Z</time></trkpt><trkpt lat="42.71020451496468" lon="11.89826634602054"><ele>445.66666666666663</ele><time>2026-04-12T16:09:34.817Z</time></trkpt><trkpt lat="42.71000990851978" lon="11.898361853501989"><ele>446.0</ele><time>2026-04-12T16:09:35.816Z</time></trkpt><trkpt lat="42.70981681432614" lon="11.89846314049118"><ele>446.0</ele><time>2026-04-12T16:09:36.816Z</time></trkpt><trkpt lat="42.70962699508164" lon="11.898573646730037"><ele>446.0</ele><time>2026-04-12T16:09:37.816Z</time></trkpt><trkpt lat="42.70943931462868" lon="11.898686009438435"><ele>446.0</ele><time>2026-04-12T16:09:38.816Z</time></trkpt><trkpt lat="42.709250550132666" lon="11.898797753853541"><ele>447.0</ele><time>2026-04-12T16:09:39.816Z</time></trkpt><trkpt lat="42.70906382706213" lon="11.898908526206217"><ele>448.0</ele><time>2026-04-12T16:09:40.816Z</time></trkpt><trkpt lat="42.708876508411954" lon="11.899015520006467"><ele>449.0</ele><time>2026-04-12T16:09:41.816Z</time></trkpt><trkpt lat="42.70869099975372" lon="11.899126120838295"><ele>449.0</ele><time>2026-04-12T16:09:42.816Z</time></trkpt><trkpt lat="42.708506147596324" lon="11.899231418214196"><ele>449.0</ele><time>2026-04-12T16:09:43.816Z</time></trkpt><trkpt lat="42.70832037258859" lon="11.899340061606809"><ele>449.0</ele><time>2026-04-12T16:09:44.816Z</time></trkpt><trkpt lat="42.70813626253272" lon="11.899446431236125"><ele>449.0</ele><time>2026-04-12T16:09:45.816Z</time></trkpt><trkpt lat="42.70795016520532" lon="11.899557644578605"><ele>449.0</ele><time>2026-04-12T16:09:46.816Z</time></trkpt><trkpt lat="42.707762587577406" lon="11.899659925530758"><ele>449.0</ele><time>2026-04-12T16:09:47.816Z</time></trkpt><trkpt lat="42.70756970511815" lon="11.899757899792812"><ele>449.0</ele><time>2026-04-12T16:09:48.816Z</time></trkpt><trkpt lat="42.70737701810839" lon="11.899853420478749"><ele>449.0</ele><time>2026-04-12T16:09:49.816Z</time></trkpt><trkpt lat="42.70717836453585" lon="11.899933852959526"><ele>449.0</ele><time>2026-04-12T16:09:50.816Z</time></trkpt><trkpt lat="42.70696932899667" lon="11.899978019404749"><ele>449.0</ele><time>2026-04-12T16:09:51.816Z</time></trkpt><trkpt lat="42.70675721753919" lon="11.9000322063252"><ele>449.0</ele><time>2026-04-12T16:09:52.816Z</time></trkpt><trkpt lat="42.706540129613494" lon="11.900105367261041"><ele>449.0</ele><time>2026-04-12T16:09:53.816Z</time></trkpt><trkpt lat="42.70631877793428" lon="11.900135235629936"><ele>449.0</ele><time>2026-04-12T16:09:54.816Z</time></trkpt><trkpt lat="42.70610542177074" lon="11.900179534876573"><ele>449.0</ele><time>2026-04-12T16:09:55.816Z</time></trkpt><trkpt lat="42.705894118687254" lon="11.900225942681"><ele>449.0</ele><time>2026-04-12T16:09:56.816Z</time></trkpt><trkpt lat="42.70568376857028" lon="11.900272348911447"><ele>449.3333333333333</ele><time>2026-04-12T16:09:57.816Z</time></trkpt><trkpt lat="42.70547721930996" lon="11.90032120186182"><ele>449.66666666666663</ele><time>2026-04-12T16:09:58.816Z</time></trkpt><trkpt lat="42.70527395509607" lon="11.900361946750259"><ele>450.0</ele><time>2026-04-12T16:09:59.816Z</time></trkpt><trkpt lat="42.70506681780764" lon="11.900406340085295"><ele>450.33333333333337</ele><time>2026-04-12T16:10:00.816Z</time></trkpt><trkpt lat="42.704861274176494" lon="11.900465407729913"><ele>450.6666666666667</ele><time>2026-04-12T16:10:01.816Z</time></trkpt><trkpt lat="42.70464898013856" lon="11.900506562718448"><ele>451.0</ele><time>2026-04-12T16:10:02.816Z</time></trkpt><trkpt lat="42.70444925267812" lon="11.900586269382304"><ele>452.0</ele><time>2026-04-12T16:10:03.816Z</time></trkpt><trkpt lat="42.7042551255564" lon="11.900676035501588"><ele>453.0</ele><time>2026-04-12T16:10:04.816Z</time></trkpt><trkpt lat="42.70406054364787" lon="11.900764405800054"><ele>454.0</ele><time>2026-04-12T16:10:05.816Z</time></trkpt><trkpt lat="42.70386488606648" lon="11.900849768116732"><ele>454.0</ele><time>2026-04-12T16:10:06.816Z</time></trkpt><trkpt lat="42.703668634707114" lon="11.90091469206262"><ele>454.0</ele><time>2026-04-12T16:10:07.816Z</time></trkpt><trkpt lat="42.70347180397663" lon="11.90096579580385"><ele>454.0</ele><time>2026-04-12T16:10:08.816Z</time></trkpt><trkpt lat="42.70327314330421" lon="11.901008282749427"><ele>454.33333333333337</ele><time>2026-04-12T16:10:09.816Z</time></trkpt><trkpt lat="42.70307301194274" lon="11.901027434694294"><ele>454.66666666666663</ele><time>2026-04-12T16:10:10.815Z</time></trkpt><trkpt lat="42.70287113862789" lon="11.901033676565012"><ele>455.0</ele><time>2026-04-12T16:10:11.815Z</time></trkpt><trkpt lat="42.702670461140606" lon="11.901025179469086"><ele>455.0</ele><time>2026-04-12T16:10:12.815Z</time></trkpt><trkpt lat="42.70246747462551" lon="11.901018556880137"><ele>455.0</ele><time>2026-04-12T16:10:13.815Z</time></trkpt><trkpt lat="42.70226231482808" lon="11.901020478543005"><ele>455.0</ele><time>2026-04-12T16:10:14.815Z</time></trkpt><trkpt lat="42.70205096835597" lon="11.901020513618576"><ele>455.3333333333333</ele><time>2026-04-12T16:10:15.815Z</time></trkpt><trkpt lat="42.70184003426992" lon="11.90101528458848"><ele>455.66666666666663</ele><time>2026-04-12T16:10:16.815Z</time></trkpt><trkpt lat="42.701629428031424" lon="11.901017696364576"><ele>456.0</ele><time>2026-04-12T16:10:17.815Z</time></trkpt><trkpt lat="42.70142437470932" lon="11.901035076081003"><ele>456.0</ele><time>2026-04-12T16:10:18.815Z</time></trkpt><trkpt lat="42.70121973393696" lon="11.901070621530216"><ele>456.0</ele><time>2026-04-12T16:10:19.815Z</time></trkpt><trkpt lat="42.701014701580036" lon="11.90111034905491"><ele>456.0</ele><time>2026-04-12T16:10:20.815Z</time></trkpt><trkpt lat="42.70081502122969" lon="11.90115543893494"><ele>456.0</ele><time>2026-04-12T16:10:21.815Z</time></trkpt><trkpt lat="42.70061876081837" lon="11.90120644773954"><ele>456.0</ele><time>2026-04-12T16:10:22.815Z</time></trkpt><trkpt lat="42.700424162255686" lon="11.90125646140554"><ele>456.0</ele><time>2026-04-12T16:10:23.815Z</time></trkpt><trkpt lat="42.70023434651733" lon="11.901323123081514"><ele>456.33333333333337</ele><time>2026-04-12T16:10:24.815Z</time></trkpt><trkpt lat="42.70004193289258" lon="11.901384046990882"><ele>456.6666666666667</ele><time>2026-04-12T16:10:25.815Z</time></trkpt><trkpt lat="42.69985259398603" lon="11.901451540091264"><ele>457.0</ele><time>2026-04-12T16:10:26.815Z</time></trkpt><trkpt lat="42.69966533511634" lon="11.901524061608194"><ele>457.0</ele><time>2026-04-12T16:10:27.815Z</time></trkpt><trkpt lat="42.69947966570725" lon="11.901593349561528"><ele>457.0</ele><time>2026-04-12T16:10:28.815Z</time></trkpt><trkpt lat="42.69929238246501" lon="11.901657671432744"><ele>457.0</ele><time>2026-04-12T16:10:29.815Z</time></trkpt><trkpt lat="42.69910450557772" lon="11.901700076391098"><ele>457.6666666666667</ele><time>2026-04-12T16:10:30.815Z</time></trkpt><trkpt lat="42.69891349928867" lon="11.901725255567507"><ele>458.33333333333337</ele><time>2026-04-12T16:10:31.815Z</time></trkpt><trkpt lat="42.698720709768935" lon="11.901745054540783"><ele>459.0</ele><time>2026-04-12T16:10:32.815Z</time></trkpt><trkpt lat="42.69853073443308" lon="11.901788697489513"><ele>460.66666666666663</ele><time>2026-04-12T16:10:33.815Z</time></trkpt><trkpt lat="42.69833309016706" lon="11.901823104658257"><ele>462.3333333333333</ele><time>2026-04-12T16:10:34.815Z</time></trkpt><trkpt lat="42.69814025522885" lon="11.90187657953373"><ele>464.0</ele><time>2026-04-12T16:10:35.815Z</time></trkpt><trkpt lat="42.69795668840104" lon="11.90195788753271"><ele>464.0</ele><time>2026-04-12T16:10:36.815Z</time></trkpt><trkpt lat="42.6977697210006" lon="11.902028564839982"><ele>464.0</ele><time>2026-04-12T16:10:37.815Z</time></trkpt><trkpt lat="42.69758410590796" lon="11.902110453145744"><ele>464.0</ele><time>2026-04-12T16:10:38.815Z</time></trkpt><trkpt lat="42.69740355111578" lon="11.902201353128422"><ele>463.0</ele><time>2026-04-12T16:10:39.815Z</time></trkpt><trkpt lat="42.697223065761804" lon="11.9022847039957"><ele>462.0</ele><time>2026-04-12T16:10:40.815Z</time></trkpt><trkpt lat="42.697048816056984" lon="11.90236918073486"><ele>461.0</ele><time>2026-04-12T16:10:41.815Z</time></trkpt><trkpt lat="42.696878345907606" lon="11.902445452244612"><ele>461.0</ele><time>2026-04-12T16:10:42.815Z</time></trkpt><trkpt lat="42.696697701935136" lon="11.902507043926486"><ele>461.0</ele><time>2026-04-12T16:10:43.815Z</time></trkpt><trkpt lat="42.696506838028874" lon="11.902551644457459"><ele>461.0</ele><time>2026-04-12T16:10:44.815Z</time></trkpt><trkpt lat="42.696307724845965" lon="11.902566194211687"><ele>461.0</ele><time>2026-04-12T16:10:45.814Z</time></trkpt><trkpt lat="42.69610345769206" lon="11.90257003314296"><ele>461.0</ele><time>2026-04-12T16:10:46.814Z</time></trkpt><trkpt lat="42.695895257385175" lon="11.902575334499877"><ele>461.0</ele><time>2026-04-12T16:10:47.814Z</time></trkpt><trkpt lat="42.69568766875359" lon="11.902579945202065"><ele>462.0</ele><time>2026-04-12T16:10:48.814Z</time></trkpt><trkpt lat="42.69548050419099" lon="11.902583811682568"><ele>463.0</ele><time>2026-04-12T16:10:49.814Z</time></trkpt><trkpt lat="42.69528001100271" lon="11.902594377600069"><ele>464.0</ele><time>2026-04-12T16:10:50.814Z</time></trkpt><trkpt lat="42.69508443359373" lon="11.902608614377039"><ele>464.0</ele><time>2026-04-12T16:10:51.814Z</time></trkpt><trkpt lat="42.694893898256794" lon="11.902631406060653"><ele>464.0</ele><time>2026-04-12T16:10:52.814Z</time></trkpt><trkpt lat="42.69470583492478" lon="11.902668722715303"><ele>464.0</ele><time>2026-04-12T16:10:53.814Z</time></trkpt><trkpt lat="42.69451888387051" lon="11.902714654698961"><ele>464.66666666666663</ele><time>2026-04-12T16:10:54.814Z</time></trkpt><trkpt lat="42.69433601834052" lon="11.902757151037951"><ele>465.33333333333337</ele><time>2026-04-12T16:10:55.814Z</time></trkpt><trkpt lat="42.69415301660601" lon="11.90279770559804"><ele>466.0</ele><time>2026-04-12T16:10:56.814Z</time></trkpt><trkpt lat="42.693968985355156" lon="11.902836192444445"><ele>466.0</ele><time>2026-04-12T16:10:57.814Z</time></trkpt><trkpt lat="42.69378311058974" lon="11.902867577585438"><ele>466.0</ele><time>2026-04-12T16:10:58.814Z</time></trkpt><trkpt lat="42.69359536078965" lon="11.90290148526651"><ele>466.0</ele><time>2026-04-12T16:10:59.814Z</time></trkpt><trkpt lat="42.693410649093096" lon="11.902937203039551"><ele>466.33333333333337</ele><time>2026-04-12T16:11:00.814Z</time></trkpt><trkpt lat="42.693226998163446" lon="11.902977074257908"><ele>466.66666666666663</ele><time>2026-04-12T16:11:01.814Z</time></trkpt><trkpt lat="42.693037316494255" lon="11.903012219768383"><ele>467.0</ele><time>2026-04-12T16:11:02.814Z</time></trkpt><trkpt lat="42.69285542362593" lon="11.903047590181645"><ele>467.3333333333333</ele><time>2026-04-12T16:11:03.814Z</time></trkpt><trkpt lat="42.69267541252639" lon="11.903085758412772"><ele>467.66666666666663</ele><time>2026-04-12T16:11:04.814Z</time></trkpt><trkpt lat="42.69249826770889" lon="11.903118525996204"><ele>468.0</ele><time>2026-04-12T16:11:05.814Z</time></trkpt><trkpt lat="42.69231930512257" lon="11.903151947965254"><ele>468.0</ele><time>2026-04-12T16:11:06.814Z</time></trkpt><trkpt lat="42.69214462569634" lon="11.903179836119321"><ele>468.0</ele><time>2026-04-12T16:11:07.814Z</time></trkpt><trkpt lat="42.69196389137268" lon="11.903214032627426"><ele>468.0</ele><time>2026-04-12T16:11:08.814Z</time></trkpt><trkpt lat="42.69178736530844" lon="11.903248297250821"><ele>469.33333333333337</ele><time>2026-04-12T16:11:09.814Z</time></trkpt><trkpt lat="42.69160994595192" lon="11.903282238166316"><ele>470.6666666666667</ele><time>2026-04-12T16:11:10.814Z</time></trkpt><trkpt lat="42.691432888000264" lon="11.903318908511665"><ele>472.0</ele><time>2026-04-12T16:11:11.816Z</time></trkpt><trkpt lat="42.691260860926086" lon="11.903362002212903"><ele>471.6666666666667</ele><time>2026-04-12T16:11:12.816Z</time></trkpt><trkpt lat="42.6910907704057" lon="11.903418293223668"><ele>471.33333333333337</ele><time>2026-04-12T16:11:13.816Z</time></trkpt><trkpt lat="42.690927303312364" lon="11.903500817931914"><ele>471.0</ele><time>2026-04-12T16:11:14.816Z</time></trkpt><trkpt lat="42.69076824627662" lon="11.903598556182606"><ele>471.0</ele><time>2026-04-12T16:11:15.817Z</time></trkpt><trkpt lat="42.69060654722726" lon="11.903695219213997"><ele>471.0</ele><time>2026-04-12T16:11:16.817Z</time></trkpt><trkpt lat="42.69044630661257" lon="11.903783214585745"><ele>471.0</ele><time>2026-04-12T16:11:17.816Z</time></trkpt><trkpt lat="42.69028485925324" lon="11.903866790588076"><ele>473.0</ele><time>2026-04-12T16:11:18.816Z</time></trkpt><trkpt lat="42.69012293519992" lon="11.903949606361902"><ele>475.0</ele><time>2026-04-12T16:11:19.816Z</time></trkpt><trkpt lat="42.68996142265691" lon="11.904025486576671"><ele>477.0</ele><time>2026-04-12T16:11:20.816Z</time></trkpt><trkpt lat="42.68979543116842" lon="11.90409006848994"><ele>477.0</ele><time>2026-04-12T16:11:21.816Z</time></trkpt><trkpt lat="42.68963689646141" lon="11.904124652775039"><ele>477.0</ele><time>2026-04-12T16:11:22.816Z</time></trkpt><trkpt lat="42.68947537564129" lon="11.90412808648043"><ele>477.0</ele><time>2026-04-12T16:11:23.817Z</time></trkpt><trkpt lat="42.68932219973783" lon="11.904081955561201"><ele>478.0</ele><time>2026-04-12T16:11:24.817Z</time></trkpt><trkpt lat="42.68917810053285" lon="11.904063966085008"><ele>479.0</ele><time>2026-04-12T16:11:25.817Z</time></trkpt><trkpt lat="42.689045723151665" lon="11.904064598339803"><ele>480.0</ele><time>2026-04-12T16:11:26.817Z</time></trkpt><trkpt lat="42.68893540249499" lon="11.904099672212345"><ele>481.0</ele><time>2026-04-12T16:11:27.817Z</time></trkpt><trkpt lat="42.68881184167691" lon="11.904128662497113"><ele>481.0</ele><time>2026-04-12T16:11:28.817Z</time></trkpt><trkpt lat="42.688695467624505" lon="11.904211858909072"><ele>481.0</ele><time>2026-04-12T16:11:29.816Z</time></trkpt><trkpt lat="42.68858891687558" lon="11.904298845852876"><ele>481.0</ele><time>2026-04-12T16:11:30.816Z</time></trkpt><trkpt lat="42.68848054646292" lon="11.904386242329663"><ele>481.0</ele><time>2026-04-12T16:11:31.816Z</time></trkpt><trkpt lat="42.68837176434106" lon="11.90445964999597"><ele>482.20000000000005</ele><time>2026-04-12T16:11:32.816Z</time></trkpt><trkpt lat="42.68826550632488" lon="11.904527296242014"><ele>483.40000000000003</ele><time>2026-04-12T16:11:33.816Z</time></trkpt><trkpt lat="42.68816550707276" lon="11.904593673230968"><ele>484.6</ele><time>2026-04-12T16:11:34.816Z</time></trkpt><trkpt lat="42.68807224919436" lon="11.904662968353675"><ele>485.8</ele><time>2026-04-12T16:11:35.816Z</time></trkpt><trkpt lat="42.687982124023215" lon="11.904721517096672"><ele>487.0</ele><time>2026-04-12T16:11:36.816Z</time></trkpt><trkpt lat="42.68789884308275" lon="11.904776290225909"><ele>487.0</ele><time>2026-04-12T16:11:37.816Z</time></trkpt><trkpt lat="42.68780711947307" lon="11.90484941556772"><ele>487.0</ele><time>2026-04-12T16:11:38.816Z</time></trkpt><trkpt lat="42.68769254839155" lon="11.904939053578365"><ele>487.0</ele><time>2026-04-12T16:11:39.816Z</time></trkpt><trkpt lat="42.68756598751381" lon="11.905030260993078"><ele>487.0</ele><time>2026-04-12T16:11:40.816Z</time></trkpt><trkpt lat="42.687435060176654" lon="11.905132220965712"><ele>488.0</ele><time>2026-04-12T16:11:41.816Z</time></trkpt><trkpt lat="42.68730643983973" lon="11.905228039415366"><ele>489.0</ele><time>2026-04-12T16:11:42.816Z</time></trkpt><trkpt lat="42.6871859836193" lon="11.905305857098964"><ele>490.0</ele><time>2026-04-12T16:11:43.816Z</time></trkpt><trkpt lat="42.68707649374283" lon="11.905374203935676"><ele>491.0</ele><time>2026-04-12T16:11:44.816Z</time></trkpt><trkpt lat="42.68696935609313" lon="11.905450368296615"><ele>491.6</ele><time>2026-04-12T16:11:45.816Z</time></trkpt><trkpt lat="42.68686174650121" lon="11.90553230778037"><ele>492.20000000000005</ele><time>2026-04-12T16:11:46.816Z</time></trkpt><trkpt lat="42.68678508708398" lon="11.905583141543417"><ele>492.79999999999995</ele><time>2026-04-12T16:11:47.816Z</time></trkpt><trkpt lat="42.68667809730966" lon="11.905652337548453"><ele>493.4</ele><time>2026-04-12T16:11:49.816Z</time></trkpt><trkpt lat="42.68660335495695" lon="11.90570584927431"><ele>494.0</ele><time>2026-04-12T16:11:50.816Z</time></trkpt><trkpt lat="42.686516989103566" lon="11.905767753369116"><ele>494.0</ele><time>2026-04-12T16:11:51.816Z</time></trkpt><trkpt lat="42.686444626306404" lon="11.90583011314551"><ele>494.0</ele><time>2026-04-12T16:11:52.816Z</time></trkpt><trkpt lat="42.68638035499826" lon="11.905871749782039"><ele>494.0</ele><time>2026-04-12T16:11:53.816Z</time></trkpt><trkpt lat="42.68629925387898" lon="11.905929330415974"><ele>494.0</ele><time>2026-04-12T16:11:55.816Z</time></trkpt><trkpt lat="42.686172487341665" lon="11.90602426915025"><ele>494.0</ele><time>2026-04-12T16:11:57.816Z</time></trkpt><trkpt lat="42.686085828567336" lon="11.906086139762833"><ele>494.2</ele><time>2026-04-12T16:11:58.816Z</time></trkpt><trkpt lat="42.68599566845784" lon="11.906149606797587"><ele>494.4</ele><time>2026-04-12T16:11:59.816Z</time></trkpt><trkpt lat="42.68590164659058" lon="11.906217399647769"><ele>494.6</ele><time>2026-04-12T16:12:00.816Z</time></trkpt><trkpt lat="42.68579749919706" lon="11.906277985835567"><ele>494.8</ele><time>2026-04-12T16:12:01.816Z</time></trkpt><trkpt lat="42.68568977293457" lon="11.906341501660327"><ele>495.0</ele><time>2026-04-12T16:12:02.816Z</time></trkpt><trkpt lat="42.6855912131553" lon="11.90640732218332"><ele>495.0</ele><time>2026-04-12T16:12:03.816Z</time></trkpt><trkpt lat="42.685504592984195" lon="11.906474794877028"><ele>495.0</ele><time>2026-04-12T16:12:04.815Z</time></trkpt><trkpt lat="42.685415788878814" lon="11.906536960796133"><ele>495.0</ele><time>2026-04-12T16:12:05.815Z</time></trkpt><trkpt lat="42.68532907418116" lon="11.906598136564781"><ele>495.0</ele><time>2026-04-12T16:12:06.815Z</time></trkpt><trkpt lat="42.68524320115019" lon="11.906666389919495"><ele>495.0</ele><time>2026-04-12T16:12:07.815Z</time></trkpt><trkpt lat="42.685147919418405" lon="11.906727971190598"><ele>494.8</ele><time>2026-04-12T16:12:08.815Z</time></trkpt><trkpt lat="42.68504370749756" lon="11.906781268534582"><ele>494.6</ele><time>2026-04-12T16:12:09.815Z</time></trkpt><trkpt lat="42.68494594354792" lon="11.906810686507379"><ele>494.4</ele><time>2026-04-12T16:12:10.815Z</time></trkpt><trkpt lat="42.68487387528748" lon="11.906874466306595"><ele>494.2</ele><time>2026-04-12T16:12:11.815Z</time></trkpt><trkpt lat="42.68479162664522" lon="11.906951480127901"><ele>494.0</ele><time>2026-04-12T16:12:12.815Z</time></trkpt><trkpt lat="42.68469725383713" lon="11.907029627760554"><ele>494.0</ele><time>2026-04-12T16:12:13.815Z</time></trkpt><trkpt lat="42.68460238495494" lon="11.907107343215905"><ele>494.0</ele><time>2026-04-12T16:12:14.815Z</time></trkpt><trkpt lat="42.68450632813859" lon="11.907187949776413"><ele>494.0</ele><time>2026-04-12T16:12:15.815Z</time></trkpt><trkpt lat="42.68441506656849" lon="11.9072748448331"><ele>494.0</ele><time>2026-04-12T16:12:16.815Z</time></trkpt><trkpt lat="42.68433256184802" lon="11.907369448425694"><ele>494.0</ele><time>2026-04-12T16:12:17.815Z</time></trkpt><trkpt lat="42.68425629375388" lon="11.90747809567144"><ele>491.25</ele><time>2026-04-12T16:12:18.815Z</time></trkpt><trkpt lat="42.68418727524358" lon="11.907604554437903"><ele>488.5</ele><time>2026-04-12T16:12:19.815Z</time></trkpt><trkpt lat="42.68412609665801" lon="11.907735184888804"><ele>485.75</ele><time>2026-04-12T16:12:20.815Z</time></trkpt><trkpt lat="42.68408278769215" lon="11.907877510503978"><ele>483.0</ele><time>2026-04-12T16:12:21.815Z</time></trkpt><trkpt lat="42.684056718545314" lon="11.908026043079078"><ele>483.0</ele><time>2026-04-12T16:12:22.815Z</time></trkpt><trkpt lat="42.68403957443238" lon="11.908179776616374"><ele>482.99999999999994</ele><time>2026-04-12T16:12:23.815Z</time></trkpt><trkpt lat="42.684027695790796" lon="11.90830957842459"><ele>482.99999999999994</ele><time>2026-04-12T16:12:24.815Z</time></trkpt><trkpt lat="42.684032279942166" lon="11.908405920774591"><ele>483.0</ele><time>2026-04-12T16:12:25.815Z</time></trkpt><trkpt lat="42.68403790149049" lon="11.908521669314922"><ele>483.0</ele><time>2026-04-12T16:12:27.815Z</time></trkpt><trkpt lat="42.68403120105791" lon="11.908363921309773"><ele>483.0</ele><time>2026-04-12T16:12:31.815Z</time></trkpt><trkpt lat="42.68406125264305" lon="11.90824012269981"><ele>483.0</ele><time>2026-04-12T16:12:32.815Z</time></trkpt><trkpt lat="42.68407363208971" lon="11.908077103070504"><ele>483.0</ele><time>2026-04-12T16:12:33.815Z</time></trkpt><trkpt lat="42.684116114601395" lon="11.907890175580244"><ele>483.0</ele><time>2026-04-12T16:12:34.815Z</time></trkpt><trkpt lat="42.68418376846549" lon="11.907706626718134"><ele>483.5</ele><time>2026-04-12T16:12:35.815Z</time></trkpt><trkpt lat="42.684282181384646" lon="11.907533266578687"><ele>484.0</ele><time>2026-04-12T16:12:36.815Z</time></trkpt><trkpt lat="42.68438617968143" lon="11.90739317813669"><ele>484.5</ele><time>2026-04-12T16:12:37.815Z</time></trkpt><trkpt lat="42.68448394511753" lon="11.907291775927565"><ele>485.0</ele><time>2026-04-12T16:12:38.815Z</time></trkpt><trkpt lat="42.68457379029916" lon="11.907217890937666"><ele>486.49999999999994</ele><time>2026-04-12T16:12:39.815Z</time></trkpt><trkpt lat="42.684654733496515" lon="11.907139139950889"><ele>488.0</ele><time>2026-04-12T16:12:40.814Z</time></trkpt><trkpt lat="42.68473897651079" lon="11.907071694719766"><ele>489.5</ele><time>2026-04-12T16:12:41.814Z</time></trkpt><trkpt lat="42.68481514104057" lon="11.907005301536437"><ele>491.0</ele><time>2026-04-12T16:12:42.814Z</time></trkpt><trkpt lat="42.68488373073745" lon="11.906965013258315"><ele>492.49999999999994</ele><time>2026-04-12T16:12:43.814Z</time></trkpt><trkpt lat="42.68494927410695" lon="11.906928770442576"><ele>494.0</ele><time>2026-04-12T16:12:44.814Z</time></trkpt><trkpt lat="42.685062411814584" lon="11.906841180842557"><ele>493.99999999999994</ele><time>2026-04-12T16:12:46.814Z</time></trkpt><trkpt lat="42.68513064821562" lon="11.90678766218049"><ele>494.0</ele><time>2026-04-12T16:12:47.814Z</time></trkpt><trkpt lat="42.685185529029745" lon="11.90674025288033"><ele>494.0</ele><time>2026-04-12T16:12:48.814Z</time></trkpt><trkpt lat="42.685254582766625" lon="11.906712398251164"><ele>494.0</ele><time>2026-04-12T16:12:49.814Z</time></trkpt><trkpt lat="42.68531210867421" lon="11.906672069786557"><ele>493.99999999999994</ele><time>2026-04-12T16:12:50.814Z</time></trkpt><trkpt lat="42.685423200571755" lon="11.906594954256489"><ele>494.0</ele><time>2026-04-12T16:12:52.814Z</time></trkpt><trkpt lat="42.685499270523465" lon="11.906542149548509"><ele>494.2</ele><time>2026-04-12T16:12:54.814Z</time></trkpt><trkpt lat="42.68558270594361" lon="11.906484231826763"><ele>494.4</ele><time>2026-04-12T16:12:56.814Z</time></trkpt><trkpt lat="42.685663609572615" lon="11.906426819808893"><ele>494.6</ele><time>2026-04-12T16:12:58.814Z</time></trkpt><trkpt lat="42.68573082421824" lon="11.906357967465505"><ele>494.8</ele><time>2026-04-12T16:13:00.814Z</time></trkpt><trkpt lat="42.68579932943811" lon="11.906308435436328"><ele>495.0</ele><time>2026-04-12T16:13:03.814Z</time></trkpt><trkpt lat="42.68582776493024" lon="11.906112427128583"><ele>495.0</ele><time>2026-04-12T16:13:08.814Z</time></trkpt><trkpt lat="42.68575560632068" lon="11.906064889756623"><ele>495.0</ele><time>2026-04-12T16:13:09.814Z</time></trkpt><trkpt lat="42.68569578817638" lon="11.906037344632677"><ele>495.0</ele><time>2026-04-12T16:13:11.814Z</time></trkpt><trkpt lat="42.68563113875428" lon="11.906074138046309"><ele>495.0</ele><time>2026-04-12T16:13:12.814Z</time></trkpt><trkpt lat="42.685561435967955" lon="11.906152997872283"><ele>495.0</ele><time>2026-04-12T16:13:15.813Z</time></trkpt><trkpt lat="42.685482849091144" lon="11.906235976358584"><ele>495.0</ele><time>2026-04-12T16:13:17.815Z</time></trkpt><trkpt lat="42.685459148290064" lon="11.9063201328689"><ele>495.0</ele><time>2026-04-12T16:13:19.815Z</time></trkpt><trkpt lat="42.68545238885704" lon="11.906418431830176"><ele>495.0</ele><time>2026-04-12T16:13:22.815Z</time></trkpt><trkpt lat="42.68541363306171" lon="11.906501943035916"><ele>495.0</ele><time>2026-04-12T16:13:27.815Z</time></trkpt><trkpt lat="42.68534336522585" lon="11.906622263217184"><ele>495.0</ele><time>2026-04-12T16:13:29.815Z</time></trkpt><trkpt lat="42.68524790282944" lon="11.906666245484319"><ele>495.0</ele><time>2026-04-12T16:13:30.816Z</time></trkpt><trkpt lat="42.685160756862764" lon="11.906751637637749"><ele>494.75</ele><time>2026-04-12T16:13:31.816Z</time></trkpt><trkpt lat="42.68506246140264" lon="11.90681008961247"><ele>494.5</ele><time>2026-04-12T16:13:32.815Z</time></trkpt><trkpt lat="42.68495460205453" lon="11.90686948415106"><ele>494.25</ele><time>2026-04-12T16:13:33.815Z</time></trkpt><trkpt lat="42.68484252082252" lon="11.90694690938387"><ele>494.0</ele><time>2026-04-12T16:13:34.815Z</time></trkpt><trkpt lat="42.684728490080204" lon="11.907027515049283"><ele>494.0</ele><time>2026-04-12T16:13:35.815Z</time></trkpt><trkpt lat="42.68461269475236" lon="11.90710655001972"><ele>494.0</ele><time>2026-04-12T16:13:36.815Z</time></trkpt><trkpt lat="42.68451103447625" lon="11.907192919165427"><ele>494.0</ele><time>2026-04-12T16:13:37.815Z</time></trkpt><trkpt lat="42.684409017896925" lon="11.907293494968064"><ele>494.0</ele><time>2026-04-12T16:13:38.815Z</time></trkpt><trkpt lat="42.68430986044438" lon="11.90741912367841"><ele>491.75</ele><time>2026-04-12T16:13:39.815Z</time></trkpt><trkpt lat="42.68421623417568" lon="11.90757081826788"><ele>489.5</ele><time>2026-04-12T16:13:40.815Z</time></trkpt><trkpt lat="42.68413882407461" lon="11.907743171547605"><ele>487.25</ele><time>2026-04-12T16:13:41.815Z</time></trkpt><trkpt lat="42.68408553943433" lon="11.907934521916685"><ele>485.0</ele><time>2026-04-12T16:13:42.815Z</time></trkpt><trkpt lat="42.684036061359244" lon="11.908137887904292"><ele>484.3333333333333</ele><time>2026-04-12T16:13:43.815Z</time></trkpt><trkpt lat="42.68402867301662" lon="11.90835350245951"><ele>483.66666666666663</ele><time>2026-04-12T16:13:44.815Z</time></trkpt><trkpt lat="42.68405985322913" lon="11.908563079939258"><ele>483.0</ele><time>2026-04-12T16:13:45.815Z</time></trkpt><trkpt lat="42.68409885191763" lon="11.908760746005067"><ele>481.0</ele><time>2026-04-12T16:13:46.815Z</time></trkpt><trkpt lat="42.68416403051503" lon="11.908952111303746"><ele>479.0</ele><time>2026-04-12T16:13:47.815Z</time></trkpt><trkpt lat="42.68421927543807" lon="11.909132656284623"><ele>477.0</ele><time>2026-04-12T16:13:48.815Z</time></trkpt><trkpt lat="42.68428868194218" lon="11.909302069902745"><ele>475.0</ele><time>2026-04-12T16:13:49.815Z</time></trkpt><trkpt lat="42.68434743914802" lon="11.909486173257083"><ele>472.6666666666667</ele><time>2026-04-12T16:13:50.815Z</time></trkpt><trkpt lat="42.68441009734349" lon="11.909670977254892"><ele>470.33333333333337</ele><time>2026-04-12T16:13:51.815Z</time></trkpt><trkpt lat="42.68446281226663" lon="11.90987699954094"><ele>468.0</ele><time>2026-04-12T16:13:52.815Z</time></trkpt><trkpt lat="42.684499140969386" lon="11.910085905584486"><ele>474.33333333333337</ele><time>2026-04-12T16:13:53.815Z</time></trkpt><trkpt lat="42.684541085422644" lon="11.910312446993647"><ele>480.6666666666667</ele><time>2026-04-12T16:13:54.815Z</time></trkpt><trkpt lat="42.684568381869084" lon="11.910547141685708"><ele>487.0</ele><time>2026-04-12T16:13:55.815Z</time></trkpt><trkpt lat="42.68459578991873" lon="11.91080217928022"><ele>486.6666666666667</ele><time>2026-04-12T16:13:56.815Z</time></trkpt><trkpt lat="42.684589939364905" lon="11.911056630592379"><ele>486.33333333333337</ele><time>2026-04-12T16:13:57.815Z</time></trkpt><trkpt lat="42.68459355267248" lon="11.911302778554518"><ele>486.0</ele><time>2026-04-12T16:13:58.815Z</time></trkpt><trkpt lat="42.68460816960134" lon="11.911554780920419"><ele>485.0</ele><time>2026-04-12T16:13:59.815Z</time></trkpt><trkpt lat="42.68460646767101" lon="11.91181713757439"><ele>484.0</ele><time>2026-04-12T16:14:00.815Z</time></trkpt><trkpt lat="42.684637129940846" lon="11.912080827504324"><ele>483.0</ele><time>2026-04-12T16:14:01.815Z</time></trkpt><trkpt lat="42.684680284266605" lon="11.91235657810387"><ele>481.33333333333337</ele><time>2026-04-12T16:14:02.815Z</time></trkpt><trkpt lat="42.684725785714434" lon="11.91262542755749"><ele>479.6666666666667</ele><time>2026-04-12T16:14:03.815Z</time></trkpt><trkpt lat="42.68477272363803" lon="11.912902845714243"><ele>478.0</ele><time>2026-04-12T16:14:04.815Z</time></trkpt><trkpt lat="42.68481719786066" lon="11.913166033305467"><ele>475.6666666666667</ele><time>2026-04-12T16:14:05.815Z</time></trkpt><trkpt lat="42.6848724234941" lon="11.913421158794138"><ele>473.33333333333337</ele><time>2026-04-12T16:14:06.815Z</time></trkpt><trkpt lat="42.68491321143686" lon="11.913683099587386"><ele>471.0</ele><time>2026-04-12T16:14:07.814Z</time></trkpt><trkpt lat="42.68493605704854" lon="11.913953257489805"><ele>471.0</ele><time>2026-04-12T16:14:08.814Z</time></trkpt><trkpt lat="42.68493089554044" lon="11.914217646517058"><ele>471.0</ele><time>2026-04-12T16:14:09.814Z</time></trkpt><trkpt lat="42.68489792367008" lon="11.914462090934098"><ele>471.0</ele><time>2026-04-12T16:14:10.814Z</time></trkpt><trkpt lat="42.684839808505075" lon="11.914692678008434"><ele>469.33333333333337</ele><time>2026-04-12T16:14:11.814Z</time></trkpt><trkpt lat="42.68476053487737" lon="11.914916581879341"><ele>467.6666666666667</ele><time>2026-04-12T16:14:12.814Z</time></trkpt><trkpt lat="42.68465421352595" lon="11.915130387474388"><ele>466.0</ele><time>2026-04-12T16:14:13.814Z</time></trkpt><trkpt lat="42.68453341444843" lon="11.915333985546951"><ele>460.33333333333337</ele><time>2026-04-12T16:14:14.814Z</time></trkpt><trkpt lat="42.684394542848665" lon="11.915535596324709"><ele>454.66666666666663</ele><time>2026-04-12T16:14:15.814Z</time></trkpt><trkpt lat="42.68425855453763" lon="11.915749199231561"><ele>449.0</ele><time>2026-04-12T16:14:16.814Z</time></trkpt><trkpt lat="42.684132292262355" lon="11.915975445410135"><ele>449.0</ele><time>2026-04-12T16:14:17.814Z</time></trkpt><trkpt lat="42.68399724541539" lon="11.916172735789264"><ele>449.0</ele><time>2026-04-12T16:14:18.814Z</time></trkpt><trkpt lat="42.683851158622765" lon="11.916357697307179"><ele>449.0</ele><time>2026-04-12T16:14:19.814Z</time></trkpt><trkpt lat="42.68372186164138" lon="11.916542484886655"><ele>449.0</ele><time>2026-04-12T16:14:20.814Z</time></trkpt><trkpt lat="42.68361494747565" lon="11.916720493038108"><ele>449.0</ele><time>2026-04-12T16:14:21.814Z</time></trkpt><trkpt lat="42.683495709917096" lon="11.916841209608629"><ele>449.0</ele><time>2026-04-12T16:14:22.814Z</time></trkpt><trkpt lat="42.68336394980552" lon="11.916928351110986"><ele>448.0</ele><time>2026-04-12T16:14:23.814Z</time></trkpt><trkpt lat="42.68321638257534" lon="11.916957814439709"><ele>447.0</ele><time>2026-04-12T16:14:24.814Z</time></trkpt><trkpt lat="42.68306521011912" lon="11.916939957810873"><ele>446.0</ele><time>2026-04-12T16:14:25.814Z</time></trkpt><trkpt lat="42.68292855087119" lon="11.91689406952987"><ele>445.0</ele><time>2026-04-12T16:14:26.814Z</time></trkpt><trkpt lat="42.68279674563536" lon="11.916823575625045"><ele>444.5</ele><time>2026-04-12T16:14:27.814Z</time></trkpt><trkpt lat="42.68266622702904" lon="11.916758412834907"><ele>444.0</ele><time>2026-04-12T16:14:28.814Z</time></trkpt><trkpt lat="42.682537419876994" lon="11.91667007732986"><ele>443.5</ele><time>2026-04-12T16:14:29.814Z</time></trkpt><trkpt lat="42.68240600453724" lon="11.916586565568043"><ele>443.0</ele><time>2026-04-12T16:14:30.814Z</time></trkpt><trkpt lat="42.68227873277715" lon="11.916504899800568"><ele>443.0</ele><time>2026-04-12T16:14:31.814Z</time></trkpt><trkpt lat="42.682152319552614" lon="11.916423784883655"><ele>443.0</ele><time>2026-04-12T16:14:32.814Z</time></trkpt><trkpt lat="42.68203101079916" lon="11.916346544602987"><ele>443.0</ele><time>2026-04-12T16:14:33.814Z</time></trkpt><trkpt lat="42.68191367134324" lon="11.916278328398985"><ele>443.0</ele><time>2026-04-12T16:14:34.814Z</time></trkpt><trkpt lat="42.681797836752786" lon="11.916220983239274"><ele>443.0</ele><time>2026-04-12T16:14:35.814Z</time></trkpt><trkpt lat="42.68167997202207" lon="11.91618052730661"><ele>443.0</ele><time>2026-04-12T16:14:36.814Z</time></trkpt><trkpt lat="42.68155635813662" lon="11.916155289180852"><ele>443.0</ele><time>2026-04-12T16:14:37.814Z</time></trkpt><trkpt lat="42.681428644119514" lon="11.916163261789025"><ele>443.0</ele><time>2026-04-12T16:14:38.814Z</time></trkpt><trkpt lat="42.681305153492474" lon="11.916162301189422"><ele>443.0</ele><time>2026-04-12T16:14:39.814Z</time></trkpt><trkpt lat="42.68117909280615" lon="11.916188993010872"><ele>443.0</ele><time>2026-04-12T16:14:40.814Z</time></trkpt><trkpt lat="42.68105783065326" lon="11.916231121524675"><ele>443.0</ele><time>2026-04-12T16:14:41.814Z</time></trkpt><trkpt lat="42.68094034011279" lon="11.916297050260802"><ele>443.0</ele><time>2026-04-12T16:14:42.814Z</time></trkpt><trkpt lat="42.68082220137965" lon="11.916372153228851"><ele>441.25</ele><time>2026-04-12T16:14:43.813Z</time></trkpt><trkpt lat="42.68070868556026" lon="11.916474354255843"><ele>439.5</ele><time>2026-04-12T16:14:44.813Z</time></trkpt><trkpt lat="42.68058954291063" lon="11.916567487663693"><ele>437.75</ele><time>2026-04-12T16:14:45.813Z</time></trkpt><trkpt lat="42.68049500854805" lon="11.916693560177558"><ele>436.0</ele><time>2026-04-12T16:14:46.813Z</time></trkpt><trkpt lat="42.680407113901175" lon="11.916827240944329"><ele>436.0</ele><time>2026-04-12T16:14:47.813Z</time></trkpt><trkpt lat="42.68034332259044" lon="11.916985646550268"><ele>436.0</ele><time>2026-04-12T16:14:48.813Z</time></trkpt><trkpt lat="42.68024118780346" lon="11.91711710141114"><ele>436.0</ele><time>2026-04-12T16:14:49.813Z</time></trkpt><trkpt lat="42.68017452922328" lon="11.917264617280175"><ele>436.0</ele><time>2026-04-12T16:14:50.813Z</time></trkpt><trkpt lat="42.68009988991474" lon="11.917406998572956"><ele>433.5</ele><time>2026-04-12T16:14:51.813Z</time></trkpt><trkpt lat="42.68000936136989" lon="11.917549439641057"><ele>431.0</ele><time>2026-04-12T16:14:52.813Z</time></trkpt><trkpt lat="42.67991457253088" lon="11.917686480392284"><ele>428.5</ele><time>2026-04-12T16:14:53.813Z</time></trkpt><trkpt lat="42.679817658943676" lon="11.917811454919931"><ele>426.0</ele><time>2026-04-12T16:14:54.813Z</time></trkpt><trkpt lat="42.67971815006608" lon="11.917923204198098"><ele>426.0</ele><time>2026-04-12T16:14:55.813Z</time></trkpt><trkpt lat="42.67962196532041" lon="11.918023142311212"><ele>426.0</ele><time>2026-04-12T16:14:56.813Z</time></trkpt><trkpt lat="42.67952072351568" lon="11.918110676450086"><ele>426.0</ele><time>2026-04-12T16:14:57.813Z</time></trkpt><trkpt lat="42.67941314938582" lon="11.918190216682278"><ele>426.0</ele><time>2026-04-12T16:14:58.813Z</time></trkpt><trkpt lat="42.67929861122427" lon="11.918257944255886"><ele>423.25</ele><time>2026-04-12T16:14:59.813Z</time></trkpt><trkpt lat="42.6791751406514" lon="11.918315733620311"><ele>420.5</ele><time>2026-04-12T16:15:00.813Z</time></trkpt><trkpt lat="42.67905065352513" lon="11.918362407081101"><ele>417.75</ele><time>2026-04-12T16:15:01.813Z</time></trkpt><trkpt lat="42.67891861838474" lon="11.918396644987153"><ele>415.0</ele><time>2026-04-12T16:15:02.813Z</time></trkpt><trkpt lat="42.67878602662947" lon="11.918426242393913"><ele>415.0</ele><time>2026-04-12T16:15:03.813Z</time></trkpt><trkpt lat="42.67865085791861" lon="11.918451209853753"><ele>415.0</ele><time>2026-04-12T16:15:04.813Z</time></trkpt><trkpt lat="42.678512978849675" lon="11.918472395759"><ele>415.0</ele><time>2026-04-12T16:15:05.813Z</time></trkpt><trkpt lat="42.67835901226109" lon="11.918489947252922"><ele>415.0</ele><time>2026-04-12T16:15:06.813Z</time></trkpt><trkpt lat="42.67819249440709" lon="11.918513624194443"><ele>412.33333333333337</ele><time>2026-04-12T16:15:07.813Z</time></trkpt><trkpt lat="42.67802246817759" lon="11.918529476050027"><ele>409.66666666666663</ele><time>2026-04-12T16:15:08.813Z</time></trkpt><trkpt lat="42.67781989310153" lon="11.918509973421488"><ele>407.0</ele><time>2026-04-12T16:15:09.813Z</time></trkpt><trkpt lat="42.677617655209055" lon="11.91853501346941"><ele>405.3333333333333</ele><time>2026-04-12T16:15:10.813Z</time></trkpt><trkpt lat="42.67740866770499" lon="11.918547029552963"><ele>403.66666666666663</ele><time>2026-04-12T16:15:11.813Z</time></trkpt><trkpt lat="42.67718583374761" lon="11.918552938597669"><ele>402.0</ele><time>2026-04-12T16:15:12.813Z</time></trkpt><trkpt lat="42.676957921813504" lon="11.91855856740692"><ele>400.5</ele><time>2026-04-12T16:15:13.813Z</time></trkpt><trkpt lat="42.676728552651724" lon="11.918537813847545"><ele>399.0</ele><time>2026-04-12T16:15:14.813Z</time></trkpt><trkpt lat="42.67650547952212" lon="11.918517899228968"><ele>399.0</ele><time>2026-04-12T16:15:15.813Z</time></trkpt><trkpt lat="42.676292361722425" lon="11.91852610209513"><ele>399.0</ele><time>2026-04-12T16:15:16.813Z</time></trkpt><trkpt lat="42.67607522941261" lon="11.918542711361136"><ele>399.0</ele><time>2026-04-12T16:15:17.813Z</time></trkpt><trkpt lat="42.675855881470284" lon="11.91854667612302"><ele>397.33333333333337</ele><time>2026-04-12T16:15:18.812Z</time></trkpt><trkpt lat="42.67564499613433" lon="11.918550612950366"><ele>395.6666666666667</ele><time>2026-04-12T16:15:19.812Z</time></trkpt><trkpt lat="42.675428536195945" lon="11.918561176293103"><ele>394.0</ele><time>2026-04-12T16:15:20.812Z</time></trkpt><trkpt lat="42.67521008402459" lon="11.918568466630807"><ele>392.33333333333337</ele><time>2026-04-12T16:15:21.812Z</time></trkpt><trkpt lat="42.67499033957444" lon="11.918577828316286"><ele>390.66666666666663</ele><time>2026-04-12T16:15:22.812Z</time></trkpt><trkpt lat="42.674778739082306" lon="11.918583561356295"><ele>389.0</ele><time>2026-04-12T16:15:23.815Z</time></trkpt><trkpt lat="42.674568930107085" lon="11.918578154142663"><ele>387.3333333333333</ele><time>2026-04-12T16:15:24.814Z</time></trkpt><trkpt lat="42.674358836456484" lon="11.918582211905573"><ele>385.66666666666663</ele><time>2026-04-12T16:15:25.814Z</time></trkpt><trkpt lat="42.674155730473075" lon="11.918572604702138"><ele>384.0</ele><time>2026-04-12T16:15:26.814Z</time></trkpt><trkpt lat="42.67394455728037" lon="11.918579298227566"><ele>384.0</ele><time>2026-04-12T16:15:27.815Z</time></trkpt><trkpt lat="42.67373519245987" lon="11.918600077442822"><ele>384.0</ele><time>2026-04-12T16:15:28.815Z</time></trkpt><trkpt lat="42.67353376627947" lon="11.918614772768178"><ele>384.0</ele><time>2026-04-12T16:15:29.814Z</time></trkpt><trkpt lat="42.67333533832053" lon="11.918621247717079"><ele>382.0</ele><time>2026-04-12T16:15:30.814Z</time></trkpt><trkpt lat="42.67312897662419" lon="11.918630457722367"><ele>380.0</ele><time>2026-04-12T16:15:31.814Z</time></trkpt><trkpt lat="42.67289169186902" lon="11.918665439073303"><ele>378.0</ele><time>2026-04-12T16:15:32.814Z</time></trkpt><trkpt lat="42.672655784700495" lon="11.918674356148827"><ele>376.5</ele><time>2026-04-12T16:15:33.814Z</time></trkpt><trkpt lat="42.67239836691985" lon="11.918681993471724"><ele>375.0</ele><time>2026-04-12T16:15:34.814Z</time></trkpt><trkpt lat="42.67213052111784" lon="11.91868994017668"><ele>375.0</ele><time>2026-04-12T16:15:35.814Z</time></trkpt><trkpt lat="42.67204917519002" lon="11.91870544577959"><ele>375.0</ele><time>2026-04-12T16:15:36.815Z</time></trkpt><trkpt lat="42.67183831818644" lon="11.918710311546224"><ele>375.0</ele><time>2026-04-12T16:15:37.815Z</time></trkpt><trkpt lat="42.67162547869692" lon="11.918714580396525"><ele>376.6666666666667</ele><time>2026-04-12T16:15:38.815Z</time></trkpt><trkpt lat="42.67141114155945" lon="11.918716999494237"><ele>378.33333333333337</ele><time>2026-04-12T16:15:39.815Z</time></trkpt><trkpt lat="42.671201728210235" lon="11.918713014653594"><ele>380.0</ele><time>2026-04-12T16:15:40.815Z</time></trkpt><trkpt lat="42.67099302413529" lon="11.918669018096972"><ele>380.6666666666667</ele><time>2026-04-12T16:15:41.815Z</time></trkpt><trkpt lat="42.67078087789059" lon="11.918604946688221"><ele>381.3333333333333</ele><time>2026-04-12T16:15:42.815Z</time></trkpt><trkpt lat="42.670590278302974" lon="11.918533698019822"><ele>382.0</ele><time>2026-04-12T16:15:43.814Z</time></trkpt><trkpt lat="42.67040217674803" lon="11.918441793515543"><ele>380.3333333333333</ele><time>2026-04-12T16:15:44.814Z</time></trkpt><trkpt lat="42.67022625757061" lon="11.918307286097999"><ele>378.6666666666667</ele><time>2026-04-12T16:15:45.814Z</time></trkpt><trkpt lat="42.670049956829594" lon="11.918164282391293"><ele>377.0</ele><time>2026-04-12T16:15:46.814Z</time></trkpt><trkpt lat="42.66988445371376" lon="11.917997056740791"><ele>377.0</ele><time>2026-04-12T16:15:47.814Z</time></trkpt><trkpt lat="42.669728174119356" lon="11.917807039201959"><ele>377.0</ele><time>2026-04-12T16:15:48.814Z</time></trkpt><trkpt lat="42.66958059030321" lon="11.917598366488534"><ele>377.0</ele><time>2026-04-12T16:15:49.814Z</time></trkpt><trkpt lat="42.669444822435416" lon="11.91737126372514"><ele>376.0</ele><time>2026-04-12T16:15:50.814Z</time></trkpt><trkpt lat="42.66932341622574" lon="11.917130010798715"><ele>375.0</ele><time>2026-04-12T16:15:51.814Z</time></trkpt><trkpt lat="42.669221503097496" lon="11.916878698033196"><ele>374.0</ele><time>2026-04-12T16:15:52.814Z</time></trkpt><trkpt lat="42.6691367471526" lon="11.916603618717495"><ele>373.5</ele><time>2026-04-12T16:15:53.814Z</time></trkpt><trkpt lat="42.66906662740715" lon="11.916310932408992"><ele>373.0</ele><time>2026-04-12T16:15:54.814Z</time></trkpt><trkpt lat="42.66900613297727" lon="11.916017563603072"><ele>373.0</ele><time>2026-04-12T16:15:55.814Z</time></trkpt><trkpt lat="42.66895245296241" lon="11.915744321413275"><ele>373.0</ele><time>2026-04-12T16:15:56.814Z</time></trkpt><trkpt lat="42.66890623462753" lon="11.915480691746282"><ele>373.0</ele><time>2026-04-12T16:15:57.814Z</time></trkpt><trkpt lat="42.66888518588018" lon="11.915225302635069"><ele>371.0</ele><time>2026-04-12T16:15:58.814Z</time></trkpt><trkpt lat="42.66881958542248" lon="11.914963093674539"><ele>369.0</ele><time>2026-04-12T16:15:59.814Z</time></trkpt><trkpt lat="42.66890014286407" lon="11.914658350434443"><ele>367.0</ele><time>2026-04-12T16:16:00.814Z</time></trkpt><trkpt lat="42.6689463760639" lon="11.914378700377364"><ele>366.3333333333333</ele><time>2026-04-12T16:16:01.814Z</time></trkpt><trkpt lat="42.669019066964" lon="11.914096223799975"><ele>365.6666666666667</ele><time>2026-04-12T16:16:02.814Z</time></trkpt><trkpt lat="42.66906359564931" lon="11.913828175784618"><ele>365.0</ele><time>2026-04-12T16:16:03.814Z</time></trkpt><trkpt lat="42.6690968534939" lon="11.913567129824669"><ele>363.6666666666667</ele><time>2026-04-12T16:16:04.814Z</time></trkpt><trkpt lat="42.669108372338904" lon="11.913294071124751"><ele>362.3333333333333</ele><time>2026-04-12T16:16:05.814Z</time></trkpt><trkpt lat="42.669088141035765" lon="11.913012044207536"><ele>361.0</ele><time>2026-04-12T16:16:06.814Z</time></trkpt><trkpt lat="42.669050608459365" lon="11.912723628445843"><ele>359.0</ele><time>2026-04-12T16:16:07.814Z</time></trkpt><trkpt lat="42.66900944807977" lon="11.912430737571395"><ele>357.0</ele><time>2026-04-12T16:16:08.814Z</time></trkpt><trkpt lat="42.668954494296806" lon="11.912146509879182"><ele>355.0</ele><time>2026-04-12T16:16:09.814Z</time></trkpt><trkpt lat="42.66888333892211" lon="11.911863456964012"><ele>352.3333333333333</ele><time>2026-04-12T16:16:10.814Z</time></trkpt><trkpt lat="42.66879175107425" lon="11.911587481483208"><ele>349.6666666666667</ele><time>2026-04-12T16:16:11.814Z</time></trkpt><trkpt lat="42.66867065167071" lon="11.911327686881513"><ele>347.0</ele><time>2026-04-12T16:16:12.814Z</time></trkpt><trkpt lat="42.66854604669381" lon="11.911052409903993"><ele>352.5</ele><time>2026-04-12T16:16:13.814Z</time></trkpt><trkpt lat="42.66846086389932" lon="11.910763258812194"><ele>358.0</ele><time>2026-04-12T16:16:14.814Z</time></trkpt><trkpt lat="42.668393983170596" lon="11.910453074781856"><ele>358.0</ele><time>2026-04-12T16:16:15.814Z</time></trkpt><trkpt lat="42.66835026499079" lon="11.910141386693784"><ele>358.0</ele><time>2026-04-12T16:16:16.814Z</time></trkpt><trkpt lat="42.66832094050425" lon="11.909850150624544"><ele>358.0</ele><time>2026-04-12T16:16:17.814Z</time></trkpt><trkpt lat="42.66826867877172" lon="11.909604448297078"><ele>356.0</ele><time>2026-04-12T16:16:18.813Z</time></trkpt><trkpt lat="42.66821148969634" lon="11.909379639395414"><ele>354.0</ele><time>2026-04-12T16:16:19.813Z</time></trkpt><trkpt lat="42.668110772389696" lon="11.909168492767389"><ele>352.0</ele><time>2026-04-12T16:16:20.813Z</time></trkpt><trkpt lat="42.6679932040634" lon="11.908954310600253"><ele>351.66666666666663</ele><time>2026-04-12T16:16:21.813Z</time></trkpt><trkpt lat="42.66784451502167" lon="11.908829172148085"><ele>351.3333333333333</ele><time>2026-04-12T16:16:22.813Z</time></trkpt><trkpt lat="42.66774293578242" lon="11.908667020903263"><ele>351.0</ele><time>2026-04-12T16:16:23.813Z</time></trkpt><trkpt lat="42.66747616816237" lon="11.908712244661578"><ele>351.0</ele><time>2026-04-12T16:16:24.813Z</time></trkpt><trkpt lat="42.66726929098187" lon="11.908701975751844"><ele>351.0</ele><time>2026-04-12T16:16:25.813Z</time></trkpt><trkpt lat="42.6670447461452" lon="11.908708304220964"><ele>351.0</ele><time>2026-04-12T16:16:26.813Z</time></trkpt><trkpt lat="42.66681457905888" lon="11.908720679170255"><ele>351.5</ele><time>2026-04-12T16:16:27.813Z</time></trkpt><trkpt lat="42.66658138312782" lon="11.908703906483462"><ele>352.0</ele><time>2026-04-12T16:16:28.813Z</time></trkpt><trkpt lat="42.666346456688224" lon="11.908698378937032"><ele>351.5</ele><time>2026-04-12T16:16:29.813Z</time></trkpt><trkpt lat="42.66610957794886" lon="11.908692596111909"><ele>351.0</ele><time>2026-04-12T16:16:30.813Z</time></trkpt><trkpt lat="42.665879885815684" lon="11.908677478537655"><ele>351.0</ele><time>2026-04-12T16:16:31.813Z</time></trkpt><trkpt lat="42.66565698332595" lon="11.908645096547641"><ele>351.0</ele><time>2026-04-12T16:16:32.813Z</time></trkpt><trkpt lat="42.66543510337912" lon="11.90856873373966"><ele>349.3333333333333</ele><time>2026-04-12T16:16:33.813Z</time></trkpt><trkpt lat="42.66522177760563" lon="11.908496026903553"><ele>347.66666666666663</ele><time>2026-04-12T16:16:34.813Z</time></trkpt><trkpt lat="42.66501569582243" lon="11.908455602115563"><ele>346.0</ele><time>2026-04-12T16:16:35.813Z</time></trkpt><trkpt lat="42.6648039864718" lon="11.908437420075535"><ele>346.0</ele><time>2026-04-12T16:16:36.813Z</time></trkpt><trkpt lat="42.6645930541955" lon="11.908454665839566"><ele>346.0</ele><time>2026-04-12T16:16:37.813Z</time></trkpt><trkpt lat="42.66439038383514" lon="11.908514846270203"><ele>346.0</ele><time>2026-04-12T16:16:38.813Z</time></trkpt><trkpt lat="42.66418747857959" lon="11.908609991993588"><ele>340.5</ele><time>2026-04-12T16:16:39.813Z</time></trkpt><trkpt lat="42.663961292585604" lon="11.908707782751646"><ele>335.0</ele><time>2026-04-12T16:16:40.813Z</time></trkpt><trkpt lat="42.663745537971856" lon="11.908789923210866"><ele>334.33333333333337</ele><time>2026-04-12T16:16:41.813Z</time></trkpt><trkpt lat="42.66353677727556" lon="11.908840955681699"><ele>333.6666666666667</ele><time>2026-04-12T16:16:42.813Z</time></trkpt><trkpt lat="42.663320422973165" lon="11.90884788780975"><ele>333.0</ele><time>2026-04-12T16:16:43.813Z</time></trkpt><trkpt lat="42.663101978345686" lon="11.908815826195886"><ele>333.0</ele><time>2026-04-12T16:16:44.813Z</time></trkpt><trkpt lat="42.66289393557922" lon="11.908756808308974"><ele>333.0</ele><time>2026-04-12T16:16:45.813Z</time></trkpt><trkpt lat="42.66269234430771" lon="11.908687130198388"><ele>333.0</ele><time>2026-04-12T16:16:46.813Z</time></trkpt><trkpt lat="42.66251520754365" lon="11.90864060269569"><ele>332.0</ele><time>2026-04-12T16:16:47.813Z</time></trkpt><trkpt lat="42.662357240817784" lon="11.90860563848032"><ele>331.0</ele><time>2026-04-12T16:16:48.813Z</time></trkpt><trkpt lat="42.66220422457078" lon="11.908577519095179"><ele>330.0</ele><time>2026-04-12T16:16:49.813Z</time></trkpt><trkpt lat="42.66205218503851" lon="11.908549187328639"><ele>329.0</ele><time>2026-04-12T16:16:50.813Z</time></trkpt><trkpt lat="42.661912162515065" lon="11.908529202652161"><ele>328.0</ele><time>2026-04-12T16:16:51.813Z</time></trkpt><trkpt lat="42.66176997340946" lon="11.908513147448604"><ele>327.0</ele><time>2026-04-12T16:16:52.813Z</time></trkpt><trkpt lat="42.66163742780051" lon="11.908502827173944"><ele>326.0</ele><time>2026-04-12T16:16:53.812Z</time></trkpt><trkpt lat="42.66149639546876" lon="11.90848765393523"><ele>326.0</ele><time>2026-04-12T16:16:54.812Z</time></trkpt><trkpt lat="42.66135595482225" lon="11.908496165248465"><ele>326.0</ele><time>2026-04-12T16:16:55.812Z</time></trkpt><trkpt lat="42.66121566767172" lon="11.908525871908864"><ele>326.0</ele><time>2026-04-12T16:16:56.812Z</time></trkpt><trkpt lat="42.661075347617455" lon="11.908576244651785"><ele>326.0</ele><time>2026-04-12T16:16:57.812Z</time></trkpt><trkpt lat="42.66093177519466" lon="11.908650703811874"><ele>324.33333333333337</ele><time>2026-04-12T16:16:58.812Z</time></trkpt><trkpt lat="42.66078165353412" lon="11.908725613165545"><ele>322.6666666666667</ele><time>2026-04-12T16:16:59.812Z</time></trkpt><trkpt lat="42.66062421794524" lon="11.908809319211125"><ele>321.0</ele><time>2026-04-12T16:17:00.812Z</time></trkpt><trkpt lat="42.660450126194" lon="11.908896162006487"><ele>318.6666666666667</ele><time>2026-04-12T16:17:01.812Z</time></trkpt><trkpt lat="42.66026022355765" lon="11.908971113114378"><ele>316.33333333333337</ele><time>2026-04-12T16:17:02.812Z</time></trkpt><trkpt lat="42.66005316787588" lon="11.909047578497242"><ele>314.0</ele><time>2026-04-12T16:17:03.812Z</time></trkpt><trkpt lat="42.65984822516515" lon="11.909118613561407"><ele>314.0</ele><time>2026-04-12T16:17:04.812Z</time></trkpt><trkpt lat="42.65965378788274" lon="11.90919627120707"><ele>314.0</ele><time>2026-04-12T16:17:05.812Z</time></trkpt><trkpt lat="42.65946412711806" lon="11.909274363008286"><ele>314.0</ele><time>2026-04-12T16:17:06.812Z</time></trkpt><trkpt lat="42.65928822658133" lon="11.909344779241467"><ele>314.0</ele><time>2026-04-12T16:17:07.812Z</time></trkpt><trkpt lat="42.6591205350742" lon="11.909443581632798"><ele>314.0</ele><time>2026-04-12T16:17:08.812Z</time></trkpt><trkpt lat="42.65895487348904" lon="11.90956123871532"><ele>314.0</ele><time>2026-04-12T16:17:09.812Z</time></trkpt><trkpt lat="42.658817492701985" lon="11.909708363163336"><ele>314.0</ele><time>2026-04-12T16:17:10.812Z</time></trkpt><trkpt lat="42.65870710754019" lon="11.909887965895972"><ele>314.0</ele><time>2026-04-12T16:17:11.812Z</time></trkpt><trkpt lat="42.65860807543883" lon="11.910105585863754"><ele>314.0</ele><time>2026-04-12T16:17:12.812Z</time></trkpt><trkpt lat="42.6584972101182" lon="11.910321782925045"><ele>313.6666666666667</ele><time>2026-04-12T16:17:13.812Z</time></trkpt><trkpt lat="42.65836523778645" lon="11.910529235605733"><ele>313.3333333333333</ele><time>2026-04-12T16:17:14.812Z</time></trkpt><trkpt lat="42.6582134079224" lon="11.910732282031404"><ele>313.0</ele><time>2026-04-12T16:17:15.812Z</time></trkpt><trkpt lat="42.658069770267275" lon="11.910950885882562"><ele>312.66666666666663</ele><time>2026-04-12T16:17:16.812Z</time></trkpt><trkpt lat="42.6579452725622" lon="11.911190264903569"><ele>312.3333333333333</ele><time>2026-04-12T16:17:17.812Z</time></trkpt><trkpt lat="42.6578347228743" lon="11.911454101720201"><ele>312.0</ele><time>2026-04-12T16:17:18.812Z</time></trkpt><trkpt lat="42.65774863961488" lon="11.911724977326571"><ele>313.0</ele><time>2026-04-12T16:17:19.812Z</time></trkpt><trkpt lat="42.6576500900462" lon="11.912000764508957"><ele>314.0</ele><time>2026-04-12T16:17:20.812Z</time></trkpt><trkpt lat="42.65754699665239" lon="11.912270717578838"><ele>315.0</ele><time>2026-04-12T16:17:21.812Z</time></trkpt><trkpt lat="42.657437755205" lon="11.912516326983715"><ele>315.6666666666667</ele><time>2026-04-12T16:17:22.812Z</time></trkpt><trkpt lat="42.65732798205859" lon="11.912738759831479"><ele>316.33333333333337</ele><time>2026-04-12T16:17:23.812Z</time></trkpt><trkpt lat="42.65721812857694" lon="11.912958402170894"><ele>317.0</ele><time>2026-04-12T16:17:24.812Z</time></trkpt><trkpt lat="42.65710892166805" lon="11.913209406166066"><ele>316.5</ele><time>2026-04-12T16:17:25.812Z</time></trkpt><trkpt lat="42.65699001039754" lon="11.913485285248555"><ele>316.0</ele><time>2026-04-12T16:17:26.812Z</time></trkpt><trkpt lat="42.65685465245539" lon="11.913756452012148"><ele>315.0</ele><time>2026-04-12T16:17:27.812Z</time></trkpt><trkpt lat="42.65672304256167" lon="11.914024277494597"><ele>314.0</ele><time>2026-04-12T16:17:28.812Z</time></trkpt><trkpt lat="42.65658323950281" lon="11.914284707138455"><ele>314.0</ele><time>2026-04-12T16:17:29.814Z</time></trkpt><trkpt lat="42.65646704043298" lon="11.91455066136741"><ele>314.0</ele><time>2026-04-12T16:17:30.813Z</time></trkpt><trkpt lat="42.65635637152041" lon="11.914825516772908"><ele>314.0</ele><time>2026-04-12T16:17:31.813Z</time></trkpt><trkpt lat="42.65625957493149" lon="11.915109271680002"><ele>314.0</ele><time>2026-04-12T16:17:32.813Z</time></trkpt><trkpt lat="42.65616977247329" lon="11.915401302006641"><ele>312.5</ele><time>2026-04-12T16:17:33.813Z</time></trkpt><trkpt lat="42.65608470362335" lon="11.915694599365025"><ele>311.0</ele><time>2026-04-12T16:17:34.813Z</time></trkpt><trkpt lat="42.65600267030574" lon="11.915992589196325"><ele>310.5</ele><time>2026-04-12T16:17:35.814Z</time></trkpt><trkpt lat="42.65592058389414" lon="11.916289890446835"><ele>310.0</ele><time>2026-04-12T16:17:36.813Z</time></trkpt><trkpt lat="42.655837915208004" lon="11.916585841433227"><ele>310.0</ele><time>2026-04-12T16:17:37.813Z</time></trkpt><trkpt lat="42.65576617150199" lon="11.916889008855236"><ele>310.0</ele><time>2026-04-12T16:17:38.814Z</time></trkpt><trkpt lat="42.65569857194379" lon="11.917189020630275"><ele>310.0</ele><time>2026-04-12T16:17:39.814Z</time></trkpt><trkpt lat="42.6556372952474" lon="11.917495385832328"><ele>310.0</ele><time>2026-04-12T16:17:40.814Z</time></trkpt><trkpt lat="42.655582829085496" lon="11.917799372590645"><ele>310.0</ele><time>2026-04-12T16:17:41.814Z</time></trkpt><trkpt lat="42.65553576076985" lon="11.918099129991239"><ele>310.0</ele><time>2026-04-12T16:17:42.814Z</time></trkpt><trkpt lat="42.655496998684995" lon="11.91839365586386"><ele>310.0</ele><time>2026-04-12T16:17:43.814Z</time></trkpt><trkpt lat="42.65547667345676" lon="11.918688950045404"><ele>310.0</ele><time>2026-04-12T16:17:44.814Z</time></trkpt><trkpt lat="42.6554835930469" lon="11.91899108092678"><ele>310.0</ele><time>2026-04-12T16:17:45.814Z</time></trkpt><trkpt lat="42.655509724815666" lon="11.919296869422212"><ele>310.0</ele><time>2026-04-12T16:17:46.814Z</time></trkpt><trkpt lat="42.6555478477463" lon="11.919611610213677"><ele>309.5</ele><time>2026-04-12T16:17:47.814Z</time></trkpt><trkpt lat="42.65558690547791" lon="11.919932102050849"><ele>309.0</ele><time>2026-04-12T16:17:48.814Z</time></trkpt><trkpt lat="42.65563099661509" lon="11.92026073061655"><ele>308.5</ele><time>2026-04-12T16:17:49.814Z</time></trkpt><trkpt lat="42.65568007802489" lon="11.920587316948714"><ele>308.0</ele><time>2026-04-12T16:17:50.814Z</time></trkpt><trkpt lat="42.655731697178055" lon="11.920904732965123"><ele>309.0</ele><time>2026-04-12T16:17:51.814Z</time></trkpt><trkpt lat="42.65578240603968" lon="11.921222988869674"><ele>310.0</ele><time>2026-04-12T16:17:52.814Z</time></trkpt><trkpt lat="42.655835911349826" lon="11.921538098069059"><ele>310.0</ele><time>2026-04-12T16:17:53.814Z</time></trkpt><trkpt lat="42.65589146441287" lon="11.92184495676201"><ele>310.0</ele><time>2026-04-12T16:17:54.814Z</time></trkpt><trkpt lat="42.65595774132381" lon="11.92214449248132"><ele>310.0</ele><time>2026-04-12T16:17:55.814Z</time></trkpt><trkpt lat="42.656025312308444" lon="11.922437983820645"><ele>310.0</ele><time>2026-04-12T16:17:56.813Z</time></trkpt><trkpt lat="42.65610020922907" lon="11.922728925340808"><ele>310.3333333333333</ele><time>2026-04-12T16:17:57.813Z</time></trkpt><trkpt lat="42.65616819011899" lon="11.9230157235466"><ele>310.6666666666667</ele><time>2026-04-12T16:17:58.813Z</time></trkpt><trkpt lat="42.65622156381764" lon="11.923290792284051"><ele>311.0</ele><time>2026-04-12T16:17:59.813Z</time></trkpt><trkpt lat="42.65626784918324" lon="11.923593740627183"><ele>311.5</ele><time>2026-04-12T16:18:00.813Z</time></trkpt><trkpt lat="42.65629298370435" lon="11.923903310554829"><ele>312.0</ele><time>2026-04-12T16:18:01.813Z</time></trkpt><trkpt lat="42.65629960729592" lon="11.924220417563912"><ele>311.5</ele><time>2026-04-12T16:18:02.813Z</time></trkpt><trkpt lat="42.65629228745103" lon="11.924532844482107"><ele>311.0</ele><time>2026-04-12T16:18:03.813Z</time></trkpt><trkpt lat="42.65628404035156" lon="11.924836737466173"><ele>311.0</ele><time>2026-04-12T16:18:04.813Z</time></trkpt><trkpt lat="42.65627718689387" lon="11.925142371149159"><ele>311.0</ele><time>2026-04-12T16:18:05.813Z</time></trkpt><trkpt lat="42.65628069732571" lon="11.92544458339407"><ele>311.0</ele><time>2026-04-12T16:18:06.813Z</time></trkpt><trkpt lat="42.65628833858235" lon="11.925741997741305"><ele>311.0</ele><time>2026-04-12T16:18:07.813Z</time></trkpt><trkpt lat="42.65630348928497" lon="11.926039357930168"><ele>311.0</ele><time>2026-04-12T16:18:08.813Z</time></trkpt><trkpt lat="42.656318052399534" lon="11.926332646869534"><ele>311.0</ele><time>2026-04-12T16:18:09.813Z</time></trkpt><trkpt lat="42.65633248554164" lon="11.926629158925197"><ele>311.33333333333337</ele><time>2026-04-12T16:18:10.813Z</time></trkpt><trkpt lat="42.65634326317223" lon="11.926929531953167"><ele>311.6666666666667</ele><time>2026-04-12T16:18:11.813Z</time></trkpt><trkpt lat="42.65635845516145" lon="11.92722753078214"><ele>312.0</ele><time>2026-04-12T16:18:12.813Z</time></trkpt><trkpt lat="42.6563803894218" lon="11.92752737153748"><ele>311.5</ele><time>2026-04-12T16:18:13.813Z</time></trkpt><trkpt lat="42.65640164430824" lon="11.92783748247731"><ele>311.0</ele><time>2026-04-12T16:18:14.813Z</time></trkpt><trkpt lat="42.65642835404081" lon="11.928148413704914"><ele>311.5</ele><time>2026-04-12T16:18:15.813Z</time></trkpt><trkpt lat="42.65645409587299" lon="11.928459783261909"><ele>312.0</ele><time>2026-04-12T16:18:16.813Z</time></trkpt><trkpt lat="42.65648256553764" lon="11.928773219104507"><ele>312.0</ele><time>2026-04-12T16:18:17.813Z</time></trkpt><trkpt lat="42.6565002182458" lon="11.92910419083241"><ele>312.0</ele><time>2026-04-12T16:18:18.813Z</time></trkpt><trkpt lat="42.656510131049735" lon="11.92943076651635"><ele>311.0</ele><time>2026-04-12T16:18:19.813Z</time></trkpt><trkpt lat="42.65650542151158" lon="11.9297684388841"><ele>310.0</ele><time>2026-04-12T16:18:20.813Z</time></trkpt><trkpt lat="42.65650138156497" lon="11.93010069114031"><ele>309.5</ele><time>2026-04-12T16:18:21.813Z</time></trkpt><trkpt lat="42.656494809415925" lon="11.93042805498794"><ele>309.0</ele><time>2026-04-12T16:18:22.813Z</time></trkpt><trkpt lat="42.65649653023406" lon="11.930756635700922"><ele>309.5</ele><time>2026-04-12T16:18:23.813Z</time></trkpt><trkpt lat="42.656504594282694" lon="11.931080586809003"><ele>310.0</ele><time>2026-04-12T16:18:24.813Z</time></trkpt><trkpt lat="42.65652034652501" lon="11.931399687583363"><ele>310.0</ele><time>2026-04-12T16:18:25.813Z</time></trkpt><trkpt lat="42.65654179364519" lon="11.931719082648364"><ele>310.0</ele><time>2026-04-12T16:18:26.813Z</time></trkpt><trkpt lat="42.65656974466496" lon="11.932031341546553"><ele>310.66666666666663</ele><time>2026-04-12T16:18:27.813Z</time></trkpt><trkpt lat="42.65659195854832" lon="11.932338840200186"><ele>311.3333333333333</ele><time>2026-04-12T16:18:28.813Z</time></trkpt><trkpt lat="42.65660893135998" lon="11.932634867480282"><ele>312.0</ele><time>2026-04-12T16:18:29.813Z</time></trkpt><trkpt lat="42.65661911137244" lon="11.932921778616057"><ele>312.0</ele><time>2026-04-12T16:18:30.813Z</time></trkpt><trkpt lat="42.65662434726063" lon="11.933210911529452"><ele>312.0</ele><time>2026-04-12T16:18:31.812Z</time></trkpt><trkpt lat="42.65661899586179" lon="11.933496746647226"><ele>312.0</ele><time>2026-04-12T16:18:32.812Z</time></trkpt><trkpt lat="42.656602981272655" lon="11.93379189443169"><ele>311.5</ele><time>2026-04-12T16:18:33.812Z</time></trkpt><trkpt lat="42.65658834413466" lon="11.934099419610833"><ele>311.0</ele><time>2026-04-12T16:18:34.812Z</time></trkpt><trkpt lat="42.656575793502796" lon="11.934408697544743"><ele>311.0</ele><time>2026-04-12T16:18:35.812Z</time></trkpt><trkpt lat="42.65656569810397" lon="11.93473688913388"><ele>311.0</ele><time>2026-04-12T16:18:36.812Z</time></trkpt><trkpt lat="42.656547452536486" lon="11.9350823631858"><ele>311.5</ele><time>2026-04-12T16:18:37.812Z</time></trkpt><trkpt lat="42.65651682848548" lon="11.935417135905933"><ele>312.0</ele><time>2026-04-12T16:18:38.812Z</time></trkpt><trkpt lat="42.65648627066064" lon="11.935741184759468"><ele>311.5</ele><time>2026-04-12T16:18:39.812Z</time></trkpt><trkpt lat="42.65644687461055" lon="11.936042056988388"><ele>311.0</ele><time>2026-04-12T16:18:40.812Z</time></trkpt><trkpt lat="42.65639505988871" lon="11.936342665571626"><ele>311.0</ele><time>2026-04-12T16:18:41.812Z</time></trkpt><trkpt lat="42.65632012643656" lon="11.936617131454273"><ele>311.0</ele><time>2026-04-12T16:18:42.812Z</time></trkpt><trkpt lat="42.65623243899731" lon="11.936880695679422"><ele>311.0</ele><time>2026-04-12T16:18:43.812Z</time></trkpt><trkpt lat="42.65613466866435" lon="11.937137638307888"><ele>311.0</ele><time>2026-04-12T16:18:44.812Z</time></trkpt><trkpt lat="42.6560277227525" lon="11.937393629328103"><ele>311.0</ele><time>2026-04-12T16:18:45.812Z</time></trkpt><trkpt lat="42.65591978415608" lon="11.937658937556744"><ele>311.0</ele><time>2026-04-12T16:18:46.812Z</time></trkpt><trkpt lat="42.65580871119605" lon="11.93793630683008"><ele>310.5</ele><time>2026-04-12T16:18:47.812Z</time></trkpt><trkpt lat="42.65568877355223" lon="11.9382119857629"><ele>310.0</ele><time>2026-04-12T16:18:48.812Z</time></trkpt><trkpt lat="42.65557322370945" lon="11.938492453978629"><ele>310.0</ele><time>2026-04-12T16:18:49.812Z</time></trkpt><trkpt lat="42.65545546712671" lon="11.93878582605307"><ele>310.0</ele><time>2026-04-12T16:18:50.812Z</time></trkpt><trkpt lat="42.65533676387808" lon="11.93908364611812"><ele>309.5</ele><time>2026-04-12T16:18:51.812Z</time></trkpt><trkpt lat="42.65521408906794" lon="11.939382546601523"><ele>309.0</ele><time>2026-04-12T16:18:52.812Z</time></trkpt><trkpt lat="42.6550898751586" lon="11.939687257088634"><ele>309.0</ele><time>2026-04-12T16:18:53.812Z</time></trkpt><trkpt lat="42.65496869694386" lon="11.939995667903103"><ele>309.0</ele><time>2026-04-12T16:18:54.812Z</time></trkpt><trkpt lat="42.65484844496385" lon="11.940308243442933"><ele>308.0</ele><time>2026-04-12T16:18:55.812Z</time></trkpt><trkpt lat="42.6547244708993" lon="11.940626494843608"><ele>307.0</ele><time>2026-04-12T16:18:56.812Z</time></trkpt><trkpt lat="42.65460176807878" lon="11.940943356525127"><ele>307.0</ele><time>2026-04-12T16:18:57.812Z</time></trkpt><trkpt lat="42.654480688366924" lon="11.941258413707747"><ele>307.0</ele><time>2026-04-12T16:18:58.812Z</time></trkpt><trkpt lat="42.654368485213766" lon="11.941552694473575"><ele>306.0</ele><time>2026-04-12T16:18:59.812Z</time></trkpt><trkpt lat="42.65425975956883" lon="11.941836947040343"><ele>305.0</ele><time>2026-04-12T16:19:00.812Z</time></trkpt><trkpt lat="42.654155939631565" lon="11.942103566003594"><ele>305.0</ele><time>2026-04-12T16:19:01.812Z</time></trkpt><trkpt lat="42.654055871622" lon="11.942358477499416"><ele>305.0</ele><time>2026-04-12T16:19:02.812Z</time></trkpt><trkpt lat="42.653964935657946" lon="11.942605745673188"><ele>305.0</ele><time>2026-04-12T16:19:03.812Z</time></trkpt><trkpt lat="42.65387869688147" lon="11.942840533510857"><ele>305.6666666666667</ele><time>2026-04-12T16:19:04.812Z</time></trkpt><trkpt lat="42.65379261831805" lon="11.943060965964685"><ele>306.3333333333333</ele><time>2026-04-12T16:19:05.812Z</time></trkpt><trkpt lat="42.653707617641174" lon="11.943275485768282"><ele>307.0</ele><time>2026-04-12T16:19:06.811Z</time></trkpt><trkpt lat="42.653631247796056" lon="11.943483960218241"><ele>307.3333333333333</ele><time>2026-04-12T16:19:07.811Z</time></trkpt><trkpt lat="42.653550027966524" lon="11.943702409302885"><ele>307.6666666666667</ele><time>2026-04-12T16:19:08.811Z</time></trkpt><trkpt lat="42.65346033041423" lon="11.943931687004683"><ele>308.0</ele><time>2026-04-12T16:19:09.811Z</time></trkpt><trkpt lat="42.65336287109204" lon="11.94416314772478"><ele>307.6666666666667</ele><time>2026-04-12T16:19:10.811Z</time></trkpt><trkpt lat="42.65325145837429" lon="11.944402735631831"><ele>307.3333333333333</ele><time>2026-04-12T16:19:11.811Z</time></trkpt><trkpt lat="42.65312966880635" lon="11.944664554182872"><ele>307.0</ele><time>2026-04-12T16:19:12.811Z</time></trkpt><trkpt lat="42.653010605979375" lon="11.944951375041727"><ele>307.0</ele><time>2026-04-12T16:19:13.812Z</time></trkpt><trkpt lat="42.65290378164524" lon="11.945232388567236"><ele>307.0</ele><time>2026-04-12T16:19:14.813Z</time></trkpt><trkpt lat="42.65279792863644" lon="11.94550753490003"><ele>307.0</ele><time>2026-04-12T16:19:15.813Z</time></trkpt><trkpt lat="42.652700623157656" lon="11.945788515222183"><ele>307.0</ele><time>2026-04-12T16:19:16.814Z</time></trkpt><trkpt lat="42.65263208285686" lon="11.94608590695658"><ele>306.5</ele><time>2026-04-12T16:19:17.815Z</time></trkpt><trkpt lat="42.65259266495767" lon="11.946384857645812"><ele>306.0</ele><time>2026-04-12T16:19:18.816Z</time></trkpt><trkpt lat="42.6525720049795" lon="11.946691734582567"><ele>305.5</ele><time>2026-04-12T16:19:19.816Z</time></trkpt><trkpt lat="42.65255950861473" lon="11.94700758646476"><ele>305.0</ele><time>2026-04-12T16:19:20.817Z</time></trkpt><trkpt lat="42.652539165642914" lon="11.947329253096102"><ele>305.0</ele><time>2026-04-12T16:19:21.817Z</time></trkpt><trkpt lat="42.65251424908902" lon="11.947659154258169"><ele>305.0</ele><time>2026-04-12T16:19:22.818Z</time></trkpt><trkpt lat="42.65248720519154" lon="11.947991943309578"><ele>305.0</ele><time>2026-04-12T16:19:23.818Z</time></trkpt><trkpt lat="42.652460575794386" lon="11.948331423734597"><ele>305.0</ele><time>2026-04-12T16:19:24.819Z</time></trkpt><trkpt lat="42.652436527324355" lon="11.948666634212163"><ele>305.5</ele><time>2026-04-12T16:19:25.819Z</time></trkpt><trkpt lat="42.652408731502405" lon="11.94899886878915"><ele>306.0</ele><time>2026-04-12T16:19:26.82Z</time></trkpt><trkpt lat="42.652382696771326" lon="11.949328966406734"><ele>306.0</ele><time>2026-04-12T16:19:27.82Z</time></trkpt><trkpt lat="42.65235754733481" lon="11.949651801269882"><ele>306.0</ele><time>2026-04-12T16:19:28.82Z</time></trkpt><trkpt lat="42.65232986440574" lon="11.949969790330625"><ele>306.3333333333333</ele><time>2026-04-12T16:19:29.821Z</time></trkpt><trkpt lat="42.652297679544795" lon="11.950274200201116"><ele>306.66666666666663</ele><time>2026-04-12T16:19:30.821Z</time></trkpt><trkpt lat="42.65227376326241" lon="11.950565299027911"><ele>307.0</ele><time>2026-04-12T16:19:31.821Z</time></trkpt><trkpt lat="42.65225236996199" lon="11.950849757197545"><ele>306.66666666666663</ele><time>2026-04-12T16:19:32.821Z</time></trkpt><trkpt lat="42.65223000599471" lon="11.951135215614645"><ele>306.3333333333333</ele><time>2026-04-12T16:19:33.822Z</time></trkpt><trkpt lat="42.65220537602119" lon="11.95141365501245"><ele>306.0</ele><time>2026-04-12T16:19:34.822Z</time></trkpt><trkpt lat="42.65218261049807" lon="11.951684336501785"><ele>306.3333333333333</ele><time>2026-04-12T16:19:35.824Z</time></trkpt><trkpt lat="42.65215825181681" lon="11.951959062278402"><ele>306.66666666666663</ele><time>2026-04-12T16:19:36.824Z</time></trkpt><trkpt lat="42.652136079411434" lon="11.95224239999169"><ele>307.0</ele><time>2026-04-12T16:19:37.824Z</time></trkpt><trkpt lat="42.65210439211508" lon="11.952539914382891"><ele>307.0</ele><time>2026-04-12T16:19:38.824Z</time></trkpt><trkpt lat="42.652065739545016" lon="11.95284204430498"><ele>307.0</ele><time>2026-04-12T16:19:39.825Z</time></trkpt><trkpt lat="42.652024123221246" lon="11.953146096249347"><ele>307.0</ele><time>2026-04-12T16:19:40.825Z</time></trkpt><trkpt lat="42.651985198600016" lon="11.953454406600834"><ele>307.0</ele><time>2026-04-12T16:19:41.826Z</time></trkpt><trkpt lat="42.65194844802353" lon="11.953763354101337"><ele>307.0</ele><time>2026-04-12T16:19:42.825Z</time></trkpt><trkpt lat="42.65191263203316" lon="11.954079157808753"><ele>307.0</ele><time>2026-04-12T16:19:43.825Z</time></trkpt><trkpt lat="42.651873676313855" lon="11.954393266731014"><ele>307.0</ele><time>2026-04-12T16:19:44.825Z</time></trkpt><trkpt lat="42.65183515237769" lon="11.954711397024683"><ele>307.0</ele><time>2026-04-12T16:19:45.826Z</time></trkpt><trkpt lat="42.65179751122099" lon="11.955026545992826"><ele>308.0</ele><time>2026-04-12T16:19:46.826Z</time></trkpt><trkpt lat="42.65175388135684" lon="11.955335802435007"><ele>309.0</ele><time>2026-04-12T16:19:47.826Z</time></trkpt><trkpt lat="42.65171289902322" lon="11.955646505862191"><ele>308.5</ele><time>2026-04-12T16:19:48.826Z</time></trkpt><trkpt lat="42.651674720727705" lon="11.955953074735442"><ele>308.0</ele><time>2026-04-12T16:19:49.826Z</time></trkpt><trkpt lat="42.65163972137209" lon="11.956254084015757"><ele>308.0</ele><time>2026-04-12T16:19:50.827Z</time></trkpt><trkpt lat="42.651598644516994" lon="11.956553636846497"><ele>308.0</ele><time>2026-04-12T16:19:51.827Z</time></trkpt><trkpt lat="42.651556755409494" lon="11.956854667252816"><ele>308.0</ele><time>2026-04-12T16:19:52.827Z</time></trkpt><trkpt lat="42.65151109572837" lon="11.95715218791833"><ele>307.5</ele><time>2026-04-12T16:19:53.827Z</time></trkpt><trkpt lat="42.65146699769519" lon="11.957450877229846"><ele>307.0</ele><time>2026-04-12T16:19:54.827Z</time></trkpt><trkpt lat="42.65142275590859" lon="11.957753861363813"><ele>306.5</ele><time>2026-04-12T16:19:55.827Z</time></trkpt><trkpt lat="42.65137945129441" lon="11.958060435665685"><ele>306.0</ele><time>2026-04-12T16:19:56.827Z</time></trkpt><trkpt lat="42.65133471925451" lon="11.958370467637"><ele>306.0</ele><time>2026-04-12T16:19:57.827Z</time></trkpt><trkpt lat="42.65129180130387" lon="11.958680154829088"><ele>306.0</ele><time>2026-04-12T16:19:58.827Z</time></trkpt><trkpt lat="42.65125127482158" lon="11.958987313517415"><ele>306.3333333333333</ele><time>2026-04-12T16:19:59.827Z</time></trkpt><trkpt lat="42.65121737672298" lon="11.959281266521295"><ele>306.66666666666663</ele><time>2026-04-12T16:20:00.827Z</time></trkpt><trkpt lat="42.65118245684904" lon="11.95955959460226"><ele>307.0</ele><time>2026-04-12T16:20:01.827Z</time></trkpt><trkpt lat="42.65114583107263" lon="11.959844265663506"><ele>306.66666666666663</ele><time>2026-04-12T16:20:02.827Z</time></trkpt><trkpt lat="42.65111086783652" lon="11.960125711461673"><ele>306.3333333333333</ele><time>2026-04-12T16:20:03.827Z</time></trkpt><trkpt lat="42.651074456883975" lon="11.96041497198796"><ele>306.0</ele><time>2026-04-12T16:20:04.827Z</time></trkpt><trkpt lat="42.651027674775385" lon="11.960700572579455"><ele>307.0</ele><time>2026-04-12T16:20:05.827Z</time></trkpt><trkpt lat="42.65095698150022" lon="11.960995050327208"><ele>308.0</ele><time>2026-04-12T16:20:06.827Z</time></trkpt><trkpt lat="42.650893423936765" lon="11.961295812826586"><ele>308.0</ele><time>2026-04-12T16:20:07.827Z</time></trkpt><trkpt lat="42.65085633141498" lon="11.961615705508372"><ele>308.0</ele><time>2026-04-12T16:20:08.827Z</time></trkpt><trkpt lat="42.650817300716945" lon="11.961945558259886"><ele>307.5</ele><time>2026-04-12T16:20:09.827Z</time></trkpt><trkpt lat="42.65077848576695" lon="11.962266779350225"><ele>307.0</ele><time>2026-04-12T16:20:10.827Z</time></trkpt><trkpt lat="42.65073952149919" lon="11.962589236022792"><ele>306.5</ele><time>2026-04-12T16:20:11.827Z</time></trkpt><trkpt lat="42.65069924930468" lon="11.96292121393427"><ele>306.0</ele><time>2026-04-12T16:20:12.827Z</time></trkpt><trkpt lat="42.65065685272931" lon="11.963255501918779"><ele>306.5</ele><time>2026-04-12T16:20:13.827Z</time></trkpt><trkpt lat="42.650616094071445" lon="11.96357687540135"><ele>307.0</ele><time>2026-04-12T16:20:14.827Z</time></trkpt><trkpt lat="42.650574198122385" lon="11.96390721615257"><ele>307.5</ele><time>2026-04-12T16:20:15.827Z</time></trkpt><trkpt lat="42.650507366045034" lon="11.96421239858218"><ele>308.0</ele><time>2026-04-12T16:20:16.827Z</time></trkpt><trkpt lat="42.65043742325056" lon="11.964508533654712"><ele>308.0</ele><time>2026-04-12T16:20:17.827Z</time></trkpt><trkpt lat="42.650359999914315" lon="11.964823534108305"><ele>308.0</ele><time>2026-04-12T16:20:18.827Z</time></trkpt><trkpt lat="42.64980759752906" lon="11.96495495392628"><ele>308.0</ele><time>2026-04-12T16:20:19.827Z</time></trkpt><trkpt lat="42.65050015038551" lon="11.964964795287507"><ele>307.6666666666667</ele><time>2026-04-12T16:20:20.827Z</time></trkpt><trkpt lat="42.65046271013228" lon="11.9652474068243"><ele>307.3333333333333</ele><time>2026-04-12T16:20:21.827Z</time></trkpt><trkpt lat="42.65041926735098" lon="11.965539102337033"><ele>307.0</ele><time>2026-04-12T16:20:22.827Z</time></trkpt><trkpt lat="42.65038149023935" lon="11.965826600235502"><ele>307.0</ele><time>2026-04-12T16:20:23.827Z</time></trkpt><trkpt lat="42.65033871895939" lon="11.966108689189594"><ele>307.0</ele><time>2026-04-12T16:20:24.827Z</time></trkpt><trkpt lat="42.65029325600309" lon="11.966393481847915"><ele>307.0</ele><time>2026-04-12T16:20:25.827Z</time></trkpt><trkpt lat="42.650251499786975" lon="11.966670953577568"><ele>307.0</ele><time>2026-04-12T16:20:26.827Z</time></trkpt><trkpt lat="42.65021139139982" lon="11.966926352652285"><ele>307.0</ele><time>2026-04-12T16:20:27.827Z</time></trkpt><trkpt lat="42.6501761983557" lon="11.967168705304815"><ele>307.0</ele><time>2026-04-12T16:20:28.827Z</time></trkpt><trkpt lat="42.65013469674263" lon="11.967407935133078"><ele>307.0</ele><time>2026-04-12T16:20:29.827Z</time></trkpt><trkpt lat="42.65008750222678" lon="11.967655128730534"><ele>307.0</ele><time>2026-04-12T16:20:30.827Z</time></trkpt><trkpt lat="42.650037707721744" lon="11.967912291434642"><ele>307.0</ele><time>2026-04-12T16:20:31.827Z</time></trkpt><trkpt lat="42.64998747799914" lon="11.968176306832092"><ele>307.0</ele><time>2026-04-12T16:20:32.827Z</time></trkpt><trkpt lat="42.64993264603487" lon="11.968444148278637"><ele>307.0</ele><time>2026-04-12T16:20:33.827Z</time></trkpt><trkpt lat="42.649874077571965" lon="11.968717888378631"><ele>307.0</ele><time>2026-04-12T16:20:34.827Z</time></trkpt><trkpt lat="42.64980782975452" lon="11.9689957111282"><ele>306.66666666666663</ele><time>2026-04-12T16:20:35.827Z</time></trkpt><trkpt lat="42.6497387628248" lon="11.969274205373472"><ele>306.3333333333333</ele><time>2026-04-12T16:20:36.827Z</time></trkpt><trkpt lat="42.64966935975674" lon="11.969550953438379"><ele>306.0</ele><time>2026-04-12T16:20:37.827Z</time></trkpt><trkpt lat="42.6495957330632" lon="11.969830409293158"><ele>306.3333333333333</ele><time>2026-04-12T16:20:38.827Z</time></trkpt><trkpt lat="42.64952345855994" lon="11.970118682402083"><ele>306.66666666666663</ele><time>2026-04-12T16:20:39.826Z</time></trkpt><trkpt lat="42.64944852156551" lon="11.9703977133961"><ele>307.0</ele><time>2026-04-12T16:20:40.826Z</time></trkpt><trkpt lat="42.649381160535484" lon="11.97065547906829"><ele>306.66666666666663</ele><time>2026-04-12T16:20:41.826Z</time></trkpt><trkpt lat="42.64931507762056" lon="11.970911753295216"><ele>306.3333333333333</ele><time>2026-04-12T16:20:42.826Z</time></trkpt><trkpt lat="42.64925241320307" lon="11.971150458111312"><ele>306.0</ele><time>2026-04-12T16:20:43.826Z</time></trkpt><trkpt lat="42.649186367928145" lon="11.97139742451345"><ele>306.0</ele><time>2026-04-12T16:20:44.826Z</time></trkpt><trkpt lat="42.649122155742106" lon="11.971649557943408"><ele>306.0</ele><time>2026-04-12T16:20:45.826Z</time></trkpt><trkpt lat="42.64904907551733" lon="11.971908018677606"><ele>306.0</ele><time>2026-04-12T16:20:46.826Z</time></trkpt><trkpt lat="42.64899161485389" lon="11.972190351514055"><ele>306.0</ele><time>2026-04-12T16:20:47.826Z</time></trkpt><trkpt lat="42.648929132567815" lon="11.972478976063174"><ele>306.0</ele><time>2026-04-12T16:20:48.826Z</time></trkpt><trkpt lat="42.648863983290425" lon="11.972763590648132"><ele>306.0</ele><time>2026-04-12T16:20:49.826Z</time></trkpt><trkpt lat="42.648799788784466" lon="11.973046342729923"><ele>306.3333333333333</ele><time>2026-04-12T16:20:50.826Z</time></trkpt><trkpt lat="42.64874385583892" lon="11.973333160246893"><ele>306.66666666666663</ele><time>2026-04-12T16:20:51.826Z</time></trkpt><trkpt lat="42.64868672969188" lon="11.973616354121669"><ele>307.0</ele><time>2026-04-12T16:20:52.826Z</time></trkpt><trkpt lat="42.64862351294312" lon="11.973891772662778"><ele>307.3333333333333</ele><time>2026-04-12T16:20:53.826Z</time></trkpt><trkpt lat="42.64856827690075" lon="11.97417172576096"><ele>307.6666666666667</ele><time>2026-04-12T16:20:54.826Z</time></trkpt><trkpt lat="42.64851274050009" lon="11.974441829702629"><ele>308.0</ele><time>2026-04-12T16:20:55.826Z</time></trkpt><trkpt lat="42.648451876723655" lon="11.97471561203171"><ele>308.0</ele><time>2026-04-12T16:20:56.826Z</time></trkpt><trkpt lat="42.64838306817148" lon="11.97498534592641"><ele>308.0</ele><time>2026-04-12T16:20:57.826Z</time></trkpt><trkpt lat="42.64831855033882" lon="11.975251160086874"><ele>308.0</ele><time>2026-04-12T16:20:58.826Z</time></trkpt><trkpt lat="42.64825426768891" lon="11.97551724141767"><ele>308.33333333333337</ele><time>2026-04-12T16:20:59.826Z</time></trkpt><trkpt lat="42.6481911945447" lon="11.975783395290582"><ele>308.6666666666667</ele><time>2026-04-12T16:21:00.826Z</time></trkpt><trkpt lat="42.64812681564234" lon="11.976047600311817"><ele>309.0</ele><time>2026-04-12T16:21:01.826Z</time></trkpt><trkpt lat="42.64806105777001" lon="11.976313443344038"><ele>309.6666666666667</ele><time>2026-04-12T16:21:02.826Z</time></trkpt><trkpt lat="42.64799623510736" lon="11.976577882125953"><ele>310.33333333333337</ele><time>2026-04-12T16:21:03.826Z</time></trkpt><trkpt lat="42.647934903427405" lon="11.976840193358429"><ele>311.0</ele><time>2026-04-12T16:21:04.826Z</time></trkpt><trkpt lat="42.647878869245204" lon="11.9770997054954"><ele>311.6666666666667</ele><time>2026-04-12T16:21:05.826Z</time></trkpt><trkpt lat="42.64782042779838" lon="11.977355193812588"><ele>312.3333333333333</ele><time>2026-04-12T16:21:06.826Z</time></trkpt><trkpt lat="42.647754444151005" lon="11.977591837224104"><ele>313.0</ele><time>2026-04-12T16:21:07.826Z</time></trkpt><trkpt lat="42.64768562939254" lon="11.977825431057049"><ele>313.0</ele><time>2026-04-12T16:21:08.826Z</time></trkpt><trkpt lat="42.64761981761108" lon="11.978053292086821"><ele>313.0</ele><time>2026-04-12T16:21:09.826Z</time></trkpt><trkpt lat="42.64756251976633" lon="11.978263952875839"><ele>313.0</ele><time>2026-04-12T16:21:10.826Z</time></trkpt><trkpt lat="42.64750434980046" lon="11.978471262224057"><ele>313.3333333333333</ele><time>2026-04-12T16:21:11.826Z</time></trkpt><trkpt lat="42.64744921912967" lon="11.978686537247821"><ele>313.6666666666667</ele><time>2026-04-12T16:21:12.826Z</time></trkpt><trkpt lat="42.647392613366755" lon="11.978911039282677"><ele>314.0</ele><time>2026-04-12T16:21:13.826Z</time></trkpt><trkpt lat="42.6473344761358" lon="11.979132465583724"><ele>315.6666666666667</ele><time>2026-04-12T16:21:14.826Z</time></trkpt><trkpt lat="42.64727913790142" lon="11.979348399943152"><ele>317.3333333333333</ele><time>2026-04-12T16:21:15.826Z</time></trkpt><trkpt lat="42.647223244356304" lon="11.979567170785684"><ele>319.0</ele><time>2026-04-12T16:21:16.826Z</time></trkpt><trkpt lat="42.64716879345807" lon="11.979778987233633"><ele>319.0</ele><time>2026-04-12T16:21:17.826Z</time></trkpt><trkpt lat="42.64711973114244" lon="11.979981297358593"><ele>319.0</ele><time>2026-04-12T16:21:18.826Z</time></trkpt><trkpt lat="42.64706626280337" lon="11.980173652005575"><ele>319.0</ele><time>2026-04-12T16:21:19.826Z</time></trkpt><trkpt lat="42.6470162745263" lon="11.980368627460248"><ele>319.66666666666663</ele><time>2026-04-12T16:21:20.825Z</time></trkpt><trkpt lat="42.646965389926926" lon="11.98056940945527"><ele>320.3333333333333</ele><time>2026-04-12T16:21:21.825Z</time></trkpt><trkpt lat="42.64691129349073" lon="11.980771826729923"><ele>321.0</ele><time>2026-04-12T16:21:22.825Z</time></trkpt><trkpt lat="42.64686208008775" lon="11.980965388214745"><ele>320.75</ele><time>2026-04-12T16:21:23.825Z</time></trkpt><trkpt lat="42.64681089598469" lon="11.981153334121876"><ele>320.5</ele><time>2026-04-12T16:21:24.825Z</time></trkpt><trkpt lat="42.64675980846321" lon="11.981337765932832"><ele>320.25</ele><time>2026-04-12T16:21:25.825Z</time></trkpt><trkpt lat="42.64671327191121" lon="11.981527053523706"><ele>320.0</ele><time>2026-04-12T16:21:26.825Z</time></trkpt><trkpt lat="42.64666550914728" lon="11.981703742588182"><ele>320.0</ele><time>2026-04-12T16:21:27.825Z</time></trkpt><trkpt lat="42.64661717499742" lon="11.981879679567475"><ele>320.0</ele><time>2026-04-12T16:21:28.825Z</time></trkpt><trkpt lat="42.6465790247741" lon="11.98206164689027"><ele>320.0</ele><time>2026-04-12T16:21:29.825Z</time></trkpt><trkpt lat="42.64653566919376" lon="11.982231638532749"><ele>320.0</ele><time>2026-04-12T16:21:30.825Z</time></trkpt><trkpt lat="42.646488921640916" lon="11.982396541343798"><ele>320.25</ele><time>2026-04-12T16:21:31.825Z</time></trkpt><trkpt lat="42.64643143551644" lon="11.982547924394453"><ele>320.5</ele><time>2026-04-12T16:21:32.825Z</time></trkpt><trkpt lat="42.646367050442215" lon="11.982684547441226"><ele>320.75</ele><time>2026-04-12T16:21:33.825Z</time></trkpt><trkpt lat="42.64630002818571" lon="11.9828169763952"><ele>321.0</ele><time>2026-04-12T16:21:34.825Z</time></trkpt><trkpt lat="42.64622305705368" lon="11.982947938044578"><ele>321.0</ele><time>2026-04-12T16:21:35.825Z</time></trkpt><trkpt lat="42.646133040766955" lon="11.983076371830796"><ele>321.0</ele><time>2026-04-12T16:21:36.825Z</time></trkpt><trkpt lat="42.64602319467797" lon="11.983185758226833"><ele>321.0</ele><time>2026-04-12T16:21:37.825Z</time></trkpt><trkpt lat="42.645930097113265" lon="11.983337270072504"><ele>321.0</ele><time>2026-04-12T16:21:38.825Z</time></trkpt><trkpt lat="42.64583057427475" lon="11.983473501432448"><ele>320.75</ele><time>2026-04-12T16:21:39.825Z</time></trkpt><trkpt lat="42.64573686749646" lon="11.983612921282566"><ele>320.5</ele><time>2026-04-12T16:21:40.825Z</time></trkpt><trkpt lat="42.64564463636377" lon="11.983745166145145"><ele>320.25</ele><time>2026-04-12T16:21:41.827Z</time></trkpt><trkpt lat="42.64555408467451" lon="11.983878443638643"><ele>320.0</ele><time>2026-04-12T16:21:42.827Z</time></trkpt><trkpt lat="42.64546744581496" lon="11.98400416967241"><ele>320.0</ele><time>2026-04-12T16:21:43.827Z</time></trkpt><trkpt lat="42.645371046734205" lon="11.984139621707103"><ele>320.0</ele><time>2026-04-12T16:21:44.827Z</time></trkpt><trkpt lat="42.64528423812861" lon="11.984265202045613"><ele>320.0</ele><time>2026-04-12T16:21:45.827Z</time></trkpt><trkpt lat="42.64520073609981" lon="11.984384802587405"><ele>320.0</ele><time>2026-04-12T16:21:46.827Z</time></trkpt><trkpt lat="42.64512503515182" lon="11.984527077166232"><ele>319.4</ele><time>2026-04-12T16:21:47.826Z</time></trkpt><trkpt lat="42.645067715000195" lon="11.984667196251557"><ele>318.8</ele><time>2026-04-12T16:21:48.827Z</time></trkpt><trkpt lat="42.64500351725705" lon="11.9848013415406"><ele>318.2</ele><time>2026-04-12T16:21:49.827Z</time></trkpt><trkpt lat="42.64494348233538" lon="11.98491981955244"><ele>317.6</ele><time>2026-04-12T16:21:50.827Z</time></trkpt><trkpt lat="42.64486571716923" lon="11.985015325127634"><ele>317.0</ele><time>2026-04-12T16:21:51.827Z</time></trkpt><trkpt lat="42.644803163150776" lon="11.985112401251701"><ele>318.5</ele><time>2026-04-12T16:21:52.827Z</time></trkpt><trkpt lat="42.64474411988837" lon="11.985175259102217"><ele>320.0</ele><time>2026-04-12T16:21:53.827Z</time></trkpt><trkpt lat="42.64469467221593" lon="11.985231884363973"><ele>321.5</ele><time>2026-04-12T16:21:54.827Z</time></trkpt><trkpt lat="42.64463271200026" lon="11.985290215006666"><ele>323.0</ele><time>2026-04-12T16:21:55.827Z</time></trkpt><trkpt lat="42.644571533472636" lon="11.985366274792362"><ele>324.5</ele><time>2026-04-12T16:21:56.827Z</time></trkpt><trkpt lat="42.644512945477835" lon="11.985439113489525"><ele>326.0</ele><time>2026-04-12T16:21:57.827Z</time></trkpt><trkpt lat="42.64447267191072" lon="11.985525686916011"><ele>325.0</ele><time>2026-04-12T16:21:58.827Z</time></trkpt><trkpt lat="42.644430083996056" lon="11.98559350202432"><ele>324.0</ele><time>2026-04-12T16:21:59.827Z</time></trkpt><trkpt lat="42.64438987969388" lon="11.985671261942842"><ele>323.0</ele><time>2026-04-12T16:22:00.827Z</time></trkpt><trkpt lat="42.644349582444974" lon="11.985760755094471"><ele>322.0</ele><time>2026-04-12T16:22:01.827Z</time></trkpt><trkpt lat="42.64431384697275" lon="11.985835426000913"><ele>321.0</ele><time>2026-04-12T16:22:02.827Z</time></trkpt><trkpt lat="42.64427199466528" lon="11.985965842796526"><ele>320.0</ele><time>2026-04-12T16:22:04.827Z</time></trkpt><trkpt lat="42.64425660984022" lon="11.986064427694814"><ele>320.0</ele><time>2026-04-12T16:22:06.827Z</time></trkpt><trkpt lat="42.64424008389645" lon="11.98615587104812"><ele>320.0</ele><time>2026-04-12T16:22:08.827Z</time></trkpt><trkpt lat="42.64420388593218" lon="11.986233932341875"><ele>320.0</ele><time>2026-04-12T16:22:29.826Z</time></trkpt><trkpt lat="42.644178328922045" lon="11.986323530407619"><ele>320.0</ele><time>2026-04-12T16:22:31.826Z</time></trkpt><trkpt lat="42.64412865541011" lon="11.986426265570236"><ele>320.0</ele><time>2026-04-12T16:22:35.826Z</time></trkpt><trkpt lat="42.6440742895524" lon="11.986503241139356"><ele>320.0</ele><time>2026-04-12T16:22:36.826Z</time></trkpt><trkpt lat="42.64400085635548" lon="11.986587079397896"><ele>319.5</ele><time>2026-04-12T16:22:37.826Z</time></trkpt><trkpt lat="42.64391762876433" lon="11.986683989905545"><ele>319.0</ele><time>2026-04-12T16:22:38.826Z</time></trkpt><trkpt lat="42.643815233707855" lon="11.98680321872794"><ele>318.5</ele><time>2026-04-12T16:22:39.826Z</time></trkpt><trkpt lat="42.643706201415675" lon="11.98692169931371"><ele>318.0</ele><time>2026-04-12T16:22:40.826Z</time></trkpt><trkpt lat="42.64359078494592" lon="11.987045803230012"><ele>318.0</ele><time>2026-04-12T16:22:41.826Z</time></trkpt><trkpt lat="42.643480738650794" lon="11.98716211499765"><ele>318.0</ele><time>2026-04-12T16:22:42.826Z</time></trkpt><trkpt lat="42.64338305382963" lon="11.987292515489878"><ele>318.0</ele><time>2026-04-12T16:22:43.826Z</time></trkpt><trkpt lat="42.643252268787386" lon="11.987380582151"><ele>318.0</ele><time>2026-04-12T16:22:44.826Z</time></trkpt><trkpt lat="42.643151958151094" lon="11.987500074845983"><ele>318.75</ele><time>2026-04-12T16:22:45.826Z</time></trkpt><trkpt lat="42.643047289934955" lon="11.987614091136471"><ele>319.5</ele><time>2026-04-12T16:22:46.826Z</time></trkpt><trkpt lat="42.64293818604665" lon="11.987725200291852"><ele>320.25</ele><time>2026-04-12T16:22:47.826Z</time></trkpt><trkpt lat="42.642824647583495" lon="11.987841938996517"><ele>321.0</ele><time>2026-04-12T16:22:48.826Z</time></trkpt><trkpt lat="42.64271916232552" lon="11.987952448586762"><ele>320.5</ele><time>2026-04-12T16:22:49.825Z</time></trkpt><trkpt lat="42.64261141664703" lon="11.988063595037211"><ele>320.0</ele><time>2026-04-12T16:22:50.825Z</time></trkpt><trkpt lat="42.64250046102096" lon="11.988173062883375"><ele>319.5</ele><time>2026-04-12T16:22:51.825Z</time></trkpt><trkpt lat="42.642389866279984" lon="11.988285112267546"><ele>319.0</ele><time>2026-04-12T16:22:52.825Z</time></trkpt><trkpt lat="42.64229102814057" lon="11.988405256913142"><ele>319.0</ele><time>2026-04-12T16:22:53.825Z</time></trkpt><trkpt lat="42.64219595837111" lon="11.988520550202905"><ele>319.0</ele><time>2026-04-12T16:22:54.825Z</time></trkpt><trkpt lat="42.642112029103465" lon="11.988643495587247"><ele>319.0</ele><time>2026-04-12T16:22:55.825Z</time></trkpt><trkpt lat="42.642034407236224" lon="11.988764287011561"><ele>319.0</ele><time>2026-04-12T16:22:56.825Z</time></trkpt><trkpt lat="42.641964556821904" lon="11.988887419689181"><ele>319.2</ele><time>2026-04-12T16:22:57.825Z</time></trkpt><trkpt lat="42.641895869481104" lon="11.98900239873809"><ele>319.4</ele><time>2026-04-12T16:22:58.825Z</time></trkpt><trkpt lat="42.64182642614387" lon="11.989126901284152"><ele>319.6</ele><time>2026-04-12T16:22:59.825Z</time></trkpt><trkpt lat="42.641762238894735" lon="11.989248464699765"><ele>319.8</ele><time>2026-04-12T16:23:00.825Z</time></trkpt><trkpt lat="42.64169517279067" lon="11.989369941227345"><ele>320.0</ele><time>2026-04-12T16:23:01.825Z</time></trkpt><trkpt lat="42.6416255762889" lon="11.98949249470728"><ele>320.0</ele><time>2026-04-12T16:23:02.825Z</time></trkpt><trkpt lat="42.641557519300534" lon="11.989602194887523"><ele>320.0</ele><time>2026-04-12T16:23:03.825Z</time></trkpt><trkpt lat="42.641485214370526" lon="11.989717070511084"><ele>320.0</ele><time>2026-04-12T16:23:04.825Z</time></trkpt><trkpt lat="42.6414129801136" lon="11.989841523109202"><ele>320.0</ele><time>2026-04-12T16:23:05.825Z</time></trkpt><trkpt lat="42.6413369554409" lon="11.989969058113264"><ele>320.0</ele><time>2026-04-12T16:23:06.825Z</time></trkpt><trkpt lat="42.64126038689723" lon="11.990091065992669"><ele>320.0</ele><time>2026-04-12T16:23:07.825Z</time></trkpt><trkpt lat="42.6411638411078" lon="11.990214940963098"><ele>320.0</ele><time>2026-04-12T16:23:08.825Z</time></trkpt><trkpt lat="42.64106116990036" lon="11.99032157940964"><ele>320.0</ele><time>2026-04-12T16:23:09.825Z</time></trkpt><trkpt lat="42.64094976274611" lon="11.990418190822513"><ele>320.0</ele><time>2026-04-12T16:23:10.825Z</time></trkpt><trkpt lat="42.64083006392873" lon="11.990514444245878"><ele>320.0</ele><time>2026-04-12T16:23:11.825Z</time></trkpt><trkpt lat="42.64071845017218" lon="11.990605566565684"><ele>320.0</ele><time>2026-04-12T16:23:12.825Z</time></trkpt><trkpt lat="42.6406027890489" lon="11.990708798055818"><ele>320.0</ele><time>2026-04-12T16:23:13.825Z</time></trkpt><trkpt lat="42.64048296762892" lon="11.990806927593644"><ele>320.0</ele><time>2026-04-12T16:23:14.825Z</time></trkpt><trkpt lat="42.6403618355269" lon="11.990900693361432"><ele>320.0</ele><time>2026-04-12T16:23:15.825Z</time></trkpt><trkpt lat="42.64024011149264" lon="11.990990588408367"><ele>320.0</ele><time>2026-04-12T16:23:16.825Z</time></trkpt><trkpt lat="42.64011901760793" lon="11.991093423792798"><ele>320.0</ele><time>2026-04-12T16:23:17.825Z</time></trkpt><trkpt lat="42.64000110951221" lon="11.991194900187141"><ele>320.0</ele><time>2026-04-12T16:23:18.825Z</time></trkpt><trkpt lat="42.63987445897267" lon="11.991301123309515"><ele>320.0</ele><time>2026-04-12T16:23:19.825Z</time></trkpt><trkpt lat="42.63974162725447" lon="11.991406390745329"><ele>320.0</ele><time>2026-04-12T16:23:20.825Z</time></trkpt><trkpt lat="42.63961323444011" lon="11.991526178871693"><ele>320.0</ele><time>2026-04-12T16:23:21.825Z</time></trkpt><trkpt lat="42.63948632383603" lon="11.991668838065753"><ele>320.0</ele><time>2026-04-12T16:23:22.825Z</time></trkpt><trkpt lat="42.63936440223388" lon="11.991827558417329"><ele>320.0</ele><time>2026-04-12T16:23:23.825Z</time></trkpt><trkpt lat="42.63923978902531" lon="11.991997394801402"><ele>321.0</ele><time>2026-04-12T16:23:24.825Z</time></trkpt><trkpt lat="42.63911123034391" lon="11.992161926845133"><ele>322.0</ele><time>2026-04-12T16:23:25.825Z</time></trkpt><trkpt lat="42.63898116633409" lon="11.992329459595227"><ele>323.0</ele><time>2026-04-12T16:23:26.825Z</time></trkpt><trkpt lat="42.63884989897962" lon="11.99249708283129"><ele>321.6666666666667</ele><time>2026-04-12T16:23:27.825Z</time></trkpt><trkpt lat="42.63871639860228" lon="11.992664363885135"><ele>320.3333333333333</ele><time>2026-04-12T16:23:28.824Z</time></trkpt><trkpt lat="42.63857651030714" lon="11.992820985453546"><ele>319.0</ele><time>2026-04-12T16:23:29.824Z</time></trkpt><trkpt lat="42.638427766054214" lon="11.99296185740525"><ele>319.0</ele><time>2026-04-12T16:23:30.824Z</time></trkpt><trkpt lat="42.6382720034044" lon="11.993084903613434"><ele>319.0</ele><time>2026-04-12T16:23:31.824Z</time></trkpt><trkpt lat="42.63811664831948" lon="11.993199363781487"><ele>319.0</ele><time>2026-04-12T16:23:32.824Z</time></trkpt><trkpt lat="42.63796185060563" lon="11.9933167512307"><ele>318.3333333333333</ele><time>2026-04-12T16:23:33.824Z</time></trkpt><trkpt lat="42.63780936556239" lon="11.993451717530537"><ele>317.6666666666667</ele><time>2026-04-12T16:23:34.824Z</time></trkpt><trkpt lat="42.63765533142204" lon="11.99358959380474"><ele>317.0</ele><time>2026-04-12T16:23:35.824Z</time></trkpt><trkpt lat="42.63750027159805" lon="11.993729772745"><ele>317.0</ele><time>2026-04-12T16:23:36.824Z</time></trkpt><trkpt lat="42.637343930705455" lon="11.993872095787316"><ele>317.0</ele><time>2026-04-12T16:23:37.824Z</time></trkpt><trkpt lat="42.63718621512214" lon="11.994010057368811"><ele>317.0</ele><time>2026-04-12T16:23:38.824Z</time></trkpt><trkpt lat="42.63703042937873" lon="11.994147294486227"><ele>317.6666666666667</ele><time>2026-04-12T16:23:39.824Z</time></trkpt><trkpt lat="42.636872993485895" lon="11.994281544346602"><ele>318.3333333333333</ele><time>2026-04-12T16:23:40.824Z</time></trkpt><trkpt lat="42.63671714654777" lon="11.994410678043131"><ele>319.0</ele><time>2026-04-12T16:23:41.824Z</time></trkpt><trkpt lat="42.63655009812612" lon="11.994522016442557"><ele>319.0</ele><time>2026-04-12T16:23:42.824Z</time></trkpt><trkpt lat="42.63637283159063" lon="11.994612346246456"><ele>319.0</ele><time>2026-04-12T16:23:43.824Z</time></trkpt><trkpt lat="42.6361929962983" lon="11.994695848799367"><ele>319.0</ele><time>2026-04-12T16:23:44.824Z</time></trkpt><trkpt lat="42.636009584296836" lon="11.994769951154774"><ele>317.3333333333333</ele><time>2026-04-12T16:23:45.824Z</time></trkpt><trkpt lat="42.63582276304341" lon="11.994819559804522"><ele>315.6666666666667</ele><time>2026-04-12T16:23:46.824Z</time></trkpt><trkpt lat="42.635632083173384" lon="11.99487220289904"><ele>314.0</ele><time>2026-04-12T16:23:47.826Z</time></trkpt><trkpt lat="42.635448675184996" lon="11.994928304330383"><ele>314.33333333333337</ele><time>2026-04-12T16:23:48.826Z</time></trkpt><trkpt lat="42.63525897401565" lon="11.994985063680069"><ele>314.6666666666667</ele><time>2026-04-12T16:23:49.826Z</time></trkpt><trkpt lat="42.6350707511687" lon="11.9950454264034"><ele>315.0</ele><time>2026-04-12T16:23:50.826Z</time></trkpt><trkpt lat="42.634878325599075" lon="11.995102117483059"><ele>316.0</ele><time>2026-04-12T16:23:51.827Z</time></trkpt><trkpt lat="42.63468791717353" lon="11.995175414270633"><ele>317.0</ele><time>2026-04-12T16:23:52.827Z</time></trkpt><trkpt lat="42.63450875818643" lon="11.9952739892856"><ele>318.0</ele><time>2026-04-12T16:23:53.827Z</time></trkpt><trkpt lat="42.63433657520825" lon="11.995392524273848"><ele>318.0</ele><time>2026-04-12T16:23:54.826Z</time></trkpt><trkpt lat="42.63416701012436" lon="11.995527227224882"><ele>318.0</ele><time>2026-04-12T16:23:55.826Z</time></trkpt><trkpt lat="42.63399118364763" lon="11.99567627573466"><ele>318.0</ele><time>2026-04-12T16:23:56.827Z</time></trkpt><trkpt lat="42.63381699423932" lon="11.995828190923067"><ele>322.0</ele><time>2026-04-12T16:23:57.826Z</time></trkpt><trkpt lat="42.63364419580602" lon="11.995988607317447"><ele>326.0</ele><time>2026-04-12T16:23:58.826Z</time></trkpt><trkpt lat="42.63346241462678" lon="11.996169809041332"><ele>330.0</ele><time>2026-04-12T16:23:59.826Z</time></trkpt><trkpt lat="42.63327813308573" lon="11.99635874262714"><ele>330.0</ele><time>2026-04-12T16:24:00.826Z</time></trkpt><trkpt lat="42.633081524646556" lon="11.996517985205749"><ele>330.0</ele><time>2026-04-12T16:24:01.826Z</time></trkpt><trkpt lat="42.63288132634113" lon="11.996676747183178"><ele>333.3333333333333</ele><time>2026-04-12T16:24:02.826Z</time></trkpt><trkpt lat="42.63268946351127" lon="11.996814511541197"><ele>336.66666666666663</ele><time>2026-04-12T16:24:03.826Z</time></trkpt><trkpt lat="42.632506187684854" lon="11.996935079578643"><ele>340.0</ele><time>2026-04-12T16:24:04.826Z</time></trkpt><trkpt lat="42.632319890243714" lon="11.997057079993924"><ele>340.0</ele><time>2026-04-12T16:24:05.826Z</time></trkpt><trkpt lat="42.63211986115743" lon="11.997182689502727"><ele>340.0</ele><time>2026-04-12T16:24:06.826Z</time></trkpt><trkpt lat="42.631923589554205" lon="11.997302104221133"><ele>340.0</ele><time>2026-04-12T16:24:07.826Z</time></trkpt><trkpt lat="42.63173134589743" lon="11.997419068269258"><ele>344.0</ele><time>2026-04-12T16:24:08.826Z</time></trkpt><trkpt lat="42.63155618964343" lon="11.997525636074526"><ele>348.0</ele><time>2026-04-12T16:24:09.826Z</time></trkpt><trkpt lat="42.63136986762384" lon="11.997637528809383"><ele>352.0</ele><time>2026-04-12T16:24:10.826Z</time></trkpt><trkpt lat="42.63117717218978" lon="11.997746992075358"><ele>347.66666666666663</ele><time>2026-04-12T16:24:11.826Z</time></trkpt><trkpt lat="42.63097818343397" lon="11.997850693840117"><ele>343.3333333333333</ele><time>2026-04-12T16:24:12.826Z</time></trkpt><trkpt lat="42.6307740516873" lon="11.997949626503344"><ele>339.0</ele><time>2026-04-12T16:24:13.826Z</time></trkpt><trkpt lat="42.63055686982232" lon="11.998039468374454"><ele>339.0</ele><time>2026-04-12T16:24:14.826Z</time></trkpt><trkpt lat="42.63034215506545" lon="11.998140286022517"><ele>339.0</ele><time>2026-04-12T16:24:15.826Z</time></trkpt><trkpt lat="42.63010930783553" lon="11.9981820516206"><ele>332.5</ele><time>2026-04-12T16:24:16.826Z</time></trkpt><trkpt lat="42.62988181175373" lon="11.99822966941478"><ele>326.0</ele><time>2026-04-12T16:24:17.826Z</time></trkpt><trkpt lat="42.629651908028265" lon="11.998260232988462"><ele>322.0</ele><time>2026-04-12T16:24:18.826Z</time></trkpt><trkpt lat="42.62942091957063" lon="11.998279787259028"><ele>318.0</ele><time>2026-04-12T16:24:19.826Z</time></trkpt><trkpt lat="42.62918834496072" lon="11.998303800009811"><ele>329.5</ele><time>2026-04-12T16:24:20.826Z</time></trkpt><trkpt lat="42.62895906410107" lon="11.998353180384521"><ele>341.0</ele><time>2026-04-12T16:24:21.826Z</time></trkpt><trkpt lat="42.62873002792779" lon="11.998414926171627"><ele>337.0</ele><time>2026-04-12T16:24:22.826Z</time></trkpt><trkpt lat="42.62849471125348" lon="11.99847383289818"><ele>333.0</ele><time>2026-04-12T16:24:23.826Z</time></trkpt><trkpt lat="42.62825797891773" lon="11.998549195439553"><ele>333.0</ele><time>2026-04-12T16:24:24.826Z</time></trkpt><trkpt lat="42.62802695344505" lon="11.99864962868169"><ele>333.0</ele><time>2026-04-12T16:24:25.826Z</time></trkpt><trkpt lat="42.62780284083139" lon="11.998761458948367"><ele>330.0</ele><time>2026-04-12T16:24:26.825Z</time></trkpt><trkpt lat="42.62756984507791" lon="11.998871917735402"><ele>327.0</ele><time>2026-04-12T16:24:27.825Z</time></trkpt><trkpt lat="42.627323281923026" lon="11.998971049820845"><ele>327.0</ele><time>2026-04-12T16:24:28.825Z</time></trkpt><trkpt lat="42.627087624630725" lon="11.99906288646338"><ele>327.0</ele><time>2026-04-12T16:24:29.825Z</time></trkpt><trkpt lat="42.6268443618135" lon="11.99915421979247"><ele>340.0</ele><time>2026-04-12T16:24:30.825Z</time></trkpt><trkpt lat="42.62660606454582" lon="11.999235415518376"><ele>353.0</ele><time>2026-04-12T16:24:31.825Z</time></trkpt><trkpt lat="42.626350112270764" lon="11.999280928061255"><ele>348.0</ele><time>2026-04-12T16:24:32.825Z</time></trkpt><trkpt lat="42.62607926285561" lon="11.99930943881838"><ele>343.0</ele><time>2026-04-12T16:24:33.825Z</time></trkpt><trkpt lat="42.62579601618608" lon="11.999317715189386"><ele>343.0</ele><time>2026-04-12T16:24:34.825Z</time></trkpt><trkpt lat="42.62553183182171" lon="11.999326954990968"><ele>343.0</ele><time>2026-04-12T16:24:35.825Z</time></trkpt><trkpt lat="42.62528502902322" lon="11.99933846978461"><ele>337.0</ele><time>2026-04-12T16:24:36.825Z</time></trkpt><trkpt lat="42.625042746262814" lon="11.999343020241694"><ele>331.0</ele><time>2026-04-12T16:24:37.825Z</time></trkpt><trkpt lat="42.624798448776446" lon="11.999345615023595"><ele>331.0</ele><time>2026-04-12T16:24:38.825Z</time></trkpt><trkpt lat="42.624555935161936" lon="11.999355435692143"><ele>331.0</ele><time>2026-04-12T16:24:39.825Z</time></trkpt><trkpt lat="42.62432334131893" lon="11.999362697159349"><ele>329.0</ele><time>2026-04-12T16:24:40.825Z</time></trkpt><trkpt lat="42.6240951456433" lon="11.999369396617618"><ele>327.0</ele><time>2026-04-12T16:24:41.825Z</time></trkpt><trkpt lat="42.623876414533704" lon="11.999357233683655"><ele>325.0</ele><time>2026-04-12T16:24:42.825Z</time></trkpt><trkpt lat="42.62366971068273" lon="11.999322242811152"><ele>325.3333333333333</ele><time>2026-04-12T16:24:43.825Z</time></trkpt><trkpt lat="42.62348103888654" lon="11.999256643973013"><ele>325.6666666666667</ele><time>2026-04-12T16:24:44.825Z</time></trkpt><trkpt lat="42.623304786999114" lon="11.999157434353323"><ele>326.0</ele><time>2026-04-12T16:24:45.825Z</time></trkpt><trkpt lat="42.623133853841544" lon="11.999023890303874"><ele>324.33333333333337</ele><time>2026-04-12T16:24:46.825Z</time></trkpt><trkpt lat="42.622981646312404" lon="11.998873077038889"><ele>322.6666666666667</ele><time>2026-04-12T16:24:47.825Z</time></trkpt><trkpt lat="42.62284737561562" lon="11.998707740077382"><ele>321.0</ele><time>2026-04-12T16:24:48.825Z</time></trkpt><trkpt lat="42.62272663393581" lon="11.998538211037063"><ele>321.0</ele><time>2026-04-12T16:24:49.825Z</time></trkpt><trkpt lat="42.62259732214814" lon="11.998386241316283"><ele>321.0</ele><time>2026-04-12T16:24:50.825Z</time></trkpt><trkpt lat="42.6224614836893" lon="11.998280718834343"><ele>321.0</ele><time>2026-04-12T16:24:51.825Z</time></trkpt><trkpt lat="42.622315428003" lon="11.998211637140818"><ele>320.0</ele><time>2026-04-12T16:24:52.825Z</time></trkpt><trkpt lat="42.62215758007458" lon="11.99818555249787"><ele>319.0</ele><time>2026-04-12T16:24:53.825Z</time></trkpt><trkpt lat="42.62198776965321" lon="11.998184805016894"><ele>318.0</ele><time>2026-04-12T16:24:54.825Z</time></trkpt><trkpt lat="42.62180940779619" lon="11.998176158669148"><ele>318.0</ele><time>2026-04-12T16:24:55.825Z</time></trkpt><trkpt lat="42.62162105214545" lon="11.998151547125646"><ele>318.0</ele><time>2026-04-12T16:24:56.825Z</time></trkpt><trkpt lat="42.62142062082253" lon="11.998131307323577"><ele>318.0</ele><time>2026-04-12T16:24:57.825Z</time></trkpt><trkpt lat="42.62121429841736" lon="11.998110900954632"><ele>318.3333333333333</ele><time>2026-04-12T16:24:58.825Z</time></trkpt><trkpt lat="42.62101581487603" lon="11.998094320731406"><ele>318.66666666666663</ele><time>2026-04-12T16:24:59.825Z</time></trkpt><trkpt lat="42.62082354922075" lon="11.998076571166893"><ele>319.0</ele><time>2026-04-12T16:25:00.825Z</time></trkpt><trkpt lat="42.62063328933723" lon="11.998067214511892"><ele>319.0</ele><time>2026-04-12T16:25:01.825Z</time></trkpt><trkpt lat="42.620451647164664" lon="11.99805415968057"><ele>319.0</ele><time>2026-04-12T16:25:02.825Z</time></trkpt><trkpt lat="42.62027602371296" lon="11.998037144522785"><ele>319.0</ele><time>2026-04-12T16:25:03.825Z</time></trkpt><trkpt lat="42.62010452876725" lon="11.998000042827574"><ele>320.3333333333333</ele><time>2026-04-12T16:25:04.824Z</time></trkpt><trkpt lat="42.6199383542884" lon="11.997933228630306"><ele>321.6666666666667</ele><time>2026-04-12T16:25:05.824Z</time></trkpt><trkpt lat="42.61977646448872" lon="11.997840152332486"><ele>323.0</ele><time>2026-04-12T16:25:06.824Z</time></trkpt><trkpt lat="42.619631379178216" lon="11.997724601417696"><ele>323.0</ele><time>2026-04-12T16:25:07.824Z</time></trkpt><trkpt lat="42.61949732954922" lon="11.99759922873264"><ele>323.0</ele><time>2026-04-12T16:25:08.824Z</time></trkpt><trkpt lat="42.61936320965729" lon="11.997480696273831"><ele>323.0</ele><time>2026-04-12T16:25:09.824Z</time></trkpt><trkpt lat="42.61922764462089" lon="11.99736854400165"><ele>320.6666666666667</ele><time>2026-04-12T16:25:10.824Z</time></trkpt><trkpt lat="42.61909289291129" lon="11.997272283975716"><ele>318.3333333333333</ele><time>2026-04-12T16:25:11.824Z</time></trkpt><trkpt lat="42.61895369245529" lon="11.997197075046342"><ele>316.0</ele><time>2026-04-12T16:25:12.824Z</time></trkpt><trkpt lat="42.61880920376336" lon="11.997142861614167"><ele>316.0</ele><time>2026-04-12T16:25:13.824Z</time></trkpt><trkpt lat="42.618652087599216" lon="11.997097762054768"><ele>316.0</ele><time>2026-04-12T16:25:14.824Z</time></trkpt><trkpt lat="42.618488063254595" lon="11.997054095511938"><ele>316.0</ele><time>2026-04-12T16:25:15.824Z</time></trkpt><trkpt lat="42.618323646365106" lon="11.99702063505537"><ele>316.0</ele><time>2026-04-12T16:25:16.824Z</time></trkpt><trkpt lat="42.61815937574239" lon="11.996983447047706"><ele>316.0</ele><time>2026-04-12T16:25:17.824Z</time></trkpt><trkpt lat="42.61799669990876" lon="11.996939585761933"><ele>316.0</ele><time>2026-04-12T16:25:18.824Z</time></trkpt><trkpt lat="42.61783772414084" lon="11.996900356926789"><ele>316.3333333333333</ele><time>2026-04-12T16:25:19.824Z</time></trkpt><trkpt lat="42.61768093358884" lon="11.996858011878093"><ele>316.6666666666667</ele><time>2026-04-12T16:25:20.824Z</time></trkpt><trkpt lat="42.61752189297496" lon="11.996814141620568"><ele>317.0</ele><time>2026-04-12T16:25:21.824Z</time></trkpt><trkpt lat="42.61736206117927" lon="11.996768528867074"><ele>317.0</ele><time>2026-04-12T16:25:22.824Z</time></trkpt><trkpt lat="42.617196062466505" lon="11.996727498272554"><ele>317.0</ele><time>2026-04-12T16:25:23.824Z</time></trkpt><trkpt lat="42.61703812594202" lon="11.996686152531046"><ele>317.0</ele><time>2026-04-12T16:25:24.824Z</time></trkpt><trkpt lat="42.61688566332498" lon="11.996640311873692"><ele>315.6666666666667</ele><time>2026-04-12T16:25:25.824Z</time></trkpt><trkpt lat="42.6167357585427" lon="11.996580460577622"><ele>314.3333333333333</ele><time>2026-04-12T16:25:26.824Z</time></trkpt><trkpt lat="42.61659131679368" lon="11.996507115792728"><ele>313.0</ele><time>2026-04-12T16:25:27.824Z</time></trkpt><trkpt lat="42.61644958277969" lon="11.99640972402322"><ele>313.0</ele><time>2026-04-12T16:25:28.824Z</time></trkpt><trkpt lat="42.61631020494748" lon="11.996296922726788"><ele>313.0</ele><time>2026-04-12T16:25:29.824Z</time></trkpt><trkpt lat="42.61617333731461" lon="11.996190453430826"><ele>313.0</ele><time>2026-04-12T16:25:30.824Z</time></trkpt><trkpt lat="42.61604225289545" lon="11.996080482005917"><ele>312.5</ele><time>2026-04-12T16:25:31.824Z</time></trkpt><trkpt lat="42.61592210611449" lon="11.99597716296483"><ele>312.0</ele><time>2026-04-12T16:25:32.824Z</time></trkpt><trkpt lat="42.615815496791704" lon="11.995887336522184"><ele>311.5</ele><time>2026-04-12T16:25:33.824Z</time></trkpt><trkpt lat="42.61570107955661" lon="11.995828707585781"><ele>311.0</ele><time>2026-04-12T16:25:34.824Z</time></trkpt><trkpt lat="42.615591135579635" lon="11.995814572215602"><ele>312.0</ele><time>2026-04-12T16:25:35.824Z</time></trkpt><trkpt lat="42.615477871929784" lon="11.995840852022091"><ele>313.0</ele><time>2026-04-12T16:25:36.824Z</time></trkpt><trkpt lat="42.615368486520325" lon="11.99591552106641"><ele>314.0</ele><time>2026-04-12T16:25:37.824Z</time></trkpt><trkpt lat="42.61526321773811" lon="11.996027351354567"><ele>315.0</ele><time>2026-04-12T16:25:38.824Z</time></trkpt><trkpt lat="42.61516384443232" lon="11.996161006356003"><ele>315.0</ele><time>2026-04-12T16:25:39.824Z</time></trkpt><trkpt lat="42.615042700147015" lon="11.996315223035735"><ele>315.0</ele><time>2026-04-12T16:25:40.824Z</time></trkpt><trkpt lat="42.614899132742394" lon="11.9964648689378"><ele>315.0</ele><time>2026-04-12T16:25:41.824Z</time></trkpt><trkpt lat="42.614747782333374" lon="11.996593101409319"><ele>317.6666666666667</ele><time>2026-04-12T16:25:42.824Z</time></trkpt><trkpt lat="42.61460116284522" lon="11.996713951977185"><ele>320.33333333333337</ele><time>2026-04-12T16:25:43.823Z</time></trkpt><trkpt lat="42.614456923327836" lon="11.996826801001744"><ele>323.0</ele><time>2026-04-12T16:25:44.823Z</time></trkpt><trkpt lat="42.614308367023604" lon="11.996919039722638"><ele>323.0</ele><time>2026-04-12T16:25:45.823Z</time></trkpt><trkpt lat="42.61416185724348" lon="11.997008478906892"><ele>323.0</ele><time>2026-04-12T16:25:46.823Z</time></trkpt><trkpt lat="42.6140170991855" lon="11.997100440620997"><ele>323.0</ele><time>2026-04-12T16:25:47.823Z</time></trkpt><trkpt lat="42.61387356011934" lon="11.997190318732464"><ele>323.0</ele><time>2026-04-12T16:25:48.823Z</time></trkpt><trkpt lat="42.61372891358306" lon="11.997268070481253"><ele>323.0</ele><time>2026-04-12T16:25:49.823Z</time></trkpt><trkpt lat="42.61358379988581" lon="11.997340297005522"><ele>323.0</ele><time>2026-04-12T16:25:50.823Z</time></trkpt><trkpt lat="42.61343645890626" lon="11.997396569469796"><ele>320.0</ele><time>2026-04-12T16:25:51.823Z</time></trkpt><trkpt lat="42.61328677153063" lon="11.997445487625114"><ele>317.0</ele><time>2026-04-12T16:25:52.823Z</time></trkpt><trkpt lat="42.61313226104194" lon="11.99748798935572"><ele>314.0</ele><time>2026-04-12T16:25:53.826Z</time></trkpt><trkpt lat="42.61297924244177" lon="11.997521612557197"><ele>322.6666666666667</ele><time>2026-04-12T16:25:54.826Z</time></trkpt><trkpt lat="42.61282842139373" lon="11.99754232827582"><ele>331.3333333333333</ele><time>2026-04-12T16:25:55.826Z</time></trkpt><trkpt lat="42.61267871657624" lon="11.997545055907887"><ele>340.0</ele><time>2026-04-12T16:25:56.825Z</time></trkpt><trkpt lat="42.61252838495003" lon="11.997529276418298"><ele>331.3333333333333</ele><time>2026-04-12T16:25:57.825Z</time></trkpt><trkpt lat="42.612372098162865" lon="11.997501512675754"><ele>322.6666666666667</ele><time>2026-04-12T16:25:58.825Z</time></trkpt><trkpt lat="42.612217658228445" lon="11.997431234004587"><ele>314.0</ele><time>2026-04-12T16:25:59.826Z</time></trkpt><trkpt lat="42.612060641609325" lon="11.997359466930023"><ele>317.0</ele><time>2026-04-12T16:26:00.825Z</time></trkpt><trkpt lat="42.61188552492966" lon="11.99727080678281"><ele>320.0</ele><time>2026-04-12T16:26:01.825Z</time></trkpt><trkpt lat="42.61168637538748" lon="11.997187782686398"><ele>323.0</ele><time>2026-04-12T16:26:02.826Z</time></trkpt><trkpt lat="42.61148628230005" lon="11.997057433301684"><ele>323.0</ele><time>2026-04-12T16:26:03.825Z</time></trkpt><trkpt lat="42.6112684232208" lon="11.99693095399086"><ele>323.0</ele><time>2026-04-12T16:26:04.825Z</time></trkpt><trkpt lat="42.61105383476097" lon="11.996829154471362"><ele>325.6666666666667</ele><time>2026-04-12T16:26:05.826Z</time></trkpt><trkpt lat="42.61084010544146" lon="11.996757143036104"><ele>328.3333333333333</ele><time>2026-04-12T16:26:06.826Z</time></trkpt><trkpt lat="42.610630281865205" lon="11.996734694818036"><ele>331.0</ele><time>2026-04-12T16:26:07.826Z</time></trkpt><trkpt lat="42.61041532236781" lon="11.996746323717527"><ele>332.0</ele><time>2026-04-12T16:26:08.826Z</time></trkpt><trkpt lat="42.61019770641975" lon="11.99676508801775"><ele>333.0</ele><time>2026-04-12T16:26:09.826Z</time></trkpt><trkpt lat="42.609971222866434" lon="11.996777367024723"><ele>334.0</ele><time>2026-04-12T16:26:10.826Z</time></trkpt><trkpt lat="42.60973350021303" lon="11.996788954793026"><ele>334.0</ele><time>2026-04-12T16:26:11.826Z</time></trkpt><trkpt lat="42.60949300735746" lon="11.996800132906726"><ele>334.0</ele><time>2026-04-12T16:26:12.826Z</time></trkpt><trkpt lat="42.609264307803336" lon="11.996780225813332"><ele>327.5</ele><time>2026-04-12T16:26:13.826Z</time></trkpt><trkpt lat="42.60903632394605" lon="11.996763775173271"><ele>321.0</ele><time>2026-04-12T16:26:14.825Z</time></trkpt><trkpt lat="42.60881322125246" lon="11.996740448364644"><ele>319.3333333333333</ele><time>2026-04-12T16:26:15.825Z</time></trkpt><trkpt lat="42.60859574529588" lon="11.996716284375136"><ele>317.66666666666663</ele><time>2026-04-12T16:26:16.825Z</time></trkpt><trkpt lat="42.608393723951544" lon="11.9967140316257"><ele>316.0</ele><time>2026-04-12T16:26:17.825Z</time></trkpt><trkpt lat="42.60819720392703" lon="11.996668399059896"><ele>314.66666666666663</ele><time>2026-04-12T16:26:18.825Z</time></trkpt><trkpt lat="42.608007726517684" lon="11.996653446763945"><ele>313.3333333333333</ele><time>2026-04-12T16:26:19.825Z</time></trkpt><trkpt lat="42.60782341746622" lon="11.996639186697333"><ele>312.0</ele><time>2026-04-12T16:26:20.825Z</time></trkpt><trkpt lat="42.60764194451243" lon="11.996622932570608"><ele>312.0</ele><time>2026-04-12T16:26:21.825Z</time></trkpt><trkpt lat="42.60745559316844" lon="11.996614319994837"><ele>312.0</ele><time>2026-04-12T16:26:22.825Z</time></trkpt><trkpt lat="42.60724387450635" lon="11.996606315477226"><ele>312.0</ele><time>2026-04-12T16:26:23.825Z</time></trkpt><trkpt lat="42.607024923521486" lon="11.996570540141164"><ele>312.0</ele><time>2026-04-12T16:26:24.825Z</time></trkpt><trkpt lat="42.60679325072517" lon="11.996568238863736"><ele>312.0</ele><time>2026-04-12T16:26:25.825Z</time></trkpt><trkpt lat="42.60655015269484" lon="11.99651377349706"><ele>312.0</ele><time>2026-04-12T16:26:26.825Z</time></trkpt><trkpt lat="42.60630737348348" lon="11.996485838258392"><ele>312.0</ele><time>2026-04-12T16:26:27.825Z</time></trkpt><trkpt lat="42.60607000932375" lon="11.996463328676118"><ele>312.3333333333333</ele><time>2026-04-12T16:26:28.825Z</time></trkpt><trkpt lat="42.60584683471643" lon="11.99645192676575"><ele>312.66666666666663</ele><time>2026-04-12T16:26:29.825Z</time></trkpt><trkpt lat="42.60563664792115" lon="11.996442813141545"><ele>313.0</ele><time>2026-04-12T16:26:30.825Z</time></trkpt><trkpt lat="42.60543087042595" lon="11.996429717916808"><ele>314.0</ele><time>2026-04-12T16:26:31.825Z</time></trkpt><trkpt lat="42.60523381964262" lon="11.99640924210923"><ele>315.0</ele><time>2026-04-12T16:26:32.825Z</time></trkpt><trkpt lat="42.60504163885332" lon="11.996378759714618"><ele>316.0</ele><time>2026-04-12T16:26:33.825Z</time></trkpt><trkpt lat="42.60486781819292" lon="11.996358340245221"><ele>316.0</ele><time>2026-04-12T16:26:34.825Z</time></trkpt><trkpt lat="42.6046995784077" lon="11.996373668336602"><ele>316.0</ele><time>2026-04-12T16:26:35.825Z</time></trkpt><trkpt lat="42.60456176660509" lon="11.996437220200868"><ele>316.0</ele><time>2026-04-12T16:26:36.825Z</time></trkpt><trkpt lat="42.60442881932154" lon="11.996545222862672"><ele>316.66666666666663</ele><time>2026-04-12T16:26:37.825Z</time></trkpt><trkpt lat="42.60428595216287" lon="11.996687655615379"><ele>317.3333333333333</ele><time>2026-04-12T16:26:38.825Z</time></trkpt><trkpt lat="42.604123633872526" lon="11.996850988430529"><ele>318.0</ele><time>2026-04-12T16:26:39.825Z</time></trkpt><trkpt lat="42.603938222393964" lon="11.997011774903733"><ele>318.0</ele><time>2026-04-12T16:26:40.825Z</time></trkpt><trkpt lat="42.603749332730715" lon="11.9971650012329"><ele>318.0</ele><time>2026-04-12T16:26:41.825Z</time></trkpt><trkpt lat="42.60357985908498" lon="11.997304158740679"><ele>318.0</ele><time>2026-04-12T16:26:42.825Z</time></trkpt><trkpt lat="42.60342022749016" lon="11.997445849616886"><ele>322.3333333333333</ele><time>2026-04-12T16:26:43.825Z</time></trkpt><trkpt lat="42.60327806847573" lon="11.997574015853692"><ele>326.66666666666663</ele><time>2026-04-12T16:26:44.825Z</time></trkpt><trkpt lat="42.60313767741845" lon="11.997701648908942"><ele>331.0</ele><time>2026-04-12T16:26:45.825Z</time></trkpt><trkpt lat="42.603006235853066" lon="11.997813333405842"><ele>331.0</ele><time>2026-04-12T16:26:46.825Z</time></trkpt><trkpt lat="42.602885479392846" lon="11.997914757834964"><ele>331.0</ele><time>2026-04-12T16:26:47.825Z</time></trkpt><trkpt lat="42.602782149624844" lon="11.99800285445038"><ele>331.0</ele><time>2026-04-12T16:26:48.825Z</time></trkpt><trkpt lat="42.60266355293909" lon="11.998067197561554"><ele>331.0</ele><time>2026-04-12T16:26:49.825Z</time></trkpt><trkpt lat="42.60250261647306" lon="11.9981083154142"><ele>330.3333333333333</ele><time>2026-04-12T16:26:50.825Z</time></trkpt><trkpt lat="42.60231449448748" lon="11.998131775580255"><ele>329.6666666666667</ele><time>2026-04-12T16:26:51.825Z</time></trkpt><trkpt lat="42.60210411595817" lon="11.998152764409117"><ele>329.0</ele><time>2026-04-12T16:26:52.825Z</time></trkpt><trkpt lat="42.60185885028632" lon="11.998172109383983"><ele>329.0</ele><time>2026-04-12T16:26:53.824Z</time></trkpt><trkpt lat="42.60160782868275" lon="11.998204421668323"><ele>329.0</ele><time>2026-04-12T16:26:54.824Z</time></trkpt><trkpt lat="42.60135067989788" lon="11.998263348965756"><ele>328.0</ele><time>2026-04-12T16:26:55.824Z</time></trkpt><trkpt lat="42.60107960775079" lon="11.998307681053351"><ele>327.0</ele><time>2026-04-12T16:26:56.824Z</time></trkpt><trkpt lat="42.60080283522394" lon="11.998359187731229"><ele>332.5</ele><time>2026-04-12T16:26:57.824Z</time></trkpt><trkpt lat="42.60053053576772" lon="11.99841195858848"><ele>338.0</ele><time>2026-04-12T16:26:58.824Z</time></trkpt><trkpt lat="42.60028764345374" lon="11.998466362930333"><ele>338.0</ele><time>2026-04-12T16:26:59.824Z</time></trkpt><trkpt lat="42.600046735641016" lon="11.998508600304607"><ele>338.0</ele><time>2026-04-12T16:27:00.824Z</time></trkpt><trkpt lat="42.59980986688261" lon="11.998566255695781"><ele>338.0</ele><time>2026-04-12T16:27:01.824Z</time></trkpt><trkpt lat="42.59959182517195" lon="11.998658105384278"><ele>338.0</ele><time>2026-04-12T16:27:02.824Z</time></trkpt><trkpt lat="42.59938241098077" lon="11.998782346235634"><ele>337.5</ele><time>2026-04-12T16:27:03.824Z</time></trkpt><trkpt lat="42.599169693317336" lon="11.998935729542573"><ele>337.0</ele><time>2026-04-12T16:27:04.824Z</time></trkpt><trkpt lat="42.59895897838428" lon="11.999080273458334"><ele>340.66666666666663</ele><time>2026-04-12T16:27:05.824Z</time></trkpt><trkpt lat="42.59875903024819" lon="11.999216378631184"><ele>344.3333333333333</ele><time>2026-04-12T16:27:06.824Z</time></trkpt><trkpt lat="42.59856111525129" lon="11.99933322327046"><ele>348.0</ele><time>2026-04-12T16:27:07.824Z</time></trkpt><trkpt lat="42.598349548886915" lon="11.999424586318865"><ele>348.0</ele><time>2026-04-12T16:27:08.824Z</time></trkpt><trkpt lat="42.598134747490896" lon="11.99948058584293"><ele>348.0</ele><time>2026-04-12T16:27:09.824Z</time></trkpt><trkpt lat="42.5979374137344" lon="11.999486056249658"><ele>348.0</ele><time>2026-04-12T16:27:10.824Z</time></trkpt><trkpt lat="42.59771346022721" lon="11.999475808946194"><ele>348.5</ele><time>2026-04-12T16:27:11.824Z</time></trkpt><trkpt lat="42.59747857449487" lon="11.999454639159493"><ele>349.0</ele><time>2026-04-12T16:27:12.824Z</time></trkpt><trkpt lat="42.59724154388402" lon="11.999422416126595"><ele>349.0</ele><time>2026-04-12T16:27:13.824Z</time></trkpt><trkpt lat="42.597013193941564" lon="11.999390410853495"><ele>349.0</ele><time>2026-04-12T16:27:14.824Z</time></trkpt><trkpt lat="42.596806268262554" lon="11.999389687895995"><ele>349.0</ele><time>2026-04-12T16:27:15.824Z</time></trkpt><trkpt lat="42.59660215730852" lon="11.999427611145245"><ele>349.66666666666663</ele><time>2026-04-12T16:27:16.824Z</time></trkpt><trkpt lat="42.596409572147905" lon="11.999508778245835"><ele>350.3333333333333</ele><time>2026-04-12T16:27:17.824Z</time></trkpt><trkpt lat="42.596218887787145" lon="11.999600162985635"><ele>351.0</ele><time>2026-04-12T16:27:18.824Z</time></trkpt><trkpt lat="42.596052689781104" lon="11.999702600686758"><ele>351.0</ele><time>2026-04-12T16:27:19.824Z</time></trkpt><trkpt lat="42.59588783427791" lon="11.999814347108845"><ele>351.0</ele><time>2026-04-12T16:27:20.824Z</time></trkpt><trkpt lat="42.59573105367291" lon="11.999933442523892"><ele>351.0</ele><time>2026-04-12T16:27:21.824Z</time></trkpt><trkpt lat="42.59556747648933" lon="12.000047812594048"><ele>351.0</ele><time>2026-04-12T16:27:22.824Z</time></trkpt><trkpt lat="42.595396488114424" lon="12.000134993346272"><ele>351.0</ele><time>2026-04-12T16:27:23.824Z</time></trkpt><trkpt lat="42.59524933004309" lon="12.000232329228126"><ele>351.0</ele><time>2026-04-12T16:27:24.824Z</time></trkpt><trkpt lat="42.59510612637145" lon="12.000329247050953"><ele>351.3333333333333</ele><time>2026-04-12T16:27:25.824Z</time></trkpt><trkpt lat="42.594966452669645" lon="12.00040376790893"><ele>351.66666666666663</ele><time>2026-04-12T16:27:26.824Z</time></trkpt><trkpt lat="42.5948293560174" lon="12.00046691600199"><ele>352.0</ele><time>2026-04-12T16:27:27.824Z</time></trkpt><trkpt lat="42.59466606637008" lon="12.000504479107404"><ele>352.66666666666663</ele><time>2026-04-12T16:27:28.824Z</time></trkpt><trkpt lat="42.594475939793874" lon="12.000530958034744"><ele>353.3333333333333</ele><time>2026-04-12T16:27:29.824Z</time></trkpt><trkpt lat="42.594266966939415" lon="12.000551473410262"><ele>354.0</ele><time>2026-04-12T16:27:30.824Z</time></trkpt><trkpt lat="42.59403931551239" lon="12.000563528358404"><ele>354.0</ele><time>2026-04-12T16:27:31.823Z</time></trkpt><trkpt lat="42.59379258083946" lon="12.000563598259507"><ele>354.0</ele><time>2026-04-12T16:27:32.823Z</time></trkpt><trkpt lat="42.593529536861304" lon="12.000568879988155"><ele>355.0</ele><time>2026-04-12T16:27:33.823Z</time></trkpt><trkpt lat="42.59325587458221" lon="12.000595371474784"><ele>356.0</ele><time>2026-04-12T16:27:34.823Z</time></trkpt><trkpt lat="42.5929791512261" lon="12.000640373550226"><ele>357.5</ele><time>2026-04-12T16:27:35.823Z</time></trkpt><trkpt lat="42.59269269393179" lon="12.000698080941854"><ele>359.0</ele><time>2026-04-12T16:27:36.823Z</time></trkpt><trkpt lat="42.59241725197704" lon="12.000762412156595"><ele>359.0</ele><time>2026-04-12T16:27:37.823Z</time></trkpt><trkpt lat="42.59216469222806" lon="12.000816586218775"><ele>359.0</ele><time>2026-04-12T16:27:38.823Z</time></trkpt><trkpt lat="42.59191233864364" lon="12.000853088546053"><ele>363.0</ele><time>2026-04-12T16:27:39.823Z</time></trkpt><trkpt lat="42.591665268022545" lon="12.000854125533655"><ele>367.0</ele><time>2026-04-12T16:27:40.823Z</time></trkpt><trkpt lat="42.5914200445221" lon="12.000816655279523"><ele>370.0</ele><time>2026-04-12T16:27:41.823Z</time></trkpt><trkpt lat="42.59116790488978" lon="12.000753404605987"><ele>373.0</ele><time>2026-04-12T16:27:42.823Z</time></trkpt><trkpt lat="42.59093709721019" lon="12.000695590429485"><ele>373.0</ele><time>2026-04-12T16:27:43.823Z</time></trkpt><trkpt lat="42.590717856332695" lon="12.000658375296002"><ele>373.0</ele><time>2026-04-12T16:27:44.823Z</time></trkpt><trkpt lat="42.59051332444591" lon="12.000634006785537"><ele>373.0</ele><time>2026-04-12T16:27:45.823Z</time></trkpt><trkpt lat="42.59031858303907" lon="12.000636545166634"><ele>373.0</ele><time>2026-04-12T16:27:46.823Z</time></trkpt><trkpt lat="42.59013410236182" lon="12.00071287964756"><ele>373.0</ele><time>2026-04-12T16:27:47.823Z</time></trkpt><trkpt lat="42.58994868244976" lon="12.00081792586265"><ele>373.0</ele><time>2026-04-12T16:27:48.823Z</time></trkpt><trkpt lat="42.58976166315489" lon="12.000938565924647"><ele>374.66666666666663</ele><time>2026-04-12T16:27:49.823Z</time></trkpt><trkpt lat="42.58958756101132" lon="12.001079179572598"><ele>376.3333333333333</ele><time>2026-04-12T16:27:50.823Z</time></trkpt><trkpt lat="42.589403388827414" lon="12.001222939199012"><ele>378.0</ele><time>2026-04-12T16:27:51.823Z</time></trkpt><trkpt lat="42.58920126660802" lon="12.001339430463918"><ele>378.0</ele><time>2026-04-12T16:27:52.823Z</time></trkpt><trkpt lat="42.58898070151357" lon="12.001402717656102"><ele>378.0</ele><time>2026-04-12T16:27:53.823Z</time></trkpt><trkpt lat="42.58874486216803" lon="12.00148337694181"><ele>378.0</ele><time>2026-04-12T16:27:54.823Z</time></trkpt><trkpt lat="42.58850885214419" lon="12.00157236200127"><ele>378.0</ele><time>2026-04-12T16:27:55.823Z</time></trkpt><trkpt lat="42.588282816341696" lon="12.001645837449173"><ele>380.66666666666663</ele><time>2026-04-12T16:27:56.823Z</time></trkpt><trkpt lat="42.588077072284705" lon="12.001721256810297"><ele>383.3333333333333</ele><time>2026-04-12T16:27:57.823Z</time></trkpt><trkpt lat="42.58788308381385" lon="12.001790914818692"><ele>386.0</ele><time>2026-04-12T16:27:58.823Z</time></trkpt><trkpt lat="42.587682626251315" lon="12.001841608627577"><ele>386.0</ele><time>2026-04-12T16:27:59.825Z</time></trkpt><trkpt lat="42.58748364335077" lon="12.001834742614866"><ele>386.0</ele><time>2026-04-12T16:28:00.826Z</time></trkpt><trkpt lat="42.587293026330904" lon="12.001816120653496"><ele>386.0</ele><time>2026-04-12T16:28:01.826Z</time></trkpt><trkpt lat="42.58709700917003" lon="12.00181539856667"><ele>387.0</ele><time>2026-04-12T16:28:02.826Z</time></trkpt><trkpt lat="42.586920067918086" lon="12.001784043344914"><ele>388.0</ele><time>2026-04-12T16:28:03.825Z</time></trkpt><trkpt lat="42.58673945006544" lon="12.001782452574433"><ele>389.0</ele><time>2026-04-12T16:28:04.825Z</time></trkpt><trkpt lat="42.586563044464704" lon="12.001813742107041"><ele>389.0</ele><time>2026-04-12T16:28:05.825Z</time></trkpt><trkpt lat="42.58638747522406" lon="12.001874552816393"><ele>389.0</ele><time>2026-04-12T16:28:06.825Z</time></trkpt><trkpt lat="42.58621439315994" lon="12.001945055675446"><ele>389.0</ele><time>2026-04-12T16:28:07.825Z</time></trkpt><trkpt lat="42.58604853434988" lon="12.002007556511833"><ele>388.0</ele><time>2026-04-12T16:28:08.825Z</time></trkpt><trkpt lat="42.58589298949407" lon="12.002063505884431"><ele>387.0</ele><time>2026-04-12T16:28:09.825Z</time></trkpt><trkpt lat="42.58573751751055" lon="12.002110932298606"><ele>386.0</ele><time>2026-04-12T16:28:10.825Z</time></trkpt><trkpt lat="42.585590620252844" lon="12.002160227888018"><ele>386.0</ele><time>2026-04-12T16:28:11.825Z</time></trkpt><trkpt lat="42.58545423561476" lon="12.002211406276558"><ele>386.0</ele><time>2026-04-12T16:28:12.825Z</time></trkpt><trkpt lat="42.58533211555559" lon="12.002266289150231"><ele>386.0</ele><time>2026-04-12T16:28:13.825Z</time></trkpt><trkpt lat="42.58522186746335" lon="12.002334514801484"><ele>386.0</ele><time>2026-04-12T16:28:14.825Z</time></trkpt><trkpt lat="42.585122623104986" lon="12.00243328478003"><ele>387.0</ele><time>2026-04-12T16:28:15.825Z</time></trkpt><trkpt lat="42.585066457317716" lon="12.002567226630449"><ele>388.0</ele><time>2026-04-12T16:28:16.825Z</time></trkpt><trkpt lat="42.58505113857414" lon="12.002723668734356"><ele>389.0</ele><time>2026-04-12T16:28:17.825Z</time></trkpt><trkpt lat="42.585070197881706" lon="12.002898977960161"><ele>390.0</ele><time>2026-04-12T16:28:18.825Z</time></trkpt><trkpt lat="42.58511775085368" lon="12.003068778334468"><ele>390.0</ele><time>2026-04-12T16:28:19.825Z</time></trkpt><trkpt lat="42.58521132777394" lon="12.003207876710709"><ele>390.0</ele><time>2026-04-12T16:28:20.825Z</time></trkpt><trkpt lat="42.585313440706585" lon="12.003333502099483"><ele>390.0</ele><time>2026-04-12T16:28:21.825Z</time></trkpt><trkpt lat="42.58538839210121" lon="12.003503928618137"><ele>390.0</ele><time>2026-04-12T16:28:22.825Z</time></trkpt><trkpt lat="42.58547202622363" lon="12.003648272662106"><ele>392.75</ele><time>2026-04-12T16:28:23.825Z</time></trkpt><trkpt lat="42.58554735229038" lon="12.003797401952504"><ele>395.5</ele><time>2026-04-12T16:28:24.824Z</time></trkpt><trkpt lat="42.585623640990185" lon="12.003920881831625"><ele>398.25</ele><time>2026-04-12T16:28:25.824Z</time></trkpt><trkpt lat="42.585665090174544" lon="12.004061359904949"><ele>401.0</ele><time>2026-04-12T16:28:26.824Z</time></trkpt><trkpt lat="42.58567079905982" lon="12.004218362071995"><ele>401.0</ele><time>2026-04-12T16:28:27.824Z</time></trkpt><trkpt lat="42.58563626693993" lon="12.004377646919473"><ele>401.0</ele><time>2026-04-12T16:28:28.824Z</time></trkpt><trkpt lat="42.58558262899289" lon="12.004517721105472"><ele>401.0</ele><time>2026-04-12T16:28:29.824Z</time></trkpt><trkpt lat="42.5854937086741" lon="12.004641884095385"><ele>401.0</ele><time>2026-04-12T16:28:30.824Z</time></trkpt><trkpt lat="42.58538768196088" lon="12.004750203562024"><ele>400.3333333333333</ele><time>2026-04-12T16:28:31.824Z</time></trkpt><trkpt lat="42.58526483755822" lon="12.004846471321365"><ele>399.66666666666663</ele><time>2026-04-12T16:28:32.824Z</time></trkpt><trkpt lat="42.58511392907805" lon="12.004958479376295"><ele>399.0</ele><time>2026-04-12T16:28:33.824Z</time></trkpt><trkpt lat="42.5849339543888" lon="12.005092083381452"><ele>399.0</ele><time>2026-04-12T16:28:34.824Z</time></trkpt><trkpt lat="42.584736554373215" lon="12.005261827563913"><ele>399.0</ele><time>2026-04-12T16:28:35.824Z</time></trkpt><trkpt lat="42.58452368908685" lon="12.0053964722807"><ele>395.66666666666663</ele><time>2026-04-12T16:28:36.824Z</time></trkpt><trkpt lat="42.58432924937289" lon="12.005535779147385"><ele>392.3333333333333</ele><time>2026-04-12T16:28:37.824Z</time></trkpt><trkpt lat="42.58415297760073" lon="12.00566178968698"><ele>389.0</ele><time>2026-04-12T16:28:38.824Z</time></trkpt><trkpt lat="42.58398973660153" lon="12.005783990237216"><ele>390.66666666666663</ele><time>2026-04-12T16:28:39.824Z</time></trkpt><trkpt lat="42.58382595239686" lon="12.005910577301213"><ele>392.33333333333337</ele><time>2026-04-12T16:28:40.824Z</time></trkpt><trkpt lat="42.58369105424406" lon="12.006067583586294"><ele>394.0</ele><time>2026-04-12T16:28:41.824Z</time></trkpt><trkpt lat="42.58358202816428" lon="12.006256708371572"><ele>394.0</ele><time>2026-04-12T16:28:42.824Z</time></trkpt><trkpt lat="42.58348814984305" lon="12.00647017304695"><ele>394.0</ele><time>2026-04-12T16:28:43.824Z</time></trkpt><trkpt lat="42.583399655137434" lon="12.006679029789334"><ele>394.0</ele><time>2026-04-12T16:28:44.824Z</time></trkpt><trkpt lat="42.58327798936419" lon="12.006829131536737"><ele>396.33333333333337</ele><time>2026-04-12T16:28:45.824Z</time></trkpt><trkpt lat="42.583156598185376" lon="12.006967058385223"><ele>398.66666666666663</ele><time>2026-04-12T16:28:46.824Z</time></trkpt><trkpt lat="42.583032403890755" lon="12.007103991943453"><ele>401.0</ele><time>2026-04-12T16:28:47.824Z</time></trkpt><trkpt lat="42.58291515755951" lon="12.007259771335633"><ele>401.66666666666663</ele><time>2026-04-12T16:28:48.824Z</time></trkpt><trkpt lat="42.58277845457613" lon="12.007403883861823"><ele>402.33333333333337</ele><time>2026-04-12T16:28:49.824Z</time></trkpt><trkpt lat="42.58262046189783" lon="12.007547124525223"><ele>403.0</ele><time>2026-04-12T16:28:50.824Z</time></trkpt><trkpt lat="42.58246061984197" lon="12.00771723118666"><ele>403.0</ele><time>2026-04-12T16:28:51.824Z</time></trkpt><trkpt lat="42.5822961077906" lon="12.007892307804655"><ele>403.0</ele><time>2026-04-12T16:28:52.824Z</time></trkpt><trkpt lat="42.582138289757594" lon="12.00807369333135"><ele>403.0</ele><time>2026-04-12T16:28:53.824Z</time></trkpt><trkpt lat="42.581986764174225" lon="12.008204017106165"><ele>401.33333333333337</ele><time>2026-04-12T16:28:54.824Z</time></trkpt><trkpt lat="42.58182161513638" lon="12.008267373269275"><ele>399.66666666666663</ele><time>2026-04-12T16:28:55.824Z</time></trkpt><trkpt lat="42.58167920026259" lon="12.008255995796938"><ele>398.0</ele><time>2026-04-12T16:28:56.824Z</time></trkpt><trkpt lat="42.58151863039425" lon="12.008259464328088"><ele>398.0</ele><time>2026-04-12T16:28:57.824Z</time></trkpt><trkpt lat="42.58136154983648" lon="12.008285221868995"><ele>398.0</ele><time>2026-04-12T16:28:58.824Z</time></trkpt><trkpt lat="42.581207398472216" lon="12.008287231493243"><ele>398.0</ele><time>2026-04-12T16:28:59.824Z</time></trkpt><trkpt lat="42.58105601424018" lon="12.008337814710387"><ele>401.3333333333333</ele><time>2026-04-12T16:29:00.824Z</time></trkpt><trkpt lat="42.58091745796234" lon="12.008432842935846"><ele>404.66666666666663</ele><time>2026-04-12T16:29:01.824Z</time></trkpt><trkpt lat="42.580783405307606" lon="12.008551545290334"><ele>408.0</ele><time>2026-04-12T16:29:02.824Z</time></trkpt><trkpt lat="42.580670852654656" lon="12.008698507739258"><ele>408.0</ele><time>2026-04-12T16:29:03.823Z</time></trkpt><trkpt lat="42.58056814181745" lon="12.008857059954243"><ele>408.0</ele><time>2026-04-12T16:29:04.823Z</time></trkpt><trkpt lat="42.58046668251608" lon="12.009008935862177"><ele>408.0</ele><time>2026-04-12T16:29:05.823Z</time></trkpt><trkpt lat="42.58036933517353" lon="12.009151689277665"><ele>408.75</ele><time>2026-04-12T16:29:06.823Z</time></trkpt><trkpt lat="42.58026718997091" lon="12.00929033633278"><ele>409.5</ele><time>2026-04-12T16:29:07.823Z</time></trkpt><trkpt lat="42.5801660182623" lon="12.009432817089309"><ele>410.25</ele><time>2026-04-12T16:29:08.823Z</time></trkpt><trkpt lat="42.58005774622961" lon="12.009566357804193"><ele>411.0</ele><time>2026-04-12T16:29:09.823Z</time></trkpt><trkpt lat="42.579947114922845" lon="12.00970633024285"><ele>411.0</ele><time>2026-04-12T16:29:10.823Z</time></trkpt><trkpt lat="42.57982482141288" lon="12.009848047539085"><ele>411.0</ele><time>2026-04-12T16:29:11.823Z</time></trkpt><trkpt lat="42.579729098643796" lon="12.009996824314515"><ele>411.0</ele><time>2026-04-12T16:29:12.823Z</time></trkpt><trkpt lat="42.57962427912521" lon="12.010140780588348"><ele>412.33333333333337</ele><time>2026-04-12T16:29:13.823Z</time></trkpt><trkpt lat="42.57951100252272" lon="12.010275325035243"><ele>413.6666666666667</ele><time>2026-04-12T16:29:14.823Z</time></trkpt><trkpt lat="42.57938355501926" lon="12.010385043026028"><ele>415.0</ele><time>2026-04-12T16:29:15.823Z</time></trkpt><trkpt lat="42.57921709847119" lon="12.010404785167452"><ele>415.0</ele><time>2026-04-12T16:29:16.823Z</time></trkpt><trkpt lat="42.57905746422679" lon="12.010398069732432"><ele>415.0</ele><time>2026-04-12T16:29:17.823Z</time></trkpt><trkpt lat="42.57889376008528" lon="12.010381991370915"><ele>415.0</ele><time>2026-04-12T16:29:18.823Z</time></trkpt><trkpt lat="42.57872938967486" lon="12.01036106322479"><ele>418.0</ele><time>2026-04-12T16:29:19.823Z</time></trkpt><trkpt lat="42.57854608637484" lon="12.010364863247906"><ele>421.0</ele><time>2026-04-12T16:29:20.823Z</time></trkpt><trkpt lat="42.57835193762911" lon="12.010325916038019"><ele>424.0</ele><time>2026-04-12T16:29:21.823Z</time></trkpt><trkpt lat="42.57813362860778" lon="12.010306176629063"><ele>424.0</ele><time>2026-04-12T16:29:22.823Z</time></trkpt><trkpt lat="42.577882299652046" lon="12.01028343682291"><ele>424.0</ele><time>2026-04-12T16:29:23.823Z</time></trkpt><trkpt lat="42.57763185066948" lon="12.010260776638384"><ele>424.0</ele><time>2026-04-12T16:29:24.823Z</time></trkpt><trkpt lat="42.57737190919699" lon="12.010236700367173"><ele>424.0</ele><time>2026-04-12T16:29:25.823Z</time></trkpt><trkpt lat="42.57710757518099" lon="12.010212875328588"><ele>423.0</ele><time>2026-04-12T16:29:26.823Z</time></trkpt><trkpt lat="42.57684392778685" lon="12.010189156823039"><ele>422.0</ele><time>2026-04-12T16:29:27.823Z</time></trkpt><trkpt lat="42.576577457467565" lon="12.01018190892211"><ele>422.0</ele><time>2026-04-12T16:29:28.823Z</time></trkpt><trkpt lat="42.5763268720845" lon="12.010146892422622"><ele>422.0</ele><time>2026-04-12T16:29:29.823Z</time></trkpt><trkpt lat="42.57608838842613" lon="12.010124152944897"><ele>422.3333333333333</ele><time>2026-04-12T16:29:30.823Z</time></trkpt><trkpt lat="42.57586331253778" lon="12.01010870714388"><ele>422.66666666666663</ele><time>2026-04-12T16:29:31.823Z</time></trkpt><trkpt lat="42.575641086454695" lon="12.010091946062381"><ele>423.0</ele><time>2026-04-12T16:29:32.823Z</time></trkpt><trkpt lat="42.57542328279948" lon="12.010073956372162"><ele>423.33333333333337</ele><time>2026-04-12T16:29:33.823Z</time></trkpt><trkpt lat="42.57521158045624" lon="12.010049824471388"><ele>423.6666666666667</ele><time>2026-04-12T16:29:34.823Z</time></trkpt><trkpt lat="42.57501507317534" lon="12.010029353418883"><ele>424.0</ele><time>2026-04-12T16:29:35.823Z</time></trkpt><trkpt lat="42.574832859960665" lon="12.010011797551606"><ele>425.33333333333337</ele><time>2026-04-12T16:29:36.823Z</time></trkpt><trkpt lat="42.574657820996244" lon="12.009991518692278"><ele>426.66666666666663</ele><time>2026-04-12T16:29:37.823Z</time></trkpt><trkpt lat="42.57448258663702" lon="12.009979598208423"><ele>428.0</ele><time>2026-04-12T16:29:38.823Z</time></trkpt><trkpt lat="42.57429454242693" lon="12.009967694107457"><ele>428.0</ele><time>2026-04-12T16:29:39.823Z</time></trkpt><trkpt lat="42.574100495888985" lon="12.009934740494115"><ele>428.0</ele><time>2026-04-12T16:29:40.823Z</time></trkpt><trkpt lat="42.573887168615315" lon="12.00991220889114"><ele>428.0</ele><time>2026-04-12T16:29:41.822Z</time></trkpt><trkpt lat="42.573663901143696" lon="12.00988836516846"><ele>427.0</ele><time>2026-04-12T16:29:42.822Z</time></trkpt><trkpt lat="42.57342992658721" lon="12.00985411224767"><ele>426.0</ele><time>2026-04-12T16:29:43.822Z</time></trkpt><trkpt lat="42.57319819197617" lon="12.009811349493404"><ele>426.0</ele><time>2026-04-12T16:29:44.822Z</time></trkpt><trkpt lat="42.57295840710479" lon="12.009767395074883"><ele>426.0</ele><time>2026-04-12T16:29:45.822Z</time></trkpt><trkpt lat="42.57272516820405" lon="12.009719008557363"><ele>425.0</ele><time>2026-04-12T16:29:46.822Z</time></trkpt><trkpt lat="42.57249867138291" lon="12.009662974371057"><ele>424.0</ele><time>2026-04-12T16:29:47.822Z</time></trkpt><trkpt lat="42.57228408079844" lon="12.009604223731454"><ele>423.0</ele><time>2026-04-12T16:29:48.822Z</time></trkpt><trkpt lat="42.57207910655948" lon="12.009552118691873"><ele>423.0</ele><time>2026-04-12T16:29:49.822Z</time></trkpt><trkpt lat="42.57188051207637" lon="12.009511423834267"><ele>423.0</ele><time>2026-04-12T16:29:50.822Z</time></trkpt><trkpt lat="42.57169073844051" lon="12.009472652031938"><ele>423.0</ele><time>2026-04-12T16:29:51.822Z</time></trkpt><trkpt lat="42.57150819387406" lon="12.009431089157955"><ele>423.0</ele><time>2026-04-12T16:29:52.822Z</time></trkpt><trkpt lat="42.571326490439304" lon="12.009389136118411"><ele>423.0</ele><time>2026-04-12T16:29:53.822Z</time></trkpt><trkpt lat="42.571147600260446" lon="12.009348275403404"><ele>423.0</ele><time>2026-04-12T16:29:54.822Z</time></trkpt><trkpt lat="42.57097058553451" lon="12.00930283404977"><ele>423.0</ele><time>2026-04-12T16:29:55.822Z</time></trkpt><trkpt lat="42.57077309370485" lon="12.009254367621946"><ele>423.0</ele><time>2026-04-12T16:29:56.822Z</time></trkpt><trkpt lat="42.57055779453115" lon="12.009206552438844"><ele>423.0</ele><time>2026-04-12T16:29:57.822Z</time></trkpt><trkpt lat="42.57032113253165" lon="12.00916933563494"><ele>422.5</ele><time>2026-04-12T16:29:58.822Z</time></trkpt><trkpt lat="42.57007137567433" lon="12.009162434103645"><ele>422.0</ele><time>2026-04-12T16:29:59.822Z</time></trkpt><trkpt lat="42.56983202465363" lon="12.00918704925623"><ele>422.0</ele><time>2026-04-12T16:30:00.822Z</time></trkpt><trkpt lat="42.56961057239457" lon="12.009218680231399"><ele>422.0</ele><time>2026-04-12T16:30:01.822Z</time></trkpt><trkpt lat="42.56939249274978" lon="12.009249083855657"><ele>422.0</ele><time>2026-04-12T16:30:02.822Z</time></trkpt><trkpt lat="42.569158594886254" lon="12.009279189240692"><ele>422.5</ele><time>2026-04-12T16:30:03.822Z</time></trkpt><trkpt lat="42.56891555182446" lon="12.00930828812345"><ele>423.0</ele><time>2026-04-12T16:30:04.822Z</time></trkpt><trkpt lat="42.56867094564036" lon="12.009340870705332"><ele>428.5</ele><time>2026-04-12T16:30:05.825Z</time></trkpt><trkpt lat="42.56842992376207" lon="12.009373666319352"><ele>434.0</ele><time>2026-04-12T16:30:06.825Z</time></trkpt><trkpt lat="42.56819598425036" lon="12.009410691915157"><ele>434.0</ele><time>2026-04-12T16:30:07.824Z</time></trkpt><trkpt lat="42.5679814334899" lon="12.009437208529686"><ele>434.0</ele><time>2026-04-12T16:30:08.825Z</time></trkpt><trkpt lat="42.567779542390966" lon="12.009461746242318"><ele>434.0</ele><time>2026-04-12T16:30:09.824Z</time></trkpt><trkpt lat="42.567591951768385" lon="12.009472464833575"><ele>435.0</ele><time>2026-04-12T16:30:10.824Z</time></trkpt><trkpt lat="42.567417036013616" lon="12.009451221929949"><ele>436.0</ele><time>2026-04-12T16:30:11.825Z</time></trkpt><trkpt lat="42.56724606142998" lon="12.00939940476225"><ele>437.0</ele><time>2026-04-12T16:30:12.825Z</time></trkpt><trkpt lat="42.56709035643602" lon="12.009314299391695"><ele>437.3333333333333</ele><time>2026-04-12T16:30:13.825Z</time></trkpt><trkpt lat="42.56694829785048" lon="12.009191186694556"><ele>437.66666666666663</ele><time>2026-04-12T16:30:14.824Z</time></trkpt><trkpt lat="42.566820565859445" lon="12.009032671658728"><ele>438.0</ele><time>2026-04-12T16:30:15.825Z</time></trkpt><trkpt lat="42.56669702984568" lon="12.00883144238178"><ele>439.33333333333337</ele><time>2026-04-12T16:30:16.825Z</time></trkpt><trkpt lat="42.56658032579696" lon="12.00861797919578"><ele>440.6666666666667</ele><time>2026-04-12T16:30:17.824Z</time></trkpt><trkpt lat="42.566445334517" lon="12.008401211691615"><ele>442.0</ele><time>2026-04-12T16:30:18.825Z</time></trkpt><trkpt lat="42.56630708003122" lon="12.008185344333342"><ele>444.33333333333337</ele><time>2026-04-12T16:30:19.825Z</time></trkpt><trkpt lat="42.56617770945015" lon="12.00798160293095"><ele>446.66666666666663</ele><time>2026-04-12T16:30:20.825Z</time></trkpt><trkpt lat="42.56604273175522" lon="12.007783647500672"><ele>449.0</ele><time>2026-04-12T16:30:21.825Z</time></trkpt><trkpt lat="42.565905933218545" lon="12.007611533438705"><ele>452.0</ele><time>2026-04-12T16:30:22.825Z</time></trkpt><trkpt lat="42.56575626209319" lon="12.007467090613684"><ele>455.0</ele><time>2026-04-12T16:30:23.825Z</time></trkpt><trkpt lat="42.56558765667786" lon="12.007359928588688"><ele>458.0</ele><time>2026-04-12T16:30:24.825Z</time></trkpt><trkpt lat="42.56540457040943" lon="12.007284299890259"><ele>458.0</ele><time>2026-04-12T16:30:25.825Z</time></trkpt><trkpt lat="42.56520541094037" lon="12.007238495056118"><ele>458.0</ele><time>2026-04-12T16:30:26.824Z</time></trkpt><trkpt lat="42.564984041222964" lon="12.007213271558735"><ele>458.0</ele><time>2026-04-12T16:30:27.824Z</time></trkpt><trkpt lat="42.56475568120761" lon="12.007173448381462"><ele>458.0</ele><time>2026-04-12T16:30:28.824Z</time></trkpt><trkpt lat="42.56451885185424" lon="12.007119650635998"><ele>458.0</ele><time>2026-04-12T16:30:29.824Z</time></trkpt><trkpt lat="42.564257892518846" lon="12.00705009469218"><ele>458.0</ele><time>2026-04-12T16:30:30.824Z</time></trkpt><trkpt lat="42.5639952535841" lon="12.00698238660701"><ele>458.0</ele><time>2026-04-12T16:30:31.824Z</time></trkpt><trkpt lat="42.563728481788374" lon="12.006919095766564"><ele>461.0</ele><time>2026-04-12T16:30:32.824Z</time></trkpt><trkpt lat="42.56346341080426" lon="12.006859183263197"><ele>464.0</ele><time>2026-04-12T16:30:33.824Z</time></trkpt><trkpt lat="42.56319215765692" lon="12.006784821403828"><ele>464.0</ele><time>2026-04-12T16:30:34.824Z</time></trkpt><trkpt lat="42.5629166645467" lon="12.00671609140223"><ele>464.0</ele><time>2026-04-12T16:30:35.824Z</time></trkpt><trkpt lat="42.562646384824276" lon="12.006650210131218"><ele>459.5</ele><time>2026-04-12T16:30:36.824Z</time></trkpt><trkpt lat="42.562400432451035" lon="12.006594095821313"><ele>455.0</ele><time>2026-04-12T16:30:37.824Z</time></trkpt><trkpt lat="42.562175109729544" lon="12.006538394692463"><ele>458.3333333333333</ele><time>2026-04-12T16:30:38.824Z</time></trkpt><trkpt lat="42.561961907872764" lon="12.006484211594813"><ele>461.66666666666663</ele><time>2026-04-12T16:30:39.824Z</time></trkpt><trkpt lat="42.56175007776737" lon="12.006432009204286"><ele>465.0</ele><time>2026-04-12T16:30:40.824Z</time></trkpt><trkpt lat="42.561541187900104" lon="12.00638230151148"><ele>465.0</ele><time>2026-04-12T16:30:41.824Z</time></trkpt><trkpt lat="42.56132561692206" lon="12.006322409683161"><ele>465.0</ele><time>2026-04-12T16:30:42.824Z</time></trkpt><trkpt lat="42.56109655967268" lon="12.006261689747566"><ele>467.5</ele><time>2026-04-12T16:30:43.824Z</time></trkpt><trkpt lat="42.560860547651195" lon="12.006199518233922"><ele>470.0</ele><time>2026-04-12T16:30:44.824Z</time></trkpt><trkpt lat="42.56064160159278" lon="12.006148738801553"><ele>470.0</ele><time>2026-04-12T16:30:45.824Z</time></trkpt><trkpt lat="42.5604398980792" lon="12.006101785931827"><ele>470.0</ele><time>2026-04-12T16:30:46.824Z</time></trkpt><trkpt lat="42.560254220831375" lon="12.006073999557282"><ele>470.0</ele><time>2026-04-12T16:30:47.824Z</time></trkpt><trkpt lat="42.56007635418533" lon="12.006082412571146"><ele>470.66666666666663</ele><time>2026-04-12T16:30:48.824Z</time></trkpt><trkpt lat="42.55992123270317" lon="12.006167262218517"><ele>471.33333333333337</ele><time>2026-04-12T16:30:49.824Z</time></trkpt><trkpt lat="42.55979292984138" lon="12.006276997433705"><ele>472.0</ele><time>2026-04-12T16:30:50.824Z</time></trkpt><trkpt lat="42.55968091174475" lon="12.006423187419553"><ele>472.0</ele><time>2026-04-12T16:30:51.824Z</time></trkpt><trkpt lat="42.55956625717978" lon="12.00655887876897"><ele>472.0</ele><time>2026-04-12T16:30:52.824Z</time></trkpt><trkpt lat="42.559432714371255" lon="12.006648967236249"><ele>472.0</ele><time>2026-04-12T16:30:53.824Z</time></trkpt><trkpt lat="42.55930728098726" lon="12.006693300248926"><ele>472.0</ele><time>2026-04-12T16:30:54.824Z</time></trkpt><trkpt lat="42.55917867925239" lon="12.006686798061157"><ele>473.5</ele><time>2026-04-12T16:30:55.824Z</time></trkpt><trkpt lat="42.5590437471979" lon="12.006626870078884"><ele>475.0</ele><time>2026-04-12T16:30:56.824Z</time></trkpt><trkpt lat="42.55894787948751" lon="12.006528466710455"><ele>476.5</ele><time>2026-04-12T16:30:57.824Z</time></trkpt><trkpt lat="42.55885970181891" lon="12.006368174972621"><ele>478.0</ele><time>2026-04-12T16:30:58.824Z</time></trkpt><trkpt lat="42.55878919803106" lon="12.006169180514506"><ele>478.0</ele><time>2026-04-12T16:30:59.824Z</time></trkpt><trkpt lat="42.55872008458628" lon="12.005953159038782"><ele>478.0</ele><time>2026-04-12T16:31:00.824Z</time></trkpt><trkpt lat="42.558617827395004" lon="12.00573932990852"><ele>478.0</ele><time>2026-04-12T16:31:01.824Z</time></trkpt><trkpt lat="42.558492154386315" lon="12.005545489325987"><ele>479.33333333333337</ele><time>2026-04-12T16:31:02.824Z</time></trkpt><trkpt lat="42.55832793045108" lon="12.00538365110467"><ele>480.66666666666663</ele><time>2026-04-12T16:31:03.824Z</time></trkpt><trkpt lat="42.55812552013339" lon="12.005257489219938"><ele>482.0</ele><time>2026-04-12T16:31:04.824Z</time></trkpt><trkpt lat="42.557946282966036" lon="12.005120038908878"><ele>480.66666666666663</ele><time>2026-04-12T16:31:05.823Z</time></trkpt><trkpt lat="42.55776076485797" lon="12.004978610707239"><ele>479.33333333333337</ele><time>2026-04-12T16:31:06.823Z</time></trkpt><trkpt lat="42.55756362856217" lon="12.00487447037427"><ele>478.0</ele><time>2026-04-12T16:31:07.823Z</time></trkpt><trkpt lat="42.557382226981794" lon="12.004797976411659"><ele>478.0</ele><time>2026-04-12T16:31:08.823Z</time></trkpt><trkpt lat="42.55720990827252" lon="12.004742681075466"><ele>478.0</ele><time>2026-04-12T16:31:09.823Z</time></trkpt><trkpt lat="42.55703783655841" lon="12.004724357501523"><ele>478.0</ele><time>2026-04-12T16:31:10.823Z</time></trkpt><trkpt lat="42.556879068369085" lon="12.004733509442106"><ele>479.6666666666667</ele><time>2026-04-12T16:31:11.823Z</time></trkpt><trkpt lat="42.55672630155988" lon="12.004772329057609"><ele>481.33333333333337</ele><time>2026-04-12T16:31:12.823Z</time></trkpt><trkpt lat="42.55657280504313" lon="12.004865079688763"><ele>483.0</ele><time>2026-04-12T16:31:13.823Z</time></trkpt><trkpt lat="42.55640610877953" lon="12.004976419537948"><ele>484.66666666666663</ele><time>2026-04-12T16:31:14.823Z</time></trkpt><trkpt lat="42.55624044626937" lon="12.005111187941461"><ele>486.3333333333333</ele><time>2026-04-12T16:31:15.823Z</time></trkpt><trkpt lat="42.55606567889197" lon="12.005253363266034"><ele>488.0</ele><time>2026-04-12T16:31:16.823Z</time></trkpt><trkpt lat="42.555896112412185" lon="12.005389966894244"><ele>488.0</ele><time>2026-04-12T16:31:17.823Z</time></trkpt><trkpt lat="42.55572286169284" lon="12.005536982305124"><ele>488.0</ele><time>2026-04-12T16:31:18.823Z</time></trkpt><trkpt lat="42.55554058090026" lon="12.005624950029121"><ele>488.0</ele><time>2026-04-12T16:31:19.823Z</time></trkpt><trkpt lat="42.55535969682784" lon="12.00567904608072"><ele>488.3333333333333</ele><time>2026-04-12T16:31:20.823Z</time></trkpt><trkpt lat="42.5551751285686" lon="12.005701940313312"><ele>488.66666666666663</ele><time>2026-04-12T16:31:21.823Z</time></trkpt><trkpt lat="42.55499108320504" lon="12.005702639493759"><ele>489.0</ele><time>2026-04-12T16:31:22.823Z</time></trkpt><trkpt lat="42.554811681751794" lon="12.00566431093596"><ele>489.0</ele><time>2026-04-12T16:31:23.823Z</time></trkpt><trkpt lat="42.55463429035202" lon="12.005596432914563"><ele>489.0</ele><time>2026-04-12T16:31:24.823Z</time></trkpt><trkpt lat="42.5544567097752" lon="12.005496396745944"><ele>489.0</ele><time>2026-04-12T16:31:25.823Z</time></trkpt><trkpt lat="42.55429364434223" lon="12.005383540820244"><ele>494.33333333333337</ele><time>2026-04-12T16:31:26.823Z</time></trkpt><trkpt lat="42.554144147512574" lon="12.005271407557556"><ele>499.6666666666667</ele><time>2026-04-12T16:31:27.823Z</time></trkpt><trkpt lat="42.55400137958197" lon="12.005176890959627"><ele>505.0</ele><time>2026-04-12T16:31:28.823Z</time></trkpt><trkpt lat="42.55387042925574" lon="12.005112551845865"><ele>505.0</ele><time>2026-04-12T16:31:29.823Z</time></trkpt><trkpt lat="42.553748007856115" lon="12.00510045331574"><ele>505.0</ele><time>2026-04-12T16:31:30.823Z</time></trkpt><trkpt lat="42.553642697819114" lon="12.005153864000858"><ele>505.0</ele><time>2026-04-12T16:31:31.823Z</time></trkpt><trkpt lat="42.55357001697617" lon="12.005291268040445"><ele>505.0</ele><time>2026-04-12T16:31:32.823Z</time></trkpt><trkpt lat="42.55353512123635" lon="12.005438096183877"><ele>503.5</ele><time>2026-04-12T16:31:33.823Z</time></trkpt><trkpt lat="42.55353464039241" lon="12.005602921002543"><ele>502.0</ele><time>2026-04-12T16:31:34.823Z</time></trkpt><trkpt lat="42.55357296399794" lon="12.005777553158355"><ele>500.5</ele><time>2026-04-12T16:31:35.823Z</time></trkpt><trkpt lat="42.55364037419805" lon="12.005936816817782"><ele>499.0</ele><time>2026-04-12T16:31:36.823Z</time></trkpt><trkpt lat="42.55372624497456" lon="12.0061219492674"><ele>505.33333333333337</ele><time>2026-04-12T16:31:37.823Z</time></trkpt><trkpt lat="42.55381030698531" lon="12.00634030923031"><ele>511.66666666666663</ele><time>2026-04-12T16:31:38.823Z</time></trkpt><trkpt lat="42.553891544575485" lon="12.006580085845174"><ele>518.0</ele><time>2026-04-12T16:31:39.823Z</time></trkpt><trkpt lat="42.55396968998644" lon="12.006802999675152"><ele>518.0</ele><time>2026-04-12T16:31:40.823Z</time></trkpt><trkpt lat="42.55404057605412" lon="12.007000443662603"><ele>518.0</ele><time>2026-04-12T16:31:41.823Z</time></trkpt><trkpt lat="42.55410617108533" lon="12.007183526292861"><ele>518.0</ele><time>2026-04-12T16:31:42.823Z</time></trkpt><trkpt lat="42.554171249273125" lon="12.007348219953261"><ele>518.0</ele><time>2026-04-12T16:31:43.822Z</time></trkpt><trkpt lat="42.55421919657037" lon="12.007518253840242"><ele>517.0</ele><time>2026-04-12T16:31:44.822Z</time></trkpt><trkpt lat="42.5542299195988" lon="12.007683215259405"><ele>516.0</ele><time>2026-04-12T16:31:45.822Z</time></trkpt><trkpt lat="42.55425062759811" lon="12.007859852497972"><ele>515.0</ele><time>2026-04-12T16:31:46.822Z</time></trkpt><trkpt lat="42.55424633490184" lon="12.00803118368237"><ele>514.0</ele><time>2026-04-12T16:31:47.822Z</time></trkpt><trkpt lat="42.554239321681365" lon="12.008211747748614"><ele>514.5</ele><time>2026-04-12T16:31:48.822Z</time></trkpt><trkpt lat="42.5542272112465" lon="12.008417406719676"><ele>515.0</ele><time>2026-04-12T16:31:49.822Z</time></trkpt><trkpt lat="42.55423463863792" lon="12.008620494035027"><ele>515.5</ele><time>2026-04-12T16:31:50.822Z</time></trkpt><trkpt lat="42.55423259151347" lon="12.00881496780313"><ele>516.0</ele><time>2026-04-12T16:31:51.822Z</time></trkpt><trkpt lat="42.55421780242468" lon="12.009016095558495"><ele>516.0</ele><time>2026-04-12T16:31:52.822Z</time></trkpt><trkpt lat="42.55419766644189" lon="12.009210615623461"><ele>516.0</ele><time>2026-04-12T16:31:53.822Z</time></trkpt><trkpt lat="42.55416445822574" lon="12.009418755978874"><ele>516.0</ele><time>2026-04-12T16:31:54.822Z</time></trkpt><trkpt lat="42.554121429972554" lon="12.009626237891716"><ele>516.0</ele><time>2026-04-12T16:31:55.822Z</time></trkpt><trkpt lat="42.55406968511481" lon="12.00983657073921"><ele>516.0</ele><time>2026-04-12T16:31:56.822Z</time></trkpt><trkpt lat="42.55401862871442" lon="12.010048313637116"><ele>516.0</ele><time>2026-04-12T16:31:57.822Z</time></trkpt><trkpt lat="42.55395123740086" lon="12.010256633020216"><ele>517.0</ele><time>2026-04-12T16:31:58.822Z</time></trkpt><trkpt lat="42.553863237069244" lon="12.01045307435833"><ele>518.0</ele><time>2026-04-12T16:31:59.822Z</time></trkpt><trkpt lat="42.553743734441284" lon="12.010621618088189"><ele>519.0</ele><time>2026-04-12T16:32:00.822Z</time></trkpt><trkpt lat="42.55362097047766" lon="12.010789221852185"><ele>518.6666666666666</ele><time>2026-04-12T16:32:01.822Z</time></trkpt><trkpt lat="42.5535044863744" lon="12.010970422712246"><ele>518.3333333333333</ele><time>2026-04-12T16:32:02.822Z</time></trkpt><trkpt lat="42.55340322184089" lon="12.011176881428817"><ele>518.0</ele><time>2026-04-12T16:32:03.822Z</time></trkpt><trkpt lat="42.553337847212426" lon="12.011410317656107"><ele>519.6666666666666</ele><time>2026-04-12T16:32:04.822Z</time></trkpt><trkpt lat="42.55328937633526" lon="12.011659312875643"><ele>521.3333333333334</ele><time>2026-04-12T16:32:05.822Z</time></trkpt><trkpt lat="42.55324496231912" lon="12.011913400412496"><ele>523.0</ele><time>2026-04-12T16:32:06.822Z</time></trkpt><trkpt lat="42.55319306904004" lon="12.012160478631358"><ele>523.0</ele><time>2026-04-12T16:32:07.822Z</time></trkpt><trkpt lat="42.553134512610036" lon="12.01239323013865"><ele>523.0</ele><time>2026-04-12T16:32:08.822Z</time></trkpt><trkpt lat="42.55305984412377" lon="12.012613555419232"><ele>523.0</ele><time>2026-04-12T16:32:09.822Z</time></trkpt><trkpt lat="42.55297253800671" lon="12.012824121247341"><ele>524.3333333333334</ele><time>2026-04-12T16:32:10.822Z</time></trkpt><trkpt lat="42.55288350383183" lon="12.01302708149997"><ele>525.6666666666666</ele><time>2026-04-12T16:32:11.824Z</time></trkpt><trkpt lat="42.55282102349579" lon="12.013230840303375"><ele>527.0</ele><time>2026-04-12T16:32:12.824Z</time></trkpt><trkpt lat="42.55278937395054" lon="12.013440238116"><ele>529.6666666666666</ele><time>2026-04-12T16:32:13.824Z</time></trkpt><trkpt lat="42.552796881179994" lon="12.013643178558299"><ele>532.3333333333334</ele><time>2026-04-12T16:32:14.824Z</time></trkpt><trkpt lat="42.5528363359559" lon="12.013860532859177"><ele>535.0</ele><time>2026-04-12T16:32:15.824Z</time></trkpt><trkpt lat="42.55289452366276" lon="12.014082408386411"><ele>537.0</ele><time>2026-04-12T16:32:16.824Z</time></trkpt><trkpt lat="42.55295895248145" lon="12.014277469947158"><ele>539.0</ele><time>2026-04-12T16:32:17.824Z</time></trkpt><trkpt lat="42.55300525162638" lon="12.014467882680167"><ele>541.0</ele><time>2026-04-12T16:32:18.825Z</time></trkpt><trkpt lat="42.55301810484934" lon="12.014666797954021"><ele>541.0</ele><time>2026-04-12T16:32:19.825Z</time></trkpt><trkpt lat="42.552996222792196" lon="12.014879104580341"><ele>541.0</ele><time>2026-04-12T16:32:20.824Z</time></trkpt><trkpt lat="42.5529451499587" lon="12.015116155761186"><ele>541.0</ele><time>2026-04-12T16:32:21.824Z</time></trkpt><trkpt lat="42.552879220874466" lon="12.015368785418602"><ele>532.0</ele><time>2026-04-12T16:32:22.824Z</time></trkpt><trkpt lat="42.55282058884571" lon="12.015637216192856"><ele>523.0</ele><time>2026-04-12T16:32:23.824Z</time></trkpt><trkpt lat="42.55276143416027" lon="12.015888099488961"><ele>514.0</ele><time>2026-04-12T16:32:24.824Z</time></trkpt><trkpt lat="42.55270047499422" lon="12.016120032390774"><ele>514.0</ele><time>2026-04-12T16:32:25.824Z</time></trkpt><trkpt lat="42.552618075862334" lon="12.016332044954037"><ele>514.0</ele><time>2026-04-12T16:32:26.824Z</time></trkpt><trkpt lat="42.552512335737475" lon="12.016509192043255"><ele>514.0</ele><time>2026-04-12T16:32:27.824Z</time></trkpt><trkpt lat="42.55242660453071" lon="12.016686090749944"><ele>516.75</ele><time>2026-04-12T16:32:28.824Z</time></trkpt><trkpt lat="42.55237268447552" lon="12.016873310075123"><ele>519.5</ele><time>2026-04-12T16:32:29.824Z</time></trkpt><trkpt lat="42.55235937919497" lon="12.017067627902039"><ele>522.25</ele><time>2026-04-12T16:32:30.824Z</time></trkpt><trkpt lat="42.55238741762914" lon="12.017265667352454"><ele>525.0</ele><time>2026-04-12T16:32:31.824Z</time></trkpt><trkpt lat="42.55244346549856" lon="12.017480127380137"><ele>525.0</ele><time>2026-04-12T16:32:32.824Z</time></trkpt><trkpt lat="42.55250865373031" lon="12.017716270942852"><ele>525.0</ele><time>2026-04-12T16:32:33.824Z</time></trkpt><trkpt lat="42.55257597743397" lon="12.017964181376819"><ele>525.0</ele><time>2026-04-12T16:32:34.824Z</time></trkpt><trkpt lat="42.55262354603912" lon="12.018199922405161"><ele>524.3333333333334</ele><time>2026-04-12T16:32:35.824Z</time></trkpt><trkpt lat="42.55264755517255" lon="12.018426580625835"><ele>523.6666666666667</ele><time>2026-04-12T16:32:36.824Z</time></trkpt><trkpt lat="42.552641442287964" lon="12.018650389883557"><ele>523.0</ele><time>2026-04-12T16:32:37.824Z</time></trkpt><trkpt lat="42.55259728425751" lon="12.018862374799243"><ele>523.0</ele><time>2026-04-12T16:32:38.824Z</time></trkpt><trkpt lat="42.55252796400468" lon="12.019042595188505"><ele>523.0</ele><time>2026-04-12T16:32:39.824Z</time></trkpt><trkpt lat="42.552419313810304" lon="12.019175020863136"><ele>523.0</ele><time>2026-04-12T16:32:40.824Z</time></trkpt><trkpt lat="42.55229639198339" lon="12.019275225324328"><ele>523.0</ele><time>2026-04-12T16:32:41.824Z</time></trkpt><trkpt lat="42.55216601953372" lon="12.019372584206103"><ele>525.25</ele><time>2026-04-12T16:32:42.824Z</time></trkpt><trkpt lat="42.55205974587984" lon="12.019472189301563"><ele>527.5</ele><time>2026-04-12T16:32:43.824Z</time></trkpt><trkpt lat="42.5519623299099" lon="12.019576718974312"><ele>529.75</ele><time>2026-04-12T16:32:44.824Z</time></trkpt><trkpt lat="42.551899305955466" lon="12.019730135559762"><ele>532.0</ele><time>2026-04-12T16:32:45.824Z</time></trkpt><trkpt lat="42.551875939692685" lon="12.019910150401952"><ele>526.3333333333334</ele><time>2026-04-12T16:32:46.824Z</time></trkpt><trkpt lat="42.55189049800595" lon="12.02009784785325"><ele>520.6666666666666</ele><time>2026-04-12T16:32:47.824Z</time></trkpt><trkpt lat="42.55192979722971" lon="12.0202973995375"><ele>515.0</ele><time>2026-04-12T16:32:48.824Z</time></trkpt><trkpt lat="42.5519913440315" lon="12.02050785151887"><ele>524.6666666666666</ele><time>2026-04-12T16:32:49.824Z</time></trkpt><trkpt lat="42.552057734384825" lon="12.020716194731575"><ele>534.3333333333334</ele><time>2026-04-12T16:32:50.824Z</time></trkpt><trkpt lat="42.5521115460154" lon="12.020926503422176"><ele>544.0</ele><time>2026-04-12T16:32:51.824Z</time></trkpt><trkpt lat="42.55214784073168" lon="12.021145959919096"><ele>544.6666666666667</ele><time>2026-04-12T16:32:52.824Z</time></trkpt><trkpt lat="42.55215636161769" lon="12.02136622015233"><ele>545.3333333333334</ele><time>2026-04-12T16:32:53.824Z</time></trkpt><trkpt lat="42.55215701302966" lon="12.021595320591894"><ele>546.0</ele><time>2026-04-12T16:32:54.824Z</time></trkpt><trkpt lat="42.552156355137285" lon="12.0218182389891"><ele>544.3333333333334</ele><time>2026-04-12T16:32:55.824Z</time></trkpt><trkpt lat="42.552152641947345" lon="12.022029371121771"><ele>542.6666666666667</ele><time>2026-04-12T16:32:56.824Z</time></trkpt><trkpt lat="42.552147107209684" lon="12.022230974287094"><ele>541.0</ele><time>2026-04-12T16:32:57.824Z</time></trkpt><trkpt lat="42.55212749526335" lon="12.022430499471236"><ele>541.0</ele><time>2026-04-12T16:32:58.824Z</time></trkpt><trkpt lat="42.552079964242225" lon="12.022626065917075"><ele>541.0</ele><time>2026-04-12T16:32:59.824Z</time></trkpt><trkpt lat="42.5520109161674" lon="12.02282257479603"><ele>541.0</ele><time>2026-04-12T16:33:00.823Z</time></trkpt><trkpt lat="42.551920423138" lon="12.023011770432937"><ele>537.3333333333334</ele><time>2026-04-12T16:33:01.823Z</time></trkpt><trkpt lat="42.55182016352365" lon="12.023189029812306"><ele>533.6666666666666</ele><time>2026-04-12T16:33:02.823Z</time></trkpt><trkpt lat="42.551731210911775" lon="12.023367298665933"><ele>530.0</ele><time>2026-04-12T16:33:03.823Z</time></trkpt><trkpt lat="42.55164585565378" lon="12.023549825808496"><ele>530.0</ele><time>2026-04-12T16:33:04.823Z</time></trkpt><trkpt lat="42.551553696371506" lon="12.023735792707862"><ele>530.0</ele><time>2026-04-12T16:33:05.823Z</time></trkpt><trkpt lat="42.551458249356486" lon="12.02391950460772"><ele>530.0</ele><time>2026-04-12T16:33:06.823Z</time></trkpt><trkpt lat="42.551360027669915" lon="12.02410579109349"><ele>530.6666666666666</ele><time>2026-04-12T16:33:07.823Z</time></trkpt><trkpt lat="42.551241310048695" lon="12.024280275191456"><ele>531.3333333333334</ele><time>2026-04-12T16:33:08.823Z</time></trkpt><trkpt lat="42.55110039474158" lon="12.024438327945253"><ele>532.0</ele><time>2026-04-12T16:33:09.823Z</time></trkpt><trkpt lat="42.55095068629541" lon="12.024572349032942"><ele>529.6666666666667</ele><time>2026-04-12T16:33:10.823Z</time></trkpt><trkpt lat="42.55081250902396" lon="12.024692962018813"><ele>527.3333333333334</ele><time>2026-04-12T16:33:11.823Z</time></trkpt><trkpt lat="42.55068463814735" lon="12.024801202233462"><ele>525.0</ele><time>2026-04-12T16:33:12.823Z</time></trkpt><trkpt lat="42.5505639973593" lon="12.024912183155186"><ele>524.5</ele><time>2026-04-12T16:33:13.823Z</time></trkpt><trkpt lat="42.55046392800847" lon="12.025046929815808"><ele>524.0</ele><time>2026-04-12T16:33:14.823Z</time></trkpt><trkpt lat="42.550386650861704" lon="12.025190001149703"><ele>523.5</ele><time>2026-04-12T16:33:15.823Z</time></trkpt><trkpt lat="42.550358261756585" lon="12.025369393784283"><ele>523.0</ele><time>2026-04-12T16:33:16.823Z</time></trkpt><trkpt lat="42.55035560654281" lon="12.02557236732552"><ele>523.0</ele><time>2026-04-12T16:33:17.823Z</time></trkpt><trkpt lat="42.55035870407009" lon="12.025791240060864"><ele>523.0</ele><time>2026-04-12T16:33:18.823Z</time></trkpt><trkpt lat="42.550352897035744" lon="12.026028335957212"><ele>523.0</ele><time>2026-04-12T16:33:19.823Z</time></trkpt><trkpt lat="42.5503368658954" lon="12.02628744434177"><ele>525.0</ele><time>2026-04-12T16:33:20.823Z</time></trkpt><trkpt lat="42.550320095238284" lon="12.026536537290404"><ele>527.0</ele><time>2026-04-12T16:33:21.823Z</time></trkpt><trkpt lat="42.55031761436552" lon="12.026756265303815"><ele>529.0</ele><time>2026-04-12T16:33:22.823Z</time></trkpt><trkpt lat="42.550347385691325" lon="12.02699837651507"><ele>530.6666666666667</ele><time>2026-04-12T16:33:23.823Z</time></trkpt><trkpt lat="42.550381502961656" lon="12.027234109332072"><ele>532.3333333333334</ele><time>2026-04-12T16:33:24.823Z</time></trkpt><trkpt lat="42.55046344341578" lon="12.027436977790568"><ele>534.0</ele><time>2026-04-12T16:33:25.823Z</time></trkpt><trkpt lat="42.55054489353237" lon="12.027622116097504"><ele>534.0</ele><time>2026-04-12T16:33:26.823Z</time></trkpt><trkpt lat="42.550624784790294" lon="12.027804568010204"><ele>534.0</ele><time>2026-04-12T16:33:27.823Z</time></trkpt><trkpt lat="42.55067450040556" lon="12.027981256490643"><ele>534.0</ele><time>2026-04-12T16:33:28.823Z</time></trkpt><trkpt lat="42.55069068654066" lon="12.028149065900903"><ele>534.0</ele><time>2026-04-12T16:33:29.823Z</time></trkpt><trkpt lat="42.55065764557219" lon="12.028299915850312"><ele>533.25</ele><time>2026-04-12T16:33:30.823Z</time></trkpt><trkpt lat="42.55058645987706" lon="12.028417221393674"><ele>532.5</ele><time>2026-04-12T16:33:31.823Z</time></trkpt><trkpt lat="42.550481446207144" lon="12.028505641066547"><ele>531.75</ele><time>2026-04-12T16:33:32.823Z</time></trkpt><trkpt lat="42.55035332731385" lon="12.028591697283643"><ele>531.0</ele><time>2026-04-12T16:33:33.823Z</time></trkpt><trkpt lat="42.55022004144299" lon="12.028668992738126"><ele>531.0</ele><time>2026-04-12T16:33:34.823Z</time></trkpt><trkpt lat="42.55007249160074" lon="12.0287739073899"><ele>531.0</ele><time>2026-04-12T16:33:35.823Z</time></trkpt><trkpt lat="42.54991478026399" lon="12.028889935122022"><ele>531.0</ele><time>2026-04-12T16:33:36.823Z</time></trkpt><trkpt lat="42.54976152892172" lon="12.0289987562849"><ele>531.0</ele><time>2026-04-12T16:33:37.823Z</time></trkpt><trkpt lat="42.549628966109324" lon="12.029101601681516"><ele>531.0</ele><time>2026-04-12T16:33:38.822Z</time></trkpt><trkpt lat="42.54950790867643" lon="12.029211171486889"><ele>531.0</ele><time>2026-04-12T16:33:39.822Z</time></trkpt><trkpt lat="42.54937328415288" lon="12.029328510728893"><ele>531.0</ele><time>2026-04-12T16:33:40.822Z</time></trkpt><trkpt lat="42.54923012834828" lon="12.029450885450109"><ele>531.0</ele><time>2026-04-12T16:33:41.822Z</time></trkpt><trkpt lat="42.54906846372917" lon="12.029608253440136"><ele>531.0</ele><time>2026-04-12T16:33:42.822Z</time></trkpt><trkpt lat="42.548889967102134" lon="12.02978557488921"><ele>531.0</ele><time>2026-04-12T16:33:43.822Z</time></trkpt><trkpt lat="42.5487210560013" lon="12.029971792591708"><ele>531.0</ele><time>2026-04-12T16:33:44.822Z</time></trkpt><trkpt lat="42.54857405659507" lon="12.030131716558152"><ele>531.0</ele><time>2026-04-12T16:33:45.822Z</time></trkpt><trkpt lat="42.54842612557433" lon="12.030272960338541"><ele>532.6666666666666</ele><time>2026-04-12T16:33:46.822Z</time></trkpt><trkpt lat="42.54826840967178" lon="12.030379032175025"><ele>534.3333333333333</ele><time>2026-04-12T16:33:47.822Z</time></trkpt><trkpt lat="42.548104508535275" lon="12.030432267821032"><ele>536.0</ele><time>2026-04-12T16:33:48.822Z</time></trkpt><trkpt lat="42.54793505907801" lon="12.030435401711454"><ele>539.0</ele><time>2026-04-12T16:33:49.822Z</time></trkpt><trkpt lat="42.54776693195529" lon="12.03042065596607"><ele>542.0</ele><time>2026-04-12T16:33:50.822Z</time></trkpt><trkpt lat="42.54761760255418" lon="12.030406605346766"><ele>545.0</ele><time>2026-04-12T16:33:51.822Z</time></trkpt><trkpt lat="42.547474718294964" lon="12.030436206213336"><ele>545.0</ele><time>2026-04-12T16:33:52.822Z</time></trkpt><trkpt lat="42.547341980849396" lon="12.030510052566457"><ele>545.0</ele><time>2026-04-12T16:33:53.822Z</time></trkpt><trkpt lat="42.54720975418243" lon="12.030618143997264"><ele>545.0</ele><time>2026-04-12T16:33:54.822Z</time></trkpt><trkpt lat="42.54706548312101" lon="12.030735439652856"><ele>548.6666666666666</ele><time>2026-04-12T16:33:55.822Z</time></trkpt><trkpt lat="42.54690985696411" lon="12.030823238606672"><ele>552.3333333333334</ele><time>2026-04-12T16:33:56.822Z</time></trkpt><trkpt lat="42.546749968840125" lon="12.03089259705202"><ele>556.0</ele><time>2026-04-12T16:33:57.822Z</time></trkpt><trkpt lat="42.54656525300589" lon="12.030943174269257"><ele>556.0</ele><time>2026-04-12T16:33:58.822Z</time></trkpt><trkpt lat="42.54639598559502" lon="12.030965655274134"><ele>556.0</ele><time>2026-04-12T16:33:59.822Z</time></trkpt><trkpt lat="42.54623208770278" lon="12.03095827680871"><ele>556.0</ele><time>2026-04-12T16:34:00.822Z</time></trkpt><trkpt lat="42.5460671785703" lon="12.030938218410771"><ele>557.25</ele><time>2026-04-12T16:34:01.822Z</time></trkpt><trkpt lat="42.545891690429606" lon="12.030917230766336"><ele>558.5</ele><time>2026-04-12T16:34:02.822Z</time></trkpt><trkpt lat="42.545759618718904" lon="12.030911254579648"><ele>559.75</ele><time>2026-04-12T16:34:03.822Z</time></trkpt><trkpt lat="42.54563630078018" lon="12.030920673824612"><ele>561.0</ele><time>2026-04-12T16:34:04.822Z</time></trkpt><trkpt lat="42.5455038033204" lon="12.030944809232716"><ele>561.0</ele><time>2026-04-12T16:34:05.822Z</time></trkpt><trkpt lat="42.54538854904671" lon="12.030965705949177"><ele>561.0</ele><time>2026-04-12T16:34:06.822Z</time></trkpt><trkpt lat="42.54527077510206" lon="12.031004441552614"><ele>561.0</ele><time>2026-04-12T16:34:07.822Z</time></trkpt><trkpt lat="42.54514871980687" lon="12.031054100172794"><ele>561.0</ele><time>2026-04-12T16:34:08.822Z</time></trkpt><trkpt lat="42.54502321662616" lon="12.031092656105917"><ele>561.75</ele><time>2026-04-12T16:34:09.822Z</time></trkpt><trkpt lat="42.544895175083134" lon="12.03112161983242"><ele>562.5</ele><time>2026-04-12T16:34:10.822Z</time></trkpt><trkpt lat="42.54477057346829" lon="12.031151566765073"><ele>563.25</ele><time>2026-04-12T16:34:11.822Z</time></trkpt><trkpt lat="42.54464472320914" lon="12.03116985831635"><ele>564.0</ele><time>2026-04-12T16:34:12.822Z</time></trkpt><trkpt lat="42.544515340992525" lon="12.031184411622016"><ele>564.5</ele><time>2026-04-12T16:34:13.822Z</time></trkpt><trkpt lat="42.54439230790853" lon="12.031200755612502"><ele>565.0</ele><time>2026-04-12T16:34:14.822Z</time></trkpt><trkpt lat="42.54425355106" lon="12.031217339403259"><ele>565.5</ele><time>2026-04-12T16:34:15.822Z</time></trkpt><trkpt lat="42.54412388280082" lon="12.031241819963233"><ele>566.0</ele><time>2026-04-12T16:34:16.822Z</time></trkpt><trkpt lat="42.54400376317608" lon="12.031278889925344"><ele>566.0</ele><time>2026-04-12T16:34:17.824Z</time></trkpt><trkpt lat="42.543877101945476" lon="12.031311199435523"><ele>566.0</ele><time>2026-04-12T16:34:18.823Z</time></trkpt><trkpt lat="42.54375560953968" lon="12.031344890796369"><ele>566.0</ele><time>2026-04-12T16:34:19.825Z</time></trkpt><trkpt lat="42.543636494586266" lon="12.031400214922973"><ele>566.0</ele><time>2026-04-12T16:34:20.826Z</time></trkpt><trkpt lat="42.54351192941063" lon="12.031447963651878"><ele>567.0</ele><time>2026-04-12T16:34:21.828Z</time></trkpt><trkpt lat="42.543413189553334" lon="12.03147719262163"><ele>568.0</ele><time>2026-04-12T16:34:22.829Z</time></trkpt><trkpt lat="42.5432986808015" lon="12.03150648444128"><ele>569.0</ele><time>2026-04-12T16:34:23.83Z</time></trkpt><trkpt lat="42.5431714427486" lon="12.031554200553913"><ele>570.0</ele><time>2026-04-12T16:34:24.831Z</time></trkpt><trkpt lat="42.54304331686499" lon="12.031595511086822"><ele>570.0</ele><time>2026-04-12T16:34:25.832Z</time></trkpt><trkpt lat="42.542924285128215" lon="12.031622552760545"><ele>570.0</ele><time>2026-04-12T16:34:26.833Z</time></trkpt><trkpt lat="42.54281277619949" lon="12.03163824306622"><ele>570.0</ele><time>2026-04-12T16:34:27.834Z</time></trkpt><trkpt lat="42.54270477962828" lon="12.0316369652261"><ele>570.0</ele><time>2026-04-12T16:34:28.835Z</time></trkpt><trkpt lat="42.542594362246646" lon="12.031640741166603"><ele>570.0</ele><time>2026-04-12T16:34:29.836Z</time></trkpt><trkpt lat="42.54248820057746" lon="12.031646921417323"><ele>570.0</ele><time>2026-04-12T16:34:30.836Z</time></trkpt><trkpt lat="42.54238158588351" lon="12.03165563038385"><ele>570.0</ele><time>2026-04-12T16:34:31.837Z</time></trkpt><trkpt lat="42.54226127220155" lon="12.031684933354393"><ele>570.0</ele><time>2026-04-12T16:34:32.837Z</time></trkpt><trkpt lat="42.542149524999964" lon="12.031730073661894"><ele>570.0</ele><time>2026-04-12T16:34:33.838Z</time></trkpt><trkpt lat="42.542049285994665" lon="12.031802357570509"><ele>570.0</ele><time>2026-04-12T16:34:34.839Z</time></trkpt><trkpt lat="42.54194938008147" lon="12.031862166316785"><ele>570.0</ele><time>2026-04-12T16:34:35.839Z</time></trkpt><trkpt lat="42.54183761649773" lon="12.031928678070956"><ele>570.0</ele><time>2026-04-12T16:34:36.84Z</time></trkpt><trkpt lat="42.54174332864194" lon="12.032010161638288"><ele>569.75</ele><time>2026-04-12T16:34:37.84Z</time></trkpt><trkpt lat="42.54164563213316" lon="12.032094307330036"><ele>569.5</ele><time>2026-04-12T16:34:38.84Z</time></trkpt><trkpt lat="42.54154061553256" lon="12.032160724271682"><ele>569.25</ele><time>2026-04-12T16:34:39.841Z</time></trkpt><trkpt lat="42.54144205485213" lon="12.032243999944727"><ele>569.0</ele><time>2026-04-12T16:34:40.841Z</time></trkpt><trkpt lat="42.5413460184154" lon="12.03231824332854"><ele>569.0</ele><time>2026-04-12T16:34:41.842Z</time></trkpt><trkpt lat="42.541256348565625" lon="12.03238693330675"><ele>569.0</ele><time>2026-04-12T16:34:42.842Z</time></trkpt><trkpt lat="42.54118172515064" lon="12.03244278507251"><ele>569.0</ele><time>2026-04-12T16:34:43.842Z</time></trkpt><trkpt lat="42.541109758214915" lon="12.032496117732014"><ele>569.0</ele><time>2026-04-12T16:34:44.842Z</time></trkpt><trkpt lat="42.5410480102457" lon="12.032541877374188"><ele>569.0</ele><time>2026-04-12T16:34:45.843Z</time></trkpt><trkpt lat="42.54098643992884" lon="12.032587505462581"><ele>569.0</ele><time>2026-04-12T16:34:46.843Z</time></trkpt><trkpt lat="42.540926565613645" lon="12.032628422588362"><ele>568.5</ele><time>2026-04-12T16:34:47.843Z</time></trkpt><trkpt lat="42.54085593713469" lon="12.032677413932788"><ele>568.0</ele><time>2026-04-12T16:34:49.844Z</time></trkpt><trkpt lat="42.54075922265465" lon="12.032744500119271"><ele>567.5</ele><time>2026-04-12T16:34:51.844Z</time></trkpt><trkpt lat="42.54073369751484" lon="12.033047608532213"><ele>567.0</ele><time>2026-04-12T16:34:53.844Z</time></trkpt><trkpt lat="42.540695110848496" lon="12.033155684990826"><ele>567.0</ele><time>2026-04-12T16:34:55.844Z</time></trkpt><trkpt lat="42.54074100013414" lon="12.033233282652802"><ele>567.0</ele><time>2026-04-12T16:34:56.845Z</time></trkpt><trkpt lat="42.54081004415002" lon="12.03335335204007"><ele>567.0</ele><time>2026-04-12T16:34:57.845Z</time></trkpt><trkpt lat="42.54087353972623" lon="12.033505637765552"><ele>567.0</ele><time>2026-04-12T16:34:58.845Z</time></trkpt><trkpt lat="42.54095267776306" lon="12.033636184368577"><ele>567.0</ele><time>2026-04-12T16:34:59.845Z</time></trkpt><trkpt lat="42.54103648864923" lon="12.033776294480184"><ele>566.75</ele><time>2026-04-12T16:35:00.845Z</time></trkpt><trkpt lat="42.54112068402349" lon="12.033917047374443"><ele>566.5</ele><time>2026-04-12T16:35:01.845Z</time></trkpt><trkpt lat="42.541200371570746" lon="12.034050264381754"><ele>566.25</ele><time>2026-04-12T16:35:02.845Z</time></trkpt><trkpt lat="42.5412607802325" lon="12.034187817120662"><ele>566.0</ele><time>2026-04-12T16:35:03.845Z</time></trkpt><trkpt lat="42.541329663756" lon="12.034296553718017"><ele>564.0</ele><time>2026-04-12T16:35:04.845Z</time></trkpt><trkpt lat="42.54139247520209" lon="12.034410840255282"><ele>562.0</ele><time>2026-04-12T16:35:05.845Z</time></trkpt><trkpt lat="42.54145294707022" lon="12.0345116100642"><ele>560.0</ele><time>2026-04-12T16:35:06.845Z</time></trkpt><trkpt lat="42.5415136216882" lon="12.034616001083217"><ele>558.0</ele><time>2026-04-12T16:35:07.845Z</time></trkpt><trkpt lat="42.541566688563286" lon="12.034722413716723"><ele>556.0</ele><time>2026-04-12T16:35:08.845Z</time></trkpt><trkpt lat="42.54162348959712" lon="12.034826106334952"><ele>556.0</ele><time>2026-04-12T16:35:09.845Z</time></trkpt><trkpt lat="42.54167296515016" lon="12.034931870202765"><ele>556.0</ele><time>2026-04-12T16:35:10.845Z</time></trkpt><trkpt lat="42.54171352201009" lon="12.035027852143187"><ele>556.0</ele><time>2026-04-12T16:35:11.846Z</time></trkpt><trkpt lat="42.54175357853814" lon="12.035117975369312"><ele>556.0</ele><time>2026-04-12T16:35:13.846Z</time></trkpt><trkpt lat="42.541715443409245" lon="12.035035836836588"><ele>556.0</ele><time>2026-04-12T16:35:26.846Z</time></trkpt><trkpt lat="42.54177354180299" lon="12.035211142433322"><ele>554.4</ele><time>2026-04-12T16:39:41.845Z</time></trkpt><trkpt lat="42.54180445402512" lon="12.035344333989457"><ele>552.8</ele><time>2026-04-12T16:39:42.845Z</time></trkpt><trkpt lat="42.54190781052313" lon="12.03544768466511"><ele>551.1999999999999</ele><time>2026-04-12T16:39:43.845Z</time></trkpt><trkpt lat="42.54195602337128" lon="12.035552610731434"><ele>549.6</ele><time>2026-04-12T16:39:44.845Z</time></trkpt><trkpt lat="42.54200232525673" lon="12.035665417437219"><ele>548.0</ele><time>2026-04-12T16:39:45.845Z</time></trkpt><trkpt lat="42.542040640901625" lon="12.035802382101954"><ele>545.8</ele><time>2026-04-12T16:39:46.845Z</time></trkpt><trkpt lat="42.54209058157145" lon="12.035933629604244"><ele>543.5999999999999</ele><time>2026-04-12T16:39:47.845Z</time></trkpt><trkpt lat="42.54215507631598" lon="12.036033500730777"><ele>541.4000000000001</ele><time>2026-04-12T16:39:48.845Z</time></trkpt><trkpt lat="42.54221790356057" lon="12.036141845916148"><ele>539.2</ele><time>2026-04-12T16:39:49.845Z</time></trkpt><trkpt lat="42.54229890547397" lon="12.03624928963756"><ele>537.0</ele><time>2026-04-12T16:39:50.845Z</time></trkpt><trkpt lat="42.54240065065701" lon="12.036343838447177"><ele>537.0</ele><time>2026-04-12T16:39:51.845Z</time></trkpt><trkpt lat="42.542485860776885" lon="12.03642145960931"><ele>537.0</ele><time>2026-04-12T16:39:52.845Z</time></trkpt><trkpt lat="42.542544505414114" lon="12.036482445137423"><ele>537.0</ele><time>2026-04-12T16:39:53.845Z</time></trkpt><trkpt lat="42.54258571163846" lon="12.036552195222939"><ele>537.0</ele><time>2026-04-12T16:39:55.845Z</time></trkpt><trkpt lat="42.542645262766385" lon="12.036667318144138"><ele>537.0</ele><time>2026-04-12T16:39:58.845Z</time></trkpt><trkpt lat="42.542707237527146" lon="12.036788797792989"><ele>537.0</ele><time>2026-04-12T16:39:59.845Z</time></trkpt><trkpt lat="42.54278559850618" lon="12.036912345784062"><ele>537.0</ele><time>2026-04-12T16:40:00.845Z</time></trkpt><trkpt lat="42.542845049918974" lon="12.037036355527297"><ele>537.0</ele><time>2026-04-12T16:40:01.845Z</time></trkpt><trkpt lat="42.54288664261773" lon="12.037161535381527"><ele>537.0</ele><time>2026-04-12T16:40:02.845Z</time></trkpt><trkpt lat="42.54292870535066" lon="12.037299355196916"><ele>537.0</ele><time>2026-04-12T16:40:03.845Z</time></trkpt><trkpt lat="42.54298153481009" lon="12.037435415498338"><ele>536.4</ele><time>2026-04-12T16:40:04.845Z</time></trkpt><trkpt lat="42.543035314268266" lon="12.037557738023681"><ele>535.8000000000001</ele><time>2026-04-12T16:40:05.845Z</time></trkpt><trkpt lat="42.54309928760634" lon="12.037683639899564"><ele>535.2</ele><time>2026-04-12T16:40:06.845Z</time></trkpt><trkpt lat="42.5431504743083" lon="12.037797028599858"><ele>534.6</ele><time>2026-04-12T16:40:07.845Z</time></trkpt><trkpt lat="42.54320923715077" lon="12.037889158448928"><ele>534.0</ele><time>2026-04-12T16:40:08.845Z</time></trkpt><trkpt lat="42.54325741973191" lon="12.03796495747332"><ele>534.0</ele><time>2026-04-12T16:40:09.845Z</time></trkpt><trkpt lat="42.543291375600646" lon="12.038053095831776"><ele>534.0</ele><time>2026-04-12T16:40:10.845Z</time></trkpt><trkpt lat="42.543368332148226" lon="12.038099779886734"><ele>534.0</ele><time>2026-04-12T16:40:11.845Z</time></trkpt><trkpt lat="42.54344012018543" lon="12.038180697629373"><ele>534.0</ele><time>2026-04-12T16:40:12.845Z</time></trkpt><trkpt lat="42.54352780206066" lon="12.038231382960856"><ele>534.0</ele><time>2026-04-12T16:40:13.845Z</time></trkpt><trkpt lat="42.54361825977842" lon="12.038282211187889"><ele>534.0</ele><time>2026-04-12T16:40:14.845Z</time></trkpt><trkpt lat="42.54369592272313" lon="12.038319399462747"><ele>533.2</ele><time>2026-04-12T16:40:15.845Z</time></trkpt><trkpt lat="42.54377823199952" lon="12.038386536742955"><ele>532.4</ele><time>2026-04-12T16:40:17.845Z</time></trkpt><trkpt lat="42.54373195626995" lon="12.03860876410983"><ele>531.6</ele><time>2026-04-12T16:40:20.845Z</time></trkpt><trkpt lat="42.54369849320394" lon="12.038716748515263"><ele>530.8</ele><time>2026-04-12T16:40:22.845Z</time></trkpt><trkpt lat="42.54369745509237" lon="12.038819870846261"><ele>530.0</ele><time>2026-04-12T16:40:25.844Z</time></trkpt><trkpt lat="42.54361205368944" lon="12.038796891356087"><ele>530.0</ele><time>2026-04-12T16:45:03.986Z</time></trkpt></trkseg></trk></gpx>